<?xml version="1.0" encoding="UTF-8" standalone="no" ?>
<gpx xmlns="http://www.topografix.com/GPX/1/1" xmlns:xsi="http://www.w3.org/2001/XMLSchema-instance" xsi:schemaLocation="http://www.topografix.com/GPX/1/1 http://www.topografix.com/GPX/1/1/gpx.xsd" version="1.1" creator="VisuGPX - https://www.visugpx.com">
  <metadata>
    <name>Boucle de 47 km par Vantavon Rorebeau Ribiers</name>
    <desc><![CDATA[Boucle sans difficulté dans les Hautes-Alpes avec un dénivelé de 283 m.]]></desc>
  </metadata>
  <trk>
    <name><![CDATA[Boucle de 47 km par Vantavon Rorebeau Ribiers_1]]></name>
    <trkseg>
      <trkpt lat="44.31608" lon="5.82977">
        <ele>562</ele>
        <time>2019-08-02T06:47:53Z</time>
      </trkpt>
      <trkpt lat="44.31593" lon="5.82941">
        <ele>576</ele>
        <time>2019-08-02T06:48:46Z</time>
      </trkpt>
      <trkpt lat="44.3159" lon="5.82938">
        <ele>575</ele>
        <time>2019-08-02T06:48:47Z</time>
      </trkpt>
      <trkpt lat="44.31587" lon="5.82935">
        <ele>575</ele>
        <time>2019-08-02T06:48:48Z</time>
      </trkpt>
      <trkpt lat="44.31584" lon="5.82933">
        <ele>575</ele>
        <time>2019-08-02T06:48:49Z</time>
      </trkpt>
      <trkpt lat="44.3158" lon="5.8293">
        <ele>575</ele>
        <time>2019-08-02T06:48:50Z</time>
      </trkpt>
      <trkpt lat="44.31577" lon="5.82927">
        <ele>574</ele>
        <time>2019-08-02T06:48:51Z</time>
      </trkpt>
      <trkpt lat="44.31572" lon="5.82925">
        <ele>574</ele>
        <time>2019-08-02T06:48:52Z</time>
      </trkpt>
      <trkpt lat="44.31568" lon="5.82922">
        <ele>574</ele>
        <time>2019-08-02T06:48:53Z</time>
      </trkpt>
      <trkpt lat="44.31564" lon="5.82919">
        <ele>574</ele>
        <time>2019-08-02T06:48:54Z</time>
      </trkpt>
      <trkpt lat="44.3156" lon="5.82917">
        <ele>574</ele>
        <time>2019-08-02T06:48:55Z</time>
      </trkpt>
      <trkpt lat="44.31557" lon="5.82915">
        <ele>574</ele>
        <time>2019-08-02T06:48:56Z</time>
      </trkpt>
      <trkpt lat="44.31554" lon="5.82914">
        <ele>574</ele>
        <time>2019-08-02T06:48:57Z</time>
      </trkpt>
      <trkpt lat="44.31552" lon="5.82912">
        <ele>573</ele>
        <time>2019-08-02T06:48:58Z</time>
      </trkpt>
      <trkpt lat="44.3155" lon="5.82911">
        <ele>573</ele>
        <time>2019-08-02T06:48:59Z</time>
      </trkpt>
      <trkpt lat="44.31547" lon="5.82909">
        <ele>573</ele>
        <time>2019-08-02T06:49:00Z</time>
      </trkpt>
      <trkpt lat="44.31544" lon="5.82907">
        <ele>573</ele>
        <time>2019-08-02T06:49:01Z</time>
      </trkpt>
      <trkpt lat="44.31542" lon="5.82905">
        <ele>573</ele>
        <time>2019-08-02T06:49:02Z</time>
      </trkpt>
      <trkpt lat="44.31539" lon="5.82902">
        <ele>573</ele>
        <time>2019-08-02T06:49:03Z</time>
      </trkpt>
      <trkpt lat="44.31537" lon="5.82898">
        <ele>573</ele>
        <time>2019-08-02T06:49:04Z</time>
      </trkpt>
      <trkpt lat="44.31534" lon="5.82895">
        <ele>573</ele>
        <time>2019-08-02T06:49:05Z</time>
      </trkpt>
      <trkpt lat="44.31531" lon="5.82892">
        <ele>573</ele>
        <time>2019-08-02T06:49:06Z</time>
      </trkpt>
      <trkpt lat="44.31528" lon="5.82889">
        <ele>573</ele>
        <time>2019-08-02T06:49:07Z</time>
      </trkpt>
      <trkpt lat="44.31526" lon="5.82886">
        <ele>573</ele>
        <time>2019-08-02T06:49:08Z</time>
      </trkpt>
      <trkpt lat="44.31524" lon="5.82883">
        <ele>572</ele>
        <time>2019-08-02T06:49:09Z</time>
      </trkpt>
      <trkpt lat="44.31521" lon="5.8288">
        <ele>572</ele>
        <time>2019-08-02T06:49:10Z</time>
      </trkpt>
      <trkpt lat="44.31518" lon="5.82878">
        <ele>572</ele>
        <time>2019-08-02T06:49:11Z</time>
      </trkpt>
      <trkpt lat="44.31516" lon="5.82874">
        <ele>572</ele>
        <time>2019-08-02T06:49:12Z</time>
      </trkpt>
      <trkpt lat="44.31513" lon="5.82871">
        <ele>571</ele>
        <time>2019-08-02T06:49:13Z</time>
      </trkpt>
      <trkpt lat="44.31509" lon="5.8287">
        <ele>571</ele>
        <time>2019-08-02T06:49:14Z</time>
      </trkpt>
      <trkpt lat="44.31504" lon="5.8287">
        <ele>571</ele>
        <time>2019-08-02T06:49:15Z</time>
      </trkpt>
      <trkpt lat="44.315" lon="5.82873">
        <ele>571</ele>
        <time>2019-08-02T06:49:16Z</time>
      </trkpt>
      <trkpt lat="44.31496" lon="5.82876">
        <ele>571</ele>
        <time>2019-08-02T06:49:17Z</time>
      </trkpt>
      <trkpt lat="44.31493" lon="5.82879">
        <ele>571</ele>
        <time>2019-08-02T06:49:18Z</time>
      </trkpt>
      <trkpt lat="44.3149" lon="5.82882">
        <ele>571</ele>
        <time>2019-08-02T06:49:19Z</time>
      </trkpt>
      <trkpt lat="44.31487" lon="5.82886">
        <ele>570</ele>
        <time>2019-08-02T06:49:20Z</time>
      </trkpt>
      <trkpt lat="44.31484" lon="5.8289">
        <ele>570</ele>
        <time>2019-08-02T06:49:21Z</time>
      </trkpt>
      <trkpt lat="44.31482" lon="5.82894">
        <ele>570</ele>
        <time>2019-08-02T06:49:22Z</time>
      </trkpt>
      <trkpt lat="44.3148" lon="5.82898">
        <ele>570</ele>
        <time>2019-08-02T06:49:23Z</time>
      </trkpt>
      <trkpt lat="44.31479" lon="5.82902">
        <ele>569</ele>
        <time>2019-08-02T06:49:24Z</time>
      </trkpt>
      <trkpt lat="44.31477" lon="5.82906">
        <ele>569</ele>
        <time>2019-08-02T06:49:25Z</time>
      </trkpt>
      <trkpt lat="44.31475" lon="5.8291">
        <ele>569</ele>
        <time>2019-08-02T06:49:26Z</time>
      </trkpt>
      <trkpt lat="44.31472" lon="5.82914">
        <ele>569</ele>
        <time>2019-08-02T06:49:27Z</time>
      </trkpt>
      <trkpt lat="44.3147" lon="5.82919">
        <ele>569</ele>
        <time>2019-08-02T06:49:28Z</time>
      </trkpt>
      <trkpt lat="44.31467" lon="5.82922">
        <ele>569</ele>
        <time>2019-08-02T06:49:29Z</time>
      </trkpt>
      <trkpt lat="44.31465" lon="5.82926">
        <ele>569</ele>
        <time>2019-08-02T06:49:30Z</time>
      </trkpt>
      <trkpt lat="44.31463" lon="5.8293">
        <ele>569</ele>
        <time>2019-08-02T06:49:31Z</time>
      </trkpt>
      <trkpt lat="44.31459" lon="5.82935">
        <ele>569</ele>
        <time>2019-08-02T06:49:32Z</time>
      </trkpt>
      <trkpt lat="44.31457" lon="5.82939">
        <ele>569</ele>
        <time>2019-08-02T06:49:33Z</time>
      </trkpt>
      <trkpt lat="44.31454" lon="5.82943">
        <ele>569</ele>
        <time>2019-08-02T06:49:34Z</time>
      </trkpt>
      <trkpt lat="44.31451" lon="5.82947">
        <ele>569</ele>
        <time>2019-08-02T06:49:35Z</time>
      </trkpt>
      <trkpt lat="44.31447" lon="5.82952">
        <ele>569</ele>
        <time>2019-08-02T06:49:36Z</time>
      </trkpt>
      <trkpt lat="44.31444" lon="5.82956">
        <ele>569</ele>
        <time>2019-08-02T06:49:37Z</time>
      </trkpt>
      <trkpt lat="44.31441" lon="5.8296">
        <ele>569</ele>
        <time>2019-08-02T06:49:38Z</time>
      </trkpt>
      <trkpt lat="44.31438" lon="5.82965">
        <ele>569</ele>
        <time>2019-08-02T06:49:39Z</time>
      </trkpt>
      <trkpt lat="44.31435" lon="5.82968">
        <ele>569</ele>
        <time>2019-08-02T06:49:40Z</time>
      </trkpt>
      <trkpt lat="44.31432" lon="5.82972">
        <ele>569</ele>
        <time>2019-08-02T06:49:41Z</time>
      </trkpt>
      <trkpt lat="44.3143" lon="5.82977">
        <ele>569</ele>
        <time>2019-08-02T06:49:42Z</time>
      </trkpt>
      <trkpt lat="44.31427" lon="5.82981">
        <ele>569</ele>
        <time>2019-08-02T06:49:43Z</time>
      </trkpt>
      <trkpt lat="44.31424" lon="5.82985">
        <ele>569</ele>
        <time>2019-08-02T06:49:44Z</time>
      </trkpt>
      <trkpt lat="44.31421" lon="5.82989">
        <ele>569</ele>
        <time>2019-08-02T06:49:45Z</time>
      </trkpt>
      <trkpt lat="44.31418" lon="5.82993">
        <ele>569</ele>
        <time>2019-08-02T06:49:46Z</time>
      </trkpt>
      <trkpt lat="44.31415" lon="5.82997">
        <ele>569</ele>
        <time>2019-08-02T06:49:47Z</time>
      </trkpt>
      <trkpt lat="44.31413" lon="5.83002">
        <ele>569</ele>
        <time>2019-08-02T06:49:48Z</time>
      </trkpt>
      <trkpt lat="44.3141" lon="5.83006">
        <ele>569</ele>
        <time>2019-08-02T06:49:49Z</time>
      </trkpt>
      <trkpt lat="44.31407" lon="5.8301">
        <ele>569</ele>
        <time>2019-08-02T06:49:50Z</time>
      </trkpt>
      <trkpt lat="44.31404" lon="5.83015">
        <ele>569</ele>
        <time>2019-08-02T06:49:51Z</time>
      </trkpt>
      <trkpt lat="44.31401" lon="5.83018">
        <ele>569</ele>
        <time>2019-08-02T06:49:52Z</time>
      </trkpt>
      <trkpt lat="44.31399" lon="5.83022">
        <ele>569</ele>
        <time>2019-08-02T06:49:53Z</time>
      </trkpt>
      <trkpt lat="44.31396" lon="5.83026">
        <ele>569</ele>
        <time>2019-08-02T06:49:54Z</time>
      </trkpt>
      <trkpt lat="44.31393" lon="5.8303">
        <ele>569</ele>
        <time>2019-08-02T06:49:55Z</time>
      </trkpt>
      <trkpt lat="44.31389" lon="5.83034">
        <ele>569</ele>
        <time>2019-08-02T06:49:56Z</time>
      </trkpt>
      <trkpt lat="44.31386" lon="5.83038">
        <ele>569</ele>
        <time>2019-08-02T06:49:57Z</time>
      </trkpt>
      <trkpt lat="44.31383" lon="5.83041">
        <ele>569</ele>
        <time>2019-08-02T06:49:58Z</time>
      </trkpt>
      <trkpt lat="44.31381" lon="5.83046">
        <ele>569</ele>
        <time>2019-08-02T06:49:59Z</time>
      </trkpt>
      <trkpt lat="44.3138" lon="5.8305">
        <ele>569</ele>
        <time>2019-08-02T06:50:00Z</time>
      </trkpt>
      <trkpt lat="44.31378" lon="5.83054">
        <ele>569</ele>
        <time>2019-08-02T06:50:01Z</time>
      </trkpt>
      <trkpt lat="44.31375" lon="5.83059">
        <ele>569</ele>
        <time>2019-08-02T06:50:02Z</time>
      </trkpt>
      <trkpt lat="44.31372" lon="5.83064">
        <ele>569</ele>
        <time>2019-08-02T06:50:03Z</time>
      </trkpt>
      <trkpt lat="44.31371" lon="5.83069">
        <ele>569</ele>
        <time>2019-08-02T06:50:04Z</time>
      </trkpt>
      <trkpt lat="44.31368" lon="5.83073">
        <ele>569</ele>
        <time>2019-08-02T06:50:05Z</time>
      </trkpt>
      <trkpt lat="44.31366" lon="5.83079">
        <ele>569</ele>
        <time>2019-08-02T06:50:06Z</time>
      </trkpt>
      <trkpt lat="44.31363" lon="5.83084">
        <ele>569</ele>
        <time>2019-08-02T06:50:07Z</time>
      </trkpt>
      <trkpt lat="44.31361" lon="5.83089">
        <ele>569</ele>
        <time>2019-08-02T06:50:08Z</time>
      </trkpt>
      <trkpt lat="44.31359" lon="5.83093">
        <ele>569</ele>
        <time>2019-08-02T06:50:09Z</time>
      </trkpt>
      <trkpt lat="44.31358" lon="5.83097">
        <ele>569</ele>
        <time>2019-08-02T06:50:10Z</time>
      </trkpt>
      <trkpt lat="44.31356" lon="5.83099">
        <ele>569</ele>
        <time>2019-08-02T06:50:11Z</time>
      </trkpt>
      <trkpt lat="44.31354" lon="5.83101">
        <ele>569</ele>
        <time>2019-08-02T06:50:12Z</time>
      </trkpt>
      <trkpt lat="44.31351" lon="5.83101">
        <ele>569</ele>
        <time>2019-08-02T06:50:13Z</time>
      </trkpt>
      <trkpt lat="44.31349" lon="5.83099">
        <ele>569</ele>
        <time>2019-08-02T06:50:14Z</time>
      </trkpt>
      <trkpt lat="44.31348" lon="5.83096">
        <ele>569</ele>
        <time>2019-08-02T06:50:15Z</time>
      </trkpt>
      <trkpt lat="44.31346" lon="5.83091">
        <ele>569</ele>
        <time>2019-08-02T06:50:16Z</time>
      </trkpt>
      <trkpt lat="44.31346" lon="5.83085">
        <ele>569</ele>
        <time>2019-08-02T06:50:17Z</time>
      </trkpt>
      <trkpt lat="44.31346" lon="5.8308">
        <ele>569</ele>
        <time>2019-08-02T06:50:18Z</time>
      </trkpt>
      <trkpt lat="44.31347" lon="5.83074">
        <ele>569</ele>
        <time>2019-08-02T06:50:19Z</time>
      </trkpt>
      <trkpt lat="44.31346" lon="5.83068">
        <ele>569</ele>
        <time>2019-08-02T06:50:20Z</time>
      </trkpt>
      <trkpt lat="44.31347" lon="5.83061">
        <ele>569</ele>
        <time>2019-08-02T06:50:21Z</time>
      </trkpt>
      <trkpt lat="44.31348" lon="5.83055">
        <ele>569</ele>
        <time>2019-08-02T06:50:22Z</time>
      </trkpt>
      <trkpt lat="44.3135" lon="5.83049">
        <ele>569</ele>
        <time>2019-08-02T06:50:23Z</time>
      </trkpt>
      <trkpt lat="44.31351" lon="5.83043">
        <ele>569</ele>
        <time>2019-08-02T06:50:24Z</time>
      </trkpt>
      <trkpt lat="44.31353" lon="5.83037">
        <ele>569</ele>
        <time>2019-08-02T06:50:25Z</time>
      </trkpt>
      <trkpt lat="44.31354" lon="5.83031">
        <ele>569</ele>
        <time>2019-08-02T06:50:26Z</time>
      </trkpt>
      <trkpt lat="44.31356" lon="5.83024">
        <ele>569</ele>
        <time>2019-08-02T06:50:27Z</time>
      </trkpt>
      <trkpt lat="44.31357" lon="5.83017">
        <ele>569</ele>
        <time>2019-08-02T06:50:28Z</time>
      </trkpt>
      <trkpt lat="44.31358" lon="5.8301">
        <ele>569</ele>
        <time>2019-08-02T06:50:29Z</time>
      </trkpt>
      <trkpt lat="44.31358" lon="5.83003">
        <ele>569</ele>
        <time>2019-08-02T06:50:30Z</time>
      </trkpt>
      <trkpt lat="44.31358" lon="5.82996">
        <ele>569</ele>
        <time>2019-08-02T06:50:31Z</time>
      </trkpt>
      <trkpt lat="44.31359" lon="5.82989">
        <ele>569</ele>
        <time>2019-08-02T06:50:32Z</time>
      </trkpt>
      <trkpt lat="44.3136" lon="5.82981">
        <ele>569</ele>
        <time>2019-08-02T06:50:33Z</time>
      </trkpt>
      <trkpt lat="44.31361" lon="5.82973">
        <ele>569</ele>
        <time>2019-08-02T06:50:34Z</time>
      </trkpt>
      <trkpt lat="44.31361" lon="5.82965">
        <ele>569</ele>
        <time>2019-08-02T06:50:35Z</time>
      </trkpt>
      <trkpt lat="44.31362" lon="5.82956">
        <ele>569</ele>
        <time>2019-08-02T06:50:36Z</time>
      </trkpt>
      <trkpt lat="44.31363" lon="5.82947">
        <ele>569</ele>
        <time>2019-08-02T06:50:37Z</time>
      </trkpt>
      <trkpt lat="44.31364" lon="5.82939">
        <ele>569</ele>
        <time>2019-08-02T06:50:38Z</time>
      </trkpt>
      <trkpt lat="44.31365" lon="5.82931">
        <ele>569</ele>
        <time>2019-08-02T06:50:39Z</time>
      </trkpt>
      <trkpt lat="44.31367" lon="5.82922">
        <ele>569</ele>
        <time>2019-08-02T06:50:40Z</time>
      </trkpt>
      <trkpt lat="44.31368" lon="5.82914">
        <ele>569</ele>
        <time>2019-08-02T06:50:41Z</time>
      </trkpt>
      <trkpt lat="44.3137" lon="5.82906">
        <ele>569</ele>
        <time>2019-08-02T06:50:42Z</time>
      </trkpt>
      <trkpt lat="44.31371" lon="5.82898">
        <ele>569</ele>
        <time>2019-08-02T06:50:43Z</time>
      </trkpt>
      <trkpt lat="44.31372" lon="5.8289">
        <ele>569</ele>
        <time>2019-08-02T06:50:44Z</time>
      </trkpt>
      <trkpt lat="44.31374" lon="5.82882">
        <ele>569</ele>
        <time>2019-08-02T06:50:45Z</time>
      </trkpt>
      <trkpt lat="44.31375" lon="5.82874">
        <ele>569</ele>
        <time>2019-08-02T06:50:46Z</time>
      </trkpt>
      <trkpt lat="44.31376" lon="5.82867">
        <ele>569</ele>
        <time>2019-08-02T06:50:47Z</time>
      </trkpt>
      <trkpt lat="44.31375" lon="5.8286">
        <ele>569</ele>
        <time>2019-08-02T06:50:48Z</time>
      </trkpt>
      <trkpt lat="44.31375" lon="5.82853">
        <ele>569</ele>
        <time>2019-08-02T06:50:49Z</time>
      </trkpt>
      <trkpt lat="44.31376" lon="5.82845">
        <ele>568</ele>
        <time>2019-08-02T06:50:50Z</time>
      </trkpt>
      <trkpt lat="44.31377" lon="5.82837">
        <ele>568</ele>
        <time>2019-08-02T06:50:51Z</time>
      </trkpt>
      <trkpt lat="44.31378" lon="5.82829">
        <ele>568</ele>
        <time>2019-08-02T06:50:52Z</time>
      </trkpt>
      <trkpt lat="44.31379" lon="5.82822">
        <ele>568</ele>
        <time>2019-08-02T06:50:53Z</time>
      </trkpt>
      <trkpt lat="44.3138" lon="5.82815">
        <ele>567</ele>
        <time>2019-08-02T06:50:54Z</time>
      </trkpt>
      <trkpt lat="44.31379" lon="5.82807">
        <ele>567</ele>
        <time>2019-08-02T06:50:55Z</time>
      </trkpt>
      <trkpt lat="44.3138" lon="5.828">
        <ele>567</ele>
        <time>2019-08-02T06:50:56Z</time>
      </trkpt>
      <trkpt lat="44.3138" lon="5.82792">
        <ele>567</ele>
        <time>2019-08-02T06:50:57Z</time>
      </trkpt>
      <trkpt lat="44.31378" lon="5.82784">
        <ele>567</ele>
        <time>2019-08-02T06:50:58Z</time>
      </trkpt>
      <trkpt lat="44.31378" lon="5.82775">
        <ele>567</ele>
        <time>2019-08-02T06:50:59Z</time>
      </trkpt>
      <trkpt lat="44.31379" lon="5.82768">
        <ele>567</ele>
        <time>2019-08-02T06:51:00Z</time>
      </trkpt>
      <trkpt lat="44.31379" lon="5.8276">
        <ele>567</ele>
        <time>2019-08-02T06:51:01Z</time>
      </trkpt>
      <trkpt lat="44.31379" lon="5.82752">
        <ele>567</ele>
        <time>2019-08-02T06:51:02Z</time>
      </trkpt>
      <trkpt lat="44.3138" lon="5.82744">
        <ele>567</ele>
        <time>2019-08-02T06:51:03Z</time>
      </trkpt>
      <trkpt lat="44.3138" lon="5.82736">
        <ele>567</ele>
        <time>2019-08-02T06:51:04Z</time>
      </trkpt>
      <trkpt lat="44.31379" lon="5.82729">
        <ele>567</ele>
        <time>2019-08-02T06:51:05Z</time>
      </trkpt>
      <trkpt lat="44.31379" lon="5.82723">
        <ele>566</ele>
        <time>2019-08-02T06:51:06Z</time>
      </trkpt>
      <trkpt lat="44.31378" lon="5.82716">
        <ele>566</ele>
        <time>2019-08-02T06:51:07Z</time>
      </trkpt>
      <trkpt lat="44.31377" lon="5.8271">
        <ele>566</ele>
        <time>2019-08-02T06:51:08Z</time>
      </trkpt>
      <trkpt lat="44.31376" lon="5.82703">
        <ele>565</ele>
        <time>2019-08-02T06:51:09Z</time>
      </trkpt>
      <trkpt lat="44.31374" lon="5.82696">
        <ele>565</ele>
        <time>2019-08-02T06:51:10Z</time>
      </trkpt>
      <trkpt lat="44.31375" lon="5.82689">
        <ele>564</ele>
        <time>2019-08-02T06:51:11Z</time>
      </trkpt>
      <trkpt lat="44.31377" lon="5.82682">
        <ele>564</ele>
        <time>2019-08-02T06:51:12Z</time>
      </trkpt>
      <trkpt lat="44.3138" lon="5.82674">
        <ele>564</ele>
        <time>2019-08-02T06:51:13Z</time>
      </trkpt>
      <trkpt lat="44.31383" lon="5.82668">
        <ele>564</ele>
        <time>2019-08-02T06:51:14Z</time>
      </trkpt>
      <trkpt lat="44.31387" lon="5.82663">
        <ele>564</ele>
        <time>2019-08-02T06:51:15Z</time>
      </trkpt>
      <trkpt lat="44.3139" lon="5.82657">
        <ele>564</ele>
        <time>2019-08-02T06:51:16Z</time>
      </trkpt>
      <trkpt lat="44.31393" lon="5.82651">
        <ele>564</ele>
        <time>2019-08-02T06:51:17Z</time>
      </trkpt>
      <trkpt lat="44.31396" lon="5.82644">
        <ele>564</ele>
        <time>2019-08-02T06:51:18Z</time>
      </trkpt>
      <trkpt lat="44.31398" lon="5.82636">
        <ele>564</ele>
        <time>2019-08-02T06:51:19Z</time>
      </trkpt>
      <trkpt lat="44.314" lon="5.82629">
        <ele>564</ele>
        <time>2019-08-02T06:51:20Z</time>
      </trkpt>
      <trkpt lat="44.31402" lon="5.82623">
        <ele>564</ele>
        <time>2019-08-02T06:51:21Z</time>
      </trkpt>
      <trkpt lat="44.31404" lon="5.82616">
        <ele>564</ele>
        <time>2019-08-02T06:51:22Z</time>
      </trkpt>
      <trkpt lat="44.31405" lon="5.82609">
        <ele>564</ele>
        <time>2019-08-02T06:51:23Z</time>
      </trkpt>
      <trkpt lat="44.31407" lon="5.82602">
        <ele>564</ele>
        <time>2019-08-02T06:51:24Z</time>
      </trkpt>
      <trkpt lat="44.31408" lon="5.82596">
        <ele>564</ele>
        <time>2019-08-02T06:51:25Z</time>
      </trkpt>
      <trkpt lat="44.3141" lon="5.8259">
        <ele>564</ele>
        <time>2019-08-02T06:51:26Z</time>
      </trkpt>
      <trkpt lat="44.31411" lon="5.82582">
        <ele>564</ele>
        <time>2019-08-02T06:51:27Z</time>
      </trkpt>
      <trkpt lat="44.31414" lon="5.82576">
        <ele>564</ele>
        <time>2019-08-02T06:51:28Z</time>
      </trkpt>
      <trkpt lat="44.31416" lon="5.8257">
        <ele>564</ele>
        <time>2019-08-02T06:51:29Z</time>
      </trkpt>
      <trkpt lat="44.31417" lon="5.82562">
        <ele>564</ele>
        <time>2019-08-02T06:51:30Z</time>
      </trkpt>
      <trkpt lat="44.31419" lon="5.82555">
        <ele>564</ele>
        <time>2019-08-02T06:51:31Z</time>
      </trkpt>
      <trkpt lat="44.3142" lon="5.82547">
        <ele>564</ele>
        <time>2019-08-02T06:51:32Z</time>
      </trkpt>
      <trkpt lat="44.3142" lon="5.8254">
        <ele>564</ele>
        <time>2019-08-02T06:51:33Z</time>
      </trkpt>
      <trkpt lat="44.31421" lon="5.82533">
        <ele>564</ele>
        <time>2019-08-02T06:51:34Z</time>
      </trkpt>
      <trkpt lat="44.31421" lon="5.82526">
        <ele>564</ele>
        <time>2019-08-02T06:51:35Z</time>
      </trkpt>
      <trkpt lat="44.31422" lon="5.82519">
        <ele>564</ele>
        <time>2019-08-02T06:51:36Z</time>
      </trkpt>
      <trkpt lat="44.31424" lon="5.82512">
        <ele>564</ele>
        <time>2019-08-02T06:51:37Z</time>
      </trkpt>
      <trkpt lat="44.31426" lon="5.82505">
        <ele>564</ele>
        <time>2019-08-02T06:51:38Z</time>
      </trkpt>
      <trkpt lat="44.31428" lon="5.82499">
        <ele>564</ele>
        <time>2019-08-02T06:51:39Z</time>
      </trkpt>
      <trkpt lat="44.3143" lon="5.82491">
        <ele>564</ele>
        <time>2019-08-02T06:51:40Z</time>
      </trkpt>
      <trkpt lat="44.31432" lon="5.82485">
        <ele>564</ele>
        <time>2019-08-02T06:51:41Z</time>
      </trkpt>
      <trkpt lat="44.31434" lon="5.82478">
        <ele>564</ele>
        <time>2019-08-02T06:51:42Z</time>
      </trkpt>
      <trkpt lat="44.31435" lon="5.82471">
        <ele>564</ele>
        <time>2019-08-02T06:51:43Z</time>
      </trkpt>
      <trkpt lat="44.31435" lon="5.82465">
        <ele>564</ele>
        <time>2019-08-02T06:51:44Z</time>
      </trkpt>
      <trkpt lat="44.31437" lon="5.82459">
        <ele>564</ele>
        <time>2019-08-02T06:51:45Z</time>
      </trkpt>
      <trkpt lat="44.31438" lon="5.82453">
        <ele>564</ele>
        <time>2019-08-02T06:51:46Z</time>
      </trkpt>
      <trkpt lat="44.3144" lon="5.82447">
        <ele>564</ele>
        <time>2019-08-02T06:51:47Z</time>
      </trkpt>
      <trkpt lat="44.31441" lon="5.82442">
        <ele>564</ele>
        <time>2019-08-02T06:51:48Z</time>
      </trkpt>
      <trkpt lat="44.31442" lon="5.82436">
        <ele>563</ele>
        <time>2019-08-02T06:51:49Z</time>
      </trkpt>
      <trkpt lat="44.31443" lon="5.8243">
        <ele>562</ele>
        <time>2019-08-02T06:51:50Z</time>
      </trkpt>
      <trkpt lat="44.31445" lon="5.82422">
        <ele>561</ele>
        <time>2019-08-02T06:51:51Z</time>
      </trkpt>
      <trkpt lat="44.31446" lon="5.82416">
        <ele>560</ele>
        <time>2019-08-02T06:51:52Z</time>
      </trkpt>
      <trkpt lat="44.31446" lon="5.8241">
        <ele>559</ele>
        <time>2019-08-02T06:51:53Z</time>
      </trkpt>
      <trkpt lat="44.31446" lon="5.82403">
        <ele>559</ele>
        <time>2019-08-02T06:51:54Z</time>
      </trkpt>
      <trkpt lat="44.31446" lon="5.82398">
        <ele>559</ele>
        <time>2019-08-02T06:51:55Z</time>
      </trkpt>
      <trkpt lat="44.31445" lon="5.82392">
        <ele>559</ele>
        <time>2019-08-02T06:51:56Z</time>
      </trkpt>
      <trkpt lat="44.31443" lon="5.82387">
        <ele>559</ele>
        <time>2019-08-02T06:51:57Z</time>
      </trkpt>
      <trkpt lat="44.31441" lon="5.82382">
        <ele>559</ele>
        <time>2019-08-02T06:51:58Z</time>
      </trkpt>
      <trkpt lat="44.31441" lon="5.82377">
        <ele>559</ele>
        <time>2019-08-02T06:51:59Z</time>
      </trkpt>
      <trkpt lat="44.31441" lon="5.82373">
        <ele>559</ele>
        <time>2019-08-02T06:52:00Z</time>
      </trkpt>
      <trkpt lat="44.31441" lon="5.82369">
        <ele>559</ele>
        <time>2019-08-02T06:52:01Z</time>
      </trkpt>
      <trkpt lat="44.31444" lon="5.82368">
        <ele>559</ele>
        <time>2019-08-02T06:52:02Z</time>
      </trkpt>
      <trkpt lat="44.31445" lon="5.82367">
        <ele>559</ele>
        <time>2019-08-02T06:52:03Z</time>
      </trkpt>
      <trkpt lat="44.31445" lon="5.82371">
        <ele>559</ele>
        <time>2019-08-02T06:52:04Z</time>
      </trkpt>
      <trkpt lat="44.31448" lon="5.82374">
        <ele>559</ele>
        <time>2019-08-02T06:52:05Z</time>
      </trkpt>
      <trkpt lat="44.31452" lon="5.82378">
        <ele>559</ele>
        <time>2019-08-02T06:52:06Z</time>
      </trkpt>
      <trkpt lat="44.31456" lon="5.82382">
        <ele>559</ele>
        <time>2019-08-02T06:52:07Z</time>
      </trkpt>
      <trkpt lat="44.31461" lon="5.82387">
        <ele>559</ele>
        <time>2019-08-02T06:52:08Z</time>
      </trkpt>
      <trkpt lat="44.31464" lon="5.82392">
        <ele>559</ele>
        <time>2019-08-02T06:52:09Z</time>
      </trkpt>
      <trkpt lat="44.31467" lon="5.82397">
        <ele>559</ele>
        <time>2019-08-02T06:52:10Z</time>
      </trkpt>
      <trkpt lat="44.31471" lon="5.82403">
        <ele>559</ele>
        <time>2019-08-02T06:52:11Z</time>
      </trkpt>
      <trkpt lat="44.31477" lon="5.82409">
        <ele>559</ele>
        <time>2019-08-02T06:52:12Z</time>
      </trkpt>
      <trkpt lat="44.31483" lon="5.82414">
        <ele>559</ele>
        <time>2019-08-02T06:52:13Z</time>
      </trkpt>
      <trkpt lat="44.31489" lon="5.82421">
        <ele>559</ele>
        <time>2019-08-02T06:52:14Z</time>
      </trkpt>
      <trkpt lat="44.31496" lon="5.82427">
        <ele>559</ele>
        <time>2019-08-02T06:52:15Z</time>
      </trkpt>
      <trkpt lat="44.31503" lon="5.82433">
        <ele>559</ele>
        <time>2019-08-02T06:52:16Z</time>
      </trkpt>
      <trkpt lat="44.3151" lon="5.82439">
        <ele>560</ele>
        <time>2019-08-02T06:52:17Z</time>
      </trkpt>
      <trkpt lat="44.31518" lon="5.82445">
        <ele>561</ele>
        <time>2019-08-02T06:52:18Z</time>
      </trkpt>
      <trkpt lat="44.31525" lon="5.82451">
        <ele>562</ele>
        <time>2019-08-02T06:52:19Z</time>
      </trkpt>
      <trkpt lat="44.3153" lon="5.82456">
        <ele>563</ele>
        <time>2019-08-02T06:52:20Z</time>
      </trkpt>
      <trkpt lat="44.31534" lon="5.82461">
        <ele>564</ele>
        <time>2019-08-02T06:52:21Z</time>
      </trkpt>
      <trkpt lat="44.31539" lon="5.82467">
        <ele>564</ele>
        <time>2019-08-02T06:52:22Z</time>
      </trkpt>
      <trkpt lat="44.31544" lon="5.82473">
        <ele>564</ele>
        <time>2019-08-02T06:52:23Z</time>
      </trkpt>
      <trkpt lat="44.31548" lon="5.82478">
        <ele>564</ele>
        <time>2019-08-02T06:52:24Z</time>
      </trkpt>
      <trkpt lat="44.31554" lon="5.82482">
        <ele>564</ele>
        <time>2019-08-02T06:52:25Z</time>
      </trkpt>
      <trkpt lat="44.31559" lon="5.82487">
        <ele>564</ele>
        <time>2019-08-02T06:52:26Z</time>
      </trkpt>
      <trkpt lat="44.31565" lon="5.82493">
        <ele>564</ele>
        <time>2019-08-02T06:52:27Z</time>
      </trkpt>
      <trkpt lat="44.31568" lon="5.82498">
        <ele>564</ele>
        <time>2019-08-02T06:52:28Z</time>
      </trkpt>
      <trkpt lat="44.31572" lon="5.82503">
        <ele>564</ele>
        <time>2019-08-02T06:52:29Z</time>
      </trkpt>
      <trkpt lat="44.31577" lon="5.82508">
        <ele>564</ele>
        <time>2019-08-02T06:52:30Z</time>
      </trkpt>
      <trkpt lat="44.31582" lon="5.82512">
        <ele>564</ele>
        <time>2019-08-02T06:52:31Z</time>
      </trkpt>
      <trkpt lat="44.31586" lon="5.82517">
        <ele>564</ele>
        <time>2019-08-02T06:52:32Z</time>
      </trkpt>
      <trkpt lat="44.31592" lon="5.82522">
        <ele>564</ele>
        <time>2019-08-02T06:52:33Z</time>
      </trkpt>
      <trkpt lat="44.31598" lon="5.82526">
        <ele>564</ele>
        <time>2019-08-02T06:52:34Z</time>
      </trkpt>
      <trkpt lat="44.31602" lon="5.8253">
        <ele>564</ele>
        <time>2019-08-02T06:52:35Z</time>
      </trkpt>
      <trkpt lat="44.31607" lon="5.82535">
        <ele>564</ele>
        <time>2019-08-02T06:52:36Z</time>
      </trkpt>
      <trkpt lat="44.31612" lon="5.82539">
        <ele>564</ele>
        <time>2019-08-02T06:52:37Z</time>
      </trkpt>
      <trkpt lat="44.31627" lon="5.82553">
        <ele>564</ele>
        <time>2019-08-02T06:52:40Z</time>
      </trkpt>
      <trkpt lat="44.3163" lon="5.82557">
        <ele>564</ele>
        <time>2019-08-02T06:52:41Z</time>
      </trkpt>
      <trkpt lat="44.31633" lon="5.82561">
        <ele>564</ele>
        <time>2019-08-02T06:52:42Z</time>
      </trkpt>
      <trkpt lat="44.31638" lon="5.82566">
        <ele>564</ele>
        <time>2019-08-02T06:52:43Z</time>
      </trkpt>
      <trkpt lat="44.31642" lon="5.8257">
        <ele>564</ele>
        <time>2019-08-02T06:52:44Z</time>
      </trkpt>
      <trkpt lat="44.31646" lon="5.82574">
        <ele>564</ele>
        <time>2019-08-02T06:52:45Z</time>
      </trkpt>
      <trkpt lat="44.3165" lon="5.82578">
        <ele>564</ele>
        <time>2019-08-02T06:52:46Z</time>
      </trkpt>
      <trkpt lat="44.31654" lon="5.82583">
        <ele>564</ele>
        <time>2019-08-02T06:52:47Z</time>
      </trkpt>
      <trkpt lat="44.31657" lon="5.82587">
        <ele>564</ele>
        <time>2019-08-02T06:52:48Z</time>
      </trkpt>
      <trkpt lat="44.31662" lon="5.82592">
        <ele>564</ele>
        <time>2019-08-02T06:52:49Z</time>
      </trkpt>
      <trkpt lat="44.31666" lon="5.82596">
        <ele>564</ele>
        <time>2019-08-02T06:52:50Z</time>
      </trkpt>
      <trkpt lat="44.3167" lon="5.826">
        <ele>564</ele>
        <time>2019-08-02T06:52:51Z</time>
      </trkpt>
      <trkpt lat="44.31674" lon="5.82605">
        <ele>564</ele>
        <time>2019-08-02T06:52:52Z</time>
      </trkpt>
      <trkpt lat="44.31678" lon="5.82609">
        <ele>564</ele>
        <time>2019-08-02T06:52:53Z</time>
      </trkpt>
      <trkpt lat="44.31682" lon="5.82613">
        <ele>564</ele>
        <time>2019-08-02T06:52:54Z</time>
      </trkpt>
      <trkpt lat="44.31686" lon="5.82618">
        <ele>564</ele>
        <time>2019-08-02T06:52:55Z</time>
      </trkpt>
      <trkpt lat="44.31691" lon="5.82622">
        <ele>564</ele>
        <time>2019-08-02T06:52:56Z</time>
      </trkpt>
      <trkpt lat="44.31695" lon="5.82626">
        <ele>564</ele>
        <time>2019-08-02T06:52:57Z</time>
      </trkpt>
      <trkpt lat="44.31699" lon="5.8263">
        <ele>564</ele>
        <time>2019-08-02T06:52:58Z</time>
      </trkpt>
      <trkpt lat="44.31703" lon="5.82634">
        <ele>564</ele>
        <time>2019-08-02T06:52:59Z</time>
      </trkpt>
      <trkpt lat="44.31707" lon="5.82638">
        <ele>564</ele>
        <time>2019-08-02T06:53:00Z</time>
      </trkpt>
      <trkpt lat="44.31712" lon="5.82643">
        <ele>564</ele>
        <time>2019-08-02T06:53:01Z</time>
      </trkpt>
      <trkpt lat="44.31716" lon="5.82647">
        <ele>564</ele>
        <time>2019-08-02T06:53:02Z</time>
      </trkpt>
      <trkpt lat="44.3172" lon="5.82652">
        <ele>564</ele>
        <time>2019-08-02T06:53:03Z</time>
      </trkpt>
      <trkpt lat="44.31724" lon="5.82656">
        <ele>564</ele>
        <time>2019-08-02T06:53:04Z</time>
      </trkpt>
      <trkpt lat="44.31728" lon="5.82661">
        <ele>564</ele>
        <time>2019-08-02T06:53:05Z</time>
      </trkpt>
      <trkpt lat="44.31733" lon="5.82665">
        <ele>564</ele>
        <time>2019-08-02T06:53:06Z</time>
      </trkpt>
      <trkpt lat="44.31737" lon="5.82669">
        <ele>564</ele>
        <time>2019-08-02T06:53:07Z</time>
      </trkpt>
      <trkpt lat="44.31741" lon="5.82673">
        <ele>564</ele>
        <time>2019-08-02T06:53:08Z</time>
      </trkpt>
      <trkpt lat="44.31744" lon="5.82678">
        <ele>564</ele>
        <time>2019-08-02T06:53:09Z</time>
      </trkpt>
      <trkpt lat="44.31748" lon="5.82682">
        <ele>564</ele>
        <time>2019-08-02T06:53:10Z</time>
      </trkpt>
      <trkpt lat="44.31753" lon="5.82686">
        <ele>564</ele>
        <time>2019-08-02T06:53:11Z</time>
      </trkpt>
      <trkpt lat="44.31757" lon="5.8269">
        <ele>564</ele>
        <time>2019-08-02T06:53:12Z</time>
      </trkpt>
      <trkpt lat="44.31762" lon="5.82694">
        <ele>564</ele>
        <time>2019-08-02T06:53:13Z</time>
      </trkpt>
      <trkpt lat="44.31766" lon="5.82698">
        <ele>565</ele>
        <time>2019-08-02T06:53:14Z</time>
      </trkpt>
      <trkpt lat="44.3177" lon="5.82703">
        <ele>565</ele>
        <time>2019-08-02T06:53:15Z</time>
      </trkpt>
      <trkpt lat="44.31774" lon="5.82707">
        <ele>565</ele>
        <time>2019-08-02T06:53:16Z</time>
      </trkpt>
      <trkpt lat="44.31778" lon="5.82711">
        <ele>565</ele>
        <time>2019-08-02T06:53:17Z</time>
      </trkpt>
      <trkpt lat="44.31782" lon="5.82715">
        <ele>565</ele>
        <time>2019-08-02T06:53:18Z</time>
      </trkpt>
      <trkpt lat="44.31787" lon="5.82719">
        <ele>565</ele>
        <time>2019-08-02T06:53:19Z</time>
      </trkpt>
      <trkpt lat="44.31791" lon="5.82723">
        <ele>565</ele>
        <time>2019-08-02T06:53:20Z</time>
      </trkpt>
      <trkpt lat="44.31796" lon="5.82726">
        <ele>565</ele>
        <time>2019-08-02T06:53:21Z</time>
      </trkpt>
      <trkpt lat="44.318" lon="5.8273">
        <ele>565</ele>
        <time>2019-08-02T06:53:22Z</time>
      </trkpt>
      <trkpt lat="44.31804" lon="5.82734">
        <ele>565</ele>
        <time>2019-08-02T06:53:23Z</time>
      </trkpt>
      <trkpt lat="44.31808" lon="5.82739">
        <ele>565</ele>
        <time>2019-08-02T06:53:24Z</time>
      </trkpt>
      <trkpt lat="44.31812" lon="5.82743">
        <ele>566</ele>
        <time>2019-08-02T06:53:25Z</time>
      </trkpt>
      <trkpt lat="44.31816" lon="5.82747">
        <ele>566</ele>
        <time>2019-08-02T06:53:26Z</time>
      </trkpt>
      <trkpt lat="44.3182" lon="5.82751">
        <ele>566</ele>
        <time>2019-08-02T06:53:27Z</time>
      </trkpt>
      <trkpt lat="44.31825" lon="5.82754">
        <ele>566</ele>
        <time>2019-08-02T06:53:28Z</time>
      </trkpt>
      <trkpt lat="44.3183" lon="5.82758">
        <ele>566</ele>
        <time>2019-08-02T06:53:29Z</time>
      </trkpt>
      <trkpt lat="44.31835" lon="5.82761">
        <ele>567</ele>
        <time>2019-08-02T06:53:30Z</time>
      </trkpt>
      <trkpt lat="44.3184" lon="5.82764">
        <ele>567</ele>
        <time>2019-08-02T06:53:31Z</time>
      </trkpt>
      <trkpt lat="44.31844" lon="5.82766">
        <ele>567</ele>
        <time>2019-08-02T06:53:32Z</time>
      </trkpt>
      <trkpt lat="44.31849" lon="5.82768">
        <ele>567</ele>
        <time>2019-08-02T06:53:33Z</time>
      </trkpt>
      <trkpt lat="44.31853" lon="5.8277">
        <ele>567</ele>
        <time>2019-08-02T06:53:34Z</time>
      </trkpt>
      <trkpt lat="44.31859" lon="5.82772">
        <ele>567</ele>
        <time>2019-08-02T06:53:35Z</time>
      </trkpt>
      <trkpt lat="44.31864" lon="5.82774">
        <ele>567</ele>
        <time>2019-08-02T06:53:36Z</time>
      </trkpt>
      <trkpt lat="44.31869" lon="5.82775">
        <ele>567</ele>
        <time>2019-08-02T06:53:37Z</time>
      </trkpt>
      <trkpt lat="44.31874" lon="5.82776">
        <ele>567</ele>
        <time>2019-08-02T06:53:38Z</time>
      </trkpt>
      <trkpt lat="44.31879" lon="5.82777">
        <ele>567</ele>
        <time>2019-08-02T06:53:39Z</time>
      </trkpt>
      <trkpt lat="44.31883" lon="5.82778">
        <ele>567</ele>
        <time>2019-08-02T06:53:40Z</time>
      </trkpt>
      <trkpt lat="44.31888" lon="5.82778">
        <ele>567</ele>
        <time>2019-08-02T06:53:41Z</time>
      </trkpt>
      <trkpt lat="44.31894" lon="5.82779">
        <ele>567</ele>
        <time>2019-08-02T06:53:42Z</time>
      </trkpt>
      <trkpt lat="44.31899" lon="5.82779">
        <ele>567</ele>
        <time>2019-08-02T06:53:43Z</time>
      </trkpt>
      <trkpt lat="44.31903" lon="5.82779">
        <ele>567</ele>
        <time>2019-08-02T06:53:44Z</time>
      </trkpt>
      <trkpt lat="44.31909" lon="5.82779">
        <ele>567</ele>
        <time>2019-08-02T06:53:45Z</time>
      </trkpt>
      <trkpt lat="44.31913" lon="5.82779">
        <ele>567</ele>
        <time>2019-08-02T06:53:46Z</time>
      </trkpt>
      <trkpt lat="44.31918" lon="5.8278">
        <ele>567</ele>
        <time>2019-08-02T06:53:47Z</time>
      </trkpt>
      <trkpt lat="44.31923" lon="5.8278">
        <ele>567</ele>
        <time>2019-08-02T06:53:48Z</time>
      </trkpt>
      <trkpt lat="44.31927" lon="5.8278">
        <ele>567</ele>
        <time>2019-08-02T06:53:49Z</time>
      </trkpt>
      <trkpt lat="44.31932" lon="5.82781">
        <ele>567</ele>
        <time>2019-08-02T06:53:50Z</time>
      </trkpt>
      <trkpt lat="44.31937" lon="5.82782">
        <ele>567</ele>
        <time>2019-08-02T06:53:51Z</time>
      </trkpt>
      <trkpt lat="44.31942" lon="5.82783">
        <ele>567</ele>
        <time>2019-08-02T06:53:52Z</time>
      </trkpt>
      <trkpt lat="44.31946" lon="5.82785">
        <ele>567</ele>
        <time>2019-08-02T06:53:53Z</time>
      </trkpt>
      <trkpt lat="44.31951" lon="5.82786">
        <ele>567</ele>
        <time>2019-08-02T06:53:54Z</time>
      </trkpt>
      <trkpt lat="44.31955" lon="5.82788">
        <ele>567</ele>
        <time>2019-08-02T06:53:55Z</time>
      </trkpt>
      <trkpt lat="44.31959" lon="5.8279">
        <ele>567</ele>
        <time>2019-08-02T06:53:56Z</time>
      </trkpt>
      <trkpt lat="44.31963" lon="5.82791">
        <ele>567</ele>
        <time>2019-08-02T06:53:57Z</time>
      </trkpt>
      <trkpt lat="44.31968" lon="5.82793">
        <ele>567</ele>
        <time>2019-08-02T06:53:58Z</time>
      </trkpt>
      <trkpt lat="44.31973" lon="5.82795">
        <ele>568</ele>
        <time>2019-08-02T06:53:59Z</time>
      </trkpt>
      <trkpt lat="44.31977" lon="5.82796">
        <ele>568</ele>
        <time>2019-08-02T06:54:00Z</time>
      </trkpt>
      <trkpt lat="44.31982" lon="5.82798">
        <ele>568</ele>
        <time>2019-08-02T06:54:01Z</time>
      </trkpt>
      <trkpt lat="44.31985" lon="5.82799">
        <ele>568</ele>
        <time>2019-08-02T06:54:02Z</time>
      </trkpt>
      <trkpt lat="44.3199" lon="5.82801">
        <ele>568</ele>
        <time>2019-08-02T06:54:03Z</time>
      </trkpt>
      <trkpt lat="44.31994" lon="5.82803">
        <ele>568</ele>
        <time>2019-08-02T06:54:04Z</time>
      </trkpt>
      <trkpt lat="44.31998" lon="5.82805">
        <ele>568</ele>
        <time>2019-08-02T06:54:05Z</time>
      </trkpt>
      <trkpt lat="44.32002" lon="5.82807">
        <ele>569</ele>
        <time>2019-08-02T06:54:06Z</time>
      </trkpt>
      <trkpt lat="44.32006" lon="5.82808">
        <ele>569</ele>
        <time>2019-08-02T06:54:07Z</time>
      </trkpt>
      <trkpt lat="44.3201" lon="5.8281">
        <ele>569</ele>
        <time>2019-08-02T06:54:08Z</time>
      </trkpt>
      <trkpt lat="44.32013" lon="5.82812">
        <ele>570</ele>
        <time>2019-08-02T06:54:09Z</time>
      </trkpt>
      <trkpt lat="44.32017" lon="5.82814">
        <ele>570</ele>
        <time>2019-08-02T06:54:10Z</time>
      </trkpt>
      <trkpt lat="44.32021" lon="5.82816">
        <ele>570</ele>
        <time>2019-08-02T06:54:11Z</time>
      </trkpt>
      <trkpt lat="44.32024" lon="5.82818">
        <ele>570</ele>
        <time>2019-08-02T06:54:12Z</time>
      </trkpt>
      <trkpt lat="44.32028" lon="5.8282">
        <ele>570</ele>
        <time>2019-08-02T06:54:13Z</time>
      </trkpt>
      <trkpt lat="44.32031" lon="5.82822">
        <ele>570</ele>
        <time>2019-08-02T06:54:14Z</time>
      </trkpt>
      <trkpt lat="44.32034" lon="5.82825">
        <ele>570</ele>
        <time>2019-08-02T06:54:15Z</time>
      </trkpt>
      <trkpt lat="44.32038" lon="5.82827">
        <ele>570</ele>
        <time>2019-08-02T06:54:16Z</time>
      </trkpt>
      <trkpt lat="44.32041" lon="5.82829">
        <ele>571</ele>
        <time>2019-08-02T06:54:17Z</time>
      </trkpt>
      <trkpt lat="44.32044" lon="5.82832">
        <ele>571</ele>
        <time>2019-08-02T06:54:18Z</time>
      </trkpt>
      <trkpt lat="44.32048" lon="5.82834">
        <ele>571</ele>
        <time>2019-08-02T06:54:19Z</time>
      </trkpt>
      <trkpt lat="44.32051" lon="5.82836">
        <ele>572</ele>
        <time>2019-08-02T06:54:20Z</time>
      </trkpt>
      <trkpt lat="44.32053" lon="5.82839">
        <ele>573</ele>
        <time>2019-08-02T06:54:21Z</time>
      </trkpt>
      <trkpt lat="44.32056" lon="5.82841">
        <ele>574</ele>
        <time>2019-08-02T06:54:22Z</time>
      </trkpt>
      <trkpt lat="44.32059" lon="5.82844">
        <ele>575</ele>
        <time>2019-08-02T06:54:23Z</time>
      </trkpt>
      <trkpt lat="44.32063" lon="5.82845">
        <ele>576</ele>
        <time>2019-08-02T06:54:24Z</time>
      </trkpt>
      <trkpt lat="44.32065" lon="5.82848">
        <ele>577</ele>
        <time>2019-08-02T06:54:25Z</time>
      </trkpt>
      <trkpt lat="44.32069" lon="5.8285">
        <ele>578</ele>
        <time>2019-08-02T06:54:26Z</time>
      </trkpt>
      <trkpt lat="44.32073" lon="5.82852">
        <ele>579</ele>
        <time>2019-08-02T06:54:27Z</time>
      </trkpt>
      <trkpt lat="44.32078" lon="5.82853">
        <ele>580</ele>
        <time>2019-08-02T06:54:28Z</time>
      </trkpt>
      <trkpt lat="44.32081" lon="5.82854">
        <ele>580</ele>
        <time>2019-08-02T06:54:29Z</time>
      </trkpt>
      <trkpt lat="44.32084" lon="5.82856">
        <ele>580</ele>
        <time>2019-08-02T06:54:30Z</time>
      </trkpt>
      <trkpt lat="44.32088" lon="5.82857">
        <ele>581</ele>
        <time>2019-08-02T06:54:31Z</time>
      </trkpt>
      <trkpt lat="44.32092" lon="5.82859">
        <ele>581</ele>
        <time>2019-08-02T06:54:32Z</time>
      </trkpt>
      <trkpt lat="44.32095" lon="5.82861">
        <ele>581</ele>
        <time>2019-08-02T06:54:33Z</time>
      </trkpt>
      <trkpt lat="44.32098" lon="5.82862">
        <ele>581</ele>
        <time>2019-08-02T06:54:34Z</time>
      </trkpt>
      <trkpt lat="44.32099" lon="5.82862">
        <ele>581</ele>
        <time>2019-08-02T06:54:35Z</time>
      </trkpt>
      <trkpt lat="44.32103" lon="5.82863">
        <ele>582</ele>
        <time>2019-08-02T06:54:36Z</time>
      </trkpt>
      <trkpt lat="44.32106" lon="5.82864">
        <ele>582</ele>
        <time>2019-08-02T06:54:37Z</time>
      </trkpt>
      <trkpt lat="44.32108" lon="5.82865">
        <ele>582</ele>
        <time>2019-08-02T06:54:38Z</time>
      </trkpt>
      <trkpt lat="44.32112" lon="5.82867">
        <ele>582</ele>
        <time>2019-08-02T06:54:39Z</time>
      </trkpt>
      <trkpt lat="44.32116" lon="5.82868">
        <ele>582</ele>
        <time>2019-08-02T06:54:40Z</time>
      </trkpt>
      <trkpt lat="44.32119" lon="5.82869">
        <ele>582</ele>
        <time>2019-08-02T06:54:41Z</time>
      </trkpt>
      <trkpt lat="44.32122" lon="5.8287">
        <ele>582</ele>
        <time>2019-08-02T06:54:42Z</time>
      </trkpt>
      <trkpt lat="44.32125" lon="5.8287">
        <ele>582</ele>
        <time>2019-08-02T06:54:43Z</time>
      </trkpt>
      <trkpt lat="44.32129" lon="5.82872">
        <ele>582</ele>
        <time>2019-08-02T06:54:44Z</time>
      </trkpt>
      <trkpt lat="44.32132" lon="5.82873">
        <ele>582</ele>
        <time>2019-08-02T06:54:45Z</time>
      </trkpt>
      <trkpt lat="44.32136" lon="5.82874">
        <ele>582</ele>
        <time>2019-08-02T06:54:46Z</time>
      </trkpt>
      <trkpt lat="44.3214" lon="5.82875">
        <ele>582</ele>
        <time>2019-08-02T06:54:47Z</time>
      </trkpt>
      <trkpt lat="44.32145" lon="5.82877">
        <ele>582</ele>
        <time>2019-08-02T06:54:48Z</time>
      </trkpt>
      <trkpt lat="44.32151" lon="5.8288">
        <ele>582</ele>
        <time>2019-08-02T06:54:49Z</time>
      </trkpt>
      <trkpt lat="44.32156" lon="5.82883">
        <ele>582</ele>
        <time>2019-08-02T06:54:50Z</time>
      </trkpt>
      <trkpt lat="44.32161" lon="5.82885">
        <ele>582</ele>
        <time>2019-08-02T06:54:51Z</time>
      </trkpt>
      <trkpt lat="44.32167" lon="5.82888">
        <ele>582</ele>
        <time>2019-08-02T06:54:52Z</time>
      </trkpt>
      <trkpt lat="44.32172" lon="5.8289">
        <ele>582</ele>
        <time>2019-08-02T06:54:53Z</time>
      </trkpt>
      <trkpt lat="44.32178" lon="5.82892">
        <ele>582</ele>
        <time>2019-08-02T06:54:54Z</time>
      </trkpt>
      <trkpt lat="44.32183" lon="5.82894">
        <ele>582</ele>
        <time>2019-08-02T06:54:55Z</time>
      </trkpt>
      <trkpt lat="44.32188" lon="5.82896">
        <ele>582</ele>
        <time>2019-08-02T06:54:56Z</time>
      </trkpt>
      <trkpt lat="44.32192" lon="5.82899">
        <ele>582</ele>
        <time>2019-08-02T06:54:57Z</time>
      </trkpt>
      <trkpt lat="44.32196" lon="5.82901">
        <ele>582</ele>
        <time>2019-08-02T06:54:58Z</time>
      </trkpt>
      <trkpt lat="44.32201" lon="5.82903">
        <ele>582</ele>
        <time>2019-08-02T06:54:59Z</time>
      </trkpt>
      <trkpt lat="44.32205" lon="5.82905">
        <ele>582</ele>
        <time>2019-08-02T06:55:00Z</time>
      </trkpt>
      <trkpt lat="44.32209" lon="5.82907">
        <ele>582</ele>
        <time>2019-08-02T06:55:01Z</time>
      </trkpt>
      <trkpt lat="44.32214" lon="5.8291">
        <ele>582</ele>
        <time>2019-08-02T06:55:02Z</time>
      </trkpt>
      <trkpt lat="44.32219" lon="5.82912">
        <ele>582</ele>
        <time>2019-08-02T06:55:03Z</time>
      </trkpt>
      <trkpt lat="44.32223" lon="5.82914">
        <ele>582</ele>
        <time>2019-08-02T06:55:04Z</time>
      </trkpt>
      <trkpt lat="44.32227" lon="5.82916">
        <ele>582</ele>
        <time>2019-08-02T06:55:05Z</time>
      </trkpt>
      <trkpt lat="44.3223" lon="5.82919">
        <ele>582</ele>
        <time>2019-08-02T06:55:06Z</time>
      </trkpt>
      <trkpt lat="44.32235" lon="5.82921">
        <ele>582</ele>
        <time>2019-08-02T06:55:07Z</time>
      </trkpt>
      <trkpt lat="44.32239" lon="5.82923">
        <ele>582</ele>
        <time>2019-08-02T06:55:08Z</time>
      </trkpt>
      <trkpt lat="44.32243" lon="5.82925">
        <ele>582</ele>
        <time>2019-08-02T06:55:09Z</time>
      </trkpt>
      <trkpt lat="44.32246" lon="5.82928">
        <ele>582</ele>
        <time>2019-08-02T06:55:10Z</time>
      </trkpt>
      <trkpt lat="44.32251" lon="5.8293">
        <ele>582</ele>
        <time>2019-08-02T06:55:11Z</time>
      </trkpt>
      <trkpt lat="44.32255" lon="5.82932">
        <ele>582</ele>
        <time>2019-08-02T06:55:12Z</time>
      </trkpt>
      <trkpt lat="44.3226" lon="5.82934">
        <ele>582</ele>
        <time>2019-08-02T06:55:13Z</time>
      </trkpt>
      <trkpt lat="44.32264" lon="5.82935">
        <ele>582</ele>
        <time>2019-08-02T06:55:14Z</time>
      </trkpt>
      <trkpt lat="44.32268" lon="5.82937">
        <ele>582</ele>
        <time>2019-08-02T06:55:15Z</time>
      </trkpt>
      <trkpt lat="44.32272" lon="5.82939">
        <ele>582</ele>
        <time>2019-08-02T06:55:16Z</time>
      </trkpt>
      <trkpt lat="44.32277" lon="5.82941">
        <ele>582</ele>
        <time>2019-08-02T06:55:17Z</time>
      </trkpt>
      <trkpt lat="44.32282" lon="5.82943">
        <ele>582</ele>
        <time>2019-08-02T06:55:18Z</time>
      </trkpt>
      <trkpt lat="44.32287" lon="5.82945">
        <ele>582</ele>
        <time>2019-08-02T06:55:19Z</time>
      </trkpt>
      <trkpt lat="44.32291" lon="5.82947">
        <ele>582</ele>
        <time>2019-08-02T06:55:20Z</time>
      </trkpt>
      <trkpt lat="44.32296" lon="5.82949">
        <ele>582</ele>
        <time>2019-08-02T06:55:21Z</time>
      </trkpt>
      <trkpt lat="44.323" lon="5.82951">
        <ele>582</ele>
        <time>2019-08-02T06:55:22Z</time>
      </trkpt>
      <trkpt lat="44.32304" lon="5.82953">
        <ele>582</ele>
        <time>2019-08-02T06:55:23Z</time>
      </trkpt>
      <trkpt lat="44.32308" lon="5.82955">
        <ele>582</ele>
        <time>2019-08-02T06:55:24Z</time>
      </trkpt>
      <trkpt lat="44.32313" lon="5.82957">
        <ele>582</ele>
        <time>2019-08-02T06:55:25Z</time>
      </trkpt>
      <trkpt lat="44.32317" lon="5.82959">
        <ele>582</ele>
        <time>2019-08-02T06:55:26Z</time>
      </trkpt>
      <trkpt lat="44.3232" lon="5.82962">
        <ele>582</ele>
        <time>2019-08-02T06:55:27Z</time>
      </trkpt>
      <trkpt lat="44.32324" lon="5.82965">
        <ele>582</ele>
        <time>2019-08-02T06:55:28Z</time>
      </trkpt>
      <trkpt lat="44.32328" lon="5.82967">
        <ele>582</ele>
        <time>2019-08-02T06:55:29Z</time>
      </trkpt>
      <trkpt lat="44.32333" lon="5.8297">
        <ele>582</ele>
        <time>2019-08-02T06:55:30Z</time>
      </trkpt>
      <trkpt lat="44.32337" lon="5.82973">
        <ele>582</ele>
        <time>2019-08-02T06:55:31Z</time>
      </trkpt>
      <trkpt lat="44.32342" lon="5.82976">
        <ele>582</ele>
        <time>2019-08-02T06:55:32Z</time>
      </trkpt>
      <trkpt lat="44.32345" lon="5.82979">
        <ele>582</ele>
        <time>2019-08-02T06:55:33Z</time>
      </trkpt>
      <trkpt lat="44.32349" lon="5.82983">
        <ele>582</ele>
        <time>2019-08-02T06:55:34Z</time>
      </trkpt>
      <trkpt lat="44.32352" lon="5.82987">
        <ele>582</ele>
        <time>2019-08-02T06:55:35Z</time>
      </trkpt>
      <trkpt lat="44.32355" lon="5.82992">
        <ele>582</ele>
        <time>2019-08-02T06:55:36Z</time>
      </trkpt>
      <trkpt lat="44.32358" lon="5.82997">
        <ele>582</ele>
        <time>2019-08-02T06:55:37Z</time>
      </trkpt>
      <trkpt lat="44.32361" lon="5.83002">
        <ele>582</ele>
        <time>2019-08-02T06:55:38Z</time>
      </trkpt>
      <trkpt lat="44.32364" lon="5.83007">
        <ele>582</ele>
        <time>2019-08-02T06:55:39Z</time>
      </trkpt>
      <trkpt lat="44.32366" lon="5.83013">
        <ele>582</ele>
        <time>2019-08-02T06:55:40Z</time>
      </trkpt>
      <trkpt lat="44.32369" lon="5.83019">
        <ele>582</ele>
        <time>2019-08-02T06:55:41Z</time>
      </trkpt>
      <trkpt lat="44.3237" lon="5.83026">
        <ele>582</ele>
        <time>2019-08-02T06:55:42Z</time>
      </trkpt>
      <trkpt lat="44.32372" lon="5.83032">
        <ele>582</ele>
        <time>2019-08-02T06:55:43Z</time>
      </trkpt>
      <trkpt lat="44.32374" lon="5.83039">
        <ele>582</ele>
        <time>2019-08-02T06:55:44Z</time>
      </trkpt>
      <trkpt lat="44.32376" lon="5.83045">
        <ele>582</ele>
        <time>2019-08-02T06:55:45Z</time>
      </trkpt>
      <trkpt lat="44.32378" lon="5.83052">
        <ele>582</ele>
        <time>2019-08-02T06:55:46Z</time>
      </trkpt>
      <trkpt lat="44.3238" lon="5.8306">
        <ele>582</ele>
        <time>2019-08-02T06:55:47Z</time>
      </trkpt>
      <trkpt lat="44.32383" lon="5.83066">
        <ele>582</ele>
        <time>2019-08-02T06:55:48Z</time>
      </trkpt>
      <trkpt lat="44.32385" lon="5.83073">
        <ele>582</ele>
        <time>2019-08-02T06:55:49Z</time>
      </trkpt>
      <trkpt lat="44.32388" lon="5.8308">
        <ele>582</ele>
        <time>2019-08-02T06:55:50Z</time>
      </trkpt>
      <trkpt lat="44.32392" lon="5.83087">
        <ele>582</ele>
        <time>2019-08-02T06:55:51Z</time>
      </trkpt>
      <trkpt lat="44.32395" lon="5.83094">
        <ele>582</ele>
        <time>2019-08-02T06:55:52Z</time>
      </trkpt>
      <trkpt lat="44.32399" lon="5.831">
        <ele>582</ele>
        <time>2019-08-02T06:55:53Z</time>
      </trkpt>
      <trkpt lat="44.32402" lon="5.83106">
        <ele>582</ele>
        <time>2019-08-02T06:55:54Z</time>
      </trkpt>
      <trkpt lat="44.32407" lon="5.83112">
        <ele>582</ele>
        <time>2019-08-02T06:55:55Z</time>
      </trkpt>
      <trkpt lat="44.32412" lon="5.83118">
        <ele>582</ele>
        <time>2019-08-02T06:55:56Z</time>
      </trkpt>
      <trkpt lat="44.32417" lon="5.83124">
        <ele>582</ele>
        <time>2019-08-02T06:55:57Z</time>
      </trkpt>
      <trkpt lat="44.32422" lon="5.83128">
        <ele>582</ele>
        <time>2019-08-02T06:55:58Z</time>
      </trkpt>
      <trkpt lat="44.32427" lon="5.83133">
        <ele>582</ele>
        <time>2019-08-02T06:55:59Z</time>
      </trkpt>
      <trkpt lat="44.32432" lon="5.83138">
        <ele>582</ele>
        <time>2019-08-02T06:56:00Z</time>
      </trkpt>
      <trkpt lat="44.32437" lon="5.83142">
        <ele>582</ele>
        <time>2019-08-02T06:56:01Z</time>
      </trkpt>
      <trkpt lat="44.32442" lon="5.83147">
        <ele>582</ele>
        <time>2019-08-02T06:56:02Z</time>
      </trkpt>
      <trkpt lat="44.32446" lon="5.83151">
        <ele>582</ele>
        <time>2019-08-02T06:56:03Z</time>
      </trkpt>
      <trkpt lat="44.32451" lon="5.83155">
        <ele>582</ele>
        <time>2019-08-02T06:56:04Z</time>
      </trkpt>
      <trkpt lat="44.32456" lon="5.8316">
        <ele>582</ele>
        <time>2019-08-02T06:56:05Z</time>
      </trkpt>
      <trkpt lat="44.3246" lon="5.83164">
        <ele>582</ele>
        <time>2019-08-02T06:56:06Z</time>
      </trkpt>
      <trkpt lat="44.32465" lon="5.83168">
        <ele>582</ele>
        <time>2019-08-02T06:56:07Z</time>
      </trkpt>
      <trkpt lat="44.3247" lon="5.83171">
        <ele>582</ele>
        <time>2019-08-02T06:56:08Z</time>
      </trkpt>
      <trkpt lat="44.32476" lon="5.83175">
        <ele>582</ele>
        <time>2019-08-02T06:56:09Z</time>
      </trkpt>
      <trkpt lat="44.32481" lon="5.83179">
        <ele>582</ele>
        <time>2019-08-02T06:56:10Z</time>
      </trkpt>
      <trkpt lat="44.32486" lon="5.83182">
        <ele>582</ele>
        <time>2019-08-02T06:56:11Z</time>
      </trkpt>
      <trkpt lat="44.32492" lon="5.83185">
        <ele>582</ele>
        <time>2019-08-02T06:56:12Z</time>
      </trkpt>
      <trkpt lat="44.32497" lon="5.83189">
        <ele>582</ele>
        <time>2019-08-02T06:56:13Z</time>
      </trkpt>
      <trkpt lat="44.32503" lon="5.83191">
        <ele>582</ele>
        <time>2019-08-02T06:56:14Z</time>
      </trkpt>
      <trkpt lat="44.32509" lon="5.83194">
        <ele>582</ele>
        <time>2019-08-02T06:56:15Z</time>
      </trkpt>
      <trkpt lat="44.32515" lon="5.83197">
        <ele>582</ele>
        <time>2019-08-02T06:56:16Z</time>
      </trkpt>
      <trkpt lat="44.32521" lon="5.832">
        <ele>582</ele>
        <time>2019-08-02T06:56:17Z</time>
      </trkpt>
      <trkpt lat="44.32527" lon="5.83203">
        <ele>582</ele>
        <time>2019-08-02T06:56:18Z</time>
      </trkpt>
      <trkpt lat="44.32533" lon="5.83205">
        <ele>582</ele>
        <time>2019-08-02T06:56:19Z</time>
      </trkpt>
      <trkpt lat="44.32539" lon="5.83208">
        <ele>582</ele>
        <time>2019-08-02T06:56:20Z</time>
      </trkpt>
      <trkpt lat="44.32546" lon="5.8321">
        <ele>582</ele>
        <time>2019-08-02T06:56:21Z</time>
      </trkpt>
      <trkpt lat="44.32552" lon="5.83213">
        <ele>582</ele>
        <time>2019-08-02T06:56:22Z</time>
      </trkpt>
      <trkpt lat="44.32558" lon="5.83216">
        <ele>582</ele>
        <time>2019-08-02T06:56:23Z</time>
      </trkpt>
      <trkpt lat="44.32563" lon="5.83218">
        <ele>582</ele>
        <time>2019-08-02T06:56:24Z</time>
      </trkpt>
      <trkpt lat="44.32569" lon="5.83221">
        <ele>582</ele>
        <time>2019-08-02T06:56:25Z</time>
      </trkpt>
      <trkpt lat="44.32575" lon="5.83224">
        <ele>582</ele>
        <time>2019-08-02T06:56:26Z</time>
      </trkpt>
      <trkpt lat="44.32581" lon="5.83226">
        <ele>582</ele>
        <time>2019-08-02T06:56:27Z</time>
      </trkpt>
      <trkpt lat="44.32587" lon="5.83229">
        <ele>582</ele>
        <time>2019-08-02T06:56:28Z</time>
      </trkpt>
      <trkpt lat="44.32593" lon="5.83232">
        <ele>582</ele>
        <time>2019-08-02T06:56:29Z</time>
      </trkpt>
      <trkpt lat="44.32598" lon="5.83235">
        <ele>582</ele>
        <time>2019-08-02T06:56:30Z</time>
      </trkpt>
      <trkpt lat="44.32604" lon="5.83239">
        <ele>582</ele>
        <time>2019-08-02T06:56:31Z</time>
      </trkpt>
      <trkpt lat="44.32609" lon="5.83243">
        <ele>582</ele>
        <time>2019-08-02T06:56:32Z</time>
      </trkpt>
      <trkpt lat="44.32614" lon="5.83246">
        <ele>582</ele>
        <time>2019-08-02T06:56:33Z</time>
      </trkpt>
      <trkpt lat="44.3262" lon="5.8325">
        <ele>582</ele>
        <time>2019-08-02T06:56:34Z</time>
      </trkpt>
      <trkpt lat="44.32625" lon="5.83253">
        <ele>582</ele>
        <time>2019-08-02T06:56:35Z</time>
      </trkpt>
      <trkpt lat="44.3263" lon="5.83257">
        <ele>582</ele>
        <time>2019-08-02T06:56:36Z</time>
      </trkpt>
      <trkpt lat="44.32635" lon="5.83261">
        <ele>582</ele>
        <time>2019-08-02T06:56:37Z</time>
      </trkpt>
      <trkpt lat="44.3264" lon="5.83264">
        <ele>582</ele>
        <time>2019-08-02T06:56:38Z</time>
      </trkpt>
      <trkpt lat="44.32645" lon="5.83268">
        <ele>582</ele>
        <time>2019-08-02T06:56:39Z</time>
      </trkpt>
      <trkpt lat="44.3265" lon="5.83271">
        <ele>582</ele>
        <time>2019-08-02T06:56:40Z</time>
      </trkpt>
      <trkpt lat="44.32654" lon="5.83275">
        <ele>582</ele>
        <time>2019-08-02T06:56:41Z</time>
      </trkpt>
      <trkpt lat="44.32659" lon="5.83278">
        <ele>582</ele>
        <time>2019-08-02T06:56:42Z</time>
      </trkpt>
      <trkpt lat="44.32664" lon="5.83282">
        <ele>582</ele>
        <time>2019-08-02T06:56:43Z</time>
      </trkpt>
      <trkpt lat="44.32669" lon="5.83285">
        <ele>582</ele>
        <time>2019-08-02T06:56:44Z</time>
      </trkpt>
      <trkpt lat="44.32675" lon="5.83288">
        <ele>582</ele>
        <time>2019-08-02T06:56:45Z</time>
      </trkpt>
      <trkpt lat="44.32679" lon="5.83291">
        <ele>582</ele>
        <time>2019-08-02T06:56:46Z</time>
      </trkpt>
      <trkpt lat="44.32684" lon="5.83294">
        <ele>582</ele>
        <time>2019-08-02T06:56:47Z</time>
      </trkpt>
      <trkpt lat="44.32688" lon="5.83297">
        <ele>582</ele>
        <time>2019-08-02T06:56:48Z</time>
      </trkpt>
      <trkpt lat="44.32693" lon="5.83301">
        <ele>582</ele>
        <time>2019-08-02T06:56:49Z</time>
      </trkpt>
      <trkpt lat="44.32698" lon="5.83305">
        <ele>582</ele>
        <time>2019-08-02T06:56:50Z</time>
      </trkpt>
      <trkpt lat="44.32703" lon="5.83309">
        <ele>582</ele>
        <time>2019-08-02T06:56:51Z</time>
      </trkpt>
      <trkpt lat="44.32708" lon="5.83313">
        <ele>582</ele>
        <time>2019-08-02T06:56:52Z</time>
      </trkpt>
      <trkpt lat="44.32713" lon="5.83317">
        <ele>582</ele>
        <time>2019-08-02T06:56:53Z</time>
      </trkpt>
      <trkpt lat="44.32718" lon="5.8332">
        <ele>582</ele>
        <time>2019-08-02T06:56:54Z</time>
      </trkpt>
      <trkpt lat="44.32723" lon="5.83324">
        <ele>582</ele>
        <time>2019-08-02T06:56:55Z</time>
      </trkpt>
      <trkpt lat="44.32728" lon="5.83327">
        <ele>582</ele>
        <time>2019-08-02T06:56:56Z</time>
      </trkpt>
      <trkpt lat="44.32733" lon="5.83331">
        <ele>582</ele>
        <time>2019-08-02T06:56:57Z</time>
      </trkpt>
      <trkpt lat="44.32738" lon="5.83335">
        <ele>582</ele>
        <time>2019-08-02T06:56:58Z</time>
      </trkpt>
      <trkpt lat="44.32743" lon="5.83338">
        <ele>582</ele>
        <time>2019-08-02T06:56:59Z</time>
      </trkpt>
      <trkpt lat="44.32748" lon="5.83342">
        <ele>582</ele>
        <time>2019-08-02T06:57:00Z</time>
      </trkpt>
      <trkpt lat="44.32753" lon="5.83345">
        <ele>582</ele>
        <time>2019-08-02T06:57:01Z</time>
      </trkpt>
      <trkpt lat="44.32758" lon="5.83349">
        <ele>583</ele>
        <time>2019-08-02T06:57:02Z</time>
      </trkpt>
      <trkpt lat="44.32763" lon="5.83352">
        <ele>583</ele>
        <time>2019-08-02T06:57:03Z</time>
      </trkpt>
      <trkpt lat="44.32768" lon="5.83356">
        <ele>583</ele>
        <time>2019-08-02T06:57:04Z</time>
      </trkpt>
      <trkpt lat="44.32773" lon="5.83359">
        <ele>583</ele>
        <time>2019-08-02T06:57:05Z</time>
      </trkpt>
      <trkpt lat="44.32777" lon="5.83363">
        <ele>583</ele>
        <time>2019-08-02T06:57:06Z</time>
      </trkpt>
      <trkpt lat="44.32782" lon="5.83366">
        <ele>583</ele>
        <time>2019-08-02T06:57:07Z</time>
      </trkpt>
      <trkpt lat="44.32787" lon="5.83369">
        <ele>583</ele>
        <time>2019-08-02T06:57:08Z</time>
      </trkpt>
      <trkpt lat="44.32792" lon="5.83372">
        <ele>583</ele>
        <time>2019-08-02T06:57:09Z</time>
      </trkpt>
      <trkpt lat="44.32797" lon="5.83376">
        <ele>583</ele>
        <time>2019-08-02T06:57:10Z</time>
      </trkpt>
      <trkpt lat="44.32801" lon="5.83379">
        <ele>583</ele>
        <time>2019-08-02T06:57:11Z</time>
      </trkpt>
      <trkpt lat="44.32806" lon="5.83382">
        <ele>583</ele>
        <time>2019-08-02T06:57:12Z</time>
      </trkpt>
      <trkpt lat="44.32811" lon="5.83384">
        <ele>583</ele>
        <time>2019-08-02T06:57:13Z</time>
      </trkpt>
      <trkpt lat="44.32816" lon="5.83386">
        <ele>583</ele>
        <time>2019-08-02T06:57:14Z</time>
      </trkpt>
      <trkpt lat="44.32821" lon="5.83387">
        <ele>583</ele>
        <time>2019-08-02T06:57:15Z</time>
      </trkpt>
      <trkpt lat="44.32826" lon="5.83389">
        <ele>583</ele>
        <time>2019-08-02T06:57:16Z</time>
      </trkpt>
      <trkpt lat="44.32831" lon="5.8339">
        <ele>583</ele>
        <time>2019-08-02T06:57:17Z</time>
      </trkpt>
      <trkpt lat="44.32836" lon="5.83391">
        <ele>583</ele>
        <time>2019-08-02T06:57:18Z</time>
      </trkpt>
      <trkpt lat="44.32841" lon="5.83392">
        <ele>583</ele>
        <time>2019-08-02T06:57:19Z</time>
      </trkpt>
      <trkpt lat="44.32846" lon="5.83392">
        <ele>583</ele>
        <time>2019-08-02T06:57:20Z</time>
      </trkpt>
      <trkpt lat="44.32851" lon="5.83393">
        <ele>583</ele>
        <time>2019-08-02T06:57:21Z</time>
      </trkpt>
      <trkpt lat="44.32857" lon="5.83394">
        <ele>583</ele>
        <time>2019-08-02T06:57:22Z</time>
      </trkpt>
      <trkpt lat="44.32862" lon="5.83394">
        <ele>583</ele>
        <time>2019-08-02T06:57:23Z</time>
      </trkpt>
      <trkpt lat="44.32867" lon="5.83394">
        <ele>583</ele>
        <time>2019-08-02T06:57:24Z</time>
      </trkpt>
      <trkpt lat="44.32872" lon="5.83395">
        <ele>583</ele>
        <time>2019-08-02T06:57:25Z</time>
      </trkpt>
      <trkpt lat="44.32877" lon="5.83395">
        <ele>583</ele>
        <time>2019-08-02T06:57:26Z</time>
      </trkpt>
      <trkpt lat="44.32883" lon="5.83395">
        <ele>583</ele>
        <time>2019-08-02T06:57:27Z</time>
      </trkpt>
      <trkpt lat="44.32887" lon="5.83396">
        <ele>583</ele>
        <time>2019-08-02T06:57:28Z</time>
      </trkpt>
      <trkpt lat="44.32892" lon="5.83396">
        <ele>583</ele>
        <time>2019-08-02T06:57:29Z</time>
      </trkpt>
      <trkpt lat="44.32897" lon="5.83396">
        <ele>583</ele>
        <time>2019-08-02T06:57:30Z</time>
      </trkpt>
      <trkpt lat="44.32901" lon="5.83396">
        <ele>583</ele>
        <time>2019-08-02T06:57:31Z</time>
      </trkpt>
      <trkpt lat="44.32906" lon="5.83397">
        <ele>583</ele>
        <time>2019-08-02T06:57:32Z</time>
      </trkpt>
      <trkpt lat="44.3291" lon="5.83397">
        <ele>583</ele>
        <time>2019-08-02T06:57:33Z</time>
      </trkpt>
      <trkpt lat="44.32914" lon="5.83397">
        <ele>583</ele>
        <time>2019-08-02T06:57:34Z</time>
      </trkpt>
      <trkpt lat="44.32918" lon="5.83398">
        <ele>584</ele>
        <time>2019-08-02T06:57:35Z</time>
      </trkpt>
      <trkpt lat="44.32922" lon="5.83398">
        <ele>584</ele>
        <time>2019-08-02T06:57:36Z</time>
      </trkpt>
      <trkpt lat="44.32927" lon="5.83398">
        <ele>584</ele>
        <time>2019-08-02T06:57:37Z</time>
      </trkpt>
      <trkpt lat="44.32931" lon="5.83399">
        <ele>584</ele>
        <time>2019-08-02T06:57:38Z</time>
      </trkpt>
      <trkpt lat="44.32936" lon="5.83399">
        <ele>584</ele>
        <time>2019-08-02T06:57:39Z</time>
      </trkpt>
      <trkpt lat="44.3294" lon="5.83399">
        <ele>584</ele>
        <time>2019-08-02T06:57:40Z</time>
      </trkpt>
      <trkpt lat="44.32944" lon="5.83399">
        <ele>584</ele>
        <time>2019-08-02T06:57:41Z</time>
      </trkpt>
      <trkpt lat="44.32948" lon="5.834">
        <ele>585</ele>
        <time>2019-08-02T06:57:42Z</time>
      </trkpt>
      <trkpt lat="44.32952" lon="5.834">
        <ele>585</ele>
        <time>2019-08-02T06:57:43Z</time>
      </trkpt>
      <trkpt lat="44.32956" lon="5.834">
        <ele>585</ele>
        <time>2019-08-02T06:57:44Z</time>
      </trkpt>
      <trkpt lat="44.3296" lon="5.834">
        <ele>585</ele>
        <time>2019-08-02T06:57:45Z</time>
      </trkpt>
      <trkpt lat="44.32964" lon="5.834">
        <ele>586</ele>
        <time>2019-08-02T06:57:46Z</time>
      </trkpt>
      <trkpt lat="44.32969" lon="5.83401">
        <ele>586</ele>
        <time>2019-08-02T06:57:47Z</time>
      </trkpt>
      <trkpt lat="44.32973" lon="5.83401">
        <ele>586</ele>
        <time>2019-08-02T06:57:48Z</time>
      </trkpt>
      <trkpt lat="44.32978" lon="5.83401">
        <ele>586</ele>
        <time>2019-08-02T06:57:49Z</time>
      </trkpt>
      <trkpt lat="44.32983" lon="5.83401">
        <ele>586</ele>
        <time>2019-08-02T06:57:50Z</time>
      </trkpt>
      <trkpt lat="44.32987" lon="5.83401">
        <ele>586</ele>
        <time>2019-08-02T06:57:51Z</time>
      </trkpt>
      <trkpt lat="44.32992" lon="5.83401">
        <ele>586</ele>
        <time>2019-08-02T06:57:52Z</time>
      </trkpt>
      <trkpt lat="44.32996" lon="5.83402">
        <ele>586</ele>
        <time>2019-08-02T06:57:53Z</time>
      </trkpt>
      <trkpt lat="44.33001" lon="5.83402">
        <ele>586</ele>
        <time>2019-08-02T06:57:54Z</time>
      </trkpt>
      <trkpt lat="44.33005" lon="5.83402">
        <ele>586</ele>
        <time>2019-08-02T06:57:55Z</time>
      </trkpt>
      <trkpt lat="44.3301" lon="5.83403">
        <ele>586</ele>
        <time>2019-08-02T06:57:56Z</time>
      </trkpt>
      <trkpt lat="44.33015" lon="5.83403">
        <ele>586</ele>
        <time>2019-08-02T06:57:57Z</time>
      </trkpt>
      <trkpt lat="44.3302" lon="5.83403">
        <ele>586</ele>
        <time>2019-08-02T06:57:58Z</time>
      </trkpt>
      <trkpt lat="44.33025" lon="5.83404">
        <ele>586</ele>
        <time>2019-08-02T06:57:59Z</time>
      </trkpt>
      <trkpt lat="44.33031" lon="5.83404">
        <ele>586</ele>
        <time>2019-08-02T06:58:00Z</time>
      </trkpt>
      <trkpt lat="44.33036" lon="5.83404">
        <ele>586</ele>
        <time>2019-08-02T06:58:01Z</time>
      </trkpt>
      <trkpt lat="44.33041" lon="5.83404">
        <ele>586</ele>
        <time>2019-08-02T06:58:02Z</time>
      </trkpt>
      <trkpt lat="44.33046" lon="5.83404">
        <ele>586</ele>
        <time>2019-08-02T06:58:03Z</time>
      </trkpt>
      <trkpt lat="44.33052" lon="5.83405">
        <ele>586</ele>
        <time>2019-08-02T06:58:04Z</time>
      </trkpt>
      <trkpt lat="44.33058" lon="5.83405">
        <ele>586</ele>
        <time>2019-08-02T06:58:05Z</time>
      </trkpt>
      <trkpt lat="44.33064" lon="5.83405">
        <ele>586</ele>
        <time>2019-08-02T06:58:06Z</time>
      </trkpt>
      <trkpt lat="44.3307" lon="5.83405">
        <ele>586</ele>
        <time>2019-08-02T06:58:07Z</time>
      </trkpt>
      <trkpt lat="44.33076" lon="5.83405">
        <ele>586</ele>
        <time>2019-08-02T06:58:08Z</time>
      </trkpt>
      <trkpt lat="44.33082" lon="5.83405">
        <ele>586</ele>
        <time>2019-08-02T06:58:09Z</time>
      </trkpt>
      <trkpt lat="44.33088" lon="5.83404">
        <ele>586</ele>
        <time>2019-08-02T06:58:10Z</time>
      </trkpt>
      <trkpt lat="44.33094" lon="5.83404">
        <ele>586</ele>
        <time>2019-08-02T06:58:11Z</time>
      </trkpt>
      <trkpt lat="44.331" lon="5.83403">
        <ele>586</ele>
        <time>2019-08-02T06:58:12Z</time>
      </trkpt>
      <trkpt lat="44.33105" lon="5.83403">
        <ele>586</ele>
        <time>2019-08-02T06:58:13Z</time>
      </trkpt>
      <trkpt lat="44.33111" lon="5.83402">
        <ele>586</ele>
        <time>2019-08-02T06:58:14Z</time>
      </trkpt>
      <trkpt lat="44.33117" lon="5.83402">
        <ele>586</ele>
        <time>2019-08-02T06:58:15Z</time>
      </trkpt>
      <trkpt lat="44.33123" lon="5.83401">
        <ele>586</ele>
        <time>2019-08-02T06:58:16Z</time>
      </trkpt>
      <trkpt lat="44.33129" lon="5.834">
        <ele>586</ele>
        <time>2019-08-02T06:58:17Z</time>
      </trkpt>
      <trkpt lat="44.33135" lon="5.834">
        <ele>586</ele>
        <time>2019-08-02T06:58:18Z</time>
      </trkpt>
      <trkpt lat="44.3314" lon="5.83399">
        <ele>586</ele>
        <time>2019-08-02T06:58:19Z</time>
      </trkpt>
      <trkpt lat="44.33146" lon="5.83398">
        <ele>586</ele>
        <time>2019-08-02T06:58:20Z</time>
      </trkpt>
      <trkpt lat="44.33151" lon="5.83397">
        <ele>586</ele>
        <time>2019-08-02T06:58:21Z</time>
      </trkpt>
      <trkpt lat="44.33157" lon="5.83396">
        <ele>586</ele>
        <time>2019-08-02T06:58:22Z</time>
      </trkpt>
      <trkpt lat="44.33162" lon="5.83395">
        <ele>586</ele>
        <time>2019-08-02T06:58:23Z</time>
      </trkpt>
      <trkpt lat="44.33168" lon="5.83394">
        <ele>586</ele>
        <time>2019-08-02T06:58:24Z</time>
      </trkpt>
      <trkpt lat="44.33173" lon="5.83393">
        <ele>586</ele>
        <time>2019-08-02T06:58:25Z</time>
      </trkpt>
      <trkpt lat="44.33178" lon="5.83393">
        <ele>587</ele>
        <time>2019-08-02T06:58:26Z</time>
      </trkpt>
      <trkpt lat="44.33184" lon="5.83392">
        <ele>587</ele>
        <time>2019-08-02T06:58:27Z</time>
      </trkpt>
      <trkpt lat="44.33189" lon="5.83391">
        <ele>587</ele>
        <time>2019-08-02T06:58:28Z</time>
      </trkpt>
      <trkpt lat="44.33194" lon="5.8339">
        <ele>587</ele>
        <time>2019-08-02T06:58:29Z</time>
      </trkpt>
      <trkpt lat="44.33199" lon="5.83389">
        <ele>587</ele>
        <time>2019-08-02T06:58:30Z</time>
      </trkpt>
      <trkpt lat="44.33205" lon="5.83388">
        <ele>587</ele>
        <time>2019-08-02T06:58:31Z</time>
      </trkpt>
      <trkpt lat="44.3321" lon="5.83388">
        <ele>587</ele>
        <time>2019-08-02T06:58:32Z</time>
      </trkpt>
      <trkpt lat="44.33215" lon="5.83387">
        <ele>587</ele>
        <time>2019-08-02T06:58:33Z</time>
      </trkpt>
      <trkpt lat="44.3322" lon="5.83386">
        <ele>588</ele>
        <time>2019-08-02T06:58:34Z</time>
      </trkpt>
      <trkpt lat="44.33225" lon="5.83386">
        <ele>588</ele>
        <time>2019-08-02T06:58:35Z</time>
      </trkpt>
      <trkpt lat="44.3323" lon="5.83386">
        <ele>588</ele>
        <time>2019-08-02T06:58:36Z</time>
      </trkpt>
      <trkpt lat="44.33235" lon="5.83385">
        <ele>588</ele>
        <time>2019-08-02T06:58:37Z</time>
      </trkpt>
      <trkpt lat="44.3324" lon="5.83384">
        <ele>588</ele>
        <time>2019-08-02T06:58:38Z</time>
      </trkpt>
      <trkpt lat="44.33245" lon="5.83384">
        <ele>588</ele>
        <time>2019-08-02T06:58:39Z</time>
      </trkpt>
      <trkpt lat="44.3325" lon="5.83383">
        <ele>588</ele>
        <time>2019-08-02T06:58:40Z</time>
      </trkpt>
      <trkpt lat="44.33255" lon="5.83382">
        <ele>588</ele>
        <time>2019-08-02T06:58:41Z</time>
      </trkpt>
      <trkpt lat="44.3326" lon="5.83382">
        <ele>588</ele>
        <time>2019-08-02T06:58:42Z</time>
      </trkpt>
      <trkpt lat="44.33265" lon="5.83381">
        <ele>588</ele>
        <time>2019-08-02T06:58:43Z</time>
      </trkpt>
      <trkpt lat="44.3327" lon="5.8338">
        <ele>588</ele>
        <time>2019-08-02T06:58:44Z</time>
      </trkpt>
      <trkpt lat="44.33275" lon="5.83379">
        <ele>588</ele>
        <time>2019-08-02T06:58:45Z</time>
      </trkpt>
      <trkpt lat="44.3328" lon="5.83378">
        <ele>588</ele>
        <time>2019-08-02T06:58:46Z</time>
      </trkpt>
      <trkpt lat="44.33285" lon="5.83377">
        <ele>589</ele>
        <time>2019-08-02T06:58:47Z</time>
      </trkpt>
      <trkpt lat="44.3329" lon="5.83376">
        <ele>589</ele>
        <time>2019-08-02T06:58:48Z</time>
      </trkpt>
      <trkpt lat="44.33295" lon="5.83376">
        <ele>589</ele>
        <time>2019-08-02T06:58:49Z</time>
      </trkpt>
      <trkpt lat="44.33299" lon="5.83375">
        <ele>589</ele>
        <time>2019-08-02T06:58:50Z</time>
      </trkpt>
      <trkpt lat="44.33304" lon="5.83375">
        <ele>589</ele>
        <time>2019-08-02T06:58:51Z</time>
      </trkpt>
      <trkpt lat="44.33309" lon="5.83374">
        <ele>589</ele>
        <time>2019-08-02T06:58:52Z</time>
      </trkpt>
      <trkpt lat="44.33314" lon="5.83373">
        <ele>589</ele>
        <time>2019-08-02T06:58:53Z</time>
      </trkpt>
      <trkpt lat="44.33319" lon="5.83373">
        <ele>589</ele>
        <time>2019-08-02T06:58:54Z</time>
      </trkpt>
      <trkpt lat="44.33324" lon="5.83372">
        <ele>589</ele>
        <time>2019-08-02T06:58:55Z</time>
      </trkpt>
      <trkpt lat="44.33329" lon="5.83371">
        <ele>589</ele>
        <time>2019-08-02T06:58:56Z</time>
      </trkpt>
      <trkpt lat="44.33334" lon="5.83371">
        <ele>589</ele>
        <time>2019-08-02T06:58:57Z</time>
      </trkpt>
      <trkpt lat="44.33339" lon="5.8337">
        <ele>589</ele>
        <time>2019-08-02T06:58:58Z</time>
      </trkpt>
      <trkpt lat="44.33344" lon="5.8337">
        <ele>590</ele>
        <time>2019-08-02T06:58:59Z</time>
      </trkpt>
      <trkpt lat="44.33349" lon="5.83369">
        <ele>590</ele>
        <time>2019-08-02T06:59:00Z</time>
      </trkpt>
      <trkpt lat="44.33354" lon="5.83368">
        <ele>590</ele>
        <time>2019-08-02T06:59:01Z</time>
      </trkpt>
      <trkpt lat="44.33358" lon="5.83367">
        <ele>590</ele>
        <time>2019-08-02T06:59:02Z</time>
      </trkpt>
      <trkpt lat="44.33363" lon="5.83366">
        <ele>590</ele>
        <time>2019-08-02T06:59:03Z</time>
      </trkpt>
      <trkpt lat="44.33368" lon="5.83365">
        <ele>590</ele>
        <time>2019-08-02T06:59:04Z</time>
      </trkpt>
      <trkpt lat="44.33373" lon="5.83365">
        <ele>590</ele>
        <time>2019-08-02T06:59:05Z</time>
      </trkpt>
      <trkpt lat="44.33378" lon="5.83364">
        <ele>590</ele>
        <time>2019-08-02T06:59:06Z</time>
      </trkpt>
      <trkpt lat="44.33383" lon="5.83364">
        <ele>590</ele>
        <time>2019-08-02T06:59:07Z</time>
      </trkpt>
      <trkpt lat="44.33388" lon="5.83363">
        <ele>590</ele>
        <time>2019-08-02T06:59:08Z</time>
      </trkpt>
      <trkpt lat="44.33393" lon="5.83362">
        <ele>590</ele>
        <time>2019-08-02T06:59:09Z</time>
      </trkpt>
      <trkpt lat="44.33398" lon="5.83361">
        <ele>590</ele>
        <time>2019-08-02T06:59:10Z</time>
      </trkpt>
      <trkpt lat="44.33403" lon="5.83361">
        <ele>590</ele>
        <time>2019-08-02T06:59:11Z</time>
      </trkpt>
      <trkpt lat="44.33408" lon="5.8336">
        <ele>590</ele>
        <time>2019-08-02T06:59:12Z</time>
      </trkpt>
      <trkpt lat="44.33413" lon="5.83359">
        <ele>590</ele>
        <time>2019-08-02T06:59:13Z</time>
      </trkpt>
      <trkpt lat="44.33418" lon="5.83358">
        <ele>590</ele>
        <time>2019-08-02T06:59:14Z</time>
      </trkpt>
      <trkpt lat="44.33423" lon="5.83358">
        <ele>590</ele>
        <time>2019-08-02T06:59:15Z</time>
      </trkpt>
      <trkpt lat="44.33428" lon="5.83357">
        <ele>590</ele>
        <time>2019-08-02T06:59:16Z</time>
      </trkpt>
      <trkpt lat="44.33433" lon="5.83356">
        <ele>591</ele>
        <time>2019-08-02T06:59:17Z</time>
      </trkpt>
      <trkpt lat="44.33437" lon="5.83356">
        <ele>591</ele>
        <time>2019-08-02T06:59:18Z</time>
      </trkpt>
      <trkpt lat="44.33443" lon="5.83355">
        <ele>591</ele>
        <time>2019-08-02T06:59:19Z</time>
      </trkpt>
      <trkpt lat="44.33447" lon="5.83355">
        <ele>591</ele>
        <time>2019-08-02T06:59:20Z</time>
      </trkpt>
      <trkpt lat="44.33452" lon="5.83354">
        <ele>591</ele>
        <time>2019-08-02T06:59:21Z</time>
      </trkpt>
      <trkpt lat="44.33457" lon="5.83354">
        <ele>591</ele>
        <time>2019-08-02T06:59:22Z</time>
      </trkpt>
      <trkpt lat="44.33463" lon="5.83354">
        <ele>591</ele>
        <time>2019-08-02T06:59:23Z</time>
      </trkpt>
      <trkpt lat="44.33468" lon="5.83354">
        <ele>592</ele>
        <time>2019-08-02T06:59:24Z</time>
      </trkpt>
      <trkpt lat="44.33473" lon="5.83354">
        <ele>592</ele>
        <time>2019-08-02T06:59:25Z</time>
      </trkpt>
      <trkpt lat="44.33478" lon="5.83354">
        <ele>592</ele>
        <time>2019-08-02T06:59:26Z</time>
      </trkpt>
      <trkpt lat="44.33483" lon="5.83354">
        <ele>592</ele>
        <time>2019-08-02T06:59:27Z</time>
      </trkpt>
      <trkpt lat="44.33488" lon="5.83354">
        <ele>592</ele>
        <time>2019-08-02T06:59:28Z</time>
      </trkpt>
      <trkpt lat="44.33493" lon="5.83355">
        <ele>592</ele>
        <time>2019-08-02T06:59:29Z</time>
      </trkpt>
      <trkpt lat="44.33498" lon="5.83355">
        <ele>592</ele>
        <time>2019-08-02T06:59:30Z</time>
      </trkpt>
      <trkpt lat="44.33503" lon="5.83356">
        <ele>592</ele>
        <time>2019-08-02T06:59:31Z</time>
      </trkpt>
      <trkpt lat="44.33507" lon="5.83356">
        <ele>593</ele>
        <time>2019-08-02T06:59:32Z</time>
      </trkpt>
      <trkpt lat="44.33512" lon="5.83357">
        <ele>593</ele>
        <time>2019-08-02T06:59:33Z</time>
      </trkpt>
      <trkpt lat="44.33516" lon="5.83357">
        <ele>593</ele>
        <time>2019-08-02T06:59:34Z</time>
      </trkpt>
      <trkpt lat="44.33521" lon="5.83357">
        <ele>593</ele>
        <time>2019-08-02T06:59:35Z</time>
      </trkpt>
      <trkpt lat="44.33526" lon="5.83358">
        <ele>593</ele>
        <time>2019-08-02T06:59:36Z</time>
      </trkpt>
      <trkpt lat="44.3353" lon="5.83359">
        <ele>593</ele>
        <time>2019-08-02T06:59:37Z</time>
      </trkpt>
      <trkpt lat="44.33535" lon="5.83359">
        <ele>593</ele>
        <time>2019-08-02T06:59:38Z</time>
      </trkpt>
      <trkpt lat="44.3354" lon="5.8336">
        <ele>593</ele>
        <time>2019-08-02T06:59:39Z</time>
      </trkpt>
      <trkpt lat="44.33544" lon="5.8336">
        <ele>594</ele>
        <time>2019-08-02T06:59:40Z</time>
      </trkpt>
      <trkpt lat="44.33548" lon="5.83361">
        <ele>594</ele>
        <time>2019-08-02T06:59:41Z</time>
      </trkpt>
      <trkpt lat="44.33552" lon="5.83361">
        <ele>594</ele>
        <time>2019-08-02T06:59:42Z</time>
      </trkpt>
      <trkpt lat="44.33556" lon="5.83361">
        <ele>594</ele>
        <time>2019-08-02T06:59:43Z</time>
      </trkpt>
      <trkpt lat="44.33559" lon="5.83361">
        <ele>595</ele>
        <time>2019-08-02T06:59:44Z</time>
      </trkpt>
      <trkpt lat="44.33564" lon="5.83361">
        <ele>595</ele>
        <time>2019-08-02T06:59:45Z</time>
      </trkpt>
      <trkpt lat="44.33568" lon="5.83361">
        <ele>596</ele>
        <time>2019-08-02T06:59:46Z</time>
      </trkpt>
      <trkpt lat="44.33572" lon="5.83362">
        <ele>597</ele>
        <time>2019-08-02T06:59:47Z</time>
      </trkpt>
      <trkpt lat="44.33576" lon="5.83363">
        <ele>597</ele>
        <time>2019-08-02T06:59:48Z</time>
      </trkpt>
      <trkpt lat="44.3358" lon="5.83363">
        <ele>597</ele>
        <time>2019-08-02T06:59:49Z</time>
      </trkpt>
      <trkpt lat="44.33585" lon="5.83364">
        <ele>598</ele>
        <time>2019-08-02T06:59:50Z</time>
      </trkpt>
      <trkpt lat="44.33589" lon="5.83364">
        <ele>598</ele>
        <time>2019-08-02T06:59:51Z</time>
      </trkpt>
      <trkpt lat="44.33594" lon="5.83363">
        <ele>598</ele>
        <time>2019-08-02T06:59:52Z</time>
      </trkpt>
      <trkpt lat="44.33598" lon="5.83363">
        <ele>599</ele>
        <time>2019-08-02T06:59:53Z</time>
      </trkpt>
      <trkpt lat="44.33603" lon="5.83364">
        <ele>599</ele>
        <time>2019-08-02T06:59:54Z</time>
      </trkpt>
      <trkpt lat="44.33607" lon="5.83364">
        <ele>600</ele>
        <time>2019-08-02T06:59:55Z</time>
      </trkpt>
      <trkpt lat="44.33611" lon="5.83364">
        <ele>600</ele>
        <time>2019-08-02T06:59:56Z</time>
      </trkpt>
      <trkpt lat="44.33616" lon="5.83364">
        <ele>600</ele>
        <time>2019-08-02T06:59:57Z</time>
      </trkpt>
      <trkpt lat="44.3362" lon="5.83365">
        <ele>601</ele>
        <time>2019-08-02T06:59:58Z</time>
      </trkpt>
      <trkpt lat="44.33625" lon="5.83365">
        <ele>601</ele>
        <time>2019-08-02T06:59:59Z</time>
      </trkpt>
      <trkpt lat="44.3363" lon="5.83366">
        <ele>601</ele>
        <time>2019-08-02T07:00:00Z</time>
      </trkpt>
      <trkpt lat="44.33635" lon="5.83367">
        <ele>601</ele>
        <time>2019-08-02T07:00:01Z</time>
      </trkpt>
      <trkpt lat="44.3364" lon="5.83368">
        <ele>601</ele>
        <time>2019-08-02T07:00:02Z</time>
      </trkpt>
      <trkpt lat="44.33644" lon="5.83369">
        <ele>601</ele>
        <time>2019-08-02T07:00:03Z</time>
      </trkpt>
      <trkpt lat="44.33649" lon="5.83369">
        <ele>601</ele>
        <time>2019-08-02T07:00:04Z</time>
      </trkpt>
      <trkpt lat="44.33654" lon="5.83369">
        <ele>601</ele>
        <time>2019-08-02T07:00:05Z</time>
      </trkpt>
      <trkpt lat="44.33658" lon="5.8337">
        <ele>601</ele>
        <time>2019-08-02T07:00:06Z</time>
      </trkpt>
      <trkpt lat="44.33663" lon="5.8337">
        <ele>601</ele>
        <time>2019-08-02T07:00:07Z</time>
      </trkpt>
      <trkpt lat="44.33668" lon="5.83371">
        <ele>601</ele>
        <time>2019-08-02T07:00:08Z</time>
      </trkpt>
      <trkpt lat="44.33672" lon="5.83371">
        <ele>601</ele>
        <time>2019-08-02T07:00:09Z</time>
      </trkpt>
      <trkpt lat="44.33677" lon="5.83372">
        <ele>601</ele>
        <time>2019-08-02T07:00:10Z</time>
      </trkpt>
      <trkpt lat="44.33681" lon="5.83373">
        <ele>601</ele>
        <time>2019-08-02T07:00:11Z</time>
      </trkpt>
      <trkpt lat="44.33686" lon="5.83373">
        <ele>601</ele>
        <time>2019-08-02T07:00:12Z</time>
      </trkpt>
      <trkpt lat="44.3369" lon="5.83374">
        <ele>601</ele>
        <time>2019-08-02T07:00:13Z</time>
      </trkpt>
      <trkpt lat="44.33695" lon="5.83374">
        <ele>601</ele>
        <time>2019-08-02T07:00:14Z</time>
      </trkpt>
      <trkpt lat="44.33699" lon="5.83375">
        <ele>601</ele>
        <time>2019-08-02T07:00:15Z</time>
      </trkpt>
      <trkpt lat="44.33704" lon="5.83375">
        <ele>601</ele>
        <time>2019-08-02T07:00:16Z</time>
      </trkpt>
      <trkpt lat="44.33708" lon="5.83376">
        <ele>601</ele>
        <time>2019-08-02T07:00:17Z</time>
      </trkpt>
      <trkpt lat="44.33713" lon="5.83377">
        <ele>601</ele>
        <time>2019-08-02T07:00:18Z</time>
      </trkpt>
      <trkpt lat="44.33717" lon="5.83377">
        <ele>601</ele>
        <time>2019-08-02T07:00:19Z</time>
      </trkpt>
      <trkpt lat="44.33722" lon="5.83378">
        <ele>601</ele>
        <time>2019-08-02T07:00:20Z</time>
      </trkpt>
      <trkpt lat="44.33727" lon="5.83378">
        <ele>601</ele>
        <time>2019-08-02T07:00:21Z</time>
      </trkpt>
      <trkpt lat="44.33731" lon="5.83379">
        <ele>601</ele>
        <time>2019-08-02T07:00:22Z</time>
      </trkpt>
      <trkpt lat="44.33736" lon="5.83379">
        <ele>601</ele>
        <time>2019-08-02T07:00:23Z</time>
      </trkpt>
      <trkpt lat="44.33741" lon="5.83379">
        <ele>601</ele>
        <time>2019-08-02T07:00:24Z</time>
      </trkpt>
      <trkpt lat="44.33745" lon="5.8338">
        <ele>601</ele>
        <time>2019-08-02T07:00:25Z</time>
      </trkpt>
      <trkpt lat="44.3375" lon="5.83381">
        <ele>601</ele>
        <time>2019-08-02T07:00:26Z</time>
      </trkpt>
      <trkpt lat="44.33755" lon="5.83381">
        <ele>601</ele>
        <time>2019-08-02T07:00:27Z</time>
      </trkpt>
      <trkpt lat="44.3376" lon="5.83382">
        <ele>601</ele>
        <time>2019-08-02T07:00:28Z</time>
      </trkpt>
      <trkpt lat="44.33764" lon="5.83382">
        <ele>601</ele>
        <time>2019-08-02T07:00:29Z</time>
      </trkpt>
      <trkpt lat="44.33769" lon="5.83383">
        <ele>601</ele>
        <time>2019-08-02T07:00:30Z</time>
      </trkpt>
      <trkpt lat="44.33773" lon="5.83384">
        <ele>601</ele>
        <time>2019-08-02T07:00:31Z</time>
      </trkpt>
      <trkpt lat="44.33778" lon="5.83385">
        <ele>601</ele>
        <time>2019-08-02T07:00:32Z</time>
      </trkpt>
      <trkpt lat="44.33783" lon="5.83386">
        <ele>601</ele>
        <time>2019-08-02T07:00:33Z</time>
      </trkpt>
      <trkpt lat="44.33787" lon="5.83387">
        <ele>601</ele>
        <time>2019-08-02T07:00:34Z</time>
      </trkpt>
      <trkpt lat="44.33792" lon="5.83388">
        <ele>601</ele>
        <time>2019-08-02T07:00:35Z</time>
      </trkpt>
      <trkpt lat="44.33797" lon="5.83389">
        <ele>601</ele>
        <time>2019-08-02T07:00:36Z</time>
      </trkpt>
      <trkpt lat="44.33801" lon="5.8339">
        <ele>601</ele>
        <time>2019-08-02T07:00:37Z</time>
      </trkpt>
      <trkpt lat="44.33806" lon="5.83391">
        <ele>602</ele>
        <time>2019-08-02T07:00:38Z</time>
      </trkpt>
      <trkpt lat="44.3381" lon="5.83391">
        <ele>602</ele>
        <time>2019-08-02T07:00:39Z</time>
      </trkpt>
      <trkpt lat="44.33815" lon="5.83392">
        <ele>602</ele>
        <time>2019-08-02T07:00:40Z</time>
      </trkpt>
      <trkpt lat="44.3382" lon="5.83393">
        <ele>602</ele>
        <time>2019-08-02T07:00:41Z</time>
      </trkpt>
      <trkpt lat="44.33824" lon="5.83394">
        <ele>602</ele>
        <time>2019-08-02T07:00:42Z</time>
      </trkpt>
      <trkpt lat="44.33829" lon="5.83395">
        <ele>602</ele>
        <time>2019-08-02T07:00:43Z</time>
      </trkpt>
      <trkpt lat="44.33834" lon="5.83396">
        <ele>602</ele>
        <time>2019-08-02T07:00:44Z</time>
      </trkpt>
      <trkpt lat="44.33839" lon="5.83398">
        <ele>602</ele>
        <time>2019-08-02T07:00:45Z</time>
      </trkpt>
      <trkpt lat="44.33843" lon="5.83399">
        <ele>602</ele>
        <time>2019-08-02T07:00:46Z</time>
      </trkpt>
      <trkpt lat="44.33848" lon="5.834">
        <ele>602</ele>
        <time>2019-08-02T07:00:47Z</time>
      </trkpt>
      <trkpt lat="44.33852" lon="5.83401">
        <ele>602</ele>
        <time>2019-08-02T07:00:48Z</time>
      </trkpt>
      <trkpt lat="44.33857" lon="5.83402">
        <ele>602</ele>
        <time>2019-08-02T07:00:49Z</time>
      </trkpt>
      <trkpt lat="44.33862" lon="5.83403">
        <ele>602</ele>
        <time>2019-08-02T07:00:50Z</time>
      </trkpt>
      <trkpt lat="44.33867" lon="5.83404">
        <ele>602</ele>
        <time>2019-08-02T07:00:51Z</time>
      </trkpt>
      <trkpt lat="44.33872" lon="5.83405">
        <ele>602</ele>
        <time>2019-08-02T07:00:52Z</time>
      </trkpt>
      <trkpt lat="44.33877" lon="5.83406">
        <ele>602</ele>
        <time>2019-08-02T07:00:53Z</time>
      </trkpt>
      <trkpt lat="44.33881" lon="5.83407">
        <ele>602</ele>
        <time>2019-08-02T07:00:54Z</time>
      </trkpt>
      <trkpt lat="44.33886" lon="5.83407">
        <ele>602</ele>
        <time>2019-08-02T07:00:55Z</time>
      </trkpt>
      <trkpt lat="44.33891" lon="5.83408">
        <ele>603</ele>
        <time>2019-08-02T07:00:56Z</time>
      </trkpt>
      <trkpt lat="44.33896" lon="5.8341">
        <ele>603</ele>
        <time>2019-08-02T07:00:57Z</time>
      </trkpt>
      <trkpt lat="44.33901" lon="5.83411">
        <ele>603</ele>
        <time>2019-08-02T07:00:58Z</time>
      </trkpt>
      <trkpt lat="44.33905" lon="5.83412">
        <ele>603</ele>
        <time>2019-08-02T07:00:59Z</time>
      </trkpt>
      <trkpt lat="44.3391" lon="5.83413">
        <ele>603</ele>
        <time>2019-08-02T07:01:00Z</time>
      </trkpt>
      <trkpt lat="44.33915" lon="5.83414">
        <ele>603</ele>
        <time>2019-08-02T07:01:01Z</time>
      </trkpt>
      <trkpt lat="44.3392" lon="5.83415">
        <ele>603</ele>
        <time>2019-08-02T07:01:02Z</time>
      </trkpt>
      <trkpt lat="44.33925" lon="5.83416">
        <ele>604</ele>
        <time>2019-08-02T07:01:03Z</time>
      </trkpt>
      <trkpt lat="44.33929" lon="5.83417">
        <ele>604</ele>
        <time>2019-08-02T07:01:04Z</time>
      </trkpt>
      <trkpt lat="44.33934" lon="5.83419">
        <ele>604</ele>
        <time>2019-08-02T07:01:05Z</time>
      </trkpt>
      <trkpt lat="44.33939" lon="5.8342">
        <ele>604</ele>
        <time>2019-08-02T07:01:06Z</time>
      </trkpt>
      <trkpt lat="44.33943" lon="5.83422">
        <ele>605</ele>
        <time>2019-08-02T07:01:07Z</time>
      </trkpt>
      <trkpt lat="44.33948" lon="5.83424">
        <ele>605</ele>
        <time>2019-08-02T07:01:08Z</time>
      </trkpt>
      <trkpt lat="44.33953" lon="5.83426">
        <ele>605</ele>
        <time>2019-08-02T07:01:09Z</time>
      </trkpt>
      <trkpt lat="44.33957" lon="5.83428">
        <ele>605</ele>
        <time>2019-08-02T07:01:10Z</time>
      </trkpt>
      <trkpt lat="44.33962" lon="5.83431">
        <ele>605</ele>
        <time>2019-08-02T07:01:11Z</time>
      </trkpt>
      <trkpt lat="44.33966" lon="5.83434">
        <ele>605</ele>
        <time>2019-08-02T07:01:12Z</time>
      </trkpt>
      <trkpt lat="44.33969" lon="5.83438">
        <ele>605</ele>
        <time>2019-08-02T07:01:13Z</time>
      </trkpt>
      <trkpt lat="44.33973" lon="5.83441">
        <ele>605</ele>
        <time>2019-08-02T07:01:14Z</time>
      </trkpt>
      <trkpt lat="44.33977" lon="5.83445">
        <ele>605</ele>
        <time>2019-08-02T07:01:15Z</time>
      </trkpt>
      <trkpt lat="44.33981" lon="5.83448">
        <ele>605</ele>
        <time>2019-08-02T07:01:16Z</time>
      </trkpt>
      <trkpt lat="44.33984" lon="5.83452">
        <ele>605</ele>
        <time>2019-08-02T07:01:17Z</time>
      </trkpt>
      <trkpt lat="44.33988" lon="5.83455">
        <ele>605</ele>
        <time>2019-08-02T07:01:18Z</time>
      </trkpt>
      <trkpt lat="44.33991" lon="5.83459">
        <ele>606</ele>
        <time>2019-08-02T07:01:19Z</time>
      </trkpt>
      <trkpt lat="44.33995" lon="5.83462">
        <ele>606</ele>
        <time>2019-08-02T07:01:20Z</time>
      </trkpt>
      <trkpt lat="44.33998" lon="5.83466">
        <ele>606</ele>
        <time>2019-08-02T07:01:21Z</time>
      </trkpt>
      <trkpt lat="44.34002" lon="5.83469">
        <ele>606</ele>
        <time>2019-08-02T07:01:22Z</time>
      </trkpt>
      <trkpt lat="44.34005" lon="5.83473">
        <ele>607</ele>
        <time>2019-08-02T07:01:23Z</time>
      </trkpt>
      <trkpt lat="44.34009" lon="5.83476">
        <ele>607</ele>
        <time>2019-08-02T07:01:24Z</time>
      </trkpt>
      <trkpt lat="44.34012" lon="5.8348">
        <ele>607</ele>
        <time>2019-08-02T07:01:25Z</time>
      </trkpt>
      <trkpt lat="44.34016" lon="5.83484">
        <ele>607</ele>
        <time>2019-08-02T07:01:26Z</time>
      </trkpt>
      <trkpt lat="44.34019" lon="5.83487">
        <ele>607</ele>
        <time>2019-08-02T07:01:27Z</time>
      </trkpt>
      <trkpt lat="44.34023" lon="5.83491">
        <ele>607</ele>
        <time>2019-08-02T07:01:28Z</time>
      </trkpt>
      <trkpt lat="44.34026" lon="5.83494">
        <ele>608</ele>
        <time>2019-08-02T07:01:29Z</time>
      </trkpt>
      <trkpt lat="44.34029" lon="5.83498">
        <ele>608</ele>
        <time>2019-08-02T07:01:30Z</time>
      </trkpt>
      <trkpt lat="44.34033" lon="5.83501">
        <ele>608</ele>
        <time>2019-08-02T07:01:31Z</time>
      </trkpt>
      <trkpt lat="44.34037" lon="5.83504">
        <ele>608</ele>
        <time>2019-08-02T07:01:32Z</time>
      </trkpt>
      <trkpt lat="44.3404" lon="5.83508">
        <ele>608</ele>
        <time>2019-08-02T07:01:33Z</time>
      </trkpt>
      <trkpt lat="44.34043" lon="5.83511">
        <ele>608</ele>
        <time>2019-08-02T07:01:34Z</time>
      </trkpt>
      <trkpt lat="44.34047" lon="5.83515">
        <ele>609</ele>
        <time>2019-08-02T07:01:35Z</time>
      </trkpt>
      <trkpt lat="44.3405" lon="5.83518">
        <ele>609</ele>
        <time>2019-08-02T07:01:36Z</time>
      </trkpt>
      <trkpt lat="44.34053" lon="5.83522">
        <ele>609</ele>
        <time>2019-08-02T07:01:37Z</time>
      </trkpt>
      <trkpt lat="44.34057" lon="5.83525">
        <ele>609</ele>
        <time>2019-08-02T07:01:38Z</time>
      </trkpt>
      <trkpt lat="44.3406" lon="5.83529">
        <ele>609</ele>
        <time>2019-08-02T07:01:39Z</time>
      </trkpt>
      <trkpt lat="44.34064" lon="5.83532">
        <ele>609</ele>
        <time>2019-08-02T07:01:40Z</time>
      </trkpt>
      <trkpt lat="44.34067" lon="5.83535">
        <ele>609</ele>
        <time>2019-08-02T07:01:41Z</time>
      </trkpt>
      <trkpt lat="44.34071" lon="5.83539">
        <ele>609</ele>
        <time>2019-08-02T07:01:42Z</time>
      </trkpt>
      <trkpt lat="44.34074" lon="5.83542">
        <ele>609</ele>
        <time>2019-08-02T07:01:43Z</time>
      </trkpt>
      <trkpt lat="44.34077" lon="5.83546">
        <ele>609</ele>
        <time>2019-08-02T07:01:44Z</time>
      </trkpt>
      <trkpt lat="44.34081" lon="5.83549">
        <ele>610</ele>
        <time>2019-08-02T07:01:45Z</time>
      </trkpt>
      <trkpt lat="44.34084" lon="5.83553">
        <ele>610</ele>
        <time>2019-08-02T07:01:46Z</time>
      </trkpt>
      <trkpt lat="44.34088" lon="5.83557">
        <ele>610</ele>
        <time>2019-08-02T07:01:47Z</time>
      </trkpt>
      <trkpt lat="44.34092" lon="5.8356">
        <ele>610</ele>
        <time>2019-08-02T07:01:48Z</time>
      </trkpt>
      <trkpt lat="44.34095" lon="5.83564">
        <ele>610</ele>
        <time>2019-08-02T07:01:49Z</time>
      </trkpt>
      <trkpt lat="44.34099" lon="5.83567">
        <ele>610</ele>
        <time>2019-08-02T07:01:50Z</time>
      </trkpt>
      <trkpt lat="44.34103" lon="5.83571">
        <ele>611</ele>
        <time>2019-08-02T07:01:51Z</time>
      </trkpt>
      <trkpt lat="44.34107" lon="5.83575">
        <ele>611</ele>
        <time>2019-08-02T07:01:52Z</time>
      </trkpt>
      <trkpt lat="44.34111" lon="5.83579">
        <ele>611</ele>
        <time>2019-08-02T07:01:53Z</time>
      </trkpt>
      <trkpt lat="44.34114" lon="5.83583">
        <ele>611</ele>
        <time>2019-08-02T07:01:54Z</time>
      </trkpt>
      <trkpt lat="44.34119" lon="5.83587">
        <ele>611</ele>
        <time>2019-08-02T07:01:55Z</time>
      </trkpt>
      <trkpt lat="44.34122" lon="5.83591">
        <ele>611</ele>
        <time>2019-08-02T07:01:56Z</time>
      </trkpt>
      <trkpt lat="44.34127" lon="5.83595">
        <ele>611</ele>
        <time>2019-08-02T07:01:57Z</time>
      </trkpt>
      <trkpt lat="44.34131" lon="5.836">
        <ele>611</ele>
        <time>2019-08-02T07:01:58Z</time>
      </trkpt>
      <trkpt lat="44.34136" lon="5.83604">
        <ele>611</ele>
        <time>2019-08-02T07:01:59Z</time>
      </trkpt>
      <trkpt lat="44.3414" lon="5.83609">
        <ele>611</ele>
        <time>2019-08-02T07:02:00Z</time>
      </trkpt>
      <trkpt lat="44.34145" lon="5.83613">
        <ele>611</ele>
        <time>2019-08-02T07:02:01Z</time>
      </trkpt>
      <trkpt lat="44.3415" lon="5.83618">
        <ele>611</ele>
        <time>2019-08-02T07:02:02Z</time>
      </trkpt>
      <trkpt lat="44.34155" lon="5.83623">
        <ele>611</ele>
        <time>2019-08-02T07:02:03Z</time>
      </trkpt>
      <trkpt lat="44.34159" lon="5.83628">
        <ele>611</ele>
        <time>2019-08-02T07:02:04Z</time>
      </trkpt>
      <trkpt lat="44.34164" lon="5.83633">
        <ele>611</ele>
        <time>2019-08-02T07:02:05Z</time>
      </trkpt>
      <trkpt lat="44.3417" lon="5.83638">
        <ele>611</ele>
        <time>2019-08-02T07:02:06Z</time>
      </trkpt>
      <trkpt lat="44.34175" lon="5.83643">
        <ele>611</ele>
        <time>2019-08-02T07:02:07Z</time>
      </trkpt>
      <trkpt lat="44.3418" lon="5.83648">
        <ele>611</ele>
        <time>2019-08-02T07:02:08Z</time>
      </trkpt>
      <trkpt lat="44.34185" lon="5.83653">
        <ele>611</ele>
        <time>2019-08-02T07:02:09Z</time>
      </trkpt>
      <trkpt lat="44.3419" lon="5.83658">
        <ele>611</ele>
        <time>2019-08-02T07:02:10Z</time>
      </trkpt>
      <trkpt lat="44.34195" lon="5.83663">
        <ele>611</ele>
        <time>2019-08-02T07:02:11Z</time>
      </trkpt>
      <trkpt lat="44.34199" lon="5.83668">
        <ele>611</ele>
        <time>2019-08-02T07:02:12Z</time>
      </trkpt>
      <trkpt lat="44.34203" lon="5.83674">
        <ele>611</ele>
        <time>2019-08-02T07:02:13Z</time>
      </trkpt>
      <trkpt lat="44.34208" lon="5.83679">
        <ele>611</ele>
        <time>2019-08-02T07:02:14Z</time>
      </trkpt>
      <trkpt lat="44.34211" lon="5.83684">
        <ele>611</ele>
        <time>2019-08-02T07:02:15Z</time>
      </trkpt>
      <trkpt lat="44.34216" lon="5.83689">
        <ele>611</ele>
        <time>2019-08-02T07:02:16Z</time>
      </trkpt>
      <trkpt lat="44.34219" lon="5.83695">
        <ele>611</ele>
        <time>2019-08-02T07:02:17Z</time>
      </trkpt>
      <trkpt lat="44.34223" lon="5.837">
        <ele>611</ele>
        <time>2019-08-02T07:02:18Z</time>
      </trkpt>
      <trkpt lat="44.34227" lon="5.83704">
        <ele>611</ele>
        <time>2019-08-02T07:02:19Z</time>
      </trkpt>
      <trkpt lat="44.34231" lon="5.83709">
        <ele>611</ele>
        <time>2019-08-02T07:02:20Z</time>
      </trkpt>
      <trkpt lat="44.34234" lon="5.83714">
        <ele>611</ele>
        <time>2019-08-02T07:02:21Z</time>
      </trkpt>
      <trkpt lat="44.34238" lon="5.83719">
        <ele>611</ele>
        <time>2019-08-02T07:02:22Z</time>
      </trkpt>
      <trkpt lat="44.34242" lon="5.83723">
        <ele>611</ele>
        <time>2019-08-02T07:02:23Z</time>
      </trkpt>
      <trkpt lat="44.34246" lon="5.83728">
        <ele>611</ele>
        <time>2019-08-02T07:02:24Z</time>
      </trkpt>
      <trkpt lat="44.34249" lon="5.83733">
        <ele>611</ele>
        <time>2019-08-02T07:02:25Z</time>
      </trkpt>
      <trkpt lat="44.34253" lon="5.83738">
        <ele>611</ele>
        <time>2019-08-02T07:02:26Z</time>
      </trkpt>
      <trkpt lat="44.34257" lon="5.83743">
        <ele>611</ele>
        <time>2019-08-02T07:02:27Z</time>
      </trkpt>
      <trkpt lat="44.3426" lon="5.83747">
        <ele>611</ele>
        <time>2019-08-02T07:02:28Z</time>
      </trkpt>
      <trkpt lat="44.34264" lon="5.83752">
        <ele>611</ele>
        <time>2019-08-02T07:02:29Z</time>
      </trkpt>
      <trkpt lat="44.34267" lon="5.83756">
        <ele>611</ele>
        <time>2019-08-02T07:02:30Z</time>
      </trkpt>
      <trkpt lat="44.34271" lon="5.83761">
        <ele>611</ele>
        <time>2019-08-02T07:02:31Z</time>
      </trkpt>
      <trkpt lat="44.34275" lon="5.83766">
        <ele>611</ele>
        <time>2019-08-02T07:02:32Z</time>
      </trkpt>
      <trkpt lat="44.34278" lon="5.8377">
        <ele>611</ele>
        <time>2019-08-02T07:02:33Z</time>
      </trkpt>
      <trkpt lat="44.34282" lon="5.83775">
        <ele>611</ele>
        <time>2019-08-02T07:02:34Z</time>
      </trkpt>
      <trkpt lat="44.34285" lon="5.83779">
        <ele>611</ele>
        <time>2019-08-02T07:02:35Z</time>
      </trkpt>
      <trkpt lat="44.34288" lon="5.83784">
        <ele>611</ele>
        <time>2019-08-02T07:02:36Z</time>
      </trkpt>
      <trkpt lat="44.34292" lon="5.83788">
        <ele>611</ele>
        <time>2019-08-02T07:02:37Z</time>
      </trkpt>
      <trkpt lat="44.34296" lon="5.83793">
        <ele>611</ele>
        <time>2019-08-02T07:02:38Z</time>
      </trkpt>
      <trkpt lat="44.34299" lon="5.83797">
        <ele>611</ele>
        <time>2019-08-02T07:02:39Z</time>
      </trkpt>
      <trkpt lat="44.34303" lon="5.83802">
        <ele>611</ele>
        <time>2019-08-02T07:02:40Z</time>
      </trkpt>
      <trkpt lat="44.34306" lon="5.83806">
        <ele>611</ele>
        <time>2019-08-02T07:02:41Z</time>
      </trkpt>
      <trkpt lat="44.34309" lon="5.83811">
        <ele>611</ele>
        <time>2019-08-02T07:02:42Z</time>
      </trkpt>
      <trkpt lat="44.34313" lon="5.83815">
        <ele>612</ele>
        <time>2019-08-02T07:02:43Z</time>
      </trkpt>
      <trkpt lat="44.34316" lon="5.8382">
        <ele>612</ele>
        <time>2019-08-02T07:02:44Z</time>
      </trkpt>
      <trkpt lat="44.3432" lon="5.83824">
        <ele>612</ele>
        <time>2019-08-02T07:02:45Z</time>
      </trkpt>
      <trkpt lat="44.34323" lon="5.83829">
        <ele>612</ele>
        <time>2019-08-02T07:02:46Z</time>
      </trkpt>
      <trkpt lat="44.34327" lon="5.83834">
        <ele>612</ele>
        <time>2019-08-02T07:02:47Z</time>
      </trkpt>
      <trkpt lat="44.3433" lon="5.83838">
        <ele>612</ele>
        <time>2019-08-02T07:02:48Z</time>
      </trkpt>
      <trkpt lat="44.34334" lon="5.83843">
        <ele>612</ele>
        <time>2019-08-02T07:02:49Z</time>
      </trkpt>
      <trkpt lat="44.34337" lon="5.83847">
        <ele>612</ele>
        <time>2019-08-02T07:02:50Z</time>
      </trkpt>
      <trkpt lat="44.34341" lon="5.83852">
        <ele>613</ele>
        <time>2019-08-02T07:02:51Z</time>
      </trkpt>
      <trkpt lat="44.34344" lon="5.83856">
        <ele>613</ele>
        <time>2019-08-02T07:02:52Z</time>
      </trkpt>
      <trkpt lat="44.34348" lon="5.83861">
        <ele>613</ele>
        <time>2019-08-02T07:02:53Z</time>
      </trkpt>
      <trkpt lat="44.34351" lon="5.83865">
        <ele>613</ele>
        <time>2019-08-02T07:02:54Z</time>
      </trkpt>
      <trkpt lat="44.34355" lon="5.8387">
        <ele>613</ele>
        <time>2019-08-02T07:02:55Z</time>
      </trkpt>
      <trkpt lat="44.34358" lon="5.83874">
        <ele>613</ele>
        <time>2019-08-02T07:02:56Z</time>
      </trkpt>
      <trkpt lat="44.34362" lon="5.83879">
        <ele>613</ele>
        <time>2019-08-02T07:02:57Z</time>
      </trkpt>
      <trkpt lat="44.34365" lon="5.83883">
        <ele>613</ele>
        <time>2019-08-02T07:02:58Z</time>
      </trkpt>
      <trkpt lat="44.34369" lon="5.83887">
        <ele>614</ele>
        <time>2019-08-02T07:02:59Z</time>
      </trkpt>
      <trkpt lat="44.34372" lon="5.83892">
        <ele>614</ele>
        <time>2019-08-02T07:03:00Z</time>
      </trkpt>
      <trkpt lat="44.34376" lon="5.83896">
        <ele>614</ele>
        <time>2019-08-02T07:03:01Z</time>
      </trkpt>
      <trkpt lat="44.34379" lon="5.83901">
        <ele>614</ele>
        <time>2019-08-02T07:03:02Z</time>
      </trkpt>
      <trkpt lat="44.34383" lon="5.83905">
        <ele>614</ele>
        <time>2019-08-02T07:03:03Z</time>
      </trkpt>
      <trkpt lat="44.34386" lon="5.8391">
        <ele>614</ele>
        <time>2019-08-02T07:03:04Z</time>
      </trkpt>
      <trkpt lat="44.3439" lon="5.83915">
        <ele>614</ele>
        <time>2019-08-02T07:03:05Z</time>
      </trkpt>
      <trkpt lat="44.34393" lon="5.83919">
        <ele>614</ele>
        <time>2019-08-02T07:03:06Z</time>
      </trkpt>
      <trkpt lat="44.34397" lon="5.83923">
        <ele>614</ele>
        <time>2019-08-02T07:03:07Z</time>
      </trkpt>
      <trkpt lat="44.34401" lon="5.83928">
        <ele>614</ele>
        <time>2019-08-02T07:03:08Z</time>
      </trkpt>
      <trkpt lat="44.34404" lon="5.83932">
        <ele>615</ele>
        <time>2019-08-02T07:03:09Z</time>
      </trkpt>
      <trkpt lat="44.34408" lon="5.83937">
        <ele>615</ele>
        <time>2019-08-02T07:03:10Z</time>
      </trkpt>
      <trkpt lat="44.34411" lon="5.83942">
        <ele>615</ele>
        <time>2019-08-02T07:03:11Z</time>
      </trkpt>
      <trkpt lat="44.34415" lon="5.83947">
        <ele>615</ele>
        <time>2019-08-02T07:03:12Z</time>
      </trkpt>
      <trkpt lat="44.34419" lon="5.83952">
        <ele>615</ele>
        <time>2019-08-02T07:03:13Z</time>
      </trkpt>
      <trkpt lat="44.34422" lon="5.83956">
        <ele>615</ele>
        <time>2019-08-02T07:03:14Z</time>
      </trkpt>
      <trkpt lat="44.34426" lon="5.83961">
        <ele>615</ele>
        <time>2019-08-02T07:03:15Z</time>
      </trkpt>
      <trkpt lat="44.3443" lon="5.83966">
        <ele>615</ele>
        <time>2019-08-02T07:03:16Z</time>
      </trkpt>
      <trkpt lat="44.34433" lon="5.8397">
        <ele>615</ele>
        <time>2019-08-02T07:03:17Z</time>
      </trkpt>
      <trkpt lat="44.34437" lon="5.83976">
        <ele>615</ele>
        <time>2019-08-02T07:03:18Z</time>
      </trkpt>
      <trkpt lat="44.34441" lon="5.8398">
        <ele>615</ele>
        <time>2019-08-02T07:03:19Z</time>
      </trkpt>
      <trkpt lat="44.34445" lon="5.83985">
        <ele>615</ele>
        <time>2019-08-02T07:03:20Z</time>
      </trkpt>
      <trkpt lat="44.34449" lon="5.8399">
        <ele>615</ele>
        <time>2019-08-02T07:03:21Z</time>
      </trkpt>
      <trkpt lat="44.34452" lon="5.83995">
        <ele>615</ele>
        <time>2019-08-02T07:03:22Z</time>
      </trkpt>
      <trkpt lat="44.34457" lon="5.84">
        <ele>615</ele>
        <time>2019-08-02T07:03:23Z</time>
      </trkpt>
      <trkpt lat="44.3446" lon="5.84005">
        <ele>615</ele>
        <time>2019-08-02T07:03:24Z</time>
      </trkpt>
      <trkpt lat="44.34464" lon="5.8401">
        <ele>615</ele>
        <time>2019-08-02T07:03:25Z</time>
      </trkpt>
      <trkpt lat="44.34468" lon="5.84015">
        <ele>615</ele>
        <time>2019-08-02T07:03:26Z</time>
      </trkpt>
      <trkpt lat="44.34472" lon="5.84021">
        <ele>615</ele>
        <time>2019-08-02T07:03:27Z</time>
      </trkpt>
      <trkpt lat="44.34476" lon="5.84026">
        <ele>615</ele>
        <time>2019-08-02T07:03:28Z</time>
      </trkpt>
      <trkpt lat="44.3448" lon="5.84031">
        <ele>615</ele>
        <time>2019-08-02T07:03:29Z</time>
      </trkpt>
      <trkpt lat="44.34484" lon="5.84036">
        <ele>615</ele>
        <time>2019-08-02T07:03:30Z</time>
      </trkpt>
      <trkpt lat="44.34489" lon="5.84042">
        <ele>615</ele>
        <time>2019-08-02T07:03:31Z</time>
      </trkpt>
      <trkpt lat="44.34493" lon="5.84047">
        <ele>615</ele>
        <time>2019-08-02T07:03:32Z</time>
      </trkpt>
      <trkpt lat="44.34497" lon="5.84053">
        <ele>615</ele>
        <time>2019-08-02T07:03:33Z</time>
      </trkpt>
      <trkpt lat="44.34501" lon="5.84058">
        <ele>615</ele>
        <time>2019-08-02T07:03:34Z</time>
      </trkpt>
      <trkpt lat="44.34505" lon="5.84064">
        <ele>615</ele>
        <time>2019-08-02T07:03:35Z</time>
      </trkpt>
      <trkpt lat="44.3451" lon="5.84069">
        <ele>615</ele>
        <time>2019-08-02T07:03:36Z</time>
      </trkpt>
      <trkpt lat="44.34514" lon="5.84075">
        <ele>615</ele>
        <time>2019-08-02T07:03:37Z</time>
      </trkpt>
      <trkpt lat="44.34519" lon="5.8408">
        <ele>615</ele>
        <time>2019-08-02T07:03:38Z</time>
      </trkpt>
      <trkpt lat="44.34523" lon="5.84086">
        <ele>615</ele>
        <time>2019-08-02T07:03:39Z</time>
      </trkpt>
      <trkpt lat="44.34527" lon="5.84091">
        <ele>615</ele>
        <time>2019-08-02T07:03:40Z</time>
      </trkpt>
      <trkpt lat="44.34531" lon="5.84097">
        <ele>616</ele>
        <time>2019-08-02T07:03:41Z</time>
      </trkpt>
      <trkpt lat="44.34536" lon="5.84102">
        <ele>616</ele>
        <time>2019-08-02T07:03:42Z</time>
      </trkpt>
      <trkpt lat="44.3454" lon="5.84108">
        <ele>616</ele>
        <time>2019-08-02T07:03:43Z</time>
      </trkpt>
      <trkpt lat="44.34544" lon="5.84114">
        <ele>616</ele>
        <time>2019-08-02T07:03:44Z</time>
      </trkpt>
      <trkpt lat="44.34549" lon="5.84119">
        <ele>616</ele>
        <time>2019-08-02T07:03:45Z</time>
      </trkpt>
      <trkpt lat="44.34553" lon="5.84125">
        <ele>616</ele>
        <time>2019-08-02T07:03:46Z</time>
      </trkpt>
      <trkpt lat="44.34557" lon="5.84131">
        <ele>616</ele>
        <time>2019-08-02T07:03:47Z</time>
      </trkpt>
      <trkpt lat="44.34561" lon="5.84137">
        <ele>616</ele>
        <time>2019-08-02T07:03:48Z</time>
      </trkpt>
      <trkpt lat="44.34565" lon="5.84143">
        <ele>616</ele>
        <time>2019-08-02T07:03:49Z</time>
      </trkpt>
      <trkpt lat="44.3457" lon="5.84149">
        <ele>616</ele>
        <time>2019-08-02T07:03:50Z</time>
      </trkpt>
      <trkpt lat="44.34574" lon="5.84154">
        <ele>616</ele>
        <time>2019-08-02T07:03:51Z</time>
      </trkpt>
      <trkpt lat="44.34578" lon="5.8416">
        <ele>616</ele>
        <time>2019-08-02T07:03:52Z</time>
      </trkpt>
      <trkpt lat="44.34583" lon="5.84166">
        <ele>616</ele>
        <time>2019-08-02T07:03:53Z</time>
      </trkpt>
      <trkpt lat="44.34587" lon="5.84172">
        <ele>616</ele>
        <time>2019-08-02T07:03:54Z</time>
      </trkpt>
      <trkpt lat="44.34591" lon="5.84179">
        <ele>616</ele>
        <time>2019-08-02T07:03:55Z</time>
      </trkpt>
      <trkpt lat="44.34594" lon="5.84185">
        <ele>616</ele>
        <time>2019-08-02T07:03:56Z</time>
      </trkpt>
      <trkpt lat="44.34598" lon="5.84192">
        <ele>616</ele>
        <time>2019-08-02T07:03:57Z</time>
      </trkpt>
      <trkpt lat="44.34601" lon="5.84198">
        <ele>616</ele>
        <time>2019-08-02T07:03:58Z</time>
      </trkpt>
      <trkpt lat="44.34604" lon="5.84205">
        <ele>616</ele>
        <time>2019-08-02T07:03:59Z</time>
      </trkpt>
      <trkpt lat="44.34607" lon="5.84212">
        <ele>616</ele>
        <time>2019-08-02T07:04:00Z</time>
      </trkpt>
      <trkpt lat="44.34609" lon="5.84219">
        <ele>616</ele>
        <time>2019-08-02T07:04:01Z</time>
      </trkpt>
      <trkpt lat="44.34612" lon="5.84227">
        <ele>616</ele>
        <time>2019-08-02T07:04:02Z</time>
      </trkpt>
      <trkpt lat="44.34614" lon="5.84234">
        <ele>616</ele>
        <time>2019-08-02T07:04:03Z</time>
      </trkpt>
      <trkpt lat="44.34616" lon="5.84241">
        <ele>616</ele>
        <time>2019-08-02T07:04:04Z</time>
      </trkpt>
      <trkpt lat="44.34618" lon="5.84248">
        <ele>616</ele>
        <time>2019-08-02T07:04:05Z</time>
      </trkpt>
      <trkpt lat="44.3462" lon="5.84255">
        <ele>616</ele>
        <time>2019-08-02T07:04:06Z</time>
      </trkpt>
      <trkpt lat="44.34622" lon="5.84262">
        <ele>616</ele>
        <time>2019-08-02T07:04:07Z</time>
      </trkpt>
      <trkpt lat="44.34623" lon="5.8427">
        <ele>617</ele>
        <time>2019-08-02T07:04:08Z</time>
      </trkpt>
      <trkpt lat="44.34625" lon="5.84277">
        <ele>617</ele>
        <time>2019-08-02T07:04:09Z</time>
      </trkpt>
      <trkpt lat="44.34626" lon="5.84284">
        <ele>617</ele>
        <time>2019-08-02T07:04:10Z</time>
      </trkpt>
      <trkpt lat="44.34628" lon="5.84292">
        <ele>617</ele>
        <time>2019-08-02T07:04:11Z</time>
      </trkpt>
      <trkpt lat="44.34629" lon="5.84299">
        <ele>617</ele>
        <time>2019-08-02T07:04:12Z</time>
      </trkpt>
      <trkpt lat="44.3463" lon="5.84306">
        <ele>617</ele>
        <time>2019-08-02T07:04:13Z</time>
      </trkpt>
      <trkpt lat="44.34631" lon="5.84313">
        <ele>617</ele>
        <time>2019-08-02T07:04:14Z</time>
      </trkpt>
      <trkpt lat="44.34633" lon="5.84321">
        <ele>617</ele>
        <time>2019-08-02T07:04:15Z</time>
      </trkpt>
      <trkpt lat="44.34634" lon="5.84328">
        <ele>617</ele>
        <time>2019-08-02T07:04:16Z</time>
      </trkpt>
      <trkpt lat="44.34636" lon="5.84335">
        <ele>618</ele>
        <time>2019-08-02T07:04:17Z</time>
      </trkpt>
      <trkpt lat="44.34638" lon="5.84342">
        <ele>618</ele>
        <time>2019-08-02T07:04:18Z</time>
      </trkpt>
      <trkpt lat="44.3464" lon="5.84349">
        <ele>618</ele>
        <time>2019-08-02T07:04:19Z</time>
      </trkpt>
      <trkpt lat="44.34642" lon="5.84355">
        <ele>618</ele>
        <time>2019-08-02T07:04:20Z</time>
      </trkpt>
      <trkpt lat="44.34644" lon="5.84362">
        <ele>619</ele>
        <time>2019-08-02T07:04:21Z</time>
      </trkpt>
      <trkpt lat="44.34646" lon="5.84368">
        <ele>619</ele>
        <time>2019-08-02T07:04:22Z</time>
      </trkpt>
      <trkpt lat="44.34649" lon="5.84375">
        <ele>619</ele>
        <time>2019-08-02T07:04:23Z</time>
      </trkpt>
      <trkpt lat="44.34651" lon="5.84381">
        <ele>619</ele>
        <time>2019-08-02T07:04:24Z</time>
      </trkpt>
      <trkpt lat="44.34654" lon="5.84387">
        <ele>619</ele>
        <time>2019-08-02T07:04:25Z</time>
      </trkpt>
      <trkpt lat="44.34657" lon="5.84393">
        <ele>619</ele>
        <time>2019-08-02T07:04:26Z</time>
      </trkpt>
      <trkpt lat="44.3466" lon="5.84399">
        <ele>620</ele>
        <time>2019-08-02T07:04:27Z</time>
      </trkpt>
      <trkpt lat="44.34663" lon="5.84405">
        <ele>620</ele>
        <time>2019-08-02T07:04:28Z</time>
      </trkpt>
      <trkpt lat="44.34666" lon="5.8441">
        <ele>620</ele>
        <time>2019-08-02T07:04:29Z</time>
      </trkpt>
      <trkpt lat="44.34669" lon="5.84416">
        <ele>620</ele>
        <time>2019-08-02T07:04:30Z</time>
      </trkpt>
      <trkpt lat="44.34672" lon="5.84421">
        <ele>620</ele>
        <time>2019-08-02T07:04:31Z</time>
      </trkpt>
      <trkpt lat="44.34676" lon="5.84426">
        <ele>620</ele>
        <time>2019-08-02T07:04:32Z</time>
      </trkpt>
      <trkpt lat="44.34679" lon="5.84432">
        <ele>620</ele>
        <time>2019-08-02T07:04:33Z</time>
      </trkpt>
      <trkpt lat="44.34682" lon="5.84436">
        <ele>621</ele>
        <time>2019-08-02T07:04:34Z</time>
      </trkpt>
      <trkpt lat="44.34686" lon="5.84441">
        <ele>621</ele>
        <time>2019-08-02T07:04:35Z</time>
      </trkpt>
      <trkpt lat="44.34689" lon="5.84445">
        <ele>621</ele>
        <time>2019-08-02T07:04:36Z</time>
      </trkpt>
      <trkpt lat="44.34693" lon="5.8445">
        <ele>621</ele>
        <time>2019-08-02T07:04:37Z</time>
      </trkpt>
      <trkpt lat="44.34697" lon="5.84454">
        <ele>621</ele>
        <time>2019-08-02T07:04:38Z</time>
      </trkpt>
      <trkpt lat="44.34701" lon="5.84458">
        <ele>621</ele>
        <time>2019-08-02T07:04:39Z</time>
      </trkpt>
      <trkpt lat="44.34704" lon="5.84462">
        <ele>621</ele>
        <time>2019-08-02T07:04:40Z</time>
      </trkpt>
      <trkpt lat="44.34708" lon="5.84467">
        <ele>622</ele>
        <time>2019-08-02T07:04:41Z</time>
      </trkpt>
      <trkpt lat="44.34712" lon="5.84471">
        <ele>622</ele>
        <time>2019-08-02T07:04:42Z</time>
      </trkpt>
      <trkpt lat="44.34716" lon="5.84475">
        <ele>622</ele>
        <time>2019-08-02T07:04:43Z</time>
      </trkpt>
      <trkpt lat="44.34719" lon="5.8448">
        <ele>622</ele>
        <time>2019-08-02T07:04:44Z</time>
      </trkpt>
      <trkpt lat="44.34723" lon="5.84484">
        <ele>622</ele>
        <time>2019-08-02T07:04:45Z</time>
      </trkpt>
      <trkpt lat="44.34727" lon="5.84489">
        <ele>622</ele>
        <time>2019-08-02T07:04:46Z</time>
      </trkpt>
      <trkpt lat="44.3473" lon="5.84493">
        <ele>622</ele>
        <time>2019-08-02T07:04:47Z</time>
      </trkpt>
      <trkpt lat="44.34734" lon="5.84497">
        <ele>622</ele>
        <time>2019-08-02T07:04:48Z</time>
      </trkpt>
      <trkpt lat="44.34738" lon="5.84502">
        <ele>622</ele>
        <time>2019-08-02T07:04:49Z</time>
      </trkpt>
      <trkpt lat="44.34742" lon="5.84506">
        <ele>622</ele>
        <time>2019-08-02T07:04:50Z</time>
      </trkpt>
      <trkpt lat="44.34746" lon="5.84511">
        <ele>622</ele>
        <time>2019-08-02T07:04:51Z</time>
      </trkpt>
      <trkpt lat="44.34749" lon="5.84515">
        <ele>622</ele>
        <time>2019-08-02T07:04:52Z</time>
      </trkpt>
      <trkpt lat="44.34753" lon="5.8452">
        <ele>623</ele>
        <time>2019-08-02T07:04:53Z</time>
      </trkpt>
      <trkpt lat="44.34757" lon="5.84524">
        <ele>623</ele>
        <time>2019-08-02T07:04:54Z</time>
      </trkpt>
      <trkpt lat="44.34761" lon="5.84529">
        <ele>623</ele>
        <time>2019-08-02T07:04:55Z</time>
      </trkpt>
      <trkpt lat="44.34765" lon="5.84534">
        <ele>623</ele>
        <time>2019-08-02T07:04:56Z</time>
      </trkpt>
      <trkpt lat="44.34769" lon="5.84538">
        <ele>623</ele>
        <time>2019-08-02T07:04:57Z</time>
      </trkpt>
      <trkpt lat="44.34772" lon="5.84542">
        <ele>623</ele>
        <time>2019-08-02T07:04:58Z</time>
      </trkpt>
      <trkpt lat="44.34776" lon="5.84547">
        <ele>623</ele>
        <time>2019-08-02T07:04:59Z</time>
      </trkpt>
      <trkpt lat="44.3478" lon="5.84551">
        <ele>623</ele>
        <time>2019-08-02T07:05:00Z</time>
      </trkpt>
      <trkpt lat="44.34784" lon="5.84555">
        <ele>623</ele>
        <time>2019-08-02T07:05:01Z</time>
      </trkpt>
      <trkpt lat="44.34788" lon="5.8456">
        <ele>623</ele>
        <time>2019-08-02T07:05:02Z</time>
      </trkpt>
      <trkpt lat="44.34792" lon="5.84564">
        <ele>623</ele>
        <time>2019-08-02T07:05:03Z</time>
      </trkpt>
      <trkpt lat="44.34795" lon="5.84569">
        <ele>623</ele>
        <time>2019-08-02T07:05:04Z</time>
      </trkpt>
      <trkpt lat="44.34799" lon="5.84573">
        <ele>624</ele>
        <time>2019-08-02T07:05:05Z</time>
      </trkpt>
      <trkpt lat="44.34803" lon="5.84578">
        <ele>624</ele>
        <time>2019-08-02T07:05:06Z</time>
      </trkpt>
      <trkpt lat="44.34807" lon="5.84582">
        <ele>624</ele>
        <time>2019-08-02T07:05:07Z</time>
      </trkpt>
      <trkpt lat="44.34811" lon="5.84586">
        <ele>624</ele>
        <time>2019-08-02T07:05:08Z</time>
      </trkpt>
      <trkpt lat="44.34814" lon="5.84591">
        <ele>625</ele>
        <time>2019-08-02T07:05:09Z</time>
      </trkpt>
      <trkpt lat="44.34818" lon="5.84596">
        <ele>625</ele>
        <time>2019-08-02T07:05:10Z</time>
      </trkpt>
      <trkpt lat="44.34822" lon="5.84601">
        <ele>625</ele>
        <time>2019-08-02T07:05:11Z</time>
      </trkpt>
      <trkpt lat="44.34826" lon="5.84606">
        <ele>625</ele>
        <time>2019-08-02T07:05:12Z</time>
      </trkpt>
      <trkpt lat="44.34829" lon="5.84611">
        <ele>625</ele>
        <time>2019-08-02T07:05:13Z</time>
      </trkpt>
      <trkpt lat="44.34833" lon="5.84616">
        <ele>625</ele>
        <time>2019-08-02T07:05:14Z</time>
      </trkpt>
      <trkpt lat="44.34837" lon="5.84621">
        <ele>625</ele>
        <time>2019-08-02T07:05:15Z</time>
      </trkpt>
      <trkpt lat="44.3484" lon="5.84626">
        <ele>625</ele>
        <time>2019-08-02T07:05:16Z</time>
      </trkpt>
      <trkpt lat="44.34844" lon="5.84631">
        <ele>625</ele>
        <time>2019-08-02T07:05:17Z</time>
      </trkpt>
      <trkpt lat="44.34847" lon="5.84637">
        <ele>626</ele>
        <time>2019-08-02T07:05:18Z</time>
      </trkpt>
      <trkpt lat="44.34851" lon="5.84643">
        <ele>626</ele>
        <time>2019-08-02T07:05:19Z</time>
      </trkpt>
      <trkpt lat="44.34854" lon="5.84648">
        <ele>626</ele>
        <time>2019-08-02T07:05:20Z</time>
      </trkpt>
      <trkpt lat="44.34857" lon="5.84654">
        <ele>626</ele>
        <time>2019-08-02T07:05:21Z</time>
      </trkpt>
      <trkpt lat="44.34861" lon="5.84659">
        <ele>626</ele>
        <time>2019-08-02T07:05:22Z</time>
      </trkpt>
      <trkpt lat="44.34864" lon="5.84665">
        <ele>626</ele>
        <time>2019-08-02T07:05:23Z</time>
      </trkpt>
      <trkpt lat="44.34867" lon="5.84671">
        <ele>626</ele>
        <time>2019-08-02T07:05:24Z</time>
      </trkpt>
      <trkpt lat="44.3487" lon="5.84677">
        <ele>626</ele>
        <time>2019-08-02T07:05:25Z</time>
      </trkpt>
      <trkpt lat="44.34874" lon="5.84682">
        <ele>627</ele>
        <time>2019-08-02T07:05:26Z</time>
      </trkpt>
      <trkpt lat="44.34877" lon="5.84687">
        <ele>627</ele>
        <time>2019-08-02T07:05:27Z</time>
      </trkpt>
      <trkpt lat="44.3488" lon="5.84693">
        <ele>627</ele>
        <time>2019-08-02T07:05:28Z</time>
      </trkpt>
      <trkpt lat="44.34883" lon="5.84698">
        <ele>627</ele>
        <time>2019-08-02T07:05:29Z</time>
      </trkpt>
      <trkpt lat="44.34886" lon="5.84704">
        <ele>627</ele>
        <time>2019-08-02T07:05:30Z</time>
      </trkpt>
      <trkpt lat="44.34889" lon="5.84709">
        <ele>627</ele>
        <time>2019-08-02T07:05:31Z</time>
      </trkpt>
      <trkpt lat="44.34893" lon="5.84714">
        <ele>627</ele>
        <time>2019-08-02T07:05:32Z</time>
      </trkpt>
      <trkpt lat="44.34896" lon="5.84719">
        <ele>628</ele>
        <time>2019-08-02T07:05:33Z</time>
      </trkpt>
      <trkpt lat="44.349" lon="5.84724">
        <ele>628</ele>
        <time>2019-08-02T07:05:34Z</time>
      </trkpt>
      <trkpt lat="44.34904" lon="5.84729">
        <ele>628</ele>
        <time>2019-08-02T07:05:35Z</time>
      </trkpt>
      <trkpt lat="44.34908" lon="5.84734">
        <ele>628</ele>
        <time>2019-08-02T07:05:36Z</time>
      </trkpt>
      <trkpt lat="44.34912" lon="5.84738">
        <ele>628</ele>
        <time>2019-08-02T07:05:37Z</time>
      </trkpt>
      <trkpt lat="44.34916" lon="5.84743">
        <ele>628</ele>
        <time>2019-08-02T07:05:38Z</time>
      </trkpt>
      <trkpt lat="44.3492" lon="5.84747">
        <ele>628</ele>
        <time>2019-08-02T07:05:39Z</time>
      </trkpt>
      <trkpt lat="44.34924" lon="5.84751">
        <ele>628</ele>
        <time>2019-08-02T07:05:40Z</time>
      </trkpt>
      <trkpt lat="44.34929" lon="5.84755">
        <ele>628</ele>
        <time>2019-08-02T07:05:41Z</time>
      </trkpt>
      <trkpt lat="44.34933" lon="5.84759">
        <ele>628</ele>
        <time>2019-08-02T07:05:42Z</time>
      </trkpt>
      <trkpt lat="44.34938" lon="5.84763">
        <ele>628</ele>
        <time>2019-08-02T07:05:43Z</time>
      </trkpt>
      <trkpt lat="44.34942" lon="5.84767">
        <ele>628</ele>
        <time>2019-08-02T07:05:44Z</time>
      </trkpt>
      <trkpt lat="44.34947" lon="5.84771">
        <ele>628</ele>
        <time>2019-08-02T07:05:45Z</time>
      </trkpt>
      <trkpt lat="44.34951" lon="5.84774">
        <ele>628</ele>
        <time>2019-08-02T07:05:46Z</time>
      </trkpt>
      <trkpt lat="44.34956" lon="5.84778">
        <ele>628</ele>
        <time>2019-08-02T07:05:47Z</time>
      </trkpt>
      <trkpt lat="44.3496" lon="5.84783">
        <ele>628</ele>
        <time>2019-08-02T07:05:48Z</time>
      </trkpt>
      <trkpt lat="44.34964" lon="5.84786">
        <ele>628</ele>
        <time>2019-08-02T07:05:49Z</time>
      </trkpt>
      <trkpt lat="44.34969" lon="5.8479">
        <ele>628</ele>
        <time>2019-08-02T07:05:50Z</time>
      </trkpt>
      <trkpt lat="44.34973" lon="5.84794">
        <ele>628</ele>
        <time>2019-08-02T07:05:51Z</time>
      </trkpt>
      <trkpt lat="44.34977" lon="5.84798">
        <ele>628</ele>
        <time>2019-08-02T07:05:52Z</time>
      </trkpt>
      <trkpt lat="44.34982" lon="5.84801">
        <ele>628</ele>
        <time>2019-08-02T07:05:53Z</time>
      </trkpt>
      <trkpt lat="44.34986" lon="5.84805">
        <ele>628</ele>
        <time>2019-08-02T07:05:54Z</time>
      </trkpt>
      <trkpt lat="44.34991" lon="5.84809">
        <ele>628</ele>
        <time>2019-08-02T07:05:55Z</time>
      </trkpt>
      <trkpt lat="44.34995" lon="5.84813">
        <ele>628</ele>
        <time>2019-08-02T07:05:56Z</time>
      </trkpt>
      <trkpt lat="44.34999" lon="5.84818">
        <ele>628</ele>
        <time>2019-08-02T07:05:57Z</time>
      </trkpt>
      <trkpt lat="44.35004" lon="5.84822">
        <ele>628</ele>
        <time>2019-08-02T07:05:58Z</time>
      </trkpt>
      <trkpt lat="44.35008" lon="5.84826">
        <ele>628</ele>
        <time>2019-08-02T07:05:59Z</time>
      </trkpt>
      <trkpt lat="44.35012" lon="5.8483">
        <ele>628</ele>
        <time>2019-08-02T07:06:00Z</time>
      </trkpt>
      <trkpt lat="44.35016" lon="5.84834">
        <ele>628</ele>
        <time>2019-08-02T07:06:01Z</time>
      </trkpt>
      <trkpt lat="44.3502" lon="5.84839">
        <ele>628</ele>
        <time>2019-08-02T07:06:02Z</time>
      </trkpt>
      <trkpt lat="44.35025" lon="5.84843">
        <ele>628</ele>
        <time>2019-08-02T07:06:03Z</time>
      </trkpt>
      <trkpt lat="44.35028" lon="5.84848">
        <ele>628</ele>
        <time>2019-08-02T07:06:03Z</time>
      </trkpt>
      <trkpt lat="44.35033" lon="5.84852">
        <ele>628</ele>
        <time>2019-08-02T07:06:05Z</time>
      </trkpt>
      <trkpt lat="44.35036" lon="5.84857">
        <ele>628</ele>
        <time>2019-08-02T07:06:06Z</time>
      </trkpt>
      <trkpt lat="44.3504" lon="5.84862">
        <ele>628</ele>
        <time>2019-08-02T07:06:07Z</time>
      </trkpt>
      <trkpt lat="44.35043" lon="5.84866">
        <ele>628</ele>
        <time>2019-08-02T07:06:08Z</time>
      </trkpt>
      <trkpt lat="44.35047" lon="5.84871">
        <ele>628</ele>
        <time>2019-08-02T07:06:09Z</time>
      </trkpt>
      <trkpt lat="44.3505" lon="5.84877">
        <ele>628</ele>
        <time>2019-08-02T07:06:09Z</time>
      </trkpt>
      <trkpt lat="44.35054" lon="5.84882">
        <ele>628</ele>
        <time>2019-08-02T07:06:11Z</time>
      </trkpt>
      <trkpt lat="44.35057" lon="5.84887">
        <ele>628</ele>
        <time>2019-08-02T07:06:12Z</time>
      </trkpt>
      <trkpt lat="44.35061" lon="5.84892">
        <ele>629</ele>
        <time>2019-08-02T07:06:13Z</time>
      </trkpt>
      <trkpt lat="44.35064" lon="5.84898">
        <ele>629</ele>
        <time>2019-08-02T07:06:14Z</time>
      </trkpt>
      <trkpt lat="44.35067" lon="5.84903">
        <ele>629</ele>
        <time>2019-08-02T07:06:15Z</time>
      </trkpt>
      <trkpt lat="44.3507" lon="5.84908">
        <ele>629</ele>
        <time>2019-08-02T07:06:16Z</time>
      </trkpt>
      <trkpt lat="44.35073" lon="5.84914">
        <ele>630</ele>
        <time>2019-08-02T07:06:17Z</time>
      </trkpt>
      <trkpt lat="44.35077" lon="5.84919">
        <ele>630</ele>
        <time>2019-08-02T07:06:18Z</time>
      </trkpt>
      <trkpt lat="44.3508" lon="5.84925">
        <ele>630</ele>
        <time>2019-08-02T07:06:19Z</time>
      </trkpt>
      <trkpt lat="44.35083" lon="5.8493">
        <ele>630</ele>
        <time>2019-08-02T07:06:20Z</time>
      </trkpt>
      <trkpt lat="44.35085" lon="5.84936">
        <ele>631</ele>
        <time>2019-08-02T07:06:21Z</time>
      </trkpt>
      <trkpt lat="44.35088" lon="5.84941">
        <ele>631</ele>
        <time>2019-08-02T07:06:22Z</time>
      </trkpt>
      <trkpt lat="44.35091" lon="5.84947">
        <ele>631</ele>
        <time>2019-08-02T07:06:23Z</time>
      </trkpt>
      <trkpt lat="44.35094" lon="5.84953">
        <ele>631</ele>
        <time>2019-08-02T07:06:24Z</time>
      </trkpt>
      <trkpt lat="44.35096" lon="5.84958">
        <ele>631</ele>
        <time>2019-08-02T07:06:25Z</time>
      </trkpt>
      <trkpt lat="44.35099" lon="5.84964">
        <ele>631</ele>
        <time>2019-08-02T07:06:26Z</time>
      </trkpt>
      <trkpt lat="44.35101" lon="5.8497">
        <ele>631</ele>
        <time>2019-08-02T07:06:27Z</time>
      </trkpt>
      <trkpt lat="44.35104" lon="5.84976">
        <ele>631</ele>
        <time>2019-08-02T07:06:28Z</time>
      </trkpt>
      <trkpt lat="44.35106" lon="5.84982">
        <ele>631</ele>
        <time>2019-08-02T07:06:29Z</time>
      </trkpt>
      <trkpt lat="44.35109" lon="5.84987">
        <ele>631</ele>
        <time>2019-08-02T07:06:30Z</time>
      </trkpt>
      <trkpt lat="44.35111" lon="5.84993">
        <ele>632</ele>
        <time>2019-08-02T07:06:31Z</time>
      </trkpt>
      <trkpt lat="44.35114" lon="5.84999">
        <ele>632</ele>
        <time>2019-08-02T07:06:32Z</time>
      </trkpt>
      <trkpt lat="44.35116" lon="5.85005">
        <ele>632</ele>
        <time>2019-08-02T07:06:33Z</time>
      </trkpt>
      <trkpt lat="44.35119" lon="5.85011">
        <ele>632</ele>
        <time>2019-08-02T07:06:34Z</time>
      </trkpt>
      <trkpt lat="44.35121" lon="5.85016">
        <ele>633</ele>
        <time>2019-08-02T07:06:35Z</time>
      </trkpt>
      <trkpt lat="44.35124" lon="5.85022">
        <ele>633</ele>
        <time>2019-08-02T07:06:36Z</time>
      </trkpt>
      <trkpt lat="44.35126" lon="5.85028">
        <ele>633</ele>
        <time>2019-08-02T07:06:37Z</time>
      </trkpt>
      <trkpt lat="44.35129" lon="5.85033">
        <ele>633</ele>
        <time>2019-08-02T07:06:38Z</time>
      </trkpt>
      <trkpt lat="44.35132" lon="5.85039">
        <ele>633</ele>
        <time>2019-08-02T07:06:39Z</time>
      </trkpt>
      <trkpt lat="44.35135" lon="5.85045">
        <ele>633</ele>
        <time>2019-08-02T07:06:40Z</time>
      </trkpt>
      <trkpt lat="44.35138" lon="5.8505">
        <ele>633</ele>
        <time>2019-08-02T07:06:41Z</time>
      </trkpt>
      <trkpt lat="44.35142" lon="5.85055">
        <ele>634</ele>
        <time>2019-08-02T07:06:42Z</time>
      </trkpt>
      <trkpt lat="44.35145" lon="5.8506">
        <ele>634</ele>
        <time>2019-08-02T07:06:43Z</time>
      </trkpt>
      <trkpt lat="44.35149" lon="5.85065">
        <ele>634</ele>
        <time>2019-08-02T07:06:44Z</time>
      </trkpt>
      <trkpt lat="44.35152" lon="5.8507">
        <ele>634</ele>
        <time>2019-08-02T07:06:45Z</time>
      </trkpt>
      <trkpt lat="44.35156" lon="5.85074">
        <ele>634</ele>
        <time>2019-08-02T07:06:46Z</time>
      </trkpt>
      <trkpt lat="44.3516" lon="5.85079">
        <ele>634</ele>
        <time>2019-08-02T07:06:47Z</time>
      </trkpt>
      <trkpt lat="44.35164" lon="5.85083">
        <ele>634</ele>
        <time>2019-08-02T07:06:48Z</time>
      </trkpt>
      <trkpt lat="44.35168" lon="5.85087">
        <ele>635</ele>
        <time>2019-08-02T07:06:49Z</time>
      </trkpt>
      <trkpt lat="44.35172" lon="5.85092">
        <ele>635</ele>
        <time>2019-08-02T07:06:50Z</time>
      </trkpt>
      <trkpt lat="44.35176" lon="5.85096">
        <ele>635</ele>
        <time>2019-08-02T07:06:51Z</time>
      </trkpt>
      <trkpt lat="44.3518" lon="5.85101">
        <ele>635</ele>
        <time>2019-08-02T07:06:52Z</time>
      </trkpt>
      <trkpt lat="44.35184" lon="5.85105">
        <ele>635</ele>
        <time>2019-08-02T07:06:53Z</time>
      </trkpt>
      <trkpt lat="44.35188" lon="5.8511">
        <ele>635</ele>
        <time>2019-08-02T07:06:54Z</time>
      </trkpt>
      <trkpt lat="44.35192" lon="5.85114">
        <ele>635</ele>
        <time>2019-08-02T07:06:55Z</time>
      </trkpt>
      <trkpt lat="44.35196" lon="5.85119">
        <ele>635</ele>
        <time>2019-08-02T07:06:56Z</time>
      </trkpt>
      <trkpt lat="44.352" lon="5.85124">
        <ele>635</ele>
        <time>2019-08-02T07:06:57Z</time>
      </trkpt>
      <trkpt lat="44.35204" lon="5.85129">
        <ele>635</ele>
        <time>2019-08-02T07:06:58Z</time>
      </trkpt>
      <trkpt lat="44.35208" lon="5.85134">
        <ele>635</ele>
        <time>2019-08-02T07:06:59Z</time>
      </trkpt>
      <trkpt lat="44.35212" lon="5.85139">
        <ele>635</ele>
        <time>2019-08-02T07:07:00Z</time>
      </trkpt>
      <trkpt lat="44.35215" lon="5.85145">
        <ele>635</ele>
        <time>2019-08-02T07:07:01Z</time>
      </trkpt>
      <trkpt lat="44.35218" lon="5.85151">
        <ele>635</ele>
        <time>2019-08-02T07:07:02Z</time>
      </trkpt>
      <trkpt lat="44.35222" lon="5.85157">
        <ele>635</ele>
        <time>2019-08-02T07:07:03Z</time>
      </trkpt>
      <trkpt lat="44.35225" lon="5.85163">
        <ele>635</ele>
        <time>2019-08-02T07:07:04Z</time>
      </trkpt>
      <trkpt lat="44.35228" lon="5.8517">
        <ele>635</ele>
        <time>2019-08-02T07:07:05Z</time>
      </trkpt>
      <trkpt lat="44.3523" lon="5.85176">
        <ele>635</ele>
        <time>2019-08-02T07:07:06Z</time>
      </trkpt>
      <trkpt lat="44.35232" lon="5.85182">
        <ele>635</ele>
        <time>2019-08-02T07:07:07Z</time>
      </trkpt>
      <trkpt lat="44.35234" lon="5.85189">
        <ele>635</ele>
        <time>2019-08-02T07:07:08Z</time>
      </trkpt>
      <trkpt lat="44.35236" lon="5.85196">
        <ele>636</ele>
        <time>2019-08-02T07:07:09Z</time>
      </trkpt>
      <trkpt lat="44.35239" lon="5.85202">
        <ele>636</ele>
        <time>2019-08-02T07:07:10Z</time>
      </trkpt>
      <trkpt lat="44.35241" lon="5.85209">
        <ele>636</ele>
        <time>2019-08-02T07:07:11Z</time>
      </trkpt>
      <trkpt lat="44.35242" lon="5.85215">
        <ele>636</ele>
        <time>2019-08-02T07:07:12Z</time>
      </trkpt>
      <trkpt lat="44.35244" lon="5.85221">
        <ele>636</ele>
        <time>2019-08-02T07:07:13Z</time>
      </trkpt>
      <trkpt lat="44.35246" lon="5.85227">
        <ele>636</ele>
        <time>2019-08-02T07:07:14Z</time>
      </trkpt>
      <trkpt lat="44.35248" lon="5.85233">
        <ele>636</ele>
        <time>2019-08-02T07:07:15Z</time>
      </trkpt>
      <trkpt lat="44.3525" lon="5.85239">
        <ele>636</ele>
        <time>2019-08-02T07:07:16Z</time>
      </trkpt>
      <trkpt lat="44.35252" lon="5.85246">
        <ele>637</ele>
        <time>2019-08-02T07:07:17Z</time>
      </trkpt>
      <trkpt lat="44.35254" lon="5.85252">
        <ele>637</ele>
        <time>2019-08-02T07:07:18Z</time>
      </trkpt>
      <trkpt lat="44.35256" lon="5.85258">
        <ele>637</ele>
        <time>2019-08-02T07:07:19Z</time>
      </trkpt>
      <trkpt lat="44.35258" lon="5.85265">
        <ele>637</ele>
        <time>2019-08-02T07:07:20Z</time>
      </trkpt>
      <trkpt lat="44.3526" lon="5.85271">
        <ele>637</ele>
        <time>2019-08-02T07:07:21Z</time>
      </trkpt>
      <trkpt lat="44.35263" lon="5.85277">
        <ele>637</ele>
        <time>2019-08-02T07:07:22Z</time>
      </trkpt>
      <trkpt lat="44.35265" lon="5.85283">
        <ele>637</ele>
        <time>2019-08-02T07:07:23Z</time>
      </trkpt>
      <trkpt lat="44.35266" lon="5.85289">
        <ele>637</ele>
        <time>2019-08-02T07:07:24Z</time>
      </trkpt>
      <trkpt lat="44.35267" lon="5.85294">
        <ele>638</ele>
        <time>2019-08-02T07:07:25Z</time>
      </trkpt>
      <trkpt lat="44.35269" lon="5.853">
        <ele>638</ele>
        <time>2019-08-02T07:07:26Z</time>
      </trkpt>
      <trkpt lat="44.35271" lon="5.85306">
        <ele>638</ele>
        <time>2019-08-02T07:07:27Z</time>
      </trkpt>
      <trkpt lat="44.35273" lon="5.85312">
        <ele>638</ele>
        <time>2019-08-02T07:07:28Z</time>
      </trkpt>
      <trkpt lat="44.35276" lon="5.85318">
        <ele>638</ele>
        <time>2019-08-02T07:07:29Z</time>
      </trkpt>
      <trkpt lat="44.35278" lon="5.85323">
        <ele>639</ele>
        <time>2019-08-02T07:07:30Z</time>
      </trkpt>
      <trkpt lat="44.35279" lon="5.8533">
        <ele>639</ele>
        <time>2019-08-02T07:07:31Z</time>
      </trkpt>
      <trkpt lat="44.35281" lon="5.85336">
        <ele>639</ele>
        <time>2019-08-02T07:07:32Z</time>
      </trkpt>
      <trkpt lat="44.35283" lon="5.85342">
        <ele>639</ele>
        <time>2019-08-02T07:07:33Z</time>
      </trkpt>
      <trkpt lat="44.35284" lon="5.85348">
        <ele>639</ele>
        <time>2019-08-02T07:07:34Z</time>
      </trkpt>
      <trkpt lat="44.35286" lon="5.85354">
        <ele>639</ele>
        <time>2019-08-02T07:07:35Z</time>
      </trkpt>
      <trkpt lat="44.35288" lon="5.8536">
        <ele>639</ele>
        <time>2019-08-02T07:07:36Z</time>
      </trkpt>
      <trkpt lat="44.3529" lon="5.85366">
        <ele>639</ele>
        <time>2019-08-02T07:07:37Z</time>
      </trkpt>
      <trkpt lat="44.35292" lon="5.85372">
        <ele>640</ele>
        <time>2019-08-02T07:07:37Z</time>
      </trkpt>
      <trkpt lat="44.35295" lon="5.85378">
        <ele>640</ele>
        <time>2019-08-02T07:07:39Z</time>
      </trkpt>
      <trkpt lat="44.35297" lon="5.85384">
        <ele>640</ele>
        <time>2019-08-02T07:07:40Z</time>
      </trkpt>
      <trkpt lat="44.35299" lon="5.8539">
        <ele>640</ele>
        <time>2019-08-02T07:07:41Z</time>
      </trkpt>
      <trkpt lat="44.35301" lon="5.85396">
        <ele>640</ele>
        <time>2019-08-02T07:07:41Z</time>
      </trkpt>
      <trkpt lat="44.35303" lon="5.85402">
        <ele>641</ele>
        <time>2019-08-02T07:07:42Z</time>
      </trkpt>
      <trkpt lat="44.35305" lon="5.85407">
        <ele>641</ele>
        <time>2019-08-02T07:07:43Z</time>
      </trkpt>
      <trkpt lat="44.35306" lon="5.85413">
        <ele>641</ele>
        <time>2019-08-02T07:07:44Z</time>
      </trkpt>
      <trkpt lat="44.35307" lon="5.85419">
        <ele>641</ele>
        <time>2019-08-02T07:07:45Z</time>
      </trkpt>
      <trkpt lat="44.35309" lon="5.85424">
        <ele>641</ele>
        <time>2019-08-02T07:07:47Z</time>
      </trkpt>
      <trkpt lat="44.35312" lon="5.8543">
        <ele>641</ele>
        <time>2019-08-02T07:07:48Z</time>
      </trkpt>
      <trkpt lat="44.35315" lon="5.85435">
        <ele>641</ele>
        <time>2019-08-02T07:07:48Z</time>
      </trkpt>
      <trkpt lat="44.35318" lon="5.85441">
        <ele>641</ele>
        <time>2019-08-02T07:07:49Z</time>
      </trkpt>
      <trkpt lat="44.35321" lon="5.85446">
        <ele>641</ele>
        <time>2019-08-02T07:07:51Z</time>
      </trkpt>
      <trkpt lat="44.35325" lon="5.85451">
        <ele>641</ele>
        <time>2019-08-02T07:07:52Z</time>
      </trkpt>
      <trkpt lat="44.35329" lon="5.85456">
        <ele>641</ele>
        <time>2019-08-02T07:07:52Z</time>
      </trkpt>
      <trkpt lat="44.35332" lon="5.8546">
        <ele>641</ele>
        <time>2019-08-02T07:07:54Z</time>
      </trkpt>
      <trkpt lat="44.35336" lon="5.85464">
        <ele>641</ele>
        <time>2019-08-02T07:07:55Z</time>
      </trkpt>
      <trkpt lat="44.3534" lon="5.85469">
        <ele>642</ele>
        <time>2019-08-02T07:07:56Z</time>
      </trkpt>
      <trkpt lat="44.35344" lon="5.85473">
        <ele>642</ele>
        <time>2019-08-02T07:07:57Z</time>
      </trkpt>
      <trkpt lat="44.35347" lon="5.85478">
        <ele>642</ele>
        <time>2019-08-02T07:07:58Z</time>
      </trkpt>
      <trkpt lat="44.35351" lon="5.85482">
        <ele>642</ele>
        <time>2019-08-02T07:07:59Z</time>
      </trkpt>
      <trkpt lat="44.35355" lon="5.85487">
        <ele>642</ele>
        <time>2019-08-02T07:08:00Z</time>
      </trkpt>
      <trkpt lat="44.35359" lon="5.85491">
        <ele>642</ele>
        <time>2019-08-02T07:08:01Z</time>
      </trkpt>
      <trkpt lat="44.35363" lon="5.85495">
        <ele>643</ele>
        <time>2019-08-02T07:08:02Z</time>
      </trkpt>
      <trkpt lat="44.35366" lon="5.85499">
        <ele>643</ele>
        <time>2019-08-02T07:08:03Z</time>
      </trkpt>
      <trkpt lat="44.35369" lon="5.85503">
        <ele>643</ele>
        <time>2019-08-02T07:08:04Z</time>
      </trkpt>
      <trkpt lat="44.35373" lon="5.85507">
        <ele>643</ele>
        <time>2019-08-02T07:08:05Z</time>
      </trkpt>
      <trkpt lat="44.35377" lon="5.85512">
        <ele>643</ele>
        <time>2019-08-02T07:08:05Z</time>
      </trkpt>
      <trkpt lat="44.35381" lon="5.85516">
        <ele>643</ele>
        <time>2019-08-02T07:08:07Z</time>
      </trkpt>
      <trkpt lat="44.35384" lon="5.8552">
        <ele>643</ele>
        <time>2019-08-02T07:08:08Z</time>
      </trkpt>
      <trkpt lat="44.35388" lon="5.85524">
        <ele>644</ele>
        <time>2019-08-02T07:08:09Z</time>
      </trkpt>
      <trkpt lat="44.35391" lon="5.85528">
        <ele>644</ele>
        <time>2019-08-02T07:08:09Z</time>
      </trkpt>
      <trkpt lat="44.35395" lon="5.85532">
        <ele>644</ele>
        <time>2019-08-02T07:08:11Z</time>
      </trkpt>
      <trkpt lat="44.35398" lon="5.85536">
        <ele>644</ele>
        <time>2019-08-02T07:08:12Z</time>
      </trkpt>
      <trkpt lat="44.35401" lon="5.85539">
        <ele>645</ele>
        <time>2019-08-02T07:08:13Z</time>
      </trkpt>
      <trkpt lat="44.35405" lon="5.85543">
        <ele>645</ele>
        <time>2019-08-02T07:08:14Z</time>
      </trkpt>
      <trkpt lat="44.35408" lon="5.85547">
        <ele>645</ele>
        <time>2019-08-02T07:08:15Z</time>
      </trkpt>
      <trkpt lat="44.35411" lon="5.85551">
        <ele>645</ele>
        <time>2019-08-02T07:08:15Z</time>
      </trkpt>
      <trkpt lat="44.35415" lon="5.85555">
        <ele>645</ele>
        <time>2019-08-02T07:08:17Z</time>
      </trkpt>
      <trkpt lat="44.35419" lon="5.85559">
        <ele>646</ele>
        <time>2019-08-02T07:08:18Z</time>
      </trkpt>
      <trkpt lat="44.35423" lon="5.85563">
        <ele>646</ele>
        <time>2019-08-02T07:08:19Z</time>
      </trkpt>
      <trkpt lat="44.35426" lon="5.85567">
        <ele>646</ele>
        <time>2019-08-02T07:08:20Z</time>
      </trkpt>
      <trkpt lat="44.35429" lon="5.8557">
        <ele>646</ele>
        <time>2019-08-02T07:08:21Z</time>
      </trkpt>
      <trkpt lat="44.35433" lon="5.85574">
        <ele>646</ele>
        <time>2019-08-02T07:08:22Z</time>
      </trkpt>
      <trkpt lat="44.35437" lon="5.85578">
        <ele>646</ele>
        <time>2019-08-02T07:08:23Z</time>
      </trkpt>
      <trkpt lat="44.3544" lon="5.85581">
        <ele>646</ele>
        <time>2019-08-02T07:08:24Z</time>
      </trkpt>
      <trkpt lat="44.35443" lon="5.85585">
        <ele>646</ele>
        <time>2019-08-02T07:08:25Z</time>
      </trkpt>
      <trkpt lat="44.35447" lon="5.85589">
        <ele>647</ele>
        <time>2019-08-02T07:08:25Z</time>
      </trkpt>
      <trkpt lat="44.3545" lon="5.85593">
        <ele>647</ele>
        <time>2019-08-02T07:08:27Z</time>
      </trkpt>
      <trkpt lat="44.35453" lon="5.85597">
        <ele>647</ele>
        <time>2019-08-02T07:08:28Z</time>
      </trkpt>
      <trkpt lat="44.35457" lon="5.856">
        <ele>647</ele>
        <time>2019-08-02T07:08:29Z</time>
      </trkpt>
      <trkpt lat="44.3546" lon="5.85604">
        <ele>647</ele>
        <time>2019-08-02T07:08:30Z</time>
      </trkpt>
      <trkpt lat="44.35464" lon="5.85608">
        <ele>647</ele>
        <time>2019-08-02T07:08:30Z</time>
      </trkpt>
      <trkpt lat="44.35467" lon="5.85611">
        <ele>647</ele>
        <time>2019-08-02T07:08:32Z</time>
      </trkpt>
      <trkpt lat="44.3547" lon="5.85615">
        <ele>648</ele>
        <time>2019-08-02T07:08:33Z</time>
      </trkpt>
      <trkpt lat="44.35474" lon="5.85618">
        <ele>648</ele>
        <time>2019-08-02T07:08:33Z</time>
      </trkpt>
      <trkpt lat="44.35477" lon="5.85622">
        <ele>648</ele>
        <time>2019-08-02T07:08:35Z</time>
      </trkpt>
      <trkpt lat="44.3548" lon="5.85626">
        <ele>648</ele>
        <time>2019-08-02T07:08:35Z</time>
      </trkpt>
      <trkpt lat="44.35484" lon="5.8563">
        <ele>649</ele>
        <time>2019-08-02T07:08:37Z</time>
      </trkpt>
      <trkpt lat="44.35487" lon="5.85633">
        <ele>649</ele>
        <time>2019-08-02T07:08:37Z</time>
      </trkpt>
      <trkpt lat="44.3549" lon="5.85637">
        <ele>649</ele>
        <time>2019-08-02T07:08:39Z</time>
      </trkpt>
      <trkpt lat="44.35494" lon="5.8564">
        <ele>649</ele>
        <time>2019-08-02T07:08:40Z</time>
      </trkpt>
      <trkpt lat="44.35497" lon="5.85644">
        <ele>649</ele>
        <time>2019-08-02T07:08:41Z</time>
      </trkpt>
      <trkpt lat="44.35501" lon="5.85648">
        <ele>649</ele>
        <time>2019-08-02T07:08:41Z</time>
      </trkpt>
      <trkpt lat="44.35504" lon="5.85652">
        <ele>649</ele>
        <time>2019-08-02T07:08:43Z</time>
      </trkpt>
      <trkpt lat="44.35507" lon="5.85655">
        <ele>649</ele>
        <time>2019-08-02T07:08:44Z</time>
      </trkpt>
      <trkpt lat="44.3551" lon="5.85659">
        <ele>649</ele>
        <time>2019-08-02T07:08:45Z</time>
      </trkpt>
      <trkpt lat="44.35514" lon="5.85663">
        <ele>649</ele>
        <time>2019-08-02T07:08:46Z</time>
      </trkpt>
      <trkpt lat="44.35517" lon="5.85667">
        <ele>649</ele>
        <time>2019-08-02T07:08:47Z</time>
      </trkpt>
      <trkpt lat="44.35521" lon="5.8567">
        <ele>649</ele>
        <time>2019-08-02T07:08:48Z</time>
      </trkpt>
      <trkpt lat="44.35524" lon="5.85674">
        <ele>649</ele>
        <time>2019-08-02T07:08:49Z</time>
      </trkpt>
      <trkpt lat="44.35528" lon="5.85677">
        <ele>650</ele>
        <time>2019-08-02T07:08:49Z</time>
      </trkpt>
      <trkpt lat="44.35532" lon="5.85681">
        <ele>650</ele>
        <time>2019-08-02T07:08:51Z</time>
      </trkpt>
      <trkpt lat="44.35536" lon="5.85685">
        <ele>650</ele>
        <time>2019-08-02T07:08:52Z</time>
      </trkpt>
      <trkpt lat="44.35539" lon="5.85688">
        <ele>650</ele>
        <time>2019-08-02T07:08:53Z</time>
      </trkpt>
      <trkpt lat="44.35542" lon="5.85692">
        <ele>651</ele>
        <time>2019-08-02T07:08:54Z</time>
      </trkpt>
      <trkpt lat="44.35546" lon="5.85696">
        <ele>651</ele>
        <time>2019-08-02T07:08:55Z</time>
      </trkpt>
      <trkpt lat="44.3555" lon="5.857">
        <ele>651</ele>
        <time>2019-08-02T07:08:56Z</time>
      </trkpt>
      <trkpt lat="44.35554" lon="5.85703">
        <ele>651</ele>
        <time>2019-08-02T07:08:57Z</time>
      </trkpt>
      <trkpt lat="44.35558" lon="5.85707">
        <ele>652</ele>
        <time>2019-08-02T07:08:57Z</time>
      </trkpt>
      <trkpt lat="44.35561" lon="5.85711">
        <ele>652</ele>
        <time>2019-08-02T07:08:59Z</time>
      </trkpt>
      <trkpt lat="44.35564" lon="5.85715">
        <ele>652</ele>
        <time>2019-08-02T07:09:00Z</time>
      </trkpt>
      <trkpt lat="44.35567" lon="5.85719">
        <ele>652</ele>
        <time>2019-08-02T07:09:01Z</time>
      </trkpt>
      <trkpt lat="44.35571" lon="5.85722">
        <ele>653</ele>
        <time>2019-08-02T07:09:01Z</time>
      </trkpt>
      <trkpt lat="44.35574" lon="5.85726">
        <ele>653</ele>
        <time>2019-08-02T07:09:03Z</time>
      </trkpt>
      <trkpt lat="44.35579" lon="5.85731">
        <ele>653</ele>
        <time>2019-08-02T07:09:04Z</time>
      </trkpt>
      <trkpt lat="44.35582" lon="5.85735">
        <ele>653</ele>
        <time>2019-08-02T07:09:05Z</time>
      </trkpt>
      <trkpt lat="44.35586" lon="5.8574">
        <ele>653</ele>
        <time>2019-08-02T07:09:05Z</time>
      </trkpt>
      <trkpt lat="44.3559" lon="5.85744">
        <ele>653</ele>
        <time>2019-08-02T07:09:06Z</time>
      </trkpt>
      <trkpt lat="44.35594" lon="5.85748">
        <ele>653</ele>
        <time>2019-08-02T07:09:08Z</time>
      </trkpt>
      <trkpt lat="44.35598" lon="5.85752">
        <ele>653</ele>
        <time>2019-08-02T07:09:08Z</time>
      </trkpt>
      <trkpt lat="44.35601" lon="5.85756">
        <ele>653</ele>
        <time>2019-08-02T07:09:10Z</time>
      </trkpt>
      <trkpt lat="44.35604" lon="5.85759">
        <ele>653</ele>
        <time>2019-08-02T07:09:11Z</time>
      </trkpt>
      <trkpt lat="44.35608" lon="5.85763">
        <ele>653</ele>
        <time>2019-08-02T07:09:11Z</time>
      </trkpt>
      <trkpt lat="44.35611" lon="5.85768">
        <ele>653</ele>
        <time>2019-08-02T07:09:12Z</time>
      </trkpt>
      <trkpt lat="44.35614" lon="5.85772">
        <ele>653</ele>
        <time>2019-08-02T07:09:13Z</time>
      </trkpt>
      <trkpt lat="44.35617" lon="5.85777">
        <ele>653</ele>
        <time>2019-08-02T07:09:15Z</time>
      </trkpt>
      <trkpt lat="44.3562" lon="5.85782">
        <ele>653</ele>
        <time>2019-08-02T07:09:15Z</time>
      </trkpt>
      <trkpt lat="44.35623" lon="5.85787">
        <ele>653</ele>
        <time>2019-08-02T07:09:17Z</time>
      </trkpt>
      <trkpt lat="44.35626" lon="5.85791">
        <ele>653</ele>
        <time>2019-08-02T07:09:17Z</time>
      </trkpt>
      <trkpt lat="44.35629" lon="5.85795">
        <ele>653</ele>
        <time>2019-08-02T07:09:18Z</time>
      </trkpt>
      <trkpt lat="44.35632" lon="5.858">
        <ele>653</ele>
        <time>2019-08-02T07:09:19Z</time>
      </trkpt>
      <trkpt lat="44.35635" lon="5.85805">
        <ele>653</ele>
        <time>2019-08-02T07:09:21Z</time>
      </trkpt>
      <trkpt lat="44.35638" lon="5.85809">
        <ele>653</ele>
        <time>2019-08-02T07:09:21Z</time>
      </trkpt>
      <trkpt lat="44.35641" lon="5.85814">
        <ele>653</ele>
        <time>2019-08-02T07:09:23Z</time>
      </trkpt>
      <trkpt lat="44.35644" lon="5.85819">
        <ele>653</ele>
        <time>2019-08-02T07:09:24Z</time>
      </trkpt>
      <trkpt lat="44.35647" lon="5.85824">
        <ele>653</ele>
        <time>2019-08-02T07:09:25Z</time>
      </trkpt>
      <trkpt lat="44.35651" lon="5.85829">
        <ele>653</ele>
        <time>2019-08-02T07:09:26Z</time>
      </trkpt>
      <trkpt lat="44.35654" lon="5.85834">
        <ele>653</ele>
        <time>2019-08-02T07:09:26Z</time>
      </trkpt>
      <trkpt lat="44.35657" lon="5.85839">
        <ele>653</ele>
        <time>2019-08-02T07:09:27Z</time>
      </trkpt>
      <trkpt lat="44.3566" lon="5.85844">
        <ele>653</ele>
        <time>2019-08-02T07:09:29Z</time>
      </trkpt>
      <trkpt lat="44.35663" lon="5.85849">
        <ele>653</ele>
        <time>2019-08-02T07:09:29Z</time>
      </trkpt>
      <trkpt lat="44.35666" lon="5.85854">
        <ele>653</ele>
        <time>2019-08-02T07:09:31Z</time>
      </trkpt>
      <trkpt lat="44.35669" lon="5.85859">
        <ele>654</ele>
        <time>2019-08-02T07:09:32Z</time>
      </trkpt>
      <trkpt lat="44.35672" lon="5.85863">
        <ele>654</ele>
        <time>2019-08-02T07:09:32Z</time>
      </trkpt>
      <trkpt lat="44.35675" lon="5.85868">
        <ele>654</ele>
        <time>2019-08-02T07:09:33Z</time>
      </trkpt>
      <trkpt lat="44.35677" lon="5.85873">
        <ele>655</ele>
        <time>2019-08-02T07:09:35Z</time>
      </trkpt>
      <trkpt lat="44.3568" lon="5.85878">
        <ele>655</ele>
        <time>2019-08-02T07:09:36Z</time>
      </trkpt>
      <trkpt lat="44.35683" lon="5.85883">
        <ele>655</ele>
        <time>2019-08-02T07:09:36Z</time>
      </trkpt>
      <trkpt lat="44.35686" lon="5.85888">
        <ele>656</ele>
        <time>2019-08-02T07:09:37Z</time>
      </trkpt>
      <trkpt lat="44.35689" lon="5.85893">
        <ele>656</ele>
        <time>2019-08-02T07:09:38Z</time>
      </trkpt>
      <trkpt lat="44.35692" lon="5.85898">
        <ele>656</ele>
        <time>2019-08-02T07:09:40Z</time>
      </trkpt>
      <trkpt lat="44.35695" lon="5.85903">
        <ele>656</ele>
        <time>2019-08-02T07:09:41Z</time>
      </trkpt>
      <trkpt lat="44.35699" lon="5.85908">
        <ele>656</ele>
        <time>2019-08-02T07:09:41Z</time>
      </trkpt>
      <trkpt lat="44.35702" lon="5.85913">
        <ele>657</ele>
        <time>2019-08-02T07:09:42Z</time>
      </trkpt>
      <trkpt lat="44.35704" lon="5.85918">
        <ele>657</ele>
        <time>2019-08-02T07:09:44Z</time>
      </trkpt>
      <trkpt lat="44.35707" lon="5.85922">
        <ele>657</ele>
        <time>2019-08-02T07:09:45Z</time>
      </trkpt>
      <trkpt lat="44.3571" lon="5.85927">
        <ele>657</ele>
        <time>2019-08-02T07:09:45Z</time>
      </trkpt>
      <trkpt lat="44.35713" lon="5.85932">
        <ele>658</ele>
        <time>2019-08-02T07:09:47Z</time>
      </trkpt>
      <trkpt lat="44.35716" lon="5.85937">
        <ele>658</ele>
        <time>2019-08-02T07:09:47Z</time>
      </trkpt>
      <trkpt lat="44.35719" lon="5.85941">
        <ele>658</ele>
        <time>2019-08-02T07:09:49Z</time>
      </trkpt>
      <trkpt lat="44.35722" lon="5.85946">
        <ele>658</ele>
        <time>2019-08-02T07:09:49Z</time>
      </trkpt>
      <trkpt lat="44.35725" lon="5.85951">
        <ele>658</ele>
        <time>2019-08-02T07:09:50Z</time>
      </trkpt>
      <trkpt lat="44.35728" lon="5.85955">
        <ele>658</ele>
        <time>2019-08-02T07:09:52Z</time>
      </trkpt>
      <trkpt lat="44.35731" lon="5.8596">
        <ele>659</ele>
        <time>2019-08-02T07:09:53Z</time>
      </trkpt>
      <trkpt lat="44.35734" lon="5.85965">
        <ele>659</ele>
        <time>2019-08-02T07:09:54Z</time>
      </trkpt>
      <trkpt lat="44.35736" lon="5.8597">
        <ele>659</ele>
        <time>2019-08-02T07:09:54Z</time>
      </trkpt>
      <trkpt lat="44.35739" lon="5.85975">
        <ele>659</ele>
        <time>2019-08-02T07:09:55Z</time>
      </trkpt>
      <trkpt lat="44.35742" lon="5.85979">
        <ele>659</ele>
        <time>2019-08-02T07:09:57Z</time>
      </trkpt>
      <trkpt lat="44.35745" lon="5.85984">
        <ele>659</ele>
        <time>2019-08-02T07:09:57Z</time>
      </trkpt>
      <trkpt lat="44.35748" lon="5.85989">
        <ele>659</ele>
        <time>2019-08-02T07:09:58Z</time>
      </trkpt>
      <trkpt lat="44.35751" lon="5.85993">
        <ele>659</ele>
        <time>2019-08-02T07:10:00Z</time>
      </trkpt>
      <trkpt lat="44.35754" lon="5.85998">
        <ele>659</ele>
        <time>2019-08-02T07:10:00Z</time>
      </trkpt>
      <trkpt lat="44.35757" lon="5.86003">
        <ele>659</ele>
        <time>2019-08-02T07:10:02Z</time>
      </trkpt>
      <trkpt lat="44.35759" lon="5.86009">
        <ele>659</ele>
        <time>2019-08-02T07:10:02Z</time>
      </trkpt>
      <trkpt lat="44.35762" lon="5.86014">
        <ele>659</ele>
        <time>2019-08-02T07:10:03Z</time>
      </trkpt>
      <trkpt lat="44.35765" lon="5.86019">
        <ele>659</ele>
        <time>2019-08-02T07:10:05Z</time>
      </trkpt>
      <trkpt lat="44.35769" lon="5.86025">
        <ele>659</ele>
        <time>2019-08-02T07:10:05Z</time>
      </trkpt>
      <trkpt lat="44.35771" lon="5.8603">
        <ele>659</ele>
        <time>2019-08-02T07:10:07Z</time>
      </trkpt>
      <trkpt lat="44.35774" lon="5.86036">
        <ele>659</ele>
        <time>2019-08-02T07:10:07Z</time>
      </trkpt>
      <trkpt lat="44.35777" lon="5.86042">
        <ele>659</ele>
        <time>2019-08-02T07:10:08Z</time>
      </trkpt>
      <trkpt lat="44.3578" lon="5.86048">
        <ele>659</ele>
        <time>2019-08-02T07:10:09Z</time>
      </trkpt>
      <trkpt lat="44.35782" lon="5.86054">
        <ele>659</ele>
        <time>2019-08-02T07:10:11Z</time>
      </trkpt>
      <trkpt lat="44.35784" lon="5.86061">
        <ele>659</ele>
        <time>2019-08-02T07:10:12Z</time>
      </trkpt>
      <trkpt lat="44.35786" lon="5.86067">
        <ele>659</ele>
        <time>2019-08-02T07:10:12Z</time>
      </trkpt>
      <trkpt lat="44.35788" lon="5.86074">
        <ele>659</ele>
        <time>2019-08-02T07:10:13Z</time>
      </trkpt>
      <trkpt lat="44.3579" lon="5.86081">
        <ele>659</ele>
        <time>2019-08-02T07:10:14Z</time>
      </trkpt>
      <trkpt lat="44.35791" lon="5.86087">
        <ele>659</ele>
        <time>2019-08-02T07:10:15Z</time>
      </trkpt>
      <trkpt lat="44.35792" lon="5.86094">
        <ele>659</ele>
        <time>2019-08-02T07:10:17Z</time>
      </trkpt>
      <trkpt lat="44.35794" lon="5.861">
        <ele>659</ele>
        <time>2019-08-02T07:10:17Z</time>
      </trkpt>
      <trkpt lat="44.35795" lon="5.86107">
        <ele>660</ele>
        <time>2019-08-02T07:10:18Z</time>
      </trkpt>
      <trkpt lat="44.35796" lon="5.86113">
        <ele>660</ele>
        <time>2019-08-02T07:10:19Z</time>
      </trkpt>
      <trkpt lat="44.35797" lon="5.8612">
        <ele>660</ele>
        <time>2019-08-02T07:10:20Z</time>
      </trkpt>
      <trkpt lat="44.35799" lon="5.86126">
        <ele>660</ele>
        <time>2019-08-02T07:10:21Z</time>
      </trkpt>
      <trkpt lat="44.358" lon="5.86133">
        <ele>660</ele>
        <time>2019-08-02T07:10:23Z</time>
      </trkpt>
      <trkpt lat="44.35801" lon="5.86139">
        <ele>660</ele>
        <time>2019-08-02T07:10:23Z</time>
      </trkpt>
      <trkpt lat="44.35802" lon="5.86146">
        <ele>660</ele>
        <time>2019-08-02T07:10:25Z</time>
      </trkpt>
      <trkpt lat="44.35804" lon="5.86153">
        <ele>660</ele>
        <time>2019-08-02T07:10:26Z</time>
      </trkpt>
      <trkpt lat="44.35805" lon="5.8616">
        <ele>661</ele>
        <time>2019-08-02T07:10:27Z</time>
      </trkpt>
      <trkpt lat="44.35807" lon="5.86166">
        <ele>661</ele>
        <time>2019-08-02T07:10:28Z</time>
      </trkpt>
      <trkpt lat="44.35808" lon="5.86173">
        <ele>661</ele>
        <time>2019-08-02T07:10:29Z</time>
      </trkpt>
      <trkpt lat="44.35809" lon="5.86179">
        <ele>661</ele>
        <time>2019-08-02T07:10:30Z</time>
      </trkpt>
      <trkpt lat="44.3581" lon="5.86186">
        <ele>661</ele>
        <time>2019-08-02T07:10:31Z</time>
      </trkpt>
      <trkpt lat="44.35811" lon="5.86193">
        <ele>661</ele>
        <time>2019-08-02T07:10:32Z</time>
      </trkpt>
      <trkpt lat="44.35813" lon="5.86199">
        <ele>661</ele>
        <time>2019-08-02T07:10:33Z</time>
      </trkpt>
      <trkpt lat="44.35814" lon="5.86205">
        <ele>661</ele>
        <time>2019-08-02T07:10:33Z</time>
      </trkpt>
      <trkpt lat="44.35816" lon="5.86212">
        <ele>661</ele>
        <time>2019-08-02T07:10:35Z</time>
      </trkpt>
      <trkpt lat="44.35818" lon="5.86218">
        <ele>661</ele>
        <time>2019-08-02T07:10:35Z</time>
      </trkpt>
      <trkpt lat="44.3582" lon="5.86225">
        <ele>661</ele>
        <time>2019-08-02T07:10:37Z</time>
      </trkpt>
      <trkpt lat="44.35822" lon="5.86231">
        <ele>661</ele>
        <time>2019-08-02T07:10:37Z</time>
      </trkpt>
      <trkpt lat="44.35824" lon="5.86237">
        <ele>661</ele>
        <time>2019-08-02T07:10:39Z</time>
      </trkpt>
      <trkpt lat="44.35826" lon="5.86244">
        <ele>661</ele>
        <time>2019-08-02T07:10:40Z</time>
      </trkpt>
      <trkpt lat="44.35828" lon="5.8625">
        <ele>661</ele>
        <time>2019-08-02T07:10:41Z</time>
      </trkpt>
      <trkpt lat="44.35831" lon="5.86256">
        <ele>661</ele>
        <time>2019-08-02T07:10:41Z</time>
      </trkpt>
      <trkpt lat="44.35833" lon="5.86262">
        <ele>661</ele>
        <time>2019-08-02T07:10:42Z</time>
      </trkpt>
      <trkpt lat="44.35836" lon="5.86268">
        <ele>661</ele>
        <time>2019-08-02T07:10:44Z</time>
      </trkpt>
      <trkpt lat="44.35839" lon="5.86273">
        <ele>661</ele>
        <time>2019-08-02T07:10:45Z</time>
      </trkpt>
      <trkpt lat="44.35842" lon="5.86279">
        <ele>662</ele>
        <time>2019-08-02T07:10:45Z</time>
      </trkpt>
      <trkpt lat="44.35845" lon="5.86285">
        <ele>662</ele>
        <time>2019-08-02T07:10:47Z</time>
      </trkpt>
      <trkpt lat="44.35848" lon="5.86291">
        <ele>662</ele>
        <time>2019-08-02T07:10:48Z</time>
      </trkpt>
      <trkpt lat="44.35852" lon="5.86297">
        <ele>662</ele>
        <time>2019-08-02T07:10:49Z</time>
      </trkpt>
      <trkpt lat="44.35854" lon="5.86303">
        <ele>662</ele>
        <time>2019-08-02T07:10:49Z</time>
      </trkpt>
      <trkpt lat="44.35857" lon="5.86309">
        <ele>662</ele>
        <time>2019-08-02T07:10:50Z</time>
      </trkpt>
      <trkpt lat="44.3586" lon="5.86315">
        <ele>662</ele>
        <time>2019-08-02T07:10:51Z</time>
      </trkpt>
      <trkpt lat="44.35863" lon="5.86322">
        <ele>662</ele>
        <time>2019-08-02T07:10:53Z</time>
      </trkpt>
      <trkpt lat="44.35866" lon="5.86328">
        <ele>662</ele>
        <time>2019-08-02T07:10:54Z</time>
      </trkpt>
      <trkpt lat="44.35868" lon="5.86335">
        <ele>662</ele>
        <time>2019-08-02T07:10:54Z</time>
      </trkpt>
      <trkpt lat="44.3587" lon="5.86341">
        <ele>662</ele>
        <time>2019-08-02T07:10:56Z</time>
      </trkpt>
      <trkpt lat="44.35872" lon="5.86348">
        <ele>663</ele>
        <time>2019-08-02T07:10:57Z</time>
      </trkpt>
      <trkpt lat="44.35874" lon="5.86355">
        <ele>663</ele>
        <time>2019-08-02T07:10:57Z</time>
      </trkpt>
      <trkpt lat="44.35876" lon="5.86362">
        <ele>663</ele>
        <time>2019-08-02T07:10:59Z</time>
      </trkpt>
      <trkpt lat="44.35878" lon="5.86369">
        <ele>663</ele>
        <time>2019-08-02T07:11:00Z</time>
      </trkpt>
      <trkpt lat="44.3588" lon="5.86376">
        <ele>663</ele>
        <time>2019-08-02T07:11:01Z</time>
      </trkpt>
      <trkpt lat="44.35881" lon="5.86383">
        <ele>663</ele>
        <time>2019-08-02T07:11:01Z</time>
      </trkpt>
      <trkpt lat="44.35883" lon="5.86391">
        <ele>663</ele>
        <time>2019-08-02T07:11:03Z</time>
      </trkpt>
      <trkpt lat="44.35884" lon="5.86398">
        <ele>663</ele>
        <time>2019-08-02T07:11:04Z</time>
      </trkpt>
      <trkpt lat="44.35886" lon="5.86406">
        <ele>663</ele>
        <time>2019-08-02T07:11:05Z</time>
      </trkpt>
      <trkpt lat="44.35888" lon="5.86413">
        <ele>663</ele>
        <time>2019-08-02T07:11:05Z</time>
      </trkpt>
      <trkpt lat="44.35889" lon="5.86421">
        <ele>663</ele>
        <time>2019-08-02T07:11:06Z</time>
      </trkpt>
      <trkpt lat="44.35891" lon="5.86429">
        <ele>663</ele>
        <time>2019-08-02T07:11:07Z</time>
      </trkpt>
      <trkpt lat="44.35892" lon="5.86436">
        <ele>663</ele>
        <time>2019-08-02T07:11:09Z</time>
      </trkpt>
      <trkpt lat="44.35894" lon="5.86444">
        <ele>663</ele>
        <time>2019-08-02T07:11:09Z</time>
      </trkpt>
      <trkpt lat="44.35896" lon="5.86452">
        <ele>663</ele>
        <time>2019-08-02T07:11:11Z</time>
      </trkpt>
      <trkpt lat="44.35898" lon="5.8646">
        <ele>663</ele>
        <time>2019-08-02T07:11:12Z</time>
      </trkpt>
      <trkpt lat="44.35899" lon="5.86468">
        <ele>663</ele>
        <time>2019-08-02T07:11:13Z</time>
      </trkpt>
      <trkpt lat="44.35901" lon="5.86476">
        <ele>663</ele>
        <time>2019-08-02T07:11:13Z</time>
      </trkpt>
      <trkpt lat="44.35903" lon="5.86484">
        <ele>663</ele>
        <time>2019-08-02T07:11:15Z</time>
      </trkpt>
      <trkpt lat="44.35904" lon="5.86492">
        <ele>663</ele>
        <time>2019-08-02T07:11:15Z</time>
      </trkpt>
      <trkpt lat="44.35906" lon="5.86501">
        <ele>663</ele>
        <time>2019-08-02T07:11:17Z</time>
      </trkpt>
      <trkpt lat="44.35908" lon="5.86509">
        <ele>663</ele>
        <time>2019-08-02T07:11:17Z</time>
      </trkpt>
      <trkpt lat="44.3591" lon="5.86518">
        <ele>663</ele>
        <time>2019-08-02T07:11:19Z</time>
      </trkpt>
      <trkpt lat="44.35912" lon="5.86526">
        <ele>663</ele>
        <time>2019-08-02T07:11:20Z</time>
      </trkpt>
      <trkpt lat="44.35914" lon="5.86535">
        <ele>663</ele>
        <time>2019-08-02T07:11:21Z</time>
      </trkpt>
      <trkpt lat="44.35915" lon="5.86543">
        <ele>663</ele>
        <time>2019-08-02T07:11:21Z</time>
      </trkpt>
      <trkpt lat="44.35917" lon="5.86552">
        <ele>663</ele>
        <time>2019-08-02T07:11:23Z</time>
      </trkpt>
      <trkpt lat="44.35919" lon="5.8656">
        <ele>663</ele>
        <time>2019-08-02T07:11:24Z</time>
      </trkpt>
      <trkpt lat="44.35921" lon="5.86568">
        <ele>663</ele>
        <time>2019-08-02T07:11:25Z</time>
      </trkpt>
      <trkpt lat="44.35923" lon="5.86576">
        <ele>663</ele>
        <time>2019-08-02T07:11:25Z</time>
      </trkpt>
      <trkpt lat="44.35924" lon="5.86585">
        <ele>663</ele>
        <time>2019-08-02T07:11:27Z</time>
      </trkpt>
      <trkpt lat="44.35926" lon="5.86593">
        <ele>663</ele>
        <time>2019-08-02T07:11:28Z</time>
      </trkpt>
      <trkpt lat="44.35928" lon="5.86601">
        <ele>663</ele>
        <time>2019-08-02T07:11:29Z</time>
      </trkpt>
      <trkpt lat="44.35929" lon="5.8661">
        <ele>663</ele>
        <time>2019-08-02T07:11:30Z</time>
      </trkpt>
      <trkpt lat="44.35931" lon="5.86618">
        <ele>663</ele>
        <time>2019-08-02T07:11:30Z</time>
      </trkpt>
      <trkpt lat="44.35933" lon="5.86626">
        <ele>663</ele>
        <time>2019-08-02T07:11:31Z</time>
      </trkpt>
      <trkpt lat="44.35935" lon="5.86635">
        <ele>663</ele>
        <time>2019-08-02T07:11:33Z</time>
      </trkpt>
      <trkpt lat="44.35937" lon="5.86644">
        <ele>663</ele>
        <time>2019-08-02T07:11:33Z</time>
      </trkpt>
      <trkpt lat="44.35939" lon="5.86652">
        <ele>663</ele>
        <time>2019-08-02T07:11:35Z</time>
      </trkpt>
      <trkpt lat="44.35941" lon="5.8666">
        <ele>663</ele>
        <time>2019-08-02T07:11:35Z</time>
      </trkpt>
      <trkpt lat="44.35943" lon="5.86669">
        <ele>663</ele>
        <time>2019-08-02T07:11:36Z</time>
      </trkpt>
      <trkpt lat="44.35945" lon="5.86677">
        <ele>663</ele>
        <time>2019-08-02T07:11:37Z</time>
      </trkpt>
      <trkpt lat="44.35947" lon="5.86685">
        <ele>663</ele>
        <time>2019-08-02T07:11:38Z</time>
      </trkpt>
      <trkpt lat="44.3595" lon="5.86692">
        <ele>663</ele>
        <time>2019-08-02T07:11:40Z</time>
      </trkpt>
      <trkpt lat="44.35953" lon="5.867">
        <ele>663</ele>
        <time>2019-08-02T07:11:41Z</time>
      </trkpt>
      <trkpt lat="44.35956" lon="5.86708">
        <ele>663</ele>
        <time>2019-08-02T07:11:41Z</time>
      </trkpt>
      <trkpt lat="44.35959" lon="5.86716">
        <ele>663</ele>
        <time>2019-08-02T07:11:42Z</time>
      </trkpt>
      <trkpt lat="44.35963" lon="5.86723">
        <ele>663</ele>
        <time>2019-08-02T07:11:43Z</time>
      </trkpt>
      <trkpt lat="44.35966" lon="5.86731">
        <ele>663</ele>
        <time>2019-08-02T07:11:45Z</time>
      </trkpt>
      <trkpt lat="44.3597" lon="5.86739">
        <ele>663</ele>
        <time>2019-08-02T07:11:45Z</time>
      </trkpt>
      <trkpt lat="44.35973" lon="5.86746">
        <ele>663</ele>
        <time>2019-08-02T07:11:47Z</time>
      </trkpt>
      <trkpt lat="44.35977" lon="5.86754">
        <ele>663</ele>
        <time>2019-08-02T07:11:47Z</time>
      </trkpt>
      <trkpt lat="44.35981" lon="5.86762">
        <ele>663</ele>
        <time>2019-08-02T07:11:48Z</time>
      </trkpt>
      <trkpt lat="44.35985" lon="5.8677">
        <ele>663</ele>
        <time>2019-08-02T07:11:50Z</time>
      </trkpt>
      <trkpt lat="44.35989" lon="5.86779">
        <ele>663</ele>
        <time>2019-08-02T07:11:50Z</time>
      </trkpt>
      <trkpt lat="44.35993" lon="5.86787">
        <ele>663</ele>
        <time>2019-08-02T07:11:51Z</time>
      </trkpt>
      <trkpt lat="44.35997" lon="5.86796">
        <ele>663</ele>
        <time>2019-08-02T07:11:52Z</time>
      </trkpt>
      <trkpt lat="44.36001" lon="5.86805">
        <ele>663</ele>
        <time>2019-08-02T07:11:54Z</time>
      </trkpt>
      <trkpt lat="44.36005" lon="5.86813">
        <ele>663</ele>
        <time>2019-08-02T07:11:55Z</time>
      </trkpt>
      <trkpt lat="44.36009" lon="5.86822">
        <ele>663</ele>
        <time>2019-08-02T07:11:55Z</time>
      </trkpt>
      <trkpt lat="44.36014" lon="5.86831">
        <ele>663</ele>
        <time>2019-08-02T07:11:56Z</time>
      </trkpt>
      <trkpt lat="44.36018" lon="5.8684">
        <ele>663</ele>
        <time>2019-08-02T07:11:57Z</time>
      </trkpt>
      <trkpt lat="44.36022" lon="5.86849">
        <ele>663</ele>
        <time>2019-08-02T07:11:59Z</time>
      </trkpt>
      <trkpt lat="44.36027" lon="5.86858">
        <ele>663</ele>
        <time>2019-08-02T07:12:00Z</time>
      </trkpt>
      <trkpt lat="44.36031" lon="5.86868">
        <ele>663</ele>
        <time>2019-08-02T07:12:00Z</time>
      </trkpt>
      <trkpt lat="44.36036" lon="5.86877">
        <ele>662</ele>
        <time>2019-08-02T07:12:01Z</time>
      </trkpt>
      <trkpt lat="44.3604" lon="5.86887">
        <ele>662</ele>
        <time>2019-08-02T07:12:02Z</time>
      </trkpt>
      <trkpt lat="44.36045" lon="5.86896">
        <ele>662</ele>
        <time>2019-08-02T07:12:03Z</time>
      </trkpt>
      <trkpt lat="44.3605" lon="5.86906">
        <ele>661</ele>
        <time>2019-08-02T07:12:05Z</time>
      </trkpt>
      <trkpt lat="44.36054" lon="5.86916">
        <ele>661</ele>
        <time>2019-08-02T07:12:05Z</time>
      </trkpt>
      <trkpt lat="44.36059" lon="5.86926">
        <ele>661</ele>
        <time>2019-08-02T07:12:06Z</time>
      </trkpt>
      <trkpt lat="44.36064" lon="5.86936">
        <ele>660</ele>
        <time>2019-08-02T07:12:07Z</time>
      </trkpt>
      <trkpt lat="44.36069" lon="5.86947">
        <ele>660</ele>
        <time>2019-08-02T07:12:08Z</time>
      </trkpt>
      <trkpt lat="44.36074" lon="5.86957">
        <ele>660</ele>
        <time>2019-08-02T07:12:10Z</time>
      </trkpt>
      <trkpt lat="44.36079" lon="5.86968">
        <ele>659</ele>
        <time>2019-08-02T07:12:10Z</time>
      </trkpt>
      <trkpt lat="44.36084" lon="5.8698">
        <ele>659</ele>
        <time>2019-08-02T07:12:11Z</time>
      </trkpt>
      <trkpt lat="44.36089" lon="5.86992">
        <ele>658</ele>
        <time>2019-08-02T07:12:12Z</time>
      </trkpt>
      <trkpt lat="44.36095" lon="5.87004">
        <ele>658</ele>
        <time>2019-08-02T07:12:13Z</time>
      </trkpt>
      <trkpt lat="44.36099" lon="5.87017">
        <ele>657</ele>
        <time>2019-08-02T07:12:14Z</time>
      </trkpt>
      <trkpt lat="44.36103" lon="5.87031">
        <ele>656</ele>
        <time>2019-08-02T07:12:15Z</time>
      </trkpt>
      <trkpt lat="44.36107" lon="5.87045">
        <ele>656</ele>
        <time>2019-08-02T07:12:16Z</time>
      </trkpt>
      <trkpt lat="44.3611" lon="5.8706">
        <ele>655</ele>
        <time>2019-08-02T07:12:17Z</time>
      </trkpt>
      <trkpt lat="44.36113" lon="5.87075">
        <ele>654</ele>
        <time>2019-08-02T07:12:18Z</time>
      </trkpt>
      <trkpt lat="44.36116" lon="5.8709">
        <ele>653</ele>
        <time>2019-08-02T07:12:19Z</time>
      </trkpt>
      <trkpt lat="44.36118" lon="5.87106">
        <ele>652</ele>
        <time>2019-08-02T07:12:20Z</time>
      </trkpt>
      <trkpt lat="44.3612" lon="5.87121">
        <ele>651</ele>
        <time>2019-08-02T07:12:21Z</time>
      </trkpt>
      <trkpt lat="44.36123" lon="5.87137">
        <ele>650</ele>
        <time>2019-08-02T07:12:22Z</time>
      </trkpt>
      <trkpt lat="44.36125" lon="5.87153">
        <ele>649</ele>
        <time>2019-08-02T07:12:23Z</time>
      </trkpt>
      <trkpt lat="44.36127" lon="5.87169">
        <ele>649</ele>
        <time>2019-08-02T07:12:24Z</time>
      </trkpt>
      <trkpt lat="44.3613" lon="5.87186">
        <ele>648</ele>
        <time>2019-08-02T07:12:25Z</time>
      </trkpt>
      <trkpt lat="44.36133" lon="5.87202">
        <ele>647</ele>
        <time>2019-08-02T07:12:26Z</time>
      </trkpt>
      <trkpt lat="44.36135" lon="5.87218">
        <ele>646</ele>
        <time>2019-08-02T07:12:27Z</time>
      </trkpt>
      <trkpt lat="44.36139" lon="5.87235">
        <ele>645</ele>
        <time>2019-08-02T07:12:28Z</time>
      </trkpt>
      <trkpt lat="44.36143" lon="5.87251">
        <ele>645</ele>
        <time>2019-08-02T07:12:29Z</time>
      </trkpt>
      <trkpt lat="44.36148" lon="5.87267">
        <ele>644</ele>
        <time>2019-08-02T07:12:30Z</time>
      </trkpt>
      <trkpt lat="44.36156" lon="5.87281">
        <ele>643</ele>
        <time>2019-08-02T07:12:31Z</time>
      </trkpt>
      <trkpt lat="44.36163" lon="5.87296">
        <ele>642</ele>
        <time>2019-08-02T07:12:32Z</time>
      </trkpt>
      <trkpt lat="44.36172" lon="5.8731">
        <ele>641</ele>
        <time>2019-08-02T07:12:33Z</time>
      </trkpt>
      <trkpt lat="44.3618" lon="5.87324">
        <ele>640</ele>
        <time>2019-08-02T07:12:34Z</time>
      </trkpt>
      <trkpt lat="44.36188" lon="5.87338">
        <ele>639</ele>
        <time>2019-08-02T07:12:35Z</time>
      </trkpt>
      <trkpt lat="44.36195" lon="5.87353">
        <ele>638</ele>
        <time>2019-08-02T07:12:36Z</time>
      </trkpt>
      <trkpt lat="44.36201" lon="5.87368">
        <ele>637</ele>
        <time>2019-08-02T07:12:37Z</time>
      </trkpt>
      <trkpt lat="44.36205" lon="5.87384">
        <ele>636</ele>
        <time>2019-08-02T07:12:38Z</time>
      </trkpt>
      <trkpt lat="44.36206" lon="5.87401">
        <ele>635</ele>
        <time>2019-08-02T07:12:39Z</time>
      </trkpt>
      <trkpt lat="44.36204" lon="5.87417">
        <ele>634</ele>
        <time>2019-08-02T07:12:40Z</time>
      </trkpt>
      <trkpt lat="44.362" lon="5.87432">
        <ele>633</ele>
        <time>2019-08-02T07:12:41Z</time>
      </trkpt>
      <trkpt lat="44.36197" lon="5.87447">
        <ele>632</ele>
        <time>2019-08-02T07:12:42Z</time>
      </trkpt>
      <trkpt lat="44.36194" lon="5.87463">
        <ele>631</ele>
        <time>2019-08-02T07:12:43Z</time>
      </trkpt>
      <trkpt lat="44.36193" lon="5.87478">
        <ele>631</ele>
        <time>2019-08-02T07:12:44Z</time>
      </trkpt>
      <trkpt lat="44.36193" lon="5.87494">
        <ele>630</ele>
        <time>2019-08-02T07:12:45Z</time>
      </trkpt>
      <trkpt lat="44.36193" lon="5.87509">
        <ele>630</ele>
        <time>2019-08-02T07:12:46Z</time>
      </trkpt>
      <trkpt lat="44.36194" lon="5.87524">
        <ele>630</ele>
        <time>2019-08-02T07:12:47Z</time>
      </trkpt>
      <trkpt lat="44.36195" lon="5.87539">
        <ele>629</ele>
        <time>2019-08-02T07:12:48Z</time>
      </trkpt>
      <trkpt lat="44.36196" lon="5.87554">
        <ele>629</ele>
        <time>2019-08-02T07:12:49Z</time>
      </trkpt>
      <trkpt lat="44.36198" lon="5.87569">
        <ele>629</ele>
        <time>2019-08-02T07:12:50Z</time>
      </trkpt>
      <trkpt lat="44.362" lon="5.87584">
        <ele>629</ele>
        <time>2019-08-02T07:12:51Z</time>
      </trkpt>
      <trkpt lat="44.36203" lon="5.87598">
        <ele>628</ele>
        <time>2019-08-02T07:12:52Z</time>
      </trkpt>
      <trkpt lat="44.36206" lon="5.87612">
        <ele>628</ele>
        <time>2019-08-02T07:12:54Z</time>
      </trkpt>
      <trkpt lat="44.3621" lon="5.87627">
        <ele>628</ele>
        <time>2019-08-02T07:12:54Z</time>
      </trkpt>
      <trkpt lat="44.36214" lon="5.87642">
        <ele>627</ele>
        <time>2019-08-02T07:12:55Z</time>
      </trkpt>
      <trkpt lat="44.36217" lon="5.87657">
        <ele>627</ele>
        <time>2019-08-02T07:12:56Z</time>
      </trkpt>
      <trkpt lat="44.36218" lon="5.87672">
        <ele>626</ele>
        <time>2019-08-02T07:12:57Z</time>
      </trkpt>
      <trkpt lat="44.36219" lon="5.87687">
        <ele>626</ele>
        <time>2019-08-02T07:12:58Z</time>
      </trkpt>
      <trkpt lat="44.36219" lon="5.87702">
        <ele>625</ele>
        <time>2019-08-02T07:12:59Z</time>
      </trkpt>
      <trkpt lat="44.36219" lon="5.87717">
        <ele>624</ele>
        <time>2019-08-02T07:13:00Z</time>
      </trkpt>
      <trkpt lat="44.36219" lon="5.87733">
        <ele>624</ele>
        <time>2019-08-02T07:13:01Z</time>
      </trkpt>
      <trkpt lat="44.36219" lon="5.87747">
        <ele>623</ele>
        <time>2019-08-02T07:13:02Z</time>
      </trkpt>
      <trkpt lat="44.36221" lon="5.87762">
        <ele>623</ele>
        <time>2019-08-02T07:13:03Z</time>
      </trkpt>
      <trkpt lat="44.36224" lon="5.87776">
        <ele>622</ele>
        <time>2019-08-02T07:13:04Z</time>
      </trkpt>
      <trkpt lat="44.36226" lon="5.8779">
        <ele>622</ele>
        <time>2019-08-02T07:13:05Z</time>
      </trkpt>
      <trkpt lat="44.36229" lon="5.87804">
        <ele>622</ele>
        <time>2019-08-02T07:13:06Z</time>
      </trkpt>
      <trkpt lat="44.36234" lon="5.87817">
        <ele>621</ele>
        <time>2019-08-02T07:13:07Z</time>
      </trkpt>
      <trkpt lat="44.36237" lon="5.8783">
        <ele>620</ele>
        <time>2019-08-02T07:13:08Z</time>
      </trkpt>
      <trkpt lat="44.36241" lon="5.87844">
        <ele>620</ele>
        <time>2019-08-02T07:13:09Z</time>
      </trkpt>
      <trkpt lat="44.36245" lon="5.87857">
        <ele>620</ele>
        <time>2019-08-02T07:13:10Z</time>
      </trkpt>
      <trkpt lat="44.36247" lon="5.87871">
        <ele>620</ele>
        <time>2019-08-02T07:13:11Z</time>
      </trkpt>
      <trkpt lat="44.36249" lon="5.87884">
        <ele>620</ele>
        <time>2019-08-02T07:13:12Z</time>
      </trkpt>
      <trkpt lat="44.3625" lon="5.87897">
        <ele>620</ele>
        <time>2019-08-02T07:13:13Z</time>
      </trkpt>
      <trkpt lat="44.36251" lon="5.8791">
        <ele>620</ele>
        <time>2019-08-02T07:13:15Z</time>
      </trkpt>
      <trkpt lat="44.3625" lon="5.87921">
        <ele>620</ele>
        <time>2019-08-02T07:13:15Z</time>
      </trkpt>
      <trkpt lat="44.36247" lon="5.87932">
        <ele>620</ele>
        <time>2019-08-02T07:13:16Z</time>
      </trkpt>
      <trkpt lat="44.36246" lon="5.87944">
        <ele>620</ele>
        <time>2019-08-02T07:13:17Z</time>
      </trkpt>
      <trkpt lat="44.36245" lon="5.87955">
        <ele>620</ele>
        <time>2019-08-02T07:13:18Z</time>
      </trkpt>
      <trkpt lat="44.36244" lon="5.87967">
        <ele>620</ele>
        <time>2019-08-02T07:13:20Z</time>
      </trkpt>
      <trkpt lat="44.36244" lon="5.8798">
        <ele>620</ele>
        <time>2019-08-02T07:13:20Z</time>
      </trkpt>
      <trkpt lat="44.36245" lon="5.87991">
        <ele>620</ele>
        <time>2019-08-02T07:13:21Z</time>
      </trkpt>
      <trkpt lat="44.36249" lon="5.88003">
        <ele>620</ele>
        <time>2019-08-02T07:13:22Z</time>
      </trkpt>
      <trkpt lat="44.36255" lon="5.88014">
        <ele>620</ele>
        <time>2019-08-02T07:13:23Z</time>
      </trkpt>
      <trkpt lat="44.3626" lon="5.88025">
        <ele>620</ele>
        <time>2019-08-02T07:13:25Z</time>
      </trkpt>
      <trkpt lat="44.36265" lon="5.88037">
        <ele>620</ele>
        <time>2019-08-02T07:13:25Z</time>
      </trkpt>
      <trkpt lat="44.36269" lon="5.88051">
        <ele>620</ele>
        <time>2019-08-02T07:13:26Z</time>
      </trkpt>
      <trkpt lat="44.36273" lon="5.88063">
        <ele>620</ele>
        <time>2019-08-02T07:13:27Z</time>
      </trkpt>
      <trkpt lat="44.36277" lon="5.88076">
        <ele>620</ele>
        <time>2019-08-02T07:13:28Z</time>
      </trkpt>
      <trkpt lat="44.3628" lon="5.88087">
        <ele>620</ele>
        <time>2019-08-02T07:13:29Z</time>
      </trkpt>
      <trkpt lat="44.36282" lon="5.88099">
        <ele>620</ele>
        <time>2019-08-02T07:13:30Z</time>
      </trkpt>
      <trkpt lat="44.36285" lon="5.88111">
        <ele>620</ele>
        <time>2019-08-02T07:13:31Z</time>
      </trkpt>
      <trkpt lat="44.36287" lon="5.88123">
        <ele>620</ele>
        <time>2019-08-02T07:13:33Z</time>
      </trkpt>
      <trkpt lat="44.36289" lon="5.88133">
        <ele>620</ele>
        <time>2019-08-02T07:13:33Z</time>
      </trkpt>
      <trkpt lat="44.36291" lon="5.88143">
        <ele>620</ele>
        <time>2019-08-02T07:13:35Z</time>
      </trkpt>
      <trkpt lat="44.36293" lon="5.88153">
        <ele>620</ele>
        <time>2019-08-02T07:13:35Z</time>
      </trkpt>
      <trkpt lat="44.36296" lon="5.88162">
        <ele>620</ele>
        <time>2019-08-02T07:13:36Z</time>
      </trkpt>
      <trkpt lat="44.36299" lon="5.88171">
        <ele>620</ele>
        <time>2019-08-02T07:13:37Z</time>
      </trkpt>
      <trkpt lat="44.36302" lon="5.88181">
        <ele>620</ele>
        <time>2019-08-02T07:13:38Z</time>
      </trkpt>
      <trkpt lat="44.36305" lon="5.88191">
        <ele>620</ele>
        <time>2019-08-02T07:13:40Z</time>
      </trkpt>
      <trkpt lat="44.36307" lon="5.88201">
        <ele>620</ele>
        <time>2019-08-02T07:13:40Z</time>
      </trkpt>
      <trkpt lat="44.36309" lon="5.88211">
        <ele>620</ele>
        <time>2019-08-02T07:13:41Z</time>
      </trkpt>
      <trkpt lat="44.36311" lon="5.88221">
        <ele>620</ele>
        <time>2019-08-02T07:13:42Z</time>
      </trkpt>
      <trkpt lat="44.36313" lon="5.88232">
        <ele>619</ele>
        <time>2019-08-02T07:13:43Z</time>
      </trkpt>
      <trkpt lat="44.36315" lon="5.88242">
        <ele>619</ele>
        <time>2019-08-02T07:13:45Z</time>
      </trkpt>
      <trkpt lat="44.36317" lon="5.88252">
        <ele>618</ele>
        <time>2019-08-02T07:13:45Z</time>
      </trkpt>
      <trkpt lat="44.36319" lon="5.88263">
        <ele>618</ele>
        <time>2019-08-02T07:13:46Z</time>
      </trkpt>
      <trkpt lat="44.36321" lon="5.88273">
        <ele>617</ele>
        <time>2019-08-02T07:13:47Z</time>
      </trkpt>
      <trkpt lat="44.36323" lon="5.88284">
        <ele>617</ele>
        <time>2019-08-02T07:13:48Z</time>
      </trkpt>
      <trkpt lat="44.36325" lon="5.88294">
        <ele>617</ele>
        <time>2019-08-02T07:13:50Z</time>
      </trkpt>
      <trkpt lat="44.36327" lon="5.88305">
        <ele>617</ele>
        <time>2019-08-02T07:13:50Z</time>
      </trkpt>
      <trkpt lat="44.3633" lon="5.88314">
        <ele>617</ele>
        <time>2019-08-02T07:13:51Z</time>
      </trkpt>
      <trkpt lat="44.36333" lon="5.88325">
        <ele>616</ele>
        <time>2019-08-02T07:13:52Z</time>
      </trkpt>
      <trkpt lat="44.36337" lon="5.88336">
        <ele>616</ele>
        <time>2019-08-02T07:13:54Z</time>
      </trkpt>
      <trkpt lat="44.3634" lon="5.88346">
        <ele>616</ele>
        <time>2019-08-02T07:13:54Z</time>
      </trkpt>
      <trkpt lat="44.36344" lon="5.88358">
        <ele>615</ele>
        <time>2019-08-02T07:13:55Z</time>
      </trkpt>
      <trkpt lat="44.36348" lon="5.8837">
        <ele>615</ele>
        <time>2019-08-02T07:13:56Z</time>
      </trkpt>
      <trkpt lat="44.36352" lon="5.88381">
        <ele>614</ele>
        <time>2019-08-02T07:13:57Z</time>
      </trkpt>
      <trkpt lat="44.36357" lon="5.88391">
        <ele>614</ele>
        <time>2019-08-02T07:13:58Z</time>
      </trkpt>
      <trkpt lat="44.36361" lon="5.88402">
        <ele>614</ele>
        <time>2019-08-02T07:14:00Z</time>
      </trkpt>
      <trkpt lat="44.36364" lon="5.88413">
        <ele>614</ele>
        <time>2019-08-02T07:14:00Z</time>
      </trkpt>
      <trkpt lat="44.36366" lon="5.88423">
        <ele>614</ele>
        <time>2019-08-02T07:14:01Z</time>
      </trkpt>
      <trkpt lat="44.36368" lon="5.88433">
        <ele>614</ele>
        <time>2019-08-02T07:14:02Z</time>
      </trkpt>
      <trkpt lat="44.36369" lon="5.88442">
        <ele>614</ele>
        <time>2019-08-02T07:14:03Z</time>
      </trkpt>
      <trkpt lat="44.3637" lon="5.88451">
        <ele>614</ele>
        <time>2019-08-02T07:14:04Z</time>
      </trkpt>
      <trkpt lat="44.3637" lon="5.8846">
        <ele>614</ele>
        <time>2019-08-02T07:14:05Z</time>
      </trkpt>
      <trkpt lat="44.3637" lon="5.88469">
        <ele>614</ele>
        <time>2019-08-02T07:14:06Z</time>
      </trkpt>
      <trkpt lat="44.36372" lon="5.88478">
        <ele>614</ele>
        <time>2019-08-02T07:14:07Z</time>
      </trkpt>
      <trkpt lat="44.36373" lon="5.88486">
        <ele>614</ele>
        <time>2019-08-02T07:14:08Z</time>
      </trkpt>
      <trkpt lat="44.36373" lon="5.88496">
        <ele>614</ele>
        <time>2019-08-02T07:14:09Z</time>
      </trkpt>
      <trkpt lat="44.36373" lon="5.88504">
        <ele>614</ele>
        <time>2019-08-02T07:14:10Z</time>
      </trkpt>
      <trkpt lat="44.36374" lon="5.88512">
        <ele>614</ele>
        <time>2019-08-02T07:14:11Z</time>
      </trkpt>
      <trkpt lat="44.36373" lon="5.8852">
        <ele>614</ele>
        <time>2019-08-02T07:14:12Z</time>
      </trkpt>
      <trkpt lat="44.36372" lon="5.88528">
        <ele>615</ele>
        <time>2019-08-02T07:14:13Z</time>
      </trkpt>
      <trkpt lat="44.36372" lon="5.88537">
        <ele>615</ele>
        <time>2019-08-02T07:14:14Z</time>
      </trkpt>
      <trkpt lat="44.36372" lon="5.88546">
        <ele>615</ele>
        <time>2019-08-02T07:14:15Z</time>
      </trkpt>
      <trkpt lat="44.36372" lon="5.88554">
        <ele>615</ele>
        <time>2019-08-02T07:14:16Z</time>
      </trkpt>
      <trkpt lat="44.36372" lon="5.88562">
        <ele>615</ele>
        <time>2019-08-02T07:14:17Z</time>
      </trkpt>
      <trkpt lat="44.36372" lon="5.88571">
        <ele>615</ele>
        <time>2019-08-02T07:14:18Z</time>
      </trkpt>
      <trkpt lat="44.36371" lon="5.8858">
        <ele>616</ele>
        <time>2019-08-02T07:14:19Z</time>
      </trkpt>
      <trkpt lat="44.36372" lon="5.88589">
        <ele>616</ele>
        <time>2019-08-02T07:14:20Z</time>
      </trkpt>
      <trkpt lat="44.36372" lon="5.88598">
        <ele>616</ele>
        <time>2019-08-02T07:14:21Z</time>
      </trkpt>
      <trkpt lat="44.36372" lon="5.88608">
        <ele>616</ele>
        <time>2019-08-02T07:14:22Z</time>
      </trkpt>
      <trkpt lat="44.36372" lon="5.88617">
        <ele>616</ele>
        <time>2019-08-02T07:14:23Z</time>
      </trkpt>
      <trkpt lat="44.3637" lon="5.88626">
        <ele>616</ele>
        <time>2019-08-02T07:14:25Z</time>
      </trkpt>
      <trkpt lat="44.3637" lon="5.88635">
        <ele>616</ele>
        <time>2019-08-02T07:14:25Z</time>
      </trkpt>
      <trkpt lat="44.36368" lon="5.88645">
        <ele>616</ele>
        <time>2019-08-02T07:14:26Z</time>
      </trkpt>
      <trkpt lat="44.36367" lon="5.88653">
        <ele>616</ele>
        <time>2019-08-02T07:14:27Z</time>
      </trkpt>
      <trkpt lat="44.36364" lon="5.88662">
        <ele>616</ele>
        <time>2019-08-02T07:14:28Z</time>
      </trkpt>
      <trkpt lat="44.36361" lon="5.88671">
        <ele>616</ele>
        <time>2019-08-02T07:14:29Z</time>
      </trkpt>
      <trkpt lat="44.36358" lon="5.88679">
        <ele>616</ele>
        <time>2019-08-02T07:14:30Z</time>
      </trkpt>
      <trkpt lat="44.36355" lon="5.88687">
        <ele>616</ele>
        <time>2019-08-02T07:14:31Z</time>
      </trkpt>
      <trkpt lat="44.36352" lon="5.88694">
        <ele>616</ele>
        <time>2019-08-02T07:14:32Z</time>
      </trkpt>
      <trkpt lat="44.36348" lon="5.88701">
        <ele>616</ele>
        <time>2019-08-02T07:14:33Z</time>
      </trkpt>
      <trkpt lat="44.36346" lon="5.88709">
        <ele>616</ele>
        <time>2019-08-02T07:14:35Z</time>
      </trkpt>
      <trkpt lat="44.36345" lon="5.88716">
        <ele>616</ele>
        <time>2019-08-02T07:14:35Z</time>
      </trkpt>
      <trkpt lat="44.36343" lon="5.88723">
        <ele>616</ele>
        <time>2019-08-02T07:14:36Z</time>
      </trkpt>
      <trkpt lat="44.36341" lon="5.88731">
        <ele>616</ele>
        <time>2019-08-02T07:14:37Z</time>
      </trkpt>
      <trkpt lat="44.36339" lon="5.88738">
        <ele>616</ele>
        <time>2019-08-02T07:14:38Z</time>
      </trkpt>
      <trkpt lat="44.36338" lon="5.88745">
        <ele>616</ele>
        <time>2019-08-02T07:14:39Z</time>
      </trkpt>
      <trkpt lat="44.36337" lon="5.88753">
        <ele>616</ele>
        <time>2019-08-02T07:14:40Z</time>
      </trkpt>
      <trkpt lat="44.36337" lon="5.88761">
        <ele>616</ele>
        <time>2019-08-02T07:14:41Z</time>
      </trkpt>
      <trkpt lat="44.36338" lon="5.88769">
        <ele>616</ele>
        <time>2019-08-02T07:14:42Z</time>
      </trkpt>
      <trkpt lat="44.3634" lon="5.88777">
        <ele>616</ele>
        <time>2019-08-02T07:14:43Z</time>
      </trkpt>
      <trkpt lat="44.36342" lon="5.88786">
        <ele>616</ele>
        <time>2019-08-02T07:14:44Z</time>
      </trkpt>
      <trkpt lat="44.36344" lon="5.88795">
        <ele>616</ele>
        <time>2019-08-02T07:14:45Z</time>
      </trkpt>
      <trkpt lat="44.36347" lon="5.88803">
        <ele>616</ele>
        <time>2019-08-02T07:14:46Z</time>
      </trkpt>
      <trkpt lat="44.36351" lon="5.88812">
        <ele>616</ele>
        <time>2019-08-02T07:14:47Z</time>
      </trkpt>
      <trkpt lat="44.36354" lon="5.88822">
        <ele>616</ele>
        <time>2019-08-02T07:14:48Z</time>
      </trkpt>
      <trkpt lat="44.36358" lon="5.88831">
        <ele>615</ele>
        <time>2019-08-02T07:14:49Z</time>
      </trkpt>
      <trkpt lat="44.36361" lon="5.88841">
        <ele>615</ele>
        <time>2019-08-02T07:14:50Z</time>
      </trkpt>
      <trkpt lat="44.36365" lon="5.8885">
        <ele>615</ele>
        <time>2019-08-02T07:14:51Z</time>
      </trkpt>
      <trkpt lat="44.36369" lon="5.8886">
        <ele>614</ele>
        <time>2019-08-02T07:14:52Z</time>
      </trkpt>
      <trkpt lat="44.36373" lon="5.8887">
        <ele>614</ele>
        <time>2019-08-02T07:14:54Z</time>
      </trkpt>
      <trkpt lat="44.36377" lon="5.88879">
        <ele>614</ele>
        <time>2019-08-02T07:14:54Z</time>
      </trkpt>
      <trkpt lat="44.3638" lon="5.88889">
        <ele>613</ele>
        <time>2019-08-02T07:14:55Z</time>
      </trkpt>
      <trkpt lat="44.36383" lon="5.88898">
        <ele>613</ele>
        <time>2019-08-02T07:14:56Z</time>
      </trkpt>
      <trkpt lat="44.36385" lon="5.88908">
        <ele>612</ele>
        <time>2019-08-02T07:14:57Z</time>
      </trkpt>
      <trkpt lat="44.36389" lon="5.88918">
        <ele>612</ele>
        <time>2019-08-02T07:14:58Z</time>
      </trkpt>
      <trkpt lat="44.36394" lon="5.88929">
        <ele>611</ele>
        <time>2019-08-02T07:14:59Z</time>
      </trkpt>
      <trkpt lat="44.36398" lon="5.88939">
        <ele>610</ele>
        <time>2019-08-02T07:15:00Z</time>
      </trkpt>
      <trkpt lat="44.36402" lon="5.88949">
        <ele>610</ele>
        <time>2019-08-02T07:15:01Z</time>
      </trkpt>
      <trkpt lat="44.36406" lon="5.8896">
        <ele>610</ele>
        <time>2019-08-02T07:15:02Z</time>
      </trkpt>
      <trkpt lat="44.36409" lon="5.8897">
        <ele>610</ele>
        <time>2019-08-02T07:15:03Z</time>
      </trkpt>
      <trkpt lat="44.36412" lon="5.88979">
        <ele>609</ele>
        <time>2019-08-02T07:15:04Z</time>
      </trkpt>
      <trkpt lat="44.36415" lon="5.88988">
        <ele>609</ele>
        <time>2019-08-02T07:15:05Z</time>
      </trkpt>
      <trkpt lat="44.36418" lon="5.88997">
        <ele>609</ele>
        <time>2019-08-02T07:15:06Z</time>
      </trkpt>
      <trkpt lat="44.36421" lon="5.89005">
        <ele>609</ele>
        <time>2019-08-02T07:15:07Z</time>
      </trkpt>
      <trkpt lat="44.36424" lon="5.89012">
        <ele>609</ele>
        <time>2019-08-02T07:15:08Z</time>
      </trkpt>
      <trkpt lat="44.36427" lon="5.8902">
        <ele>609</ele>
        <time>2019-08-02T07:15:09Z</time>
      </trkpt>
      <trkpt lat="44.3643" lon="5.89028">
        <ele>608</ele>
        <time>2019-08-02T07:15:10Z</time>
      </trkpt>
      <trkpt lat="44.36433" lon="5.89036">
        <ele>608</ele>
        <time>2019-08-02T07:15:11Z</time>
      </trkpt>
      <trkpt lat="44.36436" lon="5.89044">
        <ele>608</ele>
        <time>2019-08-02T07:15:12Z</time>
      </trkpt>
      <trkpt lat="44.36439" lon="5.89052">
        <ele>608</ele>
        <time>2019-08-02T07:15:13Z</time>
      </trkpt>
      <trkpt lat="44.36443" lon="5.8906">
        <ele>608</ele>
        <time>2019-08-02T07:15:15Z</time>
      </trkpt>
      <trkpt lat="44.36446" lon="5.89069">
        <ele>608</ele>
        <time>2019-08-02T07:15:15Z</time>
      </trkpt>
      <trkpt lat="44.36449" lon="5.89078">
        <ele>607</ele>
        <time>2019-08-02T07:15:16Z</time>
      </trkpt>
      <trkpt lat="44.36453" lon="5.89086">
        <ele>607</ele>
        <time>2019-08-02T07:15:17Z</time>
      </trkpt>
      <trkpt lat="44.36456" lon="5.89096">
        <ele>607</ele>
        <time>2019-08-02T07:15:18Z</time>
      </trkpt>
      <trkpt lat="44.3646" lon="5.89106">
        <ele>607</ele>
        <time>2019-08-02T07:15:19Z</time>
      </trkpt>
      <trkpt lat="44.36464" lon="5.89116">
        <ele>606</ele>
        <time>2019-08-02T07:15:20Z</time>
      </trkpt>
      <trkpt lat="44.36468" lon="5.89126">
        <ele>606</ele>
        <time>2019-08-02T07:15:21Z</time>
      </trkpt>
      <trkpt lat="44.36472" lon="5.89137">
        <ele>606</ele>
        <time>2019-08-02T07:15:22Z</time>
      </trkpt>
      <trkpt lat="44.36476" lon="5.89147">
        <ele>606</ele>
        <time>2019-08-02T07:15:23Z</time>
      </trkpt>
      <trkpt lat="44.3648" lon="5.89157">
        <ele>606</ele>
        <time>2019-08-02T07:15:24Z</time>
      </trkpt>
      <trkpt lat="44.36484" lon="5.89167">
        <ele>606</ele>
        <time>2019-08-02T07:15:25Z</time>
      </trkpt>
      <trkpt lat="44.36488" lon="5.89177">
        <ele>606</ele>
        <time>2019-08-02T07:15:26Z</time>
      </trkpt>
      <trkpt lat="44.36492" lon="5.89187">
        <ele>605</ele>
        <time>2019-08-02T07:15:27Z</time>
      </trkpt>
      <trkpt lat="44.36496" lon="5.89196">
        <ele>605</ele>
        <time>2019-08-02T07:15:28Z</time>
      </trkpt>
      <trkpt lat="44.36499" lon="5.89206">
        <ele>605</ele>
        <time>2019-08-02T07:15:29Z</time>
      </trkpt>
      <trkpt lat="44.36503" lon="5.89217">
        <ele>604</ele>
        <time>2019-08-02T07:15:30Z</time>
      </trkpt>
      <trkpt lat="44.36507" lon="5.89227">
        <ele>604</ele>
        <time>2019-08-02T07:15:31Z</time>
      </trkpt>
      <trkpt lat="44.3651" lon="5.89237">
        <ele>604</ele>
        <time>2019-08-02T07:15:32Z</time>
      </trkpt>
      <trkpt lat="44.36514" lon="5.89247">
        <ele>604</ele>
        <time>2019-08-02T07:15:33Z</time>
      </trkpt>
      <trkpt lat="44.36518" lon="5.89258">
        <ele>603</ele>
        <time>2019-08-02T07:15:34Z</time>
      </trkpt>
      <trkpt lat="44.36523" lon="5.8927">
        <ele>603</ele>
        <time>2019-08-02T07:15:35Z</time>
      </trkpt>
      <trkpt lat="44.36527" lon="5.89281">
        <ele>602</ele>
        <time>2019-08-02T07:15:36Z</time>
      </trkpt>
      <trkpt lat="44.36531" lon="5.89293">
        <ele>602</ele>
        <time>2019-08-02T07:15:37Z</time>
      </trkpt>
      <trkpt lat="44.36535" lon="5.89305">
        <ele>601</ele>
        <time>2019-08-02T07:15:38Z</time>
      </trkpt>
      <trkpt lat="44.36538" lon="5.89318">
        <ele>600</ele>
        <time>2019-08-02T07:15:39Z</time>
      </trkpt>
      <trkpt lat="44.36542" lon="5.89331">
        <ele>600</ele>
        <time>2019-08-02T07:15:40Z</time>
      </trkpt>
      <trkpt lat="44.36544" lon="5.89345">
        <ele>599</ele>
        <time>2019-08-02T07:15:41Z</time>
      </trkpt>
      <trkpt lat="44.36546" lon="5.89358">
        <ele>599</ele>
        <time>2019-08-02T07:15:42Z</time>
      </trkpt>
      <trkpt lat="44.36548" lon="5.89371">
        <ele>599</ele>
        <time>2019-08-02T07:15:43Z</time>
      </trkpt>
      <trkpt lat="44.36549" lon="5.89384">
        <ele>599</ele>
        <time>2019-08-02T07:15:44Z</time>
      </trkpt>
      <trkpt lat="44.3655" lon="5.89395">
        <ele>599</ele>
        <time>2019-08-02T07:15:45Z</time>
      </trkpt>
      <trkpt lat="44.36551" lon="5.89406">
        <ele>599</ele>
        <time>2019-08-02T07:15:46Z</time>
      </trkpt>
      <trkpt lat="44.36553" lon="5.89417">
        <ele>599</ele>
        <time>2019-08-02T07:15:47Z</time>
      </trkpt>
      <trkpt lat="44.36556" lon="5.89426">
        <ele>599</ele>
        <time>2019-08-02T07:15:48Z</time>
      </trkpt>
      <trkpt lat="44.36559" lon="5.89436">
        <ele>599</ele>
        <time>2019-08-02T07:15:49Z</time>
      </trkpt>
      <trkpt lat="44.36564" lon="5.89445">
        <ele>599</ele>
        <time>2019-08-02T07:15:50Z</time>
      </trkpt>
      <trkpt lat="44.36568" lon="5.89454">
        <ele>599</ele>
        <time>2019-08-02T07:15:51Z</time>
      </trkpt>
      <trkpt lat="44.36572" lon="5.89462">
        <ele>599</ele>
        <time>2019-08-02T07:15:52Z</time>
      </trkpt>
      <trkpt lat="44.36576" lon="5.89469">
        <ele>599</ele>
        <time>2019-08-02T07:15:54Z</time>
      </trkpt>
      <trkpt lat="44.36581" lon="5.89477">
        <ele>599</ele>
        <time>2019-08-02T07:15:54Z</time>
      </trkpt>
      <trkpt lat="44.36586" lon="5.89484">
        <ele>599</ele>
        <time>2019-08-02T07:15:55Z</time>
      </trkpt>
      <trkpt lat="44.36591" lon="5.89492">
        <ele>599</ele>
        <time>2019-08-02T07:15:56Z</time>
      </trkpt>
      <trkpt lat="44.36596" lon="5.89499">
        <ele>599</ele>
        <time>2019-08-02T07:15:57Z</time>
      </trkpt>
      <trkpt lat="44.36602" lon="5.89506">
        <ele>599</ele>
        <time>2019-08-02T07:15:58Z</time>
      </trkpt>
      <trkpt lat="44.36606" lon="5.89513">
        <ele>599</ele>
        <time>2019-08-02T07:15:59Z</time>
      </trkpt>
      <trkpt lat="44.36612" lon="5.89521">
        <ele>599</ele>
        <time>2019-08-02T07:16:00Z</time>
      </trkpt>
      <trkpt lat="44.36616" lon="5.89528">
        <ele>599</ele>
        <time>2019-08-02T07:16:01Z</time>
      </trkpt>
      <trkpt lat="44.36621" lon="5.89536">
        <ele>599</ele>
        <time>2019-08-02T07:16:02Z</time>
      </trkpt>
      <trkpt lat="44.36627" lon="5.89543">
        <ele>599</ele>
        <time>2019-08-02T07:16:03Z</time>
      </trkpt>
      <trkpt lat="44.36631" lon="5.8955">
        <ele>599</ele>
        <time>2019-08-02T07:16:04Z</time>
      </trkpt>
      <trkpt lat="44.36636" lon="5.89558">
        <ele>599</ele>
        <time>2019-08-02T07:16:05Z</time>
      </trkpt>
      <trkpt lat="44.36641" lon="5.89566">
        <ele>599</ele>
        <time>2019-08-02T07:16:06Z</time>
      </trkpt>
      <trkpt lat="44.36646" lon="5.89573">
        <ele>598</ele>
        <time>2019-08-02T07:16:07Z</time>
      </trkpt>
      <trkpt lat="44.36651" lon="5.89581">
        <ele>598</ele>
        <time>2019-08-02T07:16:08Z</time>
      </trkpt>
      <trkpt lat="44.36656" lon="5.89589">
        <ele>598</ele>
        <time>2019-08-02T07:16:09Z</time>
      </trkpt>
      <trkpt lat="44.3666" lon="5.89596">
        <ele>598</ele>
        <time>2019-08-02T07:16:10Z</time>
      </trkpt>
      <trkpt lat="44.36665" lon="5.89604">
        <ele>598</ele>
        <time>2019-08-02T07:16:11Z</time>
      </trkpt>
      <trkpt lat="44.3667" lon="5.89611">
        <ele>598</ele>
        <time>2019-08-02T07:16:12Z</time>
      </trkpt>
      <trkpt lat="44.36675" lon="5.89617">
        <ele>598</ele>
        <time>2019-08-02T07:16:13Z</time>
      </trkpt>
      <trkpt lat="44.36679" lon="5.89624">
        <ele>598</ele>
        <time>2019-08-02T07:16:14Z</time>
      </trkpt>
      <trkpt lat="44.36683" lon="5.8963">
        <ele>598</ele>
        <time>2019-08-02T07:16:15Z</time>
      </trkpt>
      <trkpt lat="44.36687" lon="5.89637">
        <ele>598</ele>
        <time>2019-08-02T07:16:16Z</time>
      </trkpt>
      <trkpt lat="44.36691" lon="5.89643">
        <ele>598</ele>
        <time>2019-08-02T07:16:17Z</time>
      </trkpt>
      <trkpt lat="44.36695" lon="5.89649">
        <ele>598</ele>
        <time>2019-08-02T07:16:18Z</time>
      </trkpt>
      <trkpt lat="44.36699" lon="5.89655">
        <ele>598</ele>
        <time>2019-08-02T07:16:19Z</time>
      </trkpt>
      <trkpt lat="44.36703" lon="5.89662">
        <ele>598</ele>
        <time>2019-08-02T07:16:20Z</time>
      </trkpt>
      <trkpt lat="44.36707" lon="5.89668">
        <ele>598</ele>
        <time>2019-08-02T07:16:21Z</time>
      </trkpt>
      <trkpt lat="44.36711" lon="5.89674">
        <ele>598</ele>
        <time>2019-08-02T07:16:22Z</time>
      </trkpt>
      <trkpt lat="44.36715" lon="5.8968">
        <ele>598</ele>
        <time>2019-08-02T07:16:23Z</time>
      </trkpt>
      <trkpt lat="44.3672" lon="5.89687">
        <ele>598</ele>
        <time>2019-08-02T07:16:24Z</time>
      </trkpt>
      <trkpt lat="44.36724" lon="5.89693">
        <ele>598</ele>
        <time>2019-08-02T07:16:25Z</time>
      </trkpt>
      <trkpt lat="44.36728" lon="5.897">
        <ele>598</ele>
        <time>2019-08-02T07:16:26Z</time>
      </trkpt>
      <trkpt lat="44.36732" lon="5.89706">
        <ele>598</ele>
        <time>2019-08-02T07:16:27Z</time>
      </trkpt>
      <trkpt lat="44.36737" lon="5.89713">
        <ele>598</ele>
        <time>2019-08-02T07:16:28Z</time>
      </trkpt>
      <trkpt lat="44.3674" lon="5.89719">
        <ele>598</ele>
        <time>2019-08-02T07:16:29Z</time>
      </trkpt>
      <trkpt lat="44.36745" lon="5.89726">
        <ele>598</ele>
        <time>2019-08-02T07:16:30Z</time>
      </trkpt>
      <trkpt lat="44.36749" lon="5.89733">
        <ele>598</ele>
        <time>2019-08-02T07:16:31Z</time>
      </trkpt>
      <trkpt lat="44.36753" lon="5.89739">
        <ele>598</ele>
        <time>2019-08-02T07:16:32Z</time>
      </trkpt>
      <trkpt lat="44.36757" lon="5.89746">
        <ele>598</ele>
        <time>2019-08-02T07:16:33Z</time>
      </trkpt>
      <trkpt lat="44.36761" lon="5.89752">
        <ele>598</ele>
        <time>2019-08-02T07:16:34Z</time>
      </trkpt>
      <trkpt lat="44.36765" lon="5.89758">
        <ele>598</ele>
        <time>2019-08-02T07:16:35Z</time>
      </trkpt>
      <trkpt lat="44.36768" lon="5.89764">
        <ele>598</ele>
        <time>2019-08-02T07:16:36Z</time>
      </trkpt>
      <trkpt lat="44.36771" lon="5.89771">
        <ele>598</ele>
        <time>2019-08-02T07:16:37Z</time>
      </trkpt>
      <trkpt lat="44.36774" lon="5.89778">
        <ele>598</ele>
        <time>2019-08-02T07:16:38Z</time>
      </trkpt>
      <trkpt lat="44.36777" lon="5.89786">
        <ele>598</ele>
        <time>2019-08-02T07:16:39Z</time>
      </trkpt>
      <trkpt lat="44.36781" lon="5.89794">
        <ele>598</ele>
        <time>2019-08-02T07:16:40Z</time>
      </trkpt>
      <trkpt lat="44.36784" lon="5.89802">
        <ele>598</ele>
        <time>2019-08-02T07:16:41Z</time>
      </trkpt>
      <trkpt lat="44.36787" lon="5.8981">
        <ele>598</ele>
        <time>2019-08-02T07:16:42Z</time>
      </trkpt>
      <trkpt lat="44.3679" lon="5.89819">
        <ele>598</ele>
        <time>2019-08-02T07:16:43Z</time>
      </trkpt>
      <trkpt lat="44.36793" lon="5.89828">
        <ele>598</ele>
        <time>2019-08-02T07:16:44Z</time>
      </trkpt>
      <trkpt lat="44.36796" lon="5.89837">
        <ele>598</ele>
        <time>2019-08-02T07:16:45Z</time>
      </trkpt>
      <trkpt lat="44.368" lon="5.89846">
        <ele>598</ele>
        <time>2019-08-02T07:16:46Z</time>
      </trkpt>
      <trkpt lat="44.36805" lon="5.89855">
        <ele>598</ele>
        <time>2019-08-02T07:16:47Z</time>
      </trkpt>
      <trkpt lat="44.3681" lon="5.89863">
        <ele>598</ele>
        <time>2019-08-02T07:16:48Z</time>
      </trkpt>
      <trkpt lat="44.36816" lon="5.89872">
        <ele>598</ele>
        <time>2019-08-02T07:16:49Z</time>
      </trkpt>
      <trkpt lat="44.36822" lon="5.8988">
        <ele>598</ele>
        <time>2019-08-02T07:16:50Z</time>
      </trkpt>
      <trkpt lat="44.36829" lon="5.89888">
        <ele>598</ele>
        <time>2019-08-02T07:16:51Z</time>
      </trkpt>
      <trkpt lat="44.36835" lon="5.89896">
        <ele>597</ele>
        <time>2019-08-02T07:16:52Z</time>
      </trkpt>
      <trkpt lat="44.36842" lon="5.89903">
        <ele>597</ele>
        <time>2019-08-02T07:16:54Z</time>
      </trkpt>
      <trkpt lat="44.36849" lon="5.8991">
        <ele>597</ele>
        <time>2019-08-02T07:16:54Z</time>
      </trkpt>
      <trkpt lat="44.36856" lon="5.89916">
        <ele>596</ele>
        <time>2019-08-02T07:16:55Z</time>
      </trkpt>
      <trkpt lat="44.36862" lon="5.89922">
        <ele>596</ele>
        <time>2019-08-02T07:16:56Z</time>
      </trkpt>
      <trkpt lat="44.36869" lon="5.89927">
        <ele>596</ele>
        <time>2019-08-02T07:16:57Z</time>
      </trkpt>
      <trkpt lat="44.36875" lon="5.89931">
        <ele>596</ele>
        <time>2019-08-02T07:16:58Z</time>
      </trkpt>
      <trkpt lat="44.3688" lon="5.89935">
        <ele>596</ele>
        <time>2019-08-02T07:16:59Z</time>
      </trkpt>
      <trkpt lat="44.36885" lon="5.89939">
        <ele>596</ele>
        <time>2019-08-02T07:17:00Z</time>
      </trkpt>
      <trkpt lat="44.36891" lon="5.89943">
        <ele>596</ele>
        <time>2019-08-02T07:17:01Z</time>
      </trkpt>
      <trkpt lat="44.36896" lon="5.89946">
        <ele>596</ele>
        <time>2019-08-02T07:17:02Z</time>
      </trkpt>
      <trkpt lat="44.36902" lon="5.89949">
        <ele>596</ele>
        <time>2019-08-02T07:17:03Z</time>
      </trkpt>
      <trkpt lat="44.36907" lon="5.89951">
        <ele>596</ele>
        <time>2019-08-02T07:17:04Z</time>
      </trkpt>
      <trkpt lat="44.36913" lon="5.89954">
        <ele>596</ele>
        <time>2019-08-02T07:17:05Z</time>
      </trkpt>
      <trkpt lat="44.36918" lon="5.89957">
        <ele>596</ele>
        <time>2019-08-02T07:17:06Z</time>
      </trkpt>
      <trkpt lat="44.36922" lon="5.8996">
        <ele>596</ele>
        <time>2019-08-02T07:17:07Z</time>
      </trkpt>
      <trkpt lat="44.36927" lon="5.89962">
        <ele>596</ele>
        <time>2019-08-02T07:17:08Z</time>
      </trkpt>
      <trkpt lat="44.36932" lon="5.89965">
        <ele>596</ele>
        <time>2019-08-02T07:17:09Z</time>
      </trkpt>
      <trkpt lat="44.36937" lon="5.89968">
        <ele>596</ele>
        <time>2019-08-02T07:17:10Z</time>
      </trkpt>
      <trkpt lat="44.36941" lon="5.8997">
        <ele>596</ele>
        <time>2019-08-02T07:17:11Z</time>
      </trkpt>
      <trkpt lat="44.36946" lon="5.89973">
        <ele>596</ele>
        <time>2019-08-02T07:17:12Z</time>
      </trkpt>
      <trkpt lat="44.3695" lon="5.89976">
        <ele>596</ele>
        <time>2019-08-02T07:17:13Z</time>
      </trkpt>
      <trkpt lat="44.36954" lon="5.89979">
        <ele>596</ele>
        <time>2019-08-02T07:17:14Z</time>
      </trkpt>
      <trkpt lat="44.36959" lon="5.89982">
        <ele>596</ele>
        <time>2019-08-02T07:17:15Z</time>
      </trkpt>
      <trkpt lat="44.36964" lon="5.89984">
        <ele>596</ele>
        <time>2019-08-02T07:17:16Z</time>
      </trkpt>
      <trkpt lat="44.36968" lon="5.89986">
        <ele>596</ele>
        <time>2019-08-02T07:17:17Z</time>
      </trkpt>
      <trkpt lat="44.36973" lon="5.89988">
        <ele>597</ele>
        <time>2019-08-02T07:17:18Z</time>
      </trkpt>
      <trkpt lat="44.36978" lon="5.8999">
        <ele>598</ele>
        <time>2019-08-02T07:17:19Z</time>
      </trkpt>
      <trkpt lat="44.36982" lon="5.89993">
        <ele>598</ele>
        <time>2019-08-02T07:17:20Z</time>
      </trkpt>
      <trkpt lat="44.36986" lon="5.89995">
        <ele>599</ele>
        <time>2019-08-02T07:17:21Z</time>
      </trkpt>
      <trkpt lat="44.3699" lon="5.89996">
        <ele>599</ele>
        <time>2019-08-02T07:17:22Z</time>
      </trkpt>
      <trkpt lat="44.36993" lon="5.89998">
        <ele>599</ele>
        <time>2019-08-02T07:17:23Z</time>
      </trkpt>
      <trkpt lat="44.36997" lon="5.9">
        <ele>599</ele>
        <time>2019-08-02T07:17:24Z</time>
      </trkpt>
      <trkpt lat="44.37001" lon="5.90002">
        <ele>600</ele>
        <time>2019-08-02T07:17:25Z</time>
      </trkpt>
      <trkpt lat="44.37005" lon="5.90004">
        <ele>600</ele>
        <time>2019-08-02T07:17:26Z</time>
      </trkpt>
      <trkpt lat="44.37009" lon="5.90005">
        <ele>600</ele>
        <time>2019-08-02T07:17:27Z</time>
      </trkpt>
      <trkpt lat="44.37013" lon="5.90007">
        <ele>600</ele>
        <time>2019-08-02T07:17:28Z</time>
      </trkpt>
      <trkpt lat="44.37017" lon="5.90009">
        <ele>600</ele>
        <time>2019-08-02T07:17:29Z</time>
      </trkpt>
      <trkpt lat="44.37022" lon="5.9001">
        <ele>601</ele>
        <time>2019-08-02T07:17:30Z</time>
      </trkpt>
      <trkpt lat="44.37027" lon="5.90011">
        <ele>601</ele>
        <time>2019-08-02T07:17:31Z</time>
      </trkpt>
      <trkpt lat="44.37032" lon="5.90012">
        <ele>601</ele>
        <time>2019-08-02T07:17:32Z</time>
      </trkpt>
      <trkpt lat="44.37036" lon="5.90013">
        <ele>601</ele>
        <time>2019-08-02T07:17:33Z</time>
      </trkpt>
      <trkpt lat="44.37041" lon="5.90013">
        <ele>602</ele>
        <time>2019-08-02T07:17:34Z</time>
      </trkpt>
      <trkpt lat="44.37046" lon="5.90013">
        <ele>602</ele>
        <time>2019-08-02T07:17:35Z</time>
      </trkpt>
      <trkpt lat="44.37051" lon="5.90013">
        <ele>602</ele>
        <time>2019-08-02T07:17:36Z</time>
      </trkpt>
      <trkpt lat="44.37057" lon="5.90011">
        <ele>603</ele>
        <time>2019-08-02T07:17:37Z</time>
      </trkpt>
      <trkpt lat="44.37063" lon="5.90009">
        <ele>603</ele>
        <time>2019-08-02T07:17:38Z</time>
      </trkpt>
      <trkpt lat="44.37069" lon="5.90006">
        <ele>603</ele>
        <time>2019-08-02T07:17:39Z</time>
      </trkpt>
      <trkpt lat="44.37076" lon="5.90002">
        <ele>603</ele>
        <time>2019-08-02T07:17:40Z</time>
      </trkpt>
      <trkpt lat="44.37083" lon="5.89998">
        <ele>603</ele>
        <time>2019-08-02T07:17:41Z</time>
      </trkpt>
      <trkpt lat="44.37089" lon="5.89992">
        <ele>603</ele>
        <time>2019-08-02T07:17:42Z</time>
      </trkpt>
      <trkpt lat="44.37096" lon="5.89985">
        <ele>603</ele>
        <time>2019-08-02T07:17:43Z</time>
      </trkpt>
      <trkpt lat="44.37103" lon="5.89978">
        <ele>603</ele>
        <time>2019-08-02T07:17:44Z</time>
      </trkpt>
      <trkpt lat="44.3711" lon="5.8997">
        <ele>603</ele>
        <time>2019-08-02T07:17:45Z</time>
      </trkpt>
      <trkpt lat="44.37117" lon="5.89963">
        <ele>603</ele>
        <time>2019-08-02T07:17:46Z</time>
      </trkpt>
      <trkpt lat="44.37124" lon="5.89957">
        <ele>603</ele>
        <time>2019-08-02T07:17:47Z</time>
      </trkpt>
      <trkpt lat="44.37132" lon="5.89953">
        <ele>603</ele>
        <time>2019-08-02T07:17:48Z</time>
      </trkpt>
      <trkpt lat="44.37139" lon="5.89949">
        <ele>603</ele>
        <time>2019-08-02T07:17:49Z</time>
      </trkpt>
      <trkpt lat="44.37147" lon="5.89947">
        <ele>603</ele>
        <time>2019-08-02T07:17:50Z</time>
      </trkpt>
      <trkpt lat="44.37156" lon="5.89947">
        <ele>603</ele>
        <time>2019-08-02T07:17:51Z</time>
      </trkpt>
      <trkpt lat="44.37163" lon="5.8995">
        <ele>603</ele>
        <time>2019-08-02T07:17:52Z</time>
      </trkpt>
      <trkpt lat="44.3717" lon="5.89955">
        <ele>603</ele>
        <time>2019-08-02T07:17:54Z</time>
      </trkpt>
      <trkpt lat="44.37177" lon="5.8996">
        <ele>603</ele>
        <time>2019-08-02T07:17:54Z</time>
      </trkpt>
      <trkpt lat="44.37183" lon="5.89966">
        <ele>603</ele>
        <time>2019-08-02T07:17:55Z</time>
      </trkpt>
      <trkpt lat="44.37189" lon="5.89973">
        <ele>603</ele>
        <time>2019-08-02T07:17:56Z</time>
      </trkpt>
      <trkpt lat="44.37195" lon="5.89981">
        <ele>603</ele>
        <time>2019-08-02T07:17:57Z</time>
      </trkpt>
      <trkpt lat="44.372" lon="5.89988">
        <ele>603</ele>
        <time>2019-08-02T07:17:58Z</time>
      </trkpt>
      <trkpt lat="44.37205" lon="5.89995">
        <ele>603</ele>
        <time>2019-08-02T07:17:59Z</time>
      </trkpt>
      <trkpt lat="44.3721" lon="5.90002">
        <ele>603</ele>
        <time>2019-08-02T07:18:00Z</time>
      </trkpt>
      <trkpt lat="44.37215" lon="5.90009">
        <ele>603</ele>
        <time>2019-08-02T07:18:01Z</time>
      </trkpt>
      <trkpt lat="44.3722" lon="5.90016">
        <ele>603</ele>
        <time>2019-08-02T07:18:02Z</time>
      </trkpt>
      <trkpt lat="44.37224" lon="5.90022">
        <ele>603</ele>
        <time>2019-08-02T07:18:03Z</time>
      </trkpt>
      <trkpt lat="44.37228" lon="5.90029">
        <ele>603</ele>
        <time>2019-08-02T07:18:04Z</time>
      </trkpt>
      <trkpt lat="44.37232" lon="5.90035">
        <ele>603</ele>
        <time>2019-08-02T07:18:05Z</time>
      </trkpt>
      <trkpt lat="44.37236" lon="5.90041">
        <ele>603</ele>
        <time>2019-08-02T07:18:06Z</time>
      </trkpt>
      <trkpt lat="44.3724" lon="5.90047">
        <ele>603</ele>
        <time>2019-08-02T07:18:07Z</time>
      </trkpt>
      <trkpt lat="44.37245" lon="5.90053">
        <ele>603</ele>
        <time>2019-08-02T07:18:08Z</time>
      </trkpt>
      <trkpt lat="44.37249" lon="5.90059">
        <ele>603</ele>
        <time>2019-08-02T07:18:09Z</time>
      </trkpt>
      <trkpt lat="44.37252" lon="5.90065">
        <ele>603</ele>
        <time>2019-08-02T07:18:10Z</time>
      </trkpt>
      <trkpt lat="44.37256" lon="5.9007">
        <ele>603</ele>
        <time>2019-08-02T07:18:11Z</time>
      </trkpt>
      <trkpt lat="44.37259" lon="5.90075">
        <ele>603</ele>
        <time>2019-08-02T07:18:12Z</time>
      </trkpt>
      <trkpt lat="44.37263" lon="5.9008">
        <ele>603</ele>
        <time>2019-08-02T07:18:13Z</time>
      </trkpt>
      <trkpt lat="44.37267" lon="5.90086">
        <ele>603</ele>
        <time>2019-08-02T07:18:14Z</time>
      </trkpt>
      <trkpt lat="44.37271" lon="5.90091">
        <ele>603</ele>
        <time>2019-08-02T07:18:15Z</time>
      </trkpt>
      <trkpt lat="44.37275" lon="5.90096">
        <ele>603</ele>
        <time>2019-08-02T07:18:16Z</time>
      </trkpt>
      <trkpt lat="44.37278" lon="5.90101">
        <ele>603</ele>
        <time>2019-08-02T07:18:17Z</time>
      </trkpt>
      <trkpt lat="44.37283" lon="5.90106">
        <ele>603</ele>
        <time>2019-08-02T07:18:18Z</time>
      </trkpt>
      <trkpt lat="44.37286" lon="5.90111">
        <ele>603</ele>
        <time>2019-08-02T07:18:19Z</time>
      </trkpt>
      <trkpt lat="44.37291" lon="5.90117">
        <ele>603</ele>
        <time>2019-08-02T07:18:20Z</time>
      </trkpt>
      <trkpt lat="44.37294" lon="5.90122">
        <ele>603</ele>
        <time>2019-08-02T07:18:21Z</time>
      </trkpt>
      <trkpt lat="44.37299" lon="5.90127">
        <ele>603</ele>
        <time>2019-08-02T07:18:22Z</time>
      </trkpt>
      <trkpt lat="44.37303" lon="5.90133">
        <ele>603</ele>
        <time>2019-08-02T07:18:23Z</time>
      </trkpt>
      <trkpt lat="44.37307" lon="5.90137">
        <ele>603</ele>
        <time>2019-08-02T07:18:24Z</time>
      </trkpt>
      <trkpt lat="44.3731" lon="5.90142">
        <ele>603</ele>
        <time>2019-08-02T07:18:25Z</time>
      </trkpt>
      <trkpt lat="44.37314" lon="5.90147">
        <ele>603</ele>
        <time>2019-08-02T07:18:26Z</time>
      </trkpt>
      <trkpt lat="44.37318" lon="5.90152">
        <ele>603</ele>
        <time>2019-08-02T07:18:27Z</time>
      </trkpt>
      <trkpt lat="44.37322" lon="5.90157">
        <ele>603</ele>
        <time>2019-08-02T07:18:28Z</time>
      </trkpt>
      <trkpt lat="44.37326" lon="5.90162">
        <ele>603</ele>
        <time>2019-08-02T07:18:29Z</time>
      </trkpt>
      <trkpt lat="44.37329" lon="5.90166">
        <ele>603</ele>
        <time>2019-08-02T07:18:30Z</time>
      </trkpt>
      <trkpt lat="44.37333" lon="5.90171">
        <ele>603</ele>
        <time>2019-08-02T07:18:31Z</time>
      </trkpt>
      <trkpt lat="44.37336" lon="5.90175">
        <ele>603</ele>
        <time>2019-08-02T07:18:32Z</time>
      </trkpt>
      <trkpt lat="44.3734" lon="5.90179">
        <ele>603</ele>
        <time>2019-08-02T07:18:33Z</time>
      </trkpt>
      <trkpt lat="44.37344" lon="5.90184">
        <ele>604</ele>
        <time>2019-08-02T07:18:34Z</time>
      </trkpt>
      <trkpt lat="44.37347" lon="5.90189">
        <ele>604</ele>
        <time>2019-08-02T07:18:35Z</time>
      </trkpt>
      <trkpt lat="44.3735" lon="5.90194">
        <ele>604</ele>
        <time>2019-08-02T07:18:36Z</time>
      </trkpt>
      <trkpt lat="44.37354" lon="5.90198">
        <ele>605</ele>
        <time>2019-08-02T07:18:37Z</time>
      </trkpt>
      <trkpt lat="44.37358" lon="5.90202">
        <ele>605</ele>
        <time>2019-08-02T07:18:38Z</time>
      </trkpt>
      <trkpt lat="44.37361" lon="5.90206">
        <ele>605</ele>
        <time>2019-08-02T07:18:39Z</time>
      </trkpt>
      <trkpt lat="44.37365" lon="5.90211">
        <ele>606</ele>
        <time>2019-08-02T07:18:40Z</time>
      </trkpt>
      <trkpt lat="44.37368" lon="5.90215">
        <ele>606</ele>
        <time>2019-08-02T07:18:41Z</time>
      </trkpt>
      <trkpt lat="44.37371" lon="5.9022">
        <ele>606</ele>
        <time>2019-08-02T07:18:42Z</time>
      </trkpt>
      <trkpt lat="44.37375" lon="5.90224">
        <ele>606</ele>
        <time>2019-08-02T07:18:43Z</time>
      </trkpt>
      <trkpt lat="44.37378" lon="5.90229">
        <ele>607</ele>
        <time>2019-08-02T07:18:44Z</time>
      </trkpt>
      <trkpt lat="44.37382" lon="5.90233">
        <ele>607</ele>
        <time>2019-08-02T07:18:45Z</time>
      </trkpt>
      <trkpt lat="44.37386" lon="5.90238">
        <ele>607</ele>
        <time>2019-08-02T07:18:46Z</time>
      </trkpt>
      <trkpt lat="44.37389" lon="5.90242">
        <ele>607</ele>
        <time>2019-08-02T07:18:47Z</time>
      </trkpt>
      <trkpt lat="44.37393" lon="5.90247">
        <ele>607</ele>
        <time>2019-08-02T07:18:48Z</time>
      </trkpt>
      <trkpt lat="44.37397" lon="5.90252">
        <ele>608</ele>
        <time>2019-08-02T07:18:49Z</time>
      </trkpt>
      <trkpt lat="44.374" lon="5.90257">
        <ele>608</ele>
        <time>2019-08-02T07:18:50Z</time>
      </trkpt>
      <trkpt lat="44.37404" lon="5.90261">
        <ele>608</ele>
        <time>2019-08-02T07:18:51Z</time>
      </trkpt>
      <trkpt lat="44.37407" lon="5.90265">
        <ele>608</ele>
        <time>2019-08-02T07:18:52Z</time>
      </trkpt>
      <trkpt lat="44.37411" lon="5.90269">
        <ele>609</ele>
        <time>2019-08-02T07:18:54Z</time>
      </trkpt>
      <trkpt lat="44.37415" lon="5.90274">
        <ele>609</ele>
        <time>2019-08-02T07:18:54Z</time>
      </trkpt>
      <trkpt lat="44.37418" lon="5.90278">
        <ele>609</ele>
        <time>2019-08-02T07:18:55Z</time>
      </trkpt>
      <trkpt lat="44.37422" lon="5.90282">
        <ele>609</ele>
        <time>2019-08-02T07:18:56Z</time>
      </trkpt>
      <trkpt lat="44.37426" lon="5.90287">
        <ele>609</ele>
        <time>2019-08-02T07:18:57Z</time>
      </trkpt>
      <trkpt lat="44.37429" lon="5.90291">
        <ele>609</ele>
        <time>2019-08-02T07:18:58Z</time>
      </trkpt>
      <trkpt lat="44.37432" lon="5.90296">
        <ele>609</ele>
        <time>2019-08-02T07:18:59Z</time>
      </trkpt>
      <trkpt lat="44.37436" lon="5.903">
        <ele>610</ele>
        <time>2019-08-02T07:19:00Z</time>
      </trkpt>
      <trkpt lat="44.37439" lon="5.90304">
        <ele>610</ele>
        <time>2019-08-02T07:19:01Z</time>
      </trkpt>
      <trkpt lat="44.37442" lon="5.90308">
        <ele>610</ele>
        <time>2019-08-02T07:19:02Z</time>
      </trkpt>
      <trkpt lat="44.37446" lon="5.90313">
        <ele>610</ele>
        <time>2019-08-02T07:19:03Z</time>
      </trkpt>
      <trkpt lat="44.37449" lon="5.90317">
        <ele>611</ele>
        <time>2019-08-02T07:19:04Z</time>
      </trkpt>
      <trkpt lat="44.37452" lon="5.90321">
        <ele>611</ele>
        <time>2019-08-02T07:19:05Z</time>
      </trkpt>
      <trkpt lat="44.37455" lon="5.90325">
        <ele>611</ele>
        <time>2019-08-02T07:19:06Z</time>
      </trkpt>
      <trkpt lat="44.37458" lon="5.9033">
        <ele>611</ele>
        <time>2019-08-02T07:19:07Z</time>
      </trkpt>
      <trkpt lat="44.37462" lon="5.90334">
        <ele>611</ele>
        <time>2019-08-02T07:19:08Z</time>
      </trkpt>
      <trkpt lat="44.37465" lon="5.90338">
        <ele>611</ele>
        <time>2019-08-02T07:19:09Z</time>
      </trkpt>
      <trkpt lat="44.37468" lon="5.90343">
        <ele>611</ele>
        <time>2019-08-02T07:19:10Z</time>
      </trkpt>
      <trkpt lat="44.37472" lon="5.90347">
        <ele>611</ele>
        <time>2019-08-02T07:19:11Z</time>
      </trkpt>
      <trkpt lat="44.37475" lon="5.90351">
        <ele>612</ele>
        <time>2019-08-02T07:19:12Z</time>
      </trkpt>
      <trkpt lat="44.37479" lon="5.90356">
        <ele>612</ele>
        <time>2019-08-02T07:19:13Z</time>
      </trkpt>
      <trkpt lat="44.37482" lon="5.90361">
        <ele>612</ele>
        <time>2019-08-02T07:19:14Z</time>
      </trkpt>
      <trkpt lat="44.37486" lon="5.90366">
        <ele>612</ele>
        <time>2019-08-02T07:19:15Z</time>
      </trkpt>
      <trkpt lat="44.37489" lon="5.9037">
        <ele>612</ele>
        <time>2019-08-02T07:19:16Z</time>
      </trkpt>
      <trkpt lat="44.37493" lon="5.90375">
        <ele>612</ele>
        <time>2019-08-02T07:19:17Z</time>
      </trkpt>
      <trkpt lat="44.37497" lon="5.9038">
        <ele>612</ele>
        <time>2019-08-02T07:19:18Z</time>
      </trkpt>
      <trkpt lat="44.37501" lon="5.90384">
        <ele>612</ele>
        <time>2019-08-02T07:19:19Z</time>
      </trkpt>
      <trkpt lat="44.37505" lon="5.90389">
        <ele>612</ele>
        <time>2019-08-02T07:19:20Z</time>
      </trkpt>
      <trkpt lat="44.37508" lon="5.90394">
        <ele>612</ele>
        <time>2019-08-02T07:19:21Z</time>
      </trkpt>
      <trkpt lat="44.37512" lon="5.90399">
        <ele>612</ele>
        <time>2019-08-02T07:19:22Z</time>
      </trkpt>
      <trkpt lat="44.37516" lon="5.90404">
        <ele>612</ele>
        <time>2019-08-02T07:19:23Z</time>
      </trkpt>
      <trkpt lat="44.3752" lon="5.90409">
        <ele>612</ele>
        <time>2019-08-02T07:19:24Z</time>
      </trkpt>
      <trkpt lat="44.37524" lon="5.90414">
        <ele>612</ele>
        <time>2019-08-02T07:19:25Z</time>
      </trkpt>
      <trkpt lat="44.37527" lon="5.90418">
        <ele>612</ele>
        <time>2019-08-02T07:19:26Z</time>
      </trkpt>
      <trkpt lat="44.37531" lon="5.90423">
        <ele>612</ele>
        <time>2019-08-02T07:19:27Z</time>
      </trkpt>
      <trkpt lat="44.37535" lon="5.90428">
        <ele>612</ele>
        <time>2019-08-02T07:19:28Z</time>
      </trkpt>
      <trkpt lat="44.37539" lon="5.90433">
        <ele>612</ele>
        <time>2019-08-02T07:19:29Z</time>
      </trkpt>
      <trkpt lat="44.37543" lon="5.90437">
        <ele>612</ele>
        <time>2019-08-02T07:19:30Z</time>
      </trkpt>
      <trkpt lat="44.37548" lon="5.90442">
        <ele>612</ele>
        <time>2019-08-02T07:19:31Z</time>
      </trkpt>
      <trkpt lat="44.37552" lon="5.90446">
        <ele>612</ele>
        <time>2019-08-02T07:19:32Z</time>
      </trkpt>
      <trkpt lat="44.37557" lon="5.9045">
        <ele>612</ele>
        <time>2019-08-02T07:19:33Z</time>
      </trkpt>
      <trkpt lat="44.37562" lon="5.90454">
        <ele>612</ele>
        <time>2019-08-02T07:19:34Z</time>
      </trkpt>
      <trkpt lat="44.37567" lon="5.90458">
        <ele>612</ele>
        <time>2019-08-02T07:19:35Z</time>
      </trkpt>
      <trkpt lat="44.37572" lon="5.90462">
        <ele>612</ele>
        <time>2019-08-02T07:19:36Z</time>
      </trkpt>
      <trkpt lat="44.37578" lon="5.90466">
        <ele>612</ele>
        <time>2019-08-02T07:19:37Z</time>
      </trkpt>
      <trkpt lat="44.37584" lon="5.90469">
        <ele>612</ele>
        <time>2019-08-02T07:19:38Z</time>
      </trkpt>
      <trkpt lat="44.37589" lon="5.90473">
        <ele>612</ele>
        <time>2019-08-02T07:19:39Z</time>
      </trkpt>
      <trkpt lat="44.37595" lon="5.90477">
        <ele>612</ele>
        <time>2019-08-02T07:19:40Z</time>
      </trkpt>
      <trkpt lat="44.37601" lon="5.90481">
        <ele>612</ele>
        <time>2019-08-02T07:19:41Z</time>
      </trkpt>
      <trkpt lat="44.37607" lon="5.90485">
        <ele>612</ele>
        <time>2019-08-02T07:19:42Z</time>
      </trkpt>
      <trkpt lat="44.37614" lon="5.90488">
        <ele>612</ele>
        <time>2019-08-02T07:19:43Z</time>
      </trkpt>
      <trkpt lat="44.3762" lon="5.90492">
        <ele>612</ele>
        <time>2019-08-02T07:19:44Z</time>
      </trkpt>
      <trkpt lat="44.37626" lon="5.90496">
        <ele>613</ele>
        <time>2019-08-02T07:19:45Z</time>
      </trkpt>
      <trkpt lat="44.37632" lon="5.905">
        <ele>613</ele>
        <time>2019-08-02T07:19:46Z</time>
      </trkpt>
      <trkpt lat="44.37638" lon="5.90504">
        <ele>613</ele>
        <time>2019-08-02T07:19:47Z</time>
      </trkpt>
      <trkpt lat="44.37645" lon="5.90508">
        <ele>613</ele>
        <time>2019-08-02T07:19:48Z</time>
      </trkpt>
      <trkpt lat="44.37651" lon="5.90512">
        <ele>613</ele>
        <time>2019-08-02T07:19:49Z</time>
      </trkpt>
      <trkpt lat="44.37657" lon="5.90516">
        <ele>613</ele>
        <time>2019-08-02T07:19:50Z</time>
      </trkpt>
      <trkpt lat="44.37663" lon="5.9052">
        <ele>613</ele>
        <time>2019-08-02T07:19:51Z</time>
      </trkpt>
      <trkpt lat="44.37669" lon="5.90525">
        <ele>613</ele>
        <time>2019-08-02T07:19:52Z</time>
      </trkpt>
      <trkpt lat="44.37675" lon="5.90529">
        <ele>613</ele>
        <time>2019-08-02T07:19:54Z</time>
      </trkpt>
      <trkpt lat="44.37682" lon="5.90534">
        <ele>613</ele>
        <time>2019-08-02T07:19:54Z</time>
      </trkpt>
      <trkpt lat="44.37688" lon="5.9054">
        <ele>613</ele>
        <time>2019-08-02T07:19:55Z</time>
      </trkpt>
      <trkpt lat="44.37693" lon="5.90545">
        <ele>613</ele>
        <time>2019-08-02T07:19:56Z</time>
      </trkpt>
      <trkpt lat="44.37699" lon="5.90551">
        <ele>613</ele>
        <time>2019-08-02T07:19:57Z</time>
      </trkpt>
      <trkpt lat="44.37704" lon="5.90558">
        <ele>613</ele>
        <time>2019-08-02T07:19:58Z</time>
      </trkpt>
      <trkpt lat="44.3771" lon="5.90564">
        <ele>613</ele>
        <time>2019-08-02T07:19:59Z</time>
      </trkpt>
      <trkpt lat="44.37714" lon="5.90571">
        <ele>613</ele>
        <time>2019-08-02T07:20:00Z</time>
      </trkpt>
      <trkpt lat="44.37719" lon="5.90579">
        <ele>613</ele>
        <time>2019-08-02T07:20:01Z</time>
      </trkpt>
      <trkpt lat="44.37724" lon="5.90586">
        <ele>613</ele>
        <time>2019-08-02T07:20:02Z</time>
      </trkpt>
      <trkpt lat="44.37729" lon="5.90593">
        <ele>613</ele>
        <time>2019-08-02T07:20:03Z</time>
      </trkpt>
      <trkpt lat="44.37733" lon="5.906">
        <ele>613</ele>
        <time>2019-08-02T07:20:04Z</time>
      </trkpt>
      <trkpt lat="44.37738" lon="5.90607">
        <ele>613</ele>
        <time>2019-08-02T07:20:05Z</time>
      </trkpt>
      <trkpt lat="44.37742" lon="5.90615">
        <ele>613</ele>
        <time>2019-08-02T07:20:06Z</time>
      </trkpt>
      <trkpt lat="44.37747" lon="5.90622">
        <ele>613</ele>
        <time>2019-08-02T07:20:07Z</time>
      </trkpt>
      <trkpt lat="44.37753" lon="5.90628">
        <ele>613</ele>
        <time>2019-08-02T07:20:08Z</time>
      </trkpt>
      <trkpt lat="44.37758" lon="5.90635">
        <ele>613</ele>
        <time>2019-08-02T07:20:09Z</time>
      </trkpt>
      <trkpt lat="44.37763" lon="5.90641">
        <ele>613</ele>
        <time>2019-08-02T07:20:10Z</time>
      </trkpt>
      <trkpt lat="44.37769" lon="5.90647">
        <ele>613</ele>
        <time>2019-08-02T07:20:11Z</time>
      </trkpt>
      <trkpt lat="44.37775" lon="5.90653">
        <ele>613</ele>
        <time>2019-08-02T07:20:12Z</time>
      </trkpt>
      <trkpt lat="44.37782" lon="5.90659">
        <ele>613</ele>
        <time>2019-08-02T07:20:13Z</time>
      </trkpt>
      <trkpt lat="44.37788" lon="5.90665">
        <ele>613</ele>
        <time>2019-08-02T07:20:14Z</time>
      </trkpt>
      <trkpt lat="44.37794" lon="5.90671">
        <ele>613</ele>
        <time>2019-08-02T07:20:15Z</time>
      </trkpt>
      <trkpt lat="44.378" lon="5.90677">
        <ele>613</ele>
        <time>2019-08-02T07:20:16Z</time>
      </trkpt>
      <trkpt lat="44.37806" lon="5.90683">
        <ele>613</ele>
        <time>2019-08-02T07:20:17Z</time>
      </trkpt>
      <trkpt lat="44.37812" lon="5.90688">
        <ele>613</ele>
        <time>2019-08-02T07:20:18Z</time>
      </trkpt>
      <trkpt lat="44.37819" lon="5.90694">
        <ele>613</ele>
        <time>2019-08-02T07:20:19Z</time>
      </trkpt>
      <trkpt lat="44.37825" lon="5.907">
        <ele>613</ele>
        <time>2019-08-02T07:20:20Z</time>
      </trkpt>
      <trkpt lat="44.37831" lon="5.90706">
        <ele>613</ele>
        <time>2019-08-02T07:20:21Z</time>
      </trkpt>
      <trkpt lat="44.37837" lon="5.90712">
        <ele>613</ele>
        <time>2019-08-02T07:20:22Z</time>
      </trkpt>
      <trkpt lat="44.37843" lon="5.90718">
        <ele>613</ele>
        <time>2019-08-02T07:20:23Z</time>
      </trkpt>
      <trkpt lat="44.37849" lon="5.90723">
        <ele>613</ele>
        <time>2019-08-02T07:20:24Z</time>
      </trkpt>
      <trkpt lat="44.37856" lon="5.90729">
        <ele>613</ele>
        <time>2019-08-02T07:20:25Z</time>
      </trkpt>
      <trkpt lat="44.37862" lon="5.90734">
        <ele>613</ele>
        <time>2019-08-02T07:20:26Z</time>
      </trkpt>
      <trkpt lat="44.37867" lon="5.9074">
        <ele>613</ele>
        <time>2019-08-02T07:20:27Z</time>
      </trkpt>
      <trkpt lat="44.37873" lon="5.90746">
        <ele>613</ele>
        <time>2019-08-02T07:20:28Z</time>
      </trkpt>
      <trkpt lat="44.37879" lon="5.90752">
        <ele>613</ele>
        <time>2019-08-02T07:20:29Z</time>
      </trkpt>
      <trkpt lat="44.37885" lon="5.90757">
        <ele>613</ele>
        <time>2019-08-02T07:20:30Z</time>
      </trkpt>
      <trkpt lat="44.37891" lon="5.90763">
        <ele>613</ele>
        <time>2019-08-02T07:20:31Z</time>
      </trkpt>
      <trkpt lat="44.37897" lon="5.90768">
        <ele>613</ele>
        <time>2019-08-02T07:20:32Z</time>
      </trkpt>
      <trkpt lat="44.37903" lon="5.90774">
        <ele>613</ele>
        <time>2019-08-02T07:20:33Z</time>
      </trkpt>
      <trkpt lat="44.37909" lon="5.9078">
        <ele>613</ele>
        <time>2019-08-02T07:20:34Z</time>
      </trkpt>
      <trkpt lat="44.37914" lon="5.90787">
        <ele>613</ele>
        <time>2019-08-02T07:20:35Z</time>
      </trkpt>
      <trkpt lat="44.3792" lon="5.90793">
        <ele>612</ele>
        <time>2019-08-02T07:20:36Z</time>
      </trkpt>
      <trkpt lat="44.37925" lon="5.908">
        <ele>612</ele>
        <time>2019-08-02T07:20:37Z</time>
      </trkpt>
      <trkpt lat="44.3793" lon="5.90808">
        <ele>612</ele>
        <time>2019-08-02T07:20:38Z</time>
      </trkpt>
      <trkpt lat="44.37934" lon="5.90815">
        <ele>612</ele>
        <time>2019-08-02T07:20:39Z</time>
      </trkpt>
      <trkpt lat="44.37939" lon="5.90823">
        <ele>612</ele>
        <time>2019-08-02T07:20:40Z</time>
      </trkpt>
      <trkpt lat="44.37943" lon="5.90832">
        <ele>612</ele>
        <time>2019-08-02T07:20:41Z</time>
      </trkpt>
      <trkpt lat="44.37946" lon="5.90841">
        <ele>611</ele>
        <time>2019-08-02T07:20:42Z</time>
      </trkpt>
      <trkpt lat="44.3795" lon="5.9085">
        <ele>611</ele>
        <time>2019-08-02T07:20:43Z</time>
      </trkpt>
      <trkpt lat="44.37954" lon="5.90859">
        <ele>611</ele>
        <time>2019-08-02T07:20:44Z</time>
      </trkpt>
      <trkpt lat="44.37957" lon="5.90868">
        <ele>611</ele>
        <time>2019-08-02T07:20:45Z</time>
      </trkpt>
      <trkpt lat="44.37961" lon="5.90877">
        <ele>611</ele>
        <time>2019-08-02T07:20:46Z</time>
      </trkpt>
      <trkpt lat="44.37965" lon="5.90886">
        <ele>611</ele>
        <time>2019-08-02T07:20:47Z</time>
      </trkpt>
      <trkpt lat="44.37969" lon="5.90895">
        <ele>611</ele>
        <time>2019-08-02T07:20:48Z</time>
      </trkpt>
      <trkpt lat="44.37973" lon="5.90904">
        <ele>610</ele>
        <time>2019-08-02T07:20:49Z</time>
      </trkpt>
      <trkpt lat="44.37977" lon="5.90912">
        <ele>610</ele>
        <time>2019-08-02T07:20:50Z</time>
      </trkpt>
      <trkpt lat="44.37981" lon="5.90921">
        <ele>610</ele>
        <time>2019-08-02T07:20:51Z</time>
      </trkpt>
      <trkpt lat="44.37985" lon="5.9093">
        <ele>610</ele>
        <time>2019-08-02T07:20:52Z</time>
      </trkpt>
      <trkpt lat="44.37989" lon="5.90939">
        <ele>610</ele>
        <time>2019-08-02T07:20:54Z</time>
      </trkpt>
      <trkpt lat="44.37993" lon="5.90947">
        <ele>610</ele>
        <time>2019-08-02T07:20:54Z</time>
      </trkpt>
      <trkpt lat="44.37997" lon="5.90956">
        <ele>610</ele>
        <time>2019-08-02T07:20:55Z</time>
      </trkpt>
      <trkpt lat="44.38001" lon="5.90965">
        <ele>610</ele>
        <time>2019-08-02T07:20:56Z</time>
      </trkpt>
      <trkpt lat="44.38005" lon="5.90974">
        <ele>610</ele>
        <time>2019-08-02T07:20:57Z</time>
      </trkpt>
      <trkpt lat="44.38009" lon="5.90982">
        <ele>610</ele>
        <time>2019-08-02T07:20:58Z</time>
      </trkpt>
      <trkpt lat="44.38013" lon="5.90991">
        <ele>610</ele>
        <time>2019-08-02T07:20:59Z</time>
      </trkpt>
      <trkpt lat="44.38017" lon="5.91">
        <ele>610</ele>
        <time>2019-08-02T07:21:00Z</time>
      </trkpt>
      <trkpt lat="44.3802" lon="5.91009">
        <ele>610</ele>
        <time>2019-08-02T07:21:01Z</time>
      </trkpt>
      <trkpt lat="44.38024" lon="5.91017">
        <ele>610</ele>
        <time>2019-08-02T07:21:02Z</time>
      </trkpt>
      <trkpt lat="44.38028" lon="5.91026">
        <ele>610</ele>
        <time>2019-08-02T07:21:03Z</time>
      </trkpt>
      <trkpt lat="44.38031" lon="5.91035">
        <ele>610</ele>
        <time>2019-08-02T07:21:04Z</time>
      </trkpt>
      <trkpt lat="44.38034" lon="5.91044">
        <ele>610</ele>
        <time>2019-08-02T07:21:05Z</time>
      </trkpt>
      <trkpt lat="44.38038" lon="5.91053">
        <ele>610</ele>
        <time>2019-08-02T07:21:06Z</time>
      </trkpt>
      <trkpt lat="44.38041" lon="5.91061">
        <ele>610</ele>
        <time>2019-08-02T07:21:07Z</time>
      </trkpt>
      <trkpt lat="44.38045" lon="5.9107">
        <ele>610</ele>
        <time>2019-08-02T07:21:08Z</time>
      </trkpt>
      <trkpt lat="44.38048" lon="5.91079">
        <ele>610</ele>
        <time>2019-08-02T07:21:09Z</time>
      </trkpt>
      <trkpt lat="44.38052" lon="5.91087">
        <ele>610</ele>
        <time>2019-08-02T07:21:10Z</time>
      </trkpt>
      <trkpt lat="44.38055" lon="5.91096">
        <ele>610</ele>
        <time>2019-08-02T07:21:11Z</time>
      </trkpt>
      <trkpt lat="44.38059" lon="5.91105">
        <ele>610</ele>
        <time>2019-08-02T07:21:12Z</time>
      </trkpt>
      <trkpt lat="44.38062" lon="5.91114">
        <ele>610</ele>
        <time>2019-08-02T07:21:13Z</time>
      </trkpt>
      <trkpt lat="44.38066" lon="5.91122">
        <ele>610</ele>
        <time>2019-08-02T07:21:14Z</time>
      </trkpt>
      <trkpt lat="44.38069" lon="5.91131">
        <ele>610</ele>
        <time>2019-08-02T07:21:15Z</time>
      </trkpt>
      <trkpt lat="44.38073" lon="5.9114">
        <ele>610</ele>
        <time>2019-08-02T07:21:16Z</time>
      </trkpt>
      <trkpt lat="44.38076" lon="5.91149">
        <ele>610</ele>
        <time>2019-08-02T07:21:17Z</time>
      </trkpt>
      <trkpt lat="44.3808" lon="5.91158">
        <ele>610</ele>
        <time>2019-08-02T07:21:18Z</time>
      </trkpt>
      <trkpt lat="44.38084" lon="5.91167">
        <ele>610</ele>
        <time>2019-08-02T07:21:19Z</time>
      </trkpt>
      <trkpt lat="44.38087" lon="5.91177">
        <ele>610</ele>
        <time>2019-08-02T07:21:20Z</time>
      </trkpt>
      <trkpt lat="44.38091" lon="5.91186">
        <ele>609</ele>
        <time>2019-08-02T07:21:21Z</time>
      </trkpt>
      <trkpt lat="44.38095" lon="5.91195">
        <ele>609</ele>
        <time>2019-08-02T07:21:22Z</time>
      </trkpt>
      <trkpt lat="44.38098" lon="5.91204">
        <ele>609</ele>
        <time>2019-08-02T07:21:23Z</time>
      </trkpt>
      <trkpt lat="44.38102" lon="5.91213">
        <ele>609</ele>
        <time>2019-08-02T07:21:24Z</time>
      </trkpt>
      <trkpt lat="44.38106" lon="5.91222">
        <ele>609</ele>
        <time>2019-08-02T07:21:25Z</time>
      </trkpt>
      <trkpt lat="44.38109" lon="5.9123">
        <ele>609</ele>
        <time>2019-08-02T07:21:26Z</time>
      </trkpt>
      <trkpt lat="44.38113" lon="5.91239">
        <ele>609</ele>
        <time>2019-08-02T07:21:27Z</time>
      </trkpt>
      <trkpt lat="44.38116" lon="5.91248">
        <ele>609</ele>
        <time>2019-08-02T07:21:28Z</time>
      </trkpt>
      <trkpt lat="44.3812" lon="5.91257">
        <ele>609</ele>
        <time>2019-08-02T07:21:29Z</time>
      </trkpt>
      <trkpt lat="44.38123" lon="5.91265">
        <ele>609</ele>
        <time>2019-08-02T07:21:30Z</time>
      </trkpt>
      <trkpt lat="44.38127" lon="5.91274">
        <ele>609</ele>
        <time>2019-08-02T07:21:31Z</time>
      </trkpt>
      <trkpt lat="44.3813" lon="5.91283">
        <ele>609</ele>
        <time>2019-08-02T07:21:32Z</time>
      </trkpt>
      <trkpt lat="44.38134" lon="5.91292">
        <ele>609</ele>
        <time>2019-08-02T07:21:33Z</time>
      </trkpt>
      <trkpt lat="44.38137" lon="5.913">
        <ele>609</ele>
        <time>2019-08-02T07:21:34Z</time>
      </trkpt>
      <trkpt lat="44.3814" lon="5.91309">
        <ele>609</ele>
        <time>2019-08-02T07:21:35Z</time>
      </trkpt>
      <trkpt lat="44.38144" lon="5.91317">
        <ele>609</ele>
        <time>2019-08-02T07:21:36Z</time>
      </trkpt>
      <trkpt lat="44.38148" lon="5.91326">
        <ele>609</ele>
        <time>2019-08-02T07:21:37Z</time>
      </trkpt>
      <trkpt lat="44.38151" lon="5.91335">
        <ele>609</ele>
        <time>2019-08-02T07:21:38Z</time>
      </trkpt>
      <trkpt lat="44.38155" lon="5.91343">
        <ele>609</ele>
        <time>2019-08-02T07:21:39Z</time>
      </trkpt>
      <trkpt lat="44.38158" lon="5.91352">
        <ele>609</ele>
        <time>2019-08-02T07:21:40Z</time>
      </trkpt>
      <trkpt lat="44.38162" lon="5.9136">
        <ele>609</ele>
        <time>2019-08-02T07:21:41Z</time>
      </trkpt>
      <trkpt lat="44.38166" lon="5.91369">
        <ele>609</ele>
        <time>2019-08-02T07:21:42Z</time>
      </trkpt>
      <trkpt lat="44.3817" lon="5.91377">
        <ele>609</ele>
        <time>2019-08-02T07:21:43Z</time>
      </trkpt>
      <trkpt lat="44.38174" lon="5.91385">
        <ele>609</ele>
        <time>2019-08-02T07:21:44Z</time>
      </trkpt>
      <trkpt lat="44.38178" lon="5.91393">
        <ele>608</ele>
        <time>2019-08-02T07:21:45Z</time>
      </trkpt>
      <trkpt lat="44.38182" lon="5.91401">
        <ele>608</ele>
        <time>2019-08-02T07:21:46Z</time>
      </trkpt>
      <trkpt lat="44.38187" lon="5.9141">
        <ele>608</ele>
        <time>2019-08-02T07:21:47Z</time>
      </trkpt>
      <trkpt lat="44.38191" lon="5.91418">
        <ele>608</ele>
        <time>2019-08-02T07:21:48Z</time>
      </trkpt>
      <trkpt lat="44.38195" lon="5.91426">
        <ele>608</ele>
        <time>2019-08-02T07:21:49Z</time>
      </trkpt>
      <trkpt lat="44.382" lon="5.91434">
        <ele>608</ele>
        <time>2019-08-02T07:21:50Z</time>
      </trkpt>
      <trkpt lat="44.38205" lon="5.91442">
        <ele>608</ele>
        <time>2019-08-02T07:21:51Z</time>
      </trkpt>
      <trkpt lat="44.38209" lon="5.91451">
        <ele>608</ele>
        <time>2019-08-02T07:21:52Z</time>
      </trkpt>
      <trkpt lat="44.38213" lon="5.91459">
        <ele>608</ele>
        <time>2019-08-02T07:21:54Z</time>
      </trkpt>
      <trkpt lat="44.38218" lon="5.91467">
        <ele>608</ele>
        <time>2019-08-02T07:21:54Z</time>
      </trkpt>
      <trkpt lat="44.38222" lon="5.91475">
        <ele>608</ele>
        <time>2019-08-02T07:21:55Z</time>
      </trkpt>
      <trkpt lat="44.38227" lon="5.91483">
        <ele>608</ele>
        <time>2019-08-02T07:21:56Z</time>
      </trkpt>
      <trkpt lat="44.38231" lon="5.91491">
        <ele>608</ele>
        <time>2019-08-02T07:21:57Z</time>
      </trkpt>
      <trkpt lat="44.38235" lon="5.91499">
        <ele>608</ele>
        <time>2019-08-02T07:21:58Z</time>
      </trkpt>
      <trkpt lat="44.3824" lon="5.91507">
        <ele>608</ele>
        <time>2019-08-02T07:21:59Z</time>
      </trkpt>
      <trkpt lat="44.38244" lon="5.91515">
        <ele>608</ele>
        <time>2019-08-02T07:22:00Z</time>
      </trkpt>
      <trkpt lat="44.38248" lon="5.91523">
        <ele>608</ele>
        <time>2019-08-02T07:22:01Z</time>
      </trkpt>
      <trkpt lat="44.38252" lon="5.91531">
        <ele>608</ele>
        <time>2019-08-02T07:22:02Z</time>
      </trkpt>
      <trkpt lat="44.38256" lon="5.91538">
        <ele>608</ele>
        <time>2019-08-02T07:22:03Z</time>
      </trkpt>
      <trkpt lat="44.3826" lon="5.91546">
        <ele>608</ele>
        <time>2019-08-02T07:22:04Z</time>
      </trkpt>
      <trkpt lat="44.38264" lon="5.91554">
        <ele>608</ele>
        <time>2019-08-02T07:22:05Z</time>
      </trkpt>
      <trkpt lat="44.38269" lon="5.91561">
        <ele>608</ele>
        <time>2019-08-02T07:22:06Z</time>
      </trkpt>
      <trkpt lat="44.38272" lon="5.91569">
        <ele>608</ele>
        <time>2019-08-02T07:22:07Z</time>
      </trkpt>
      <trkpt lat="44.38276" lon="5.91576">
        <ele>608</ele>
        <time>2019-08-02T07:22:08Z</time>
      </trkpt>
      <trkpt lat="44.3828" lon="5.91584">
        <ele>608</ele>
        <time>2019-08-02T07:22:09Z</time>
      </trkpt>
      <trkpt lat="44.38285" lon="5.91592">
        <ele>608</ele>
        <time>2019-08-02T07:22:10Z</time>
      </trkpt>
      <trkpt lat="44.38288" lon="5.91599">
        <ele>608</ele>
        <time>2019-08-02T07:22:11Z</time>
      </trkpt>
      <trkpt lat="44.38293" lon="5.91607">
        <ele>608</ele>
        <time>2019-08-02T07:22:12Z</time>
      </trkpt>
      <trkpt lat="44.38297" lon="5.91615">
        <ele>608</ele>
        <time>2019-08-02T07:22:13Z</time>
      </trkpt>
      <trkpt lat="44.38301" lon="5.91623">
        <ele>608</ele>
        <time>2019-08-02T07:22:14Z</time>
      </trkpt>
      <trkpt lat="44.38306" lon="5.91631">
        <ele>608</ele>
        <time>2019-08-02T07:22:15Z</time>
      </trkpt>
      <trkpt lat="44.3831" lon="5.91639">
        <ele>608</ele>
        <time>2019-08-02T07:22:16Z</time>
      </trkpt>
      <trkpt lat="44.38314" lon="5.91646">
        <ele>608</ele>
        <time>2019-08-02T07:22:17Z</time>
      </trkpt>
      <trkpt lat="44.38318" lon="5.91654">
        <ele>608</ele>
        <time>2019-08-02T07:22:18Z</time>
      </trkpt>
      <trkpt lat="44.38322" lon="5.91663">
        <ele>608</ele>
        <time>2019-08-02T07:22:19Z</time>
      </trkpt>
      <trkpt lat="44.38327" lon="5.91671">
        <ele>608</ele>
        <time>2019-08-02T07:22:20Z</time>
      </trkpt>
      <trkpt lat="44.38331" lon="5.91679">
        <ele>608</ele>
        <time>2019-08-02T07:22:21Z</time>
      </trkpt>
      <trkpt lat="44.38335" lon="5.91687">
        <ele>608</ele>
        <time>2019-08-02T07:22:22Z</time>
      </trkpt>
      <trkpt lat="44.3834" lon="5.91695">
        <ele>608</ele>
        <time>2019-08-02T07:22:23Z</time>
      </trkpt>
      <trkpt lat="44.38345" lon="5.91703">
        <ele>608</ele>
        <time>2019-08-02T07:22:24Z</time>
      </trkpt>
      <trkpt lat="44.38349" lon="5.91711">
        <ele>608</ele>
        <time>2019-08-02T07:22:25Z</time>
      </trkpt>
      <trkpt lat="44.38353" lon="5.91719">
        <ele>608</ele>
        <time>2019-08-02T07:22:26Z</time>
      </trkpt>
      <trkpt lat="44.38358" lon="5.91727">
        <ele>608</ele>
        <time>2019-08-02T07:22:27Z</time>
      </trkpt>
      <trkpt lat="44.38362" lon="5.91735">
        <ele>608</ele>
        <time>2019-08-02T07:22:28Z</time>
      </trkpt>
      <trkpt lat="44.38366" lon="5.91743">
        <ele>608</ele>
        <time>2019-08-02T07:22:29Z</time>
      </trkpt>
      <trkpt lat="44.38371" lon="5.91751">
        <ele>608</ele>
        <time>2019-08-02T07:22:30Z</time>
      </trkpt>
      <trkpt lat="44.38375" lon="5.91759">
        <ele>608</ele>
        <time>2019-08-02T07:22:31Z</time>
      </trkpt>
      <trkpt lat="44.3838" lon="5.91767">
        <ele>608</ele>
        <time>2019-08-02T07:22:32Z</time>
      </trkpt>
      <trkpt lat="44.38384" lon="5.91775">
        <ele>608</ele>
        <time>2019-08-02T07:22:33Z</time>
      </trkpt>
      <trkpt lat="44.38388" lon="5.91783">
        <ele>608</ele>
        <time>2019-08-02T07:22:34Z</time>
      </trkpt>
      <trkpt lat="44.38393" lon="5.91791">
        <ele>608</ele>
        <time>2019-08-02T07:22:35Z</time>
      </trkpt>
      <trkpt lat="44.38397" lon="5.91799">
        <ele>608</ele>
        <time>2019-08-02T07:22:36Z</time>
      </trkpt>
      <trkpt lat="44.38401" lon="5.91808">
        <ele>607</ele>
        <time>2019-08-02T07:22:37Z</time>
      </trkpt>
      <trkpt lat="44.38405" lon="5.91816">
        <ele>607</ele>
        <time>2019-08-02T07:22:38Z</time>
      </trkpt>
      <trkpt lat="44.38409" lon="5.91824">
        <ele>607</ele>
        <time>2019-08-02T07:22:39Z</time>
      </trkpt>
      <trkpt lat="44.38414" lon="5.91832">
        <ele>607</ele>
        <time>2019-08-02T07:22:40Z</time>
      </trkpt>
      <trkpt lat="44.38419" lon="5.91841">
        <ele>606</ele>
        <time>2019-08-02T07:22:41Z</time>
      </trkpt>
      <trkpt lat="44.38423" lon="5.9185">
        <ele>606</ele>
        <time>2019-08-02T07:22:42Z</time>
      </trkpt>
      <trkpt lat="44.38428" lon="5.91859">
        <ele>606</ele>
        <time>2019-08-02T07:22:43Z</time>
      </trkpt>
      <trkpt lat="44.38433" lon="5.91867">
        <ele>606</ele>
        <time>2019-08-02T07:22:44Z</time>
      </trkpt>
      <trkpt lat="44.38438" lon="5.91876">
        <ele>605</ele>
        <time>2019-08-02T07:22:45Z</time>
      </trkpt>
      <trkpt lat="44.38442" lon="5.91885">
        <ele>605</ele>
        <time>2019-08-02T07:22:46Z</time>
      </trkpt>
      <trkpt lat="44.38447" lon="5.91894">
        <ele>605</ele>
        <time>2019-08-02T07:22:47Z</time>
      </trkpt>
      <trkpt lat="44.38452" lon="5.91903">
        <ele>605</ele>
        <time>2019-08-02T07:22:48Z</time>
      </trkpt>
      <trkpt lat="44.38456" lon="5.91912">
        <ele>604</ele>
        <time>2019-08-02T07:22:49Z</time>
      </trkpt>
      <trkpt lat="44.38461" lon="5.91921">
        <ele>604</ele>
        <time>2019-08-02T07:22:50Z</time>
      </trkpt>
      <trkpt lat="44.38466" lon="5.91929">
        <ele>604</ele>
        <time>2019-08-02T07:22:51Z</time>
      </trkpt>
      <trkpt lat="44.3847" lon="5.91938">
        <ele>604</ele>
        <time>2019-08-02T07:22:52Z</time>
      </trkpt>
      <trkpt lat="44.38475" lon="5.91947">
        <ele>604</ele>
        <time>2019-08-02T07:22:54Z</time>
      </trkpt>
      <trkpt lat="44.3848" lon="5.91956">
        <ele>604</ele>
        <time>2019-08-02T07:22:54Z</time>
      </trkpt>
      <trkpt lat="44.38485" lon="5.91965">
        <ele>604</ele>
        <time>2019-08-02T07:22:55Z</time>
      </trkpt>
      <trkpt lat="44.3849" lon="5.91974">
        <ele>604</ele>
        <time>2019-08-02T07:22:56Z</time>
      </trkpt>
      <trkpt lat="44.38494" lon="5.91983">
        <ele>603</ele>
        <time>2019-08-02T07:22:57Z</time>
      </trkpt>
      <trkpt lat="44.38499" lon="5.91992">
        <ele>603</ele>
        <time>2019-08-02T07:22:58Z</time>
      </trkpt>
      <trkpt lat="44.38504" lon="5.92001">
        <ele>603</ele>
        <time>2019-08-02T07:22:59Z</time>
      </trkpt>
      <trkpt lat="44.38509" lon="5.9201">
        <ele>603</ele>
        <time>2019-08-02T07:23:00Z</time>
      </trkpt>
      <trkpt lat="44.38514" lon="5.9202">
        <ele>603</ele>
        <time>2019-08-02T07:23:01Z</time>
      </trkpt>
      <trkpt lat="44.38519" lon="5.92029">
        <ele>602</ele>
        <time>2019-08-02T07:23:02Z</time>
      </trkpt>
      <trkpt lat="44.38524" lon="5.92039">
        <ele>602</ele>
        <time>2019-08-02T07:23:03Z</time>
      </trkpt>
      <trkpt lat="44.38529" lon="5.92048">
        <ele>602</ele>
        <time>2019-08-02T07:23:04Z</time>
      </trkpt>
      <trkpt lat="44.38534" lon="5.92057">
        <ele>602</ele>
        <time>2019-08-02T07:23:05Z</time>
      </trkpt>
      <trkpt lat="44.38539" lon="5.92066">
        <ele>602</ele>
        <time>2019-08-02T07:23:06Z</time>
      </trkpt>
      <trkpt lat="44.38544" lon="5.92076">
        <ele>602</ele>
        <time>2019-08-02T07:23:07Z</time>
      </trkpt>
      <trkpt lat="44.38549" lon="5.92085">
        <ele>602</ele>
        <time>2019-08-02T07:23:08Z</time>
      </trkpt>
      <trkpt lat="44.38554" lon="5.92094">
        <ele>602</ele>
        <time>2019-08-02T07:23:09Z</time>
      </trkpt>
      <trkpt lat="44.38558" lon="5.92103">
        <ele>602</ele>
        <time>2019-08-02T07:23:10Z</time>
      </trkpt>
      <trkpt lat="44.38562" lon="5.92113">
        <ele>602</ele>
        <time>2019-08-02T07:23:11Z</time>
      </trkpt>
      <trkpt lat="44.38566" lon="5.92122">
        <ele>602</ele>
        <time>2019-08-02T07:23:12Z</time>
      </trkpt>
      <trkpt lat="44.38569" lon="5.92132">
        <ele>602</ele>
        <time>2019-08-02T07:23:13Z</time>
      </trkpt>
      <trkpt lat="44.38572" lon="5.92142">
        <ele>602</ele>
        <time>2019-08-02T07:23:14Z</time>
      </trkpt>
      <trkpt lat="44.38575" lon="5.92152">
        <ele>602</ele>
        <time>2019-08-02T07:23:15Z</time>
      </trkpt>
      <trkpt lat="44.38578" lon="5.92161">
        <ele>602</ele>
        <time>2019-08-02T07:23:16Z</time>
      </trkpt>
      <trkpt lat="44.38581" lon="5.92171">
        <ele>602</ele>
        <time>2019-08-02T07:23:17Z</time>
      </trkpt>
      <trkpt lat="44.38584" lon="5.9218">
        <ele>602</ele>
        <time>2019-08-02T07:23:18Z</time>
      </trkpt>
      <trkpt lat="44.38586" lon="5.9219">
        <ele>602</ele>
        <time>2019-08-02T07:23:19Z</time>
      </trkpt>
      <trkpt lat="44.38589" lon="5.92199">
        <ele>602</ele>
        <time>2019-08-02T07:23:20Z</time>
      </trkpt>
      <trkpt lat="44.38592" lon="5.92208">
        <ele>602</ele>
        <time>2019-08-02T07:23:21Z</time>
      </trkpt>
      <trkpt lat="44.38594" lon="5.92217">
        <ele>602</ele>
        <time>2019-08-02T07:23:22Z</time>
      </trkpt>
      <trkpt lat="44.38597" lon="5.92226">
        <ele>602</ele>
        <time>2019-08-02T07:23:23Z</time>
      </trkpt>
      <trkpt lat="44.386" lon="5.92235">
        <ele>602</ele>
        <time>2019-08-02T07:23:24Z</time>
      </trkpt>
      <trkpt lat="44.38603" lon="5.92243">
        <ele>602</ele>
        <time>2019-08-02T07:23:25Z</time>
      </trkpt>
      <trkpt lat="44.38605" lon="5.92251">
        <ele>602</ele>
        <time>2019-08-02T07:23:26Z</time>
      </trkpt>
      <trkpt lat="44.38608" lon="5.92259">
        <ele>602</ele>
        <time>2019-08-02T07:23:27Z</time>
      </trkpt>
      <trkpt lat="44.38611" lon="5.92267">
        <ele>602</ele>
        <time>2019-08-02T07:23:28Z</time>
      </trkpt>
      <trkpt lat="44.38614" lon="5.92275">
        <ele>602</ele>
        <time>2019-08-02T07:23:29Z</time>
      </trkpt>
      <trkpt lat="44.38617" lon="5.92282">
        <ele>602</ele>
        <time>2019-08-02T07:23:30Z</time>
      </trkpt>
      <trkpt lat="44.3862" lon="5.92289">
        <ele>602</ele>
        <time>2019-08-02T07:23:31Z</time>
      </trkpt>
      <trkpt lat="44.38623" lon="5.92296">
        <ele>602</ele>
        <time>2019-08-02T07:23:32Z</time>
      </trkpt>
      <trkpt lat="44.38625" lon="5.92304">
        <ele>602</ele>
        <time>2019-08-02T07:23:33Z</time>
      </trkpt>
      <trkpt lat="44.38628" lon="5.92311">
        <ele>602</ele>
        <time>2019-08-02T07:23:34Z</time>
      </trkpt>
      <trkpt lat="44.38631" lon="5.92318">
        <ele>602</ele>
        <time>2019-08-02T07:23:35Z</time>
      </trkpt>
      <trkpt lat="44.38634" lon="5.92325">
        <ele>602</ele>
        <time>2019-08-02T07:23:36Z</time>
      </trkpt>
      <trkpt lat="44.38637" lon="5.92332">
        <ele>602</ele>
        <time>2019-08-02T07:23:37Z</time>
      </trkpt>
      <trkpt lat="44.38639" lon="5.92339">
        <ele>602</ele>
        <time>2019-08-02T07:23:38Z</time>
      </trkpt>
      <trkpt lat="44.38642" lon="5.92346">
        <ele>602</ele>
        <time>2019-08-02T07:23:39Z</time>
      </trkpt>
      <trkpt lat="44.38645" lon="5.92354">
        <ele>602</ele>
        <time>2019-08-02T07:23:40Z</time>
      </trkpt>
      <trkpt lat="44.38647" lon="5.92362">
        <ele>602</ele>
        <time>2019-08-02T07:23:41Z</time>
      </trkpt>
      <trkpt lat="44.38649" lon="5.9237">
        <ele>602</ele>
        <time>2019-08-02T07:23:42Z</time>
      </trkpt>
      <trkpt lat="44.38651" lon="5.92378">
        <ele>602</ele>
        <time>2019-08-02T07:23:43Z</time>
      </trkpt>
      <trkpt lat="44.38653" lon="5.92386">
        <ele>602</ele>
        <time>2019-08-02T07:23:44Z</time>
      </trkpt>
      <trkpt lat="44.38655" lon="5.92394">
        <ele>602</ele>
        <time>2019-08-02T07:23:45Z</time>
      </trkpt>
      <trkpt lat="44.38656" lon="5.92403">
        <ele>602</ele>
        <time>2019-08-02T07:23:46Z</time>
      </trkpt>
      <trkpt lat="44.38657" lon="5.92411">
        <ele>602</ele>
        <time>2019-08-02T07:23:47Z</time>
      </trkpt>
      <trkpt lat="44.38658" lon="5.9242">
        <ele>602</ele>
        <time>2019-08-02T07:23:48Z</time>
      </trkpt>
      <trkpt lat="44.38658" lon="5.92429">
        <ele>602</ele>
        <time>2019-08-02T07:23:49Z</time>
      </trkpt>
      <trkpt lat="44.38659" lon="5.92438">
        <ele>602</ele>
        <time>2019-08-02T07:23:50Z</time>
      </trkpt>
      <trkpt lat="44.3866" lon="5.92447">
        <ele>602</ele>
        <time>2019-08-02T07:23:51Z</time>
      </trkpt>
      <trkpt lat="44.3866" lon="5.92456">
        <ele>602</ele>
        <time>2019-08-02T07:23:52Z</time>
      </trkpt>
      <trkpt lat="44.3866" lon="5.92465">
        <ele>602</ele>
        <time>2019-08-02T07:23:54Z</time>
      </trkpt>
      <trkpt lat="44.38661" lon="5.92475">
        <ele>602</ele>
        <time>2019-08-02T07:23:54Z</time>
      </trkpt>
      <trkpt lat="44.38661" lon="5.92484">
        <ele>602</ele>
        <time>2019-08-02T07:23:55Z</time>
      </trkpt>
      <trkpt lat="44.38661" lon="5.92493">
        <ele>602</ele>
        <time>2019-08-02T07:23:56Z</time>
      </trkpt>
      <trkpt lat="44.38661" lon="5.92503">
        <ele>602</ele>
        <time>2019-08-02T07:23:57Z</time>
      </trkpt>
      <trkpt lat="44.38662" lon="5.92512">
        <ele>602</ele>
        <time>2019-08-02T07:23:58Z</time>
      </trkpt>
      <trkpt lat="44.38662" lon="5.92522">
        <ele>602</ele>
        <time>2019-08-02T07:23:59Z</time>
      </trkpt>
      <trkpt lat="44.38662" lon="5.92531">
        <ele>602</ele>
        <time>2019-08-02T07:24:00Z</time>
      </trkpt>
      <trkpt lat="44.38663" lon="5.92541">
        <ele>602</ele>
        <time>2019-08-02T07:24:01Z</time>
      </trkpt>
      <trkpt lat="44.38664" lon="5.92551">
        <ele>602</ele>
        <time>2019-08-02T07:24:02Z</time>
      </trkpt>
      <trkpt lat="44.38665" lon="5.92561">
        <ele>602</ele>
        <time>2019-08-02T07:24:03Z</time>
      </trkpt>
      <trkpt lat="44.38667" lon="5.92571">
        <ele>602</ele>
        <time>2019-08-02T07:24:04Z</time>
      </trkpt>
      <trkpt lat="44.38669" lon="5.92582">
        <ele>602</ele>
        <time>2019-08-02T07:24:05Z</time>
      </trkpt>
      <trkpt lat="44.38672" lon="5.92592">
        <ele>602</ele>
        <time>2019-08-02T07:24:06Z</time>
      </trkpt>
      <trkpt lat="44.38674" lon="5.92603">
        <ele>602</ele>
        <time>2019-08-02T07:24:07Z</time>
      </trkpt>
      <trkpt lat="44.38677" lon="5.92614">
        <ele>602</ele>
        <time>2019-08-02T07:24:08Z</time>
      </trkpt>
      <trkpt lat="44.38679" lon="5.92625">
        <ele>602</ele>
        <time>2019-08-02T07:24:09Z</time>
      </trkpt>
      <trkpt lat="44.38682" lon="5.92636">
        <ele>602</ele>
        <time>2019-08-02T07:24:10Z</time>
      </trkpt>
      <trkpt lat="44.38685" lon="5.92648">
        <ele>602</ele>
        <time>2019-08-02T07:24:11Z</time>
      </trkpt>
      <trkpt lat="44.38688" lon="5.92659">
        <ele>601</ele>
        <time>2019-08-02T07:24:12Z</time>
      </trkpt>
      <trkpt lat="44.3869" lon="5.92671">
        <ele>601</ele>
        <time>2019-08-02T07:24:13Z</time>
      </trkpt>
      <trkpt lat="44.38693" lon="5.92683">
        <ele>601</ele>
        <time>2019-08-02T07:24:14Z</time>
      </trkpt>
      <trkpt lat="44.38695" lon="5.92695">
        <ele>600</ele>
        <time>2019-08-02T07:24:15Z</time>
      </trkpt>
      <trkpt lat="44.38696" lon="5.92707">
        <ele>600</ele>
        <time>2019-08-02T07:24:16Z</time>
      </trkpt>
      <trkpt lat="44.38696" lon="5.92719">
        <ele>600</ele>
        <time>2019-08-02T07:24:17Z</time>
      </trkpt>
      <trkpt lat="44.38696" lon="5.92732">
        <ele>599</ele>
        <time>2019-08-02T07:24:18Z</time>
      </trkpt>
      <trkpt lat="44.38695" lon="5.92743">
        <ele>599</ele>
        <time>2019-08-02T07:24:19Z</time>
      </trkpt>
      <trkpt lat="44.38693" lon="5.92755">
        <ele>599</ele>
        <time>2019-08-02T07:24:20Z</time>
      </trkpt>
      <trkpt lat="44.38691" lon="5.92767">
        <ele>598</ele>
        <time>2019-08-02T07:24:21Z</time>
      </trkpt>
      <trkpt lat="44.38689" lon="5.92778">
        <ele>598</ele>
        <time>2019-08-02T07:24:22Z</time>
      </trkpt>
      <trkpt lat="44.38687" lon="5.92789">
        <ele>598</ele>
        <time>2019-08-02T07:24:23Z</time>
      </trkpt>
      <trkpt lat="44.38685" lon="5.928">
        <ele>598</ele>
        <time>2019-08-02T07:24:24Z</time>
      </trkpt>
      <trkpt lat="44.38683" lon="5.92811">
        <ele>598</ele>
        <time>2019-08-02T07:24:25Z</time>
      </trkpt>
      <trkpt lat="44.38682" lon="5.92822">
        <ele>597</ele>
        <time>2019-08-02T07:24:26Z</time>
      </trkpt>
      <trkpt lat="44.38682" lon="5.92833">
        <ele>597</ele>
        <time>2019-08-02T07:24:27Z</time>
      </trkpt>
      <trkpt lat="44.38682" lon="5.92843">
        <ele>597</ele>
        <time>2019-08-02T07:24:28Z</time>
      </trkpt>
      <trkpt lat="44.38682" lon="5.92854">
        <ele>597</ele>
        <time>2019-08-02T07:24:29Z</time>
      </trkpt>
      <trkpt lat="44.38682" lon="5.92864">
        <ele>597</ele>
        <time>2019-08-02T07:24:30Z</time>
      </trkpt>
      <trkpt lat="44.38682" lon="5.92875">
        <ele>597</ele>
        <time>2019-08-02T07:24:31Z</time>
      </trkpt>
      <trkpt lat="44.38682" lon="5.92885">
        <ele>597</ele>
        <time>2019-08-02T07:24:32Z</time>
      </trkpt>
      <trkpt lat="44.38681" lon="5.92896">
        <ele>596</ele>
        <time>2019-08-02T07:24:33Z</time>
      </trkpt>
      <trkpt lat="44.3868" lon="5.92906">
        <ele>596</ele>
        <time>2019-08-02T07:24:34Z</time>
      </trkpt>
      <trkpt lat="44.38678" lon="5.92916">
        <ele>596</ele>
        <time>2019-08-02T07:24:35Z</time>
      </trkpt>
      <trkpt lat="44.38676" lon="5.92927">
        <ele>596</ele>
        <time>2019-08-02T07:24:36Z</time>
      </trkpt>
      <trkpt lat="44.38674" lon="5.92937">
        <ele>596</ele>
        <time>2019-08-02T07:24:37Z</time>
      </trkpt>
      <trkpt lat="44.38671" lon="5.92947">
        <ele>595</ele>
        <time>2019-08-02T07:24:38Z</time>
      </trkpt>
      <trkpt lat="44.38669" lon="5.92957">
        <ele>595</ele>
        <time>2019-08-02T07:24:39Z</time>
      </trkpt>
      <trkpt lat="44.38667" lon="5.92967">
        <ele>595</ele>
        <time>2019-08-02T07:24:40Z</time>
      </trkpt>
      <trkpt lat="44.38665" lon="5.92978">
        <ele>595</ele>
        <time>2019-08-02T07:24:41Z</time>
      </trkpt>
      <trkpt lat="44.38663" lon="5.92988">
        <ele>595</ele>
        <time>2019-08-02T07:24:42Z</time>
      </trkpt>
      <trkpt lat="44.38663" lon="5.92999">
        <ele>595</ele>
        <time>2019-08-02T07:24:43Z</time>
      </trkpt>
      <trkpt lat="44.38663" lon="5.9301">
        <ele>595</ele>
        <time>2019-08-02T07:24:44Z</time>
      </trkpt>
      <trkpt lat="44.38663" lon="5.9302">
        <ele>594</ele>
        <time>2019-08-02T07:24:45Z</time>
      </trkpt>
      <trkpt lat="44.38664" lon="5.93031">
        <ele>594</ele>
        <time>2019-08-02T07:24:46Z</time>
      </trkpt>
      <trkpt lat="44.38665" lon="5.93042">
        <ele>594</ele>
        <time>2019-08-02T07:24:47Z</time>
      </trkpt>
      <trkpt lat="44.38667" lon="5.93052">
        <ele>594</ele>
        <time>2019-08-02T07:24:48Z</time>
      </trkpt>
      <trkpt lat="44.38669" lon="5.93063">
        <ele>594</ele>
        <time>2019-08-02T07:24:49Z</time>
      </trkpt>
      <trkpt lat="44.38671" lon="5.93074">
        <ele>594</ele>
        <time>2019-08-02T07:24:50Z</time>
      </trkpt>
      <trkpt lat="44.38673" lon="5.93084">
        <ele>593</ele>
        <time>2019-08-02T07:24:51Z</time>
      </trkpt>
      <trkpt lat="44.38676" lon="5.93095">
        <ele>593</ele>
        <time>2019-08-02T07:24:52Z</time>
      </trkpt>
      <trkpt lat="44.38678" lon="5.93106">
        <ele>593</ele>
        <time>2019-08-02T07:24:54Z</time>
      </trkpt>
      <trkpt lat="44.3868" lon="5.93116">
        <ele>593</ele>
        <time>2019-08-02T07:24:54Z</time>
      </trkpt>
      <trkpt lat="44.38681" lon="5.93127">
        <ele>593</ele>
        <time>2019-08-02T07:24:55Z</time>
      </trkpt>
      <trkpt lat="44.38684" lon="5.93138">
        <ele>593</ele>
        <time>2019-08-02T07:24:56Z</time>
      </trkpt>
      <trkpt lat="44.38686" lon="5.93148">
        <ele>593</ele>
        <time>2019-08-02T07:24:57Z</time>
      </trkpt>
      <trkpt lat="44.38688" lon="5.93159">
        <ele>592</ele>
        <time>2019-08-02T07:24:58Z</time>
      </trkpt>
      <trkpt lat="44.3869" lon="5.9317">
        <ele>592</ele>
        <time>2019-08-02T07:24:59Z</time>
      </trkpt>
      <trkpt lat="44.38693" lon="5.9318">
        <ele>592</ele>
        <time>2019-08-02T07:25:00Z</time>
      </trkpt>
      <trkpt lat="44.38695" lon="5.9319">
        <ele>592</ele>
        <time>2019-08-02T07:25:01Z</time>
      </trkpt>
      <trkpt lat="44.38698" lon="5.93201">
        <ele>592</ele>
        <time>2019-08-02T07:25:02Z</time>
      </trkpt>
      <trkpt lat="44.38701" lon="5.93211">
        <ele>592</ele>
        <time>2019-08-02T07:25:03Z</time>
      </trkpt>
      <trkpt lat="44.38704" lon="5.93222">
        <ele>592</ele>
        <time>2019-08-02T07:25:04Z</time>
      </trkpt>
      <trkpt lat="44.38707" lon="5.93232">
        <ele>591</ele>
        <time>2019-08-02T07:25:05Z</time>
      </trkpt>
      <trkpt lat="44.38709" lon="5.93243">
        <ele>591</ele>
        <time>2019-08-02T07:25:06Z</time>
      </trkpt>
      <trkpt lat="44.38712" lon="5.93254">
        <ele>591</ele>
        <time>2019-08-02T07:25:07Z</time>
      </trkpt>
      <trkpt lat="44.38715" lon="5.93264">
        <ele>591</ele>
        <time>2019-08-02T07:25:08Z</time>
      </trkpt>
      <trkpt lat="44.38717" lon="5.93275">
        <ele>590</ele>
        <time>2019-08-02T07:25:09Z</time>
      </trkpt>
      <trkpt lat="44.38719" lon="5.93286">
        <ele>590</ele>
        <time>2019-08-02T07:25:10Z</time>
      </trkpt>
      <trkpt lat="44.38721" lon="5.93297">
        <ele>590</ele>
        <time>2019-08-02T07:25:11Z</time>
      </trkpt>
      <trkpt lat="44.38722" lon="5.93309">
        <ele>590</ele>
        <time>2019-08-02T07:25:12Z</time>
      </trkpt>
      <trkpt lat="44.38723" lon="5.9332">
        <ele>589</ele>
        <time>2019-08-02T07:25:13Z</time>
      </trkpt>
      <trkpt lat="44.38723" lon="5.93332">
        <ele>589</ele>
        <time>2019-08-02T07:25:14Z</time>
      </trkpt>
      <trkpt lat="44.38723" lon="5.93343">
        <ele>589</ele>
        <time>2019-08-02T07:25:15Z</time>
      </trkpt>
      <trkpt lat="44.38723" lon="5.93355">
        <ele>589</ele>
        <time>2019-08-02T07:25:16Z</time>
      </trkpt>
      <trkpt lat="44.38722" lon="5.93366">
        <ele>589</ele>
        <time>2019-08-02T07:25:17Z</time>
      </trkpt>
      <trkpt lat="44.38721" lon="5.93377">
        <ele>588</ele>
        <time>2019-08-02T07:25:18Z</time>
      </trkpt>
      <trkpt lat="44.3872" lon="5.93389">
        <ele>588</ele>
        <time>2019-08-02T07:25:19Z</time>
      </trkpt>
      <trkpt lat="44.3872" lon="5.934">
        <ele>588</ele>
        <time>2019-08-02T07:25:20Z</time>
      </trkpt>
      <trkpt lat="44.38719" lon="5.93412">
        <ele>588</ele>
        <time>2019-08-02T07:25:21Z</time>
      </trkpt>
      <trkpt lat="44.38718" lon="5.93424">
        <ele>587</ele>
        <time>2019-08-02T07:25:22Z</time>
      </trkpt>
      <trkpt lat="44.38717" lon="5.93436">
        <ele>587</ele>
        <time>2019-08-02T07:25:23Z</time>
      </trkpt>
      <trkpt lat="44.38716" lon="5.93449">
        <ele>587</ele>
        <time>2019-08-02T07:25:24Z</time>
      </trkpt>
      <trkpt lat="44.38715" lon="5.93461">
        <ele>586</ele>
        <time>2019-08-02T07:25:25Z</time>
      </trkpt>
      <trkpt lat="44.38714" lon="5.93474">
        <ele>586</ele>
        <time>2019-08-02T07:25:26Z</time>
      </trkpt>
      <trkpt lat="44.38713" lon="5.93486">
        <ele>585</ele>
        <time>2019-08-02T07:25:27Z</time>
      </trkpt>
      <trkpt lat="44.38713" lon="5.935">
        <ele>585</ele>
        <time>2019-08-02T07:25:28Z</time>
      </trkpt>
      <trkpt lat="44.38712" lon="5.93512">
        <ele>584</ele>
        <time>2019-08-02T07:25:29Z</time>
      </trkpt>
      <trkpt lat="44.38711" lon="5.93525">
        <ele>584</ele>
        <time>2019-08-02T07:25:30Z</time>
      </trkpt>
      <trkpt lat="44.3871" lon="5.93538">
        <ele>584</ele>
        <time>2019-08-02T07:25:31Z</time>
      </trkpt>
      <trkpt lat="44.38709" lon="5.9355">
        <ele>583</ele>
        <time>2019-08-02T07:25:32Z</time>
      </trkpt>
      <trkpt lat="44.38708" lon="5.93562">
        <ele>583</ele>
        <time>2019-08-02T07:25:33Z</time>
      </trkpt>
      <trkpt lat="44.38708" lon="5.93572">
        <ele>583</ele>
        <time>2019-08-02T07:25:34Z</time>
      </trkpt>
      <trkpt lat="44.38707" lon="5.93581">
        <ele>582</ele>
        <time>2019-08-02T07:25:35Z</time>
      </trkpt>
      <trkpt lat="44.38706" lon="5.93588">
        <ele>582</ele>
        <time>2019-08-02T07:25:36Z</time>
      </trkpt>
      <trkpt lat="44.38704" lon="5.93592">
        <ele>582</ele>
        <time>2019-08-02T07:25:37Z</time>
      </trkpt>
      <trkpt lat="44.387" lon="5.93592">
        <ele>582</ele>
        <time>2019-08-02T07:25:38Z</time>
      </trkpt>
      <trkpt lat="44.38695" lon="5.9359">
        <ele>582</ele>
        <time>2019-08-02T07:25:39Z</time>
      </trkpt>
      <trkpt lat="44.38691" lon="5.93586">
        <ele>582</ele>
        <time>2019-08-02T07:25:40Z</time>
      </trkpt>
      <trkpt lat="44.38686" lon="5.93582">
        <ele>582</ele>
        <time>2019-08-02T07:25:41Z</time>
      </trkpt>
      <trkpt lat="44.38681" lon="5.93578">
        <ele>582</ele>
        <time>2019-08-02T07:25:42Z</time>
      </trkpt>
      <trkpt lat="44.38676" lon="5.93574">
        <ele>581</ele>
        <time>2019-08-02T07:25:43Z</time>
      </trkpt>
      <trkpt lat="44.3867" lon="5.9357">
        <ele>581</ele>
        <time>2019-08-02T07:25:44Z</time>
      </trkpt>
      <trkpt lat="44.38664" lon="5.93566">
        <ele>581</ele>
        <time>2019-08-02T07:25:45Z</time>
      </trkpt>
      <trkpt lat="44.38657" lon="5.93562">
        <ele>581</ele>
        <time>2019-08-02T07:25:46Z</time>
      </trkpt>
      <trkpt lat="44.38651" lon="5.93558">
        <ele>581</ele>
        <time>2019-08-02T07:25:47Z</time>
      </trkpt>
      <trkpt lat="44.38644" lon="5.93553">
        <ele>580</ele>
        <time>2019-08-02T07:25:48Z</time>
      </trkpt>
      <trkpt lat="44.38637" lon="5.93549">
        <ele>580</ele>
        <time>2019-08-02T07:25:49Z</time>
      </trkpt>
      <trkpt lat="44.3863" lon="5.93544">
        <ele>580</ele>
        <time>2019-08-02T07:25:50Z</time>
      </trkpt>
      <trkpt lat="44.38623" lon="5.93539">
        <ele>580</ele>
        <time>2019-08-02T07:25:51Z</time>
      </trkpt>
      <trkpt lat="44.38615" lon="5.93534">
        <ele>580</ele>
        <time>2019-08-02T07:25:52Z</time>
      </trkpt>
      <trkpt lat="44.38608" lon="5.93528">
        <ele>579</ele>
        <time>2019-08-02T07:25:54Z</time>
      </trkpt>
      <trkpt lat="44.38601" lon="5.93522">
        <ele>579</ele>
        <time>2019-08-02T07:25:54Z</time>
      </trkpt>
      <trkpt lat="44.38593" lon="5.93516">
        <ele>579</ele>
        <time>2019-08-02T07:25:55Z</time>
      </trkpt>
      <trkpt lat="44.38585" lon="5.9351">
        <ele>578</ele>
        <time>2019-08-02T07:25:56Z</time>
      </trkpt>
      <trkpt lat="44.38577" lon="5.93504">
        <ele>578</ele>
        <time>2019-08-02T07:25:57Z</time>
      </trkpt>
      <trkpt lat="44.38569" lon="5.93498">
        <ele>577</ele>
        <time>2019-08-02T07:25:58Z</time>
      </trkpt>
      <trkpt lat="44.38561" lon="5.93491">
        <ele>577</ele>
        <time>2019-08-02T07:25:59Z</time>
      </trkpt>
      <trkpt lat="44.38554" lon="5.93485">
        <ele>577</ele>
        <time>2019-08-02T07:26:00Z</time>
      </trkpt>
      <trkpt lat="44.38546" lon="5.93479">
        <ele>576</ele>
        <time>2019-08-02T07:26:01Z</time>
      </trkpt>
      <trkpt lat="44.38538" lon="5.93473">
        <ele>576</ele>
        <time>2019-08-02T07:26:02Z</time>
      </trkpt>
      <trkpt lat="44.38531" lon="5.93467">
        <ele>575</ele>
        <time>2019-08-02T07:26:03Z</time>
      </trkpt>
      <trkpt lat="44.38523" lon="5.93462">
        <ele>574</ele>
        <time>2019-08-02T07:26:04Z</time>
      </trkpt>
      <trkpt lat="44.38515" lon="5.93456">
        <ele>574</ele>
        <time>2019-08-02T07:26:05Z</time>
      </trkpt>
      <trkpt lat="44.38508" lon="5.9345">
        <ele>573</ele>
        <time>2019-08-02T07:26:06Z</time>
      </trkpt>
      <trkpt lat="44.385" lon="5.93445">
        <ele>573</ele>
        <time>2019-08-02T07:26:07Z</time>
      </trkpt>
      <trkpt lat="44.38493" lon="5.9344">
        <ele>573</ele>
        <time>2019-08-02T07:26:08Z</time>
      </trkpt>
      <trkpt lat="44.38485" lon="5.93434">
        <ele>573</ele>
        <time>2019-08-02T07:26:09Z</time>
      </trkpt>
      <trkpt lat="44.38478" lon="5.93429">
        <ele>573</ele>
        <time>2019-08-02T07:26:10Z</time>
      </trkpt>
      <trkpt lat="44.38471" lon="5.93424">
        <ele>573</ele>
        <time>2019-08-02T07:26:11Z</time>
      </trkpt>
      <trkpt lat="44.38463" lon="5.93418">
        <ele>573</ele>
        <time>2019-08-02T07:26:12Z</time>
      </trkpt>
      <trkpt lat="44.38456" lon="5.93413">
        <ele>573</ele>
        <time>2019-08-02T07:26:13Z</time>
      </trkpt>
      <trkpt lat="44.38449" lon="5.93409">
        <ele>573</ele>
        <time>2019-08-02T07:26:14Z</time>
      </trkpt>
      <trkpt lat="44.38441" lon="5.93404">
        <ele>573</ele>
        <time>2019-08-02T07:26:15Z</time>
      </trkpt>
      <trkpt lat="44.38434" lon="5.93399">
        <ele>573</ele>
        <time>2019-08-02T07:26:16Z</time>
      </trkpt>
      <trkpt lat="44.38427" lon="5.93395">
        <ele>573</ele>
        <time>2019-08-02T07:26:17Z</time>
      </trkpt>
      <trkpt lat="44.3842" lon="5.9339">
        <ele>573</ele>
        <time>2019-08-02T07:26:18Z</time>
      </trkpt>
      <trkpt lat="44.38414" lon="5.93386">
        <ele>573</ele>
        <time>2019-08-02T07:26:19Z</time>
      </trkpt>
      <trkpt lat="44.38407" lon="5.9338">
        <ele>573</ele>
        <time>2019-08-02T07:26:20Z</time>
      </trkpt>
      <trkpt lat="44.384" lon="5.93376">
        <ele>573</ele>
        <time>2019-08-02T07:26:21Z</time>
      </trkpt>
      <trkpt lat="44.38393" lon="5.93371">
        <ele>573</ele>
        <time>2019-08-02T07:26:22Z</time>
      </trkpt>
      <trkpt lat="44.38387" lon="5.93367">
        <ele>573</ele>
        <time>2019-08-02T07:26:23Z</time>
      </trkpt>
      <trkpt lat="44.3838" lon="5.93362">
        <ele>573</ele>
        <time>2019-08-02T07:26:24Z</time>
      </trkpt>
      <trkpt lat="44.38374" lon="5.93357">
        <ele>573</ele>
        <time>2019-08-02T07:26:25Z</time>
      </trkpt>
      <trkpt lat="44.38367" lon="5.93353">
        <ele>573</ele>
        <time>2019-08-02T07:26:26Z</time>
      </trkpt>
      <trkpt lat="44.38361" lon="5.93348">
        <ele>573</ele>
        <time>2019-08-02T07:26:27Z</time>
      </trkpt>
      <trkpt lat="44.38354" lon="5.93343">
        <ele>573</ele>
        <time>2019-08-02T07:26:28Z</time>
      </trkpt>
      <trkpt lat="44.38348" lon="5.93339">
        <ele>573</ele>
        <time>2019-08-02T07:26:29Z</time>
      </trkpt>
      <trkpt lat="44.38342" lon="5.93335">
        <ele>573</ele>
        <time>2019-08-02T07:26:30Z</time>
      </trkpt>
      <trkpt lat="44.38335" lon="5.9333">
        <ele>573</ele>
        <time>2019-08-02T07:26:31Z</time>
      </trkpt>
      <trkpt lat="44.38329" lon="5.93327">
        <ele>573</ele>
        <time>2019-08-02T07:26:32Z</time>
      </trkpt>
      <trkpt lat="44.38323" lon="5.93323">
        <ele>573</ele>
        <time>2019-08-02T07:26:33Z</time>
      </trkpt>
      <trkpt lat="44.38317" lon="5.93319">
        <ele>573</ele>
        <time>2019-08-02T07:26:34Z</time>
      </trkpt>
      <trkpt lat="44.38311" lon="5.93315">
        <ele>573</ele>
        <time>2019-08-02T07:26:35Z</time>
      </trkpt>
      <trkpt lat="44.38305" lon="5.93311">
        <ele>573</ele>
        <time>2019-08-02T07:26:36Z</time>
      </trkpt>
      <trkpt lat="44.38299" lon="5.93307">
        <ele>573</ele>
        <time>2019-08-02T07:26:37Z</time>
      </trkpt>
      <trkpt lat="44.38293" lon="5.93303">
        <ele>573</ele>
        <time>2019-08-02T07:26:38Z</time>
      </trkpt>
      <trkpt lat="44.38287" lon="5.93299">
        <ele>573</ele>
        <time>2019-08-02T07:26:39Z</time>
      </trkpt>
      <trkpt lat="44.38282" lon="5.93296">
        <ele>573</ele>
        <time>2019-08-02T07:26:40Z</time>
      </trkpt>
      <trkpt lat="44.38276" lon="5.93292">
        <ele>573</ele>
        <time>2019-08-02T07:26:41Z</time>
      </trkpt>
      <trkpt lat="44.3827" lon="5.93288">
        <ele>573</ele>
        <time>2019-08-02T07:26:42Z</time>
      </trkpt>
      <trkpt lat="44.38264" lon="5.93284">
        <ele>573</ele>
        <time>2019-08-02T07:26:43Z</time>
      </trkpt>
      <trkpt lat="44.38259" lon="5.9328">
        <ele>573</ele>
        <time>2019-08-02T07:26:44Z</time>
      </trkpt>
      <trkpt lat="44.38254" lon="5.93276">
        <ele>573</ele>
        <time>2019-08-02T07:26:45Z</time>
      </trkpt>
      <trkpt lat="44.38248" lon="5.93272">
        <ele>573</ele>
        <time>2019-08-02T07:26:46Z</time>
      </trkpt>
      <trkpt lat="44.38242" lon="5.93268">
        <ele>573</ele>
        <time>2019-08-02T07:26:47Z</time>
      </trkpt>
      <trkpt lat="44.38237" lon="5.93264">
        <ele>573</ele>
        <time>2019-08-02T07:26:48Z</time>
      </trkpt>
      <trkpt lat="44.38231" lon="5.9326">
        <ele>573</ele>
        <time>2019-08-02T07:26:49Z</time>
      </trkpt>
      <trkpt lat="44.38226" lon="5.93257">
        <ele>573</ele>
        <time>2019-08-02T07:26:50Z</time>
      </trkpt>
      <trkpt lat="44.38221" lon="5.93253">
        <ele>573</ele>
        <time>2019-08-02T07:26:51Z</time>
      </trkpt>
      <trkpt lat="44.38215" lon="5.93249">
        <ele>573</ele>
        <time>2019-08-02T07:26:52Z</time>
      </trkpt>
      <trkpt lat="44.3821" lon="5.93246">
        <ele>573</ele>
        <time>2019-08-02T07:26:54Z</time>
      </trkpt>
      <trkpt lat="44.38205" lon="5.93242">
        <ele>573</ele>
        <time>2019-08-02T07:26:54Z</time>
      </trkpt>
      <trkpt lat="44.382" lon="5.93238">
        <ele>573</ele>
        <time>2019-08-02T07:26:55Z</time>
      </trkpt>
      <trkpt lat="44.38194" lon="5.93235">
        <ele>573</ele>
        <time>2019-08-02T07:26:56Z</time>
      </trkpt>
      <trkpt lat="44.38189" lon="5.93231">
        <ele>573</ele>
        <time>2019-08-02T07:26:57Z</time>
      </trkpt>
      <trkpt lat="44.38184" lon="5.93227">
        <ele>573</ele>
        <time>2019-08-02T07:26:58Z</time>
      </trkpt>
      <trkpt lat="44.38178" lon="5.93223">
        <ele>573</ele>
        <time>2019-08-02T07:26:59Z</time>
      </trkpt>
      <trkpt lat="44.38173" lon="5.9322">
        <ele>573</ele>
        <time>2019-08-02T07:27:00Z</time>
      </trkpt>
      <trkpt lat="44.38168" lon="5.93216">
        <ele>573</ele>
        <time>2019-08-02T07:27:01Z</time>
      </trkpt>
      <trkpt lat="44.38162" lon="5.93212">
        <ele>573</ele>
        <time>2019-08-02T07:27:02Z</time>
      </trkpt>
      <trkpt lat="44.38157" lon="5.93208">
        <ele>573</ele>
        <time>2019-08-02T07:27:03Z</time>
      </trkpt>
      <trkpt lat="44.38151" lon="5.93204">
        <ele>573</ele>
        <time>2019-08-02T07:27:04Z</time>
      </trkpt>
      <trkpt lat="44.38145" lon="5.932">
        <ele>573</ele>
        <time>2019-08-02T07:27:05Z</time>
      </trkpt>
      <trkpt lat="44.38139" lon="5.93196">
        <ele>573</ele>
        <time>2019-08-02T07:27:06Z</time>
      </trkpt>
      <trkpt lat="44.38133" lon="5.93191">
        <ele>573</ele>
        <time>2019-08-02T07:27:07Z</time>
      </trkpt>
      <trkpt lat="44.38127" lon="5.93187">
        <ele>573</ele>
        <time>2019-08-02T07:27:08Z</time>
      </trkpt>
      <trkpt lat="44.38121" lon="5.93183">
        <ele>573</ele>
        <time>2019-08-02T07:27:09Z</time>
      </trkpt>
      <trkpt lat="44.38115" lon="5.93178">
        <ele>573</ele>
        <time>2019-08-02T07:27:10Z</time>
      </trkpt>
      <trkpt lat="44.38109" lon="5.93174">
        <ele>573</ele>
        <time>2019-08-02T07:27:11Z</time>
      </trkpt>
      <trkpt lat="44.38103" lon="5.93169">
        <ele>573</ele>
        <time>2019-08-02T07:27:12Z</time>
      </trkpt>
      <trkpt lat="44.38097" lon="5.93165">
        <ele>573</ele>
        <time>2019-08-02T07:27:13Z</time>
      </trkpt>
      <trkpt lat="44.38091" lon="5.9316">
        <ele>573</ele>
        <time>2019-08-02T07:27:14Z</time>
      </trkpt>
      <trkpt lat="44.38085" lon="5.93156">
        <ele>573</ele>
        <time>2019-08-02T07:27:15Z</time>
      </trkpt>
      <trkpt lat="44.38079" lon="5.93152">
        <ele>573</ele>
        <time>2019-08-02T07:27:16Z</time>
      </trkpt>
      <trkpt lat="44.38073" lon="5.93148">
        <ele>573</ele>
        <time>2019-08-02T07:27:17Z</time>
      </trkpt>
      <trkpt lat="44.38067" lon="5.93143">
        <ele>573</ele>
        <time>2019-08-02T07:27:18Z</time>
      </trkpt>
      <trkpt lat="44.38061" lon="5.93139">
        <ele>573</ele>
        <time>2019-08-02T07:27:19Z</time>
      </trkpt>
      <trkpt lat="44.38054" lon="5.93135">
        <ele>573</ele>
        <time>2019-08-02T07:27:20Z</time>
      </trkpt>
      <trkpt lat="44.38048" lon="5.93131">
        <ele>573</ele>
        <time>2019-08-02T07:27:21Z</time>
      </trkpt>
      <trkpt lat="44.38042" lon="5.93126">
        <ele>573</ele>
        <time>2019-08-02T07:27:22Z</time>
      </trkpt>
      <trkpt lat="44.38036" lon="5.93121">
        <ele>573</ele>
        <time>2019-08-02T07:27:23Z</time>
      </trkpt>
      <trkpt lat="44.38029" lon="5.93116">
        <ele>573</ele>
        <time>2019-08-02T07:27:24Z</time>
      </trkpt>
      <trkpt lat="44.38023" lon="5.93112">
        <ele>573</ele>
        <time>2019-08-02T07:27:25Z</time>
      </trkpt>
      <trkpt lat="44.38016" lon="5.93108">
        <ele>573</ele>
        <time>2019-08-02T07:27:26Z</time>
      </trkpt>
      <trkpt lat="44.3801" lon="5.93103">
        <ele>573</ele>
        <time>2019-08-02T07:27:27Z</time>
      </trkpt>
      <trkpt lat="44.38003" lon="5.93098">
        <ele>573</ele>
        <time>2019-08-02T07:27:28Z</time>
      </trkpt>
      <trkpt lat="44.37997" lon="5.93093">
        <ele>573</ele>
        <time>2019-08-02T07:27:29Z</time>
      </trkpt>
      <trkpt lat="44.37991" lon="5.93088">
        <ele>573</ele>
        <time>2019-08-02T07:27:30Z</time>
      </trkpt>
      <trkpt lat="44.37985" lon="5.93083">
        <ele>573</ele>
        <time>2019-08-02T07:27:31Z</time>
      </trkpt>
      <trkpt lat="44.37978" lon="5.93078">
        <ele>573</ele>
        <time>2019-08-02T07:27:32Z</time>
      </trkpt>
      <trkpt lat="44.37972" lon="5.93073">
        <ele>573</ele>
        <time>2019-08-02T07:27:33Z</time>
      </trkpt>
      <trkpt lat="44.37966" lon="5.93069">
        <ele>573</ele>
        <time>2019-08-02T07:27:34Z</time>
      </trkpt>
      <trkpt lat="44.37959" lon="5.93065">
        <ele>573</ele>
        <time>2019-08-02T07:27:35Z</time>
      </trkpt>
      <trkpt lat="44.37953" lon="5.9306">
        <ele>573</ele>
        <time>2019-08-02T07:27:36Z</time>
      </trkpt>
      <trkpt lat="44.37947" lon="5.93055">
        <ele>573</ele>
        <time>2019-08-02T07:27:37Z</time>
      </trkpt>
      <trkpt lat="44.37941" lon="5.9305">
        <ele>573</ele>
        <time>2019-08-02T07:27:38Z</time>
      </trkpt>
      <trkpt lat="44.37934" lon="5.93046">
        <ele>573</ele>
        <time>2019-08-02T07:27:39Z</time>
      </trkpt>
      <trkpt lat="44.37928" lon="5.93041">
        <ele>573</ele>
        <time>2019-08-02T07:27:40Z</time>
      </trkpt>
      <trkpt lat="44.37921" lon="5.93036">
        <ele>573</ele>
        <time>2019-08-02T07:27:41Z</time>
      </trkpt>
      <trkpt lat="44.37915" lon="5.93032">
        <ele>572</ele>
        <time>2019-08-02T07:27:42Z</time>
      </trkpt>
      <trkpt lat="44.37908" lon="5.93027">
        <ele>572</ele>
        <time>2019-08-02T07:27:43Z</time>
      </trkpt>
      <trkpt lat="44.37902" lon="5.93022">
        <ele>571</ele>
        <time>2019-08-02T07:27:44Z</time>
      </trkpt>
      <trkpt lat="44.37895" lon="5.93018">
        <ele>571</ele>
        <time>2019-08-02T07:27:45Z</time>
      </trkpt>
      <trkpt lat="44.37888" lon="5.93013">
        <ele>571</ele>
        <time>2019-08-02T07:27:46Z</time>
      </trkpt>
      <trkpt lat="44.37882" lon="5.93009">
        <ele>571</ele>
        <time>2019-08-02T07:27:47Z</time>
      </trkpt>
      <trkpt lat="44.37875" lon="5.93004">
        <ele>570</ele>
        <time>2019-08-02T07:27:48Z</time>
      </trkpt>
      <trkpt lat="44.37869" lon="5.93">
        <ele>570</ele>
        <time>2019-08-02T07:27:49Z</time>
      </trkpt>
      <trkpt lat="44.37863" lon="5.92995">
        <ele>570</ele>
        <time>2019-08-02T07:27:50Z</time>
      </trkpt>
      <trkpt lat="44.37856" lon="5.92992">
        <ele>570</ele>
        <time>2019-08-02T07:27:51Z</time>
      </trkpt>
      <trkpt lat="44.37849" lon="5.92988">
        <ele>570</ele>
        <time>2019-08-02T07:27:52Z</time>
      </trkpt>
      <trkpt lat="44.37844" lon="5.92984">
        <ele>570</ele>
        <time>2019-08-02T07:27:54Z</time>
      </trkpt>
      <trkpt lat="44.37838" lon="5.92979">
        <ele>570</ele>
        <time>2019-08-02T07:27:54Z</time>
      </trkpt>
      <trkpt lat="44.37831" lon="5.92976">
        <ele>570</ele>
        <time>2019-08-02T07:27:55Z</time>
      </trkpt>
      <trkpt lat="44.37825" lon="5.92971">
        <ele>570</ele>
        <time>2019-08-02T07:27:56Z</time>
      </trkpt>
      <trkpt lat="44.3782" lon="5.92967">
        <ele>570</ele>
        <time>2019-08-02T07:27:57Z</time>
      </trkpt>
      <trkpt lat="44.37814" lon="5.92963">
        <ele>570</ele>
        <time>2019-08-02T07:27:58Z</time>
      </trkpt>
      <trkpt lat="44.37807" lon="5.92958">
        <ele>570</ele>
        <time>2019-08-02T07:27:59Z</time>
      </trkpt>
      <trkpt lat="44.37801" lon="5.92955">
        <ele>570</ele>
        <time>2019-08-02T07:28:00Z</time>
      </trkpt>
      <trkpt lat="44.37795" lon="5.92951">
        <ele>570</ele>
        <time>2019-08-02T07:28:01Z</time>
      </trkpt>
      <trkpt lat="44.37789" lon="5.92947">
        <ele>570</ele>
        <time>2019-08-02T07:28:02Z</time>
      </trkpt>
      <trkpt lat="44.37783" lon="5.92943">
        <ele>570</ele>
        <time>2019-08-02T07:28:03Z</time>
      </trkpt>
      <trkpt lat="44.37777" lon="5.92939">
        <ele>570</ele>
        <time>2019-08-02T07:28:04Z</time>
      </trkpt>
      <trkpt lat="44.37771" lon="5.92935">
        <ele>570</ele>
        <time>2019-08-02T07:28:05Z</time>
      </trkpt>
      <trkpt lat="44.37765" lon="5.9293">
        <ele>570</ele>
        <time>2019-08-02T07:28:06Z</time>
      </trkpt>
      <trkpt lat="44.37759" lon="5.92926">
        <ele>570</ele>
        <time>2019-08-02T07:28:07Z</time>
      </trkpt>
      <trkpt lat="44.37753" lon="5.92922">
        <ele>570</ele>
        <time>2019-08-02T07:28:08Z</time>
      </trkpt>
      <trkpt lat="44.37748" lon="5.92917">
        <ele>570</ele>
        <time>2019-08-02T07:28:09Z</time>
      </trkpt>
      <trkpt lat="44.37741" lon="5.92913">
        <ele>570</ele>
        <time>2019-08-02T07:28:10Z</time>
      </trkpt>
      <trkpt lat="44.37736" lon="5.92908">
        <ele>570</ele>
        <time>2019-08-02T07:28:11Z</time>
      </trkpt>
      <trkpt lat="44.37729" lon="5.92904">
        <ele>570</ele>
        <time>2019-08-02T07:28:12Z</time>
      </trkpt>
      <trkpt lat="44.37723" lon="5.929">
        <ele>570</ele>
        <time>2019-08-02T07:28:13Z</time>
      </trkpt>
      <trkpt lat="44.37718" lon="5.92896">
        <ele>570</ele>
        <time>2019-08-02T07:28:14Z</time>
      </trkpt>
      <trkpt lat="44.37711" lon="5.92892">
        <ele>570</ele>
        <time>2019-08-02T07:28:15Z</time>
      </trkpt>
      <trkpt lat="44.37706" lon="5.92888">
        <ele>570</ele>
        <time>2019-08-02T07:28:16Z</time>
      </trkpt>
      <trkpt lat="44.377" lon="5.92883">
        <ele>570</ele>
        <time>2019-08-02T07:28:17Z</time>
      </trkpt>
      <trkpt lat="44.37694" lon="5.9288">
        <ele>570</ele>
        <time>2019-08-02T07:28:18Z</time>
      </trkpt>
      <trkpt lat="44.37688" lon="5.92876">
        <ele>570</ele>
        <time>2019-08-02T07:28:19Z</time>
      </trkpt>
      <trkpt lat="44.37682" lon="5.92872">
        <ele>570</ele>
        <time>2019-08-02T07:28:20Z</time>
      </trkpt>
      <trkpt lat="44.37676" lon="5.92868">
        <ele>570</ele>
        <time>2019-08-02T07:28:21Z</time>
      </trkpt>
      <trkpt lat="44.3767" lon="5.92865">
        <ele>570</ele>
        <time>2019-08-02T07:28:22Z</time>
      </trkpt>
      <trkpt lat="44.37664" lon="5.92861">
        <ele>570</ele>
        <time>2019-08-02T07:28:23Z</time>
      </trkpt>
      <trkpt lat="44.37658" lon="5.92857">
        <ele>570</ele>
        <time>2019-08-02T07:28:24Z</time>
      </trkpt>
      <trkpt lat="44.37653" lon="5.92853">
        <ele>570</ele>
        <time>2019-08-02T07:28:25Z</time>
      </trkpt>
      <trkpt lat="44.37647" lon="5.92849">
        <ele>570</ele>
        <time>2019-08-02T07:28:26Z</time>
      </trkpt>
      <trkpt lat="44.37642" lon="5.92846">
        <ele>570</ele>
        <time>2019-08-02T07:28:27Z</time>
      </trkpt>
      <trkpt lat="44.37636" lon="5.92842">
        <ele>570</ele>
        <time>2019-08-02T07:28:28Z</time>
      </trkpt>
      <trkpt lat="44.3763" lon="5.92838">
        <ele>570</ele>
        <time>2019-08-02T07:28:29Z</time>
      </trkpt>
      <trkpt lat="44.37625" lon="5.92835">
        <ele>570</ele>
        <time>2019-08-02T07:28:30Z</time>
      </trkpt>
      <trkpt lat="44.37619" lon="5.92831">
        <ele>570</ele>
        <time>2019-08-02T07:28:31Z</time>
      </trkpt>
      <trkpt lat="44.37614" lon="5.92827">
        <ele>570</ele>
        <time>2019-08-02T07:28:32Z</time>
      </trkpt>
      <trkpt lat="44.37608" lon="5.92824">
        <ele>570</ele>
        <time>2019-08-02T07:28:33Z</time>
      </trkpt>
      <trkpt lat="44.37602" lon="5.9282">
        <ele>571</ele>
        <time>2019-08-02T07:28:34Z</time>
      </trkpt>
      <trkpt lat="44.37597" lon="5.92816">
        <ele>571</ele>
        <time>2019-08-02T07:28:35Z</time>
      </trkpt>
      <trkpt lat="44.37591" lon="5.92812">
        <ele>571</ele>
        <time>2019-08-02T07:28:36Z</time>
      </trkpt>
      <trkpt lat="44.37586" lon="5.92809">
        <ele>572</ele>
        <time>2019-08-02T07:28:37Z</time>
      </trkpt>
      <trkpt lat="44.3758" lon="5.92805">
        <ele>572</ele>
        <time>2019-08-02T07:28:38Z</time>
      </trkpt>
      <trkpt lat="44.37575" lon="5.92801">
        <ele>572</ele>
        <time>2019-08-02T07:28:39Z</time>
      </trkpt>
      <trkpt lat="44.37569" lon="5.92797">
        <ele>572</ele>
        <time>2019-08-02T07:28:40Z</time>
      </trkpt>
      <trkpt lat="44.37564" lon="5.92793">
        <ele>572</ele>
        <time>2019-08-02T07:28:41Z</time>
      </trkpt>
      <trkpt lat="44.37558" lon="5.9279">
        <ele>572</ele>
        <time>2019-08-02T07:28:42Z</time>
      </trkpt>
      <trkpt lat="44.37553" lon="5.92786">
        <ele>572</ele>
        <time>2019-08-02T07:28:43Z</time>
      </trkpt>
      <trkpt lat="44.37547" lon="5.92782">
        <ele>572</ele>
        <time>2019-08-02T07:28:44Z</time>
      </trkpt>
      <trkpt lat="44.37542" lon="5.92778">
        <ele>572</ele>
        <time>2019-08-02T07:28:45Z</time>
      </trkpt>
      <trkpt lat="44.37536" lon="5.92774">
        <ele>572</ele>
        <time>2019-08-02T07:28:46Z</time>
      </trkpt>
      <trkpt lat="44.3753" lon="5.9277">
        <ele>572</ele>
        <time>2019-08-02T07:28:47Z</time>
      </trkpt>
      <trkpt lat="44.37525" lon="5.92766">
        <ele>572</ele>
        <time>2019-08-02T07:28:48Z</time>
      </trkpt>
      <trkpt lat="44.37519" lon="5.92762">
        <ele>572</ele>
        <time>2019-08-02T07:28:49Z</time>
      </trkpt>
      <trkpt lat="44.37513" lon="5.92759">
        <ele>572</ele>
        <time>2019-08-02T07:28:50Z</time>
      </trkpt>
      <trkpt lat="44.37508" lon="5.92755">
        <ele>572</ele>
        <time>2019-08-02T07:28:51Z</time>
      </trkpt>
      <trkpt lat="44.37502" lon="5.92751">
        <ele>572</ele>
        <time>2019-08-02T07:28:52Z</time>
      </trkpt>
      <trkpt lat="44.37496" lon="5.92747">
        <ele>572</ele>
        <time>2019-08-02T07:28:54Z</time>
      </trkpt>
      <trkpt lat="44.37491" lon="5.92743">
        <ele>572</ele>
        <time>2019-08-02T07:28:54Z</time>
      </trkpt>
      <trkpt lat="44.37485" lon="5.92739">
        <ele>572</ele>
        <time>2019-08-02T07:28:55Z</time>
      </trkpt>
      <trkpt lat="44.3748" lon="5.92735">
        <ele>572</ele>
        <time>2019-08-02T07:28:56Z</time>
      </trkpt>
      <trkpt lat="44.37474" lon="5.92732">
        <ele>572</ele>
        <time>2019-08-02T07:28:57Z</time>
      </trkpt>
      <trkpt lat="44.37469" lon="5.92728">
        <ele>572</ele>
        <time>2019-08-02T07:28:58Z</time>
      </trkpt>
      <trkpt lat="44.37463" lon="5.92724">
        <ele>572</ele>
        <time>2019-08-02T07:28:59Z</time>
      </trkpt>
      <trkpt lat="44.37458" lon="5.92721">
        <ele>573</ele>
        <time>2019-08-02T07:29:00Z</time>
      </trkpt>
      <trkpt lat="44.37452" lon="5.92717">
        <ele>573</ele>
        <time>2019-08-02T07:29:01Z</time>
      </trkpt>
      <trkpt lat="44.37446" lon="5.92713">
        <ele>573</ele>
        <time>2019-08-02T07:29:02Z</time>
      </trkpt>
      <trkpt lat="44.3744" lon="5.92709">
        <ele>573</ele>
        <time>2019-08-02T07:29:03Z</time>
      </trkpt>
      <trkpt lat="44.37435" lon="5.92705">
        <ele>573</ele>
        <time>2019-08-02T07:29:04Z</time>
      </trkpt>
      <trkpt lat="44.37429" lon="5.92701">
        <ele>573</ele>
        <time>2019-08-02T07:29:05Z</time>
      </trkpt>
      <trkpt lat="44.37424" lon="5.92697">
        <ele>573</ele>
        <time>2019-08-02T07:29:06Z</time>
      </trkpt>
      <trkpt lat="44.37418" lon="5.92694">
        <ele>573</ele>
        <time>2019-08-02T07:29:07Z</time>
      </trkpt>
      <trkpt lat="44.37413" lon="5.9269">
        <ele>573</ele>
        <time>2019-08-02T07:29:08Z</time>
      </trkpt>
      <trkpt lat="44.37407" lon="5.92686">
        <ele>573</ele>
        <time>2019-08-02T07:29:09Z</time>
      </trkpt>
      <trkpt lat="44.37401" lon="5.92682">
        <ele>573</ele>
        <time>2019-08-02T07:29:10Z</time>
      </trkpt>
      <trkpt lat="44.37396" lon="5.92678">
        <ele>573</ele>
        <time>2019-08-02T07:29:11Z</time>
      </trkpt>
      <trkpt lat="44.3739" lon="5.92674">
        <ele>573</ele>
        <time>2019-08-02T07:29:12Z</time>
      </trkpt>
      <trkpt lat="44.37385" lon="5.9267">
        <ele>573</ele>
        <time>2019-08-02T07:29:13Z</time>
      </trkpt>
      <trkpt lat="44.37379" lon="5.92666">
        <ele>573</ele>
        <time>2019-08-02T07:29:14Z</time>
      </trkpt>
      <trkpt lat="44.37374" lon="5.92662">
        <ele>573</ele>
        <time>2019-08-02T07:29:15Z</time>
      </trkpt>
      <trkpt lat="44.37368" lon="5.92658">
        <ele>573</ele>
        <time>2019-08-02T07:29:16Z</time>
      </trkpt>
      <trkpt lat="44.37363" lon="5.92654">
        <ele>573</ele>
        <time>2019-08-02T07:29:17Z</time>
      </trkpt>
      <trkpt lat="44.37357" lon="5.9265">
        <ele>573</ele>
        <time>2019-08-02T07:29:18Z</time>
      </trkpt>
      <trkpt lat="44.37352" lon="5.92645">
        <ele>573</ele>
        <time>2019-08-02T07:29:19Z</time>
      </trkpt>
      <trkpt lat="44.37346" lon="5.9264">
        <ele>573</ele>
        <time>2019-08-02T07:29:20Z</time>
      </trkpt>
      <trkpt lat="44.3734" lon="5.92636">
        <ele>573</ele>
        <time>2019-08-02T07:29:21Z</time>
      </trkpt>
      <trkpt lat="44.37334" lon="5.92631">
        <ele>573</ele>
        <time>2019-08-02T07:29:22Z</time>
      </trkpt>
      <trkpt lat="44.37328" lon="5.92626">
        <ele>573</ele>
        <time>2019-08-02T07:29:23Z</time>
      </trkpt>
      <trkpt lat="44.37322" lon="5.92621">
        <ele>573</ele>
        <time>2019-08-02T07:29:24Z</time>
      </trkpt>
      <trkpt lat="44.37315" lon="5.92616">
        <ele>573</ele>
        <time>2019-08-02T07:29:25Z</time>
      </trkpt>
      <trkpt lat="44.37309" lon="5.9261">
        <ele>573</ele>
        <time>2019-08-02T07:29:26Z</time>
      </trkpt>
      <trkpt lat="44.37302" lon="5.92604">
        <ele>573</ele>
        <time>2019-08-02T07:29:27Z</time>
      </trkpt>
      <trkpt lat="44.37296" lon="5.92598">
        <ele>573</ele>
        <time>2019-08-02T07:29:28Z</time>
      </trkpt>
      <trkpt lat="44.37289" lon="5.92592">
        <ele>573</ele>
        <time>2019-08-02T07:29:29Z</time>
      </trkpt>
      <trkpt lat="44.37283" lon="5.92586">
        <ele>573</ele>
        <time>2019-08-02T07:29:30Z</time>
      </trkpt>
      <trkpt lat="44.37276" lon="5.92579">
        <ele>573</ele>
        <time>2019-08-02T07:29:31Z</time>
      </trkpt>
      <trkpt lat="44.37269" lon="5.92573">
        <ele>573</ele>
        <time>2019-08-02T07:29:32Z</time>
      </trkpt>
      <trkpt lat="44.37262" lon="5.92566">
        <ele>573</ele>
        <time>2019-08-02T07:29:33Z</time>
      </trkpt>
      <trkpt lat="44.37255" lon="5.9256">
        <ele>573</ele>
        <time>2019-08-02T07:29:34Z</time>
      </trkpt>
      <trkpt lat="44.37249" lon="5.92554">
        <ele>573</ele>
        <time>2019-08-02T07:29:35Z</time>
      </trkpt>
      <trkpt lat="44.37242" lon="5.92548">
        <ele>573</ele>
        <time>2019-08-02T07:29:36Z</time>
      </trkpt>
      <trkpt lat="44.37235" lon="5.92542">
        <ele>573</ele>
        <time>2019-08-02T07:29:37Z</time>
      </trkpt>
      <trkpt lat="44.37228" lon="5.92535">
        <ele>573</ele>
        <time>2019-08-02T07:29:38Z</time>
      </trkpt>
      <trkpt lat="44.37222" lon="5.92528">
        <ele>573</ele>
        <time>2019-08-02T07:29:39Z</time>
      </trkpt>
      <trkpt lat="44.37215" lon="5.92522">
        <ele>573</ele>
        <time>2019-08-02T07:29:40Z</time>
      </trkpt>
      <trkpt lat="44.37208" lon="5.92516">
        <ele>573</ele>
        <time>2019-08-02T07:29:41Z</time>
      </trkpt>
      <trkpt lat="44.37202" lon="5.9251">
        <ele>573</ele>
        <time>2019-08-02T07:29:42Z</time>
      </trkpt>
      <trkpt lat="44.37195" lon="5.92503">
        <ele>573</ele>
        <time>2019-08-02T07:29:43Z</time>
      </trkpt>
      <trkpt lat="44.37188" lon="5.92497">
        <ele>573</ele>
        <time>2019-08-02T07:29:44Z</time>
      </trkpt>
      <trkpt lat="44.37182" lon="5.92491">
        <ele>572</ele>
        <time>2019-08-02T07:29:45Z</time>
      </trkpt>
      <trkpt lat="44.37175" lon="5.92486">
        <ele>572</ele>
        <time>2019-08-02T07:29:46Z</time>
      </trkpt>
      <trkpt lat="44.37169" lon="5.9248">
        <ele>572</ele>
        <time>2019-08-02T07:29:47Z</time>
      </trkpt>
      <trkpt lat="44.37163" lon="5.92475">
        <ele>572</ele>
        <time>2019-08-02T07:29:48Z</time>
      </trkpt>
      <trkpt lat="44.37157" lon="5.92469">
        <ele>571</ele>
        <time>2019-08-02T07:29:49Z</time>
      </trkpt>
      <trkpt lat="44.3715" lon="5.92464">
        <ele>571</ele>
        <time>2019-08-02T07:29:50Z</time>
      </trkpt>
      <trkpt lat="44.37144" lon="5.92459">
        <ele>571</ele>
        <time>2019-08-02T07:29:51Z</time>
      </trkpt>
      <trkpt lat="44.37138" lon="5.92454">
        <ele>571</ele>
        <time>2019-08-02T07:29:52Z</time>
      </trkpt>
      <trkpt lat="44.37133" lon="5.92448">
        <ele>571</ele>
        <time>2019-08-02T07:29:54Z</time>
      </trkpt>
      <trkpt lat="44.37128" lon="5.92443">
        <ele>571</ele>
        <time>2019-08-02T07:29:54Z</time>
      </trkpt>
      <trkpt lat="44.37122" lon="5.92438">
        <ele>571</ele>
        <time>2019-08-02T07:29:55Z</time>
      </trkpt>
      <trkpt lat="44.37116" lon="5.92432">
        <ele>570</ele>
        <time>2019-08-02T07:29:56Z</time>
      </trkpt>
      <trkpt lat="44.3711" lon="5.92427">
        <ele>570</ele>
        <time>2019-08-02T07:29:57Z</time>
      </trkpt>
      <trkpt lat="44.37105" lon="5.92422">
        <ele>570</ele>
        <time>2019-08-02T07:29:58Z</time>
      </trkpt>
      <trkpt lat="44.37099" lon="5.92417">
        <ele>570</ele>
        <time>2019-08-02T07:29:59Z</time>
      </trkpt>
      <trkpt lat="44.37093" lon="5.92413">
        <ele>570</ele>
        <time>2019-08-02T07:30:00Z</time>
      </trkpt>
      <trkpt lat="44.37088" lon="5.92408">
        <ele>570</ele>
        <time>2019-08-02T07:30:01Z</time>
      </trkpt>
      <trkpt lat="44.37082" lon="5.92403">
        <ele>570</ele>
        <time>2019-08-02T07:30:02Z</time>
      </trkpt>
      <trkpt lat="44.37076" lon="5.92397">
        <ele>570</ele>
        <time>2019-08-02T07:30:03Z</time>
      </trkpt>
      <trkpt lat="44.3707" lon="5.92392">
        <ele>570</ele>
        <time>2019-08-02T07:30:04Z</time>
      </trkpt>
      <trkpt lat="44.37065" lon="5.92388">
        <ele>570</ele>
        <time>2019-08-02T07:30:05Z</time>
      </trkpt>
      <trkpt lat="44.37059" lon="5.92383">
        <ele>570</ele>
        <time>2019-08-02T07:30:06Z</time>
      </trkpt>
      <trkpt lat="44.37053" lon="5.92379">
        <ele>570</ele>
        <time>2019-08-02T07:30:07Z</time>
      </trkpt>
      <trkpt lat="44.37048" lon="5.92374">
        <ele>570</ele>
        <time>2019-08-02T07:30:08Z</time>
      </trkpt>
      <trkpt lat="44.37042" lon="5.9237">
        <ele>570</ele>
        <time>2019-08-02T07:30:09Z</time>
      </trkpt>
      <trkpt lat="44.37037" lon="5.92366">
        <ele>570</ele>
        <time>2019-08-02T07:30:10Z</time>
      </trkpt>
      <trkpt lat="44.37031" lon="5.92361">
        <ele>570</ele>
        <time>2019-08-02T07:30:11Z</time>
      </trkpt>
      <trkpt lat="44.37026" lon="5.92356">
        <ele>570</ele>
        <time>2019-08-02T07:30:12Z</time>
      </trkpt>
      <trkpt lat="44.37021" lon="5.92352">
        <ele>570</ele>
        <time>2019-08-02T07:30:13Z</time>
      </trkpt>
      <trkpt lat="44.37015" lon="5.92348">
        <ele>570</ele>
        <time>2019-08-02T07:30:14Z</time>
      </trkpt>
      <trkpt lat="44.37009" lon="5.92344">
        <ele>570</ele>
        <time>2019-08-02T07:30:15Z</time>
      </trkpt>
      <trkpt lat="44.37004" lon="5.9234">
        <ele>570</ele>
        <time>2019-08-02T07:30:16Z</time>
      </trkpt>
      <trkpt lat="44.36998" lon="5.92336">
        <ele>570</ele>
        <time>2019-08-02T07:30:17Z</time>
      </trkpt>
      <trkpt lat="44.36993" lon="5.92331">
        <ele>570</ele>
        <time>2019-08-02T07:30:18Z</time>
      </trkpt>
      <trkpt lat="44.36988" lon="5.92327">
        <ele>570</ele>
        <time>2019-08-02T07:30:19Z</time>
      </trkpt>
      <trkpt lat="44.36983" lon="5.92323">
        <ele>570</ele>
        <time>2019-08-02T07:30:20Z</time>
      </trkpt>
      <trkpt lat="44.36978" lon="5.92318">
        <ele>570</ele>
        <time>2019-08-02T07:30:21Z</time>
      </trkpt>
      <trkpt lat="44.36973" lon="5.92314">
        <ele>570</ele>
        <time>2019-08-02T07:30:22Z</time>
      </trkpt>
      <trkpt lat="44.36967" lon="5.9231">
        <ele>570</ele>
        <time>2019-08-02T07:30:23Z</time>
      </trkpt>
      <trkpt lat="44.36963" lon="5.92306">
        <ele>570</ele>
        <time>2019-08-02T07:30:24Z</time>
      </trkpt>
      <trkpt lat="44.36958" lon="5.92302">
        <ele>570</ele>
        <time>2019-08-02T07:30:25Z</time>
      </trkpt>
      <trkpt lat="44.36953" lon="5.92298">
        <ele>570</ele>
        <time>2019-08-02T07:30:26Z</time>
      </trkpt>
      <trkpt lat="44.36948" lon="5.92294">
        <ele>570</ele>
        <time>2019-08-02T07:30:27Z</time>
      </trkpt>
      <trkpt lat="44.36943" lon="5.9229">
        <ele>570</ele>
        <time>2019-08-02T07:30:28Z</time>
      </trkpt>
      <trkpt lat="44.36937" lon="5.92285">
        <ele>570</ele>
        <time>2019-08-02T07:30:29Z</time>
      </trkpt>
      <trkpt lat="44.36932" lon="5.92281">
        <ele>570</ele>
        <time>2019-08-02T07:30:30Z</time>
      </trkpt>
      <trkpt lat="44.36927" lon="5.92277">
        <ele>570</ele>
        <time>2019-08-02T07:30:31Z</time>
      </trkpt>
      <trkpt lat="44.36922" lon="5.92274">
        <ele>570</ele>
        <time>2019-08-02T07:30:32Z</time>
      </trkpt>
      <trkpt lat="44.36917" lon="5.9227">
        <ele>570</ele>
        <time>2019-08-02T07:30:33Z</time>
      </trkpt>
      <trkpt lat="44.36912" lon="5.92267">
        <ele>570</ele>
        <time>2019-08-02T07:30:34Z</time>
      </trkpt>
      <trkpt lat="44.36907" lon="5.92263">
        <ele>571</ele>
        <time>2019-08-02T07:30:35Z</time>
      </trkpt>
      <trkpt lat="44.36902" lon="5.9226">
        <ele>571</ele>
        <time>2019-08-02T07:30:36Z</time>
      </trkpt>
      <trkpt lat="44.36897" lon="5.92257">
        <ele>571</ele>
        <time>2019-08-02T07:30:37Z</time>
      </trkpt>
      <trkpt lat="44.36893" lon="5.92254">
        <ele>571</ele>
        <time>2019-08-02T07:30:38Z</time>
      </trkpt>
      <trkpt lat="44.36888" lon="5.92251">
        <ele>571</ele>
        <time>2019-08-02T07:30:39Z</time>
      </trkpt>
      <trkpt lat="44.36884" lon="5.92249">
        <ele>572</ele>
        <time>2019-08-02T07:30:40Z</time>
      </trkpt>
      <trkpt lat="44.36879" lon="5.92246">
        <ele>572</ele>
        <time>2019-08-02T07:30:41Z</time>
      </trkpt>
      <trkpt lat="44.36875" lon="5.92244">
        <ele>572</ele>
        <time>2019-08-02T07:30:42Z</time>
      </trkpt>
      <trkpt lat="44.36871" lon="5.92242">
        <ele>572</ele>
        <time>2019-08-02T07:30:43Z</time>
      </trkpt>
      <trkpt lat="44.36867" lon="5.92239">
        <ele>573</ele>
        <time>2019-08-02T07:30:44Z</time>
      </trkpt>
      <trkpt lat="44.36863" lon="5.92237">
        <ele>573</ele>
        <time>2019-08-02T07:30:45Z</time>
      </trkpt>
      <trkpt lat="44.36859" lon="5.92235">
        <ele>573</ele>
        <time>2019-08-02T07:30:46Z</time>
      </trkpt>
      <trkpt lat="44.36855" lon="5.92232">
        <ele>573</ele>
        <time>2019-08-02T07:30:47Z</time>
      </trkpt>
      <trkpt lat="44.3685" lon="5.92229">
        <ele>574</ele>
        <time>2019-08-02T07:30:48Z</time>
      </trkpt>
      <trkpt lat="44.36846" lon="5.92227">
        <ele>574</ele>
        <time>2019-08-02T07:30:49Z</time>
      </trkpt>
      <trkpt lat="44.36842" lon="5.92224">
        <ele>574</ele>
        <time>2019-08-02T07:30:50Z</time>
      </trkpt>
      <trkpt lat="44.36839" lon="5.92221">
        <ele>574</ele>
        <time>2019-08-02T07:30:51Z</time>
      </trkpt>
      <trkpt lat="44.36835" lon="5.92219">
        <ele>574</ele>
        <time>2019-08-02T07:30:52Z</time>
      </trkpt>
      <trkpt lat="44.36833" lon="5.92217">
        <ele>574</ele>
        <time>2019-08-02T07:30:54Z</time>
      </trkpt>
      <trkpt lat="44.36829" lon="5.92215">
        <ele>574</ele>
        <time>2019-08-02T07:30:54Z</time>
      </trkpt>
      <trkpt lat="44.36826" lon="5.92214">
        <ele>574</ele>
        <time>2019-08-02T07:30:55Z</time>
      </trkpt>
      <trkpt lat="44.36822" lon="5.92213">
        <ele>574</ele>
        <time>2019-08-02T07:30:56Z</time>
      </trkpt>
      <trkpt lat="44.36818" lon="5.9221">
        <ele>574</ele>
        <time>2019-08-02T07:30:57Z</time>
      </trkpt>
      <trkpt lat="44.36813" lon="5.92208">
        <ele>574</ele>
        <time>2019-08-02T07:30:58Z</time>
      </trkpt>
      <trkpt lat="44.36808" lon="5.92205">
        <ele>574</ele>
        <time>2019-08-02T07:30:59Z</time>
      </trkpt>
      <trkpt lat="44.36803" lon="5.92202">
        <ele>574</ele>
        <time>2019-08-02T07:31:00Z</time>
      </trkpt>
      <trkpt lat="44.36796" lon="5.92199">
        <ele>574</ele>
        <time>2019-08-02T07:31:01Z</time>
      </trkpt>
      <trkpt lat="44.36789" lon="5.92195">
        <ele>574</ele>
        <time>2019-08-02T07:31:02Z</time>
      </trkpt>
      <trkpt lat="44.36782" lon="5.92192">
        <ele>574</ele>
        <time>2019-08-02T07:31:03Z</time>
      </trkpt>
      <trkpt lat="44.36774" lon="5.92188">
        <ele>574</ele>
        <time>2019-08-02T07:31:04Z</time>
      </trkpt>
      <trkpt lat="44.36766" lon="5.92185">
        <ele>574</ele>
        <time>2019-08-02T07:31:05Z</time>
      </trkpt>
      <trkpt lat="44.36757" lon="5.92182">
        <ele>574</ele>
        <time>2019-08-02T07:31:06Z</time>
      </trkpt>
      <trkpt lat="44.36749" lon="5.92179">
        <ele>574</ele>
        <time>2019-08-02T07:31:07Z</time>
      </trkpt>
      <trkpt lat="44.3674" lon="5.92176">
        <ele>574</ele>
        <time>2019-08-02T07:31:08Z</time>
      </trkpt>
      <trkpt lat="44.36732" lon="5.92173">
        <ele>574</ele>
        <time>2019-08-02T07:31:09Z</time>
      </trkpt>
      <trkpt lat="44.36723" lon="5.92171">
        <ele>574</ele>
        <time>2019-08-02T07:31:10Z</time>
      </trkpt>
      <trkpt lat="44.36715" lon="5.92169">
        <ele>574</ele>
        <time>2019-08-02T07:31:11Z</time>
      </trkpt>
      <trkpt lat="44.36707" lon="5.92167">
        <ele>574</ele>
        <time>2019-08-02T07:31:12Z</time>
      </trkpt>
      <trkpt lat="44.36699" lon="5.92165">
        <ele>574</ele>
        <time>2019-08-02T07:31:13Z</time>
      </trkpt>
      <trkpt lat="44.36691" lon="5.92163">
        <ele>574</ele>
        <time>2019-08-02T07:31:14Z</time>
      </trkpt>
      <trkpt lat="44.36683" lon="5.92161">
        <ele>574</ele>
        <time>2019-08-02T07:31:15Z</time>
      </trkpt>
      <trkpt lat="44.36675" lon="5.92159">
        <ele>574</ele>
        <time>2019-08-02T07:31:16Z</time>
      </trkpt>
      <trkpt lat="44.36668" lon="5.92157">
        <ele>574</ele>
        <time>2019-08-02T07:31:17Z</time>
      </trkpt>
      <trkpt lat="44.3666" lon="5.92155">
        <ele>574</ele>
        <time>2019-08-02T07:31:18Z</time>
      </trkpt>
      <trkpt lat="44.36652" lon="5.92154">
        <ele>574</ele>
        <time>2019-08-02T07:31:19Z</time>
      </trkpt>
      <trkpt lat="44.36645" lon="5.92152">
        <ele>574</ele>
        <time>2019-08-02T07:31:20Z</time>
      </trkpt>
      <trkpt lat="44.36637" lon="5.9215">
        <ele>574</ele>
        <time>2019-08-02T07:31:21Z</time>
      </trkpt>
      <trkpt lat="44.3663" lon="5.92147">
        <ele>574</ele>
        <time>2019-08-02T07:31:22Z</time>
      </trkpt>
      <trkpt lat="44.36623" lon="5.92144">
        <ele>574</ele>
        <time>2019-08-02T07:31:23Z</time>
      </trkpt>
      <trkpt lat="44.36616" lon="5.92141">
        <ele>574</ele>
        <time>2019-08-02T07:31:24Z</time>
      </trkpt>
      <trkpt lat="44.36609" lon="5.92138">
        <ele>574</ele>
        <time>2019-08-02T07:31:26Z</time>
      </trkpt>
      <trkpt lat="44.36602" lon="5.92135">
        <ele>574</ele>
        <time>2019-08-02T07:31:26Z</time>
      </trkpt>
      <trkpt lat="44.36595" lon="5.9213">
        <ele>574</ele>
        <time>2019-08-02T07:31:27Z</time>
      </trkpt>
      <trkpt lat="44.36588" lon="5.92126">
        <ele>574</ele>
        <time>2019-08-02T07:31:28Z</time>
      </trkpt>
      <trkpt lat="44.36582" lon="5.92122">
        <ele>574</ele>
        <time>2019-08-02T07:31:29Z</time>
      </trkpt>
      <trkpt lat="44.36575" lon="5.92117">
        <ele>574</ele>
        <time>2019-08-02T07:31:30Z</time>
      </trkpt>
      <trkpt lat="44.36568" lon="5.92112">
        <ele>574</ele>
        <time>2019-08-02T07:31:31Z</time>
      </trkpt>
      <trkpt lat="44.36562" lon="5.92108">
        <ele>574</ele>
        <time>2019-08-02T07:31:32Z</time>
      </trkpt>
      <trkpt lat="44.36555" lon="5.92103">
        <ele>574</ele>
        <time>2019-08-02T07:31:33Z</time>
      </trkpt>
      <trkpt lat="44.36549" lon="5.92099">
        <ele>574</ele>
        <time>2019-08-02T07:31:34Z</time>
      </trkpt>
      <trkpt lat="44.36542" lon="5.92095">
        <ele>574</ele>
        <time>2019-08-02T07:31:35Z</time>
      </trkpt>
      <trkpt lat="44.36536" lon="5.9209">
        <ele>574</ele>
        <time>2019-08-02T07:31:36Z</time>
      </trkpt>
      <trkpt lat="44.36529" lon="5.92086">
        <ele>574</ele>
        <time>2019-08-02T07:31:37Z</time>
      </trkpt>
      <trkpt lat="44.36523" lon="5.92081">
        <ele>574</ele>
        <time>2019-08-02T07:31:38Z</time>
      </trkpt>
      <trkpt lat="44.36516" lon="5.92077">
        <ele>574</ele>
        <time>2019-08-02T07:31:39Z</time>
      </trkpt>
      <trkpt lat="44.3651" lon="5.92072">
        <ele>574</ele>
        <time>2019-08-02T07:31:40Z</time>
      </trkpt>
      <trkpt lat="44.36504" lon="5.92068">
        <ele>574</ele>
        <time>2019-08-02T07:31:41Z</time>
      </trkpt>
      <trkpt lat="44.36497" lon="5.92064">
        <ele>574</ele>
        <time>2019-08-02T07:31:42Z</time>
      </trkpt>
      <trkpt lat="44.36491" lon="5.9206">
        <ele>574</ele>
        <time>2019-08-02T07:31:43Z</time>
      </trkpt>
      <trkpt lat="44.36484" lon="5.92056">
        <ele>574</ele>
        <time>2019-08-02T07:31:44Z</time>
      </trkpt>
      <trkpt lat="44.36478" lon="5.92052">
        <ele>574</ele>
        <time>2019-08-02T07:31:45Z</time>
      </trkpt>
      <trkpt lat="44.36471" lon="5.92047">
        <ele>574</ele>
        <time>2019-08-02T07:31:46Z</time>
      </trkpt>
      <trkpt lat="44.36465" lon="5.92042">
        <ele>574</ele>
        <time>2019-08-02T07:31:47Z</time>
      </trkpt>
      <trkpt lat="44.36459" lon="5.92038">
        <ele>574</ele>
        <time>2019-08-02T07:31:48Z</time>
      </trkpt>
      <trkpt lat="44.36452" lon="5.92033">
        <ele>574</ele>
        <time>2019-08-02T07:31:49Z</time>
      </trkpt>
      <trkpt lat="44.36446" lon="5.92029">
        <ele>574</ele>
        <time>2019-08-02T07:31:50Z</time>
      </trkpt>
      <trkpt lat="44.3644" lon="5.92024">
        <ele>574</ele>
        <time>2019-08-02T07:31:51Z</time>
      </trkpt>
      <trkpt lat="44.36433" lon="5.9202">
        <ele>574</ele>
        <time>2019-08-02T07:31:52Z</time>
      </trkpt>
      <trkpt lat="44.36427" lon="5.92016">
        <ele>574</ele>
        <time>2019-08-02T07:31:54Z</time>
      </trkpt>
      <trkpt lat="44.36421" lon="5.92011">
        <ele>574</ele>
        <time>2019-08-02T07:31:54Z</time>
      </trkpt>
      <trkpt lat="44.36414" lon="5.92007">
        <ele>574</ele>
        <time>2019-08-02T07:31:55Z</time>
      </trkpt>
      <trkpt lat="44.36408" lon="5.92002">
        <ele>574</ele>
        <time>2019-08-02T07:31:56Z</time>
      </trkpt>
      <trkpt lat="44.36402" lon="5.91998">
        <ele>574</ele>
        <time>2019-08-02T07:31:57Z</time>
      </trkpt>
      <trkpt lat="44.36396" lon="5.91994">
        <ele>574</ele>
        <time>2019-08-02T07:31:58Z</time>
      </trkpt>
      <trkpt lat="44.3639" lon="5.91989">
        <ele>574</ele>
        <time>2019-08-02T07:31:59Z</time>
      </trkpt>
      <trkpt lat="44.36383" lon="5.91985">
        <ele>574</ele>
        <time>2019-08-02T07:32:00Z</time>
      </trkpt>
      <trkpt lat="44.36377" lon="5.91981">
        <ele>574</ele>
        <time>2019-08-02T07:32:01Z</time>
      </trkpt>
      <trkpt lat="44.36371" lon="5.91977">
        <ele>574</ele>
        <time>2019-08-02T07:32:02Z</time>
      </trkpt>
      <trkpt lat="44.36365" lon="5.91972">
        <ele>574</ele>
        <time>2019-08-02T07:32:03Z</time>
      </trkpt>
      <trkpt lat="44.36359" lon="5.91968">
        <ele>574</ele>
        <time>2019-08-02T07:32:04Z</time>
      </trkpt>
      <trkpt lat="44.36352" lon="5.91964">
        <ele>574</ele>
        <time>2019-08-02T07:32:05Z</time>
      </trkpt>
      <trkpt lat="44.36346" lon="5.91959">
        <ele>574</ele>
        <time>2019-08-02T07:32:06Z</time>
      </trkpt>
      <trkpt lat="44.3634" lon="5.91955">
        <ele>574</ele>
        <time>2019-08-02T07:32:07Z</time>
      </trkpt>
      <trkpt lat="44.36333" lon="5.91951">
        <ele>574</ele>
        <time>2019-08-02T07:32:08Z</time>
      </trkpt>
      <trkpt lat="44.36327" lon="5.91947">
        <ele>574</ele>
        <time>2019-08-02T07:32:09Z</time>
      </trkpt>
      <trkpt lat="44.36321" lon="5.91943">
        <ele>574</ele>
        <time>2019-08-02T07:32:10Z</time>
      </trkpt>
      <trkpt lat="44.36314" lon="5.91939">
        <ele>574</ele>
        <time>2019-08-02T07:32:11Z</time>
      </trkpt>
      <trkpt lat="44.36308" lon="5.91934">
        <ele>574</ele>
        <time>2019-08-02T07:32:12Z</time>
      </trkpt>
      <trkpt lat="44.36301" lon="5.9193">
        <ele>574</ele>
        <time>2019-08-02T07:32:13Z</time>
      </trkpt>
      <trkpt lat="44.36295" lon="5.91926">
        <ele>574</ele>
        <time>2019-08-02T07:32:14Z</time>
      </trkpt>
      <trkpt lat="44.36289" lon="5.91921">
        <ele>574</ele>
        <time>2019-08-02T07:32:15Z</time>
      </trkpt>
      <trkpt lat="44.36283" lon="5.91917">
        <ele>574</ele>
        <time>2019-08-02T07:32:16Z</time>
      </trkpt>
      <trkpt lat="44.36277" lon="5.91912">
        <ele>574</ele>
        <time>2019-08-02T07:32:17Z</time>
      </trkpt>
      <trkpt lat="44.3627" lon="5.91908">
        <ele>574</ele>
        <time>2019-08-02T07:32:18Z</time>
      </trkpt>
      <trkpt lat="44.36264" lon="5.91904">
        <ele>574</ele>
        <time>2019-08-02T07:32:19Z</time>
      </trkpt>
      <trkpt lat="44.36258" lon="5.91899">
        <ele>574</ele>
        <time>2019-08-02T07:32:20Z</time>
      </trkpt>
      <trkpt lat="44.36252" lon="5.91895">
        <ele>574</ele>
        <time>2019-08-02T07:32:21Z</time>
      </trkpt>
      <trkpt lat="44.36245" lon="5.91891">
        <ele>574</ele>
        <time>2019-08-02T07:32:22Z</time>
      </trkpt>
      <trkpt lat="44.36239" lon="5.91887">
        <ele>574</ele>
        <time>2019-08-02T07:32:23Z</time>
      </trkpt>
      <trkpt lat="44.36233" lon="5.91884">
        <ele>574</ele>
        <time>2019-08-02T07:32:24Z</time>
      </trkpt>
      <trkpt lat="44.36227" lon="5.91879">
        <ele>574</ele>
        <time>2019-08-02T07:32:25Z</time>
      </trkpt>
      <trkpt lat="44.36221" lon="5.91875">
        <ele>574</ele>
        <time>2019-08-02T07:32:26Z</time>
      </trkpt>
      <trkpt lat="44.36215" lon="5.9187">
        <ele>574</ele>
        <time>2019-08-02T07:32:27Z</time>
      </trkpt>
      <trkpt lat="44.36209" lon="5.91866">
        <ele>574</ele>
        <time>2019-08-02T07:32:28Z</time>
      </trkpt>
      <trkpt lat="44.36203" lon="5.91862">
        <ele>574</ele>
        <time>2019-08-02T07:32:29Z</time>
      </trkpt>
      <trkpt lat="44.36196" lon="5.91858">
        <ele>574</ele>
        <time>2019-08-02T07:32:30Z</time>
      </trkpt>
      <trkpt lat="44.3619" lon="5.91854">
        <ele>574</ele>
        <time>2019-08-02T07:32:31Z</time>
      </trkpt>
      <trkpt lat="44.36184" lon="5.9185">
        <ele>574</ele>
        <time>2019-08-02T07:32:32Z</time>
      </trkpt>
      <trkpt lat="44.36177" lon="5.91846">
        <ele>574</ele>
        <time>2019-08-02T07:32:33Z</time>
      </trkpt>
      <trkpt lat="44.36171" lon="5.91841">
        <ele>574</ele>
        <time>2019-08-02T07:32:34Z</time>
      </trkpt>
      <trkpt lat="44.36165" lon="5.91837">
        <ele>574</ele>
        <time>2019-08-02T07:32:35Z</time>
      </trkpt>
      <trkpt lat="44.36159" lon="5.91832">
        <ele>574</ele>
        <time>2019-08-02T07:32:36Z</time>
      </trkpt>
      <trkpt lat="44.36152" lon="5.91828">
        <ele>574</ele>
        <time>2019-08-02T07:32:37Z</time>
      </trkpt>
      <trkpt lat="44.36146" lon="5.91824">
        <ele>574</ele>
        <time>2019-08-02T07:32:38Z</time>
      </trkpt>
      <trkpt lat="44.3614" lon="5.91819">
        <ele>574</ele>
        <time>2019-08-02T07:32:39Z</time>
      </trkpt>
      <trkpt lat="44.36134" lon="5.91815">
        <ele>574</ele>
        <time>2019-08-02T07:32:40Z</time>
      </trkpt>
      <trkpt lat="44.36127" lon="5.91811">
        <ele>574</ele>
        <time>2019-08-02T07:32:41Z</time>
      </trkpt>
      <trkpt lat="44.36121" lon="5.91806">
        <ele>574</ele>
        <time>2019-08-02T07:32:42Z</time>
      </trkpt>
      <trkpt lat="44.36114" lon="5.91802">
        <ele>574</ele>
        <time>2019-08-02T07:32:43Z</time>
      </trkpt>
      <trkpt lat="44.36108" lon="5.91797">
        <ele>574</ele>
        <time>2019-08-02T07:32:44Z</time>
      </trkpt>
      <trkpt lat="44.36101" lon="5.91792">
        <ele>574</ele>
        <time>2019-08-02T07:32:45Z</time>
      </trkpt>
      <trkpt lat="44.36095" lon="5.91788">
        <ele>574</ele>
        <time>2019-08-02T07:32:46Z</time>
      </trkpt>
      <trkpt lat="44.36088" lon="5.91784">
        <ele>574</ele>
        <time>2019-08-02T07:32:47Z</time>
      </trkpt>
      <trkpt lat="44.36082" lon="5.91779">
        <ele>574</ele>
        <time>2019-08-02T07:32:48Z</time>
      </trkpt>
      <trkpt lat="44.36075" lon="5.91775">
        <ele>574</ele>
        <time>2019-08-02T07:32:49Z</time>
      </trkpt>
      <trkpt lat="44.36069" lon="5.9177">
        <ele>574</ele>
        <time>2019-08-02T07:32:50Z</time>
      </trkpt>
      <trkpt lat="44.36062" lon="5.91765">
        <ele>574</ele>
        <time>2019-08-02T07:32:51Z</time>
      </trkpt>
      <trkpt lat="44.36056" lon="5.91761">
        <ele>574</ele>
        <time>2019-08-02T07:32:52Z</time>
      </trkpt>
      <trkpt lat="44.36049" lon="5.91756">
        <ele>574</ele>
        <time>2019-08-02T07:32:53Z</time>
      </trkpt>
      <trkpt lat="44.36043" lon="5.91751">
        <ele>574</ele>
        <time>2019-08-02T07:32:54Z</time>
      </trkpt>
      <trkpt lat="44.36036" lon="5.91747">
        <ele>574</ele>
        <time>2019-08-02T07:32:55Z</time>
      </trkpt>
      <trkpt lat="44.3603" lon="5.91743">
        <ele>574</ele>
        <time>2019-08-02T07:32:56Z</time>
      </trkpt>
      <trkpt lat="44.36023" lon="5.91738">
        <ele>574</ele>
        <time>2019-08-02T07:32:57Z</time>
      </trkpt>
      <trkpt lat="44.36017" lon="5.91734">
        <ele>574</ele>
        <time>2019-08-02T07:32:58Z</time>
      </trkpt>
      <trkpt lat="44.3601" lon="5.91729">
        <ele>574</ele>
        <time>2019-08-02T07:32:59Z</time>
      </trkpt>
      <trkpt lat="44.36004" lon="5.91724">
        <ele>574</ele>
        <time>2019-08-02T07:33:00Z</time>
      </trkpt>
      <trkpt lat="44.35998" lon="5.9172">
        <ele>574</ele>
        <time>2019-08-02T07:33:01Z</time>
      </trkpt>
      <trkpt lat="44.35992" lon="5.91715">
        <ele>574</ele>
        <time>2019-08-02T07:33:02Z</time>
      </trkpt>
      <trkpt lat="44.35985" lon="5.91711">
        <ele>574</ele>
        <time>2019-08-02T07:33:03Z</time>
      </trkpt>
      <trkpt lat="44.35979" lon="5.91706">
        <ele>574</ele>
        <time>2019-08-02T07:33:04Z</time>
      </trkpt>
      <trkpt lat="44.35972" lon="5.91702">
        <ele>574</ele>
        <time>2019-08-02T07:33:05Z</time>
      </trkpt>
      <trkpt lat="44.35966" lon="5.91698">
        <ele>574</ele>
        <time>2019-08-02T07:33:06Z</time>
      </trkpt>
      <trkpt lat="44.35959" lon="5.91693">
        <ele>574</ele>
        <time>2019-08-02T07:33:07Z</time>
      </trkpt>
      <trkpt lat="44.35953" lon="5.91689">
        <ele>574</ele>
        <time>2019-08-02T07:33:08Z</time>
      </trkpt>
      <trkpt lat="44.35947" lon="5.91684">
        <ele>574</ele>
        <time>2019-08-02T07:33:09Z</time>
      </trkpt>
      <trkpt lat="44.35941" lon="5.91679">
        <ele>574</ele>
        <time>2019-08-02T07:33:10Z</time>
      </trkpt>
      <trkpt lat="44.35934" lon="5.91675">
        <ele>574</ele>
        <time>2019-08-02T07:33:11Z</time>
      </trkpt>
      <trkpt lat="44.35927" lon="5.91671">
        <ele>574</ele>
        <time>2019-08-02T07:33:12Z</time>
      </trkpt>
      <trkpt lat="44.35921" lon="5.91667">
        <ele>574</ele>
        <time>2019-08-02T07:33:13Z</time>
      </trkpt>
      <trkpt lat="44.35914" lon="5.91662">
        <ele>574</ele>
        <time>2019-08-02T07:33:14Z</time>
      </trkpt>
      <trkpt lat="44.35907" lon="5.91658">
        <ele>574</ele>
        <time>2019-08-02T07:33:15Z</time>
      </trkpt>
      <trkpt lat="44.35901" lon="5.91654">
        <ele>574</ele>
        <time>2019-08-02T07:33:16Z</time>
      </trkpt>
      <trkpt lat="44.35894" lon="5.9165">
        <ele>574</ele>
        <time>2019-08-02T07:33:17Z</time>
      </trkpt>
      <trkpt lat="44.35888" lon="5.91646">
        <ele>574</ele>
        <time>2019-08-02T07:33:18Z</time>
      </trkpt>
      <trkpt lat="44.35881" lon="5.91641">
        <ele>574</ele>
        <time>2019-08-02T07:33:19Z</time>
      </trkpt>
      <trkpt lat="44.35875" lon="5.91637">
        <ele>574</ele>
        <time>2019-08-02T07:33:20Z</time>
      </trkpt>
      <trkpt lat="44.35868" lon="5.91632">
        <ele>574</ele>
        <time>2019-08-02T07:33:21Z</time>
      </trkpt>
      <trkpt lat="44.35862" lon="5.91627">
        <ele>574</ele>
        <time>2019-08-02T07:33:22Z</time>
      </trkpt>
      <trkpt lat="44.35856" lon="5.91622">
        <ele>574</ele>
        <time>2019-08-02T07:33:23Z</time>
      </trkpt>
      <trkpt lat="44.3585" lon="5.91618">
        <ele>574</ele>
        <time>2019-08-02T07:33:24Z</time>
      </trkpt>
      <trkpt lat="44.35843" lon="5.91613">
        <ele>574</ele>
        <time>2019-08-02T07:33:25Z</time>
      </trkpt>
      <trkpt lat="44.35837" lon="5.91609">
        <ele>574</ele>
        <time>2019-08-02T07:33:26Z</time>
      </trkpt>
      <trkpt lat="44.35831" lon="5.91605">
        <ele>574</ele>
        <time>2019-08-02T07:33:27Z</time>
      </trkpt>
      <trkpt lat="44.35824" lon="5.916">
        <ele>574</ele>
        <time>2019-08-02T07:33:28Z</time>
      </trkpt>
      <trkpt lat="44.35818" lon="5.91595">
        <ele>574</ele>
        <time>2019-08-02T07:33:29Z</time>
      </trkpt>
      <trkpt lat="44.35812" lon="5.91591">
        <ele>574</ele>
        <time>2019-08-02T07:33:30Z</time>
      </trkpt>
      <trkpt lat="44.35805" lon="5.91586">
        <ele>575</ele>
        <time>2019-08-02T07:33:31Z</time>
      </trkpt>
      <trkpt lat="44.35799" lon="5.91582">
        <ele>575</ele>
        <time>2019-08-02T07:33:32Z</time>
      </trkpt>
      <trkpt lat="44.35792" lon="5.91578">
        <ele>575</ele>
        <time>2019-08-02T07:33:33Z</time>
      </trkpt>
      <trkpt lat="44.35785" lon="5.91574">
        <ele>575</ele>
        <time>2019-08-02T07:33:34Z</time>
      </trkpt>
      <trkpt lat="44.35779" lon="5.91569">
        <ele>575</ele>
        <time>2019-08-02T07:33:35Z</time>
      </trkpt>
      <trkpt lat="44.35772" lon="5.91565">
        <ele>575</ele>
        <time>2019-08-02T07:33:36Z</time>
      </trkpt>
      <trkpt lat="44.35766" lon="5.9156">
        <ele>575</ele>
        <time>2019-08-02T07:33:37Z</time>
      </trkpt>
      <trkpt lat="44.35759" lon="5.91555">
        <ele>575</ele>
        <time>2019-08-02T07:33:38Z</time>
      </trkpt>
      <trkpt lat="44.35753" lon="5.91551">
        <ele>575</ele>
        <time>2019-08-02T07:33:39Z</time>
      </trkpt>
      <trkpt lat="44.35746" lon="5.91546">
        <ele>575</ele>
        <time>2019-08-02T07:33:40Z</time>
      </trkpt>
      <trkpt lat="44.3574" lon="5.91542">
        <ele>575</ele>
        <time>2019-08-02T07:33:41Z</time>
      </trkpt>
      <trkpt lat="44.35734" lon="5.91537">
        <ele>575</ele>
        <time>2019-08-02T07:33:42Z</time>
      </trkpt>
      <trkpt lat="44.35727" lon="5.91533">
        <ele>575</ele>
        <time>2019-08-02T07:33:43Z</time>
      </trkpt>
      <trkpt lat="44.35721" lon="5.91528">
        <ele>575</ele>
        <time>2019-08-02T07:33:44Z</time>
      </trkpt>
      <trkpt lat="44.35714" lon="5.91524">
        <ele>575</ele>
        <time>2019-08-02T07:33:45Z</time>
      </trkpt>
      <trkpt lat="44.35708" lon="5.91519">
        <ele>575</ele>
        <time>2019-08-02T07:33:46Z</time>
      </trkpt>
      <trkpt lat="44.35701" lon="5.91515">
        <ele>575</ele>
        <time>2019-08-02T07:33:47Z</time>
      </trkpt>
      <trkpt lat="44.35695" lon="5.9151">
        <ele>575</ele>
        <time>2019-08-02T07:33:48Z</time>
      </trkpt>
      <trkpt lat="44.35688" lon="5.91506">
        <ele>575</ele>
        <time>2019-08-02T07:33:49Z</time>
      </trkpt>
      <trkpt lat="44.35682" lon="5.91501">
        <ele>575</ele>
        <time>2019-08-02T07:33:50Z</time>
      </trkpt>
      <trkpt lat="44.35676" lon="5.91496">
        <ele>575</ele>
        <time>2019-08-02T07:33:51Z</time>
      </trkpt>
      <trkpt lat="44.35669" lon="5.91492">
        <ele>575</ele>
        <time>2019-08-02T07:33:52Z</time>
      </trkpt>
      <trkpt lat="44.35663" lon="5.91487">
        <ele>576</ele>
        <time>2019-08-02T07:33:53Z</time>
      </trkpt>
      <trkpt lat="44.35656" lon="5.91482">
        <ele>576</ele>
        <time>2019-08-02T07:33:54Z</time>
      </trkpt>
      <trkpt lat="44.3565" lon="5.91478">
        <ele>576</ele>
        <time>2019-08-02T07:33:55Z</time>
      </trkpt>
      <trkpt lat="44.35643" lon="5.91473">
        <ele>576</ele>
        <time>2019-08-02T07:33:56Z</time>
      </trkpt>
      <trkpt lat="44.35637" lon="5.91468">
        <ele>576</ele>
        <time>2019-08-02T07:33:57Z</time>
      </trkpt>
      <trkpt lat="44.35631" lon="5.91464">
        <ele>576</ele>
        <time>2019-08-02T07:33:58Z</time>
      </trkpt>
      <trkpt lat="44.35624" lon="5.9146">
        <ele>576</ele>
        <time>2019-08-02T07:33:59Z</time>
      </trkpt>
      <trkpt lat="44.35618" lon="5.91457">
        <ele>576</ele>
        <time>2019-08-02T07:34:00Z</time>
      </trkpt>
      <trkpt lat="44.35612" lon="5.91453">
        <ele>576</ele>
        <time>2019-08-02T07:34:01Z</time>
      </trkpt>
      <trkpt lat="44.35606" lon="5.91449">
        <ele>576</ele>
        <time>2019-08-02T07:34:02Z</time>
      </trkpt>
      <trkpt lat="44.356" lon="5.91445">
        <ele>576</ele>
        <time>2019-08-02T07:34:03Z</time>
      </trkpt>
      <trkpt lat="44.35594" lon="5.91441">
        <ele>576</ele>
        <time>2019-08-02T07:34:04Z</time>
      </trkpt>
      <trkpt lat="44.35588" lon="5.91437">
        <ele>576</ele>
        <time>2019-08-02T07:34:05Z</time>
      </trkpt>
      <trkpt lat="44.35582" lon="5.91433">
        <ele>576</ele>
        <time>2019-08-02T07:34:06Z</time>
      </trkpt>
      <trkpt lat="44.35576" lon="5.91429">
        <ele>576</ele>
        <time>2019-08-02T07:34:07Z</time>
      </trkpt>
      <trkpt lat="44.3557" lon="5.91425">
        <ele>576</ele>
        <time>2019-08-02T07:34:08Z</time>
      </trkpt>
      <trkpt lat="44.35565" lon="5.91421">
        <ele>576</ele>
        <time>2019-08-02T07:34:09Z</time>
      </trkpt>
      <trkpt lat="44.35559" lon="5.91417">
        <ele>576</ele>
        <time>2019-08-02T07:34:10Z</time>
      </trkpt>
      <trkpt lat="44.35553" lon="5.91413">
        <ele>576</ele>
        <time>2019-08-02T07:34:11Z</time>
      </trkpt>
      <trkpt lat="44.35547" lon="5.91409">
        <ele>577</ele>
        <time>2019-08-02T07:34:12Z</time>
      </trkpt>
      <trkpt lat="44.35541" lon="5.91405">
        <ele>577</ele>
        <time>2019-08-02T07:34:13Z</time>
      </trkpt>
      <trkpt lat="44.35536" lon="5.91402">
        <ele>577</ele>
        <time>2019-08-02T07:34:14Z</time>
      </trkpt>
      <trkpt lat="44.3553" lon="5.91398">
        <ele>577</ele>
        <time>2019-08-02T07:34:15Z</time>
      </trkpt>
      <trkpt lat="44.35524" lon="5.91395">
        <ele>577</ele>
        <time>2019-08-02T07:34:16Z</time>
      </trkpt>
      <trkpt lat="44.35519" lon="5.91392">
        <ele>577</ele>
        <time>2019-08-02T07:34:17Z</time>
      </trkpt>
      <trkpt lat="44.35513" lon="5.91389">
        <ele>577</ele>
        <time>2019-08-02T07:34:18Z</time>
      </trkpt>
      <trkpt lat="44.35507" lon="5.91386">
        <ele>577</ele>
        <time>2019-08-02T07:34:19Z</time>
      </trkpt>
      <trkpt lat="44.35501" lon="5.91382">
        <ele>577</ele>
        <time>2019-08-02T07:34:20Z</time>
      </trkpt>
      <trkpt lat="44.35495" lon="5.91378">
        <ele>577</ele>
        <time>2019-08-02T07:34:21Z</time>
      </trkpt>
      <trkpt lat="44.3549" lon="5.91374">
        <ele>577</ele>
        <time>2019-08-02T07:34:22Z</time>
      </trkpt>
      <trkpt lat="44.35483" lon="5.9137">
        <ele>577</ele>
        <time>2019-08-02T07:34:23Z</time>
      </trkpt>
      <trkpt lat="44.35477" lon="5.91366">
        <ele>577</ele>
        <time>2019-08-02T07:34:24Z</time>
      </trkpt>
      <trkpt lat="44.35471" lon="5.91362">
        <ele>577</ele>
        <time>2019-08-02T07:34:25Z</time>
      </trkpt>
      <trkpt lat="44.35464" lon="5.91358">
        <ele>577</ele>
        <time>2019-08-02T07:34:26Z</time>
      </trkpt>
      <trkpt lat="44.35458" lon="5.91354">
        <ele>577</ele>
        <time>2019-08-02T07:34:27Z</time>
      </trkpt>
      <trkpt lat="44.35452" lon="5.91349">
        <ele>577</ele>
        <time>2019-08-02T07:34:28Z</time>
      </trkpt>
      <trkpt lat="44.35445" lon="5.91344">
        <ele>577</ele>
        <time>2019-08-02T07:34:29Z</time>
      </trkpt>
      <trkpt lat="44.35438" lon="5.9134">
        <ele>577</ele>
        <time>2019-08-02T07:34:30Z</time>
      </trkpt>
      <trkpt lat="44.35432" lon="5.91335">
        <ele>577</ele>
        <time>2019-08-02T07:34:31Z</time>
      </trkpt>
      <trkpt lat="44.35425" lon="5.9133">
        <ele>577</ele>
        <time>2019-08-02T07:34:32Z</time>
      </trkpt>
      <trkpt lat="44.35418" lon="5.91325">
        <ele>577</ele>
        <time>2019-08-02T07:34:33Z</time>
      </trkpt>
      <trkpt lat="44.35412" lon="5.91321">
        <ele>577</ele>
        <time>2019-08-02T07:34:34Z</time>
      </trkpt>
      <trkpt lat="44.35405" lon="5.91316">
        <ele>577</ele>
        <time>2019-08-02T07:34:35Z</time>
      </trkpt>
      <trkpt lat="44.35399" lon="5.91311">
        <ele>577</ele>
        <time>2019-08-02T07:34:36Z</time>
      </trkpt>
      <trkpt lat="44.35392" lon="5.91306">
        <ele>577</ele>
        <time>2019-08-02T07:34:37Z</time>
      </trkpt>
      <trkpt lat="44.35386" lon="5.91301">
        <ele>577</ele>
        <time>2019-08-02T07:34:38Z</time>
      </trkpt>
      <trkpt lat="44.3538" lon="5.91296">
        <ele>577</ele>
        <time>2019-08-02T07:34:39Z</time>
      </trkpt>
      <trkpt lat="44.35374" lon="5.91292">
        <ele>577</ele>
        <time>2019-08-02T07:34:40Z</time>
      </trkpt>
      <trkpt lat="44.35368" lon="5.91287">
        <ele>577</ele>
        <time>2019-08-02T07:34:41Z</time>
      </trkpt>
      <trkpt lat="44.35361" lon="5.91282">
        <ele>577</ele>
        <time>2019-08-02T07:34:42Z</time>
      </trkpt>
      <trkpt lat="44.35355" lon="5.91277">
        <ele>577</ele>
        <time>2019-08-02T07:34:43Z</time>
      </trkpt>
      <trkpt lat="44.35349" lon="5.91272">
        <ele>577</ele>
        <time>2019-08-02T07:34:44Z</time>
      </trkpt>
      <trkpt lat="44.35342" lon="5.91267">
        <ele>577</ele>
        <time>2019-08-02T07:34:45Z</time>
      </trkpt>
      <trkpt lat="44.35336" lon="5.91261">
        <ele>577</ele>
        <time>2019-08-02T07:34:46Z</time>
      </trkpt>
      <trkpt lat="44.35329" lon="5.91256">
        <ele>577</ele>
        <time>2019-08-02T07:34:47Z</time>
      </trkpt>
      <trkpt lat="44.35323" lon="5.91251">
        <ele>577</ele>
        <time>2019-08-02T07:34:48Z</time>
      </trkpt>
      <trkpt lat="44.35316" lon="5.91246">
        <ele>577</ele>
        <time>2019-08-02T07:34:49Z</time>
      </trkpt>
      <trkpt lat="44.35309" lon="5.91241">
        <ele>577</ele>
        <time>2019-08-02T07:34:50Z</time>
      </trkpt>
      <trkpt lat="44.35303" lon="5.91236">
        <ele>577</ele>
        <time>2019-08-02T07:34:51Z</time>
      </trkpt>
      <trkpt lat="44.35296" lon="5.91231">
        <ele>577</ele>
        <time>2019-08-02T07:34:52Z</time>
      </trkpt>
      <trkpt lat="44.3529" lon="5.91226">
        <ele>577</ele>
        <time>2019-08-02T07:34:53Z</time>
      </trkpt>
      <trkpt lat="44.35283" lon="5.91221">
        <ele>577</ele>
        <time>2019-08-02T07:34:54Z</time>
      </trkpt>
      <trkpt lat="44.35277" lon="5.91216">
        <ele>577</ele>
        <time>2019-08-02T07:34:55Z</time>
      </trkpt>
      <trkpt lat="44.35271" lon="5.9121">
        <ele>577</ele>
        <time>2019-08-02T07:34:56Z</time>
      </trkpt>
      <trkpt lat="44.35265" lon="5.91204">
        <ele>577</ele>
        <time>2019-08-02T07:34:57Z</time>
      </trkpt>
      <trkpt lat="44.35258" lon="5.91199">
        <ele>577</ele>
        <time>2019-08-02T07:34:58Z</time>
      </trkpt>
      <trkpt lat="44.35252" lon="5.91193">
        <ele>577</ele>
        <time>2019-08-02T07:34:59Z</time>
      </trkpt>
      <trkpt lat="44.35246" lon="5.91187">
        <ele>577</ele>
        <time>2019-08-02T07:35:00Z</time>
      </trkpt>
      <trkpt lat="44.35239" lon="5.91181">
        <ele>577</ele>
        <time>2019-08-02T07:35:01Z</time>
      </trkpt>
      <trkpt lat="44.35233" lon="5.91175">
        <ele>577</ele>
        <time>2019-08-02T07:35:02Z</time>
      </trkpt>
      <trkpt lat="44.35226" lon="5.9117">
        <ele>577</ele>
        <time>2019-08-02T07:35:03Z</time>
      </trkpt>
      <trkpt lat="44.35219" lon="5.91164">
        <ele>577</ele>
        <time>2019-08-02T07:35:04Z</time>
      </trkpt>
      <trkpt lat="44.35213" lon="5.91158">
        <ele>577</ele>
        <time>2019-08-02T07:35:05Z</time>
      </trkpt>
      <trkpt lat="44.35206" lon="5.91152">
        <ele>577</ele>
        <time>2019-08-02T07:35:06Z</time>
      </trkpt>
      <trkpt lat="44.352" lon="5.91146">
        <ele>577</ele>
        <time>2019-08-02T07:35:07Z</time>
      </trkpt>
      <trkpt lat="44.35193" lon="5.9114">
        <ele>577</ele>
        <time>2019-08-02T07:35:08Z</time>
      </trkpt>
      <trkpt lat="44.35186" lon="5.91133">
        <ele>577</ele>
        <time>2019-08-02T07:35:09Z</time>
      </trkpt>
      <trkpt lat="44.3518" lon="5.91127">
        <ele>577</ele>
        <time>2019-08-02T07:35:10Z</time>
      </trkpt>
      <trkpt lat="44.35173" lon="5.9112">
        <ele>577</ele>
        <time>2019-08-02T07:35:11Z</time>
      </trkpt>
      <trkpt lat="44.35166" lon="5.91114">
        <ele>577</ele>
        <time>2019-08-02T07:35:12Z</time>
      </trkpt>
      <trkpt lat="44.35159" lon="5.91107">
        <ele>577</ele>
        <time>2019-08-02T07:35:13Z</time>
      </trkpt>
      <trkpt lat="44.35152" lon="5.91101">
        <ele>577</ele>
        <time>2019-08-02T07:35:14Z</time>
      </trkpt>
      <trkpt lat="44.35145" lon="5.91094">
        <ele>577</ele>
        <time>2019-08-02T07:35:15Z</time>
      </trkpt>
      <trkpt lat="44.35138" lon="5.91087">
        <ele>577</ele>
        <time>2019-08-02T07:35:16Z</time>
      </trkpt>
      <trkpt lat="44.3513" lon="5.91081">
        <ele>576</ele>
        <time>2019-08-02T07:35:17Z</time>
      </trkpt>
      <trkpt lat="44.35123" lon="5.91074">
        <ele>576</ele>
        <time>2019-08-02T07:35:18Z</time>
      </trkpt>
      <trkpt lat="44.35116" lon="5.91067">
        <ele>576</ele>
        <time>2019-08-02T07:35:19Z</time>
      </trkpt>
      <trkpt lat="44.35109" lon="5.9106">
        <ele>576</ele>
        <time>2019-08-02T07:35:20Z</time>
      </trkpt>
      <trkpt lat="44.35101" lon="5.91053">
        <ele>576</ele>
        <time>2019-08-02T07:35:21Z</time>
      </trkpt>
      <trkpt lat="44.35093" lon="5.91046">
        <ele>576</ele>
        <time>2019-08-02T07:35:22Z</time>
      </trkpt>
      <trkpt lat="44.35086" lon="5.9104">
        <ele>575</ele>
        <time>2019-08-02T07:35:23Z</time>
      </trkpt>
      <trkpt lat="44.35079" lon="5.91033">
        <ele>575</ele>
        <time>2019-08-02T07:35:24Z</time>
      </trkpt>
      <trkpt lat="44.35072" lon="5.91025">
        <ele>575</ele>
        <time>2019-08-02T07:35:25Z</time>
      </trkpt>
      <trkpt lat="44.35064" lon="5.91019">
        <ele>575</ele>
        <time>2019-08-02T07:35:26Z</time>
      </trkpt>
      <trkpt lat="44.35057" lon="5.91012">
        <ele>574</ele>
        <time>2019-08-02T07:35:27Z</time>
      </trkpt>
      <trkpt lat="44.3505" lon="5.91005">
        <ele>574</ele>
        <time>2019-08-02T07:35:28Z</time>
      </trkpt>
      <trkpt lat="44.35042" lon="5.90998">
        <ele>574</ele>
        <time>2019-08-02T07:35:29Z</time>
      </trkpt>
      <trkpt lat="44.35035" lon="5.90991">
        <ele>574</ele>
        <time>2019-08-02T07:35:30Z</time>
      </trkpt>
      <trkpt lat="44.35027" lon="5.90985">
        <ele>573</ele>
        <time>2019-08-02T07:35:31Z</time>
      </trkpt>
      <trkpt lat="44.3502" lon="5.90978">
        <ele>573</ele>
        <time>2019-08-02T07:35:32Z</time>
      </trkpt>
      <trkpt lat="44.35013" lon="5.90972">
        <ele>573</ele>
        <time>2019-08-02T07:35:33Z</time>
      </trkpt>
      <trkpt lat="44.35006" lon="5.90965">
        <ele>573</ele>
        <time>2019-08-02T07:35:34Z</time>
      </trkpt>
      <trkpt lat="44.34998" lon="5.90957">
        <ele>572</ele>
        <time>2019-08-02T07:35:35Z</time>
      </trkpt>
      <trkpt lat="44.34991" lon="5.9095">
        <ele>572</ele>
        <time>2019-08-02T07:35:36Z</time>
      </trkpt>
      <trkpt lat="44.34984" lon="5.90943">
        <ele>572</ele>
        <time>2019-08-02T07:35:37Z</time>
      </trkpt>
      <trkpt lat="44.34977" lon="5.90937">
        <ele>571</ele>
        <time>2019-08-02T07:35:38Z</time>
      </trkpt>
      <trkpt lat="44.34969" lon="5.9093">
        <ele>571</ele>
        <time>2019-08-02T07:35:39Z</time>
      </trkpt>
      <trkpt lat="44.34962" lon="5.90923">
        <ele>570</ele>
        <time>2019-08-02T07:35:40Z</time>
      </trkpt>
      <trkpt lat="44.34954" lon="5.90916">
        <ele>570</ele>
        <time>2019-08-02T07:35:41Z</time>
      </trkpt>
      <trkpt lat="44.34946" lon="5.90909">
        <ele>569</ele>
        <time>2019-08-02T07:35:42Z</time>
      </trkpt>
      <trkpt lat="44.34939" lon="5.90903">
        <ele>569</ele>
        <time>2019-08-02T07:35:43Z</time>
      </trkpt>
      <trkpt lat="44.34931" lon="5.90897">
        <ele>569</ele>
        <time>2019-08-02T07:35:44Z</time>
      </trkpt>
      <trkpt lat="44.34924" lon="5.90892">
        <ele>568</ele>
        <time>2019-08-02T07:35:45Z</time>
      </trkpt>
      <trkpt lat="44.34917" lon="5.90886">
        <ele>568</ele>
        <time>2019-08-02T07:35:46Z</time>
      </trkpt>
      <trkpt lat="44.3491" lon="5.90882">
        <ele>568</ele>
        <time>2019-08-02T07:35:47Z</time>
      </trkpt>
      <trkpt lat="44.34904" lon="5.90877">
        <ele>568</ele>
        <time>2019-08-02T07:35:48Z</time>
      </trkpt>
      <trkpt lat="44.34897" lon="5.90872">
        <ele>568</ele>
        <time>2019-08-02T07:35:49Z</time>
      </trkpt>
      <trkpt lat="44.3489" lon="5.90868">
        <ele>568</ele>
        <time>2019-08-02T07:35:50Z</time>
      </trkpt>
      <trkpt lat="44.34884" lon="5.90863">
        <ele>568</ele>
        <time>2019-08-02T07:35:51Z</time>
      </trkpt>
      <trkpt lat="44.34878" lon="5.90858">
        <ele>568</ele>
        <time>2019-08-02T07:35:52Z</time>
      </trkpt>
      <trkpt lat="44.34872" lon="5.90854">
        <ele>568</ele>
        <time>2019-08-02T07:35:53Z</time>
      </trkpt>
      <trkpt lat="44.34866" lon="5.90849">
        <ele>568</ele>
        <time>2019-08-02T07:35:54Z</time>
      </trkpt>
      <trkpt lat="44.34859" lon="5.90844">
        <ele>568</ele>
        <time>2019-08-02T07:35:55Z</time>
      </trkpt>
      <trkpt lat="44.34853" lon="5.90839">
        <ele>568</ele>
        <time>2019-08-02T07:35:56Z</time>
      </trkpt>
      <trkpt lat="44.34847" lon="5.90834">
        <ele>568</ele>
        <time>2019-08-02T07:35:57Z</time>
      </trkpt>
      <trkpt lat="44.34841" lon="5.90829">
        <ele>568</ele>
        <time>2019-08-02T07:35:58Z</time>
      </trkpt>
      <trkpt lat="44.34835" lon="5.90824">
        <ele>568</ele>
        <time>2019-08-02T07:35:59Z</time>
      </trkpt>
      <trkpt lat="44.34829" lon="5.9082">
        <ele>568</ele>
        <time>2019-08-02T07:36:00Z</time>
      </trkpt>
      <trkpt lat="44.34822" lon="5.90815">
        <ele>568</ele>
        <time>2019-08-02T07:36:01Z</time>
      </trkpt>
      <trkpt lat="44.34816" lon="5.9081">
        <ele>568</ele>
        <time>2019-08-02T07:36:02Z</time>
      </trkpt>
      <trkpt lat="44.3481" lon="5.90805">
        <ele>568</ele>
        <time>2019-08-02T07:36:03Z</time>
      </trkpt>
      <trkpt lat="44.34804" lon="5.908">
        <ele>568</ele>
        <time>2019-08-02T07:36:04Z</time>
      </trkpt>
      <trkpt lat="44.34798" lon="5.90796">
        <ele>568</ele>
        <time>2019-08-02T07:36:05Z</time>
      </trkpt>
      <trkpt lat="44.34792" lon="5.90791">
        <ele>568</ele>
        <time>2019-08-02T07:36:06Z</time>
      </trkpt>
      <trkpt lat="44.34786" lon="5.90786">
        <ele>568</ele>
        <time>2019-08-02T07:36:07Z</time>
      </trkpt>
      <trkpt lat="44.3478" lon="5.90781">
        <ele>568</ele>
        <time>2019-08-02T07:36:08Z</time>
      </trkpt>
      <trkpt lat="44.34774" lon="5.90777">
        <ele>568</ele>
        <time>2019-08-02T07:36:09Z</time>
      </trkpt>
      <trkpt lat="44.34769" lon="5.90773">
        <ele>568</ele>
        <time>2019-08-02T07:36:10Z</time>
      </trkpt>
      <trkpt lat="44.34763" lon="5.90768">
        <ele>568</ele>
        <time>2019-08-02T07:36:11Z</time>
      </trkpt>
      <trkpt lat="44.34758" lon="5.90764">
        <ele>568</ele>
        <time>2019-08-02T07:36:12Z</time>
      </trkpt>
      <trkpt lat="44.34752" lon="5.90759">
        <ele>568</ele>
        <time>2019-08-02T07:36:13Z</time>
      </trkpt>
      <trkpt lat="44.34747" lon="5.90755">
        <ele>568</ele>
        <time>2019-08-02T07:36:14Z</time>
      </trkpt>
      <trkpt lat="44.34741" lon="5.9075">
        <ele>568</ele>
        <time>2019-08-02T07:36:15Z</time>
      </trkpt>
      <trkpt lat="44.34735" lon="5.90746">
        <ele>568</ele>
        <time>2019-08-02T07:36:16Z</time>
      </trkpt>
      <trkpt lat="44.3473" lon="5.90741">
        <ele>568</ele>
        <time>2019-08-02T07:36:17Z</time>
      </trkpt>
      <trkpt lat="44.34724" lon="5.90737">
        <ele>568</ele>
        <time>2019-08-02T07:36:18Z</time>
      </trkpt>
      <trkpt lat="44.34718" lon="5.90734">
        <ele>568</ele>
        <time>2019-08-02T07:36:19Z</time>
      </trkpt>
      <trkpt lat="44.34713" lon="5.9073">
        <ele>568</ele>
        <time>2019-08-02T07:36:20Z</time>
      </trkpt>
      <trkpt lat="44.34708" lon="5.90726">
        <ele>568</ele>
        <time>2019-08-02T07:36:21Z</time>
      </trkpt>
      <trkpt lat="44.34702" lon="5.90723">
        <ele>568</ele>
        <time>2019-08-02T07:36:22Z</time>
      </trkpt>
      <trkpt lat="44.34697" lon="5.9072">
        <ele>569</ele>
        <time>2019-08-02T07:36:23Z</time>
      </trkpt>
      <trkpt lat="44.34692" lon="5.90716">
        <ele>569</ele>
        <time>2019-08-02T07:36:24Z</time>
      </trkpt>
      <trkpt lat="44.34687" lon="5.90713">
        <ele>569</ele>
        <time>2019-08-02T07:36:25Z</time>
      </trkpt>
      <trkpt lat="44.34682" lon="5.9071">
        <ele>570</ele>
        <time>2019-08-02T07:36:26Z</time>
      </trkpt>
      <trkpt lat="44.34678" lon="5.90707">
        <ele>570</ele>
        <time>2019-08-02T07:36:27Z</time>
      </trkpt>
      <trkpt lat="44.34673" lon="5.90704">
        <ele>570</ele>
        <time>2019-08-02T07:36:28Z</time>
      </trkpt>
      <trkpt lat="44.34669" lon="5.90702">
        <ele>571</ele>
        <time>2019-08-02T07:36:29Z</time>
      </trkpt>
      <trkpt lat="44.34664" lon="5.90699">
        <ele>571</ele>
        <time>2019-08-02T07:36:30Z</time>
      </trkpt>
      <trkpt lat="44.3466" lon="5.90696">
        <ele>572</ele>
        <time>2019-08-02T07:36:31Z</time>
      </trkpt>
      <trkpt lat="44.34655" lon="5.90694">
        <ele>572</ele>
        <time>2019-08-02T07:36:32Z</time>
      </trkpt>
      <trkpt lat="44.34651" lon="5.90691">
        <ele>573</ele>
        <time>2019-08-02T07:36:33Z</time>
      </trkpt>
      <trkpt lat="44.34647" lon="5.90688">
        <ele>573</ele>
        <time>2019-08-02T07:36:34Z</time>
      </trkpt>
      <trkpt lat="44.34643" lon="5.90686">
        <ele>573</ele>
        <time>2019-08-02T07:36:35Z</time>
      </trkpt>
      <trkpt lat="44.34639" lon="5.90683">
        <ele>574</ele>
        <time>2019-08-02T07:36:36Z</time>
      </trkpt>
      <trkpt lat="44.34635" lon="5.9068">
        <ele>574</ele>
        <time>2019-08-02T07:36:37Z</time>
      </trkpt>
      <trkpt lat="44.34632" lon="5.90678">
        <ele>574</ele>
        <time>2019-08-02T07:36:38Z</time>
      </trkpt>
      <trkpt lat="44.34628" lon="5.90675">
        <ele>575</ele>
        <time>2019-08-02T07:36:39Z</time>
      </trkpt>
      <trkpt lat="44.34625" lon="5.90673">
        <ele>575</ele>
        <time>2019-08-02T07:36:40Z</time>
      </trkpt>
      <trkpt lat="44.34621" lon="5.9067">
        <ele>575</ele>
        <time>2019-08-02T07:36:41Z</time>
      </trkpt>
      <trkpt lat="44.34618" lon="5.90667">
        <ele>576</ele>
        <time>2019-08-02T07:36:42Z</time>
      </trkpt>
      <trkpt lat="44.34614" lon="5.90663">
        <ele>576</ele>
        <time>2019-08-02T07:36:43Z</time>
      </trkpt>
      <trkpt lat="44.3461" lon="5.9066">
        <ele>576</ele>
        <time>2019-08-02T07:36:44Z</time>
      </trkpt>
      <trkpt lat="44.34607" lon="5.90657">
        <ele>576</ele>
        <time>2019-08-02T07:36:45Z</time>
      </trkpt>
      <trkpt lat="44.34602" lon="5.90653">
        <ele>576</ele>
        <time>2019-08-02T07:36:46Z</time>
      </trkpt>
      <trkpt lat="44.34598" lon="5.9065">
        <ele>576</ele>
        <time>2019-08-02T07:36:47Z</time>
      </trkpt>
      <trkpt lat="44.34594" lon="5.90646">
        <ele>576</ele>
        <time>2019-08-02T07:36:48Z</time>
      </trkpt>
      <trkpt lat="44.3459" lon="5.90642">
        <ele>576</ele>
        <time>2019-08-02T07:36:49Z</time>
      </trkpt>
      <trkpt lat="44.34585" lon="5.90639">
        <ele>576</ele>
        <time>2019-08-02T07:36:50Z</time>
      </trkpt>
      <trkpt lat="44.34581" lon="5.90635">
        <ele>576</ele>
        <time>2019-08-02T07:36:51Z</time>
      </trkpt>
      <trkpt lat="44.34576" lon="5.90631">
        <ele>576</ele>
        <time>2019-08-02T07:36:52Z</time>
      </trkpt>
      <trkpt lat="44.34571" lon="5.90627">
        <ele>576</ele>
        <time>2019-08-02T07:36:53Z</time>
      </trkpt>
      <trkpt lat="44.34567" lon="5.90624">
        <ele>576</ele>
        <time>2019-08-02T07:36:54Z</time>
      </trkpt>
      <trkpt lat="44.34562" lon="5.9062">
        <ele>576</ele>
        <time>2019-08-02T07:36:55Z</time>
      </trkpt>
      <trkpt lat="44.34557" lon="5.90616">
        <ele>576</ele>
        <time>2019-08-02T07:36:56Z</time>
      </trkpt>
      <trkpt lat="44.34553" lon="5.90612">
        <ele>576</ele>
        <time>2019-08-02T07:36:57Z</time>
      </trkpt>
      <trkpt lat="44.34548" lon="5.90607">
        <ele>576</ele>
        <time>2019-08-02T07:36:58Z</time>
      </trkpt>
      <trkpt lat="44.34543" lon="5.90603">
        <ele>576</ele>
        <time>2019-08-02T07:36:59Z</time>
      </trkpt>
      <trkpt lat="44.34538" lon="5.90599">
        <ele>576</ele>
        <time>2019-08-02T07:37:00Z</time>
      </trkpt>
      <trkpt lat="44.34533" lon="5.90595">
        <ele>576</ele>
        <time>2019-08-02T07:37:01Z</time>
      </trkpt>
      <trkpt lat="44.34528" lon="5.90591">
        <ele>576</ele>
        <time>2019-08-02T07:37:02Z</time>
      </trkpt>
      <trkpt lat="44.34523" lon="5.90587">
        <ele>576</ele>
        <time>2019-08-02T07:37:03Z</time>
      </trkpt>
      <trkpt lat="44.34518" lon="5.90583">
        <ele>576</ele>
        <time>2019-08-02T07:37:04Z</time>
      </trkpt>
      <trkpt lat="44.34512" lon="5.90579">
        <ele>576</ele>
        <time>2019-08-02T07:37:05Z</time>
      </trkpt>
      <trkpt lat="44.34507" lon="5.90575">
        <ele>576</ele>
        <time>2019-08-02T07:37:06Z</time>
      </trkpt>
      <trkpt lat="44.34502" lon="5.9057">
        <ele>576</ele>
        <time>2019-08-02T07:37:07Z</time>
      </trkpt>
      <trkpt lat="44.34497" lon="5.90566">
        <ele>576</ele>
        <time>2019-08-02T07:37:08Z</time>
      </trkpt>
      <trkpt lat="44.34492" lon="5.90561">
        <ele>576</ele>
        <time>2019-08-02T07:37:09Z</time>
      </trkpt>
      <trkpt lat="44.34487" lon="5.90557">
        <ele>576</ele>
        <time>2019-08-02T07:37:10Z</time>
      </trkpt>
      <trkpt lat="44.34482" lon="5.90553">
        <ele>576</ele>
        <time>2019-08-02T07:37:11Z</time>
      </trkpt>
      <trkpt lat="44.34477" lon="5.90548">
        <ele>576</ele>
        <time>2019-08-02T07:37:12Z</time>
      </trkpt>
      <trkpt lat="44.34472" lon="5.90544">
        <ele>576</ele>
        <time>2019-08-02T07:37:13Z</time>
      </trkpt>
      <trkpt lat="44.34466" lon="5.9054">
        <ele>576</ele>
        <time>2019-08-02T07:37:14Z</time>
      </trkpt>
      <trkpt lat="44.34461" lon="5.90535">
        <ele>576</ele>
        <time>2019-08-02T07:37:15Z</time>
      </trkpt>
      <trkpt lat="44.34456" lon="5.90531">
        <ele>576</ele>
        <time>2019-08-02T07:37:16Z</time>
      </trkpt>
      <trkpt lat="44.34451" lon="5.90527">
        <ele>576</ele>
        <time>2019-08-02T07:37:17Z</time>
      </trkpt>
      <trkpt lat="44.34446" lon="5.90522">
        <ele>576</ele>
        <time>2019-08-02T07:37:18Z</time>
      </trkpt>
      <trkpt lat="44.34441" lon="5.90518">
        <ele>576</ele>
        <time>2019-08-02T07:37:19Z</time>
      </trkpt>
      <trkpt lat="44.34437" lon="5.90514">
        <ele>576</ele>
        <time>2019-08-02T07:37:20Z</time>
      </trkpt>
      <trkpt lat="44.34432" lon="5.90509">
        <ele>576</ele>
        <time>2019-08-02T07:37:21Z</time>
      </trkpt>
      <trkpt lat="44.34428" lon="5.90505">
        <ele>576</ele>
        <time>2019-08-02T07:37:22Z</time>
      </trkpt>
      <trkpt lat="44.34424" lon="5.905">
        <ele>576</ele>
        <time>2019-08-02T07:37:23Z</time>
      </trkpt>
      <trkpt lat="44.3442" lon="5.90496">
        <ele>576</ele>
        <time>2019-08-02T07:37:24Z</time>
      </trkpt>
      <trkpt lat="44.34416" lon="5.90491">
        <ele>576</ele>
        <time>2019-08-02T07:37:25Z</time>
      </trkpt>
      <trkpt lat="44.34413" lon="5.90486">
        <ele>576</ele>
        <time>2019-08-02T07:37:26Z</time>
      </trkpt>
      <trkpt lat="44.3441" lon="5.9048">
        <ele>576</ele>
        <time>2019-08-02T07:37:27Z</time>
      </trkpt>
      <trkpt lat="44.34407" lon="5.90474">
        <ele>576</ele>
        <time>2019-08-02T07:37:28Z</time>
      </trkpt>
      <trkpt lat="44.34404" lon="5.90468">
        <ele>576</ele>
        <time>2019-08-02T07:37:29Z</time>
      </trkpt>
      <trkpt lat="44.34401" lon="5.90463">
        <ele>576</ele>
        <time>2019-08-02T07:37:30Z</time>
      </trkpt>
      <trkpt lat="44.34397" lon="5.90459">
        <ele>576</ele>
        <time>2019-08-02T07:37:31Z</time>
      </trkpt>
      <trkpt lat="44.34393" lon="5.90456">
        <ele>576</ele>
        <time>2019-08-02T07:37:32Z</time>
      </trkpt>
      <trkpt lat="44.34389" lon="5.90454">
        <ele>576</ele>
        <time>2019-08-02T07:37:33Z</time>
      </trkpt>
      <trkpt lat="44.34384" lon="5.90452">
        <ele>577</ele>
        <time>2019-08-02T07:37:34Z</time>
      </trkpt>
      <trkpt lat="44.34379" lon="5.90449">
        <ele>577</ele>
        <time>2019-08-02T07:37:35Z</time>
      </trkpt>
      <trkpt lat="44.34373" lon="5.90447">
        <ele>577</ele>
        <time>2019-08-02T07:37:36Z</time>
      </trkpt>
      <trkpt lat="44.34367" lon="5.90443">
        <ele>577</ele>
        <time>2019-08-02T07:37:37Z</time>
      </trkpt>
      <trkpt lat="44.3436" lon="5.9044">
        <ele>577</ele>
        <time>2019-08-02T07:37:38Z</time>
      </trkpt>
      <trkpt lat="44.34353" lon="5.90436">
        <ele>577</ele>
        <time>2019-08-02T07:37:39Z</time>
      </trkpt>
      <trkpt lat="44.34346" lon="5.90432">
        <ele>577</ele>
        <time>2019-08-02T07:37:40Z</time>
      </trkpt>
      <trkpt lat="44.34338" lon="5.90427">
        <ele>577</ele>
        <time>2019-08-02T07:37:41Z</time>
      </trkpt>
      <trkpt lat="44.34331" lon="5.90422">
        <ele>577</ele>
        <time>2019-08-02T07:37:42Z</time>
      </trkpt>
      <trkpt lat="44.34324" lon="5.90417">
        <ele>577</ele>
        <time>2019-08-02T07:37:43Z</time>
      </trkpt>
      <trkpt lat="44.34317" lon="5.90412">
        <ele>577</ele>
        <time>2019-08-02T07:37:44Z</time>
      </trkpt>
      <trkpt lat="44.3431" lon="5.90406">
        <ele>577</ele>
        <time>2019-08-02T07:37:45Z</time>
      </trkpt>
      <trkpt lat="44.34304" lon="5.90399">
        <ele>577</ele>
        <time>2019-08-02T07:37:46Z</time>
      </trkpt>
      <trkpt lat="44.34299" lon="5.90393">
        <ele>577</ele>
        <time>2019-08-02T07:37:47Z</time>
      </trkpt>
      <trkpt lat="44.34293" lon="5.90387">
        <ele>577</ele>
        <time>2019-08-02T07:37:48Z</time>
      </trkpt>
      <trkpt lat="44.34287" lon="5.90381">
        <ele>577</ele>
        <time>2019-08-02T07:37:49Z</time>
      </trkpt>
      <trkpt lat="44.34282" lon="5.90374">
        <ele>577</ele>
        <time>2019-08-02T07:37:50Z</time>
      </trkpt>
      <trkpt lat="44.34277" lon="5.90368">
        <ele>577</ele>
        <time>2019-08-02T07:37:51Z</time>
      </trkpt>
      <trkpt lat="44.34272" lon="5.90362">
        <ele>577</ele>
        <time>2019-08-02T07:37:52Z</time>
      </trkpt>
      <trkpt lat="44.34267" lon="5.90356">
        <ele>577</ele>
        <time>2019-08-02T07:37:53Z</time>
      </trkpt>
      <trkpt lat="44.34262" lon="5.90351">
        <ele>577</ele>
        <time>2019-08-02T07:37:54Z</time>
      </trkpt>
      <trkpt lat="44.34258" lon="5.90345">
        <ele>577</ele>
        <time>2019-08-02T07:37:55Z</time>
      </trkpt>
      <trkpt lat="44.34253" lon="5.9034">
        <ele>577</ele>
        <time>2019-08-02T07:37:56Z</time>
      </trkpt>
      <trkpt lat="44.34249" lon="5.90335">
        <ele>577</ele>
        <time>2019-08-02T07:37:57Z</time>
      </trkpt>
      <trkpt lat="44.34246" lon="5.9033">
        <ele>577</ele>
        <time>2019-08-02T07:37:58Z</time>
      </trkpt>
      <trkpt lat="44.34242" lon="5.90325">
        <ele>577</ele>
        <time>2019-08-02T07:37:59Z</time>
      </trkpt>
      <trkpt lat="44.34239" lon="5.90321">
        <ele>577</ele>
        <time>2019-08-02T07:38:00Z</time>
      </trkpt>
      <trkpt lat="44.34235" lon="5.90316">
        <ele>577</ele>
        <time>2019-08-02T07:38:01Z</time>
      </trkpt>
      <trkpt lat="44.34231" lon="5.90312">
        <ele>577</ele>
        <time>2019-08-02T07:38:02Z</time>
      </trkpt>
      <trkpt lat="44.34228" lon="5.90308">
        <ele>577</ele>
        <time>2019-08-02T07:38:03Z</time>
      </trkpt>
      <trkpt lat="44.34224" lon="5.90303">
        <ele>577</ele>
        <time>2019-08-02T07:38:04Z</time>
      </trkpt>
      <trkpt lat="44.34221" lon="5.90299">
        <ele>577</ele>
        <time>2019-08-02T07:38:05Z</time>
      </trkpt>
      <trkpt lat="44.34217" lon="5.90295">
        <ele>577</ele>
        <time>2019-08-02T07:38:06Z</time>
      </trkpt>
      <trkpt lat="44.34214" lon="5.9029">
        <ele>577</ele>
        <time>2019-08-02T07:38:07Z</time>
      </trkpt>
      <trkpt lat="44.34211" lon="5.90286">
        <ele>577</ele>
        <time>2019-08-02T07:38:08Z</time>
      </trkpt>
      <trkpt lat="44.34207" lon="5.90282">
        <ele>577</ele>
        <time>2019-08-02T07:38:09Z</time>
      </trkpt>
      <trkpt lat="44.34204" lon="5.90277">
        <ele>577</ele>
        <time>2019-08-02T07:38:10Z</time>
      </trkpt>
      <trkpt lat="44.342" lon="5.90273">
        <ele>577</ele>
        <time>2019-08-02T07:38:11Z</time>
      </trkpt>
      <trkpt lat="44.34197" lon="5.90269">
        <ele>578</ele>
        <time>2019-08-02T07:38:12Z</time>
      </trkpt>
      <trkpt lat="44.34194" lon="5.90265">
        <ele>578</ele>
        <time>2019-08-02T07:38:13Z</time>
      </trkpt>
      <trkpt lat="44.34191" lon="5.90261">
        <ele>578</ele>
        <time>2019-08-02T07:38:14Z</time>
      </trkpt>
      <trkpt lat="44.34188" lon="5.90257">
        <ele>579</ele>
        <time>2019-08-02T07:38:15Z</time>
      </trkpt>
      <trkpt lat="44.34185" lon="5.90252">
        <ele>579</ele>
        <time>2019-08-02T07:38:16Z</time>
      </trkpt>
      <trkpt lat="44.34181" lon="5.90248">
        <ele>579</ele>
        <time>2019-08-02T07:38:17Z</time>
      </trkpt>
      <trkpt lat="44.34178" lon="5.90244">
        <ele>580</ele>
        <time>2019-08-02T07:38:18Z</time>
      </trkpt>
      <trkpt lat="44.34174" lon="5.9024">
        <ele>580</ele>
        <time>2019-08-02T07:38:19Z</time>
      </trkpt>
      <trkpt lat="44.34171" lon="5.90236">
        <ele>581</ele>
        <time>2019-08-02T07:38:20Z</time>
      </trkpt>
      <trkpt lat="44.34168" lon="5.90232">
        <ele>581</ele>
        <time>2019-08-02T07:38:21Z</time>
      </trkpt>
      <trkpt lat="44.34165" lon="5.90227">
        <ele>581</ele>
        <time>2019-08-02T07:38:22Z</time>
      </trkpt>
      <trkpt lat="44.34161" lon="5.90223">
        <ele>582</ele>
        <time>2019-08-02T07:38:23Z</time>
      </trkpt>
      <trkpt lat="44.34158" lon="5.90219">
        <ele>582</ele>
        <time>2019-08-02T07:38:24Z</time>
      </trkpt>
      <trkpt lat="44.34155" lon="5.90216">
        <ele>582</ele>
        <time>2019-08-02T07:38:25Z</time>
      </trkpt>
      <trkpt lat="44.34151" lon="5.90212">
        <ele>583</ele>
        <time>2019-08-02T07:38:26Z</time>
      </trkpt>
      <trkpt lat="44.34148" lon="5.90207">
        <ele>583</ele>
        <time>2019-08-02T07:38:27Z</time>
      </trkpt>
      <trkpt lat="44.34144" lon="5.90204">
        <ele>583</ele>
        <time>2019-08-02T07:38:28Z</time>
      </trkpt>
      <trkpt lat="44.3414" lon="5.90199">
        <ele>584</ele>
        <time>2019-08-02T07:38:29Z</time>
      </trkpt>
      <trkpt lat="44.34136" lon="5.90195">
        <ele>584</ele>
        <time>2019-08-02T07:38:30Z</time>
      </trkpt>
      <trkpt lat="44.34132" lon="5.9019">
        <ele>584</ele>
        <time>2019-08-02T07:38:31Z</time>
      </trkpt>
      <trkpt lat="44.34127" lon="5.90185">
        <ele>584</ele>
        <time>2019-08-02T07:38:32Z</time>
      </trkpt>
      <trkpt lat="44.34123" lon="5.9018">
        <ele>584</ele>
        <time>2019-08-02T07:38:33Z</time>
      </trkpt>
      <trkpt lat="44.34119" lon="5.90175">
        <ele>584</ele>
        <time>2019-08-02T07:38:34Z</time>
      </trkpt>
      <trkpt lat="44.34114" lon="5.90171">
        <ele>584</ele>
        <time>2019-08-02T07:38:35Z</time>
      </trkpt>
      <trkpt lat="44.3411" lon="5.90166">
        <ele>584</ele>
        <time>2019-08-02T07:38:36Z</time>
      </trkpt>
      <trkpt lat="44.34105" lon="5.90161">
        <ele>584</ele>
        <time>2019-08-02T07:38:37Z</time>
      </trkpt>
      <trkpt lat="44.341" lon="5.90157">
        <ele>584</ele>
        <time>2019-08-02T07:38:38Z</time>
      </trkpt>
      <trkpt lat="44.34095" lon="5.90153">
        <ele>584</ele>
        <time>2019-08-02T07:38:39Z</time>
      </trkpt>
      <trkpt lat="44.3409" lon="5.90148">
        <ele>584</ele>
        <time>2019-08-02T07:38:40Z</time>
      </trkpt>
      <trkpt lat="44.34084" lon="5.90143">
        <ele>584</ele>
        <time>2019-08-02T07:38:41Z</time>
      </trkpt>
      <trkpt lat="44.34078" lon="5.90138">
        <ele>584</ele>
        <time>2019-08-02T07:38:42Z</time>
      </trkpt>
      <trkpt lat="44.34072" lon="5.90133">
        <ele>584</ele>
        <time>2019-08-02T07:38:43Z</time>
      </trkpt>
      <trkpt lat="44.34066" lon="5.90127">
        <ele>584</ele>
        <time>2019-08-02T07:38:44Z</time>
      </trkpt>
      <trkpt lat="44.34059" lon="5.90121">
        <ele>584</ele>
        <time>2019-08-02T07:38:45Z</time>
      </trkpt>
      <trkpt lat="44.34052" lon="5.90115">
        <ele>584</ele>
        <time>2019-08-02T07:38:46Z</time>
      </trkpt>
      <trkpt lat="44.34045" lon="5.90108">
        <ele>584</ele>
        <time>2019-08-02T07:38:47Z</time>
      </trkpt>
      <trkpt lat="44.34037" lon="5.90102">
        <ele>584</ele>
        <time>2019-08-02T07:38:48Z</time>
      </trkpt>
      <trkpt lat="44.34029" lon="5.90095">
        <ele>584</ele>
        <time>2019-08-02T07:38:49Z</time>
      </trkpt>
      <trkpt lat="44.34022" lon="5.90088">
        <ele>584</ele>
        <time>2019-08-02T07:38:50Z</time>
      </trkpt>
      <trkpt lat="44.34014" lon="5.90081">
        <ele>584</ele>
        <time>2019-08-02T07:38:51Z</time>
      </trkpt>
      <trkpt lat="44.34006" lon="5.90074">
        <ele>584</ele>
        <time>2019-08-02T07:38:52Z</time>
      </trkpt>
      <trkpt lat="44.33998" lon="5.90066">
        <ele>584</ele>
        <time>2019-08-02T07:38:53Z</time>
      </trkpt>
      <trkpt lat="44.3399" lon="5.90059">
        <ele>584</ele>
        <time>2019-08-02T07:38:54Z</time>
      </trkpt>
      <trkpt lat="44.33982" lon="5.90051">
        <ele>583</ele>
        <time>2019-08-02T07:38:55Z</time>
      </trkpt>
      <trkpt lat="44.33974" lon="5.90043">
        <ele>583</ele>
        <time>2019-08-02T07:38:56Z</time>
      </trkpt>
      <trkpt lat="44.33967" lon="5.90035">
        <ele>582</ele>
        <time>2019-08-02T07:38:57Z</time>
      </trkpt>
      <trkpt lat="44.3396" lon="5.90027">
        <ele>582</ele>
        <time>2019-08-02T07:38:58Z</time>
      </trkpt>
      <trkpt lat="44.33953" lon="5.90019">
        <ele>582</ele>
        <time>2019-08-02T07:38:59Z</time>
      </trkpt>
      <trkpt lat="44.33947" lon="5.90012">
        <ele>582</ele>
        <time>2019-08-02T07:39:00Z</time>
      </trkpt>
      <trkpt lat="44.33941" lon="5.90005">
        <ele>582</ele>
        <time>2019-08-02T07:39:01Z</time>
      </trkpt>
      <trkpt lat="44.33935" lon="5.89998">
        <ele>582</ele>
        <time>2019-08-02T07:39:02Z</time>
      </trkpt>
      <trkpt lat="44.3393" lon="5.89992">
        <ele>582</ele>
        <time>2019-08-02T07:39:03Z</time>
      </trkpt>
      <trkpt lat="44.33925" lon="5.89986">
        <ele>582</ele>
        <time>2019-08-02T07:39:04Z</time>
      </trkpt>
      <trkpt lat="44.3392" lon="5.8998">
        <ele>582</ele>
        <time>2019-08-02T07:39:05Z</time>
      </trkpt>
      <trkpt lat="44.33915" lon="5.89974">
        <ele>582</ele>
        <time>2019-08-02T07:39:06Z</time>
      </trkpt>
      <trkpt lat="44.33909" lon="5.89969">
        <ele>582</ele>
        <time>2019-08-02T07:39:07Z</time>
      </trkpt>
      <trkpt lat="44.33904" lon="5.89963">
        <ele>582</ele>
        <time>2019-08-02T07:39:08Z</time>
      </trkpt>
      <trkpt lat="44.33898" lon="5.89957">
        <ele>582</ele>
        <time>2019-08-02T07:39:09Z</time>
      </trkpt>
      <trkpt lat="44.33892" lon="5.89951">
        <ele>582</ele>
        <time>2019-08-02T07:39:10Z</time>
      </trkpt>
      <trkpt lat="44.33887" lon="5.89945">
        <ele>582</ele>
        <time>2019-08-02T07:39:11Z</time>
      </trkpt>
      <trkpt lat="44.33881" lon="5.89939">
        <ele>582</ele>
        <time>2019-08-02T07:39:12Z</time>
      </trkpt>
      <trkpt lat="44.33875" lon="5.89933">
        <ele>581</ele>
        <time>2019-08-02T07:39:13Z</time>
      </trkpt>
      <trkpt lat="44.33869" lon="5.89928">
        <ele>581</ele>
        <time>2019-08-02T07:39:14Z</time>
      </trkpt>
      <trkpt lat="44.33862" lon="5.89923">
        <ele>581</ele>
        <time>2019-08-02T07:39:15Z</time>
      </trkpt>
      <trkpt lat="44.33856" lon="5.89917">
        <ele>580</ele>
        <time>2019-08-02T07:39:16Z</time>
      </trkpt>
      <trkpt lat="44.33849" lon="5.89911">
        <ele>580</ele>
        <time>2019-08-02T07:39:17Z</time>
      </trkpt>
      <trkpt lat="44.33842" lon="5.89906">
        <ele>580</ele>
        <time>2019-08-02T07:39:18Z</time>
      </trkpt>
      <trkpt lat="44.33835" lon="5.89901">
        <ele>580</ele>
        <time>2019-08-02T07:39:19Z</time>
      </trkpt>
      <trkpt lat="44.33828" lon="5.89895">
        <ele>579</ele>
        <time>2019-08-02T07:39:20Z</time>
      </trkpt>
      <trkpt lat="44.3382" lon="5.89889">
        <ele>579</ele>
        <time>2019-08-02T07:39:21Z</time>
      </trkpt>
      <trkpt lat="44.33812" lon="5.89884">
        <ele>579</ele>
        <time>2019-08-02T07:39:22Z</time>
      </trkpt>
      <trkpt lat="44.33804" lon="5.89878">
        <ele>578</ele>
        <time>2019-08-02T07:39:23Z</time>
      </trkpt>
      <trkpt lat="44.33796" lon="5.89872">
        <ele>577</ele>
        <time>2019-08-02T07:39:24Z</time>
      </trkpt>
      <trkpt lat="44.33788" lon="5.89865">
        <ele>577</ele>
        <time>2019-08-02T07:39:25Z</time>
      </trkpt>
      <trkpt lat="44.3378" lon="5.89858">
        <ele>576</ele>
        <time>2019-08-02T07:39:26Z</time>
      </trkpt>
      <trkpt lat="44.33772" lon="5.89851">
        <ele>576</ele>
        <time>2019-08-02T07:39:27Z</time>
      </trkpt>
      <trkpt lat="44.33764" lon="5.89844">
        <ele>576</ele>
        <time>2019-08-02T07:39:28Z</time>
      </trkpt>
      <trkpt lat="44.33756" lon="5.89837">
        <ele>575</ele>
        <time>2019-08-02T07:39:29Z</time>
      </trkpt>
      <trkpt lat="44.33747" lon="5.8983">
        <ele>575</ele>
        <time>2019-08-02T07:39:30Z</time>
      </trkpt>
      <trkpt lat="44.33738" lon="5.89825">
        <ele>575</ele>
        <time>2019-08-02T07:39:31Z</time>
      </trkpt>
      <trkpt lat="44.3373" lon="5.89819">
        <ele>575</ele>
        <time>2019-08-02T07:39:32Z</time>
      </trkpt>
      <trkpt lat="44.33722" lon="5.89814">
        <ele>575</ele>
        <time>2019-08-02T07:39:33Z</time>
      </trkpt>
      <trkpt lat="44.33714" lon="5.89808">
        <ele>575</ele>
        <time>2019-08-02T07:39:34Z</time>
      </trkpt>
      <trkpt lat="44.33706" lon="5.89804">
        <ele>575</ele>
        <time>2019-08-02T07:39:35Z</time>
      </trkpt>
      <trkpt lat="44.33698" lon="5.89799">
        <ele>575</ele>
        <time>2019-08-02T07:39:36Z</time>
      </trkpt>
      <trkpt lat="44.33691" lon="5.89795">
        <ele>575</ele>
        <time>2019-08-02T07:39:37Z</time>
      </trkpt>
      <trkpt lat="44.33684" lon="5.89791">
        <ele>575</ele>
        <time>2019-08-02T07:39:38Z</time>
      </trkpt>
      <trkpt lat="44.33678" lon="5.89788">
        <ele>575</ele>
        <time>2019-08-02T07:39:39Z</time>
      </trkpt>
      <trkpt lat="44.33671" lon="5.89784">
        <ele>575</ele>
        <time>2019-08-02T07:39:40Z</time>
      </trkpt>
      <trkpt lat="44.33665" lon="5.89781">
        <ele>575</ele>
        <time>2019-08-02T07:39:41Z</time>
      </trkpt>
      <trkpt lat="44.33658" lon="5.89778">
        <ele>575</ele>
        <time>2019-08-02T07:39:42Z</time>
      </trkpt>
      <trkpt lat="44.33652" lon="5.89774">
        <ele>575</ele>
        <time>2019-08-02T07:39:43Z</time>
      </trkpt>
      <trkpt lat="44.33646" lon="5.89771">
        <ele>575</ele>
        <time>2019-08-02T07:39:44Z</time>
      </trkpt>
      <trkpt lat="44.33639" lon="5.89767">
        <ele>575</ele>
        <time>2019-08-02T07:39:45Z</time>
      </trkpt>
      <trkpt lat="44.33633" lon="5.89763">
        <ele>575</ele>
        <time>2019-08-02T07:39:46Z</time>
      </trkpt>
      <trkpt lat="44.33626" lon="5.8976">
        <ele>575</ele>
        <time>2019-08-02T07:39:47Z</time>
      </trkpt>
      <trkpt lat="44.33619" lon="5.89756">
        <ele>575</ele>
        <time>2019-08-02T07:39:48Z</time>
      </trkpt>
      <trkpt lat="44.33613" lon="5.89753">
        <ele>575</ele>
        <time>2019-08-02T07:39:49Z</time>
      </trkpt>
      <trkpt lat="44.33606" lon="5.89749">
        <ele>575</ele>
        <time>2019-08-02T07:39:50Z</time>
      </trkpt>
      <trkpt lat="44.336" lon="5.89746">
        <ele>575</ele>
        <time>2019-08-02T07:39:51Z</time>
      </trkpt>
      <trkpt lat="44.33593" lon="5.89743">
        <ele>575</ele>
        <time>2019-08-02T07:39:52Z</time>
      </trkpt>
      <trkpt lat="44.33587" lon="5.8974">
        <ele>575</ele>
        <time>2019-08-02T07:39:53Z</time>
      </trkpt>
      <trkpt lat="44.3358" lon="5.89737">
        <ele>575</ele>
        <time>2019-08-02T07:39:54Z</time>
      </trkpt>
      <trkpt lat="44.33574" lon="5.89734">
        <ele>575</ele>
        <time>2019-08-02T07:39:55Z</time>
      </trkpt>
      <trkpt lat="44.33567" lon="5.8973">
        <ele>575</ele>
        <time>2019-08-02T07:39:56Z</time>
      </trkpt>
      <trkpt lat="44.3356" lon="5.89727">
        <ele>575</ele>
        <time>2019-08-02T07:39:57Z</time>
      </trkpt>
      <trkpt lat="44.33553" lon="5.89724">
        <ele>575</ele>
        <time>2019-08-02T07:39:58Z</time>
      </trkpt>
      <trkpt lat="44.33547" lon="5.8972">
        <ele>575</ele>
        <time>2019-08-02T07:39:59Z</time>
      </trkpt>
      <trkpt lat="44.3354" lon="5.89717">
        <ele>575</ele>
        <time>2019-08-02T07:40:00Z</time>
      </trkpt>
      <trkpt lat="44.33533" lon="5.89713">
        <ele>575</ele>
        <time>2019-08-02T07:40:01Z</time>
      </trkpt>
      <trkpt lat="44.33526" lon="5.8971">
        <ele>575</ele>
        <time>2019-08-02T07:40:02Z</time>
      </trkpt>
      <trkpt lat="44.33519" lon="5.89707">
        <ele>575</ele>
        <time>2019-08-02T07:40:03Z</time>
      </trkpt>
      <trkpt lat="44.33512" lon="5.89703">
        <ele>575</ele>
        <time>2019-08-02T07:40:04Z</time>
      </trkpt>
      <trkpt lat="44.33506" lon="5.897">
        <ele>575</ele>
        <time>2019-08-02T07:40:05Z</time>
      </trkpt>
      <trkpt lat="44.33499" lon="5.89697">
        <ele>575</ele>
        <time>2019-08-02T07:40:06Z</time>
      </trkpt>
      <trkpt lat="44.33492" lon="5.89693">
        <ele>575</ele>
        <time>2019-08-02T07:40:07Z</time>
      </trkpt>
      <trkpt lat="44.33485" lon="5.8969">
        <ele>575</ele>
        <time>2019-08-02T07:40:08Z</time>
      </trkpt>
      <trkpt lat="44.33479" lon="5.89686">
        <ele>575</ele>
        <time>2019-08-02T07:40:09Z</time>
      </trkpt>
      <trkpt lat="44.33472" lon="5.89683">
        <ele>575</ele>
        <time>2019-08-02T07:40:10Z</time>
      </trkpt>
      <trkpt lat="44.33466" lon="5.8968">
        <ele>575</ele>
        <time>2019-08-02T07:40:11Z</time>
      </trkpt>
      <trkpt lat="44.33459" lon="5.89677">
        <ele>575</ele>
        <time>2019-08-02T07:40:12Z</time>
      </trkpt>
      <trkpt lat="44.33452" lon="5.89673">
        <ele>575</ele>
        <time>2019-08-02T07:40:13Z</time>
      </trkpt>
      <trkpt lat="44.33445" lon="5.8967">
        <ele>575</ele>
        <time>2019-08-02T07:40:14Z</time>
      </trkpt>
      <trkpt lat="44.33439" lon="5.89666">
        <ele>575</ele>
        <time>2019-08-02T07:40:15Z</time>
      </trkpt>
      <trkpt lat="44.33432" lon="5.89663">
        <ele>575</ele>
        <time>2019-08-02T07:40:16Z</time>
      </trkpt>
      <trkpt lat="44.33425" lon="5.8966">
        <ele>575</ele>
        <time>2019-08-02T07:40:17Z</time>
      </trkpt>
      <trkpt lat="44.33418" lon="5.89657">
        <ele>575</ele>
        <time>2019-08-02T07:40:18Z</time>
      </trkpt>
      <trkpt lat="44.33411" lon="5.89654">
        <ele>575</ele>
        <time>2019-08-02T07:40:19Z</time>
      </trkpt>
      <trkpt lat="44.33404" lon="5.89651">
        <ele>575</ele>
        <time>2019-08-02T07:40:20Z</time>
      </trkpt>
      <trkpt lat="44.33397" lon="5.89647">
        <ele>575</ele>
        <time>2019-08-02T07:40:21Z</time>
      </trkpt>
      <trkpt lat="44.3339" lon="5.89644">
        <ele>575</ele>
        <time>2019-08-02T07:40:22Z</time>
      </trkpt>
      <trkpt lat="44.33383" lon="5.89641">
        <ele>575</ele>
        <time>2019-08-02T07:40:23Z</time>
      </trkpt>
      <trkpt lat="44.33376" lon="5.89638">
        <ele>575</ele>
        <time>2019-08-02T07:40:24Z</time>
      </trkpt>
      <trkpt lat="44.33369" lon="5.89634">
        <ele>575</ele>
        <time>2019-08-02T07:40:25Z</time>
      </trkpt>
      <trkpt lat="44.33363" lon="5.89631">
        <ele>575</ele>
        <time>2019-08-02T07:40:26Z</time>
      </trkpt>
      <trkpt lat="44.33356" lon="5.89628">
        <ele>575</ele>
        <time>2019-08-02T07:40:27Z</time>
      </trkpt>
      <trkpt lat="44.33349" lon="5.89626">
        <ele>575</ele>
        <time>2019-08-02T07:40:28Z</time>
      </trkpt>
      <trkpt lat="44.33343" lon="5.89622">
        <ele>575</ele>
        <time>2019-08-02T07:40:29Z</time>
      </trkpt>
      <trkpt lat="44.33336" lon="5.8962">
        <ele>575</ele>
        <time>2019-08-02T07:40:30Z</time>
      </trkpt>
      <trkpt lat="44.33329" lon="5.89617">
        <ele>575</ele>
        <time>2019-08-02T07:40:31Z</time>
      </trkpt>
      <trkpt lat="44.33323" lon="5.89614">
        <ele>575</ele>
        <time>2019-08-02T07:40:32Z</time>
      </trkpt>
      <trkpt lat="44.33316" lon="5.89611">
        <ele>575</ele>
        <time>2019-08-02T07:40:33Z</time>
      </trkpt>
      <trkpt lat="44.33309" lon="5.89608">
        <ele>575</ele>
        <time>2019-08-02T07:40:34Z</time>
      </trkpt>
      <trkpt lat="44.33303" lon="5.89605">
        <ele>575</ele>
        <time>2019-08-02T07:40:35Z</time>
      </trkpt>
      <trkpt lat="44.33296" lon="5.89603">
        <ele>575</ele>
        <time>2019-08-02T07:40:36Z</time>
      </trkpt>
      <trkpt lat="44.33289" lon="5.896">
        <ele>575</ele>
        <time>2019-08-02T07:40:37Z</time>
      </trkpt>
      <trkpt lat="44.33282" lon="5.89598">
        <ele>575</ele>
        <time>2019-08-02T07:40:38Z</time>
      </trkpt>
      <trkpt lat="44.33276" lon="5.89596">
        <ele>575</ele>
        <time>2019-08-02T07:40:39Z</time>
      </trkpt>
      <trkpt lat="44.33269" lon="5.89593">
        <ele>575</ele>
        <time>2019-08-02T07:40:40Z</time>
      </trkpt>
      <trkpt lat="44.33262" lon="5.8959">
        <ele>575</ele>
        <time>2019-08-02T07:40:41Z</time>
      </trkpt>
      <trkpt lat="44.33256" lon="5.89587">
        <ele>575</ele>
        <time>2019-08-02T07:40:42Z</time>
      </trkpt>
      <trkpt lat="44.3325" lon="5.89584">
        <ele>575</ele>
        <time>2019-08-02T07:40:43Z</time>
      </trkpt>
      <trkpt lat="44.33243" lon="5.89582">
        <ele>575</ele>
        <time>2019-08-02T07:40:44Z</time>
      </trkpt>
      <trkpt lat="44.33236" lon="5.8958">
        <ele>575</ele>
        <time>2019-08-02T07:40:45Z</time>
      </trkpt>
      <trkpt lat="44.3323" lon="5.89577">
        <ele>575</ele>
        <time>2019-08-02T07:40:46Z</time>
      </trkpt>
      <trkpt lat="44.33223" lon="5.89575">
        <ele>575</ele>
        <time>2019-08-02T07:40:47Z</time>
      </trkpt>
      <trkpt lat="44.33217" lon="5.89573">
        <ele>575</ele>
        <time>2019-08-02T07:40:48Z</time>
      </trkpt>
      <trkpt lat="44.3321" lon="5.89571">
        <ele>575</ele>
        <time>2019-08-02T07:40:49Z</time>
      </trkpt>
      <trkpt lat="44.33204" lon="5.89568">
        <ele>575</ele>
        <time>2019-08-02T07:40:50Z</time>
      </trkpt>
      <trkpt lat="44.33197" lon="5.89566">
        <ele>575</ele>
        <time>2019-08-02T07:40:51Z</time>
      </trkpt>
      <trkpt lat="44.33191" lon="5.89564">
        <ele>575</ele>
        <time>2019-08-02T07:40:52Z</time>
      </trkpt>
      <trkpt lat="44.33184" lon="5.89561">
        <ele>575</ele>
        <time>2019-08-02T07:40:53Z</time>
      </trkpt>
      <trkpt lat="44.33178" lon="5.89559">
        <ele>575</ele>
        <time>2019-08-02T07:40:54Z</time>
      </trkpt>
      <trkpt lat="44.33171" lon="5.89557">
        <ele>575</ele>
        <time>2019-08-02T07:40:55Z</time>
      </trkpt>
      <trkpt lat="44.33165" lon="5.89555">
        <ele>575</ele>
        <time>2019-08-02T07:40:56Z</time>
      </trkpt>
      <trkpt lat="44.33158" lon="5.89553">
        <ele>575</ele>
        <time>2019-08-02T07:40:57Z</time>
      </trkpt>
      <trkpt lat="44.33151" lon="5.89551">
        <ele>575</ele>
        <time>2019-08-02T07:40:58Z</time>
      </trkpt>
      <trkpt lat="44.33145" lon="5.89549">
        <ele>575</ele>
        <time>2019-08-02T07:40:59Z</time>
      </trkpt>
      <trkpt lat="44.33138" lon="5.89547">
        <ele>575</ele>
        <time>2019-08-02T07:41:00Z</time>
      </trkpt>
      <trkpt lat="44.33131" lon="5.89545">
        <ele>575</ele>
        <time>2019-08-02T07:41:01Z</time>
      </trkpt>
      <trkpt lat="44.33125" lon="5.89543">
        <ele>575</ele>
        <time>2019-08-02T07:41:02Z</time>
      </trkpt>
      <trkpt lat="44.33118" lon="5.8954">
        <ele>575</ele>
        <time>2019-08-02T07:41:03Z</time>
      </trkpt>
      <trkpt lat="44.33112" lon="5.89538">
        <ele>575</ele>
        <time>2019-08-02T07:41:04Z</time>
      </trkpt>
      <trkpt lat="44.33105" lon="5.89536">
        <ele>575</ele>
        <time>2019-08-02T07:41:05Z</time>
      </trkpt>
      <trkpt lat="44.33099" lon="5.89535">
        <ele>575</ele>
        <time>2019-08-02T07:41:06Z</time>
      </trkpt>
      <trkpt lat="44.33092" lon="5.89533">
        <ele>575</ele>
        <time>2019-08-02T07:41:07Z</time>
      </trkpt>
      <trkpt lat="44.33086" lon="5.89531">
        <ele>575</ele>
        <time>2019-08-02T07:41:08Z</time>
      </trkpt>
      <trkpt lat="44.33079" lon="5.89529">
        <ele>575</ele>
        <time>2019-08-02T07:41:09Z</time>
      </trkpt>
      <trkpt lat="44.33072" lon="5.89526">
        <ele>575</ele>
        <time>2019-08-02T07:41:10Z</time>
      </trkpt>
      <trkpt lat="44.33066" lon="5.89524">
        <ele>575</ele>
        <time>2019-08-02T07:41:11Z</time>
      </trkpt>
      <trkpt lat="44.3306" lon="5.89522">
        <ele>575</ele>
        <time>2019-08-02T07:41:12Z</time>
      </trkpt>
      <trkpt lat="44.33054" lon="5.8952">
        <ele>575</ele>
        <time>2019-08-02T07:41:13Z</time>
      </trkpt>
      <trkpt lat="44.33047" lon="5.89518">
        <ele>575</ele>
        <time>2019-08-02T07:41:14Z</time>
      </trkpt>
      <trkpt lat="44.33041" lon="5.89516">
        <ele>575</ele>
        <time>2019-08-02T07:41:15Z</time>
      </trkpt>
      <trkpt lat="44.33034" lon="5.89513">
        <ele>575</ele>
        <time>2019-08-02T07:41:16Z</time>
      </trkpt>
      <trkpt lat="44.33027" lon="5.89511">
        <ele>575</ele>
        <time>2019-08-02T07:41:17Z</time>
      </trkpt>
      <trkpt lat="44.33021" lon="5.89508">
        <ele>575</ele>
        <time>2019-08-02T07:41:18Z</time>
      </trkpt>
      <trkpt lat="44.33014" lon="5.89506">
        <ele>575</ele>
        <time>2019-08-02T07:41:19Z</time>
      </trkpt>
      <trkpt lat="44.33008" lon="5.89504">
        <ele>575</ele>
        <time>2019-08-02T07:41:20Z</time>
      </trkpt>
      <trkpt lat="44.33001" lon="5.89501">
        <ele>575</ele>
        <time>2019-08-02T07:41:21Z</time>
      </trkpt>
      <trkpt lat="44.32994" lon="5.89498">
        <ele>575</ele>
        <time>2019-08-02T07:41:22Z</time>
      </trkpt>
      <trkpt lat="44.32988" lon="5.89495">
        <ele>575</ele>
        <time>2019-08-02T07:41:23Z</time>
      </trkpt>
      <trkpt lat="44.32981" lon="5.89493">
        <ele>575</ele>
        <time>2019-08-02T07:41:24Z</time>
      </trkpt>
      <trkpt lat="44.32975" lon="5.89489">
        <ele>575</ele>
        <time>2019-08-02T07:41:25Z</time>
      </trkpt>
      <trkpt lat="44.32968" lon="5.89486">
        <ele>575</ele>
        <time>2019-08-02T07:41:26Z</time>
      </trkpt>
      <trkpt lat="44.32962" lon="5.89483">
        <ele>575</ele>
        <time>2019-08-02T07:41:27Z</time>
      </trkpt>
      <trkpt lat="44.32956" lon="5.8948">
        <ele>575</ele>
        <time>2019-08-02T07:41:28Z</time>
      </trkpt>
      <trkpt lat="44.32949" lon="5.89476">
        <ele>575</ele>
        <time>2019-08-02T07:41:29Z</time>
      </trkpt>
      <trkpt lat="44.32943" lon="5.89473">
        <ele>575</ele>
        <time>2019-08-02T07:41:30Z</time>
      </trkpt>
      <trkpt lat="44.32937" lon="5.8947">
        <ele>575</ele>
        <time>2019-08-02T07:41:31Z</time>
      </trkpt>
      <trkpt lat="44.32931" lon="5.89466">
        <ele>575</ele>
        <time>2019-08-02T07:41:32Z</time>
      </trkpt>
      <trkpt lat="44.32924" lon="5.89462">
        <ele>575</ele>
        <time>2019-08-02T07:41:33Z</time>
      </trkpt>
      <trkpt lat="44.32918" lon="5.89459">
        <ele>575</ele>
        <time>2019-08-02T07:41:34Z</time>
      </trkpt>
      <trkpt lat="44.32912" lon="5.89455">
        <ele>575</ele>
        <time>2019-08-02T07:41:35Z</time>
      </trkpt>
      <trkpt lat="44.32905" lon="5.89451">
        <ele>575</ele>
        <time>2019-08-02T07:41:36Z</time>
      </trkpt>
      <trkpt lat="44.32899" lon="5.89447">
        <ele>575</ele>
        <time>2019-08-02T07:41:37Z</time>
      </trkpt>
      <trkpt lat="44.32893" lon="5.89442">
        <ele>575</ele>
        <time>2019-08-02T07:41:38Z</time>
      </trkpt>
      <trkpt lat="44.32887" lon="5.89438">
        <ele>575</ele>
        <time>2019-08-02T07:41:39Z</time>
      </trkpt>
      <trkpt lat="44.32881" lon="5.89434">
        <ele>575</ele>
        <time>2019-08-02T07:41:40Z</time>
      </trkpt>
      <trkpt lat="44.32875" lon="5.8943">
        <ele>575</ele>
        <time>2019-08-02T07:41:41Z</time>
      </trkpt>
      <trkpt lat="44.32869" lon="5.89425">
        <ele>575</ele>
        <time>2019-08-02T07:41:42Z</time>
      </trkpt>
      <trkpt lat="44.32862" lon="5.89421">
        <ele>575</ele>
        <time>2019-08-02T07:41:43Z</time>
      </trkpt>
      <trkpt lat="44.32856" lon="5.89417">
        <ele>575</ele>
        <time>2019-08-02T07:41:44Z</time>
      </trkpt>
      <trkpt lat="44.3285" lon="5.89413">
        <ele>575</ele>
        <time>2019-08-02T07:41:45Z</time>
      </trkpt>
      <trkpt lat="44.32845" lon="5.89409">
        <ele>575</ele>
        <time>2019-08-02T07:41:46Z</time>
      </trkpt>
      <trkpt lat="44.32838" lon="5.89405">
        <ele>575</ele>
        <time>2019-08-02T07:41:47Z</time>
      </trkpt>
      <trkpt lat="44.32833" lon="5.894">
        <ele>575</ele>
        <time>2019-08-02T07:41:48Z</time>
      </trkpt>
      <trkpt lat="44.32827" lon="5.89396">
        <ele>575</ele>
        <time>2019-08-02T07:41:49Z</time>
      </trkpt>
      <trkpt lat="44.32821" lon="5.89392">
        <ele>575</ele>
        <time>2019-08-02T07:41:50Z</time>
      </trkpt>
      <trkpt lat="44.32815" lon="5.89388">
        <ele>575</ele>
        <time>2019-08-02T07:41:51Z</time>
      </trkpt>
      <trkpt lat="44.32809" lon="5.89383">
        <ele>575</ele>
        <time>2019-08-02T07:41:52Z</time>
      </trkpt>
      <trkpt lat="44.32803" lon="5.89378">
        <ele>575</ele>
        <time>2019-08-02T07:41:53Z</time>
      </trkpt>
      <trkpt lat="44.32797" lon="5.89374">
        <ele>575</ele>
        <time>2019-08-02T07:41:54Z</time>
      </trkpt>
      <trkpt lat="44.3279" lon="5.8937">
        <ele>575</ele>
        <time>2019-08-02T07:41:55Z</time>
      </trkpt>
      <trkpt lat="44.32785" lon="5.89366">
        <ele>575</ele>
        <time>2019-08-02T07:41:56Z</time>
      </trkpt>
      <trkpt lat="44.32779" lon="5.89361">
        <ele>575</ele>
        <time>2019-08-02T07:41:57Z</time>
      </trkpt>
      <trkpt lat="44.32772" lon="5.89357">
        <ele>575</ele>
        <time>2019-08-02T07:41:58Z</time>
      </trkpt>
      <trkpt lat="44.32766" lon="5.89353">
        <ele>575</ele>
        <time>2019-08-02T07:41:59Z</time>
      </trkpt>
      <trkpt lat="44.32761" lon="5.89349">
        <ele>575</ele>
        <time>2019-08-02T07:42:00Z</time>
      </trkpt>
      <trkpt lat="44.32754" lon="5.89345">
        <ele>575</ele>
        <time>2019-08-02T07:42:01Z</time>
      </trkpt>
      <trkpt lat="44.32748" lon="5.89341">
        <ele>575</ele>
        <time>2019-08-02T07:42:02Z</time>
      </trkpt>
      <trkpt lat="44.32742" lon="5.89337">
        <ele>575</ele>
        <time>2019-08-02T07:42:03Z</time>
      </trkpt>
      <trkpt lat="44.32737" lon="5.89332">
        <ele>575</ele>
        <time>2019-08-02T07:42:04Z</time>
      </trkpt>
      <trkpt lat="44.32731" lon="5.89328">
        <ele>575</ele>
        <time>2019-08-02T07:42:05Z</time>
      </trkpt>
      <trkpt lat="44.32725" lon="5.89324">
        <ele>575</ele>
        <time>2019-08-02T07:42:06Z</time>
      </trkpt>
      <trkpt lat="44.32719" lon="5.8932">
        <ele>575</ele>
        <time>2019-08-02T07:42:07Z</time>
      </trkpt>
      <trkpt lat="44.32713" lon="5.89316">
        <ele>575</ele>
        <time>2019-08-02T07:42:08Z</time>
      </trkpt>
      <trkpt lat="44.32707" lon="5.89312">
        <ele>575</ele>
        <time>2019-08-02T07:42:09Z</time>
      </trkpt>
      <trkpt lat="44.32701" lon="5.89308">
        <ele>575</ele>
        <time>2019-08-02T07:42:10Z</time>
      </trkpt>
      <trkpt lat="44.32696" lon="5.89303">
        <ele>575</ele>
        <time>2019-08-02T07:42:11Z</time>
      </trkpt>
      <trkpt lat="44.3269" lon="5.89299">
        <ele>575</ele>
        <time>2019-08-02T07:42:12Z</time>
      </trkpt>
      <trkpt lat="44.32684" lon="5.89295">
        <ele>575</ele>
        <time>2019-08-02T07:42:13Z</time>
      </trkpt>
      <trkpt lat="44.32679" lon="5.89291">
        <ele>575</ele>
        <time>2019-08-02T07:42:14Z</time>
      </trkpt>
      <trkpt lat="44.32673" lon="5.89287">
        <ele>575</ele>
        <time>2019-08-02T07:42:15Z</time>
      </trkpt>
      <trkpt lat="44.32666" lon="5.89282">
        <ele>575</ele>
        <time>2019-08-02T07:42:16Z</time>
      </trkpt>
      <trkpt lat="44.32661" lon="5.89278">
        <ele>575</ele>
        <time>2019-08-02T07:42:17Z</time>
      </trkpt>
      <trkpt lat="44.32655" lon="5.89273">
        <ele>575</ele>
        <time>2019-08-02T07:42:18Z</time>
      </trkpt>
      <trkpt lat="44.32649" lon="5.89268">
        <ele>575</ele>
        <time>2019-08-02T07:42:19Z</time>
      </trkpt>
      <trkpt lat="44.32644" lon="5.89263">
        <ele>575</ele>
        <time>2019-08-02T07:42:20Z</time>
      </trkpt>
      <trkpt lat="44.32639" lon="5.89258">
        <ele>575</ele>
        <time>2019-08-02T07:42:21Z</time>
      </trkpt>
      <trkpt lat="44.32633" lon="5.89254">
        <ele>575</ele>
        <time>2019-08-02T07:42:22Z</time>
      </trkpt>
      <trkpt lat="44.32628" lon="5.89251">
        <ele>575</ele>
        <time>2019-08-02T07:42:23Z</time>
      </trkpt>
      <trkpt lat="44.32622" lon="5.89247">
        <ele>575</ele>
        <time>2019-08-02T07:42:24Z</time>
      </trkpt>
      <trkpt lat="44.32616" lon="5.89244">
        <ele>575</ele>
        <time>2019-08-02T07:42:25Z</time>
      </trkpt>
      <trkpt lat="44.3261" lon="5.8924">
        <ele>575</ele>
        <time>2019-08-02T07:42:26Z</time>
      </trkpt>
      <trkpt lat="44.32603" lon="5.89236">
        <ele>575</ele>
        <time>2019-08-02T07:42:27Z</time>
      </trkpt>
      <trkpt lat="44.32597" lon="5.89233">
        <ele>575</ele>
        <time>2019-08-02T07:42:28Z</time>
      </trkpt>
      <trkpt lat="44.3259" lon="5.8923">
        <ele>575</ele>
        <time>2019-08-02T07:42:29Z</time>
      </trkpt>
      <trkpt lat="44.32583" lon="5.89226">
        <ele>575</ele>
        <time>2019-08-02T07:42:30Z</time>
      </trkpt>
      <trkpt lat="44.32577" lon="5.89223">
        <ele>575</ele>
        <time>2019-08-02T07:42:31Z</time>
      </trkpt>
      <trkpt lat="44.3257" lon="5.8922">
        <ele>575</ele>
        <time>2019-08-02T07:42:32Z</time>
      </trkpt>
      <trkpt lat="44.32563" lon="5.89216">
        <ele>575</ele>
        <time>2019-08-02T07:42:33Z</time>
      </trkpt>
      <trkpt lat="44.32556" lon="5.89213">
        <ele>575</ele>
        <time>2019-08-02T07:42:34Z</time>
      </trkpt>
      <trkpt lat="44.32549" lon="5.89209">
        <ele>575</ele>
        <time>2019-08-02T07:42:35Z</time>
      </trkpt>
      <trkpt lat="44.32542" lon="5.89206">
        <ele>575</ele>
        <time>2019-08-02T07:42:36Z</time>
      </trkpt>
      <trkpt lat="44.32535" lon="5.89203">
        <ele>575</ele>
        <time>2019-08-02T07:42:37Z</time>
      </trkpt>
      <trkpt lat="44.32528" lon="5.892">
        <ele>575</ele>
        <time>2019-08-02T07:42:38Z</time>
      </trkpt>
      <trkpt lat="44.3252" lon="5.89197">
        <ele>575</ele>
        <time>2019-08-02T07:42:39Z</time>
      </trkpt>
      <trkpt lat="44.32513" lon="5.89194">
        <ele>575</ele>
        <time>2019-08-02T07:42:40Z</time>
      </trkpt>
      <trkpt lat="44.32506" lon="5.89192">
        <ele>575</ele>
        <time>2019-08-02T07:42:41Z</time>
      </trkpt>
      <trkpt lat="44.32499" lon="5.89189">
        <ele>575</ele>
        <time>2019-08-02T07:42:42Z</time>
      </trkpt>
      <trkpt lat="44.32491" lon="5.89186">
        <ele>575</ele>
        <time>2019-08-02T07:42:43Z</time>
      </trkpt>
      <trkpt lat="44.32484" lon="5.89184">
        <ele>575</ele>
        <time>2019-08-02T07:42:44Z</time>
      </trkpt>
      <trkpt lat="44.32476" lon="5.89182">
        <ele>575</ele>
        <time>2019-08-02T07:42:45Z</time>
      </trkpt>
      <trkpt lat="44.32469" lon="5.8918">
        <ele>575</ele>
        <time>2019-08-02T07:42:46Z</time>
      </trkpt>
      <trkpt lat="44.32462" lon="5.89177">
        <ele>575</ele>
        <time>2019-08-02T07:42:47Z</time>
      </trkpt>
      <trkpt lat="44.32455" lon="5.89174">
        <ele>575</ele>
        <time>2019-08-02T07:42:48Z</time>
      </trkpt>
      <trkpt lat="44.32448" lon="5.89172">
        <ele>575</ele>
        <time>2019-08-02T07:42:49Z</time>
      </trkpt>
      <trkpt lat="44.3244" lon="5.8917">
        <ele>575</ele>
        <time>2019-08-02T07:42:50Z</time>
      </trkpt>
      <trkpt lat="44.32433" lon="5.89167">
        <ele>575</ele>
        <time>2019-08-02T07:42:51Z</time>
      </trkpt>
      <trkpt lat="44.32426" lon="5.89165">
        <ele>575</ele>
        <time>2019-08-02T07:42:52Z</time>
      </trkpt>
      <trkpt lat="44.3242" lon="5.89163">
        <ele>575</ele>
        <time>2019-08-02T07:42:53Z</time>
      </trkpt>
      <trkpt lat="44.32412" lon="5.89161">
        <ele>575</ele>
        <time>2019-08-02T07:42:54Z</time>
      </trkpt>
      <trkpt lat="44.32405" lon="5.89159">
        <ele>575</ele>
        <time>2019-08-02T07:42:55Z</time>
      </trkpt>
      <trkpt lat="44.32399" lon="5.89156">
        <ele>575</ele>
        <time>2019-08-02T07:42:56Z</time>
      </trkpt>
      <trkpt lat="44.32392" lon="5.89154">
        <ele>575</ele>
        <time>2019-08-02T07:42:57Z</time>
      </trkpt>
      <trkpt lat="44.32385" lon="5.89153">
        <ele>575</ele>
        <time>2019-08-02T07:42:58Z</time>
      </trkpt>
      <trkpt lat="44.32378" lon="5.89151">
        <ele>575</ele>
        <time>2019-08-02T07:42:59Z</time>
      </trkpt>
      <trkpt lat="44.32372" lon="5.89149">
        <ele>575</ele>
        <time>2019-08-02T07:43:00Z</time>
      </trkpt>
      <trkpt lat="44.32365" lon="5.89147">
        <ele>575</ele>
        <time>2019-08-02T07:43:01Z</time>
      </trkpt>
      <trkpt lat="44.32359" lon="5.89145">
        <ele>575</ele>
        <time>2019-08-02T07:43:02Z</time>
      </trkpt>
      <trkpt lat="44.32353" lon="5.89143">
        <ele>575</ele>
        <time>2019-08-02T07:43:03Z</time>
      </trkpt>
      <trkpt lat="44.32346" lon="5.8914">
        <ele>575</ele>
        <time>2019-08-02T07:43:04Z</time>
      </trkpt>
      <trkpt lat="44.32339" lon="5.89138">
        <ele>575</ele>
        <time>2019-08-02T07:43:05Z</time>
      </trkpt>
      <trkpt lat="44.32333" lon="5.89136">
        <ele>575</ele>
        <time>2019-08-02T07:43:06Z</time>
      </trkpt>
      <trkpt lat="44.32327" lon="5.89134">
        <ele>575</ele>
        <time>2019-08-02T07:43:07Z</time>
      </trkpt>
      <trkpt lat="44.32321" lon="5.89131">
        <ele>575</ele>
        <time>2019-08-02T07:43:08Z</time>
      </trkpt>
      <trkpt lat="44.32315" lon="5.89129">
        <ele>575</ele>
        <time>2019-08-02T07:43:09Z</time>
      </trkpt>
      <trkpt lat="44.32308" lon="5.89127">
        <ele>575</ele>
        <time>2019-08-02T07:43:10Z</time>
      </trkpt>
      <trkpt lat="44.32302" lon="5.89126">
        <ele>575</ele>
        <time>2019-08-02T07:43:11Z</time>
      </trkpt>
      <trkpt lat="44.32296" lon="5.89123">
        <ele>575</ele>
        <time>2019-08-02T07:43:12Z</time>
      </trkpt>
      <trkpt lat="44.3229" lon="5.89121">
        <ele>575</ele>
        <time>2019-08-02T07:43:13Z</time>
      </trkpt>
      <trkpt lat="44.32283" lon="5.89119">
        <ele>575</ele>
        <time>2019-08-02T07:43:14Z</time>
      </trkpt>
      <trkpt lat="44.32277" lon="5.89117">
        <ele>575</ele>
        <time>2019-08-02T07:43:15Z</time>
      </trkpt>
      <trkpt lat="44.3227" lon="5.89115">
        <ele>575</ele>
        <time>2019-08-02T07:43:16Z</time>
      </trkpt>
      <trkpt lat="44.32263" lon="5.89113">
        <ele>575</ele>
        <time>2019-08-02T07:43:17Z</time>
      </trkpt>
      <trkpt lat="44.32256" lon="5.89111">
        <ele>575</ele>
        <time>2019-08-02T07:43:18Z</time>
      </trkpt>
      <trkpt lat="44.32249" lon="5.89109">
        <ele>575</ele>
        <time>2019-08-02T07:43:19Z</time>
      </trkpt>
      <trkpt lat="44.32243" lon="5.89107">
        <ele>575</ele>
        <time>2019-08-02T07:43:20Z</time>
      </trkpt>
      <trkpt lat="44.32236" lon="5.89105">
        <ele>575</ele>
        <time>2019-08-02T07:43:21Z</time>
      </trkpt>
      <trkpt lat="44.3223" lon="5.89103">
        <ele>575</ele>
        <time>2019-08-02T07:43:22Z</time>
      </trkpt>
      <trkpt lat="44.32223" lon="5.89101">
        <ele>575</ele>
        <time>2019-08-02T07:43:23Z</time>
      </trkpt>
      <trkpt lat="44.32216" lon="5.89099">
        <ele>575</ele>
        <time>2019-08-02T07:43:24Z</time>
      </trkpt>
      <trkpt lat="44.32209" lon="5.89096">
        <ele>575</ele>
        <time>2019-08-02T07:43:25Z</time>
      </trkpt>
      <trkpt lat="44.32202" lon="5.89094">
        <ele>575</ele>
        <time>2019-08-02T07:43:26Z</time>
      </trkpt>
      <trkpt lat="44.32195" lon="5.89092">
        <ele>575</ele>
        <time>2019-08-02T07:43:27Z</time>
      </trkpt>
      <trkpt lat="44.32188" lon="5.8909">
        <ele>575</ele>
        <time>2019-08-02T07:43:28Z</time>
      </trkpt>
      <trkpt lat="44.32182" lon="5.89088">
        <ele>575</ele>
        <time>2019-08-02T07:43:29Z</time>
      </trkpt>
      <trkpt lat="44.32175" lon="5.89086">
        <ele>575</ele>
        <time>2019-08-02T07:43:30Z</time>
      </trkpt>
      <trkpt lat="44.32168" lon="5.89083">
        <ele>575</ele>
        <time>2019-08-02T07:43:31Z</time>
      </trkpt>
      <trkpt lat="44.32161" lon="5.89081">
        <ele>575</ele>
        <time>2019-08-02T07:43:32Z</time>
      </trkpt>
      <trkpt lat="44.32155" lon="5.89079">
        <ele>575</ele>
        <time>2019-08-02T07:43:33Z</time>
      </trkpt>
      <trkpt lat="44.32148" lon="5.89077">
        <ele>575</ele>
        <time>2019-08-02T07:43:34Z</time>
      </trkpt>
      <trkpt lat="44.32141" lon="5.89076">
        <ele>575</ele>
        <time>2019-08-02T07:43:35Z</time>
      </trkpt>
      <trkpt lat="44.32134" lon="5.89074">
        <ele>575</ele>
        <time>2019-08-02T07:43:36Z</time>
      </trkpt>
      <trkpt lat="44.32127" lon="5.89072">
        <ele>575</ele>
        <time>2019-08-02T07:43:37Z</time>
      </trkpt>
      <trkpt lat="44.32121" lon="5.8907">
        <ele>575</ele>
        <time>2019-08-02T07:43:38Z</time>
      </trkpt>
      <trkpt lat="44.32113" lon="5.89069">
        <ele>575</ele>
        <time>2019-08-02T07:43:39Z</time>
      </trkpt>
      <trkpt lat="44.32107" lon="5.89067">
        <ele>575</ele>
        <time>2019-08-02T07:43:40Z</time>
      </trkpt>
      <trkpt lat="44.32101" lon="5.89066">
        <ele>575</ele>
        <time>2019-08-02T07:43:41Z</time>
      </trkpt>
      <trkpt lat="44.32094" lon="5.89065">
        <ele>575</ele>
        <time>2019-08-02T07:43:42Z</time>
      </trkpt>
      <trkpt lat="44.32087" lon="5.89064">
        <ele>575</ele>
        <time>2019-08-02T07:43:43Z</time>
      </trkpt>
      <trkpt lat="44.32082" lon="5.89063">
        <ele>575</ele>
        <time>2019-08-02T07:43:44Z</time>
      </trkpt>
      <trkpt lat="44.32075" lon="5.89062">
        <ele>575</ele>
        <time>2019-08-02T07:43:45Z</time>
      </trkpt>
      <trkpt lat="44.32069" lon="5.89061">
        <ele>575</ele>
        <time>2019-08-02T07:43:46Z</time>
      </trkpt>
      <trkpt lat="44.32063" lon="5.89061">
        <ele>575</ele>
        <time>2019-08-02T07:43:47Z</time>
      </trkpt>
      <trkpt lat="44.32057" lon="5.8906">
        <ele>575</ele>
        <time>2019-08-02T07:43:48Z</time>
      </trkpt>
      <trkpt lat="44.32051" lon="5.89058">
        <ele>575</ele>
        <time>2019-08-02T07:43:49Z</time>
      </trkpt>
      <trkpt lat="44.32045" lon="5.89057">
        <ele>575</ele>
        <time>2019-08-02T07:43:50Z</time>
      </trkpt>
      <trkpt lat="44.32039" lon="5.89055">
        <ele>575</ele>
        <time>2019-08-02T07:43:51Z</time>
      </trkpt>
      <trkpt lat="44.32033" lon="5.89053">
        <ele>576</ele>
        <time>2019-08-02T07:43:52Z</time>
      </trkpt>
      <trkpt lat="44.32027" lon="5.89051">
        <ele>576</ele>
        <time>2019-08-02T07:43:53Z</time>
      </trkpt>
      <trkpt lat="44.32022" lon="5.89049">
        <ele>576</ele>
        <time>2019-08-02T07:43:54Z</time>
      </trkpt>
      <trkpt lat="44.32017" lon="5.89046">
        <ele>576</ele>
        <time>2019-08-02T07:43:55Z</time>
      </trkpt>
      <trkpt lat="44.32011" lon="5.89043">
        <ele>576</ele>
        <time>2019-08-02T07:43:56Z</time>
      </trkpt>
      <trkpt lat="44.32006" lon="5.89039">
        <ele>576</ele>
        <time>2019-08-02T07:43:57Z</time>
      </trkpt>
      <trkpt lat="44.32001" lon="5.89036">
        <ele>576</ele>
        <time>2019-08-02T07:43:58Z</time>
      </trkpt>
      <trkpt lat="44.31996" lon="5.89032">
        <ele>577</ele>
        <time>2019-08-02T07:43:59Z</time>
      </trkpt>
      <trkpt lat="44.31991" lon="5.89028">
        <ele>577</ele>
        <time>2019-08-02T07:44:00Z</time>
      </trkpt>
      <trkpt lat="44.31987" lon="5.89024">
        <ele>577</ele>
        <time>2019-08-02T07:44:01Z</time>
      </trkpt>
      <trkpt lat="44.31982" lon="5.89019">
        <ele>577</ele>
        <time>2019-08-02T07:44:02Z</time>
      </trkpt>
      <trkpt lat="44.31977" lon="5.89015">
        <ele>577</ele>
        <time>2019-08-02T07:44:03Z</time>
      </trkpt>
      <trkpt lat="44.31973" lon="5.89011">
        <ele>578</ele>
        <time>2019-08-02T07:44:04Z</time>
      </trkpt>
      <trkpt lat="44.31968" lon="5.89007">
        <ele>578</ele>
        <time>2019-08-02T07:44:05Z</time>
      </trkpt>
      <trkpt lat="44.31963" lon="5.89004">
        <ele>578</ele>
        <time>2019-08-02T07:44:06Z</time>
      </trkpt>
      <trkpt lat="44.31957" lon="5.89001">
        <ele>578</ele>
        <time>2019-08-02T07:44:07Z</time>
      </trkpt>
      <trkpt lat="44.31952" lon="5.88998">
        <ele>579</ele>
        <time>2019-08-02T07:44:08Z</time>
      </trkpt>
      <trkpt lat="44.31947" lon="5.88996">
        <ele>579</ele>
        <time>2019-08-02T07:44:09Z</time>
      </trkpt>
      <trkpt lat="44.31941" lon="5.88993">
        <ele>579</ele>
        <time>2019-08-02T07:44:10Z</time>
      </trkpt>
      <trkpt lat="44.31936" lon="5.88992">
        <ele>579</ele>
        <time>2019-08-02T07:44:11Z</time>
      </trkpt>
      <trkpt lat="44.3193" lon="5.8899">
        <ele>579</ele>
        <time>2019-08-02T07:44:12Z</time>
      </trkpt>
      <trkpt lat="44.31924" lon="5.88989">
        <ele>579</ele>
        <time>2019-08-02T07:44:13Z</time>
      </trkpt>
      <trkpt lat="44.31919" lon="5.88988">
        <ele>579</ele>
        <time>2019-08-02T07:44:14Z</time>
      </trkpt>
      <trkpt lat="44.31913" lon="5.88987">
        <ele>579</ele>
        <time>2019-08-02T07:44:15Z</time>
      </trkpt>
      <trkpt lat="44.31908" lon="5.88987">
        <ele>579</ele>
        <time>2019-08-02T07:44:16Z</time>
      </trkpt>
      <trkpt lat="44.31902" lon="5.88987">
        <ele>579</ele>
        <time>2019-08-02T07:44:17Z</time>
      </trkpt>
      <trkpt lat="44.31897" lon="5.88988">
        <ele>579</ele>
        <time>2019-08-02T07:44:18Z</time>
      </trkpt>
      <trkpt lat="44.31892" lon="5.88988">
        <ele>579</ele>
        <time>2019-08-02T07:44:19Z</time>
      </trkpt>
      <trkpt lat="44.31886" lon="5.88989">
        <ele>579</ele>
        <time>2019-08-02T07:44:20Z</time>
      </trkpt>
      <trkpt lat="44.3188" lon="5.88991">
        <ele>580</ele>
        <time>2019-08-02T07:44:21Z</time>
      </trkpt>
      <trkpt lat="44.31874" lon="5.88993">
        <ele>580</ele>
        <time>2019-08-02T07:44:22Z</time>
      </trkpt>
      <trkpt lat="44.31869" lon="5.88995">
        <ele>580</ele>
        <time>2019-08-02T07:44:23Z</time>
      </trkpt>
      <trkpt lat="44.31863" lon="5.88997">
        <ele>580</ele>
        <time>2019-08-02T07:44:24Z</time>
      </trkpt>
      <trkpt lat="44.31857" lon="5.89">
        <ele>580</ele>
        <time>2019-08-02T07:44:25Z</time>
      </trkpt>
      <trkpt lat="44.31852" lon="5.89003">
        <ele>580</ele>
        <time>2019-08-02T07:44:26Z</time>
      </trkpt>
      <trkpt lat="44.31846" lon="5.89006">
        <ele>580</ele>
        <time>2019-08-02T07:44:27Z</time>
      </trkpt>
      <trkpt lat="44.31841" lon="5.89009">
        <ele>580</ele>
        <time>2019-08-02T07:44:28Z</time>
      </trkpt>
      <trkpt lat="44.31836" lon="5.89012">
        <ele>580</ele>
        <time>2019-08-02T07:44:29Z</time>
      </trkpt>
      <trkpt lat="44.31831" lon="5.89015">
        <ele>580</ele>
        <time>2019-08-02T07:44:30Z</time>
      </trkpt>
      <trkpt lat="44.31826" lon="5.89019">
        <ele>580</ele>
        <time>2019-08-02T07:44:31Z</time>
      </trkpt>
      <trkpt lat="44.31821" lon="5.89022">
        <ele>580</ele>
        <time>2019-08-02T07:44:32Z</time>
      </trkpt>
      <trkpt lat="44.31816" lon="5.89026">
        <ele>581</ele>
        <time>2019-08-02T07:44:33Z</time>
      </trkpt>
      <trkpt lat="44.31811" lon="5.8903">
        <ele>581</ele>
        <time>2019-08-02T07:44:34Z</time>
      </trkpt>
      <trkpt lat="44.31806" lon="5.89033">
        <ele>581</ele>
        <time>2019-08-02T07:44:35Z</time>
      </trkpt>
      <trkpt lat="44.31801" lon="5.89037">
        <ele>581</ele>
        <time>2019-08-02T07:44:36Z</time>
      </trkpt>
      <trkpt lat="44.31797" lon="5.89041">
        <ele>581</ele>
        <time>2019-08-02T07:44:37Z</time>
      </trkpt>
      <trkpt lat="44.31792" lon="5.89045">
        <ele>582</ele>
        <time>2019-08-02T07:44:38Z</time>
      </trkpt>
      <trkpt lat="44.31787" lon="5.89048">
        <ele>582</ele>
        <time>2019-08-02T07:44:39Z</time>
      </trkpt>
      <trkpt lat="44.31782" lon="5.89051">
        <ele>582</ele>
        <time>2019-08-02T07:44:40Z</time>
      </trkpt>
      <trkpt lat="44.31777" lon="5.89055">
        <ele>583</ele>
        <time>2019-08-02T07:44:41Z</time>
      </trkpt>
      <trkpt lat="44.31772" lon="5.89058">
        <ele>583</ele>
        <time>2019-08-02T07:44:42Z</time>
      </trkpt>
      <trkpt lat="44.31767" lon="5.89061">
        <ele>584</ele>
        <time>2019-08-02T07:44:43Z</time>
      </trkpt>
      <trkpt lat="44.31762" lon="5.89065">
        <ele>584</ele>
        <time>2019-08-02T07:44:44Z</time>
      </trkpt>
      <trkpt lat="44.31757" lon="5.89067">
        <ele>584</ele>
        <time>2019-08-02T07:44:45Z</time>
      </trkpt>
      <trkpt lat="44.31753" lon="5.8907">
        <ele>585</ele>
        <time>2019-08-02T07:44:46Z</time>
      </trkpt>
      <trkpt lat="44.31748" lon="5.89073">
        <ele>585</ele>
        <time>2019-08-02T07:44:47Z</time>
      </trkpt>
      <trkpt lat="44.31743" lon="5.89075">
        <ele>585</ele>
        <time>2019-08-02T07:44:48Z</time>
      </trkpt>
      <trkpt lat="44.31738" lon="5.89078">
        <ele>585</ele>
        <time>2019-08-02T07:44:49Z</time>
      </trkpt>
      <trkpt lat="44.31733" lon="5.8908">
        <ele>585</ele>
        <time>2019-08-02T07:44:50Z</time>
      </trkpt>
      <trkpt lat="44.31728" lon="5.89082">
        <ele>585</ele>
        <time>2019-08-02T07:44:51Z</time>
      </trkpt>
      <trkpt lat="44.31723" lon="5.89084">
        <ele>586</ele>
        <time>2019-08-02T07:44:52Z</time>
      </trkpt>
      <trkpt lat="44.31718" lon="5.89085">
        <ele>586</ele>
        <time>2019-08-02T07:44:53Z</time>
      </trkpt>
      <trkpt lat="44.31713" lon="5.89087">
        <ele>586</ele>
        <time>2019-08-02T07:44:54Z</time>
      </trkpt>
      <trkpt lat="44.31707" lon="5.89089">
        <ele>586</ele>
        <time>2019-08-02T07:44:55Z</time>
      </trkpt>
      <trkpt lat="44.31702" lon="5.8909">
        <ele>586</ele>
        <time>2019-08-02T07:44:56Z</time>
      </trkpt>
      <trkpt lat="44.31697" lon="5.89092">
        <ele>586</ele>
        <time>2019-08-02T07:44:57Z</time>
      </trkpt>
      <trkpt lat="44.31692" lon="5.89093">
        <ele>586</ele>
        <time>2019-08-02T07:44:58Z</time>
      </trkpt>
      <trkpt lat="44.31686" lon="5.89094">
        <ele>586</ele>
        <time>2019-08-02T07:44:59Z</time>
      </trkpt>
      <trkpt lat="44.31681" lon="5.89095">
        <ele>586</ele>
        <time>2019-08-02T07:45:00Z</time>
      </trkpt>
      <trkpt lat="44.31676" lon="5.89096">
        <ele>586</ele>
        <time>2019-08-02T07:45:01Z</time>
      </trkpt>
      <trkpt lat="44.31671" lon="5.89096">
        <ele>586</ele>
        <time>2019-08-02T07:45:02Z</time>
      </trkpt>
      <trkpt lat="44.31665" lon="5.89096">
        <ele>586</ele>
        <time>2019-08-02T07:45:03Z</time>
      </trkpt>
      <trkpt lat="44.3166" lon="5.89096">
        <ele>586</ele>
        <time>2019-08-02T07:45:04Z</time>
      </trkpt>
      <trkpt lat="44.31655" lon="5.89096">
        <ele>586</ele>
        <time>2019-08-02T07:45:05Z</time>
      </trkpt>
      <trkpt lat="44.3165" lon="5.89096">
        <ele>587</ele>
        <time>2019-08-02T07:45:06Z</time>
      </trkpt>
      <trkpt lat="44.31645" lon="5.89096">
        <ele>587</ele>
        <time>2019-08-02T07:45:07Z</time>
      </trkpt>
      <trkpt lat="44.31639" lon="5.89096">
        <ele>587</ele>
        <time>2019-08-02T07:45:08Z</time>
      </trkpt>
      <trkpt lat="44.31634" lon="5.89096">
        <ele>587</ele>
        <time>2019-08-02T07:45:09Z</time>
      </trkpt>
      <trkpt lat="44.31629" lon="5.89096">
        <ele>587</ele>
        <time>2019-08-02T07:45:10Z</time>
      </trkpt>
      <trkpt lat="44.31624" lon="5.89096">
        <ele>587</ele>
        <time>2019-08-02T07:45:11Z</time>
      </trkpt>
      <trkpt lat="44.31619" lon="5.89096">
        <ele>588</ele>
        <time>2019-08-02T07:45:12Z</time>
      </trkpt>
      <trkpt lat="44.31614" lon="5.89096">
        <ele>588</ele>
        <time>2019-08-02T07:45:13Z</time>
      </trkpt>
      <trkpt lat="44.31609" lon="5.89096">
        <ele>588</ele>
        <time>2019-08-02T07:45:14Z</time>
      </trkpt>
      <trkpt lat="44.31604" lon="5.89096">
        <ele>589</ele>
        <time>2019-08-02T07:45:15Z</time>
      </trkpt>
      <trkpt lat="44.31599" lon="5.89095">
        <ele>589</ele>
        <time>2019-08-02T07:45:16Z</time>
      </trkpt>
      <trkpt lat="44.31594" lon="5.89095">
        <ele>589</ele>
        <time>2019-08-02T07:45:17Z</time>
      </trkpt>
      <trkpt lat="44.31589" lon="5.89095">
        <ele>589</ele>
        <time>2019-08-02T07:45:18Z</time>
      </trkpt>
      <trkpt lat="44.31584" lon="5.89095">
        <ele>590</ele>
        <time>2019-08-02T07:45:19Z</time>
      </trkpt>
      <trkpt lat="44.31579" lon="5.89095">
        <ele>590</ele>
        <time>2019-08-02T07:45:20Z</time>
      </trkpt>
      <trkpt lat="44.31574" lon="5.89095">
        <ele>590</ele>
        <time>2019-08-02T07:45:21Z</time>
      </trkpt>
      <trkpt lat="44.3157" lon="5.89095">
        <ele>590</ele>
        <time>2019-08-02T07:45:22Z</time>
      </trkpt>
      <trkpt lat="44.31564" lon="5.89095">
        <ele>590</ele>
        <time>2019-08-02T07:45:23Z</time>
      </trkpt>
      <trkpt lat="44.31559" lon="5.89095">
        <ele>590</ele>
        <time>2019-08-02T07:45:24Z</time>
      </trkpt>
      <trkpt lat="44.31554" lon="5.89095">
        <ele>591</ele>
        <time>2019-08-02T07:45:25Z</time>
      </trkpt>
      <trkpt lat="44.31549" lon="5.89094">
        <ele>591</ele>
        <time>2019-08-02T07:45:26Z</time>
      </trkpt>
      <trkpt lat="44.31544" lon="5.89094">
        <ele>591</ele>
        <time>2019-08-02T07:45:27Z</time>
      </trkpt>
      <trkpt lat="44.3154" lon="5.89094">
        <ele>591</ele>
        <time>2019-08-02T07:45:28Z</time>
      </trkpt>
      <trkpt lat="44.31535" lon="5.89094">
        <ele>592</ele>
        <time>2019-08-02T07:45:29Z</time>
      </trkpt>
      <trkpt lat="44.3153" lon="5.89094">
        <ele>592</ele>
        <time>2019-08-02T07:45:30Z</time>
      </trkpt>
      <trkpt lat="44.31526" lon="5.89094">
        <ele>593</ele>
        <time>2019-08-02T07:45:31Z</time>
      </trkpt>
      <trkpt lat="44.31521" lon="5.89094">
        <ele>593</ele>
        <time>2019-08-02T07:45:32Z</time>
      </trkpt>
      <trkpt lat="44.31517" lon="5.89094">
        <ele>594</ele>
        <time>2019-08-02T07:45:33Z</time>
      </trkpt>
      <trkpt lat="44.31512" lon="5.89094">
        <ele>594</ele>
        <time>2019-08-02T07:45:34Z</time>
      </trkpt>
      <trkpt lat="44.31507" lon="5.89094">
        <ele>594</ele>
        <time>2019-08-02T07:45:35Z</time>
      </trkpt>
      <trkpt lat="44.31502" lon="5.89094">
        <ele>595</ele>
        <time>2019-08-02T07:45:36Z</time>
      </trkpt>
      <trkpt lat="44.31497" lon="5.89094">
        <ele>595</ele>
        <time>2019-08-02T07:45:37Z</time>
      </trkpt>
      <trkpt lat="44.31492" lon="5.89095">
        <ele>595</ele>
        <time>2019-08-02T07:45:38Z</time>
      </trkpt>
      <trkpt lat="44.31486" lon="5.89096">
        <ele>596</ele>
        <time>2019-08-02T07:45:39Z</time>
      </trkpt>
      <trkpt lat="44.31481" lon="5.89097">
        <ele>596</ele>
        <time>2019-08-02T07:45:40Z</time>
      </trkpt>
      <trkpt lat="44.31476" lon="5.89098">
        <ele>596</ele>
        <time>2019-08-02T07:45:41Z</time>
      </trkpt>
      <trkpt lat="44.31471" lon="5.89099">
        <ele>597</ele>
        <time>2019-08-02T07:45:42Z</time>
      </trkpt>
      <trkpt lat="44.31465" lon="5.891">
        <ele>597</ele>
        <time>2019-08-02T07:45:43Z</time>
      </trkpt>
      <trkpt lat="44.31459" lon="5.89101">
        <ele>598</ele>
        <time>2019-08-02T07:45:44Z</time>
      </trkpt>
      <trkpt lat="44.31454" lon="5.89102">
        <ele>598</ele>
        <time>2019-08-02T07:45:45Z</time>
      </trkpt>
      <trkpt lat="44.31448" lon="5.89103">
        <ele>598</ele>
        <time>2019-08-02T07:45:46Z</time>
      </trkpt>
      <trkpt lat="44.31443" lon="5.89104">
        <ele>599</ele>
        <time>2019-08-02T07:45:47Z</time>
      </trkpt>
      <trkpt lat="44.31437" lon="5.89105">
        <ele>599</ele>
        <time>2019-08-02T07:45:48Z</time>
      </trkpt>
      <trkpt lat="44.31431" lon="5.89106">
        <ele>599</ele>
        <time>2019-08-02T07:45:49Z</time>
      </trkpt>
      <trkpt lat="44.31425" lon="5.89106">
        <ele>599</ele>
        <time>2019-08-02T07:45:50Z</time>
      </trkpt>
      <trkpt lat="44.31419" lon="5.89107">
        <ele>600</ele>
        <time>2019-08-02T07:45:51Z</time>
      </trkpt>
      <trkpt lat="44.31414" lon="5.89108">
        <ele>600</ele>
        <time>2019-08-02T07:45:52Z</time>
      </trkpt>
      <trkpt lat="44.31408" lon="5.89109">
        <ele>600</ele>
        <time>2019-08-02T07:45:53Z</time>
      </trkpt>
      <trkpt lat="44.31402" lon="5.8911">
        <ele>600</ele>
        <time>2019-08-02T07:45:54Z</time>
      </trkpt>
      <trkpt lat="44.31396" lon="5.89111">
        <ele>600</ele>
        <time>2019-08-02T07:45:55Z</time>
      </trkpt>
      <trkpt lat="44.3139" lon="5.89112">
        <ele>600</ele>
        <time>2019-08-02T07:45:56Z</time>
      </trkpt>
      <trkpt lat="44.31385" lon="5.89113">
        <ele>600</ele>
        <time>2019-08-02T07:45:57Z</time>
      </trkpt>
      <trkpt lat="44.31378" lon="5.89113">
        <ele>600</ele>
        <time>2019-08-02T07:45:58Z</time>
      </trkpt>
      <trkpt lat="44.31372" lon="5.89114">
        <ele>600</ele>
        <time>2019-08-02T07:45:59Z</time>
      </trkpt>
      <trkpt lat="44.31367" lon="5.89115">
        <ele>600</ele>
        <time>2019-08-02T07:46:00Z</time>
      </trkpt>
      <trkpt lat="44.31361" lon="5.89115">
        <ele>600</ele>
        <time>2019-08-02T07:46:01Z</time>
      </trkpt>
      <trkpt lat="44.31355" lon="5.89116">
        <ele>600</ele>
        <time>2019-08-02T07:46:02Z</time>
      </trkpt>
      <trkpt lat="44.31349" lon="5.89117">
        <ele>600</ele>
        <time>2019-08-02T07:46:03Z</time>
      </trkpt>
      <trkpt lat="44.31343" lon="5.89118">
        <ele>600</ele>
        <time>2019-08-02T07:46:04Z</time>
      </trkpt>
      <trkpt lat="44.31337" lon="5.89118">
        <ele>600</ele>
        <time>2019-08-02T07:46:05Z</time>
      </trkpt>
      <trkpt lat="44.31331" lon="5.89119">
        <ele>600</ele>
        <time>2019-08-02T07:46:06Z</time>
      </trkpt>
      <trkpt lat="44.31325" lon="5.8912">
        <ele>600</ele>
        <time>2019-08-02T07:46:07Z</time>
      </trkpt>
      <trkpt lat="44.31319" lon="5.89121">
        <ele>600</ele>
        <time>2019-08-02T07:46:08Z</time>
      </trkpt>
      <trkpt lat="44.31313" lon="5.89121">
        <ele>600</ele>
        <time>2019-08-02T07:46:09Z</time>
      </trkpt>
      <trkpt lat="44.31308" lon="5.89122">
        <ele>600</ele>
        <time>2019-08-02T07:46:10Z</time>
      </trkpt>
      <trkpt lat="44.31302" lon="5.89123">
        <ele>600</ele>
        <time>2019-08-02T07:46:11Z</time>
      </trkpt>
      <trkpt lat="44.31297" lon="5.89123">
        <ele>599</ele>
        <time>2019-08-02T07:46:12Z</time>
      </trkpt>
      <trkpt lat="44.31291" lon="5.89124">
        <ele>598</ele>
        <time>2019-08-02T07:46:13Z</time>
      </trkpt>
      <trkpt lat="44.31285" lon="5.89125">
        <ele>598</ele>
        <time>2019-08-02T07:46:14Z</time>
      </trkpt>
      <trkpt lat="44.3128" lon="5.89125">
        <ele>597</ele>
        <time>2019-08-02T07:46:15Z</time>
      </trkpt>
      <trkpt lat="44.31274" lon="5.89126">
        <ele>597</ele>
        <time>2019-08-02T07:46:16Z</time>
      </trkpt>
      <trkpt lat="44.31268" lon="5.89127">
        <ele>597</ele>
        <time>2019-08-02T07:46:17Z</time>
      </trkpt>
      <trkpt lat="44.31262" lon="5.89129">
        <ele>596</ele>
        <time>2019-08-02T07:46:18Z</time>
      </trkpt>
      <trkpt lat="44.31255" lon="5.8913">
        <ele>596</ele>
        <time>2019-08-02T07:46:19Z</time>
      </trkpt>
      <trkpt lat="44.31248" lon="5.89131">
        <ele>596</ele>
        <time>2019-08-02T07:46:20Z</time>
      </trkpt>
      <trkpt lat="44.31241" lon="5.89132">
        <ele>596</ele>
        <time>2019-08-02T07:46:21Z</time>
      </trkpt>
      <trkpt lat="44.31234" lon="5.89133">
        <ele>595</ele>
        <time>2019-08-02T07:46:22Z</time>
      </trkpt>
      <trkpt lat="44.31227" lon="5.89134">
        <ele>595</ele>
        <time>2019-08-02T07:46:23Z</time>
      </trkpt>
      <trkpt lat="44.3122" lon="5.89135">
        <ele>595</ele>
        <time>2019-08-02T07:46:24Z</time>
      </trkpt>
      <trkpt lat="44.31212" lon="5.89136">
        <ele>595</ele>
        <time>2019-08-02T07:46:25Z</time>
      </trkpt>
      <trkpt lat="44.31205" lon="5.89137">
        <ele>594</ele>
        <time>2019-08-02T07:46:26Z</time>
      </trkpt>
      <trkpt lat="44.31197" lon="5.89138">
        <ele>594</ele>
        <time>2019-08-02T07:46:27Z</time>
      </trkpt>
      <trkpt lat="44.3119" lon="5.8914">
        <ele>594</ele>
        <time>2019-08-02T07:46:28Z</time>
      </trkpt>
      <trkpt lat="44.31183" lon="5.89141">
        <ele>594</ele>
        <time>2019-08-02T07:46:29Z</time>
      </trkpt>
      <trkpt lat="44.31176" lon="5.89143">
        <ele>594</ele>
        <time>2019-08-02T07:46:30Z</time>
      </trkpt>
      <trkpt lat="44.31168" lon="5.89144">
        <ele>594</ele>
        <time>2019-08-02T07:46:31Z</time>
      </trkpt>
      <trkpt lat="44.31161" lon="5.89145">
        <ele>594</ele>
        <time>2019-08-02T07:46:32Z</time>
      </trkpt>
      <trkpt lat="44.31154" lon="5.89146">
        <ele>594</ele>
        <time>2019-08-02T07:46:33Z</time>
      </trkpt>
      <trkpt lat="44.31147" lon="5.89147">
        <ele>594</ele>
        <time>2019-08-02T07:46:34Z</time>
      </trkpt>
      <trkpt lat="44.31139" lon="5.89148">
        <ele>594</ele>
        <time>2019-08-02T07:46:35Z</time>
      </trkpt>
      <trkpt lat="44.31132" lon="5.89149">
        <ele>594</ele>
        <time>2019-08-02T07:46:36Z</time>
      </trkpt>
      <trkpt lat="44.31126" lon="5.8915">
        <ele>594</ele>
        <time>2019-08-02T07:46:37Z</time>
      </trkpt>
      <trkpt lat="44.31118" lon="5.89151">
        <ele>594</ele>
        <time>2019-08-02T07:46:38Z</time>
      </trkpt>
      <trkpt lat="44.31112" lon="5.89152">
        <ele>594</ele>
        <time>2019-08-02T07:46:39Z</time>
      </trkpt>
      <trkpt lat="44.31105" lon="5.89153">
        <ele>594</ele>
        <time>2019-08-02T07:46:40Z</time>
      </trkpt>
      <trkpt lat="44.31098" lon="5.89154">
        <ele>594</ele>
        <time>2019-08-02T07:46:41Z</time>
      </trkpt>
      <trkpt lat="44.31091" lon="5.89155">
        <ele>594</ele>
        <time>2019-08-02T07:46:42Z</time>
      </trkpt>
      <trkpt lat="44.31084" lon="5.89156">
        <ele>594</ele>
        <time>2019-08-02T07:46:43Z</time>
      </trkpt>
      <trkpt lat="44.31078" lon="5.89157">
        <ele>594</ele>
        <time>2019-08-02T07:46:44Z</time>
      </trkpt>
      <trkpt lat="44.31071" lon="5.89158">
        <ele>594</ele>
        <time>2019-08-02T07:46:45Z</time>
      </trkpt>
      <trkpt lat="44.31064" lon="5.89159">
        <ele>594</ele>
        <time>2019-08-02T07:46:46Z</time>
      </trkpt>
      <trkpt lat="44.31058" lon="5.8916">
        <ele>594</ele>
        <time>2019-08-02T07:46:47Z</time>
      </trkpt>
      <trkpt lat="44.31051" lon="5.89161">
        <ele>594</ele>
        <time>2019-08-02T07:46:48Z</time>
      </trkpt>
      <trkpt lat="44.31044" lon="5.89162">
        <ele>594</ele>
        <time>2019-08-02T07:46:49Z</time>
      </trkpt>
      <trkpt lat="44.31038" lon="5.89163">
        <ele>594</ele>
        <time>2019-08-02T07:46:50Z</time>
      </trkpt>
      <trkpt lat="44.31031" lon="5.89164">
        <ele>594</ele>
        <time>2019-08-02T07:46:51Z</time>
      </trkpt>
      <trkpt lat="44.31024" lon="5.89165">
        <ele>594</ele>
        <time>2019-08-02T07:46:52Z</time>
      </trkpt>
      <trkpt lat="44.31018" lon="5.89167">
        <ele>594</ele>
        <time>2019-08-02T07:46:53Z</time>
      </trkpt>
      <trkpt lat="44.31011" lon="5.89168">
        <ele>594</ele>
        <time>2019-08-02T07:46:54Z</time>
      </trkpt>
      <trkpt lat="44.31004" lon="5.8917">
        <ele>594</ele>
        <time>2019-08-02T07:46:55Z</time>
      </trkpt>
      <trkpt lat="44.30997" lon="5.89171">
        <ele>594</ele>
        <time>2019-08-02T07:46:56Z</time>
      </trkpt>
      <trkpt lat="44.30991" lon="5.89173">
        <ele>594</ele>
        <time>2019-08-02T07:46:57Z</time>
      </trkpt>
      <trkpt lat="44.30983" lon="5.89175">
        <ele>594</ele>
        <time>2019-08-02T07:46:58Z</time>
      </trkpt>
      <trkpt lat="44.30976" lon="5.89177">
        <ele>594</ele>
        <time>2019-08-02T07:46:59Z</time>
      </trkpt>
      <trkpt lat="44.30968" lon="5.89179">
        <ele>594</ele>
        <time>2019-08-02T07:47:00Z</time>
      </trkpt>
      <trkpt lat="44.3096" lon="5.89181">
        <ele>594</ele>
        <time>2019-08-02T07:47:01Z</time>
      </trkpt>
      <trkpt lat="44.30953" lon="5.89184">
        <ele>594</ele>
        <time>2019-08-02T07:47:02Z</time>
      </trkpt>
      <trkpt lat="44.30944" lon="5.89186">
        <ele>594</ele>
        <time>2019-08-02T07:47:03Z</time>
      </trkpt>
      <trkpt lat="44.30936" lon="5.89188">
        <ele>594</ele>
        <time>2019-08-02T07:47:04Z</time>
      </trkpt>
      <trkpt lat="44.30928" lon="5.8919">
        <ele>594</ele>
        <time>2019-08-02T07:47:05Z</time>
      </trkpt>
      <trkpt lat="44.3092" lon="5.89193">
        <ele>594</ele>
        <time>2019-08-02T07:47:06Z</time>
      </trkpt>
      <trkpt lat="44.30911" lon="5.89195">
        <ele>594</ele>
        <time>2019-08-02T07:47:07Z</time>
      </trkpt>
      <trkpt lat="44.30903" lon="5.89198">
        <ele>594</ele>
        <time>2019-08-02T07:47:08Z</time>
      </trkpt>
      <trkpt lat="44.30894" lon="5.89201">
        <ele>594</ele>
        <time>2019-08-02T07:47:09Z</time>
      </trkpt>
      <trkpt lat="44.30885" lon="5.89203">
        <ele>593</ele>
        <time>2019-08-02T07:47:10Z</time>
      </trkpt>
      <trkpt lat="44.30877" lon="5.89206">
        <ele>593</ele>
        <time>2019-08-02T07:47:11Z</time>
      </trkpt>
      <trkpt lat="44.30867" lon="5.89209">
        <ele>592</ele>
        <time>2019-08-02T07:47:12Z</time>
      </trkpt>
      <trkpt lat="44.30859" lon="5.89212">
        <ele>592</ele>
        <time>2019-08-02T07:47:13Z</time>
      </trkpt>
      <trkpt lat="44.30849" lon="5.89214">
        <ele>591</ele>
        <time>2019-08-02T07:47:14Z</time>
      </trkpt>
      <trkpt lat="44.3084" lon="5.89217">
        <ele>591</ele>
        <time>2019-08-02T07:47:15Z</time>
      </trkpt>
      <trkpt lat="44.30831" lon="5.8922">
        <ele>590</ele>
        <time>2019-08-02T07:47:16Z</time>
      </trkpt>
      <trkpt lat="44.30821" lon="5.89223">
        <ele>590</ele>
        <time>2019-08-02T07:47:17Z</time>
      </trkpt>
      <trkpt lat="44.30811" lon="5.89226">
        <ele>589</ele>
        <time>2019-08-02T07:47:18Z</time>
      </trkpt>
      <trkpt lat="44.30802" lon="5.89228">
        <ele>589</ele>
        <time>2019-08-02T07:47:19Z</time>
      </trkpt>
      <trkpt lat="44.30792" lon="5.89231">
        <ele>588</ele>
        <time>2019-08-02T07:47:20Z</time>
      </trkpt>
      <trkpt lat="44.30782" lon="5.89234">
        <ele>588</ele>
        <time>2019-08-02T07:47:21Z</time>
      </trkpt>
      <trkpt lat="44.30772" lon="5.89237">
        <ele>587</ele>
        <time>2019-08-02T07:47:22Z</time>
      </trkpt>
      <trkpt lat="44.30762" lon="5.89241">
        <ele>587</ele>
        <time>2019-08-02T07:47:23Z</time>
      </trkpt>
      <trkpt lat="44.30752" lon="5.89243">
        <ele>586</ele>
        <time>2019-08-02T07:47:24Z</time>
      </trkpt>
      <trkpt lat="44.30742" lon="5.89246">
        <ele>586</ele>
        <time>2019-08-02T07:47:25Z</time>
      </trkpt>
      <trkpt lat="44.30733" lon="5.89249">
        <ele>586</ele>
        <time>2019-08-02T07:47:26Z</time>
      </trkpt>
      <trkpt lat="44.30723" lon="5.89252">
        <ele>585</ele>
        <time>2019-08-02T07:47:27Z</time>
      </trkpt>
      <trkpt lat="44.30714" lon="5.89255">
        <ele>585</ele>
        <time>2019-08-02T07:47:28Z</time>
      </trkpt>
      <trkpt lat="44.30704" lon="5.89257">
        <ele>585</ele>
        <time>2019-08-02T07:47:29Z</time>
      </trkpt>
      <trkpt lat="44.30696" lon="5.8926">
        <ele>584</ele>
        <time>2019-08-02T07:47:30Z</time>
      </trkpt>
      <trkpt lat="44.30687" lon="5.89262">
        <ele>584</ele>
        <time>2019-08-02T07:47:31Z</time>
      </trkpt>
      <trkpt lat="44.30678" lon="5.89265">
        <ele>584</ele>
        <time>2019-08-02T07:47:32Z</time>
      </trkpt>
      <trkpt lat="44.30669" lon="5.89268">
        <ele>584</ele>
        <time>2019-08-02T07:47:33Z</time>
      </trkpt>
      <trkpt lat="44.30661" lon="5.89271">
        <ele>584</ele>
        <time>2019-08-02T07:47:34Z</time>
      </trkpt>
      <trkpt lat="44.30652" lon="5.89273">
        <ele>584</ele>
        <time>2019-08-02T07:47:35Z</time>
      </trkpt>
      <trkpt lat="44.30644" lon="5.89276">
        <ele>584</ele>
        <time>2019-08-02T07:47:36Z</time>
      </trkpt>
      <trkpt lat="44.30636" lon="5.89279">
        <ele>584</ele>
        <time>2019-08-02T07:47:37Z</time>
      </trkpt>
      <trkpt lat="44.30628" lon="5.89281">
        <ele>584</ele>
        <time>2019-08-02T07:47:38Z</time>
      </trkpt>
      <trkpt lat="44.3062" lon="5.89283">
        <ele>584</ele>
        <time>2019-08-02T07:47:39Z</time>
      </trkpt>
      <trkpt lat="44.30612" lon="5.89286">
        <ele>584</ele>
        <time>2019-08-02T07:47:40Z</time>
      </trkpt>
      <trkpt lat="44.30604" lon="5.89289">
        <ele>584</ele>
        <time>2019-08-02T07:47:41Z</time>
      </trkpt>
      <trkpt lat="44.30596" lon="5.89291">
        <ele>584</ele>
        <time>2019-08-02T07:47:42Z</time>
      </trkpt>
      <trkpt lat="44.30589" lon="5.89293">
        <ele>584</ele>
        <time>2019-08-02T07:47:43Z</time>
      </trkpt>
      <trkpt lat="44.30581" lon="5.89295">
        <ele>584</ele>
        <time>2019-08-02T07:47:44Z</time>
      </trkpt>
      <trkpt lat="44.30574" lon="5.89297">
        <ele>584</ele>
        <time>2019-08-02T07:47:45Z</time>
      </trkpt>
      <trkpt lat="44.30566" lon="5.893">
        <ele>584</ele>
        <time>2019-08-02T07:47:46Z</time>
      </trkpt>
      <trkpt lat="44.30558" lon="5.89302">
        <ele>584</ele>
        <time>2019-08-02T07:47:47Z</time>
      </trkpt>
      <trkpt lat="44.30551" lon="5.89304">
        <ele>584</ele>
        <time>2019-08-02T07:47:48Z</time>
      </trkpt>
      <trkpt lat="44.30544" lon="5.89307">
        <ele>584</ele>
        <time>2019-08-02T07:47:49Z</time>
      </trkpt>
      <trkpt lat="44.30536" lon="5.89309">
        <ele>584</ele>
        <time>2019-08-02T07:47:50Z</time>
      </trkpt>
      <trkpt lat="44.30529" lon="5.89311">
        <ele>584</ele>
        <time>2019-08-02T07:47:51Z</time>
      </trkpt>
      <trkpt lat="44.30521" lon="5.89313">
        <ele>584</ele>
        <time>2019-08-02T07:47:52Z</time>
      </trkpt>
      <trkpt lat="44.30514" lon="5.89315">
        <ele>584</ele>
        <time>2019-08-02T07:47:53Z</time>
      </trkpt>
      <trkpt lat="44.30507" lon="5.89317">
        <ele>584</ele>
        <time>2019-08-02T07:47:54Z</time>
      </trkpt>
      <trkpt lat="44.30499" lon="5.8932">
        <ele>584</ele>
        <time>2019-08-02T07:47:55Z</time>
      </trkpt>
      <trkpt lat="44.30492" lon="5.89322">
        <ele>584</ele>
        <time>2019-08-02T07:47:56Z</time>
      </trkpt>
      <trkpt lat="44.30484" lon="5.89324">
        <ele>584</ele>
        <time>2019-08-02T07:47:57Z</time>
      </trkpt>
      <trkpt lat="44.30478" lon="5.89327">
        <ele>584</ele>
        <time>2019-08-02T07:47:58Z</time>
      </trkpt>
      <trkpt lat="44.30471" lon="5.89329">
        <ele>584</ele>
        <time>2019-08-02T07:47:59Z</time>
      </trkpt>
      <trkpt lat="44.30463" lon="5.89331">
        <ele>584</ele>
        <time>2019-08-02T07:48:00Z</time>
      </trkpt>
      <trkpt lat="44.30457" lon="5.89333">
        <ele>584</ele>
        <time>2019-08-02T07:48:01Z</time>
      </trkpt>
      <trkpt lat="44.3045" lon="5.89335">
        <ele>584</ele>
        <time>2019-08-02T07:48:02Z</time>
      </trkpt>
      <trkpt lat="44.30443" lon="5.89337">
        <ele>584</ele>
        <time>2019-08-02T07:48:03Z</time>
      </trkpt>
      <trkpt lat="44.30436" lon="5.89339">
        <ele>584</ele>
        <time>2019-08-02T07:48:04Z</time>
      </trkpt>
      <trkpt lat="44.30429" lon="5.89341">
        <ele>584</ele>
        <time>2019-08-02T07:48:05Z</time>
      </trkpt>
      <trkpt lat="44.30423" lon="5.89343">
        <ele>584</ele>
        <time>2019-08-02T07:48:06Z</time>
      </trkpt>
      <trkpt lat="44.30416" lon="5.89345">
        <ele>584</ele>
        <time>2019-08-02T07:48:07Z</time>
      </trkpt>
      <trkpt lat="44.30409" lon="5.89347">
        <ele>584</ele>
        <time>2019-08-02T07:48:08Z</time>
      </trkpt>
      <trkpt lat="44.30402" lon="5.89349">
        <ele>584</ele>
        <time>2019-08-02T07:48:09Z</time>
      </trkpt>
      <trkpt lat="44.30395" lon="5.89351">
        <ele>584</ele>
        <time>2019-08-02T07:48:10Z</time>
      </trkpt>
      <trkpt lat="44.30388" lon="5.89353">
        <ele>584</ele>
        <time>2019-08-02T07:48:11Z</time>
      </trkpt>
      <trkpt lat="44.30381" lon="5.89356">
        <ele>584</ele>
        <time>2019-08-02T07:48:12Z</time>
      </trkpt>
      <trkpt lat="44.30373" lon="5.89358">
        <ele>584</ele>
        <time>2019-08-02T07:48:13Z</time>
      </trkpt>
      <trkpt lat="44.30366" lon="5.8936">
        <ele>584</ele>
        <time>2019-08-02T07:48:14Z</time>
      </trkpt>
      <trkpt lat="44.30358" lon="5.89362">
        <ele>584</ele>
        <time>2019-08-02T07:48:15Z</time>
      </trkpt>
      <trkpt lat="44.3035" lon="5.89364">
        <ele>584</ele>
        <time>2019-08-02T07:48:16Z</time>
      </trkpt>
      <trkpt lat="44.30342" lon="5.89366">
        <ele>584</ele>
        <time>2019-08-02T07:48:17Z</time>
      </trkpt>
      <trkpt lat="44.30334" lon="5.89369">
        <ele>584</ele>
        <time>2019-08-02T07:48:18Z</time>
      </trkpt>
      <trkpt lat="44.30325" lon="5.89371">
        <ele>584</ele>
        <time>2019-08-02T07:48:19Z</time>
      </trkpt>
      <trkpt lat="44.30317" lon="5.89374">
        <ele>583</ele>
        <time>2019-08-02T07:48:20Z</time>
      </trkpt>
      <trkpt lat="44.30309" lon="5.89376">
        <ele>583</ele>
        <time>2019-08-02T07:48:21Z</time>
      </trkpt>
      <trkpt lat="44.303" lon="5.89378">
        <ele>583</ele>
        <time>2019-08-02T07:48:22Z</time>
      </trkpt>
      <trkpt lat="44.30292" lon="5.89381">
        <ele>582</ele>
        <time>2019-08-02T07:48:23Z</time>
      </trkpt>
      <trkpt lat="44.30284" lon="5.89383">
        <ele>582</ele>
        <time>2019-08-02T07:48:24Z</time>
      </trkpt>
      <trkpt lat="44.30276" lon="5.89386">
        <ele>582</ele>
        <time>2019-08-02T07:48:25Z</time>
      </trkpt>
      <trkpt lat="44.30268" lon="5.89388">
        <ele>582</ele>
        <time>2019-08-02T07:48:26Z</time>
      </trkpt>
      <trkpt lat="44.3026" lon="5.89391">
        <ele>582</ele>
        <time>2019-08-02T07:48:27Z</time>
      </trkpt>
      <trkpt lat="44.30252" lon="5.89393">
        <ele>582</ele>
        <time>2019-08-02T07:48:28Z</time>
      </trkpt>
      <trkpt lat="44.30244" lon="5.89395">
        <ele>581</ele>
        <time>2019-08-02T07:48:29Z</time>
      </trkpt>
      <trkpt lat="44.30236" lon="5.89397">
        <ele>581</ele>
        <time>2019-08-02T07:48:30Z</time>
      </trkpt>
      <trkpt lat="44.30228" lon="5.894">
        <ele>581</ele>
        <time>2019-08-02T07:48:31Z</time>
      </trkpt>
      <trkpt lat="44.3022" lon="5.89402">
        <ele>581</ele>
        <time>2019-08-02T07:48:32Z</time>
      </trkpt>
      <trkpt lat="44.30212" lon="5.89405">
        <ele>581</ele>
        <time>2019-08-02T07:48:33Z</time>
      </trkpt>
      <trkpt lat="44.30205" lon="5.89407">
        <ele>581</ele>
        <time>2019-08-02T07:48:34Z</time>
      </trkpt>
      <trkpt lat="44.30197" lon="5.89409">
        <ele>581</ele>
        <time>2019-08-02T07:48:35Z</time>
      </trkpt>
      <trkpt lat="44.3019" lon="5.89412">
        <ele>581</ele>
        <time>2019-08-02T07:48:36Z</time>
      </trkpt>
      <trkpt lat="44.30182" lon="5.89414">
        <ele>581</ele>
        <time>2019-08-02T07:48:37Z</time>
      </trkpt>
      <trkpt lat="44.30175" lon="5.89416">
        <ele>581</ele>
        <time>2019-08-02T07:48:38Z</time>
      </trkpt>
      <trkpt lat="44.30167" lon="5.89419">
        <ele>581</ele>
        <time>2019-08-02T07:48:39Z</time>
      </trkpt>
      <trkpt lat="44.3016" lon="5.89421">
        <ele>581</ele>
        <time>2019-08-02T07:48:40Z</time>
      </trkpt>
      <trkpt lat="44.30153" lon="5.89423">
        <ele>581</ele>
        <time>2019-08-02T07:48:41Z</time>
      </trkpt>
      <trkpt lat="44.30145" lon="5.89425">
        <ele>581</ele>
        <time>2019-08-02T07:48:42Z</time>
      </trkpt>
      <trkpt lat="44.30138" lon="5.89428">
        <ele>581</ele>
        <time>2019-08-02T07:48:43Z</time>
      </trkpt>
      <trkpt lat="44.3013" lon="5.8943">
        <ele>581</ele>
        <time>2019-08-02T07:48:44Z</time>
      </trkpt>
      <trkpt lat="44.30123" lon="5.89432">
        <ele>581</ele>
        <time>2019-08-02T07:48:45Z</time>
      </trkpt>
      <trkpt lat="44.30116" lon="5.89434">
        <ele>581</ele>
        <time>2019-08-02T07:48:46Z</time>
      </trkpt>
      <trkpt lat="44.30109" lon="5.89436">
        <ele>581</ele>
        <time>2019-08-02T07:48:47Z</time>
      </trkpt>
      <trkpt lat="44.30102" lon="5.89439">
        <ele>581</ele>
        <time>2019-08-02T07:48:48Z</time>
      </trkpt>
      <trkpt lat="44.30095" lon="5.89441">
        <ele>581</ele>
        <time>2019-08-02T07:48:49Z</time>
      </trkpt>
      <trkpt lat="44.30088" lon="5.89443">
        <ele>581</ele>
        <time>2019-08-02T07:48:50Z</time>
      </trkpt>
      <trkpt lat="44.30081" lon="5.89444">
        <ele>581</ele>
        <time>2019-08-02T07:48:51Z</time>
      </trkpt>
      <trkpt lat="44.30074" lon="5.89447">
        <ele>581</ele>
        <time>2019-08-02T07:48:52Z</time>
      </trkpt>
      <trkpt lat="44.30067" lon="5.89449">
        <ele>581</ele>
        <time>2019-08-02T07:48:53Z</time>
      </trkpt>
      <trkpt lat="44.3006" lon="5.89451">
        <ele>581</ele>
        <time>2019-08-02T07:48:54Z</time>
      </trkpt>
      <trkpt lat="44.30053" lon="5.89453">
        <ele>581</ele>
        <time>2019-08-02T07:48:55Z</time>
      </trkpt>
      <trkpt lat="44.30046" lon="5.89456">
        <ele>581</ele>
        <time>2019-08-02T07:48:56Z</time>
      </trkpt>
      <trkpt lat="44.30039" lon="5.89457">
        <ele>581</ele>
        <time>2019-08-02T07:48:57Z</time>
      </trkpt>
      <trkpt lat="44.30032" lon="5.89459">
        <ele>581</ele>
        <time>2019-08-02T07:48:58Z</time>
      </trkpt>
      <trkpt lat="44.30025" lon="5.89461">
        <ele>581</ele>
        <time>2019-08-02T07:48:59Z</time>
      </trkpt>
      <trkpt lat="44.30019" lon="5.89463">
        <ele>581</ele>
        <time>2019-08-02T07:49:00Z</time>
      </trkpt>
      <trkpt lat="44.30012" lon="5.89465">
        <ele>581</ele>
        <time>2019-08-02T07:49:01Z</time>
      </trkpt>
      <trkpt lat="44.30005" lon="5.89467">
        <ele>581</ele>
        <time>2019-08-02T07:49:02Z</time>
      </trkpt>
      <trkpt lat="44.29998" lon="5.89469">
        <ele>581</ele>
        <time>2019-08-02T07:49:03Z</time>
      </trkpt>
      <trkpt lat="44.29991" lon="5.89472">
        <ele>581</ele>
        <time>2019-08-02T07:49:04Z</time>
      </trkpt>
      <trkpt lat="44.29984" lon="5.89474">
        <ele>581</ele>
        <time>2019-08-02T07:49:05Z</time>
      </trkpt>
      <trkpt lat="44.29978" lon="5.89476">
        <ele>581</ele>
        <time>2019-08-02T07:49:06Z</time>
      </trkpt>
      <trkpt lat="44.29971" lon="5.89478">
        <ele>581</ele>
        <time>2019-08-02T07:49:07Z</time>
      </trkpt>
      <trkpt lat="44.29964" lon="5.8948">
        <ele>581</ele>
        <time>2019-08-02T07:49:08Z</time>
      </trkpt>
      <trkpt lat="44.29958" lon="5.89481">
        <ele>581</ele>
        <time>2019-08-02T07:49:09Z</time>
      </trkpt>
      <trkpt lat="44.29951" lon="5.89483">
        <ele>581</ele>
        <time>2019-08-02T07:49:10Z</time>
      </trkpt>
      <trkpt lat="44.29945" lon="5.89486">
        <ele>581</ele>
        <time>2019-08-02T07:49:11Z</time>
      </trkpt>
      <trkpt lat="44.29939" lon="5.89487">
        <ele>581</ele>
        <time>2019-08-02T07:49:12Z</time>
      </trkpt>
      <trkpt lat="44.29932" lon="5.89489">
        <ele>581</ele>
        <time>2019-08-02T07:49:13Z</time>
      </trkpt>
      <trkpt lat="44.29926" lon="5.89491">
        <ele>581</ele>
        <time>2019-08-02T07:49:14Z</time>
      </trkpt>
      <trkpt lat="44.29919" lon="5.89493">
        <ele>581</ele>
        <time>2019-08-02T07:49:15Z</time>
      </trkpt>
      <trkpt lat="44.29913" lon="5.89495">
        <ele>581</ele>
        <time>2019-08-02T07:49:16Z</time>
      </trkpt>
      <trkpt lat="44.29907" lon="5.89497">
        <ele>581</ele>
        <time>2019-08-02T07:49:17Z</time>
      </trkpt>
      <trkpt lat="44.299" lon="5.89499">
        <ele>581</ele>
        <time>2019-08-02T07:49:18Z</time>
      </trkpt>
      <trkpt lat="44.29894" lon="5.89501">
        <ele>581</ele>
        <time>2019-08-02T07:49:19Z</time>
      </trkpt>
      <trkpt lat="44.29888" lon="5.89503">
        <ele>581</ele>
        <time>2019-08-02T07:49:20Z</time>
      </trkpt>
      <trkpt lat="44.29882" lon="5.89505">
        <ele>581</ele>
        <time>2019-08-02T07:49:21Z</time>
      </trkpt>
      <trkpt lat="44.29876" lon="5.89507">
        <ele>581</ele>
        <time>2019-08-02T07:49:22Z</time>
      </trkpt>
      <trkpt lat="44.2987" lon="5.89508">
        <ele>581</ele>
        <time>2019-08-02T07:49:23Z</time>
      </trkpt>
      <trkpt lat="44.29863" lon="5.8951">
        <ele>581</ele>
        <time>2019-08-02T07:49:24Z</time>
      </trkpt>
      <trkpt lat="44.29858" lon="5.89512">
        <ele>581</ele>
        <time>2019-08-02T07:49:25Z</time>
      </trkpt>
      <trkpt lat="44.29851" lon="5.89514">
        <ele>581</ele>
        <time>2019-08-02T07:49:26Z</time>
      </trkpt>
      <trkpt lat="44.29845" lon="5.89515">
        <ele>581</ele>
        <time>2019-08-02T07:49:27Z</time>
      </trkpt>
      <trkpt lat="44.29839" lon="5.89517">
        <ele>581</ele>
        <time>2019-08-02T07:49:28Z</time>
      </trkpt>
      <trkpt lat="44.29833" lon="5.89518">
        <ele>581</ele>
        <time>2019-08-02T07:49:29Z</time>
      </trkpt>
      <trkpt lat="44.29826" lon="5.8952">
        <ele>581</ele>
        <time>2019-08-02T07:49:30Z</time>
      </trkpt>
      <trkpt lat="44.2982" lon="5.89521">
        <ele>581</ele>
        <time>2019-08-02T07:49:31Z</time>
      </trkpt>
      <trkpt lat="44.29814" lon="5.89521">
        <ele>581</ele>
        <time>2019-08-02T07:49:32Z</time>
      </trkpt>
      <trkpt lat="44.29808" lon="5.89522">
        <ele>581</ele>
        <time>2019-08-02T07:49:33Z</time>
      </trkpt>
      <trkpt lat="44.29801" lon="5.89522">
        <ele>581</ele>
        <time>2019-08-02T07:49:34Z</time>
      </trkpt>
      <trkpt lat="44.29795" lon="5.89522">
        <ele>581</ele>
        <time>2019-08-02T07:49:35Z</time>
      </trkpt>
      <trkpt lat="44.29788" lon="5.89521">
        <ele>581</ele>
        <time>2019-08-02T07:49:36Z</time>
      </trkpt>
      <trkpt lat="44.29781" lon="5.89521">
        <ele>581</ele>
        <time>2019-08-02T07:49:37Z</time>
      </trkpt>
      <trkpt lat="44.29775" lon="5.89521">
        <ele>581</ele>
        <time>2019-08-02T07:49:38Z</time>
      </trkpt>
      <trkpt lat="44.29768" lon="5.8952">
        <ele>581</ele>
        <time>2019-08-02T07:49:39Z</time>
      </trkpt>
      <trkpt lat="44.2976" lon="5.8952">
        <ele>581</ele>
        <time>2019-08-02T07:49:40Z</time>
      </trkpt>
      <trkpt lat="44.29753" lon="5.8952">
        <ele>581</ele>
        <time>2019-08-02T07:49:41Z</time>
      </trkpt>
      <trkpt lat="44.29745" lon="5.8952">
        <ele>581</ele>
        <time>2019-08-02T07:49:42Z</time>
      </trkpt>
      <trkpt lat="44.29737" lon="5.8952">
        <ele>581</ele>
        <time>2019-08-02T07:49:43Z</time>
      </trkpt>
      <trkpt lat="44.29729" lon="5.8952">
        <ele>581</ele>
        <time>2019-08-02T07:49:44Z</time>
      </trkpt>
      <trkpt lat="44.29721" lon="5.89519">
        <ele>581</ele>
        <time>2019-08-02T07:49:45Z</time>
      </trkpt>
      <trkpt lat="44.29712" lon="5.89519">
        <ele>581</ele>
        <time>2019-08-02T07:49:46Z</time>
      </trkpt>
      <trkpt lat="44.29704" lon="5.89518">
        <ele>581</ele>
        <time>2019-08-02T07:49:47Z</time>
      </trkpt>
      <trkpt lat="44.29696" lon="5.89518">
        <ele>581</ele>
        <time>2019-08-02T07:49:48Z</time>
      </trkpt>
      <trkpt lat="44.29688" lon="5.89517">
        <ele>581</ele>
        <time>2019-08-02T07:49:49Z</time>
      </trkpt>
      <trkpt lat="44.29679" lon="5.89517">
        <ele>581</ele>
        <time>2019-08-02T07:49:50Z</time>
      </trkpt>
      <trkpt lat="44.29672" lon="5.89517">
        <ele>581</ele>
        <time>2019-08-02T07:49:51Z</time>
      </trkpt>
      <trkpt lat="44.29664" lon="5.89516">
        <ele>581</ele>
        <time>2019-08-02T07:49:52Z</time>
      </trkpt>
      <trkpt lat="44.29657" lon="5.89516">
        <ele>581</ele>
        <time>2019-08-02T07:49:53Z</time>
      </trkpt>
      <trkpt lat="44.29649" lon="5.89516">
        <ele>581</ele>
        <time>2019-08-02T07:49:54Z</time>
      </trkpt>
      <trkpt lat="44.29643" lon="5.89515">
        <ele>581</ele>
        <time>2019-08-02T07:49:55Z</time>
      </trkpt>
      <trkpt lat="44.29636" lon="5.89515">
        <ele>581</ele>
        <time>2019-08-02T07:49:56Z</time>
      </trkpt>
      <trkpt lat="44.2963" lon="5.89515">
        <ele>581</ele>
        <time>2019-08-02T07:49:57Z</time>
      </trkpt>
      <trkpt lat="44.29624" lon="5.89515">
        <ele>581</ele>
        <time>2019-08-02T07:49:58Z</time>
      </trkpt>
      <trkpt lat="44.29617" lon="5.89515">
        <ele>581</ele>
        <time>2019-08-02T07:49:59Z</time>
      </trkpt>
      <trkpt lat="44.29612" lon="5.89515">
        <ele>581</ele>
        <time>2019-08-02T07:50:00Z</time>
      </trkpt>
      <trkpt lat="44.29606" lon="5.89516">
        <ele>581</ele>
        <time>2019-08-02T07:50:01Z</time>
      </trkpt>
      <trkpt lat="44.29599" lon="5.89516">
        <ele>581</ele>
        <time>2019-08-02T07:50:02Z</time>
      </trkpt>
      <trkpt lat="44.29594" lon="5.89517">
        <ele>581</ele>
        <time>2019-08-02T07:50:03Z</time>
      </trkpt>
      <trkpt lat="44.29588" lon="5.89518">
        <ele>581</ele>
        <time>2019-08-02T07:50:04Z</time>
      </trkpt>
      <trkpt lat="44.29582" lon="5.89521">
        <ele>581</ele>
        <time>2019-08-02T07:50:05Z</time>
      </trkpt>
      <trkpt lat="44.29576" lon="5.89523">
        <ele>581</ele>
        <time>2019-08-02T07:50:06Z</time>
      </trkpt>
      <trkpt lat="44.29571" lon="5.89526">
        <ele>581</ele>
        <time>2019-08-02T07:50:07Z</time>
      </trkpt>
      <trkpt lat="44.29565" lon="5.89529">
        <ele>582</ele>
        <time>2019-08-02T07:50:08Z</time>
      </trkpt>
      <trkpt lat="44.2956" lon="5.89532">
        <ele>582</ele>
        <time>2019-08-02T07:50:09Z</time>
      </trkpt>
      <trkpt lat="44.29555" lon="5.89535">
        <ele>583</ele>
        <time>2019-08-02T07:50:10Z</time>
      </trkpt>
      <trkpt lat="44.2955" lon="5.89537">
        <ele>583</ele>
        <time>2019-08-02T07:50:11Z</time>
      </trkpt>
      <trkpt lat="44.29545" lon="5.89539">
        <ele>583</ele>
        <time>2019-08-02T07:50:12Z</time>
      </trkpt>
      <trkpt lat="44.2954" lon="5.89542">
        <ele>584</ele>
        <time>2019-08-02T07:50:13Z</time>
      </trkpt>
      <trkpt lat="44.29535" lon="5.89545">
        <ele>584</ele>
        <time>2019-08-02T07:50:14Z</time>
      </trkpt>
      <trkpt lat="44.2953" lon="5.89547">
        <ele>584</ele>
        <time>2019-08-02T07:50:15Z</time>
      </trkpt>
      <trkpt lat="44.29525" lon="5.8955">
        <ele>584</ele>
        <time>2019-08-02T07:50:16Z</time>
      </trkpt>
      <trkpt lat="44.2952" lon="5.89552">
        <ele>584</ele>
        <time>2019-08-02T07:50:17Z</time>
      </trkpt>
      <trkpt lat="44.29514" lon="5.89555">
        <ele>584</ele>
        <time>2019-08-02T07:50:18Z</time>
      </trkpt>
      <trkpt lat="44.2951" lon="5.89557">
        <ele>584</ele>
        <time>2019-08-02T07:50:19Z</time>
      </trkpt>
      <trkpt lat="44.29505" lon="5.89559">
        <ele>584</ele>
        <time>2019-08-02T07:50:20Z</time>
      </trkpt>
      <trkpt lat="44.295" lon="5.8956">
        <ele>584</ele>
        <time>2019-08-02T07:50:21Z</time>
      </trkpt>
      <trkpt lat="44.29495" lon="5.89561">
        <ele>584</ele>
        <time>2019-08-02T07:50:22Z</time>
      </trkpt>
      <trkpt lat="44.2949" lon="5.89563">
        <ele>584</ele>
        <time>2019-08-02T07:50:23Z</time>
      </trkpt>
      <trkpt lat="44.29485" lon="5.89565">
        <ele>584</ele>
        <time>2019-08-02T07:50:24Z</time>
      </trkpt>
      <trkpt lat="44.2948" lon="5.89566">
        <ele>584</ele>
        <time>2019-08-02T07:50:25Z</time>
      </trkpt>
      <trkpt lat="44.29475" lon="5.89567">
        <ele>584</ele>
        <time>2019-08-02T07:50:26Z</time>
      </trkpt>
      <trkpt lat="44.29471" lon="5.89568">
        <ele>584</ele>
        <time>2019-08-02T07:50:27Z</time>
      </trkpt>
      <trkpt lat="44.29466" lon="5.89569">
        <ele>584</ele>
        <time>2019-08-02T07:50:28Z</time>
      </trkpt>
      <trkpt lat="44.2946" lon="5.8957">
        <ele>584</ele>
        <time>2019-08-02T07:50:29Z</time>
      </trkpt>
      <trkpt lat="44.29455" lon="5.89571">
        <ele>584</ele>
        <time>2019-08-02T07:50:30Z</time>
      </trkpt>
      <trkpt lat="44.2945" lon="5.89572">
        <ele>584</ele>
        <time>2019-08-02T07:50:31Z</time>
      </trkpt>
      <trkpt lat="44.29444" lon="5.89572">
        <ele>584</ele>
        <time>2019-08-02T07:50:32Z</time>
      </trkpt>
      <trkpt lat="44.29438" lon="5.89572">
        <ele>584</ele>
        <time>2019-08-02T07:50:33Z</time>
      </trkpt>
      <trkpt lat="44.29432" lon="5.89573">
        <ele>584</ele>
        <time>2019-08-02T07:50:34Z</time>
      </trkpt>
      <trkpt lat="44.29427" lon="5.89573">
        <ele>584</ele>
        <time>2019-08-02T07:50:35Z</time>
      </trkpt>
      <trkpt lat="44.2942" lon="5.89573">
        <ele>584</ele>
        <time>2019-08-02T07:50:36Z</time>
      </trkpt>
      <trkpt lat="44.29414" lon="5.89574">
        <ele>584</ele>
        <time>2019-08-02T07:50:37Z</time>
      </trkpt>
      <trkpt lat="44.29408" lon="5.89574">
        <ele>584</ele>
        <time>2019-08-02T07:50:38Z</time>
      </trkpt>
      <trkpt lat="44.29402" lon="5.89574">
        <ele>584</ele>
        <time>2019-08-02T07:50:39Z</time>
      </trkpt>
      <trkpt lat="44.29396" lon="5.89575">
        <ele>584</ele>
        <time>2019-08-02T07:50:40Z</time>
      </trkpt>
      <trkpt lat="44.2939" lon="5.89575">
        <ele>584</ele>
        <time>2019-08-02T07:50:41Z</time>
      </trkpt>
      <trkpt lat="44.29384" lon="5.89576">
        <ele>584</ele>
        <time>2019-08-02T07:50:42Z</time>
      </trkpt>
      <trkpt lat="44.29377" lon="5.89577">
        <ele>584</ele>
        <time>2019-08-02T07:50:43Z</time>
      </trkpt>
      <trkpt lat="44.29371" lon="5.89577">
        <ele>584</ele>
        <time>2019-08-02T07:50:44Z</time>
      </trkpt>
      <trkpt lat="44.29364" lon="5.89578">
        <ele>584</ele>
        <time>2019-08-02T07:50:45Z</time>
      </trkpt>
      <trkpt lat="44.29358" lon="5.89579">
        <ele>584</ele>
        <time>2019-08-02T07:50:46Z</time>
      </trkpt>
      <trkpt lat="44.29352" lon="5.8958">
        <ele>584</ele>
        <time>2019-08-02T07:50:47Z</time>
      </trkpt>
      <trkpt lat="44.29346" lon="5.89581">
        <ele>584</ele>
        <time>2019-08-02T07:50:48Z</time>
      </trkpt>
      <trkpt lat="44.2934" lon="5.89582">
        <ele>584</ele>
        <time>2019-08-02T07:50:49Z</time>
      </trkpt>
      <trkpt lat="44.29333" lon="5.89583">
        <ele>584</ele>
        <time>2019-08-02T07:50:50Z</time>
      </trkpt>
      <trkpt lat="44.29327" lon="5.89585">
        <ele>584</ele>
        <time>2019-08-02T07:50:51Z</time>
      </trkpt>
      <trkpt lat="44.29321" lon="5.89587">
        <ele>585</ele>
        <time>2019-08-02T07:50:52Z</time>
      </trkpt>
      <trkpt lat="44.29314" lon="5.89589">
        <ele>585</ele>
        <time>2019-08-02T07:50:53Z</time>
      </trkpt>
      <trkpt lat="44.29309" lon="5.89592">
        <ele>586</ele>
        <time>2019-08-02T07:50:54Z</time>
      </trkpt>
      <trkpt lat="44.29303" lon="5.89595">
        <ele>586</ele>
        <time>2019-08-02T07:50:55Z</time>
      </trkpt>
      <trkpt lat="44.29297" lon="5.89599">
        <ele>587</ele>
        <time>2019-08-02T07:50:56Z</time>
      </trkpt>
      <trkpt lat="44.29292" lon="5.89601">
        <ele>587</ele>
        <time>2019-08-02T07:50:57Z</time>
      </trkpt>
      <trkpt lat="44.29287" lon="5.89604">
        <ele>587</ele>
        <time>2019-08-02T07:50:58Z</time>
      </trkpt>
      <trkpt lat="44.29282" lon="5.89607">
        <ele>587</ele>
        <time>2019-08-02T07:50:59Z</time>
      </trkpt>
      <trkpt lat="44.29277" lon="5.8961">
        <ele>587</ele>
        <time>2019-08-02T07:51:00Z</time>
      </trkpt>
      <trkpt lat="44.29271" lon="5.89614">
        <ele>587</ele>
        <time>2019-08-02T07:51:01Z</time>
      </trkpt>
      <trkpt lat="44.29266" lon="5.89618">
        <ele>587</ele>
        <time>2019-08-02T07:51:02Z</time>
      </trkpt>
      <trkpt lat="44.29261" lon="5.89622">
        <ele>587</ele>
        <time>2019-08-02T07:51:03Z</time>
      </trkpt>
      <trkpt lat="44.29256" lon="5.89627">
        <ele>587</ele>
        <time>2019-08-02T07:51:04Z</time>
      </trkpt>
      <trkpt lat="44.29252" lon="5.89632">
        <ele>587</ele>
        <time>2019-08-02T07:51:05Z</time>
      </trkpt>
      <trkpt lat="44.29248" lon="5.89638">
        <ele>587</ele>
        <time>2019-08-02T07:51:06Z</time>
      </trkpt>
      <trkpt lat="44.29244" lon="5.89644">
        <ele>586</ele>
        <time>2019-08-02T07:51:07Z</time>
      </trkpt>
      <trkpt lat="44.29239" lon="5.89651">
        <ele>585</ele>
        <time>2019-08-02T07:51:08Z</time>
      </trkpt>
      <trkpt lat="44.29235" lon="5.89659">
        <ele>585</ele>
        <time>2019-08-02T07:51:09Z</time>
      </trkpt>
      <trkpt lat="44.29231" lon="5.89666">
        <ele>585</ele>
        <time>2019-08-02T07:51:10Z</time>
      </trkpt>
      <trkpt lat="44.29227" lon="5.89675">
        <ele>584</ele>
        <time>2019-08-02T07:51:11Z</time>
      </trkpt>
      <trkpt lat="44.29222" lon="5.89683">
        <ele>584</ele>
        <time>2019-08-02T07:51:12Z</time>
      </trkpt>
      <trkpt lat="44.29218" lon="5.8969">
        <ele>583</ele>
        <time>2019-08-02T07:51:13Z</time>
      </trkpt>
      <trkpt lat="44.29213" lon="5.89698">
        <ele>582</ele>
        <time>2019-08-02T07:51:14Z</time>
      </trkpt>
      <trkpt lat="44.29209" lon="5.89705">
        <ele>581</ele>
        <time>2019-08-02T07:51:15Z</time>
      </trkpt>
      <trkpt lat="44.29205" lon="5.89712">
        <ele>580</ele>
        <time>2019-08-02T07:51:16Z</time>
      </trkpt>
      <trkpt lat="44.292" lon="5.89719">
        <ele>579</ele>
        <time>2019-08-02T07:51:17Z</time>
      </trkpt>
      <trkpt lat="44.29196" lon="5.89726">
        <ele>578</ele>
        <time>2019-08-02T07:51:18Z</time>
      </trkpt>
      <trkpt lat="44.29191" lon="5.89734">
        <ele>578</ele>
        <time>2019-08-02T07:51:19Z</time>
      </trkpt>
      <trkpt lat="44.29185" lon="5.89741">
        <ele>577</ele>
        <time>2019-08-02T07:51:20Z</time>
      </trkpt>
      <trkpt lat="44.29177" lon="5.89748">
        <ele>577</ele>
        <time>2019-08-02T07:51:21Z</time>
      </trkpt>
      <trkpt lat="44.29169" lon="5.89754">
        <ele>577</ele>
        <time>2019-08-02T07:51:22Z</time>
      </trkpt>
      <trkpt lat="44.29161" lon="5.89759">
        <ele>577</ele>
        <time>2019-08-02T07:51:23Z</time>
      </trkpt>
      <trkpt lat="44.29152" lon="5.89761">
        <ele>577</ele>
        <time>2019-08-02T07:51:24Z</time>
      </trkpt>
      <trkpt lat="44.29142" lon="5.89761">
        <ele>577</ele>
        <time>2019-08-02T07:51:25Z</time>
      </trkpt>
      <trkpt lat="44.29131" lon="5.8976">
        <ele>577</ele>
        <time>2019-08-02T07:51:26Z</time>
      </trkpt>
      <trkpt lat="44.29121" lon="5.8976">
        <ele>577</ele>
        <time>2019-08-02T07:51:27Z</time>
      </trkpt>
      <trkpt lat="44.29111" lon="5.89759">
        <ele>577</ele>
        <time>2019-08-02T07:51:28Z</time>
      </trkpt>
      <trkpt lat="44.291" lon="5.89758">
        <ele>577</ele>
        <time>2019-08-02T07:51:29Z</time>
      </trkpt>
      <trkpt lat="44.2909" lon="5.89757">
        <ele>577</ele>
        <time>2019-08-02T07:51:30Z</time>
      </trkpt>
      <trkpt lat="44.29079" lon="5.89756">
        <ele>577</ele>
        <time>2019-08-02T07:51:31Z</time>
      </trkpt>
      <trkpt lat="44.29069" lon="5.89755">
        <ele>577</ele>
        <time>2019-08-02T07:51:32Z</time>
      </trkpt>
      <trkpt lat="44.29058" lon="5.89754">
        <ele>576</ele>
        <time>2019-08-02T07:51:33Z</time>
      </trkpt>
      <trkpt lat="44.29047" lon="5.89753">
        <ele>576</ele>
        <time>2019-08-02T07:51:34Z</time>
      </trkpt>
      <trkpt lat="44.29036" lon="5.89752">
        <ele>575</ele>
        <time>2019-08-02T07:51:35Z</time>
      </trkpt>
      <trkpt lat="44.29025" lon="5.89751">
        <ele>575</ele>
        <time>2019-08-02T07:51:36Z</time>
      </trkpt>
      <trkpt lat="44.29015" lon="5.89751">
        <ele>574</ele>
        <time>2019-08-02T07:51:37Z</time>
      </trkpt>
      <trkpt lat="44.29004" lon="5.8975">
        <ele>573</ele>
        <time>2019-08-02T07:51:38Z</time>
      </trkpt>
      <trkpt lat="44.28993" lon="5.8975">
        <ele>573</ele>
        <time>2019-08-02T07:51:39Z</time>
      </trkpt>
      <trkpt lat="44.28982" lon="5.8975">
        <ele>572</ele>
        <time>2019-08-02T07:51:40Z</time>
      </trkpt>
      <trkpt lat="44.28973" lon="5.89749">
        <ele>572</ele>
        <time>2019-08-02T07:51:41Z</time>
      </trkpt>
      <trkpt lat="44.28963" lon="5.89749">
        <ele>572</ele>
        <time>2019-08-02T07:51:42Z</time>
      </trkpt>
      <trkpt lat="44.28955" lon="5.8975">
        <ele>572</ele>
        <time>2019-08-02T07:51:43Z</time>
      </trkpt>
      <trkpt lat="44.28946" lon="5.89751">
        <ele>572</ele>
        <time>2019-08-02T07:51:44Z</time>
      </trkpt>
      <trkpt lat="44.28938" lon="5.89752">
        <ele>572</ele>
        <time>2019-08-02T07:51:45Z</time>
      </trkpt>
      <trkpt lat="44.2893" lon="5.89754">
        <ele>572</ele>
        <time>2019-08-02T07:51:46Z</time>
      </trkpt>
      <trkpt lat="44.28922" lon="5.89755">
        <ele>572</ele>
        <time>2019-08-02T07:51:47Z</time>
      </trkpt>
      <trkpt lat="44.28914" lon="5.89756">
        <ele>572</ele>
        <time>2019-08-02T07:51:48Z</time>
      </trkpt>
      <trkpt lat="44.28907" lon="5.89758">
        <ele>572</ele>
        <time>2019-08-02T07:51:49Z</time>
      </trkpt>
      <trkpt lat="44.289" lon="5.89759">
        <ele>572</ele>
        <time>2019-08-02T07:51:50Z</time>
      </trkpt>
      <trkpt lat="44.28893" lon="5.8976">
        <ele>572</ele>
        <time>2019-08-02T07:51:51Z</time>
      </trkpt>
      <trkpt lat="44.28885" lon="5.89761">
        <ele>572</ele>
        <time>2019-08-02T07:51:52Z</time>
      </trkpt>
      <trkpt lat="44.28878" lon="5.89762">
        <ele>572</ele>
        <time>2019-08-02T07:51:53Z</time>
      </trkpt>
      <trkpt lat="44.28871" lon="5.89763">
        <ele>572</ele>
        <time>2019-08-02T07:51:54Z</time>
      </trkpt>
      <trkpt lat="44.28864" lon="5.89765">
        <ele>572</ele>
        <time>2019-08-02T07:51:55Z</time>
      </trkpt>
      <trkpt lat="44.28857" lon="5.89767">
        <ele>572</ele>
        <time>2019-08-02T07:51:56Z</time>
      </trkpt>
      <trkpt lat="44.2885" lon="5.89768">
        <ele>572</ele>
        <time>2019-08-02T07:51:57Z</time>
      </trkpt>
      <trkpt lat="44.28844" lon="5.89769">
        <ele>572</ele>
        <time>2019-08-02T07:51:58Z</time>
      </trkpt>
      <trkpt lat="44.28837" lon="5.8977">
        <ele>572</ele>
        <time>2019-08-02T07:51:59Z</time>
      </trkpt>
      <trkpt lat="44.2883" lon="5.89771">
        <ele>572</ele>
        <time>2019-08-02T07:52:00Z</time>
      </trkpt>
      <trkpt lat="44.28823" lon="5.89772">
        <ele>573</ele>
        <time>2019-08-02T07:52:01Z</time>
      </trkpt>
      <trkpt lat="44.28817" lon="5.89773">
        <ele>573</ele>
        <time>2019-08-02T07:52:02Z</time>
      </trkpt>
      <trkpt lat="44.2881" lon="5.89774">
        <ele>573</ele>
        <time>2019-08-02T07:52:03Z</time>
      </trkpt>
      <trkpt lat="44.28804" lon="5.89775">
        <ele>573</ele>
        <time>2019-08-02T07:52:04Z</time>
      </trkpt>
      <trkpt lat="44.28797" lon="5.89776">
        <ele>573</ele>
        <time>2019-08-02T07:52:05Z</time>
      </trkpt>
      <trkpt lat="44.2879" lon="5.89777">
        <ele>573</ele>
        <time>2019-08-02T07:52:06Z</time>
      </trkpt>
      <trkpt lat="44.28784" lon="5.89778">
        <ele>573</ele>
        <time>2019-08-02T07:52:07Z</time>
      </trkpt>
      <trkpt lat="44.28777" lon="5.89779">
        <ele>573</ele>
        <time>2019-08-02T07:52:08Z</time>
      </trkpt>
      <trkpt lat="44.28771" lon="5.8978">
        <ele>573</ele>
        <time>2019-08-02T07:52:09Z</time>
      </trkpt>
      <trkpt lat="44.28764" lon="5.89782">
        <ele>573</ele>
        <time>2019-08-02T07:52:10Z</time>
      </trkpt>
      <trkpt lat="44.28758" lon="5.89783">
        <ele>573</ele>
        <time>2019-08-02T07:52:11Z</time>
      </trkpt>
      <trkpt lat="44.28751" lon="5.89783">
        <ele>573</ele>
        <time>2019-08-02T07:52:12Z</time>
      </trkpt>
      <trkpt lat="44.28745" lon="5.89785">
        <ele>573</ele>
        <time>2019-08-02T07:52:13Z</time>
      </trkpt>
      <trkpt lat="44.28738" lon="5.89786">
        <ele>573</ele>
        <time>2019-08-02T07:52:14Z</time>
      </trkpt>
      <trkpt lat="44.28732" lon="5.89787">
        <ele>573</ele>
        <time>2019-08-02T07:52:15Z</time>
      </trkpt>
      <trkpt lat="44.28726" lon="5.89788">
        <ele>573</ele>
        <time>2019-08-02T07:52:16Z</time>
      </trkpt>
      <trkpt lat="44.2872" lon="5.89789">
        <ele>573</ele>
        <time>2019-08-02T07:52:17Z</time>
      </trkpt>
      <trkpt lat="44.28715" lon="5.89788">
        <ele>573</ele>
        <time>2019-08-02T07:52:18Z</time>
      </trkpt>
      <trkpt lat="44.28711" lon="5.89784">
        <ele>573</ele>
        <time>2019-08-02T07:52:19Z</time>
      </trkpt>
      <trkpt lat="44.2871" lon="5.89778">
        <ele>573</ele>
        <time>2019-08-02T07:52:20Z</time>
      </trkpt>
      <trkpt lat="44.2871" lon="5.8977">
        <ele>573</ele>
        <time>2019-08-02T07:52:21Z</time>
      </trkpt>
      <trkpt lat="44.2871" lon="5.89763">
        <ele>573</ele>
        <time>2019-08-02T07:52:22Z</time>
      </trkpt>
      <trkpt lat="44.28711" lon="5.89755">
        <ele>573</ele>
        <time>2019-08-02T07:52:23Z</time>
      </trkpt>
      <trkpt lat="44.28711" lon="5.89747">
        <ele>573</ele>
        <time>2019-08-02T07:52:24Z</time>
      </trkpt>
      <trkpt lat="44.28713" lon="5.89737">
        <ele>573</ele>
        <time>2019-08-02T07:52:25Z</time>
      </trkpt>
      <trkpt lat="44.28714" lon="5.89727">
        <ele>573</ele>
        <time>2019-08-02T07:52:26Z</time>
      </trkpt>
      <trkpt lat="44.28714" lon="5.89716">
        <ele>573</ele>
        <time>2019-08-02T07:52:27Z</time>
      </trkpt>
      <trkpt lat="44.28714" lon="5.89705">
        <ele>573</ele>
        <time>2019-08-02T07:52:28Z</time>
      </trkpt>
      <trkpt lat="44.28714" lon="5.89693">
        <ele>573</ele>
        <time>2019-08-02T07:52:29Z</time>
      </trkpt>
      <trkpt lat="44.28714" lon="5.8968">
        <ele>573</ele>
        <time>2019-08-02T07:52:30Z</time>
      </trkpt>
      <trkpt lat="44.28714" lon="5.89667">
        <ele>573</ele>
        <time>2019-08-02T07:52:31Z</time>
      </trkpt>
      <trkpt lat="44.28714" lon="5.89653">
        <ele>572</ele>
        <time>2019-08-02T07:52:32Z</time>
      </trkpt>
      <trkpt lat="44.28713" lon="5.8964">
        <ele>572</ele>
        <time>2019-08-02T07:52:33Z</time>
      </trkpt>
      <trkpt lat="44.28712" lon="5.89625">
        <ele>571</ele>
        <time>2019-08-02T07:52:34Z</time>
      </trkpt>
      <trkpt lat="44.28711" lon="5.8961">
        <ele>570</ele>
        <time>2019-08-02T07:52:35Z</time>
      </trkpt>
      <trkpt lat="44.28711" lon="5.89596">
        <ele>570</ele>
        <time>2019-08-02T07:52:36Z</time>
      </trkpt>
      <trkpt lat="44.2871" lon="5.89581">
        <ele>569</ele>
        <time>2019-08-02T07:52:37Z</time>
      </trkpt>
      <trkpt lat="44.28709" lon="5.89566">
        <ele>568</ele>
        <time>2019-08-02T07:52:38Z</time>
      </trkpt>
      <trkpt lat="44.28709" lon="5.89551">
        <ele>568</ele>
        <time>2019-08-02T07:52:39Z</time>
      </trkpt>
      <trkpt lat="44.28709" lon="5.89537">
        <ele>567</ele>
        <time>2019-08-02T07:52:40Z</time>
      </trkpt>
      <trkpt lat="44.2871" lon="5.89523">
        <ele>567</ele>
        <time>2019-08-02T07:52:41Z</time>
      </trkpt>
      <trkpt lat="44.2871" lon="5.89508">
        <ele>567</ele>
        <time>2019-08-02T07:52:42Z</time>
      </trkpt>
      <trkpt lat="44.2871" lon="5.89495">
        <ele>567</ele>
        <time>2019-08-02T07:52:43Z</time>
      </trkpt>
      <trkpt lat="44.28709" lon="5.89482">
        <ele>567</ele>
        <time>2019-08-02T07:52:44Z</time>
      </trkpt>
      <trkpt lat="44.28707" lon="5.8947">
        <ele>566</ele>
        <time>2019-08-02T07:52:45Z</time>
      </trkpt>
      <trkpt lat="44.28703" lon="5.89461">
        <ele>566</ele>
        <time>2019-08-02T07:52:46Z</time>
      </trkpt>
      <trkpt lat="44.28696" lon="5.89455">
        <ele>566</ele>
        <time>2019-08-02T07:52:47Z</time>
      </trkpt>
      <trkpt lat="44.28688" lon="5.8945">
        <ele>566</ele>
        <time>2019-08-02T07:52:48Z</time>
      </trkpt>
      <trkpt lat="44.28679" lon="5.89446">
        <ele>566</ele>
        <time>2019-08-02T07:52:49Z</time>
      </trkpt>
      <trkpt lat="44.2867" lon="5.89442">
        <ele>565</ele>
        <time>2019-08-02T07:52:50Z</time>
      </trkpt>
      <trkpt lat="44.28661" lon="5.89438">
        <ele>564</ele>
        <time>2019-08-02T07:52:51Z</time>
      </trkpt>
      <trkpt lat="44.28652" lon="5.89434">
        <ele>564</ele>
        <time>2019-08-02T07:52:52Z</time>
      </trkpt>
      <trkpt lat="44.28643" lon="5.89428">
        <ele>563</ele>
        <time>2019-08-02T07:52:53Z</time>
      </trkpt>
      <trkpt lat="44.28636" lon="5.89421">
        <ele>562</ele>
        <time>2019-08-02T07:52:54Z</time>
      </trkpt>
      <trkpt lat="44.28629" lon="5.89414">
        <ele>562</ele>
        <time>2019-08-02T07:52:55Z</time>
      </trkpt>
      <trkpt lat="44.28622" lon="5.89406">
        <ele>562</ele>
        <time>2019-08-02T07:52:56Z</time>
      </trkpt>
      <trkpt lat="44.28616" lon="5.89398">
        <ele>562</ele>
        <time>2019-08-02T07:52:57Z</time>
      </trkpt>
      <trkpt lat="44.28609" lon="5.89391">
        <ele>562</ele>
        <time>2019-08-02T07:52:58Z</time>
      </trkpt>
      <trkpt lat="44.28603" lon="5.89383">
        <ele>562</ele>
        <time>2019-08-02T07:52:59Z</time>
      </trkpt>
      <trkpt lat="44.28595" lon="5.89377">
        <ele>562</ele>
        <time>2019-08-02T07:53:00Z</time>
      </trkpt>
      <trkpt lat="44.28588" lon="5.89371">
        <ele>562</ele>
        <time>2019-08-02T07:53:01Z</time>
      </trkpt>
      <trkpt lat="44.28581" lon="5.89366">
        <ele>562</ele>
        <time>2019-08-02T07:53:02Z</time>
      </trkpt>
      <trkpt lat="44.28573" lon="5.89362">
        <ele>562</ele>
        <time>2019-08-02T07:53:03Z</time>
      </trkpt>
      <trkpt lat="44.28566" lon="5.89358">
        <ele>562</ele>
        <time>2019-08-02T07:53:04Z</time>
      </trkpt>
      <trkpt lat="44.28558" lon="5.89354">
        <ele>562</ele>
        <time>2019-08-02T07:53:05Z</time>
      </trkpt>
      <trkpt lat="44.28551" lon="5.89349">
        <ele>562</ele>
        <time>2019-08-02T07:53:06Z</time>
      </trkpt>
      <trkpt lat="44.28543" lon="5.89345">
        <ele>561</ele>
        <time>2019-08-02T07:53:07Z</time>
      </trkpt>
      <trkpt lat="44.28537" lon="5.8934">
        <ele>561</ele>
        <time>2019-08-02T07:53:08Z</time>
      </trkpt>
      <trkpt lat="44.2853" lon="5.89334">
        <ele>561</ele>
        <time>2019-08-02T07:53:09Z</time>
      </trkpt>
      <trkpt lat="44.28525" lon="5.89328">
        <ele>560</ele>
        <time>2019-08-02T07:53:10Z</time>
      </trkpt>
      <trkpt lat="44.28519" lon="5.89322">
        <ele>560</ele>
        <time>2019-08-02T07:53:11Z</time>
      </trkpt>
      <trkpt lat="44.28514" lon="5.89315">
        <ele>560</ele>
        <time>2019-08-02T07:53:12Z</time>
      </trkpt>
      <trkpt lat="44.28509" lon="5.8931">
        <ele>560</ele>
        <time>2019-08-02T07:53:13Z</time>
      </trkpt>
      <trkpt lat="44.28504" lon="5.89305">
        <ele>560</ele>
        <time>2019-08-02T07:53:14Z</time>
      </trkpt>
      <trkpt lat="44.28499" lon="5.89301">
        <ele>560</ele>
        <time>2019-08-02T07:53:15Z</time>
      </trkpt>
      <trkpt lat="44.28494" lon="5.89296">
        <ele>560</ele>
        <time>2019-08-02T07:53:16Z</time>
      </trkpt>
      <trkpt lat="44.28489" lon="5.89292">
        <ele>560</ele>
        <time>2019-08-02T07:53:17Z</time>
      </trkpt>
      <trkpt lat="44.28484" lon="5.89288">
        <ele>560</ele>
        <time>2019-08-02T07:53:18Z</time>
      </trkpt>
      <trkpt lat="44.28478" lon="5.89285">
        <ele>560</ele>
        <time>2019-08-02T07:53:19Z</time>
      </trkpt>
      <trkpt lat="44.28473" lon="5.89281">
        <ele>560</ele>
        <time>2019-08-02T07:53:20Z</time>
      </trkpt>
      <trkpt lat="44.28468" lon="5.89278">
        <ele>560</ele>
        <time>2019-08-02T07:53:21Z</time>
      </trkpt>
      <trkpt lat="44.28462" lon="5.89275">
        <ele>560</ele>
        <time>2019-08-02T07:53:22Z</time>
      </trkpt>
      <trkpt lat="44.28457" lon="5.89272">
        <ele>560</ele>
        <time>2019-08-02T07:53:23Z</time>
      </trkpt>
      <trkpt lat="44.28451" lon="5.8927">
        <ele>560</ele>
        <time>2019-08-02T07:53:24Z</time>
      </trkpt>
      <trkpt lat="44.28446" lon="5.89267">
        <ele>560</ele>
        <time>2019-08-02T07:53:25Z</time>
      </trkpt>
      <trkpt lat="44.28441" lon="5.89264">
        <ele>560</ele>
        <time>2019-08-02T07:53:26Z</time>
      </trkpt>
      <trkpt lat="44.28435" lon="5.89262">
        <ele>560</ele>
        <time>2019-08-02T07:53:27Z</time>
      </trkpt>
      <trkpt lat="44.2843" lon="5.89259">
        <ele>560</ele>
        <time>2019-08-02T07:53:28Z</time>
      </trkpt>
      <trkpt lat="44.28425" lon="5.89257">
        <ele>560</ele>
        <time>2019-08-02T07:53:29Z</time>
      </trkpt>
      <trkpt lat="44.28419" lon="5.89254">
        <ele>561</ele>
        <time>2019-08-02T07:53:30Z</time>
      </trkpt>
      <trkpt lat="44.28415" lon="5.89251">
        <ele>561</ele>
        <time>2019-08-02T07:53:31Z</time>
      </trkpt>
      <trkpt lat="44.2841" lon="5.89248">
        <ele>562</ele>
        <time>2019-08-02T07:53:32Z</time>
      </trkpt>
      <trkpt lat="44.28405" lon="5.89244">
        <ele>562</ele>
        <time>2019-08-02T07:53:33Z</time>
      </trkpt>
      <trkpt lat="44.284" lon="5.8924">
        <ele>563</ele>
        <time>2019-08-02T07:53:34Z</time>
      </trkpt>
      <trkpt lat="44.28395" lon="5.89236">
        <ele>563</ele>
        <time>2019-08-02T07:53:35Z</time>
      </trkpt>
      <trkpt lat="44.28391" lon="5.89232">
        <ele>563</ele>
        <time>2019-08-02T07:53:36Z</time>
      </trkpt>
      <trkpt lat="44.28387" lon="5.89228">
        <ele>563</ele>
        <time>2019-08-02T07:53:37Z</time>
      </trkpt>
      <trkpt lat="44.28382" lon="5.89224">
        <ele>563</ele>
        <time>2019-08-02T07:53:38Z</time>
      </trkpt>
      <trkpt lat="44.28378" lon="5.89221">
        <ele>563</ele>
        <time>2019-08-02T07:53:39Z</time>
      </trkpt>
      <trkpt lat="44.28374" lon="5.89217">
        <ele>563</ele>
        <time>2019-08-02T07:53:40Z</time>
      </trkpt>
      <trkpt lat="44.2837" lon="5.89214">
        <ele>563</ele>
        <time>2019-08-02T07:53:41Z</time>
      </trkpt>
      <trkpt lat="44.28365" lon="5.89211">
        <ele>564</ele>
        <time>2019-08-02T07:53:42Z</time>
      </trkpt>
      <trkpt lat="44.28361" lon="5.89208">
        <ele>564</ele>
        <time>2019-08-02T07:53:43Z</time>
      </trkpt>
      <trkpt lat="44.28357" lon="5.89205">
        <ele>564</ele>
        <time>2019-08-02T07:53:44Z</time>
      </trkpt>
      <trkpt lat="44.28352" lon="5.89202">
        <ele>564</ele>
        <time>2019-08-02T07:53:45Z</time>
      </trkpt>
      <trkpt lat="44.28348" lon="5.89199">
        <ele>564</ele>
        <time>2019-08-02T07:53:46Z</time>
      </trkpt>
      <trkpt lat="44.28343" lon="5.89196">
        <ele>564</ele>
        <time>2019-08-02T07:53:47Z</time>
      </trkpt>
      <trkpt lat="44.28339" lon="5.89193">
        <ele>564</ele>
        <time>2019-08-02T07:53:48Z</time>
      </trkpt>
      <trkpt lat="44.28334" lon="5.8919">
        <ele>564</ele>
        <time>2019-08-02T07:53:49Z</time>
      </trkpt>
      <trkpt lat="44.28329" lon="5.89187">
        <ele>564</ele>
        <time>2019-08-02T07:53:50Z</time>
      </trkpt>
      <trkpt lat="44.28324" lon="5.89184">
        <ele>564</ele>
        <time>2019-08-02T07:53:51Z</time>
      </trkpt>
      <trkpt lat="44.28318" lon="5.89181">
        <ele>564</ele>
        <time>2019-08-02T07:53:52Z</time>
      </trkpt>
      <trkpt lat="44.28313" lon="5.89177">
        <ele>564</ele>
        <time>2019-08-02T07:53:53Z</time>
      </trkpt>
      <trkpt lat="44.28308" lon="5.89173">
        <ele>564</ele>
        <time>2019-08-02T07:53:54Z</time>
      </trkpt>
      <trkpt lat="44.28303" lon="5.89169">
        <ele>564</ele>
        <time>2019-08-02T07:53:55Z</time>
      </trkpt>
      <trkpt lat="44.28297" lon="5.89164">
        <ele>564</ele>
        <time>2019-08-02T07:53:56Z</time>
      </trkpt>
      <trkpt lat="44.28292" lon="5.8916">
        <ele>564</ele>
        <time>2019-08-02T07:53:57Z</time>
      </trkpt>
      <trkpt lat="44.28286" lon="5.89154">
        <ele>564</ele>
        <time>2019-08-02T07:53:58Z</time>
      </trkpt>
      <trkpt lat="44.2828" lon="5.89149">
        <ele>564</ele>
        <time>2019-08-02T07:53:59Z</time>
      </trkpt>
      <trkpt lat="44.28274" lon="5.89143">
        <ele>564</ele>
        <time>2019-08-02T07:54:00Z</time>
      </trkpt>
      <trkpt lat="44.28268" lon="5.89136">
        <ele>564</ele>
        <time>2019-08-02T07:54:01Z</time>
      </trkpt>
      <trkpt lat="44.28263" lon="5.89129">
        <ele>564</ele>
        <time>2019-08-02T07:54:02Z</time>
      </trkpt>
      <trkpt lat="44.28257" lon="5.89122">
        <ele>564</ele>
        <time>2019-08-02T07:54:03Z</time>
      </trkpt>
      <trkpt lat="44.28252" lon="5.89115">
        <ele>564</ele>
        <time>2019-08-02T07:54:04Z</time>
      </trkpt>
      <trkpt lat="44.28247" lon="5.89107">
        <ele>564</ele>
        <time>2019-08-02T07:54:05Z</time>
      </trkpt>
      <trkpt lat="44.28243" lon="5.89098">
        <ele>564</ele>
        <time>2019-08-02T07:54:06Z</time>
      </trkpt>
      <trkpt lat="44.2824" lon="5.89088">
        <ele>564</ele>
        <time>2019-08-02T07:54:07Z</time>
      </trkpt>
      <trkpt lat="44.28237" lon="5.8908">
        <ele>563</ele>
        <time>2019-08-02T07:54:08Z</time>
      </trkpt>
      <trkpt lat="44.28234" lon="5.89072">
        <ele>563</ele>
        <time>2019-08-02T07:54:09Z</time>
      </trkpt>
      <trkpt lat="44.28231" lon="5.89067">
        <ele>563</ele>
        <time>2019-08-02T07:54:10Z</time>
      </trkpt>
      <trkpt lat="44.28226" lon="5.89064">
        <ele>563</ele>
        <time>2019-08-02T07:54:11Z</time>
      </trkpt>
      <trkpt lat="44.28221" lon="5.89065">
        <ele>563</ele>
        <time>2019-08-02T07:54:12Z</time>
      </trkpt>
      <trkpt lat="44.28215" lon="5.89067">
        <ele>563</ele>
        <time>2019-08-02T07:54:13Z</time>
      </trkpt>
      <trkpt lat="44.28209" lon="5.89069">
        <ele>563</ele>
        <time>2019-08-02T07:54:14Z</time>
      </trkpt>
      <trkpt lat="44.28203" lon="5.89072">
        <ele>562</ele>
        <time>2019-08-02T07:54:15Z</time>
      </trkpt>
      <trkpt lat="44.28197" lon="5.89075">
        <ele>562</ele>
        <time>2019-08-02T07:54:16Z</time>
      </trkpt>
      <trkpt lat="44.28191" lon="5.89078">
        <ele>562</ele>
        <time>2019-08-02T07:54:17Z</time>
      </trkpt>
      <trkpt lat="44.28185" lon="5.8908">
        <ele>562</ele>
        <time>2019-08-02T07:54:18Z</time>
      </trkpt>
      <trkpt lat="44.28179" lon="5.89082">
        <ele>561</ele>
        <time>2019-08-02T07:54:19Z</time>
      </trkpt>
      <trkpt lat="44.28173" lon="5.89082">
        <ele>561</ele>
        <time>2019-08-02T07:54:20Z</time>
      </trkpt>
      <trkpt lat="44.28167" lon="5.89081">
        <ele>561</ele>
        <time>2019-08-02T07:54:21Z</time>
      </trkpt>
      <trkpt lat="44.28163" lon="5.89078">
        <ele>560</ele>
        <time>2019-08-02T07:54:22Z</time>
      </trkpt>
      <trkpt lat="44.28161" lon="5.89072">
        <ele>560</ele>
        <time>2019-08-02T07:54:23Z</time>
      </trkpt>
      <trkpt lat="44.28158" lon="5.89063">
        <ele>560</ele>
        <time>2019-08-02T07:54:24Z</time>
      </trkpt>
      <trkpt lat="44.28157" lon="5.89052">
        <ele>559</ele>
        <time>2019-08-02T07:54:25Z</time>
      </trkpt>
      <trkpt lat="44.28155" lon="5.89042">
        <ele>559</ele>
        <time>2019-08-02T07:54:26Z</time>
      </trkpt>
      <trkpt lat="44.28153" lon="5.89032">
        <ele>559</ele>
        <time>2019-08-02T07:54:27Z</time>
      </trkpt>
      <trkpt lat="44.28151" lon="5.89022">
        <ele>559</ele>
        <time>2019-08-02T07:54:28Z</time>
      </trkpt>
      <trkpt lat="44.28149" lon="5.89012">
        <ele>559</ele>
        <time>2019-08-02T07:54:29Z</time>
      </trkpt>
      <trkpt lat="44.28146" lon="5.89004">
        <ele>559</ele>
        <time>2019-08-02T07:54:30Z</time>
      </trkpt>
      <trkpt lat="44.28143" lon="5.88997">
        <ele>559</ele>
        <time>2019-08-02T07:54:31Z</time>
      </trkpt>
      <trkpt lat="44.28139" lon="5.88992">
        <ele>559</ele>
        <time>2019-08-02T07:54:32Z</time>
      </trkpt>
      <trkpt lat="44.28133" lon="5.8899">
        <ele>559</ele>
        <time>2019-08-02T07:54:33Z</time>
      </trkpt>
      <trkpt lat="44.28127" lon="5.88991">
        <ele>559</ele>
        <time>2019-08-02T07:54:34Z</time>
      </trkpt>
      <trkpt lat="44.28121" lon="5.88994">
        <ele>559</ele>
        <time>2019-08-02T07:54:35Z</time>
      </trkpt>
      <trkpt lat="44.28115" lon="5.88997">
        <ele>558</ele>
        <time>2019-08-02T07:54:36Z</time>
      </trkpt>
      <trkpt lat="44.28109" lon="5.89001">
        <ele>558</ele>
        <time>2019-08-02T07:54:37Z</time>
      </trkpt>
      <trkpt lat="44.28102" lon="5.89006">
        <ele>558</ele>
        <time>2019-08-02T07:54:38Z</time>
      </trkpt>
      <trkpt lat="44.28095" lon="5.8901">
        <ele>558</ele>
        <time>2019-08-02T07:54:39Z</time>
      </trkpt>
      <trkpt lat="44.28089" lon="5.89014">
        <ele>558</ele>
        <time>2019-08-02T07:54:40Z</time>
      </trkpt>
      <trkpt lat="44.28082" lon="5.89019">
        <ele>558</ele>
        <time>2019-08-02T07:54:41Z</time>
      </trkpt>
      <trkpt lat="44.28075" lon="5.89023">
        <ele>557</ele>
        <time>2019-08-02T07:54:42Z</time>
      </trkpt>
      <trkpt lat="44.28068" lon="5.89026">
        <ele>557</ele>
        <time>2019-08-02T07:54:43Z</time>
      </trkpt>
      <trkpt lat="44.28061" lon="5.89029">
        <ele>557</ele>
        <time>2019-08-02T07:54:44Z</time>
      </trkpt>
      <trkpt lat="44.28054" lon="5.8903">
        <ele>557</ele>
        <time>2019-08-02T07:54:45Z</time>
      </trkpt>
      <trkpt lat="44.28046" lon="5.8903">
        <ele>557</ele>
        <time>2019-08-02T07:54:46Z</time>
      </trkpt>
      <trkpt lat="44.28038" lon="5.89029">
        <ele>557</ele>
        <time>2019-08-02T07:54:47Z</time>
      </trkpt>
      <trkpt lat="44.2803" lon="5.89028">
        <ele>557</ele>
        <time>2019-08-02T07:54:48Z</time>
      </trkpt>
      <trkpt lat="44.28023" lon="5.89026">
        <ele>556</ele>
        <time>2019-08-02T07:54:49Z</time>
      </trkpt>
      <trkpt lat="44.28016" lon="5.89025">
        <ele>556</ele>
        <time>2019-08-02T07:54:50Z</time>
      </trkpt>
      <trkpt lat="44.28008" lon="5.89023">
        <ele>556</ele>
        <time>2019-08-02T07:54:51Z</time>
      </trkpt>
      <trkpt lat="44.28" lon="5.89022">
        <ele>556</ele>
        <time>2019-08-02T07:54:52Z</time>
      </trkpt>
      <trkpt lat="44.27993" lon="5.89021">
        <ele>556</ele>
        <time>2019-08-02T07:54:53Z</time>
      </trkpt>
      <trkpt lat="44.27985" lon="5.8902">
        <ele>556</ele>
        <time>2019-08-02T07:54:54Z</time>
      </trkpt>
      <trkpt lat="44.27977" lon="5.8902">
        <ele>556</ele>
        <time>2019-08-02T07:54:55Z</time>
      </trkpt>
      <trkpt lat="44.27969" lon="5.8902">
        <ele>556</ele>
        <time>2019-08-02T07:54:56Z</time>
      </trkpt>
      <trkpt lat="44.27961" lon="5.8902">
        <ele>556</ele>
        <time>2019-08-02T07:54:57Z</time>
      </trkpt>
      <trkpt lat="44.27953" lon="5.89021">
        <ele>556</ele>
        <time>2019-08-02T07:54:58Z</time>
      </trkpt>
      <trkpt lat="44.27945" lon="5.89021">
        <ele>556</ele>
        <time>2019-08-02T07:54:59Z</time>
      </trkpt>
      <trkpt lat="44.27937" lon="5.89022">
        <ele>555</ele>
        <time>2019-08-02T07:55:00Z</time>
      </trkpt>
      <trkpt lat="44.27929" lon="5.89023">
        <ele>555</ele>
        <time>2019-08-02T07:55:01Z</time>
      </trkpt>
      <trkpt lat="44.27921" lon="5.89025">
        <ele>555</ele>
        <time>2019-08-02T07:55:02Z</time>
      </trkpt>
      <trkpt lat="44.27914" lon="5.89025">
        <ele>555</ele>
        <time>2019-08-02T07:55:03Z</time>
      </trkpt>
      <trkpt lat="44.27907" lon="5.89023">
        <ele>555</ele>
        <time>2019-08-02T07:55:04Z</time>
      </trkpt>
      <trkpt lat="44.27902" lon="5.89017">
        <ele>555</ele>
        <time>2019-08-02T07:55:05Z</time>
      </trkpt>
      <trkpt lat="44.27899" lon="5.89009">
        <ele>555</ele>
        <time>2019-08-02T07:55:06Z</time>
      </trkpt>
      <trkpt lat="44.27898" lon="5.88999">
        <ele>555</ele>
        <time>2019-08-02T07:55:07Z</time>
      </trkpt>
      <trkpt lat="44.27897" lon="5.88989">
        <ele>555</ele>
        <time>2019-08-02T07:55:08Z</time>
      </trkpt>
      <trkpt lat="44.27895" lon="5.8898">
        <ele>555</ele>
        <time>2019-08-02T07:55:09Z</time>
      </trkpt>
      <trkpt lat="44.27892" lon="5.88972">
        <ele>555</ele>
        <time>2019-08-02T07:55:10Z</time>
      </trkpt>
      <trkpt lat="44.27886" lon="5.88965">
        <ele>555</ele>
        <time>2019-08-02T07:55:11Z</time>
      </trkpt>
      <trkpt lat="44.2788" lon="5.8896">
        <ele>555</ele>
        <time>2019-08-02T07:55:12Z</time>
      </trkpt>
      <trkpt lat="44.27874" lon="5.88955">
        <ele>555</ele>
        <time>2019-08-02T07:55:13Z</time>
      </trkpt>
      <trkpt lat="44.27868" lon="5.88949">
        <ele>554</ele>
        <time>2019-08-02T07:55:14Z</time>
      </trkpt>
      <trkpt lat="44.27862" lon="5.88943">
        <ele>554</ele>
        <time>2019-08-02T07:55:15Z</time>
      </trkpt>
      <trkpt lat="44.27857" lon="5.88935">
        <ele>553</ele>
        <time>2019-08-02T07:55:16Z</time>
      </trkpt>
      <trkpt lat="44.27852" lon="5.88928">
        <ele>553</ele>
        <time>2019-08-02T07:55:17Z</time>
      </trkpt>
      <trkpt lat="44.27848" lon="5.8892">
        <ele>553</ele>
        <time>2019-08-02T07:55:18Z</time>
      </trkpt>
      <trkpt lat="44.27843" lon="5.88912">
        <ele>553</ele>
        <time>2019-08-02T07:55:19Z</time>
      </trkpt>
      <trkpt lat="44.27838" lon="5.88904">
        <ele>552</ele>
        <time>2019-08-02T07:55:20Z</time>
      </trkpt>
      <trkpt lat="44.27834" lon="5.88896">
        <ele>552</ele>
        <time>2019-08-02T07:55:21Z</time>
      </trkpt>
      <trkpt lat="44.27829" lon="5.88887">
        <ele>552</ele>
        <time>2019-08-02T07:55:22Z</time>
      </trkpt>
      <trkpt lat="44.27824" lon="5.88879">
        <ele>552</ele>
        <time>2019-08-02T07:55:23Z</time>
      </trkpt>
      <trkpt lat="44.2782" lon="5.8887">
        <ele>552</ele>
        <time>2019-08-02T07:55:24Z</time>
      </trkpt>
      <trkpt lat="44.27816" lon="5.88861">
        <ele>552</ele>
        <time>2019-08-02T07:55:25Z</time>
      </trkpt>
      <trkpt lat="44.2781" lon="5.88852">
        <ele>552</ele>
        <time>2019-08-02T07:55:26Z</time>
      </trkpt>
      <trkpt lat="44.27804" lon="5.88844">
        <ele>552</ele>
        <time>2019-08-02T07:55:27Z</time>
      </trkpt>
      <trkpt lat="44.27797" lon="5.88837">
        <ele>552</ele>
        <time>2019-08-02T07:55:28Z</time>
      </trkpt>
      <trkpt lat="44.2779" lon="5.88833">
        <ele>552</ele>
        <time>2019-08-02T07:55:29Z</time>
      </trkpt>
      <trkpt lat="44.27782" lon="5.8883">
        <ele>552</ele>
        <time>2019-08-02T07:55:30Z</time>
      </trkpt>
      <trkpt lat="44.27775" lon="5.88827">
        <ele>552</ele>
        <time>2019-08-02T07:55:31Z</time>
      </trkpt>
      <trkpt lat="44.27767" lon="5.88825">
        <ele>551</ele>
        <time>2019-08-02T07:55:32Z</time>
      </trkpt>
      <trkpt lat="44.27759" lon="5.88823">
        <ele>551</ele>
        <time>2019-08-02T07:55:33Z</time>
      </trkpt>
      <trkpt lat="44.27751" lon="5.8882">
        <ele>551</ele>
        <time>2019-08-02T07:55:34Z</time>
      </trkpt>
      <trkpt lat="44.27744" lon="5.88818">
        <ele>550</ele>
        <time>2019-08-02T07:55:35Z</time>
      </trkpt>
      <trkpt lat="44.27736" lon="5.88814">
        <ele>550</ele>
        <time>2019-08-02T07:55:36Z</time>
      </trkpt>
      <trkpt lat="44.27728" lon="5.88811">
        <ele>550</ele>
        <time>2019-08-02T07:55:37Z</time>
      </trkpt>
      <trkpt lat="44.27721" lon="5.88806">
        <ele>549</ele>
        <time>2019-08-02T07:55:38Z</time>
      </trkpt>
      <trkpt lat="44.27715" lon="5.888">
        <ele>549</ele>
        <time>2019-08-02T07:55:39Z</time>
      </trkpt>
      <trkpt lat="44.27708" lon="5.88794">
        <ele>549</ele>
        <time>2019-08-02T07:55:40Z</time>
      </trkpt>
      <trkpt lat="44.27702" lon="5.88788">
        <ele>549</ele>
        <time>2019-08-02T07:55:41Z</time>
      </trkpt>
      <trkpt lat="44.27696" lon="5.88782">
        <ele>549</ele>
        <time>2019-08-02T07:55:42Z</time>
      </trkpt>
      <trkpt lat="44.2769" lon="5.88776">
        <ele>549</ele>
        <time>2019-08-02T07:55:43Z</time>
      </trkpt>
      <trkpt lat="44.27683" lon="5.88771">
        <ele>549</ele>
        <time>2019-08-02T07:55:44Z</time>
      </trkpt>
      <trkpt lat="44.27676" lon="5.88767">
        <ele>549</ele>
        <time>2019-08-02T07:55:45Z</time>
      </trkpt>
      <trkpt lat="44.27668" lon="5.88763">
        <ele>549</ele>
        <time>2019-08-02T07:55:46Z</time>
      </trkpt>
      <trkpt lat="44.2766" lon="5.8876">
        <ele>549</ele>
        <time>2019-08-02T07:55:47Z</time>
      </trkpt>
      <trkpt lat="44.27653" lon="5.88758">
        <ele>549</ele>
        <time>2019-08-02T07:55:48Z</time>
      </trkpt>
      <trkpt lat="44.27645" lon="5.88755">
        <ele>549</ele>
        <time>2019-08-02T07:55:49Z</time>
      </trkpt>
      <trkpt lat="44.27637" lon="5.88752">
        <ele>549</ele>
        <time>2019-08-02T07:55:50Z</time>
      </trkpt>
      <trkpt lat="44.2763" lon="5.88749">
        <ele>549</ele>
        <time>2019-08-02T07:55:51Z</time>
      </trkpt>
      <trkpt lat="44.27624" lon="5.88744">
        <ele>548</ele>
        <time>2019-08-02T07:55:52Z</time>
      </trkpt>
      <trkpt lat="44.27618" lon="5.88739">
        <ele>548</ele>
        <time>2019-08-02T07:55:53Z</time>
      </trkpt>
      <trkpt lat="44.27614" lon="5.88732">
        <ele>547</ele>
        <time>2019-08-02T07:55:54Z</time>
      </trkpt>
      <trkpt lat="44.2761" lon="5.88725">
        <ele>546</ele>
        <time>2019-08-02T07:55:55Z</time>
      </trkpt>
      <trkpt lat="44.27607" lon="5.88717">
        <ele>546</ele>
        <time>2019-08-02T07:55:56Z</time>
      </trkpt>
      <trkpt lat="44.27603" lon="5.88708">
        <ele>546</ele>
        <time>2019-08-02T07:55:57Z</time>
      </trkpt>
      <trkpt lat="44.27599" lon="5.887">
        <ele>546</ele>
        <time>2019-08-02T07:55:58Z</time>
      </trkpt>
      <trkpt lat="44.27595" lon="5.88691">
        <ele>546</ele>
        <time>2019-08-02T07:55:59Z</time>
      </trkpt>
      <trkpt lat="44.27591" lon="5.88682">
        <ele>546</ele>
        <time>2019-08-02T07:56:00Z</time>
      </trkpt>
      <trkpt lat="44.27588" lon="5.88673">
        <ele>546</ele>
        <time>2019-08-02T07:56:01Z</time>
      </trkpt>
      <trkpt lat="44.27584" lon="5.88664">
        <ele>546</ele>
        <time>2019-08-02T07:56:02Z</time>
      </trkpt>
      <trkpt lat="44.2758" lon="5.88656">
        <ele>546</ele>
        <time>2019-08-02T07:56:03Z</time>
      </trkpt>
      <trkpt lat="44.27577" lon="5.88647">
        <ele>546</ele>
        <time>2019-08-02T07:56:04Z</time>
      </trkpt>
      <trkpt lat="44.27573" lon="5.88637">
        <ele>546</ele>
        <time>2019-08-02T07:56:05Z</time>
      </trkpt>
      <trkpt lat="44.27569" lon="5.88629">
        <ele>546</ele>
        <time>2019-08-02T07:56:06Z</time>
      </trkpt>
      <trkpt lat="44.27565" lon="5.88621">
        <ele>546</ele>
        <time>2019-08-02T07:56:07Z</time>
      </trkpt>
      <trkpt lat="44.27562" lon="5.88613">
        <ele>545</ele>
        <time>2019-08-02T07:56:08Z</time>
      </trkpt>
      <trkpt lat="44.27558" lon="5.88605">
        <ele>545</ele>
        <time>2019-08-02T07:56:09Z</time>
      </trkpt>
      <trkpt lat="44.27554" lon="5.886">
        <ele>545</ele>
        <time>2019-08-02T07:56:10Z</time>
      </trkpt>
      <trkpt lat="44.27549" lon="5.88596">
        <ele>545</ele>
        <time>2019-08-02T07:56:11Z</time>
      </trkpt>
      <trkpt lat="44.27543" lon="5.88593">
        <ele>545</ele>
        <time>2019-08-02T07:56:12Z</time>
      </trkpt>
      <trkpt lat="44.27537" lon="5.88592">
        <ele>545</ele>
        <time>2019-08-02T07:56:13Z</time>
      </trkpt>
      <trkpt lat="44.2753" lon="5.88592">
        <ele>544</ele>
        <time>2019-08-02T07:56:14Z</time>
      </trkpt>
      <trkpt lat="44.27523" lon="5.88592">
        <ele>544</ele>
        <time>2019-08-02T07:56:15Z</time>
      </trkpt>
      <trkpt lat="44.27517" lon="5.88593">
        <ele>544</ele>
        <time>2019-08-02T07:56:16Z</time>
      </trkpt>
      <trkpt lat="44.27509" lon="5.88594">
        <ele>544</ele>
        <time>2019-08-02T07:56:17Z</time>
      </trkpt>
      <trkpt lat="44.27502" lon="5.88594">
        <ele>544</ele>
        <time>2019-08-02T07:56:18Z</time>
      </trkpt>
      <trkpt lat="44.27495" lon="5.88595">
        <ele>544</ele>
        <time>2019-08-02T07:56:19Z</time>
      </trkpt>
      <trkpt lat="44.27488" lon="5.88595">
        <ele>544</ele>
        <time>2019-08-02T07:56:20Z</time>
      </trkpt>
      <trkpt lat="44.2748" lon="5.88595">
        <ele>544</ele>
        <time>2019-08-02T07:56:21Z</time>
      </trkpt>
      <trkpt lat="44.27473" lon="5.88595">
        <ele>544</ele>
        <time>2019-08-02T07:56:22Z</time>
      </trkpt>
      <trkpt lat="44.27465" lon="5.88594">
        <ele>544</ele>
        <time>2019-08-02T07:56:23Z</time>
      </trkpt>
      <trkpt lat="44.27458" lon="5.88593">
        <ele>544</ele>
        <time>2019-08-02T07:56:24Z</time>
      </trkpt>
      <trkpt lat="44.27451" lon="5.88592">
        <ele>544</ele>
        <time>2019-08-02T07:56:25Z</time>
      </trkpt>
      <trkpt lat="44.27444" lon="5.8859">
        <ele>544</ele>
        <time>2019-08-02T07:56:26Z</time>
      </trkpt>
      <trkpt lat="44.27437" lon="5.88588">
        <ele>544</ele>
        <time>2019-08-02T07:56:27Z</time>
      </trkpt>
      <trkpt lat="44.2743" lon="5.88586">
        <ele>544</ele>
        <time>2019-08-02T07:56:28Z</time>
      </trkpt>
      <trkpt lat="44.27423" lon="5.88584">
        <ele>544</ele>
        <time>2019-08-02T07:56:29Z</time>
      </trkpt>
      <trkpt lat="44.27416" lon="5.88582">
        <ele>544</ele>
        <time>2019-08-02T07:56:30Z</time>
      </trkpt>
      <trkpt lat="44.27409" lon="5.8858">
        <ele>544</ele>
        <time>2019-08-02T07:56:31Z</time>
      </trkpt>
      <trkpt lat="44.27401" lon="5.88577">
        <ele>544</ele>
        <time>2019-08-02T07:56:32Z</time>
      </trkpt>
      <trkpt lat="44.27394" lon="5.88573">
        <ele>544</ele>
        <time>2019-08-02T07:56:33Z</time>
      </trkpt>
      <trkpt lat="44.27387" lon="5.8857">
        <ele>544</ele>
        <time>2019-08-02T07:56:34Z</time>
      </trkpt>
      <trkpt lat="44.2738" lon="5.88566">
        <ele>544</ele>
        <time>2019-08-02T07:56:35Z</time>
      </trkpt>
      <trkpt lat="44.27372" lon="5.88562">
        <ele>544</ele>
        <time>2019-08-02T07:56:36Z</time>
      </trkpt>
      <trkpt lat="44.27365" lon="5.88558">
        <ele>544</ele>
        <time>2019-08-02T07:56:37Z</time>
      </trkpt>
      <trkpt lat="44.27358" lon="5.88554">
        <ele>544</ele>
        <time>2019-08-02T07:56:38Z</time>
      </trkpt>
      <trkpt lat="44.27351" lon="5.88551">
        <ele>544</ele>
        <time>2019-08-02T07:56:39Z</time>
      </trkpt>
      <trkpt lat="44.27344" lon="5.88547">
        <ele>544</ele>
        <time>2019-08-02T07:56:40Z</time>
      </trkpt>
      <trkpt lat="44.27337" lon="5.88543">
        <ele>544</ele>
        <time>2019-08-02T07:56:41Z</time>
      </trkpt>
      <trkpt lat="44.27329" lon="5.8854">
        <ele>544</ele>
        <time>2019-08-02T07:56:42Z</time>
      </trkpt>
      <trkpt lat="44.27322" lon="5.88537">
        <ele>544</ele>
        <time>2019-08-02T07:56:43Z</time>
      </trkpt>
      <trkpt lat="44.27315" lon="5.88534">
        <ele>544</ele>
        <time>2019-08-02T07:56:44Z</time>
      </trkpt>
      <trkpt lat="44.27308" lon="5.88531">
        <ele>544</ele>
        <time>2019-08-02T07:56:45Z</time>
      </trkpt>
      <trkpt lat="44.27301" lon="5.88529">
        <ele>544</ele>
        <time>2019-08-02T07:56:46Z</time>
      </trkpt>
      <trkpt lat="44.27294" lon="5.88527">
        <ele>544</ele>
        <time>2019-08-02T07:56:47Z</time>
      </trkpt>
      <trkpt lat="44.27287" lon="5.88525">
        <ele>544</ele>
        <time>2019-08-02T07:56:48Z</time>
      </trkpt>
      <trkpt lat="44.2728" lon="5.88523">
        <ele>544</ele>
        <time>2019-08-02T07:56:49Z</time>
      </trkpt>
      <trkpt lat="44.27272" lon="5.88521">
        <ele>544</ele>
        <time>2019-08-02T07:56:50Z</time>
      </trkpt>
      <trkpt lat="44.27265" lon="5.88519">
        <ele>544</ele>
        <time>2019-08-02T07:56:51Z</time>
      </trkpt>
      <trkpt lat="44.27257" lon="5.88517">
        <ele>544</ele>
        <time>2019-08-02T07:56:52Z</time>
      </trkpt>
      <trkpt lat="44.27249" lon="5.88516">
        <ele>544</ele>
        <time>2019-08-02T07:56:53Z</time>
      </trkpt>
      <trkpt lat="44.27242" lon="5.88514">
        <ele>544</ele>
        <time>2019-08-02T07:56:54Z</time>
      </trkpt>
      <trkpt lat="44.27234" lon="5.88513">
        <ele>544</ele>
        <time>2019-08-02T07:56:55Z</time>
      </trkpt>
      <trkpt lat="44.27226" lon="5.88511">
        <ele>544</ele>
        <time>2019-08-02T07:56:56Z</time>
      </trkpt>
      <trkpt lat="44.27218" lon="5.8851">
        <ele>544</ele>
        <time>2019-08-02T07:56:57Z</time>
      </trkpt>
      <trkpt lat="44.2721" lon="5.88509">
        <ele>544</ele>
        <time>2019-08-02T07:56:58Z</time>
      </trkpt>
      <trkpt lat="44.27202" lon="5.88509">
        <ele>544</ele>
        <time>2019-08-02T07:56:59Z</time>
      </trkpt>
      <trkpt lat="44.27195" lon="5.88508">
        <ele>544</ele>
        <time>2019-08-02T07:57:00Z</time>
      </trkpt>
      <trkpt lat="44.27187" lon="5.88508">
        <ele>544</ele>
        <time>2019-08-02T07:57:01Z</time>
      </trkpt>
      <trkpt lat="44.27179" lon="5.88508">
        <ele>544</ele>
        <time>2019-08-02T07:57:02Z</time>
      </trkpt>
      <trkpt lat="44.27172" lon="5.88507">
        <ele>544</ele>
        <time>2019-08-02T07:57:03Z</time>
      </trkpt>
      <trkpt lat="44.27164" lon="5.88506">
        <ele>544</ele>
        <time>2019-08-02T07:57:04Z</time>
      </trkpt>
      <trkpt lat="44.27157" lon="5.88506">
        <ele>544</ele>
        <time>2019-08-02T07:57:05Z</time>
      </trkpt>
      <trkpt lat="44.2715" lon="5.88505">
        <ele>544</ele>
        <time>2019-08-02T07:57:06Z</time>
      </trkpt>
      <trkpt lat="44.27142" lon="5.88504">
        <ele>544</ele>
        <time>2019-08-02T07:57:07Z</time>
      </trkpt>
      <trkpt lat="44.27135" lon="5.88502">
        <ele>544</ele>
        <time>2019-08-02T07:57:08Z</time>
      </trkpt>
      <trkpt lat="44.27128" lon="5.885">
        <ele>544</ele>
        <time>2019-08-02T07:57:09Z</time>
      </trkpt>
      <trkpt lat="44.27121" lon="5.88497">
        <ele>544</ele>
        <time>2019-08-02T07:57:10Z</time>
      </trkpt>
      <trkpt lat="44.27114" lon="5.88494">
        <ele>544</ele>
        <time>2019-08-02T07:57:11Z</time>
      </trkpt>
      <trkpt lat="44.27108" lon="5.8849">
        <ele>544</ele>
        <time>2019-08-02T07:57:12Z</time>
      </trkpt>
      <trkpt lat="44.27101" lon="5.88487">
        <ele>544</ele>
        <time>2019-08-02T07:57:13Z</time>
      </trkpt>
      <trkpt lat="44.27094" lon="5.88484">
        <ele>544</ele>
        <time>2019-08-02T07:57:14Z</time>
      </trkpt>
      <trkpt lat="44.27087" lon="5.8848">
        <ele>544</ele>
        <time>2019-08-02T07:57:15Z</time>
      </trkpt>
      <trkpt lat="44.27081" lon="5.88477">
        <ele>544</ele>
        <time>2019-08-02T07:57:16Z</time>
      </trkpt>
      <trkpt lat="44.27074" lon="5.88473">
        <ele>544</ele>
        <time>2019-08-02T07:57:17Z</time>
      </trkpt>
      <trkpt lat="44.27067" lon="5.8847">
        <ele>544</ele>
        <time>2019-08-02T07:57:18Z</time>
      </trkpt>
      <trkpt lat="44.27061" lon="5.88467">
        <ele>544</ele>
        <time>2019-08-02T07:57:19Z</time>
      </trkpt>
      <trkpt lat="44.27055" lon="5.88463">
        <ele>544</ele>
        <time>2019-08-02T07:57:20Z</time>
      </trkpt>
      <trkpt lat="44.27049" lon="5.88461">
        <ele>544</ele>
        <time>2019-08-02T07:57:21Z</time>
      </trkpt>
      <trkpt lat="44.27044" lon="5.88459">
        <ele>544</ele>
        <time>2019-08-02T07:57:22Z</time>
      </trkpt>
      <trkpt lat="44.27038" lon="5.88457">
        <ele>544</ele>
        <time>2019-08-02T07:57:23Z</time>
      </trkpt>
      <trkpt lat="44.27032" lon="5.88456">
        <ele>544</ele>
        <time>2019-08-02T07:57:24Z</time>
      </trkpt>
      <trkpt lat="44.27025" lon="5.88455">
        <ele>544</ele>
        <time>2019-08-02T07:57:25Z</time>
      </trkpt>
      <trkpt lat="44.27019" lon="5.88454">
        <ele>544</ele>
        <time>2019-08-02T07:57:26Z</time>
      </trkpt>
      <trkpt lat="44.27012" lon="5.88454">
        <ele>544</ele>
        <time>2019-08-02T07:57:27Z</time>
      </trkpt>
      <trkpt lat="44.27005" lon="5.88454">
        <ele>544</ele>
        <time>2019-08-02T07:57:28Z</time>
      </trkpt>
      <trkpt lat="44.26998" lon="5.88453">
        <ele>544</ele>
        <time>2019-08-02T07:57:29Z</time>
      </trkpt>
      <trkpt lat="44.26991" lon="5.88452">
        <ele>544</ele>
        <time>2019-08-02T07:57:30Z</time>
      </trkpt>
      <trkpt lat="44.26984" lon="5.88451">
        <ele>544</ele>
        <time>2019-08-02T07:57:31Z</time>
      </trkpt>
      <trkpt lat="44.26977" lon="5.8845">
        <ele>544</ele>
        <time>2019-08-02T07:57:32Z</time>
      </trkpt>
      <trkpt lat="44.2697" lon="5.88449">
        <ele>544</ele>
        <time>2019-08-02T07:57:33Z</time>
      </trkpt>
      <trkpt lat="44.26962" lon="5.88448">
        <ele>544</ele>
        <time>2019-08-02T07:57:34Z</time>
      </trkpt>
      <trkpt lat="44.26955" lon="5.88446">
        <ele>544</ele>
        <time>2019-08-02T07:57:35Z</time>
      </trkpt>
      <trkpt lat="44.26948" lon="5.88445">
        <ele>544</ele>
        <time>2019-08-02T07:57:36Z</time>
      </trkpt>
      <trkpt lat="44.26941" lon="5.88443">
        <ele>544</ele>
        <time>2019-08-02T07:57:37Z</time>
      </trkpt>
      <trkpt lat="44.26934" lon="5.88441">
        <ele>544</ele>
        <time>2019-08-02T07:57:38Z</time>
      </trkpt>
      <trkpt lat="44.26927" lon="5.88439">
        <ele>544</ele>
        <time>2019-08-02T07:57:39Z</time>
      </trkpt>
      <trkpt lat="44.26921" lon="5.88436">
        <ele>544</ele>
        <time>2019-08-02T07:57:40Z</time>
      </trkpt>
      <trkpt lat="44.26915" lon="5.88432">
        <ele>544</ele>
        <time>2019-08-02T07:57:41Z</time>
      </trkpt>
      <trkpt lat="44.26908" lon="5.88427">
        <ele>544</ele>
        <time>2019-08-02T07:57:42Z</time>
      </trkpt>
      <trkpt lat="44.26903" lon="5.88421">
        <ele>544</ele>
        <time>2019-08-02T07:57:43Z</time>
      </trkpt>
      <trkpt lat="44.26898" lon="5.88415">
        <ele>544</ele>
        <time>2019-08-02T07:57:44Z</time>
      </trkpt>
      <trkpt lat="44.26893" lon="5.8841">
        <ele>544</ele>
        <time>2019-08-02T07:57:45Z</time>
      </trkpt>
      <trkpt lat="44.26888" lon="5.88405">
        <ele>544</ele>
        <time>2019-08-02T07:57:46Z</time>
      </trkpt>
      <trkpt lat="44.26883" lon="5.884">
        <ele>544</ele>
        <time>2019-08-02T07:57:47Z</time>
      </trkpt>
      <trkpt lat="44.26878" lon="5.88394">
        <ele>544</ele>
        <time>2019-08-02T07:57:48Z</time>
      </trkpt>
      <trkpt lat="44.26873" lon="5.88389">
        <ele>544</ele>
        <time>2019-08-02T07:57:49Z</time>
      </trkpt>
      <trkpt lat="44.26868" lon="5.88385">
        <ele>544</ele>
        <time>2019-08-02T07:57:50Z</time>
      </trkpt>
      <trkpt lat="44.26864" lon="5.88382">
        <ele>544</ele>
        <time>2019-08-02T07:57:51Z</time>
      </trkpt>
      <trkpt lat="44.2686" lon="5.88378">
        <ele>544</ele>
        <time>2019-08-02T07:57:52Z</time>
      </trkpt>
      <trkpt lat="44.26856" lon="5.88376">
        <ele>544</ele>
        <time>2019-08-02T07:57:53Z</time>
      </trkpt>
      <trkpt lat="44.26852" lon="5.88373">
        <ele>544</ele>
        <time>2019-08-02T07:57:54Z</time>
      </trkpt>
      <trkpt lat="44.26846" lon="5.8837">
        <ele>544</ele>
        <time>2019-08-02T07:57:55Z</time>
      </trkpt>
      <trkpt lat="44.26841" lon="5.88367">
        <ele>544</ele>
        <time>2019-08-02T07:57:56Z</time>
      </trkpt>
      <trkpt lat="44.26836" lon="5.88365">
        <ele>544</ele>
        <time>2019-08-02T07:57:57Z</time>
      </trkpt>
      <trkpt lat="44.26831" lon="5.88362">
        <ele>544</ele>
        <time>2019-08-02T07:57:58Z</time>
      </trkpt>
      <trkpt lat="44.26826" lon="5.88359">
        <ele>543</ele>
        <time>2019-08-02T07:57:59Z</time>
      </trkpt>
      <trkpt lat="44.26821" lon="5.88356">
        <ele>543</ele>
        <time>2019-08-02T07:58:00Z</time>
      </trkpt>
      <trkpt lat="44.26816" lon="5.88353">
        <ele>543</ele>
        <time>2019-08-02T07:58:01Z</time>
      </trkpt>
      <trkpt lat="44.26812" lon="5.88349">
        <ele>543</ele>
        <time>2019-08-02T07:58:02Z</time>
      </trkpt>
      <trkpt lat="44.26806" lon="5.88346">
        <ele>543</ele>
        <time>2019-08-02T07:58:03Z</time>
      </trkpt>
      <trkpt lat="44.26801" lon="5.88342">
        <ele>543</ele>
        <time>2019-08-02T07:58:04Z</time>
      </trkpt>
      <trkpt lat="44.26796" lon="5.88337">
        <ele>543</ele>
        <time>2019-08-02T07:58:05Z</time>
      </trkpt>
      <trkpt lat="44.26792" lon="5.88332">
        <ele>542</ele>
        <time>2019-08-02T07:58:06Z</time>
      </trkpt>
      <trkpt lat="44.26787" lon="5.88328">
        <ele>542</ele>
        <time>2019-08-02T07:58:07Z</time>
      </trkpt>
      <trkpt lat="44.26782" lon="5.88323">
        <ele>541</ele>
        <time>2019-08-02T07:58:08Z</time>
      </trkpt>
      <trkpt lat="44.26777" lon="5.8832">
        <ele>541</ele>
        <time>2019-08-02T07:58:09Z</time>
      </trkpt>
      <trkpt lat="44.26772" lon="5.88316">
        <ele>541</ele>
        <time>2019-08-02T07:58:10Z</time>
      </trkpt>
      <trkpt lat="44.26766" lon="5.88313">
        <ele>541</ele>
        <time>2019-08-02T07:58:11Z</time>
      </trkpt>
      <trkpt lat="44.26761" lon="5.8831">
        <ele>541</ele>
        <time>2019-08-02T07:58:12Z</time>
      </trkpt>
      <trkpt lat="44.26756" lon="5.88308">
        <ele>541</ele>
        <time>2019-08-02T07:58:13Z</time>
      </trkpt>
      <trkpt lat="44.26751" lon="5.88305">
        <ele>541</ele>
        <time>2019-08-02T07:58:14Z</time>
      </trkpt>
      <trkpt lat="44.26746" lon="5.88302">
        <ele>541</ele>
        <time>2019-08-02T07:58:15Z</time>
      </trkpt>
      <trkpt lat="44.26741" lon="5.883">
        <ele>541</ele>
        <time>2019-08-02T07:58:16Z</time>
      </trkpt>
      <trkpt lat="44.26736" lon="5.88297">
        <ele>541</ele>
        <time>2019-08-02T07:58:17Z</time>
      </trkpt>
      <trkpt lat="44.2673" lon="5.88294">
        <ele>541</ele>
        <time>2019-08-02T07:58:18Z</time>
      </trkpt>
      <trkpt lat="44.26725" lon="5.88291">
        <ele>541</ele>
        <time>2019-08-02T07:58:19Z</time>
      </trkpt>
      <trkpt lat="44.26719" lon="5.88288">
        <ele>541</ele>
        <time>2019-08-02T07:58:20Z</time>
      </trkpt>
      <trkpt lat="44.26714" lon="5.88285">
        <ele>541</ele>
        <time>2019-08-02T07:58:21Z</time>
      </trkpt>
      <trkpt lat="44.26708" lon="5.88282">
        <ele>541</ele>
        <time>2019-08-02T07:58:22Z</time>
      </trkpt>
      <trkpt lat="44.26702" lon="5.88278">
        <ele>541</ele>
        <time>2019-08-02T07:58:23Z</time>
      </trkpt>
      <trkpt lat="44.26696" lon="5.88275">
        <ele>541</ele>
        <time>2019-08-02T07:58:24Z</time>
      </trkpt>
      <trkpt lat="44.26691" lon="5.88271">
        <ele>541</ele>
        <time>2019-08-02T07:58:25Z</time>
      </trkpt>
      <trkpt lat="44.26685" lon="5.88267">
        <ele>541</ele>
        <time>2019-08-02T07:58:26Z</time>
      </trkpt>
      <trkpt lat="44.26679" lon="5.88263">
        <ele>541</ele>
        <time>2019-08-02T07:58:27Z</time>
      </trkpt>
      <trkpt lat="44.26673" lon="5.88259">
        <ele>541</ele>
        <time>2019-08-02T07:58:28Z</time>
      </trkpt>
      <trkpt lat="44.26667" lon="5.88254">
        <ele>541</ele>
        <time>2019-08-02T07:58:29Z</time>
      </trkpt>
      <trkpt lat="44.26662" lon="5.88249">
        <ele>541</ele>
        <time>2019-08-02T07:58:30Z</time>
      </trkpt>
      <trkpt lat="44.26657" lon="5.88244">
        <ele>541</ele>
        <time>2019-08-02T07:58:31Z</time>
      </trkpt>
      <trkpt lat="44.26652" lon="5.88239">
        <ele>541</ele>
        <time>2019-08-02T07:58:32Z</time>
      </trkpt>
      <trkpt lat="44.26647" lon="5.88233">
        <ele>540</ele>
        <time>2019-08-02T07:58:33Z</time>
      </trkpt>
      <trkpt lat="44.26643" lon="5.88227">
        <ele>539</ele>
        <time>2019-08-02T07:58:34Z</time>
      </trkpt>
      <trkpt lat="44.26638" lon="5.88221">
        <ele>538</ele>
        <time>2019-08-02T07:58:35Z</time>
      </trkpt>
      <trkpt lat="44.26633" lon="5.88216">
        <ele>538</ele>
        <time>2019-08-02T07:58:36Z</time>
      </trkpt>
      <trkpt lat="44.26629" lon="5.8821">
        <ele>537</ele>
        <time>2019-08-02T07:58:37Z</time>
      </trkpt>
      <trkpt lat="44.26624" lon="5.88203">
        <ele>537</ele>
        <time>2019-08-02T07:58:38Z</time>
      </trkpt>
      <trkpt lat="44.26619" lon="5.88198">
        <ele>537</ele>
        <time>2019-08-02T07:58:39Z</time>
      </trkpt>
      <trkpt lat="44.26615" lon="5.88191">
        <ele>537</ele>
        <time>2019-08-02T07:58:40Z</time>
      </trkpt>
      <trkpt lat="44.2661" lon="5.88185">
        <ele>537</ele>
        <time>2019-08-02T07:58:41Z</time>
      </trkpt>
      <trkpt lat="44.26606" lon="5.88179">
        <ele>537</ele>
        <time>2019-08-02T07:58:42Z</time>
      </trkpt>
      <trkpt lat="44.26603" lon="5.88173">
        <ele>537</ele>
        <time>2019-08-02T07:58:43Z</time>
      </trkpt>
      <trkpt lat="44.26599" lon="5.88167">
        <ele>537</ele>
        <time>2019-08-02T07:58:44Z</time>
      </trkpt>
      <trkpt lat="44.26595" lon="5.88162">
        <ele>537</ele>
        <time>2019-08-02T07:58:45Z</time>
      </trkpt>
      <trkpt lat="44.26591" lon="5.88157">
        <ele>537</ele>
        <time>2019-08-02T07:58:46Z</time>
      </trkpt>
      <trkpt lat="44.26588" lon="5.88152">
        <ele>537</ele>
        <time>2019-08-02T07:58:47Z</time>
      </trkpt>
      <trkpt lat="44.26584" lon="5.88147">
        <ele>537</ele>
        <time>2019-08-02T07:58:48Z</time>
      </trkpt>
      <trkpt lat="44.2658" lon="5.88142">
        <ele>537</ele>
        <time>2019-08-02T07:58:49Z</time>
      </trkpt>
      <trkpt lat="44.26576" lon="5.88137">
        <ele>537</ele>
        <time>2019-08-02T07:58:50Z</time>
      </trkpt>
      <trkpt lat="44.26573" lon="5.88131">
        <ele>537</ele>
        <time>2019-08-02T07:58:51Z</time>
      </trkpt>
      <trkpt lat="44.26569" lon="5.88126">
        <ele>537</ele>
        <time>2019-08-02T07:58:52Z</time>
      </trkpt>
      <trkpt lat="44.26566" lon="5.88121">
        <ele>537</ele>
        <time>2019-08-02T07:58:53Z</time>
      </trkpt>
      <trkpt lat="44.26562" lon="5.88115">
        <ele>537</ele>
        <time>2019-08-02T07:58:54Z</time>
      </trkpt>
      <trkpt lat="44.26558" lon="5.8811">
        <ele>537</ele>
        <time>2019-08-02T07:58:55Z</time>
      </trkpt>
      <trkpt lat="44.26554" lon="5.88105">
        <ele>537</ele>
        <time>2019-08-02T07:58:56Z</time>
      </trkpt>
      <trkpt lat="44.2655" lon="5.881">
        <ele>537</ele>
        <time>2019-08-02T07:58:57Z</time>
      </trkpt>
      <trkpt lat="44.26546" lon="5.88095">
        <ele>537</ele>
        <time>2019-08-02T07:58:58Z</time>
      </trkpt>
      <trkpt lat="44.26543" lon="5.88091">
        <ele>537</ele>
        <time>2019-08-02T07:58:59Z</time>
      </trkpt>
      <trkpt lat="44.26538" lon="5.88087">
        <ele>537</ele>
        <time>2019-08-02T07:59:00Z</time>
      </trkpt>
      <trkpt lat="44.26534" lon="5.88084">
        <ele>537</ele>
        <time>2019-08-02T07:59:01Z</time>
      </trkpt>
      <trkpt lat="44.2653" lon="5.8808">
        <ele>537</ele>
        <time>2019-08-02T07:59:02Z</time>
      </trkpt>
      <trkpt lat="44.26527" lon="5.88077">
        <ele>537</ele>
        <time>2019-08-02T07:59:03Z</time>
      </trkpt>
      <trkpt lat="44.26523" lon="5.88074">
        <ele>538</ele>
        <time>2019-08-02T07:59:04Z</time>
      </trkpt>
      <trkpt lat="44.2652" lon="5.8807">
        <ele>539</ele>
        <time>2019-08-02T07:59:05Z</time>
      </trkpt>
      <trkpt lat="44.26516" lon="5.88067">
        <ele>539</ele>
        <time>2019-08-02T07:59:06Z</time>
      </trkpt>
      <trkpt lat="44.26512" lon="5.88064">
        <ele>539</ele>
        <time>2019-08-02T07:59:07Z</time>
      </trkpt>
      <trkpt lat="44.26508" lon="5.88061">
        <ele>539</ele>
        <time>2019-08-02T07:59:08Z</time>
      </trkpt>
      <trkpt lat="44.26505" lon="5.88058">
        <ele>539</ele>
        <time>2019-08-02T07:59:09Z</time>
      </trkpt>
      <trkpt lat="44.26502" lon="5.88055">
        <ele>539</ele>
        <time>2019-08-02T07:59:10Z</time>
      </trkpt>
      <trkpt lat="44.26498" lon="5.88052">
        <ele>539</ele>
        <time>2019-08-02T07:59:11Z</time>
      </trkpt>
      <trkpt lat="44.26495" lon="5.88049">
        <ele>539</ele>
        <time>2019-08-02T07:59:12Z</time>
      </trkpt>
      <trkpt lat="44.26491" lon="5.88047">
        <ele>539</ele>
        <time>2019-08-02T07:59:13Z</time>
      </trkpt>
      <trkpt lat="44.26488" lon="5.88044">
        <ele>539</ele>
        <time>2019-08-02T07:59:14Z</time>
      </trkpt>
      <trkpt lat="44.26485" lon="5.88042">
        <ele>539</ele>
        <time>2019-08-02T07:59:15Z</time>
      </trkpt>
      <trkpt lat="44.26481" lon="5.8804">
        <ele>539</ele>
        <time>2019-08-02T07:59:16Z</time>
      </trkpt>
      <trkpt lat="44.26477" lon="5.88039">
        <ele>539</ele>
        <time>2019-08-02T07:59:17Z</time>
      </trkpt>
      <trkpt lat="44.26474" lon="5.88038">
        <ele>540</ele>
        <time>2019-08-02T07:59:18Z</time>
      </trkpt>
      <trkpt lat="44.2647" lon="5.88037">
        <ele>541</ele>
        <time>2019-08-02T07:59:19Z</time>
      </trkpt>
      <trkpt lat="44.26466" lon="5.88037">
        <ele>542</ele>
        <time>2019-08-02T07:59:20Z</time>
      </trkpt>
      <trkpt lat="44.26463" lon="5.88036">
        <ele>543</ele>
        <time>2019-08-02T07:59:21Z</time>
      </trkpt>
      <trkpt lat="44.26459" lon="5.88035">
        <ele>544</ele>
        <time>2019-08-02T07:59:22Z</time>
      </trkpt>
      <trkpt lat="44.26455" lon="5.88034">
        <ele>544</ele>
        <time>2019-08-02T07:59:23Z</time>
      </trkpt>
      <trkpt lat="44.26451" lon="5.88033">
        <ele>545</ele>
        <time>2019-08-02T07:59:24Z</time>
      </trkpt>
      <trkpt lat="44.26447" lon="5.88032">
        <ele>545</ele>
        <time>2019-08-02T07:59:25Z</time>
      </trkpt>
      <trkpt lat="44.26444" lon="5.88032">
        <ele>545</ele>
        <time>2019-08-02T07:59:26Z</time>
      </trkpt>
      <trkpt lat="44.2644" lon="5.88031">
        <ele>546</ele>
        <time>2019-08-02T07:59:27Z</time>
      </trkpt>
      <trkpt lat="44.26437" lon="5.8803">
        <ele>547</ele>
        <time>2019-08-02T07:59:28Z</time>
      </trkpt>
      <trkpt lat="44.26434" lon="5.88029">
        <ele>547</ele>
        <time>2019-08-02T07:59:29Z</time>
      </trkpt>
      <trkpt lat="44.2643" lon="5.88028">
        <ele>548</ele>
        <time>2019-08-02T07:59:30Z</time>
      </trkpt>
      <trkpt lat="44.26427" lon="5.88028">
        <ele>548</ele>
        <time>2019-08-02T07:59:31Z</time>
      </trkpt>
      <trkpt lat="44.26424" lon="5.88027">
        <ele>549</ele>
        <time>2019-08-02T07:59:32Z</time>
      </trkpt>
      <trkpt lat="44.26421" lon="5.88026">
        <ele>549</ele>
        <time>2019-08-02T07:59:33Z</time>
      </trkpt>
      <trkpt lat="44.26418" lon="5.88026">
        <ele>549</ele>
        <time>2019-08-02T07:59:34Z</time>
      </trkpt>
      <trkpt lat="44.26414" lon="5.88025">
        <ele>550</ele>
        <time>2019-08-02T07:59:35Z</time>
      </trkpt>
      <trkpt lat="44.26411" lon="5.88024">
        <ele>551</ele>
        <time>2019-08-02T07:59:36Z</time>
      </trkpt>
      <trkpt lat="44.26408" lon="5.88024">
        <ele>552</ele>
        <time>2019-08-02T07:59:37Z</time>
      </trkpt>
      <trkpt lat="44.26406" lon="5.88023">
        <ele>553</ele>
        <time>2019-08-02T07:59:38Z</time>
      </trkpt>
      <trkpt lat="44.26402" lon="5.88023">
        <ele>553</ele>
        <time>2019-08-02T07:59:39Z</time>
      </trkpt>
      <trkpt lat="44.26399" lon="5.88022">
        <ele>553</ele>
        <time>2019-08-02T07:59:40Z</time>
      </trkpt>
      <trkpt lat="44.26396" lon="5.88021">
        <ele>553</ele>
        <time>2019-08-02T07:59:41Z</time>
      </trkpt>
      <trkpt lat="44.26393" lon="5.88021">
        <ele>553</ele>
        <time>2019-08-02T07:59:42Z</time>
      </trkpt>
      <trkpt lat="44.2639" lon="5.88019">
        <ele>553</ele>
        <time>2019-08-02T07:59:43Z</time>
      </trkpt>
      <trkpt lat="44.26387" lon="5.88018">
        <ele>554</ele>
        <time>2019-08-02T07:59:44Z</time>
      </trkpt>
      <trkpt lat="44.26384" lon="5.88017">
        <ele>554</ele>
        <time>2019-08-02T07:59:45Z</time>
      </trkpt>
      <trkpt lat="44.26381" lon="5.88014">
        <ele>554</ele>
        <time>2019-08-02T07:59:46Z</time>
      </trkpt>
      <trkpt lat="44.26379" lon="5.88012">
        <ele>554</ele>
        <time>2019-08-02T07:59:47Z</time>
      </trkpt>
      <trkpt lat="44.26377" lon="5.8801">
        <ele>555</ele>
        <time>2019-08-02T07:59:48Z</time>
      </trkpt>
      <trkpt lat="44.26375" lon="5.88007">
        <ele>555</ele>
        <time>2019-08-02T07:59:49Z</time>
      </trkpt>
      <trkpt lat="44.26373" lon="5.88004">
        <ele>555</ele>
        <time>2019-08-02T07:59:50Z</time>
      </trkpt>
      <trkpt lat="44.26371" lon="5.88001">
        <ele>556</ele>
        <time>2019-08-02T07:59:51Z</time>
      </trkpt>
      <trkpt lat="44.26369" lon="5.87998">
        <ele>557</ele>
        <time>2019-08-02T07:59:52Z</time>
      </trkpt>
      <trkpt lat="44.26367" lon="5.87994">
        <ele>558</ele>
        <time>2019-08-02T07:59:53Z</time>
      </trkpt>
      <trkpt lat="44.26365" lon="5.87991">
        <ele>559</ele>
        <time>2019-08-02T07:59:54Z</time>
      </trkpt>
      <trkpt lat="44.26363" lon="5.87988">
        <ele>560</ele>
        <time>2019-08-02T07:59:55Z</time>
      </trkpt>
      <trkpt lat="44.26361" lon="5.87986">
        <ele>560</ele>
        <time>2019-08-02T07:59:56Z</time>
      </trkpt>
      <trkpt lat="44.2636" lon="5.87982">
        <ele>561</ele>
        <time>2019-08-02T07:59:57Z</time>
      </trkpt>
      <trkpt lat="44.26358" lon="5.87979">
        <ele>561</ele>
        <time>2019-08-02T07:59:58Z</time>
      </trkpt>
      <trkpt lat="44.26356" lon="5.87975">
        <ele>562</ele>
        <time>2019-08-02T07:59:59Z</time>
      </trkpt>
      <trkpt lat="44.26354" lon="5.87972">
        <ele>562</ele>
        <time>2019-08-02T08:00:00Z</time>
      </trkpt>
      <trkpt lat="44.26352" lon="5.87967">
        <ele>562</ele>
        <time>2019-08-02T08:00:01Z</time>
      </trkpt>
      <trkpt lat="44.2635" lon="5.87964">
        <ele>562</ele>
        <time>2019-08-02T08:00:02Z</time>
      </trkpt>
      <trkpt lat="44.26348" lon="5.8796">
        <ele>562</ele>
        <time>2019-08-02T08:00:03Z</time>
      </trkpt>
      <trkpt lat="44.26347" lon="5.87956">
        <ele>562</ele>
        <time>2019-08-02T08:00:04Z</time>
      </trkpt>
      <trkpt lat="44.26345" lon="5.87952">
        <ele>562</ele>
        <time>2019-08-02T08:00:05Z</time>
      </trkpt>
      <trkpt lat="44.26344" lon="5.87948">
        <ele>562</ele>
        <time>2019-08-02T08:00:06Z</time>
      </trkpt>
      <trkpt lat="44.26342" lon="5.87943">
        <ele>563</ele>
        <time>2019-08-02T08:00:07Z</time>
      </trkpt>
      <trkpt lat="44.26342" lon="5.87939">
        <ele>563</ele>
        <time>2019-08-02T08:00:08Z</time>
      </trkpt>
      <trkpt lat="44.26341" lon="5.87935">
        <ele>563</ele>
        <time>2019-08-02T08:00:09Z</time>
      </trkpt>
      <trkpt lat="44.26341" lon="5.87931">
        <ele>564</ele>
        <time>2019-08-02T08:00:10Z</time>
      </trkpt>
      <trkpt lat="44.26341" lon="5.87926">
        <ele>564</ele>
        <time>2019-08-02T08:00:11Z</time>
      </trkpt>
      <trkpt lat="44.26341" lon="5.87922">
        <ele>564</ele>
        <time>2019-08-02T08:00:12Z</time>
      </trkpt>
      <trkpt lat="44.26341" lon="5.87918">
        <ele>565</ele>
        <time>2019-08-02T08:00:13Z</time>
      </trkpt>
      <trkpt lat="44.26342" lon="5.87914">
        <ele>565</ele>
        <time>2019-08-02T08:00:14Z</time>
      </trkpt>
      <trkpt lat="44.26343" lon="5.8791">
        <ele>565</ele>
        <time>2019-08-02T08:00:15Z</time>
      </trkpt>
      <trkpt lat="44.26343" lon="5.87906">
        <ele>566</ele>
        <time>2019-08-02T08:00:16Z</time>
      </trkpt>
      <trkpt lat="44.26344" lon="5.87901">
        <ele>566</ele>
        <time>2019-08-02T08:00:17Z</time>
      </trkpt>
      <trkpt lat="44.26345" lon="5.87897">
        <ele>566</ele>
        <time>2019-08-02T08:00:18Z</time>
      </trkpt>
      <trkpt lat="44.26345" lon="5.87893">
        <ele>566</ele>
        <time>2019-08-02T08:00:19Z</time>
      </trkpt>
      <trkpt lat="44.26346" lon="5.87888">
        <ele>566</ele>
        <time>2019-08-02T08:00:20Z</time>
      </trkpt>
      <trkpt lat="44.26346" lon="5.87883">
        <ele>566</ele>
        <time>2019-08-02T08:00:21Z</time>
      </trkpt>
      <trkpt lat="44.26346" lon="5.87879">
        <ele>566</ele>
        <time>2019-08-02T08:00:22Z</time>
      </trkpt>
      <trkpt lat="44.26347" lon="5.87874">
        <ele>566</ele>
        <time>2019-08-02T08:00:23Z</time>
      </trkpt>
      <trkpt lat="44.26347" lon="5.87869">
        <ele>566</ele>
        <time>2019-08-02T08:00:24Z</time>
      </trkpt>
      <trkpt lat="44.26347" lon="5.87864">
        <ele>566</ele>
        <time>2019-08-02T08:00:25Z</time>
      </trkpt>
      <trkpt lat="44.26346" lon="5.87859">
        <ele>566</ele>
        <time>2019-08-02T08:00:26Z</time>
      </trkpt>
      <trkpt lat="44.26345" lon="5.87854">
        <ele>566</ele>
        <time>2019-08-02T08:00:27Z</time>
      </trkpt>
      <trkpt lat="44.26345" lon="5.8785">
        <ele>566</ele>
        <time>2019-08-02T08:00:28Z</time>
      </trkpt>
      <trkpt lat="44.26344" lon="5.87845">
        <ele>566</ele>
        <time>2019-08-02T08:00:29Z</time>
      </trkpt>
      <trkpt lat="44.26343" lon="5.8784">
        <ele>566</ele>
        <time>2019-08-02T08:00:30Z</time>
      </trkpt>
      <trkpt lat="44.26342" lon="5.87836">
        <ele>566</ele>
        <time>2019-08-02T08:00:31Z</time>
      </trkpt>
      <trkpt lat="44.26341" lon="5.87831">
        <ele>567</ele>
        <time>2019-08-02T08:00:32Z</time>
      </trkpt>
      <trkpt lat="44.26339" lon="5.87827">
        <ele>567</ele>
        <time>2019-08-02T08:00:33Z</time>
      </trkpt>
      <trkpt lat="44.26337" lon="5.87823">
        <ele>567</ele>
        <time>2019-08-02T08:00:34Z</time>
      </trkpt>
      <trkpt lat="44.26335" lon="5.87819">
        <ele>568</ele>
        <time>2019-08-02T08:00:35Z</time>
      </trkpt>
      <trkpt lat="44.26332" lon="5.87816">
        <ele>568</ele>
        <time>2019-08-02T08:00:36Z</time>
      </trkpt>
      <trkpt lat="44.26329" lon="5.87811">
        <ele>568</ele>
        <time>2019-08-02T08:00:37Z</time>
      </trkpt>
      <trkpt lat="44.26326" lon="5.87807">
        <ele>568</ele>
        <time>2019-08-02T08:00:38Z</time>
      </trkpt>
      <trkpt lat="44.26322" lon="5.87804">
        <ele>568</ele>
        <time>2019-08-02T08:00:39Z</time>
      </trkpt>
      <trkpt lat="44.26319" lon="5.878">
        <ele>568</ele>
        <time>2019-08-02T08:00:40Z</time>
      </trkpt>
      <trkpt lat="44.26316" lon="5.87797">
        <ele>568</ele>
        <time>2019-08-02T08:00:41Z</time>
      </trkpt>
      <trkpt lat="44.26313" lon="5.87794">
        <ele>568</ele>
        <time>2019-08-02T08:00:42Z</time>
      </trkpt>
      <trkpt lat="44.26309" lon="5.87792">
        <ele>568</ele>
        <time>2019-08-02T08:00:43Z</time>
      </trkpt>
      <trkpt lat="44.26306" lon="5.87789">
        <ele>568</ele>
        <time>2019-08-02T08:00:44Z</time>
      </trkpt>
      <trkpt lat="44.26302" lon="5.87786">
        <ele>568</ele>
        <time>2019-08-02T08:00:45Z</time>
      </trkpt>
      <trkpt lat="44.26298" lon="5.87783">
        <ele>568</ele>
        <time>2019-08-02T08:00:46Z</time>
      </trkpt>
      <trkpt lat="44.26295" lon="5.8778">
        <ele>568</ele>
        <time>2019-08-02T08:00:47Z</time>
      </trkpt>
      <trkpt lat="44.26292" lon="5.87777">
        <ele>568</ele>
        <time>2019-08-02T08:00:48Z</time>
      </trkpt>
      <trkpt lat="44.26288" lon="5.87774">
        <ele>568</ele>
        <time>2019-08-02T08:00:49Z</time>
      </trkpt>
      <trkpt lat="44.26284" lon="5.87772">
        <ele>568</ele>
        <time>2019-08-02T08:00:50Z</time>
      </trkpt>
      <trkpt lat="44.2628" lon="5.87769">
        <ele>568</ele>
        <time>2019-08-02T08:00:51Z</time>
      </trkpt>
      <trkpt lat="44.26277" lon="5.87767">
        <ele>568</ele>
        <time>2019-08-02T08:00:52Z</time>
      </trkpt>
      <trkpt lat="44.26273" lon="5.87764">
        <ele>568</ele>
        <time>2019-08-02T08:00:53Z</time>
      </trkpt>
      <trkpt lat="44.26269" lon="5.87761">
        <ele>568</ele>
        <time>2019-08-02T08:00:54Z</time>
      </trkpt>
      <trkpt lat="44.26265" lon="5.87758">
        <ele>568</ele>
        <time>2019-08-02T08:00:55Z</time>
      </trkpt>
      <trkpt lat="44.26261" lon="5.87755">
        <ele>568</ele>
        <time>2019-08-02T08:00:56Z</time>
      </trkpt>
      <trkpt lat="44.26257" lon="5.87752">
        <ele>568</ele>
        <time>2019-08-02T08:00:57Z</time>
      </trkpt>
      <trkpt lat="44.26253" lon="5.87749">
        <ele>569</ele>
        <time>2019-08-02T08:00:58Z</time>
      </trkpt>
      <trkpt lat="44.26249" lon="5.87746">
        <ele>569</ele>
        <time>2019-08-02T08:00:59Z</time>
      </trkpt>
      <trkpt lat="44.26245" lon="5.87743">
        <ele>569</ele>
        <time>2019-08-02T08:01:00Z</time>
      </trkpt>
      <trkpt lat="44.26241" lon="5.87739">
        <ele>569</ele>
        <time>2019-08-02T08:01:01Z</time>
      </trkpt>
      <trkpt lat="44.26237" lon="5.87736">
        <ele>569</ele>
        <time>2019-08-02T08:01:02Z</time>
      </trkpt>
      <trkpt lat="44.26233" lon="5.87733">
        <ele>569</ele>
        <time>2019-08-02T08:01:03Z</time>
      </trkpt>
      <trkpt lat="44.26229" lon="5.8773">
        <ele>569</ele>
        <time>2019-08-02T08:01:04Z</time>
      </trkpt>
      <trkpt lat="44.26225" lon="5.87726">
        <ele>569</ele>
        <time>2019-08-02T08:01:05Z</time>
      </trkpt>
      <trkpt lat="44.2622" lon="5.87723">
        <ele>569</ele>
        <time>2019-08-02T08:01:06Z</time>
      </trkpt>
      <trkpt lat="44.26216" lon="5.8772">
        <ele>569</ele>
        <time>2019-08-02T08:01:07Z</time>
      </trkpt>
      <trkpt lat="44.26212" lon="5.87717">
        <ele>569</ele>
        <time>2019-08-02T08:01:08Z</time>
      </trkpt>
      <trkpt lat="44.26207" lon="5.87715">
        <ele>569</ele>
        <time>2019-08-02T08:01:09Z</time>
      </trkpt>
      <trkpt lat="44.26203" lon="5.87713">
        <ele>569</ele>
        <time>2019-08-02T08:01:10Z</time>
      </trkpt>
      <trkpt lat="44.26198" lon="5.8771">
        <ele>569</ele>
        <time>2019-08-02T08:01:11Z</time>
      </trkpt>
      <trkpt lat="44.26194" lon="5.87708">
        <ele>569</ele>
        <time>2019-08-02T08:01:12Z</time>
      </trkpt>
      <trkpt lat="44.26189" lon="5.87705">
        <ele>569</ele>
        <time>2019-08-02T08:01:13Z</time>
      </trkpt>
      <trkpt lat="44.26184" lon="5.87703">
        <ele>569</ele>
        <time>2019-08-02T08:01:14Z</time>
      </trkpt>
      <trkpt lat="44.26179" lon="5.877">
        <ele>569</ele>
        <time>2019-08-02T08:01:15Z</time>
      </trkpt>
      <trkpt lat="44.26174" lon="5.87698">
        <ele>569</ele>
        <time>2019-08-02T08:01:16Z</time>
      </trkpt>
      <trkpt lat="44.26169" lon="5.87696">
        <ele>569</ele>
        <time>2019-08-02T08:01:17Z</time>
      </trkpt>
      <trkpt lat="44.26164" lon="5.87693">
        <ele>569</ele>
        <time>2019-08-02T08:01:18Z</time>
      </trkpt>
      <trkpt lat="44.26159" lon="5.87691">
        <ele>569</ele>
        <time>2019-08-02T08:01:19Z</time>
      </trkpt>
      <trkpt lat="44.26154" lon="5.87689">
        <ele>569</ele>
        <time>2019-08-02T08:01:20Z</time>
      </trkpt>
      <trkpt lat="44.26149" lon="5.87687">
        <ele>569</ele>
        <time>2019-08-02T08:01:21Z</time>
      </trkpt>
      <trkpt lat="44.26145" lon="5.87684">
        <ele>569</ele>
        <time>2019-08-02T08:01:22Z</time>
      </trkpt>
      <trkpt lat="44.2614" lon="5.87681">
        <ele>569</ele>
        <time>2019-08-02T08:01:23Z</time>
      </trkpt>
      <trkpt lat="44.26136" lon="5.87678">
        <ele>569</ele>
        <time>2019-08-02T08:01:24Z</time>
      </trkpt>
      <trkpt lat="44.26132" lon="5.87675">
        <ele>569</ele>
        <time>2019-08-02T08:01:25Z</time>
      </trkpt>
      <trkpt lat="44.26128" lon="5.87671">
        <ele>569</ele>
        <time>2019-08-02T08:01:26Z</time>
      </trkpt>
      <trkpt lat="44.26125" lon="5.87666">
        <ele>569</ele>
        <time>2019-08-02T08:01:27Z</time>
      </trkpt>
      <trkpt lat="44.26123" lon="5.8766">
        <ele>569</ele>
        <time>2019-08-02T08:01:28Z</time>
      </trkpt>
      <trkpt lat="44.2612" lon="5.87654">
        <ele>569</ele>
        <time>2019-08-02T08:01:29Z</time>
      </trkpt>
      <trkpt lat="44.26117" lon="5.87648">
        <ele>569</ele>
        <time>2019-08-02T08:01:30Z</time>
      </trkpt>
      <trkpt lat="44.26115" lon="5.87643">
        <ele>570</ele>
        <time>2019-08-02T08:01:31Z</time>
      </trkpt>
      <trkpt lat="44.26112" lon="5.87637">
        <ele>570</ele>
        <time>2019-08-02T08:01:32Z</time>
      </trkpt>
      <trkpt lat="44.26109" lon="5.87632">
        <ele>570</ele>
        <time>2019-08-02T08:01:33Z</time>
      </trkpt>
      <trkpt lat="44.26105" lon="5.87627">
        <ele>571</ele>
        <time>2019-08-02T08:01:34Z</time>
      </trkpt>
      <trkpt lat="44.26101" lon="5.87622">
        <ele>571</ele>
        <time>2019-08-02T08:01:35Z</time>
      </trkpt>
      <trkpt lat="44.26096" lon="5.87618">
        <ele>571</ele>
        <time>2019-08-02T08:01:36Z</time>
      </trkpt>
      <trkpt lat="44.26091" lon="5.87614">
        <ele>571</ele>
        <time>2019-08-02T08:01:37Z</time>
      </trkpt>
      <trkpt lat="44.26086" lon="5.87609">
        <ele>572</ele>
        <time>2019-08-02T08:01:38Z</time>
      </trkpt>
      <trkpt lat="44.2608" lon="5.87604">
        <ele>572</ele>
        <time>2019-08-02T08:01:39Z</time>
      </trkpt>
      <trkpt lat="44.26074" lon="5.876">
        <ele>572</ele>
        <time>2019-08-02T08:01:40Z</time>
      </trkpt>
      <trkpt lat="44.26069" lon="5.87595">
        <ele>572</ele>
        <time>2019-08-02T08:01:41Z</time>
      </trkpt>
      <trkpt lat="44.26063" lon="5.87591">
        <ele>572</ele>
        <time>2019-08-02T08:01:42Z</time>
      </trkpt>
      <trkpt lat="44.26058" lon="5.87586">
        <ele>572</ele>
        <time>2019-08-02T08:01:43Z</time>
      </trkpt>
      <trkpt lat="44.26053" lon="5.87582">
        <ele>573</ele>
        <time>2019-08-02T08:01:44Z</time>
      </trkpt>
      <trkpt lat="44.26047" lon="5.87577">
        <ele>573</ele>
        <time>2019-08-02T08:01:45Z</time>
      </trkpt>
      <trkpt lat="44.26042" lon="5.87573">
        <ele>573</ele>
        <time>2019-08-02T08:01:46Z</time>
      </trkpt>
      <trkpt lat="44.26036" lon="5.87569">
        <ele>573</ele>
        <time>2019-08-02T08:01:47Z</time>
      </trkpt>
      <trkpt lat="44.26031" lon="5.87565">
        <ele>573</ele>
        <time>2019-08-02T08:01:48Z</time>
      </trkpt>
      <trkpt lat="44.26026" lon="5.8756">
        <ele>573</ele>
        <time>2019-08-02T08:01:49Z</time>
      </trkpt>
      <trkpt lat="44.2602" lon="5.87556">
        <ele>573</ele>
        <time>2019-08-02T08:01:50Z</time>
      </trkpt>
      <trkpt lat="44.26015" lon="5.87551">
        <ele>573</ele>
        <time>2019-08-02T08:01:51Z</time>
      </trkpt>
      <trkpt lat="44.2601" lon="5.87546">
        <ele>573</ele>
        <time>2019-08-02T08:01:52Z</time>
      </trkpt>
      <trkpt lat="44.26005" lon="5.87542">
        <ele>573</ele>
        <time>2019-08-02T08:01:53Z</time>
      </trkpt>
      <trkpt lat="44.26" lon="5.87538">
        <ele>573</ele>
        <time>2019-08-02T08:01:54Z</time>
      </trkpt>
      <trkpt lat="44.25995" lon="5.87533">
        <ele>573</ele>
        <time>2019-08-02T08:01:55Z</time>
      </trkpt>
      <trkpt lat="44.2599" lon="5.87529">
        <ele>573</ele>
        <time>2019-08-02T08:01:56Z</time>
      </trkpt>
      <trkpt lat="44.25985" lon="5.87525">
        <ele>573</ele>
        <time>2019-08-02T08:01:57Z</time>
      </trkpt>
      <trkpt lat="44.2598" lon="5.87521">
        <ele>573</ele>
        <time>2019-08-02T08:01:58Z</time>
      </trkpt>
      <trkpt lat="44.25975" lon="5.87517">
        <ele>573</ele>
        <time>2019-08-02T08:01:59Z</time>
      </trkpt>
      <trkpt lat="44.2597" lon="5.87513">
        <ele>573</ele>
        <time>2019-08-02T08:02:00Z</time>
      </trkpt>
      <trkpt lat="44.25965" lon="5.87509">
        <ele>573</ele>
        <time>2019-08-02T08:02:01Z</time>
      </trkpt>
      <trkpt lat="44.2596" lon="5.87504">
        <ele>573</ele>
        <time>2019-08-02T08:02:02Z</time>
      </trkpt>
      <trkpt lat="44.25955" lon="5.875">
        <ele>573</ele>
        <time>2019-08-02T08:02:03Z</time>
      </trkpt>
      <trkpt lat="44.2595" lon="5.87496">
        <ele>573</ele>
        <time>2019-08-02T08:02:04Z</time>
      </trkpt>
      <trkpt lat="44.25945" lon="5.87493">
        <ele>573</ele>
        <time>2019-08-02T08:02:05Z</time>
      </trkpt>
      <trkpt lat="44.2594" lon="5.87489">
        <ele>573</ele>
        <time>2019-08-02T08:02:06Z</time>
      </trkpt>
      <trkpt lat="44.25935" lon="5.87485">
        <ele>573</ele>
        <time>2019-08-02T08:02:07Z</time>
      </trkpt>
      <trkpt lat="44.2593" lon="5.87481">
        <ele>573</ele>
        <time>2019-08-02T08:02:08Z</time>
      </trkpt>
      <trkpt lat="44.25925" lon="5.87477">
        <ele>573</ele>
        <time>2019-08-02T08:02:09Z</time>
      </trkpt>
      <trkpt lat="44.25921" lon="5.87473">
        <ele>573</ele>
        <time>2019-08-02T08:02:10Z</time>
      </trkpt>
      <trkpt lat="44.25916" lon="5.87469">
        <ele>573</ele>
        <time>2019-08-02T08:02:11Z</time>
      </trkpt>
      <trkpt lat="44.25912" lon="5.87466">
        <ele>573</ele>
        <time>2019-08-02T08:02:12Z</time>
      </trkpt>
      <trkpt lat="44.25907" lon="5.87462">
        <ele>573</ele>
        <time>2019-08-02T08:02:13Z</time>
      </trkpt>
      <trkpt lat="44.25902" lon="5.87459">
        <ele>573</ele>
        <time>2019-08-02T08:02:14Z</time>
      </trkpt>
      <trkpt lat="44.25898" lon="5.87456">
        <ele>573</ele>
        <time>2019-08-02T08:02:15Z</time>
      </trkpt>
      <trkpt lat="44.25893" lon="5.87453">
        <ele>573</ele>
        <time>2019-08-02T08:02:16Z</time>
      </trkpt>
      <trkpt lat="44.25888" lon="5.87449">
        <ele>573</ele>
        <time>2019-08-02T08:02:17Z</time>
      </trkpt>
      <trkpt lat="44.25883" lon="5.87446">
        <ele>573</ele>
        <time>2019-08-02T08:02:18Z</time>
      </trkpt>
      <trkpt lat="44.25879" lon="5.87443">
        <ele>573</ele>
        <time>2019-08-02T08:02:19Z</time>
      </trkpt>
      <trkpt lat="44.25874" lon="5.8744">
        <ele>573</ele>
        <time>2019-08-02T08:02:20Z</time>
      </trkpt>
      <trkpt lat="44.25869" lon="5.87438">
        <ele>573</ele>
        <time>2019-08-02T08:02:21Z</time>
      </trkpt>
      <trkpt lat="44.25864" lon="5.87434">
        <ele>573</ele>
        <time>2019-08-02T08:02:22Z</time>
      </trkpt>
      <trkpt lat="44.2586" lon="5.87431">
        <ele>573</ele>
        <time>2019-08-02T08:02:23Z</time>
      </trkpt>
      <trkpt lat="44.25855" lon="5.87429">
        <ele>573</ele>
        <time>2019-08-02T08:02:24Z</time>
      </trkpt>
      <trkpt lat="44.25851" lon="5.87426">
        <ele>573</ele>
        <time>2019-08-02T08:02:25Z</time>
      </trkpt>
      <trkpt lat="44.25846" lon="5.87423">
        <ele>573</ele>
        <time>2019-08-02T08:02:26Z</time>
      </trkpt>
      <trkpt lat="44.25843" lon="5.8742">
        <ele>573</ele>
        <time>2019-08-02T08:02:27Z</time>
      </trkpt>
      <trkpt lat="44.25839" lon="5.87418">
        <ele>573</ele>
        <time>2019-08-02T08:02:28Z</time>
      </trkpt>
      <trkpt lat="44.25835" lon="5.87416">
        <ele>573</ele>
        <time>2019-08-02T08:02:29Z</time>
      </trkpt>
      <trkpt lat="44.25831" lon="5.87413">
        <ele>573</ele>
        <time>2019-08-02T08:02:30Z</time>
      </trkpt>
      <trkpt lat="44.25828" lon="5.87411">
        <ele>573</ele>
        <time>2019-08-02T08:02:31Z</time>
      </trkpt>
      <trkpt lat="44.25824" lon="5.87409">
        <ele>573</ele>
        <time>2019-08-02T08:02:32Z</time>
      </trkpt>
      <trkpt lat="44.25821" lon="5.87406">
        <ele>573</ele>
        <time>2019-08-02T08:02:33Z</time>
      </trkpt>
      <trkpt lat="44.25817" lon="5.87404">
        <ele>573</ele>
        <time>2019-08-02T08:02:34Z</time>
      </trkpt>
      <trkpt lat="44.25814" lon="5.87401">
        <ele>573</ele>
        <time>2019-08-02T08:02:35Z</time>
      </trkpt>
      <trkpt lat="44.25811" lon="5.87399">
        <ele>573</ele>
        <time>2019-08-02T08:02:36Z</time>
      </trkpt>
      <trkpt lat="44.25807" lon="5.87396">
        <ele>573</ele>
        <time>2019-08-02T08:02:37Z</time>
      </trkpt>
      <trkpt lat="44.25803" lon="5.87394">
        <ele>573</ele>
        <time>2019-08-02T08:02:38Z</time>
      </trkpt>
      <trkpt lat="44.258" lon="5.87391">
        <ele>573</ele>
        <time>2019-08-02T08:02:39Z</time>
      </trkpt>
      <trkpt lat="44.25796" lon="5.87388">
        <ele>573</ele>
        <time>2019-08-02T08:02:40Z</time>
      </trkpt>
      <trkpt lat="44.25793" lon="5.87385">
        <ele>573</ele>
        <time>2019-08-02T08:02:41Z</time>
      </trkpt>
      <trkpt lat="44.2579" lon="5.87382">
        <ele>573</ele>
        <time>2019-08-02T08:02:42Z</time>
      </trkpt>
      <trkpt lat="44.25787" lon="5.87379">
        <ele>573</ele>
        <time>2019-08-02T08:02:43Z</time>
      </trkpt>
      <trkpt lat="44.25783" lon="5.87376">
        <ele>573</ele>
        <time>2019-08-02T08:02:44Z</time>
      </trkpt>
      <trkpt lat="44.2578" lon="5.87373">
        <ele>573</ele>
        <time>2019-08-02T08:02:45Z</time>
      </trkpt>
      <trkpt lat="44.25776" lon="5.8737">
        <ele>573</ele>
        <time>2019-08-02T08:02:46Z</time>
      </trkpt>
      <trkpt lat="44.25772" lon="5.87366">
        <ele>573</ele>
        <time>2019-08-02T08:02:47Z</time>
      </trkpt>
      <trkpt lat="44.25768" lon="5.87363">
        <ele>573</ele>
        <time>2019-08-02T08:02:48Z</time>
      </trkpt>
      <trkpt lat="44.25764" lon="5.87359">
        <ele>574</ele>
        <time>2019-08-02T08:02:49Z</time>
      </trkpt>
      <trkpt lat="44.2576" lon="5.87356">
        <ele>574</ele>
        <time>2019-08-02T08:02:50Z</time>
      </trkpt>
      <trkpt lat="44.25755" lon="5.87352">
        <ele>574</ele>
        <time>2019-08-02T08:02:51Z</time>
      </trkpt>
      <trkpt lat="44.2575" lon="5.87347">
        <ele>575</ele>
        <time>2019-08-02T08:02:52Z</time>
      </trkpt>
      <trkpt lat="44.25745" lon="5.87343">
        <ele>575</ele>
        <time>2019-08-02T08:02:53Z</time>
      </trkpt>
      <trkpt lat="44.2574" lon="5.87338">
        <ele>575</ele>
        <time>2019-08-02T08:02:54Z</time>
      </trkpt>
      <trkpt lat="44.25734" lon="5.87332">
        <ele>575</ele>
        <time>2019-08-02T08:02:55Z</time>
      </trkpt>
      <trkpt lat="44.25728" lon="5.87327">
        <ele>575</ele>
        <time>2019-08-02T08:02:56Z</time>
      </trkpt>
      <trkpt lat="44.25722" lon="5.87321">
        <ele>576</ele>
        <time>2019-08-02T08:02:57Z</time>
      </trkpt>
      <trkpt lat="44.25716" lon="5.87316">
        <ele>576</ele>
        <time>2019-08-02T08:02:58Z</time>
      </trkpt>
      <trkpt lat="44.2571" lon="5.8731">
        <ele>576</ele>
        <time>2019-08-02T08:02:59Z</time>
      </trkpt>
      <trkpt lat="44.25703" lon="5.87304">
        <ele>577</ele>
        <time>2019-08-02T08:03:00Z</time>
      </trkpt>
      <trkpt lat="44.25697" lon="5.87298">
        <ele>577</ele>
        <time>2019-08-02T08:03:01Z</time>
      </trkpt>
      <trkpt lat="44.2569" lon="5.87293">
        <ele>577</ele>
        <time>2019-08-02T08:03:02Z</time>
      </trkpt>
      <trkpt lat="44.25683" lon="5.87288">
        <ele>577</ele>
        <time>2019-08-02T08:03:03Z</time>
      </trkpt>
      <trkpt lat="44.25677" lon="5.87284">
        <ele>577</ele>
        <time>2019-08-02T08:03:04Z</time>
      </trkpt>
      <trkpt lat="44.25671" lon="5.87279">
        <ele>577</ele>
        <time>2019-08-02T08:03:05Z</time>
      </trkpt>
      <trkpt lat="44.25665" lon="5.87275">
        <ele>577</ele>
        <time>2019-08-02T08:03:06Z</time>
      </trkpt>
      <trkpt lat="44.25659" lon="5.8727">
        <ele>577</ele>
        <time>2019-08-02T08:03:07Z</time>
      </trkpt>
      <trkpt lat="44.25654" lon="5.87266">
        <ele>577</ele>
        <time>2019-08-02T08:03:08Z</time>
      </trkpt>
      <trkpt lat="44.25648" lon="5.87261">
        <ele>577</ele>
        <time>2019-08-02T08:03:09Z</time>
      </trkpt>
      <trkpt lat="44.25642" lon="5.87257">
        <ele>577</ele>
        <time>2019-08-02T08:03:10Z</time>
      </trkpt>
      <trkpt lat="44.25637" lon="5.87252">
        <ele>577</ele>
        <time>2019-08-02T08:03:11Z</time>
      </trkpt>
      <trkpt lat="44.25632" lon="5.87248">
        <ele>577</ele>
        <time>2019-08-02T08:03:12Z</time>
      </trkpt>
      <trkpt lat="44.25628" lon="5.87244">
        <ele>577</ele>
        <time>2019-08-02T08:03:13Z</time>
      </trkpt>
      <trkpt lat="44.25623" lon="5.8724">
        <ele>577</ele>
        <time>2019-08-02T08:03:14Z</time>
      </trkpt>
      <trkpt lat="44.25618" lon="5.87236">
        <ele>577</ele>
        <time>2019-08-02T08:03:15Z</time>
      </trkpt>
      <trkpt lat="44.25614" lon="5.87233">
        <ele>577</ele>
        <time>2019-08-02T08:03:16Z</time>
      </trkpt>
      <trkpt lat="44.2561" lon="5.87229">
        <ele>577</ele>
        <time>2019-08-02T08:03:17Z</time>
      </trkpt>
      <trkpt lat="44.25605" lon="5.87226">
        <ele>577</ele>
        <time>2019-08-02T08:03:18Z</time>
      </trkpt>
      <trkpt lat="44.25601" lon="5.87223">
        <ele>577</ele>
        <time>2019-08-02T08:03:19Z</time>
      </trkpt>
      <trkpt lat="44.25596" lon="5.8722">
        <ele>577</ele>
        <time>2019-08-02T08:03:20Z</time>
      </trkpt>
      <trkpt lat="44.25591" lon="5.87218">
        <ele>577</ele>
        <time>2019-08-02T08:03:21Z</time>
      </trkpt>
      <trkpt lat="44.25586" lon="5.87218">
        <ele>576</ele>
        <time>2019-08-02T08:03:22Z</time>
      </trkpt>
      <trkpt lat="44.25581" lon="5.87219">
        <ele>576</ele>
        <time>2019-08-02T08:03:23Z</time>
      </trkpt>
      <trkpt lat="44.25575" lon="5.87222">
        <ele>576</ele>
        <time>2019-08-02T08:03:24Z</time>
      </trkpt>
      <trkpt lat="44.2557" lon="5.87226">
        <ele>576</ele>
        <time>2019-08-02T08:03:25Z</time>
      </trkpt>
      <trkpt lat="44.25566" lon="5.87231">
        <ele>576</ele>
        <time>2019-08-02T08:03:26Z</time>
      </trkpt>
      <trkpt lat="44.25562" lon="5.87238">
        <ele>576</ele>
        <time>2019-08-02T08:03:27Z</time>
      </trkpt>
      <trkpt lat="44.25558" lon="5.87244">
        <ele>576</ele>
        <time>2019-08-02T08:03:28Z</time>
      </trkpt>
      <trkpt lat="44.25554" lon="5.8725">
        <ele>576</ele>
        <time>2019-08-02T08:03:29Z</time>
      </trkpt>
      <trkpt lat="44.25549" lon="5.87257">
        <ele>576</ele>
        <time>2019-08-02T08:03:30Z</time>
      </trkpt>
      <trkpt lat="44.25545" lon="5.87264">
        <ele>576</ele>
        <time>2019-08-02T08:03:31Z</time>
      </trkpt>
      <trkpt lat="44.25541" lon="5.87271">
        <ele>575</ele>
        <time>2019-08-02T08:03:32Z</time>
      </trkpt>
      <trkpt lat="44.25536" lon="5.87278">
        <ele>575</ele>
        <time>2019-08-02T08:03:33Z</time>
      </trkpt>
      <trkpt lat="44.25531" lon="5.87285">
        <ele>575</ele>
        <time>2019-08-02T08:03:34Z</time>
      </trkpt>
      <trkpt lat="44.25526" lon="5.87293">
        <ele>574</ele>
        <time>2019-08-02T08:03:35Z</time>
      </trkpt>
      <trkpt lat="44.25522" lon="5.87301">
        <ele>574</ele>
        <time>2019-08-02T08:03:36Z</time>
      </trkpt>
      <trkpt lat="44.25517" lon="5.87309">
        <ele>573</ele>
        <time>2019-08-02T08:03:37Z</time>
      </trkpt>
      <trkpt lat="44.25512" lon="5.87317">
        <ele>573</ele>
        <time>2019-08-02T08:03:38Z</time>
      </trkpt>
      <trkpt lat="44.25507" lon="5.87324">
        <ele>573</ele>
        <time>2019-08-02T08:03:39Z</time>
      </trkpt>
      <trkpt lat="44.25502" lon="5.87332">
        <ele>572</ele>
        <time>2019-08-02T08:03:40Z</time>
      </trkpt>
      <trkpt lat="44.25497" lon="5.87341">
        <ele>572</ele>
        <time>2019-08-02T08:03:41Z</time>
      </trkpt>
      <trkpt lat="44.25493" lon="5.8735">
        <ele>572</ele>
        <time>2019-08-02T08:03:42Z</time>
      </trkpt>
      <trkpt lat="44.25489" lon="5.8736">
        <ele>571</ele>
        <time>2019-08-02T08:03:43Z</time>
      </trkpt>
      <trkpt lat="44.25484" lon="5.87369">
        <ele>571</ele>
        <time>2019-08-02T08:03:44Z</time>
      </trkpt>
      <trkpt lat="44.2548" lon="5.8738">
        <ele>570</ele>
        <time>2019-08-02T08:03:45Z</time>
      </trkpt>
      <trkpt lat="44.25476" lon="5.8739">
        <ele>570</ele>
        <time>2019-08-02T08:03:46Z</time>
      </trkpt>
      <trkpt lat="44.25471" lon="5.87401">
        <ele>569</ele>
        <time>2019-08-02T08:03:47Z</time>
      </trkpt>
      <trkpt lat="44.25467" lon="5.87411">
        <ele>569</ele>
        <time>2019-08-02T08:03:48Z</time>
      </trkpt>
      <trkpt lat="44.25462" lon="5.87422">
        <ele>569</ele>
        <time>2019-08-02T08:03:49Z</time>
      </trkpt>
      <trkpt lat="44.25458" lon="5.87432">
        <ele>569</ele>
        <time>2019-08-02T08:03:50Z</time>
      </trkpt>
      <trkpt lat="44.25453" lon="5.87441">
        <ele>569</ele>
        <time>2019-08-02T08:03:51Z</time>
      </trkpt>
      <trkpt lat="44.25447" lon="5.8745">
        <ele>568</ele>
        <time>2019-08-02T08:03:52Z</time>
      </trkpt>
      <trkpt lat="44.25441" lon="5.87458">
        <ele>568</ele>
        <time>2019-08-02T08:03:53Z</time>
      </trkpt>
      <trkpt lat="44.25436" lon="5.87465">
        <ele>568</ele>
        <time>2019-08-02T08:03:54Z</time>
      </trkpt>
      <trkpt lat="44.2543" lon="5.87473">
        <ele>568</ele>
        <time>2019-08-02T08:03:55Z</time>
      </trkpt>
      <trkpt lat="44.25425" lon="5.87481">
        <ele>568</ele>
        <time>2019-08-02T08:03:56Z</time>
      </trkpt>
      <trkpt lat="44.25421" lon="5.8749">
        <ele>568</ele>
        <time>2019-08-02T08:03:57Z</time>
      </trkpt>
      <trkpt lat="44.25417" lon="5.87499">
        <ele>568</ele>
        <time>2019-08-02T08:03:58Z</time>
      </trkpt>
      <trkpt lat="44.25413" lon="5.87507">
        <ele>568</ele>
        <time>2019-08-02T08:03:59Z</time>
      </trkpt>
      <trkpt lat="44.25409" lon="5.87515">
        <ele>568</ele>
        <time>2019-08-02T08:04:00Z</time>
      </trkpt>
      <trkpt lat="44.25406" lon="5.87524">
        <ele>568</ele>
        <time>2019-08-02T08:04:01Z</time>
      </trkpt>
      <trkpt lat="44.25403" lon="5.87532">
        <ele>568</ele>
        <time>2019-08-02T08:04:02Z</time>
      </trkpt>
      <trkpt lat="44.25399" lon="5.8754">
        <ele>568</ele>
        <time>2019-08-02T08:04:03Z</time>
      </trkpt>
      <trkpt lat="44.25396" lon="5.87548">
        <ele>568</ele>
        <time>2019-08-02T08:04:04Z</time>
      </trkpt>
      <trkpt lat="44.25393" lon="5.87556">
        <ele>568</ele>
        <time>2019-08-02T08:04:05Z</time>
      </trkpt>
      <trkpt lat="44.25389" lon="5.87564">
        <ele>567</ele>
        <time>2019-08-02T08:04:06Z</time>
      </trkpt>
      <trkpt lat="44.25386" lon="5.87571">
        <ele>567</ele>
        <time>2019-08-02T08:04:07Z</time>
      </trkpt>
      <trkpt lat="44.25383" lon="5.87579">
        <ele>567</ele>
        <time>2019-08-02T08:04:08Z</time>
      </trkpt>
      <trkpt lat="44.2538" lon="5.87586">
        <ele>567</ele>
        <time>2019-08-02T08:04:09Z</time>
      </trkpt>
      <trkpt lat="44.25378" lon="5.87594">
        <ele>567</ele>
        <time>2019-08-02T08:04:10Z</time>
      </trkpt>
      <trkpt lat="44.25377" lon="5.87602">
        <ele>567</ele>
        <time>2019-08-02T08:04:11Z</time>
      </trkpt>
      <trkpt lat="44.25375" lon="5.87609">
        <ele>567</ele>
        <time>2019-08-02T08:04:12Z</time>
      </trkpt>
      <trkpt lat="44.25374" lon="5.87616">
        <ele>567</ele>
        <time>2019-08-02T08:04:13Z</time>
      </trkpt>
      <trkpt lat="44.25372" lon="5.8762">
        <ele>566</ele>
        <time>2019-08-02T08:04:14Z</time>
      </trkpt>
      <trkpt lat="44.25368" lon="5.87622">
        <ele>566</ele>
        <time>2019-08-02T08:04:15Z</time>
      </trkpt>
      <trkpt lat="44.25365" lon="5.87621">
        <ele>566</ele>
        <time>2019-08-02T08:04:16Z</time>
      </trkpt>
      <trkpt lat="44.25363" lon="5.87619">
        <ele>566</ele>
        <time>2019-08-02T08:04:17Z</time>
      </trkpt>
      <trkpt lat="44.25361" lon="5.87617">
        <ele>566</ele>
        <time>2019-08-02T08:04:18Z</time>
      </trkpt>
      <trkpt lat="44.2536" lon="5.87615">
        <ele>566</ele>
        <time>2019-08-02T08:04:19Z</time>
      </trkpt>
      <trkpt lat="44.25358" lon="5.87613">
        <ele>566</ele>
        <time>2019-08-02T08:04:20Z</time>
      </trkpt>
      <trkpt lat="44.25357" lon="5.87611">
        <ele>566</ele>
        <time>2019-08-02T08:04:21Z</time>
      </trkpt>
      <trkpt lat="44.25356" lon="5.87608">
        <ele>566</ele>
        <time>2019-08-02T08:04:22Z</time>
      </trkpt>
      <trkpt lat="44.25356" lon="5.87606">
        <ele>566</ele>
        <time>2019-08-02T08:04:23Z</time>
      </trkpt>
      <trkpt lat="44.25356" lon="5.87604">
        <ele>566</ele>
        <time>2019-08-02T08:04:24Z</time>
      </trkpt>
      <trkpt lat="44.25355" lon="5.87602">
        <ele>566</ele>
        <time>2019-08-02T08:04:26Z</time>
      </trkpt>
      <trkpt lat="44.25356" lon="5.87602">
        <ele>566</ele>
        <time>2019-08-02T08:04:32Z</time>
      </trkpt>
      <trkpt lat="44.25356" lon="5.876">
        <ele>569</ele>
        <time>2019-08-02T08:04:41Z</time>
      </trkpt>
      <trkpt lat="44.25354" lon="5.87598">
        <ele>569</ele>
        <time>2019-08-02T08:04:42Z</time>
      </trkpt>
      <trkpt lat="44.25353" lon="5.87597">
        <ele>570</ele>
        <time>2019-08-02T08:04:43Z</time>
      </trkpt>
      <trkpt lat="44.25351" lon="5.87595">
        <ele>570</ele>
        <time>2019-08-02T08:04:44Z</time>
      </trkpt>
      <trkpt lat="44.25349" lon="5.87593">
        <ele>571</ele>
        <time>2019-08-02T08:04:45Z</time>
      </trkpt>
      <trkpt lat="44.25347" lon="5.8759">
        <ele>571</ele>
        <time>2019-08-02T08:04:46Z</time>
      </trkpt>
      <trkpt lat="44.25344" lon="5.87587">
        <ele>571</ele>
        <time>2019-08-02T08:04:47Z</time>
      </trkpt>
      <trkpt lat="44.25342" lon="5.87584">
        <ele>571</ele>
        <time>2019-08-02T08:04:48Z</time>
      </trkpt>
      <trkpt lat="44.25339" lon="5.87581">
        <ele>571</ele>
        <time>2019-08-02T08:04:49Z</time>
      </trkpt>
      <trkpt lat="44.25335" lon="5.87577">
        <ele>571</ele>
        <time>2019-08-02T08:04:50Z</time>
      </trkpt>
      <trkpt lat="44.25332" lon="5.87573">
        <ele>571</ele>
        <time>2019-08-02T08:04:51Z</time>
      </trkpt>
      <trkpt lat="44.25329" lon="5.87569">
        <ele>572</ele>
        <time>2019-08-02T08:04:52Z</time>
      </trkpt>
      <trkpt lat="44.25326" lon="5.87565">
        <ele>573</ele>
        <time>2019-08-02T08:04:53Z</time>
      </trkpt>
      <trkpt lat="44.25322" lon="5.87561">
        <ele>573</ele>
        <time>2019-08-02T08:04:54Z</time>
      </trkpt>
      <trkpt lat="44.25319" lon="5.87557">
        <ele>574</ele>
        <time>2019-08-02T08:04:55Z</time>
      </trkpt>
      <trkpt lat="44.25315" lon="5.87553">
        <ele>574</ele>
        <time>2019-08-02T08:04:56Z</time>
      </trkpt>
      <trkpt lat="44.25312" lon="5.87548">
        <ele>574</ele>
        <time>2019-08-02T08:04:57Z</time>
      </trkpt>
      <trkpt lat="44.25308" lon="5.87544">
        <ele>574</ele>
        <time>2019-08-02T08:04:58Z</time>
      </trkpt>
      <trkpt lat="44.25303" lon="5.87538">
        <ele>574</ele>
        <time>2019-08-02T08:04:59Z</time>
      </trkpt>
      <trkpt lat="44.25299" lon="5.87534">
        <ele>574</ele>
        <time>2019-08-02T08:05:00Z</time>
      </trkpt>
      <trkpt lat="44.25295" lon="5.8753">
        <ele>574</ele>
        <time>2019-08-02T08:05:01Z</time>
      </trkpt>
      <trkpt lat="44.25291" lon="5.87525">
        <ele>574</ele>
        <time>2019-08-02T08:05:02Z</time>
      </trkpt>
      <trkpt lat="44.25287" lon="5.87522">
        <ele>574</ele>
        <time>2019-08-02T08:05:03Z</time>
      </trkpt>
      <trkpt lat="44.25283" lon="5.87518">
        <ele>574</ele>
        <time>2019-08-02T08:05:04Z</time>
      </trkpt>
      <trkpt lat="44.25279" lon="5.87514">
        <ele>573</ele>
        <time>2019-08-02T08:05:05Z</time>
      </trkpt>
      <trkpt lat="44.25275" lon="5.87511">
        <ele>573</ele>
        <time>2019-08-02T08:05:06Z</time>
      </trkpt>
      <trkpt lat="44.25271" lon="5.87508">
        <ele>572</ele>
        <time>2019-08-02T08:05:07Z</time>
      </trkpt>
      <trkpt lat="44.25268" lon="5.87505">
        <ele>571</ele>
        <time>2019-08-02T08:05:08Z</time>
      </trkpt>
      <trkpt lat="44.25266" lon="5.87502">
        <ele>571</ele>
        <time>2019-08-02T08:05:09Z</time>
      </trkpt>
      <trkpt lat="44.25263" lon="5.87498">
        <ele>571</ele>
        <time>2019-08-02T08:05:10Z</time>
      </trkpt>
      <trkpt lat="44.2526" lon="5.87495">
        <ele>571</ele>
        <time>2019-08-02T08:05:11Z</time>
      </trkpt>
      <trkpt lat="44.25258" lon="5.87492">
        <ele>571</ele>
        <time>2019-08-02T08:05:12Z</time>
      </trkpt>
      <trkpt lat="44.25255" lon="5.8749">
        <ele>571</ele>
        <time>2019-08-02T08:05:13Z</time>
      </trkpt>
      <trkpt lat="44.25252" lon="5.87486">
        <ele>571</ele>
        <time>2019-08-02T08:05:14Z</time>
      </trkpt>
      <trkpt lat="44.25249" lon="5.87483">
        <ele>571</ele>
        <time>2019-08-02T08:05:15Z</time>
      </trkpt>
      <trkpt lat="44.25246" lon="5.8748">
        <ele>571</ele>
        <time>2019-08-02T08:05:16Z</time>
      </trkpt>
      <trkpt lat="44.25243" lon="5.87478">
        <ele>571</ele>
        <time>2019-08-02T08:05:17Z</time>
      </trkpt>
      <trkpt lat="44.25239" lon="5.87476">
        <ele>571</ele>
        <time>2019-08-02T08:05:18Z</time>
      </trkpt>
      <trkpt lat="44.25235" lon="5.87474">
        <ele>571</ele>
        <time>2019-08-02T08:05:19Z</time>
      </trkpt>
      <trkpt lat="44.25231" lon="5.87473">
        <ele>571</ele>
        <time>2019-08-02T08:05:20Z</time>
      </trkpt>
      <trkpt lat="44.25228" lon="5.87471">
        <ele>571</ele>
        <time>2019-08-02T08:05:21Z</time>
      </trkpt>
      <trkpt lat="44.25225" lon="5.87468">
        <ele>571</ele>
        <time>2019-08-02T08:05:22Z</time>
      </trkpt>
      <trkpt lat="44.25224" lon="5.87465">
        <ele>571</ele>
        <time>2019-08-02T08:05:23Z</time>
      </trkpt>
      <trkpt lat="44.25223" lon="5.87461">
        <ele>571</ele>
        <time>2019-08-02T08:05:24Z</time>
      </trkpt>
      <trkpt lat="44.25222" lon="5.87457">
        <ele>571</ele>
        <time>2019-08-02T08:05:25Z</time>
      </trkpt>
      <trkpt lat="44.2522" lon="5.87453">
        <ele>571</ele>
        <time>2019-08-02T08:05:26Z</time>
      </trkpt>
      <trkpt lat="44.25218" lon="5.8745">
        <ele>571</ele>
        <time>2019-08-02T08:05:27Z</time>
      </trkpt>
      <trkpt lat="44.25216" lon="5.87446">
        <ele>571</ele>
        <time>2019-08-02T08:05:28Z</time>
      </trkpt>
      <trkpt lat="44.25213" lon="5.87442">
        <ele>571</ele>
        <time>2019-08-02T08:05:29Z</time>
      </trkpt>
      <trkpt lat="44.25211" lon="5.87438">
        <ele>571</ele>
        <time>2019-08-02T08:05:30Z</time>
      </trkpt>
      <trkpt lat="44.25208" lon="5.87434">
        <ele>571</ele>
        <time>2019-08-02T08:05:31Z</time>
      </trkpt>
      <trkpt lat="44.25206" lon="5.87429">
        <ele>571</ele>
        <time>2019-08-02T08:05:32Z</time>
      </trkpt>
      <trkpt lat="44.25203" lon="5.87425">
        <ele>571</ele>
        <time>2019-08-02T08:05:33Z</time>
      </trkpt>
      <trkpt lat="44.25199" lon="5.87421">
        <ele>571</ele>
        <time>2019-08-02T08:05:34Z</time>
      </trkpt>
      <trkpt lat="44.25195" lon="5.87418">
        <ele>571</ele>
        <time>2019-08-02T08:05:35Z</time>
      </trkpt>
      <trkpt lat="44.25191" lon="5.87414">
        <ele>571</ele>
        <time>2019-08-02T08:05:36Z</time>
      </trkpt>
      <trkpt lat="44.25188" lon="5.8741">
        <ele>571</ele>
        <time>2019-08-02T08:05:37Z</time>
      </trkpt>
      <trkpt lat="44.25185" lon="5.87406">
        <ele>571</ele>
        <time>2019-08-02T08:05:38Z</time>
      </trkpt>
      <trkpt lat="44.25182" lon="5.87402">
        <ele>571</ele>
        <time>2019-08-02T08:05:39Z</time>
      </trkpt>
      <trkpt lat="44.25179" lon="5.87397">
        <ele>571</ele>
        <time>2019-08-02T08:05:40Z</time>
      </trkpt>
      <trkpt lat="44.25175" lon="5.87393">
        <ele>571</ele>
        <time>2019-08-02T08:05:41Z</time>
      </trkpt>
      <trkpt lat="44.25172" lon="5.87389">
        <ele>571</ele>
        <time>2019-08-02T08:05:42Z</time>
      </trkpt>
      <trkpt lat="44.25168" lon="5.87385">
        <ele>572</ele>
        <time>2019-08-02T08:05:43Z</time>
      </trkpt>
      <trkpt lat="44.25165" lon="5.87382">
        <ele>572</ele>
        <time>2019-08-02T08:05:44Z</time>
      </trkpt>
      <trkpt lat="44.25162" lon="5.87379">
        <ele>572</ele>
        <time>2019-08-02T08:05:45Z</time>
      </trkpt>
      <trkpt lat="44.25159" lon="5.87375">
        <ele>572</ele>
        <time>2019-08-02T08:05:46Z</time>
      </trkpt>
      <trkpt lat="44.25157" lon="5.87371">
        <ele>572</ele>
        <time>2019-08-02T08:05:47Z</time>
      </trkpt>
      <trkpt lat="44.25154" lon="5.87368">
        <ele>572</ele>
        <time>2019-08-02T08:05:48Z</time>
      </trkpt>
      <trkpt lat="44.25151" lon="5.87365">
        <ele>572</ele>
        <time>2019-08-02T08:05:49Z</time>
      </trkpt>
      <trkpt lat="44.25148" lon="5.87362">
        <ele>573</ele>
        <time>2019-08-02T08:05:50Z</time>
      </trkpt>
      <trkpt lat="44.25145" lon="5.87359">
        <ele>573</ele>
        <time>2019-08-02T08:05:51Z</time>
      </trkpt>
      <trkpt lat="44.25143" lon="5.87355">
        <ele>573</ele>
        <time>2019-08-02T08:05:52Z</time>
      </trkpt>
      <trkpt lat="44.2514" lon="5.87352">
        <ele>573</ele>
        <time>2019-08-02T08:05:53Z</time>
      </trkpt>
      <trkpt lat="44.25137" lon="5.87348">
        <ele>574</ele>
        <time>2019-08-02T08:05:54Z</time>
      </trkpt>
      <trkpt lat="44.25134" lon="5.87345">
        <ele>574</ele>
        <time>2019-08-02T08:05:55Z</time>
      </trkpt>
      <trkpt lat="44.25131" lon="5.87341">
        <ele>574</ele>
        <time>2019-08-02T08:05:56Z</time>
      </trkpt>
      <trkpt lat="44.25128" lon="5.87338">
        <ele>574</ele>
        <time>2019-08-02T08:05:57Z</time>
      </trkpt>
      <trkpt lat="44.25125" lon="5.87335">
        <ele>574</ele>
        <time>2019-08-02T08:05:58Z</time>
      </trkpt>
      <trkpt lat="44.25122" lon="5.87331">
        <ele>574</ele>
        <time>2019-08-02T08:05:59Z</time>
      </trkpt>
      <trkpt lat="44.25119" lon="5.87328">
        <ele>574</ele>
        <time>2019-08-02T08:06:00Z</time>
      </trkpt>
      <trkpt lat="44.25116" lon="5.87324">
        <ele>574</ele>
        <time>2019-08-02T08:06:01Z</time>
      </trkpt>
      <trkpt lat="44.25114" lon="5.8732">
        <ele>574</ele>
        <time>2019-08-02T08:06:02Z</time>
      </trkpt>
      <trkpt lat="44.25111" lon="5.87315">
        <ele>574</ele>
        <time>2019-08-02T08:06:03Z</time>
      </trkpt>
      <trkpt lat="44.25108" lon="5.87311">
        <ele>575</ele>
        <time>2019-08-02T08:06:04Z</time>
      </trkpt>
      <trkpt lat="44.25105" lon="5.87306">
        <ele>575</ele>
        <time>2019-08-02T08:06:05Z</time>
      </trkpt>
      <trkpt lat="44.25103" lon="5.87301">
        <ele>575</ele>
        <time>2019-08-02T08:06:06Z</time>
      </trkpt>
      <trkpt lat="44.251" lon="5.87296">
        <ele>575</ele>
        <time>2019-08-02T08:06:07Z</time>
      </trkpt>
      <trkpt lat="44.25098" lon="5.87291">
        <ele>575</ele>
        <time>2019-08-02T08:06:08Z</time>
      </trkpt>
      <trkpt lat="44.25095" lon="5.87286">
        <ele>575</ele>
        <time>2019-08-02T08:06:09Z</time>
      </trkpt>
      <trkpt lat="44.25092" lon="5.87281">
        <ele>575</ele>
        <time>2019-08-02T08:06:10Z</time>
      </trkpt>
      <trkpt lat="44.25089" lon="5.87276">
        <ele>575</ele>
        <time>2019-08-02T08:06:11Z</time>
      </trkpt>
      <trkpt lat="44.25086" lon="5.8727">
        <ele>575</ele>
        <time>2019-08-02T08:06:12Z</time>
      </trkpt>
      <trkpt lat="44.25084" lon="5.87265">
        <ele>575</ele>
        <time>2019-08-02T08:06:13Z</time>
      </trkpt>
      <trkpt lat="44.25081" lon="5.8726">
        <ele>575</ele>
        <time>2019-08-02T08:06:14Z</time>
      </trkpt>
      <trkpt lat="44.25078" lon="5.87254">
        <ele>575</ele>
        <time>2019-08-02T08:06:15Z</time>
      </trkpt>
      <trkpt lat="44.25075" lon="5.87249">
        <ele>575</ele>
        <time>2019-08-02T08:06:16Z</time>
      </trkpt>
      <trkpt lat="44.25072" lon="5.87244">
        <ele>575</ele>
        <time>2019-08-02T08:06:17Z</time>
      </trkpt>
      <trkpt lat="44.2507" lon="5.8724">
        <ele>575</ele>
        <time>2019-08-02T08:06:18Z</time>
      </trkpt>
      <trkpt lat="44.25067" lon="5.87234">
        <ele>575</ele>
        <time>2019-08-02T08:06:19Z</time>
      </trkpt>
      <trkpt lat="44.25064" lon="5.87229">
        <ele>575</ele>
        <time>2019-08-02T08:06:20Z</time>
      </trkpt>
      <trkpt lat="44.25061" lon="5.87223">
        <ele>575</ele>
        <time>2019-08-02T08:06:21Z</time>
      </trkpt>
      <trkpt lat="44.25058" lon="5.87218">
        <ele>575</ele>
        <time>2019-08-02T08:06:22Z</time>
      </trkpt>
      <trkpt lat="44.25055" lon="5.87213">
        <ele>575</ele>
        <time>2019-08-02T08:06:23Z</time>
      </trkpt>
      <trkpt lat="44.25052" lon="5.87207">
        <ele>575</ele>
        <time>2019-08-02T08:06:24Z</time>
      </trkpt>
      <trkpt lat="44.25049" lon="5.87201">
        <ele>575</ele>
        <time>2019-08-02T08:06:25Z</time>
      </trkpt>
      <trkpt lat="44.25045" lon="5.87195">
        <ele>575</ele>
        <time>2019-08-02T08:06:26Z</time>
      </trkpt>
      <trkpt lat="44.25042" lon="5.87188">
        <ele>575</ele>
        <time>2019-08-02T08:06:27Z</time>
      </trkpt>
      <trkpt lat="44.25038" lon="5.87181">
        <ele>575</ele>
        <time>2019-08-02T08:06:28Z</time>
      </trkpt>
      <trkpt lat="44.25034" lon="5.87175">
        <ele>575</ele>
        <time>2019-08-02T08:06:29Z</time>
      </trkpt>
      <trkpt lat="44.25031" lon="5.87167">
        <ele>575</ele>
        <time>2019-08-02T08:06:30Z</time>
      </trkpt>
      <trkpt lat="44.25027" lon="5.8716">
        <ele>575</ele>
        <time>2019-08-02T08:06:31Z</time>
      </trkpt>
      <trkpt lat="44.25023" lon="5.87153">
        <ele>575</ele>
        <time>2019-08-02T08:06:32Z</time>
      </trkpt>
      <trkpt lat="44.25019" lon="5.87145">
        <ele>575</ele>
        <time>2019-08-02T08:06:33Z</time>
      </trkpt>
      <trkpt lat="44.25014" lon="5.87137">
        <ele>575</ele>
        <time>2019-08-02T08:06:34Z</time>
      </trkpt>
      <trkpt lat="44.2501" lon="5.87128">
        <ele>574</ele>
        <time>2019-08-02T08:06:35Z</time>
      </trkpt>
      <trkpt lat="44.25005" lon="5.8712">
        <ele>574</ele>
        <time>2019-08-02T08:06:36Z</time>
      </trkpt>
      <trkpt lat="44.25" lon="5.87111">
        <ele>574</ele>
        <time>2019-08-02T08:06:37Z</time>
      </trkpt>
      <trkpt lat="44.24994" lon="5.87103">
        <ele>573</ele>
        <time>2019-08-02T08:06:38Z</time>
      </trkpt>
      <trkpt lat="44.24987" lon="5.87096">
        <ele>572</ele>
        <time>2019-08-02T08:06:39Z</time>
      </trkpt>
      <trkpt lat="44.24979" lon="5.8709">
        <ele>572</ele>
        <time>2019-08-02T08:06:40Z</time>
      </trkpt>
      <trkpt lat="44.24971" lon="5.87087">
        <ele>572</ele>
        <time>2019-08-02T08:06:41Z</time>
      </trkpt>
      <trkpt lat="44.24963" lon="5.87084">
        <ele>571</ele>
        <time>2019-08-02T08:06:42Z</time>
      </trkpt>
      <trkpt lat="44.24955" lon="5.87082">
        <ele>571</ele>
        <time>2019-08-02T08:06:43Z</time>
      </trkpt>
      <trkpt lat="44.24947" lon="5.8708">
        <ele>571</ele>
        <time>2019-08-02T08:06:44Z</time>
      </trkpt>
      <trkpt lat="44.2494" lon="5.87079">
        <ele>571</ele>
        <time>2019-08-02T08:06:45Z</time>
      </trkpt>
      <trkpt lat="44.24932" lon="5.87078">
        <ele>571</ele>
        <time>2019-08-02T08:06:46Z</time>
      </trkpt>
      <trkpt lat="44.24925" lon="5.87076">
        <ele>571</ele>
        <time>2019-08-02T08:06:47Z</time>
      </trkpt>
      <trkpt lat="44.24919" lon="5.87075">
        <ele>571</ele>
        <time>2019-08-02T08:06:48Z</time>
      </trkpt>
      <trkpt lat="44.24911" lon="5.87072">
        <ele>571</ele>
        <time>2019-08-02T08:06:49Z</time>
      </trkpt>
      <trkpt lat="44.24905" lon="5.87069">
        <ele>571</ele>
        <time>2019-08-02T08:06:50Z</time>
      </trkpt>
      <trkpt lat="44.24898" lon="5.87067">
        <ele>570</ele>
        <time>2019-08-02T08:06:51Z</time>
      </trkpt>
      <trkpt lat="44.24892" lon="5.87064">
        <ele>570</ele>
        <time>2019-08-02T08:06:52Z</time>
      </trkpt>
      <trkpt lat="44.24886" lon="5.8706">
        <ele>570</ele>
        <time>2019-08-02T08:06:53Z</time>
      </trkpt>
      <trkpt lat="44.24879" lon="5.87057">
        <ele>570</ele>
        <time>2019-08-02T08:06:54Z</time>
      </trkpt>
      <trkpt lat="44.24873" lon="5.87053">
        <ele>570</ele>
        <time>2019-08-02T08:06:55Z</time>
      </trkpt>
      <trkpt lat="44.24866" lon="5.8705">
        <ele>569</ele>
        <time>2019-08-02T08:06:56Z</time>
      </trkpt>
      <trkpt lat="44.2486" lon="5.87046">
        <ele>569</ele>
        <time>2019-08-02T08:06:57Z</time>
      </trkpt>
      <trkpt lat="44.24854" lon="5.87043">
        <ele>568</ele>
        <time>2019-08-02T08:06:58Z</time>
      </trkpt>
      <trkpt lat="44.24848" lon="5.8704">
        <ele>568</ele>
        <time>2019-08-02T08:06:59Z</time>
      </trkpt>
      <trkpt lat="44.24842" lon="5.87037">
        <ele>568</ele>
        <time>2019-08-02T08:07:00Z</time>
      </trkpt>
      <trkpt lat="44.24837" lon="5.87034">
        <ele>568</ele>
        <time>2019-08-02T08:07:01Z</time>
      </trkpt>
      <trkpt lat="44.24831" lon="5.87031">
        <ele>568</ele>
        <time>2019-08-02T08:07:02Z</time>
      </trkpt>
      <trkpt lat="44.24825" lon="5.87028">
        <ele>568</ele>
        <time>2019-08-02T08:07:03Z</time>
      </trkpt>
      <trkpt lat="44.24819" lon="5.87024">
        <ele>568</ele>
        <time>2019-08-02T08:07:04Z</time>
      </trkpt>
      <trkpt lat="44.24813" lon="5.8702">
        <ele>568</ele>
        <time>2019-08-02T08:07:05Z</time>
      </trkpt>
      <trkpt lat="44.24807" lon="5.87017">
        <ele>568</ele>
        <time>2019-08-02T08:07:06Z</time>
      </trkpt>
      <trkpt lat="44.24801" lon="5.87014">
        <ele>568</ele>
        <time>2019-08-02T08:07:07Z</time>
      </trkpt>
      <trkpt lat="44.24795" lon="5.87011">
        <ele>568</ele>
        <time>2019-08-02T08:07:08Z</time>
      </trkpt>
      <trkpt lat="44.24789" lon="5.87008">
        <ele>568</ele>
        <time>2019-08-02T08:07:09Z</time>
      </trkpt>
      <trkpt lat="44.24783" lon="5.87005">
        <ele>567</ele>
        <time>2019-08-02T08:07:10Z</time>
      </trkpt>
      <trkpt lat="44.24777" lon="5.87003">
        <ele>567</ele>
        <time>2019-08-02T08:07:11Z</time>
      </trkpt>
      <trkpt lat="44.24771" lon="5.87001">
        <ele>567</ele>
        <time>2019-08-02T08:07:12Z</time>
      </trkpt>
      <trkpt lat="44.24765" lon="5.86999">
        <ele>567</ele>
        <time>2019-08-02T08:07:13Z</time>
      </trkpt>
      <trkpt lat="44.24759" lon="5.86998">
        <ele>567</ele>
        <time>2019-08-02T08:07:14Z</time>
      </trkpt>
      <trkpt lat="44.24754" lon="5.86998">
        <ele>567</ele>
        <time>2019-08-02T08:07:15Z</time>
      </trkpt>
      <trkpt lat="44.24748" lon="5.86999">
        <ele>567</ele>
        <time>2019-08-02T08:07:16Z</time>
      </trkpt>
      <trkpt lat="44.24742" lon="5.86999">
        <ele>567</ele>
        <time>2019-08-02T08:07:17Z</time>
      </trkpt>
      <trkpt lat="44.24737" lon="5.87">
        <ele>567</ele>
        <time>2019-08-02T08:07:18Z</time>
      </trkpt>
      <trkpt lat="44.24731" lon="5.87002">
        <ele>567</ele>
        <time>2019-08-02T08:07:19Z</time>
      </trkpt>
      <trkpt lat="44.24726" lon="5.87003">
        <ele>567</ele>
        <time>2019-08-02T08:07:20Z</time>
      </trkpt>
      <trkpt lat="44.2472" lon="5.87005">
        <ele>567</ele>
        <time>2019-08-02T08:07:21Z</time>
      </trkpt>
      <trkpt lat="44.24715" lon="5.87007">
        <ele>567</ele>
        <time>2019-08-02T08:07:22Z</time>
      </trkpt>
      <trkpt lat="44.24709" lon="5.87008">
        <ele>567</ele>
        <time>2019-08-02T08:07:23Z</time>
      </trkpt>
      <trkpt lat="44.24704" lon="5.8701">
        <ele>567</ele>
        <time>2019-08-02T08:07:24Z</time>
      </trkpt>
      <trkpt lat="44.24698" lon="5.87012">
        <ele>567</ele>
        <time>2019-08-02T08:07:25Z</time>
      </trkpt>
      <trkpt lat="44.24692" lon="5.87013">
        <ele>567</ele>
        <time>2019-08-02T08:07:26Z</time>
      </trkpt>
      <trkpt lat="44.24686" lon="5.87013">
        <ele>567</ele>
        <time>2019-08-02T08:07:27Z</time>
      </trkpt>
      <trkpt lat="44.24679" lon="5.87012">
        <ele>567</ele>
        <time>2019-08-02T08:07:28Z</time>
      </trkpt>
      <trkpt lat="44.24673" lon="5.8701">
        <ele>567</ele>
        <time>2019-08-02T08:07:29Z</time>
      </trkpt>
      <trkpt lat="44.24667" lon="5.87006">
        <ele>567</ele>
        <time>2019-08-02T08:07:30Z</time>
      </trkpt>
      <trkpt lat="44.24662" lon="5.87002">
        <ele>567</ele>
        <time>2019-08-02T08:07:31Z</time>
      </trkpt>
      <trkpt lat="44.24657" lon="5.86997">
        <ele>567</ele>
        <time>2019-08-02T08:07:32Z</time>
      </trkpt>
      <trkpt lat="44.24652" lon="5.86992">
        <ele>567</ele>
        <time>2019-08-02T08:07:33Z</time>
      </trkpt>
      <trkpt lat="44.24648" lon="5.86986">
        <ele>567</ele>
        <time>2019-08-02T08:07:34Z</time>
      </trkpt>
      <trkpt lat="44.24643" lon="5.8698">
        <ele>567</ele>
        <time>2019-08-02T08:07:35Z</time>
      </trkpt>
      <trkpt lat="44.24639" lon="5.86975">
        <ele>567</ele>
        <time>2019-08-02T08:07:36Z</time>
      </trkpt>
      <trkpt lat="44.24634" lon="5.86969">
        <ele>567</ele>
        <time>2019-08-02T08:07:37Z</time>
      </trkpt>
      <trkpt lat="44.2463" lon="5.86962">
        <ele>567</ele>
        <time>2019-08-02T08:07:38Z</time>
      </trkpt>
      <trkpt lat="44.24626" lon="5.86957">
        <ele>567</ele>
        <time>2019-08-02T08:07:39Z</time>
      </trkpt>
      <trkpt lat="44.24621" lon="5.86951">
        <ele>567</ele>
        <time>2019-08-02T08:07:40Z</time>
      </trkpt>
      <trkpt lat="44.24616" lon="5.86946">
        <ele>567</ele>
        <time>2019-08-02T08:07:41Z</time>
      </trkpt>
      <trkpt lat="44.2461" lon="5.86942">
        <ele>567</ele>
        <time>2019-08-02T08:07:42Z</time>
      </trkpt>
      <trkpt lat="44.24605" lon="5.86938">
        <ele>567</ele>
        <time>2019-08-02T08:07:43Z</time>
      </trkpt>
      <trkpt lat="44.24599" lon="5.86936">
        <ele>567</ele>
        <time>2019-08-02T08:07:44Z</time>
      </trkpt>
      <trkpt lat="44.24592" lon="5.86934">
        <ele>567</ele>
        <time>2019-08-02T08:07:45Z</time>
      </trkpt>
      <trkpt lat="44.24586" lon="5.86934">
        <ele>567</ele>
        <time>2019-08-02T08:07:46Z</time>
      </trkpt>
      <trkpt lat="44.24579" lon="5.86933">
        <ele>567</ele>
        <time>2019-08-02T08:07:47Z</time>
      </trkpt>
      <trkpt lat="44.24571" lon="5.86934">
        <ele>567</ele>
        <time>2019-08-02T08:07:48Z</time>
      </trkpt>
      <trkpt lat="44.24564" lon="5.86936">
        <ele>567</ele>
        <time>2019-08-02T08:07:49Z</time>
      </trkpt>
      <trkpt lat="44.24556" lon="5.86938">
        <ele>567</ele>
        <time>2019-08-02T08:07:50Z</time>
      </trkpt>
      <trkpt lat="44.24548" lon="5.86942">
        <ele>567</ele>
        <time>2019-08-02T08:07:51Z</time>
      </trkpt>
      <trkpt lat="44.24539" lon="5.86947">
        <ele>567</ele>
        <time>2019-08-02T08:07:52Z</time>
      </trkpt>
      <trkpt lat="44.24531" lon="5.86951">
        <ele>567</ele>
        <time>2019-08-02T08:07:53Z</time>
      </trkpt>
      <trkpt lat="44.24522" lon="5.86955">
        <ele>567</ele>
        <time>2019-08-02T08:07:54Z</time>
      </trkpt>
      <trkpt lat="44.24514" lon="5.86959">
        <ele>567</ele>
        <time>2019-08-02T08:07:55Z</time>
      </trkpt>
      <trkpt lat="44.24505" lon="5.86963">
        <ele>566</ele>
        <time>2019-08-02T08:07:56Z</time>
      </trkpt>
      <trkpt lat="44.24496" lon="5.86965">
        <ele>565</ele>
        <time>2019-08-02T08:07:57Z</time>
      </trkpt>
      <trkpt lat="44.24487" lon="5.86965">
        <ele>564</ele>
        <time>2019-08-02T08:07:58Z</time>
      </trkpt>
      <trkpt lat="44.24477" lon="5.86964">
        <ele>563</ele>
        <time>2019-08-02T08:07:59Z</time>
      </trkpt>
      <trkpt lat="44.24467" lon="5.86961">
        <ele>562</ele>
        <time>2019-08-02T08:08:00Z</time>
      </trkpt>
      <trkpt lat="44.24457" lon="5.86959">
        <ele>561</ele>
        <time>2019-08-02T08:08:01Z</time>
      </trkpt>
      <trkpt lat="44.24446" lon="5.86957">
        <ele>560</ele>
        <time>2019-08-02T08:08:02Z</time>
      </trkpt>
      <trkpt lat="44.24436" lon="5.86956">
        <ele>559</ele>
        <time>2019-08-02T08:08:03Z</time>
      </trkpt>
      <trkpt lat="44.24425" lon="5.86955">
        <ele>558</ele>
        <time>2019-08-02T08:08:04Z</time>
      </trkpt>
      <trkpt lat="44.24414" lon="5.86954">
        <ele>558</ele>
        <time>2019-08-02T08:08:05Z</time>
      </trkpt>
      <trkpt lat="44.24404" lon="5.86953">
        <ele>557</ele>
        <time>2019-08-02T08:08:06Z</time>
      </trkpt>
      <trkpt lat="44.24394" lon="5.86951">
        <ele>557</ele>
        <time>2019-08-02T08:08:07Z</time>
      </trkpt>
      <trkpt lat="44.24384" lon="5.86948">
        <ele>556</ele>
        <time>2019-08-02T08:08:08Z</time>
      </trkpt>
      <trkpt lat="44.24374" lon="5.86945">
        <ele>556</ele>
        <time>2019-08-02T08:08:09Z</time>
      </trkpt>
      <trkpt lat="44.24364" lon="5.86942">
        <ele>555</ele>
        <time>2019-08-02T08:08:10Z</time>
      </trkpt>
      <trkpt lat="44.24353" lon="5.86939">
        <ele>554</ele>
        <time>2019-08-02T08:08:11Z</time>
      </trkpt>
      <trkpt lat="44.24344" lon="5.86935">
        <ele>554</ele>
        <time>2019-08-02T08:08:12Z</time>
      </trkpt>
      <trkpt lat="44.24334" lon="5.86932">
        <ele>553</ele>
        <time>2019-08-02T08:08:13Z</time>
      </trkpt>
      <trkpt lat="44.24324" lon="5.86928">
        <ele>552</ele>
        <time>2019-08-02T08:08:14Z</time>
      </trkpt>
      <trkpt lat="44.24314" lon="5.86924">
        <ele>552</ele>
        <time>2019-08-02T08:08:15Z</time>
      </trkpt>
      <trkpt lat="44.24304" lon="5.8692">
        <ele>551</ele>
        <time>2019-08-02T08:08:16Z</time>
      </trkpt>
      <trkpt lat="44.24294" lon="5.86916">
        <ele>551</ele>
        <time>2019-08-02T08:08:17Z</time>
      </trkpt>
      <trkpt lat="44.24284" lon="5.86911">
        <ele>551</ele>
        <time>2019-08-02T08:08:18Z</time>
      </trkpt>
      <trkpt lat="44.24273" lon="5.86906">
        <ele>551</ele>
        <time>2019-08-02T08:08:19Z</time>
      </trkpt>
      <trkpt lat="44.24263" lon="5.86901">
        <ele>551</ele>
        <time>2019-08-02T08:08:20Z</time>
      </trkpt>
      <trkpt lat="44.24253" lon="5.86894">
        <ele>551</ele>
        <time>2019-08-02T08:08:21Z</time>
      </trkpt>
      <trkpt lat="44.24243" lon="5.86886">
        <ele>551</ele>
        <time>2019-08-02T08:08:22Z</time>
      </trkpt>
      <trkpt lat="44.24234" lon="5.86878">
        <ele>551</ele>
        <time>2019-08-02T08:08:23Z</time>
      </trkpt>
      <trkpt lat="44.24225" lon="5.8687">
        <ele>551</ele>
        <time>2019-08-02T08:08:24Z</time>
      </trkpt>
      <trkpt lat="44.24217" lon="5.86862">
        <ele>551</ele>
        <time>2019-08-02T08:08:25Z</time>
      </trkpt>
      <trkpt lat="44.24208" lon="5.86854">
        <ele>551</ele>
        <time>2019-08-02T08:08:26Z</time>
      </trkpt>
      <trkpt lat="44.242" lon="5.86847">
        <ele>550</ele>
        <time>2019-08-02T08:08:27Z</time>
      </trkpt>
      <trkpt lat="44.24192" lon="5.8684">
        <ele>550</ele>
        <time>2019-08-02T08:08:28Z</time>
      </trkpt>
      <trkpt lat="44.24185" lon="5.86832">
        <ele>549</ele>
        <time>2019-08-02T08:08:29Z</time>
      </trkpt>
      <trkpt lat="44.24178" lon="5.86825">
        <ele>548</ele>
        <time>2019-08-02T08:08:30Z</time>
      </trkpt>
      <trkpt lat="44.24172" lon="5.86817">
        <ele>548</ele>
        <time>2019-08-02T08:08:31Z</time>
      </trkpt>
      <trkpt lat="44.24167" lon="5.86808">
        <ele>547</ele>
        <time>2019-08-02T08:08:32Z</time>
      </trkpt>
      <trkpt lat="44.24164" lon="5.86799">
        <ele>546</ele>
        <time>2019-08-02T08:08:33Z</time>
      </trkpt>
      <trkpt lat="44.24162" lon="5.86789">
        <ele>545</ele>
        <time>2019-08-02T08:08:34Z</time>
      </trkpt>
      <trkpt lat="44.24161" lon="5.86777">
        <ele>544</ele>
        <time>2019-08-02T08:08:35Z</time>
      </trkpt>
      <trkpt lat="44.24162" lon="5.86766">
        <ele>543</ele>
        <time>2019-08-02T08:08:36Z</time>
      </trkpt>
      <trkpt lat="44.24163" lon="5.86754">
        <ele>542</ele>
        <time>2019-08-02T08:08:37Z</time>
      </trkpt>
      <trkpt lat="44.24166" lon="5.86743">
        <ele>541</ele>
        <time>2019-08-02T08:08:38Z</time>
      </trkpt>
      <trkpt lat="44.24169" lon="5.86731">
        <ele>540</ele>
        <time>2019-08-02T08:08:39Z</time>
      </trkpt>
      <trkpt lat="44.24172" lon="5.8672">
        <ele>539</ele>
        <time>2019-08-02T08:08:40Z</time>
      </trkpt>
      <trkpt lat="44.24173" lon="5.86709">
        <ele>538</ele>
        <time>2019-08-02T08:08:41Z</time>
      </trkpt>
      <trkpt lat="44.24174" lon="5.86698">
        <ele>537</ele>
        <time>2019-08-02T08:08:42Z</time>
      </trkpt>
      <trkpt lat="44.24175" lon="5.86689">
        <ele>536</ele>
        <time>2019-08-02T08:08:43Z</time>
      </trkpt>
      <trkpt lat="44.24176" lon="5.86679">
        <ele>535</ele>
        <time>2019-08-02T08:08:44Z</time>
      </trkpt>
      <trkpt lat="44.24176" lon="5.86668">
        <ele>534</ele>
        <time>2019-08-02T08:08:45Z</time>
      </trkpt>
      <trkpt lat="44.24175" lon="5.86659">
        <ele>533</ele>
        <time>2019-08-02T08:08:46Z</time>
      </trkpt>
      <trkpt lat="44.24173" lon="5.8665">
        <ele>533</ele>
        <time>2019-08-02T08:08:47Z</time>
      </trkpt>
      <trkpt lat="44.24169" lon="5.86641">
        <ele>532</ele>
        <time>2019-08-02T08:08:48Z</time>
      </trkpt>
      <trkpt lat="44.24162" lon="5.86635">
        <ele>531</ele>
        <time>2019-08-02T08:08:49Z</time>
      </trkpt>
      <trkpt lat="44.24154" lon="5.86633">
        <ele>531</ele>
        <time>2019-08-02T08:08:50Z</time>
      </trkpt>
      <trkpt lat="44.24146" lon="5.86634">
        <ele>530</ele>
        <time>2019-08-02T08:08:51Z</time>
      </trkpt>
      <trkpt lat="44.24137" lon="5.86637">
        <ele>530</ele>
        <time>2019-08-02T08:08:52Z</time>
      </trkpt>
      <trkpt lat="44.2413" lon="5.86641">
        <ele>530</ele>
        <time>2019-08-02T08:08:53Z</time>
      </trkpt>
      <trkpt lat="44.24122" lon="5.86645">
        <ele>529</ele>
        <time>2019-08-02T08:08:54Z</time>
      </trkpt>
      <trkpt lat="44.24115" lon="5.86649">
        <ele>529</ele>
        <time>2019-08-02T08:08:55Z</time>
      </trkpt>
      <trkpt lat="44.24107" lon="5.86653">
        <ele>529</ele>
        <time>2019-08-02T08:08:56Z</time>
      </trkpt>
      <trkpt lat="44.241" lon="5.86658">
        <ele>528</ele>
        <time>2019-08-02T08:08:57Z</time>
      </trkpt>
      <trkpt lat="44.24092" lon="5.86663">
        <ele>527</ele>
        <time>2019-08-02T08:08:58Z</time>
      </trkpt>
      <trkpt lat="44.24084" lon="5.86668">
        <ele>527</ele>
        <time>2019-08-02T08:08:59Z</time>
      </trkpt>
      <trkpt lat="44.24076" lon="5.86673">
        <ele>526</ele>
        <time>2019-08-02T08:09:00Z</time>
      </trkpt>
      <trkpt lat="44.24068" lon="5.86678">
        <ele>526</ele>
        <time>2019-08-02T08:09:01Z</time>
      </trkpt>
      <trkpt lat="44.24059" lon="5.86683">
        <ele>525</ele>
        <time>2019-08-02T08:09:02Z</time>
      </trkpt>
      <trkpt lat="44.24051" lon="5.86689">
        <ele>525</ele>
        <time>2019-08-02T08:09:03Z</time>
      </trkpt>
      <trkpt lat="44.24043" lon="5.86695">
        <ele>524</ele>
        <time>2019-08-02T08:09:04Z</time>
      </trkpt>
      <trkpt lat="44.24034" lon="5.86699">
        <ele>523</ele>
        <time>2019-08-02T08:09:05Z</time>
      </trkpt>
      <trkpt lat="44.24024" lon="5.86702">
        <ele>522</ele>
        <time>2019-08-02T08:09:07Z</time>
      </trkpt>
      <trkpt lat="44.24015" lon="5.86701">
        <ele>521</ele>
        <time>2019-08-02T08:09:07Z</time>
      </trkpt>
      <trkpt lat="44.24005" lon="5.86698">
        <ele>520</ele>
        <time>2019-08-02T08:09:08Z</time>
      </trkpt>
      <trkpt lat="44.23996" lon="5.86692">
        <ele>520</ele>
        <time>2019-08-02T08:09:09Z</time>
      </trkpt>
      <trkpt lat="44.23988" lon="5.86684">
        <ele>519</ele>
        <time>2019-08-02T08:09:10Z</time>
      </trkpt>
      <trkpt lat="44.2398" lon="5.86674">
        <ele>519</ele>
        <time>2019-08-02T08:09:11Z</time>
      </trkpt>
      <trkpt lat="44.23972" lon="5.86665">
        <ele>519</ele>
        <time>2019-08-02T08:09:12Z</time>
      </trkpt>
      <trkpt lat="44.23964" lon="5.86656">
        <ele>519</ele>
        <time>2019-08-02T08:09:13Z</time>
      </trkpt>
      <trkpt lat="44.23956" lon="5.86647">
        <ele>519</ele>
        <time>2019-08-02T08:09:14Z</time>
      </trkpt>
      <trkpt lat="44.23948" lon="5.86637">
        <ele>519</ele>
        <time>2019-08-02T08:09:15Z</time>
      </trkpt>
      <trkpt lat="44.2394" lon="5.86628">
        <ele>519</ele>
        <time>2019-08-02T08:09:16Z</time>
      </trkpt>
      <trkpt lat="44.23932" lon="5.86619">
        <ele>519</ele>
        <time>2019-08-02T08:09:17Z</time>
      </trkpt>
      <trkpt lat="44.23925" lon="5.8661">
        <ele>519</ele>
        <time>2019-08-02T08:09:18Z</time>
      </trkpt>
      <trkpt lat="44.23917" lon="5.866">
        <ele>519</ele>
        <time>2019-08-02T08:09:19Z</time>
      </trkpt>
      <trkpt lat="44.23909" lon="5.86591">
        <ele>518</ele>
        <time>2019-08-02T08:09:20Z</time>
      </trkpt>
      <trkpt lat="44.23901" lon="5.86582">
        <ele>518</ele>
        <time>2019-08-02T08:09:21Z</time>
      </trkpt>
      <trkpt lat="44.23893" lon="5.86573">
        <ele>517</ele>
        <time>2019-08-02T08:09:22Z</time>
      </trkpt>
      <trkpt lat="44.23885" lon="5.86564">
        <ele>516</ele>
        <time>2019-08-02T08:09:23Z</time>
      </trkpt>
      <trkpt lat="44.23876" lon="5.86555">
        <ele>516</ele>
        <time>2019-08-02T08:09:24Z</time>
      </trkpt>
      <trkpt lat="44.23868" lon="5.86546">
        <ele>515</ele>
        <time>2019-08-02T08:09:25Z</time>
      </trkpt>
      <trkpt lat="44.2386" lon="5.86536">
        <ele>514</ele>
        <time>2019-08-02T08:09:26Z</time>
      </trkpt>
      <trkpt lat="44.23851" lon="5.86527">
        <ele>513</ele>
        <time>2019-08-02T08:09:27Z</time>
      </trkpt>
      <trkpt lat="44.23843" lon="5.86517">
        <ele>513</ele>
        <time>2019-08-02T08:09:28Z</time>
      </trkpt>
      <trkpt lat="44.23834" lon="5.86507">
        <ele>512</ele>
        <time>2019-08-02T08:09:29Z</time>
      </trkpt>
      <trkpt lat="44.23825" lon="5.86497">
        <ele>511</ele>
        <time>2019-08-02T08:09:30Z</time>
      </trkpt>
      <trkpt lat="44.23816" lon="5.86486">
        <ele>510</ele>
        <time>2019-08-02T08:09:31Z</time>
      </trkpt>
      <trkpt lat="44.23807" lon="5.86476">
        <ele>510</ele>
        <time>2019-08-02T08:09:32Z</time>
      </trkpt>
      <trkpt lat="44.23797" lon="5.86465">
        <ele>509</ele>
        <time>2019-08-02T08:09:33Z</time>
      </trkpt>
      <trkpt lat="44.23788" lon="5.86454">
        <ele>508</ele>
        <time>2019-08-02T08:09:34Z</time>
      </trkpt>
      <trkpt lat="44.23779" lon="5.86443">
        <ele>507</ele>
        <time>2019-08-02T08:09:35Z</time>
      </trkpt>
      <trkpt lat="44.23769" lon="5.86432">
        <ele>506</ele>
        <time>2019-08-02T08:09:36Z</time>
      </trkpt>
      <trkpt lat="44.2376" lon="5.86421">
        <ele>505</ele>
        <time>2019-08-02T08:09:37Z</time>
      </trkpt>
      <trkpt lat="44.23751" lon="5.86411">
        <ele>505</ele>
        <time>2019-08-02T08:09:38Z</time>
      </trkpt>
      <trkpt lat="44.23742" lon="5.86401">
        <ele>504</ele>
        <time>2019-08-02T08:09:39Z</time>
      </trkpt>
      <trkpt lat="44.23733" lon="5.86391">
        <ele>504</ele>
        <time>2019-08-02T08:09:40Z</time>
      </trkpt>
      <trkpt lat="44.23725" lon="5.86381">
        <ele>504</ele>
        <time>2019-08-02T08:09:41Z</time>
      </trkpt>
      <trkpt lat="44.23716" lon="5.86373">
        <ele>504</ele>
        <time>2019-08-02T08:09:42Z</time>
      </trkpt>
      <trkpt lat="44.23708" lon="5.86364">
        <ele>504</ele>
        <time>2019-08-02T08:09:43Z</time>
      </trkpt>
      <trkpt lat="44.23701" lon="5.86355">
        <ele>504</ele>
        <time>2019-08-02T08:09:44Z</time>
      </trkpt>
      <trkpt lat="44.23693" lon="5.86347">
        <ele>504</ele>
        <time>2019-08-02T08:09:45Z</time>
      </trkpt>
      <trkpt lat="44.23685" lon="5.86339">
        <ele>504</ele>
        <time>2019-08-02T08:09:46Z</time>
      </trkpt>
      <trkpt lat="44.23678" lon="5.86333">
        <ele>504</ele>
        <time>2019-08-02T08:09:47Z</time>
      </trkpt>
      <trkpt lat="44.2367" lon="5.86328">
        <ele>504</ele>
        <time>2019-08-02T08:09:48Z</time>
      </trkpt>
      <trkpt lat="44.23661" lon="5.86325">
        <ele>504</ele>
        <time>2019-08-02T08:09:49Z</time>
      </trkpt>
      <trkpt lat="44.23653" lon="5.86324">
        <ele>504</ele>
        <time>2019-08-02T08:09:50Z</time>
      </trkpt>
      <trkpt lat="44.23644" lon="5.86324">
        <ele>504</ele>
        <time>2019-08-02T08:09:51Z</time>
      </trkpt>
      <trkpt lat="44.23636" lon="5.86325">
        <ele>504</ele>
        <time>2019-08-02T08:09:52Z</time>
      </trkpt>
      <trkpt lat="44.23628" lon="5.86327">
        <ele>504</ele>
        <time>2019-08-02T08:09:53Z</time>
      </trkpt>
      <trkpt lat="44.2362" lon="5.86328">
        <ele>504</ele>
        <time>2019-08-02T08:09:54Z</time>
      </trkpt>
      <trkpt lat="44.23611" lon="5.8633">
        <ele>504</ele>
        <time>2019-08-02T08:09:55Z</time>
      </trkpt>
      <trkpt lat="44.23603" lon="5.86332">
        <ele>504</ele>
        <time>2019-08-02T08:09:56Z</time>
      </trkpt>
      <trkpt lat="44.23595" lon="5.86334">
        <ele>504</ele>
        <time>2019-08-02T08:09:57Z</time>
      </trkpt>
      <trkpt lat="44.23587" lon="5.86336">
        <ele>504</ele>
        <time>2019-08-02T08:09:58Z</time>
      </trkpt>
      <trkpt lat="44.23579" lon="5.86337">
        <ele>504</ele>
        <time>2019-08-02T08:09:59Z</time>
      </trkpt>
      <trkpt lat="44.23571" lon="5.86339">
        <ele>504</ele>
        <time>2019-08-02T08:10:00Z</time>
      </trkpt>
      <trkpt lat="44.23563" lon="5.86341">
        <ele>504</ele>
        <time>2019-08-02T08:10:01Z</time>
      </trkpt>
      <trkpt lat="44.23555" lon="5.86342">
        <ele>504</ele>
        <time>2019-08-02T08:10:02Z</time>
      </trkpt>
      <trkpt lat="44.23547" lon="5.86343">
        <ele>504</ele>
        <time>2019-08-02T08:10:03Z</time>
      </trkpt>
      <trkpt lat="44.23539" lon="5.86343">
        <ele>504</ele>
        <time>2019-08-02T08:10:04Z</time>
      </trkpt>
      <trkpt lat="44.23532" lon="5.86342">
        <ele>504</ele>
        <time>2019-08-02T08:10:05Z</time>
      </trkpt>
      <trkpt lat="44.23524" lon="5.8634">
        <ele>504</ele>
        <time>2019-08-02T08:10:06Z</time>
      </trkpt>
      <trkpt lat="44.23517" lon="5.86337">
        <ele>504</ele>
        <time>2019-08-02T08:10:07Z</time>
      </trkpt>
      <trkpt lat="44.2351" lon="5.86333">
        <ele>504</ele>
        <time>2019-08-02T08:10:08Z</time>
      </trkpt>
      <trkpt lat="44.23503" lon="5.8633">
        <ele>504</ele>
        <time>2019-08-02T08:10:09Z</time>
      </trkpt>
      <trkpt lat="44.23496" lon="5.86326">
        <ele>504</ele>
        <time>2019-08-02T08:10:10Z</time>
      </trkpt>
      <trkpt lat="44.2349" lon="5.86322">
        <ele>504</ele>
        <time>2019-08-02T08:10:11Z</time>
      </trkpt>
      <trkpt lat="44.23485" lon="5.86317">
        <ele>504</ele>
        <time>2019-08-02T08:10:12Z</time>
      </trkpt>
      <trkpt lat="44.2348" lon="5.86312">
        <ele>504</ele>
        <time>2019-08-02T08:10:13Z</time>
      </trkpt>
      <trkpt lat="44.23475" lon="5.86306">
        <ele>504</ele>
        <time>2019-08-02T08:10:14Z</time>
      </trkpt>
      <trkpt lat="44.23471" lon="5.863">
        <ele>504</ele>
        <time>2019-08-02T08:10:15Z</time>
      </trkpt>
      <trkpt lat="44.23466" lon="5.86294">
        <ele>504</ele>
        <time>2019-08-02T08:10:16Z</time>
      </trkpt>
      <trkpt lat="44.23462" lon="5.86288">
        <ele>504</ele>
        <time>2019-08-02T08:10:17Z</time>
      </trkpt>
      <trkpt lat="44.23457" lon="5.86281">
        <ele>504</ele>
        <time>2019-08-02T08:10:18Z</time>
      </trkpt>
      <trkpt lat="44.23453" lon="5.86275">
        <ele>504</ele>
        <time>2019-08-02T08:10:19Z</time>
      </trkpt>
      <trkpt lat="44.23448" lon="5.86269">
        <ele>504</ele>
        <time>2019-08-02T08:10:20Z</time>
      </trkpt>
      <trkpt lat="44.23443" lon="5.86263">
        <ele>504</ele>
        <time>2019-08-02T08:10:21Z</time>
      </trkpt>
      <trkpt lat="44.23438" lon="5.86256">
        <ele>504</ele>
        <time>2019-08-02T08:10:22Z</time>
      </trkpt>
      <trkpt lat="44.23434" lon="5.8625">
        <ele>504</ele>
        <time>2019-08-02T08:10:23Z</time>
      </trkpt>
      <trkpt lat="44.23429" lon="5.86244">
        <ele>504</ele>
        <time>2019-08-02T08:10:24Z</time>
      </trkpt>
      <trkpt lat="44.23424" lon="5.86238">
        <ele>504</ele>
        <time>2019-08-02T08:10:25Z</time>
      </trkpt>
      <trkpt lat="44.23419" lon="5.86232">
        <ele>504</ele>
        <time>2019-08-02T08:10:26Z</time>
      </trkpt>
      <trkpt lat="44.23414" lon="5.86226">
        <ele>504</ele>
        <time>2019-08-02T08:10:27Z</time>
      </trkpt>
      <trkpt lat="44.23409" lon="5.86219">
        <ele>504</ele>
        <time>2019-08-02T08:10:28Z</time>
      </trkpt>
      <trkpt lat="44.23404" lon="5.86213">
        <ele>504</ele>
        <time>2019-08-02T08:10:29Z</time>
      </trkpt>
      <trkpt lat="44.234" lon="5.86205">
        <ele>504</ele>
        <time>2019-08-02T08:10:30Z</time>
      </trkpt>
      <trkpt lat="44.23397" lon="5.86197">
        <ele>504</ele>
        <time>2019-08-02T08:10:31Z</time>
      </trkpt>
      <trkpt lat="44.23395" lon="5.86187">
        <ele>504</ele>
        <time>2019-08-02T08:10:32Z</time>
      </trkpt>
      <trkpt lat="44.23396" lon="5.86177">
        <ele>504</ele>
        <time>2019-08-02T08:10:33Z</time>
      </trkpt>
      <trkpt lat="44.23397" lon="5.86167">
        <ele>504</ele>
        <time>2019-08-02T08:10:34Z</time>
      </trkpt>
      <trkpt lat="44.23399" lon="5.86157">
        <ele>504</ele>
        <time>2019-08-02T08:10:35Z</time>
      </trkpt>
      <trkpt lat="44.234" lon="5.86146">
        <ele>504</ele>
        <time>2019-08-02T08:10:36Z</time>
      </trkpt>
      <trkpt lat="44.23402" lon="5.86136">
        <ele>503</ele>
        <time>2019-08-02T08:10:37Z</time>
      </trkpt>
      <trkpt lat="44.23404" lon="5.86126">
        <ele>503</ele>
        <time>2019-08-02T08:10:38Z</time>
      </trkpt>
      <trkpt lat="44.23405" lon="5.86116">
        <ele>502</ele>
        <time>2019-08-02T08:10:39Z</time>
      </trkpt>
      <trkpt lat="44.23406" lon="5.86105">
        <ele>502</ele>
        <time>2019-08-02T08:10:40Z</time>
      </trkpt>
      <trkpt lat="44.23407" lon="5.86095">
        <ele>502</ele>
        <time>2019-08-02T08:10:41Z</time>
      </trkpt>
      <trkpt lat="44.23408" lon="5.86085">
        <ele>502</ele>
        <time>2019-08-02T08:10:42Z</time>
      </trkpt>
      <trkpt lat="44.23408" lon="5.86074">
        <ele>502</ele>
        <time>2019-08-02T08:10:43Z</time>
      </trkpt>
      <trkpt lat="44.23407" lon="5.86064">
        <ele>502</ele>
        <time>2019-08-02T08:10:44Z</time>
      </trkpt>
      <trkpt lat="44.23406" lon="5.86055">
        <ele>502</ele>
        <time>2019-08-02T08:10:45Z</time>
      </trkpt>
      <trkpt lat="44.23404" lon="5.86046">
        <ele>502</ele>
        <time>2019-08-02T08:10:46Z</time>
      </trkpt>
      <trkpt lat="44.23402" lon="5.86036">
        <ele>502</ele>
        <time>2019-08-02T08:10:47Z</time>
      </trkpt>
      <trkpt lat="44.23399" lon="5.86028">
        <ele>502</ele>
        <time>2019-08-02T08:10:48Z</time>
      </trkpt>
      <trkpt lat="44.23397" lon="5.86019">
        <ele>502</ele>
        <time>2019-08-02T08:10:49Z</time>
      </trkpt>
      <trkpt lat="44.23394" lon="5.8601">
        <ele>502</ele>
        <time>2019-08-02T08:10:50Z</time>
      </trkpt>
      <trkpt lat="44.23391" lon="5.86001">
        <ele>502</ele>
        <time>2019-08-02T08:10:51Z</time>
      </trkpt>
      <trkpt lat="44.23388" lon="5.85993">
        <ele>502</ele>
        <time>2019-08-02T08:10:52Z</time>
      </trkpt>
      <trkpt lat="44.23386" lon="5.85985">
        <ele>502</ele>
        <time>2019-08-02T08:10:53Z</time>
      </trkpt>
      <trkpt lat="44.23383" lon="5.85976">
        <ele>502</ele>
        <time>2019-08-02T08:10:54Z</time>
      </trkpt>
      <trkpt lat="44.23381" lon="5.85967">
        <ele>502</ele>
        <time>2019-08-02T08:10:55Z</time>
      </trkpt>
      <trkpt lat="44.23378" lon="5.85959">
        <ele>502</ele>
        <time>2019-08-02T08:10:56Z</time>
      </trkpt>
      <trkpt lat="44.23375" lon="5.8595">
        <ele>502</ele>
        <time>2019-08-02T08:10:57Z</time>
      </trkpt>
      <trkpt lat="44.23373" lon="5.85941">
        <ele>502</ele>
        <time>2019-08-02T08:10:58Z</time>
      </trkpt>
      <trkpt lat="44.2337" lon="5.85932">
        <ele>502</ele>
        <time>2019-08-02T08:10:59Z</time>
      </trkpt>
      <trkpt lat="44.23367" lon="5.85924">
        <ele>502</ele>
        <time>2019-08-02T08:11:00Z</time>
      </trkpt>
      <trkpt lat="44.23365" lon="5.85915">
        <ele>502</ele>
        <time>2019-08-02T08:11:01Z</time>
      </trkpt>
      <trkpt lat="44.23362" lon="5.85907">
        <ele>502</ele>
        <time>2019-08-02T08:11:02Z</time>
      </trkpt>
      <trkpt lat="44.2336" lon="5.85898">
        <ele>502</ele>
        <time>2019-08-02T08:11:03Z</time>
      </trkpt>
      <trkpt lat="44.23358" lon="5.8589">
        <ele>502</ele>
        <time>2019-08-02T08:11:04Z</time>
      </trkpt>
      <trkpt lat="44.23355" lon="5.85882">
        <ele>502</ele>
        <time>2019-08-02T08:11:05Z</time>
      </trkpt>
      <trkpt lat="44.23353" lon="5.85874">
        <ele>502</ele>
        <time>2019-08-02T08:11:06Z</time>
      </trkpt>
      <trkpt lat="44.2335" lon="5.85865">
        <ele>502</ele>
        <time>2019-08-02T08:11:07Z</time>
      </trkpt>
      <trkpt lat="44.23347" lon="5.85857">
        <ele>502</ele>
        <time>2019-08-02T08:11:08Z</time>
      </trkpt>
      <trkpt lat="44.23344" lon="5.8585">
        <ele>502</ele>
        <time>2019-08-02T08:11:09Z</time>
      </trkpt>
      <trkpt lat="44.23341" lon="5.85842">
        <ele>502</ele>
        <time>2019-08-02T08:11:10Z</time>
      </trkpt>
      <trkpt lat="44.23339" lon="5.85834">
        <ele>502</ele>
        <time>2019-08-02T08:11:11Z</time>
      </trkpt>
      <trkpt lat="44.23336" lon="5.85827">
        <ele>502</ele>
        <time>2019-08-02T08:11:12Z</time>
      </trkpt>
      <trkpt lat="44.23334" lon="5.8582">
        <ele>502</ele>
        <time>2019-08-02T08:11:13Z</time>
      </trkpt>
      <trkpt lat="44.23331" lon="5.85813">
        <ele>502</ele>
        <time>2019-08-02T08:11:14Z</time>
      </trkpt>
      <trkpt lat="44.23329" lon="5.85806">
        <ele>502</ele>
        <time>2019-08-02T08:11:15Z</time>
      </trkpt>
      <trkpt lat="44.23326" lon="5.85799">
        <ele>502</ele>
        <time>2019-08-02T08:11:16Z</time>
      </trkpt>
      <trkpt lat="44.23323" lon="5.85792">
        <ele>502</ele>
        <time>2019-08-02T08:11:17Z</time>
      </trkpt>
      <trkpt lat="44.23321" lon="5.85786">
        <ele>502</ele>
        <time>2019-08-02T08:11:18Z</time>
      </trkpt>
      <trkpt lat="44.23318" lon="5.85779">
        <ele>502</ele>
        <time>2019-08-02T08:11:19Z</time>
      </trkpt>
      <trkpt lat="44.23316" lon="5.85773">
        <ele>502</ele>
        <time>2019-08-02T08:11:20Z</time>
      </trkpt>
      <trkpt lat="44.23314" lon="5.85767">
        <ele>502</ele>
        <time>2019-08-02T08:11:21Z</time>
      </trkpt>
      <trkpt lat="44.23311" lon="5.8576">
        <ele>502</ele>
        <time>2019-08-02T08:11:22Z</time>
      </trkpt>
      <trkpt lat="44.23309" lon="5.85754">
        <ele>502</ele>
        <time>2019-08-02T08:11:23Z</time>
      </trkpt>
      <trkpt lat="44.23307" lon="5.85748">
        <ele>502</ele>
        <time>2019-08-02T08:11:24Z</time>
      </trkpt>
      <trkpt lat="44.23305" lon="5.85741">
        <ele>502</ele>
        <time>2019-08-02T08:11:25Z</time>
      </trkpt>
      <trkpt lat="44.23303" lon="5.85735">
        <ele>502</ele>
        <time>2019-08-02T08:11:26Z</time>
      </trkpt>
      <trkpt lat="44.23301" lon="5.85729">
        <ele>502</ele>
        <time>2019-08-02T08:11:27Z</time>
      </trkpt>
      <trkpt lat="44.23298" lon="5.85722">
        <ele>502</ele>
        <time>2019-08-02T08:11:28Z</time>
      </trkpt>
      <trkpt lat="44.23296" lon="5.85716">
        <ele>502</ele>
        <time>2019-08-02T08:11:29Z</time>
      </trkpt>
      <trkpt lat="44.23293" lon="5.8571">
        <ele>502</ele>
        <time>2019-08-02T08:11:30Z</time>
      </trkpt>
      <trkpt lat="44.2329" lon="5.85704">
        <ele>502</ele>
        <time>2019-08-02T08:11:31Z</time>
      </trkpt>
      <trkpt lat="44.23287" lon="5.857">
        <ele>502</ele>
        <time>2019-08-02T08:11:32Z</time>
      </trkpt>
      <trkpt lat="44.23284" lon="5.85695">
        <ele>503</ele>
        <time>2019-08-02T08:11:33Z</time>
      </trkpt>
      <trkpt lat="44.23281" lon="5.8569">
        <ele>503</ele>
        <time>2019-08-02T08:11:34Z</time>
      </trkpt>
      <trkpt lat="44.23277" lon="5.85686">
        <ele>503</ele>
        <time>2019-08-02T08:11:35Z</time>
      </trkpt>
      <trkpt lat="44.23273" lon="5.85683">
        <ele>504</ele>
        <time>2019-08-02T08:11:36Z</time>
      </trkpt>
      <trkpt lat="44.23268" lon="5.85681">
        <ele>504</ele>
        <time>2019-08-02T08:11:37Z</time>
      </trkpt>
      <trkpt lat="44.23264" lon="5.85679">
        <ele>504</ele>
        <time>2019-08-02T08:11:38Z</time>
      </trkpt>
      <trkpt lat="44.23259" lon="5.85678">
        <ele>504</ele>
        <time>2019-08-02T08:11:39Z</time>
      </trkpt>
      <trkpt lat="44.23254" lon="5.85677">
        <ele>504</ele>
        <time>2019-08-02T08:11:40Z</time>
      </trkpt>
      <trkpt lat="44.23249" lon="5.85676">
        <ele>504</ele>
        <time>2019-08-02T08:11:41Z</time>
      </trkpt>
      <trkpt lat="44.23244" lon="5.85676">
        <ele>504</ele>
        <time>2019-08-02T08:11:42Z</time>
      </trkpt>
      <trkpt lat="44.23239" lon="5.85675">
        <ele>504</ele>
        <time>2019-08-02T08:11:43Z</time>
      </trkpt>
      <trkpt lat="44.23234" lon="5.85675">
        <ele>504</ele>
        <time>2019-08-02T08:11:44Z</time>
      </trkpt>
      <trkpt lat="44.23229" lon="5.85674">
        <ele>504</ele>
        <time>2019-08-02T08:11:45Z</time>
      </trkpt>
      <trkpt lat="44.23224" lon="5.85674">
        <ele>504</ele>
        <time>2019-08-02T08:11:46Z</time>
      </trkpt>
      <trkpt lat="44.23219" lon="5.85674">
        <ele>504</ele>
        <time>2019-08-02T08:11:47Z</time>
      </trkpt>
      <trkpt lat="44.23215" lon="5.85674">
        <ele>504</ele>
        <time>2019-08-02T08:11:48Z</time>
      </trkpt>
      <trkpt lat="44.2321" lon="5.85674">
        <ele>504</ele>
        <time>2019-08-02T08:11:49Z</time>
      </trkpt>
      <trkpt lat="44.23206" lon="5.85674">
        <ele>504</ele>
        <time>2019-08-02T08:11:50Z</time>
      </trkpt>
      <trkpt lat="44.23201" lon="5.85675">
        <ele>504</ele>
        <time>2019-08-02T08:11:51Z</time>
      </trkpt>
      <trkpt lat="44.23197" lon="5.85677">
        <ele>504</ele>
        <time>2019-08-02T08:11:52Z</time>
      </trkpt>
      <trkpt lat="44.23193" lon="5.8568">
        <ele>504</ele>
        <time>2019-08-02T08:11:53Z</time>
      </trkpt>
      <trkpt lat="44.2319" lon="5.85683">
        <ele>504</ele>
        <time>2019-08-02T08:11:54Z</time>
      </trkpt>
      <trkpt lat="44.23187" lon="5.85687">
        <ele>504</ele>
        <time>2019-08-02T08:11:55Z</time>
      </trkpt>
      <trkpt lat="44.23184" lon="5.85692">
        <ele>504</ele>
        <time>2019-08-02T08:11:56Z</time>
      </trkpt>
      <trkpt lat="44.2318" lon="5.85697">
        <ele>504</ele>
        <time>2019-08-02T08:11:57Z</time>
      </trkpt>
      <trkpt lat="44.23176" lon="5.85702">
        <ele>504</ele>
        <time>2019-08-02T08:11:58Z</time>
      </trkpt>
      <trkpt lat="44.23173" lon="5.85707">
        <ele>504</ele>
        <time>2019-08-02T08:11:59Z</time>
      </trkpt>
      <trkpt lat="44.2317" lon="5.85712">
        <ele>504</ele>
        <time>2019-08-02T08:12:00Z</time>
      </trkpt>
      <trkpt lat="44.23167" lon="5.85716">
        <ele>504</ele>
        <time>2019-08-02T08:12:01Z</time>
      </trkpt>
      <trkpt lat="44.23164" lon="5.85721">
        <ele>505</ele>
        <time>2019-08-02T08:12:02Z</time>
      </trkpt>
      <trkpt lat="44.23161" lon="5.85726">
        <ele>505</ele>
        <time>2019-08-02T08:12:03Z</time>
      </trkpt>
      <trkpt lat="44.23159" lon="5.85732">
        <ele>505</ele>
        <time>2019-08-02T08:12:04Z</time>
      </trkpt>
      <trkpt lat="44.23157" lon="5.85738">
        <ele>505</ele>
        <time>2019-08-02T08:12:05Z</time>
      </trkpt>
      <trkpt lat="44.23155" lon="5.85744">
        <ele>505</ele>
        <time>2019-08-02T08:12:06Z</time>
      </trkpt>
      <trkpt lat="44.23153" lon="5.8575">
        <ele>505</ele>
        <time>2019-08-02T08:12:07Z</time>
      </trkpt>
      <trkpt lat="44.23151" lon="5.85757">
        <ele>505</ele>
        <time>2019-08-02T08:12:08Z</time>
      </trkpt>
      <trkpt lat="44.23149" lon="5.85764">
        <ele>505</ele>
        <time>2019-08-02T08:12:09Z</time>
      </trkpt>
      <trkpt lat="44.23147" lon="5.8577">
        <ele>506</ele>
        <time>2019-08-02T08:12:10Z</time>
      </trkpt>
      <trkpt lat="44.23145" lon="5.85777">
        <ele>506</ele>
        <time>2019-08-02T08:12:11Z</time>
      </trkpt>
      <trkpt lat="44.23143" lon="5.85782">
        <ele>506</ele>
        <time>2019-08-02T08:12:12Z</time>
      </trkpt>
      <trkpt lat="44.23141" lon="5.85788">
        <ele>506</ele>
        <time>2019-08-02T08:12:13Z</time>
      </trkpt>
      <trkpt lat="44.23139" lon="5.85793">
        <ele>506</ele>
        <time>2019-08-02T08:12:14Z</time>
      </trkpt>
      <trkpt lat="44.23136" lon="5.85796">
        <ele>506</ele>
        <time>2019-08-02T08:12:15Z</time>
      </trkpt>
      <trkpt lat="44.23132" lon="5.85798">
        <ele>506</ele>
        <time>2019-08-02T08:12:16Z</time>
      </trkpt>
      <trkpt lat="44.23128" lon="5.85798">
        <ele>506</ele>
        <time>2019-08-02T08:12:17Z</time>
      </trkpt>
      <trkpt lat="44.23125" lon="5.85796">
        <ele>506</ele>
        <time>2019-08-02T08:12:18Z</time>
      </trkpt>
      <trkpt lat="44.23122" lon="5.85794">
        <ele>506</ele>
        <time>2019-08-02T08:12:19Z</time>
      </trkpt>
      <trkpt lat="44.23121" lon="5.85791">
        <ele>506</ele>
        <time>2019-08-02T08:12:20Z</time>
      </trkpt>
      <trkpt lat="44.23119" lon="5.85786">
        <ele>506</ele>
        <time>2019-08-02T08:12:21Z</time>
      </trkpt>
      <trkpt lat="44.23118" lon="5.85781">
        <ele>506</ele>
        <time>2019-08-02T08:12:22Z</time>
      </trkpt>
      <trkpt lat="44.23119" lon="5.85775">
        <ele>506</ele>
        <time>2019-08-02T08:12:23Z</time>
      </trkpt>
      <trkpt lat="44.23119" lon="5.85769">
        <ele>507</ele>
        <time>2019-08-02T08:12:24Z</time>
      </trkpt>
      <trkpt lat="44.23121" lon="5.85764">
        <ele>508</ele>
        <time>2019-08-02T08:12:25Z</time>
      </trkpt>
      <trkpt lat="44.23121" lon="5.85758">
        <ele>508</ele>
        <time>2019-08-02T08:12:26Z</time>
      </trkpt>
      <trkpt lat="44.23123" lon="5.85753">
        <ele>509</ele>
        <time>2019-08-02T08:12:27Z</time>
      </trkpt>
      <trkpt lat="44.23124" lon="5.85749">
        <ele>509</ele>
        <time>2019-08-02T08:12:28Z</time>
      </trkpt>
      <trkpt lat="44.23125" lon="5.85744">
        <ele>510</ele>
        <time>2019-08-02T08:12:29Z</time>
      </trkpt>
      <trkpt lat="44.23127" lon="5.8574">
        <ele>510</ele>
        <time>2019-08-02T08:12:30Z</time>
      </trkpt>
      <trkpt lat="44.23127" lon="5.85735">
        <ele>510</ele>
        <time>2019-08-02T08:12:31Z</time>
      </trkpt>
      <trkpt lat="44.23132" lon="5.8572">
        <ele>510</ele>
        <time>2019-08-02T08:12:34Z</time>
      </trkpt>
      <trkpt lat="44.23135" lon="5.85714">
        <ele>511</ele>
        <time>2019-08-02T08:12:35Z</time>
      </trkpt>
      <trkpt lat="44.23134" lon="5.85708">
        <ele>512</ele>
        <time>2019-08-02T08:12:36Z</time>
      </trkpt>
      <trkpt lat="44.23132" lon="5.85701">
        <ele>513</ele>
        <time>2019-08-02T08:12:37Z</time>
      </trkpt>
      <trkpt lat="44.23132" lon="5.85695">
        <ele>514</ele>
        <time>2019-08-02T08:12:38Z</time>
      </trkpt>
      <trkpt lat="44.23132" lon="5.85689">
        <ele>515</ele>
        <time>2019-08-02T08:12:39Z</time>
      </trkpt>
      <trkpt lat="44.23133" lon="5.85683">
        <ele>515</ele>
        <time>2019-08-02T08:12:40Z</time>
      </trkpt>
      <trkpt lat="44.23133" lon="5.85677">
        <ele>515</ele>
        <time>2019-08-02T08:12:41Z</time>
      </trkpt>
      <trkpt lat="44.23133" lon="5.85672">
        <ele>516</ele>
        <time>2019-08-02T08:12:42Z</time>
      </trkpt>
      <trkpt lat="44.23134" lon="5.85667">
        <ele>516</ele>
        <time>2019-08-02T08:12:43Z</time>
      </trkpt>
      <trkpt lat="44.23135" lon="5.85662">
        <ele>516</ele>
        <time>2019-08-02T08:12:44Z</time>
      </trkpt>
      <trkpt lat="44.23135" lon="5.85656">
        <ele>517</ele>
        <time>2019-08-02T08:12:45Z</time>
      </trkpt>
      <trkpt lat="44.23135" lon="5.85651">
        <ele>517</ele>
        <time>2019-08-02T08:12:46Z</time>
      </trkpt>
      <trkpt lat="44.23136" lon="5.85646">
        <ele>517</ele>
        <time>2019-08-02T08:12:47Z</time>
      </trkpt>
      <trkpt lat="44.23136" lon="5.85641">
        <ele>517</ele>
        <time>2019-08-02T08:12:48Z</time>
      </trkpt>
      <trkpt lat="44.23136" lon="5.85636">
        <ele>517</ele>
        <time>2019-08-02T08:12:49Z</time>
      </trkpt>
      <trkpt lat="44.23138" lon="5.85632">
        <ele>517</ele>
        <time>2019-08-02T08:12:50Z</time>
      </trkpt>
      <trkpt lat="44.2314" lon="5.85627">
        <ele>517</ele>
        <time>2019-08-02T08:12:51Z</time>
      </trkpt>
      <trkpt lat="44.23143" lon="5.85623">
        <ele>517</ele>
        <time>2019-08-02T08:12:52Z</time>
      </trkpt>
      <trkpt lat="44.23146" lon="5.85619">
        <ele>517</ele>
        <time>2019-08-02T08:12:53Z</time>
      </trkpt>
      <trkpt lat="44.2315" lon="5.85616">
        <ele>517</ele>
        <time>2019-08-02T08:12:54Z</time>
      </trkpt>
      <trkpt lat="44.23153" lon="5.85612">
        <ele>517</ele>
        <time>2019-08-02T08:12:55Z</time>
      </trkpt>
      <trkpt lat="44.23156" lon="5.85607">
        <ele>517</ele>
        <time>2019-08-02T08:12:56Z</time>
      </trkpt>
      <trkpt lat="44.23159" lon="5.85602">
        <ele>517</ele>
        <time>2019-08-02T08:12:57Z</time>
      </trkpt>
      <trkpt lat="44.23163" lon="5.85597">
        <ele>517</ele>
        <time>2019-08-02T08:12:58Z</time>
      </trkpt>
      <trkpt lat="44.23167" lon="5.85591">
        <ele>517</ele>
        <time>2019-08-02T08:12:59Z</time>
      </trkpt>
      <trkpt lat="44.23171" lon="5.85583">
        <ele>517</ele>
        <time>2019-08-02T08:13:00Z</time>
      </trkpt>
      <trkpt lat="44.23175" lon="5.85576">
        <ele>517</ele>
        <time>2019-08-02T08:13:01Z</time>
      </trkpt>
      <trkpt lat="44.2318" lon="5.85568">
        <ele>517</ele>
        <time>2019-08-02T08:13:02Z</time>
      </trkpt>
      <trkpt lat="44.23185" lon="5.8556">
        <ele>517</ele>
        <time>2019-08-02T08:13:03Z</time>
      </trkpt>
      <trkpt lat="44.23191" lon="5.85553">
        <ele>517</ele>
        <time>2019-08-02T08:13:04Z</time>
      </trkpt>
      <trkpt lat="44.23197" lon="5.85545">
        <ele>517</ele>
        <time>2019-08-02T08:13:05Z</time>
      </trkpt>
      <trkpt lat="44.23203" lon="5.85537">
        <ele>516</ele>
        <time>2019-08-02T08:13:06Z</time>
      </trkpt>
      <trkpt lat="44.2321" lon="5.8553">
        <ele>515</ele>
        <time>2019-08-02T08:13:07Z</time>
      </trkpt>
      <trkpt lat="44.23217" lon="5.85523">
        <ele>515</ele>
        <time>2019-08-02T08:13:08Z</time>
      </trkpt>
      <trkpt lat="44.23225" lon="5.85517">
        <ele>514</ele>
        <time>2019-08-02T08:13:09Z</time>
      </trkpt>
      <trkpt lat="44.23234" lon="5.85513">
        <ele>514</ele>
        <time>2019-08-02T08:13:10Z</time>
      </trkpt>
      <trkpt lat="44.23243" lon="5.85511">
        <ele>513</ele>
        <time>2019-08-02T08:13:11Z</time>
      </trkpt>
      <trkpt lat="44.23251" lon="5.85509">
        <ele>513</ele>
        <time>2019-08-02T08:13:12Z</time>
      </trkpt>
      <trkpt lat="44.23259" lon="5.85507">
        <ele>513</ele>
        <time>2019-08-02T08:13:13Z</time>
      </trkpt>
      <trkpt lat="44.23267" lon="5.85506">
        <ele>513</ele>
        <time>2019-08-02T08:13:14Z</time>
      </trkpt>
      <trkpt lat="44.23275" lon="5.85505">
        <ele>513</ele>
        <time>2019-08-02T08:13:15Z</time>
      </trkpt>
      <trkpt lat="44.23282" lon="5.85504">
        <ele>513</ele>
        <time>2019-08-02T08:13:16Z</time>
      </trkpt>
      <trkpt lat="44.23289" lon="5.85503">
        <ele>513</ele>
        <time>2019-08-02T08:13:17Z</time>
      </trkpt>
      <trkpt lat="44.23296" lon="5.85502">
        <ele>513</ele>
        <time>2019-08-02T08:13:18Z</time>
      </trkpt>
      <trkpt lat="44.23302" lon="5.85501">
        <ele>513</ele>
        <time>2019-08-02T08:13:19Z</time>
      </trkpt>
      <trkpt lat="44.23308" lon="5.855">
        <ele>513</ele>
        <time>2019-08-02T08:13:20Z</time>
      </trkpt>
      <trkpt lat="44.23314" lon="5.85499">
        <ele>513</ele>
        <time>2019-08-02T08:13:21Z</time>
      </trkpt>
      <trkpt lat="44.2332" lon="5.85498">
        <ele>513</ele>
        <time>2019-08-02T08:13:22Z</time>
      </trkpt>
      <trkpt lat="44.23325" lon="5.85497">
        <ele>513</ele>
        <time>2019-08-02T08:13:23Z</time>
      </trkpt>
      <trkpt lat="44.23331" lon="5.85497">
        <ele>513</ele>
        <time>2019-08-02T08:13:24Z</time>
      </trkpt>
      <trkpt lat="44.23336" lon="5.85497">
        <ele>513</ele>
        <time>2019-08-02T08:13:25Z</time>
      </trkpt>
      <trkpt lat="44.23342" lon="5.85497">
        <ele>513</ele>
        <time>2019-08-02T08:13:26Z</time>
      </trkpt>
      <trkpt lat="44.23347" lon="5.85497">
        <ele>513</ele>
        <time>2019-08-02T08:13:27Z</time>
      </trkpt>
      <trkpt lat="44.23352" lon="5.85497">
        <ele>513</ele>
        <time>2019-08-02T08:13:28Z</time>
      </trkpt>
      <trkpt lat="44.23356" lon="5.85498">
        <ele>514</ele>
        <time>2019-08-02T08:13:29Z</time>
      </trkpt>
      <trkpt lat="44.23361" lon="5.85498">
        <ele>515</ele>
        <time>2019-08-02T08:13:30Z</time>
      </trkpt>
      <trkpt lat="44.23366" lon="5.85499">
        <ele>516</ele>
        <time>2019-08-02T08:13:31Z</time>
      </trkpt>
      <trkpt lat="44.23371" lon="5.85499">
        <ele>516</ele>
        <time>2019-08-02T08:13:32Z</time>
      </trkpt>
      <trkpt lat="44.23376" lon="5.855">
        <ele>517</ele>
        <time>2019-08-02T08:13:33Z</time>
      </trkpt>
      <trkpt lat="44.2338" lon="5.855">
        <ele>518</ele>
        <time>2019-08-02T08:13:34Z</time>
      </trkpt>
      <trkpt lat="44.23385" lon="5.85501">
        <ele>518</ele>
        <time>2019-08-02T08:13:35Z</time>
      </trkpt>
      <trkpt lat="44.23389" lon="5.85502">
        <ele>519</ele>
        <time>2019-08-02T08:13:36Z</time>
      </trkpt>
      <trkpt lat="44.23393" lon="5.85503">
        <ele>519</ele>
        <time>2019-08-02T08:13:37Z</time>
      </trkpt>
      <trkpt lat="44.23397" lon="5.85503">
        <ele>520</ele>
        <time>2019-08-02T08:13:38Z</time>
      </trkpt>
      <trkpt lat="44.23402" lon="5.85504">
        <ele>520</ele>
        <time>2019-08-02T08:13:39Z</time>
      </trkpt>
      <trkpt lat="44.23406" lon="5.85504">
        <ele>520</ele>
        <time>2019-08-02T08:13:40Z</time>
      </trkpt>
      <trkpt lat="44.2341" lon="5.85505">
        <ele>521</ele>
        <time>2019-08-02T08:13:41Z</time>
      </trkpt>
      <trkpt lat="44.23414" lon="5.85505">
        <ele>521</ele>
        <time>2019-08-02T08:13:42Z</time>
      </trkpt>
      <trkpt lat="44.23418" lon="5.85505">
        <ele>521</ele>
        <time>2019-08-02T08:13:43Z</time>
      </trkpt>
      <trkpt lat="44.23422" lon="5.85505">
        <ele>521</ele>
        <time>2019-08-02T08:13:44Z</time>
      </trkpt>
      <trkpt lat="44.23426" lon="5.85504">
        <ele>522</ele>
        <time>2019-08-02T08:13:45Z</time>
      </trkpt>
      <trkpt lat="44.2343" lon="5.85504">
        <ele>522</ele>
        <time>2019-08-02T08:13:46Z</time>
      </trkpt>
      <trkpt lat="44.23434" lon="5.85503">
        <ele>522</ele>
        <time>2019-08-02T08:13:47Z</time>
      </trkpt>
      <trkpt lat="44.23439" lon="5.85502">
        <ele>522</ele>
        <time>2019-08-02T08:13:48Z</time>
      </trkpt>
      <trkpt lat="44.23442" lon="5.85501">
        <ele>522</ele>
        <time>2019-08-02T08:13:49Z</time>
      </trkpt>
      <trkpt lat="44.23447" lon="5.85501">
        <ele>523</ele>
        <time>2019-08-02T08:13:50Z</time>
      </trkpt>
      <trkpt lat="44.23451" lon="5.855">
        <ele>523</ele>
        <time>2019-08-02T08:13:51Z</time>
      </trkpt>
      <trkpt lat="44.23455" lon="5.85499">
        <ele>523</ele>
        <time>2019-08-02T08:13:52Z</time>
      </trkpt>
      <trkpt lat="44.23458" lon="5.85498">
        <ele>523</ele>
        <time>2019-08-02T08:13:53Z</time>
      </trkpt>
      <trkpt lat="44.23463" lon="5.85497">
        <ele>523</ele>
        <time>2019-08-02T08:13:54Z</time>
      </trkpt>
      <trkpt lat="44.23466" lon="5.85496">
        <ele>523</ele>
        <time>2019-08-02T08:13:55Z</time>
      </trkpt>
      <trkpt lat="44.23471" lon="5.85495">
        <ele>523</ele>
        <time>2019-08-02T08:13:56Z</time>
      </trkpt>
      <trkpt lat="44.23475" lon="5.85494">
        <ele>523</ele>
        <time>2019-08-02T08:13:57Z</time>
      </trkpt>
      <trkpt lat="44.23478" lon="5.85493">
        <ele>523</ele>
        <time>2019-08-02T08:13:58Z</time>
      </trkpt>
      <trkpt lat="44.23482" lon="5.85491">
        <ele>523</ele>
        <time>2019-08-02T08:13:59Z</time>
      </trkpt>
      <trkpt lat="44.23486" lon="5.85489">
        <ele>523</ele>
        <time>2019-08-02T08:14:00Z</time>
      </trkpt>
      <trkpt lat="44.2349" lon="5.85488">
        <ele>523</ele>
        <time>2019-08-02T08:14:01Z</time>
      </trkpt>
      <trkpt lat="44.23494" lon="5.85485">
        <ele>523</ele>
        <time>2019-08-02T08:14:02Z</time>
      </trkpt>
      <trkpt lat="44.23498" lon="5.85483">
        <ele>523</ele>
        <time>2019-08-02T08:14:03Z</time>
      </trkpt>
      <trkpt lat="44.23502" lon="5.8548">
        <ele>524</ele>
        <time>2019-08-02T08:14:04Z</time>
      </trkpt>
      <trkpt lat="44.23506" lon="5.85477">
        <ele>524</ele>
        <time>2019-08-02T08:14:05Z</time>
      </trkpt>
      <trkpt lat="44.2351" lon="5.85474">
        <ele>524</ele>
        <time>2019-08-02T08:14:06Z</time>
      </trkpt>
      <trkpt lat="44.23514" lon="5.8547">
        <ele>524</ele>
        <time>2019-08-02T08:14:07Z</time>
      </trkpt>
      <trkpt lat="44.23518" lon="5.85466">
        <ele>524</ele>
        <time>2019-08-02T08:14:08Z</time>
      </trkpt>
      <trkpt lat="44.23522" lon="5.85462">
        <ele>524</ele>
        <time>2019-08-02T08:14:09Z</time>
      </trkpt>
      <trkpt lat="44.23526" lon="5.85458">
        <ele>524</ele>
        <time>2019-08-02T08:14:10Z</time>
      </trkpt>
      <trkpt lat="44.2353" lon="5.85453">
        <ele>524</ele>
        <time>2019-08-02T08:14:11Z</time>
      </trkpt>
      <trkpt lat="44.23534" lon="5.85449">
        <ele>524</ele>
        <time>2019-08-02T08:14:12Z</time>
      </trkpt>
      <trkpt lat="44.23537" lon="5.85444">
        <ele>524</ele>
        <time>2019-08-02T08:14:13Z</time>
      </trkpt>
      <trkpt lat="44.23541" lon="5.85438">
        <ele>524</ele>
        <time>2019-08-02T08:14:14Z</time>
      </trkpt>
      <trkpt lat="44.23544" lon="5.85433">
        <ele>524</ele>
        <time>2019-08-02T08:14:15Z</time>
      </trkpt>
      <trkpt lat="44.23547" lon="5.85427">
        <ele>524</ele>
        <time>2019-08-02T08:14:16Z</time>
      </trkpt>
      <trkpt lat="44.2355" lon="5.85421">
        <ele>524</ele>
        <time>2019-08-02T08:14:17Z</time>
      </trkpt>
      <trkpt lat="44.23553" lon="5.85414">
        <ele>524</ele>
        <time>2019-08-02T08:14:18Z</time>
      </trkpt>
      <trkpt lat="44.23556" lon="5.85408">
        <ele>524</ele>
        <time>2019-08-02T08:14:19Z</time>
      </trkpt>
      <trkpt lat="44.23558" lon="5.854">
        <ele>524</ele>
        <time>2019-08-02T08:14:20Z</time>
      </trkpt>
      <trkpt lat="44.23561" lon="5.85393">
        <ele>524</ele>
        <time>2019-08-02T08:14:21Z</time>
      </trkpt>
      <trkpt lat="44.23563" lon="5.85385">
        <ele>524</ele>
        <time>2019-08-02T08:14:22Z</time>
      </trkpt>
      <trkpt lat="44.23565" lon="5.85378">
        <ele>524</ele>
        <time>2019-08-02T08:14:23Z</time>
      </trkpt>
      <trkpt lat="44.23567" lon="5.8537">
        <ele>524</ele>
        <time>2019-08-02T08:14:24Z</time>
      </trkpt>
      <trkpt lat="44.23569" lon="5.85362">
        <ele>524</ele>
        <time>2019-08-02T08:14:25Z</time>
      </trkpt>
      <trkpt lat="44.23571" lon="5.85354">
        <ele>524</ele>
        <time>2019-08-02T08:14:26Z</time>
      </trkpt>
      <trkpt lat="44.23573" lon="5.85346">
        <ele>524</ele>
        <time>2019-08-02T08:14:27Z</time>
      </trkpt>
      <trkpt lat="44.23575" lon="5.85337">
        <ele>524</ele>
        <time>2019-08-02T08:14:28Z</time>
      </trkpt>
      <trkpt lat="44.23577" lon="5.85329">
        <ele>524</ele>
        <time>2019-08-02T08:14:29Z</time>
      </trkpt>
      <trkpt lat="44.23579" lon="5.85321">
        <ele>524</ele>
        <time>2019-08-02T08:14:30Z</time>
      </trkpt>
      <trkpt lat="44.23581" lon="5.85313">
        <ele>524</ele>
        <time>2019-08-02T08:14:31Z</time>
      </trkpt>
      <trkpt lat="44.23582" lon="5.85304">
        <ele>524</ele>
        <time>2019-08-02T08:14:32Z</time>
      </trkpt>
      <trkpt lat="44.23584" lon="5.85295">
        <ele>524</ele>
        <time>2019-08-02T08:14:33Z</time>
      </trkpt>
      <trkpt lat="44.23586" lon="5.85287">
        <ele>524</ele>
        <time>2019-08-02T08:14:34Z</time>
      </trkpt>
      <trkpt lat="44.23588" lon="5.85278">
        <ele>524</ele>
        <time>2019-08-02T08:14:35Z</time>
      </trkpt>
      <trkpt lat="44.2359" lon="5.85269">
        <ele>524</ele>
        <time>2019-08-02T08:14:36Z</time>
      </trkpt>
      <trkpt lat="44.23592" lon="5.85261">
        <ele>524</ele>
        <time>2019-08-02T08:14:37Z</time>
      </trkpt>
      <trkpt lat="44.23594" lon="5.85252">
        <ele>524</ele>
        <time>2019-08-02T08:14:38Z</time>
      </trkpt>
      <trkpt lat="44.23596" lon="5.85243">
        <ele>524</ele>
        <time>2019-08-02T08:14:39Z</time>
      </trkpt>
      <trkpt lat="44.23598" lon="5.85234">
        <ele>524</ele>
        <time>2019-08-02T08:14:40Z</time>
      </trkpt>
      <trkpt lat="44.236" lon="5.85225">
        <ele>524</ele>
        <time>2019-08-02T08:14:41Z</time>
      </trkpt>
      <trkpt lat="44.23602" lon="5.85216">
        <ele>524</ele>
        <time>2019-08-02T08:14:42Z</time>
      </trkpt>
      <trkpt lat="44.23604" lon="5.85208">
        <ele>524</ele>
        <time>2019-08-02T08:14:43Z</time>
      </trkpt>
      <trkpt lat="44.23606" lon="5.85198">
        <ele>524</ele>
        <time>2019-08-02T08:14:44Z</time>
      </trkpt>
      <trkpt lat="44.23608" lon="5.8519">
        <ele>524</ele>
        <time>2019-08-02T08:14:45Z</time>
      </trkpt>
      <trkpt lat="44.2361" lon="5.85181">
        <ele>524</ele>
        <time>2019-08-02T08:14:46Z</time>
      </trkpt>
      <trkpt lat="44.23613" lon="5.85172">
        <ele>524</ele>
        <time>2019-08-02T08:14:47Z</time>
      </trkpt>
      <trkpt lat="44.23615" lon="5.85163">
        <ele>524</ele>
        <time>2019-08-02T08:14:48Z</time>
      </trkpt>
      <trkpt lat="44.23617" lon="5.85154">
        <ele>524</ele>
        <time>2019-08-02T08:14:49Z</time>
      </trkpt>
      <trkpt lat="44.23619" lon="5.85146">
        <ele>524</ele>
        <time>2019-08-02T08:14:50Z</time>
      </trkpt>
      <trkpt lat="44.23622" lon="5.85137">
        <ele>524</ele>
        <time>2019-08-02T08:14:51Z</time>
      </trkpt>
      <trkpt lat="44.23624" lon="5.85128">
        <ele>524</ele>
        <time>2019-08-02T08:14:52Z</time>
      </trkpt>
      <trkpt lat="44.23627" lon="5.85119">
        <ele>524</ele>
        <time>2019-08-02T08:14:53Z</time>
      </trkpt>
      <trkpt lat="44.2363" lon="5.85111">
        <ele>524</ele>
        <time>2019-08-02T08:14:54Z</time>
      </trkpt>
      <trkpt lat="44.23634" lon="5.85103">
        <ele>524</ele>
        <time>2019-08-02T08:14:55Z</time>
      </trkpt>
      <trkpt lat="44.23638" lon="5.85094">
        <ele>524</ele>
        <time>2019-08-02T08:14:56Z</time>
      </trkpt>
      <trkpt lat="44.23642" lon="5.85087">
        <ele>524</ele>
        <time>2019-08-02T08:14:57Z</time>
      </trkpt>
      <trkpt lat="44.23647" lon="5.8508">
        <ele>524</ele>
        <time>2019-08-02T08:14:58Z</time>
      </trkpt>
      <trkpt lat="44.23652" lon="5.85074">
        <ele>524</ele>
        <time>2019-08-02T08:14:59Z</time>
      </trkpt>
      <trkpt lat="44.23657" lon="5.85068">
        <ele>524</ele>
        <time>2019-08-02T08:15:00Z</time>
      </trkpt>
      <trkpt lat="44.23663" lon="5.85062">
        <ele>524</ele>
        <time>2019-08-02T08:15:01Z</time>
      </trkpt>
      <trkpt lat="44.23668" lon="5.85057">
        <ele>524</ele>
        <time>2019-08-02T08:15:02Z</time>
      </trkpt>
      <trkpt lat="44.23674" lon="5.85052">
        <ele>524</ele>
        <time>2019-08-02T08:15:03Z</time>
      </trkpt>
      <trkpt lat="44.2368" lon="5.85048">
        <ele>524</ele>
        <time>2019-08-02T08:15:04Z</time>
      </trkpt>
      <trkpt lat="44.23686" lon="5.85043">
        <ele>524</ele>
        <time>2019-08-02T08:15:05Z</time>
      </trkpt>
      <trkpt lat="44.23692" lon="5.85039">
        <ele>524</ele>
        <time>2019-08-02T08:15:06Z</time>
      </trkpt>
      <trkpt lat="44.23698" lon="5.85035">
        <ele>524</ele>
        <time>2019-08-02T08:15:07Z</time>
      </trkpt>
      <trkpt lat="44.23703" lon="5.8503">
        <ele>524</ele>
        <time>2019-08-02T08:15:08Z</time>
      </trkpt>
      <trkpt lat="44.23709" lon="5.85026">
        <ele>524</ele>
        <time>2019-08-02T08:15:09Z</time>
      </trkpt>
      <trkpt lat="44.23715" lon="5.85021">
        <ele>524</ele>
        <time>2019-08-02T08:15:10Z</time>
      </trkpt>
      <trkpt lat="44.23721" lon="5.85017">
        <ele>524</ele>
        <time>2019-08-02T08:15:11Z</time>
      </trkpt>
      <trkpt lat="44.23727" lon="5.85012">
        <ele>524</ele>
        <time>2019-08-02T08:15:12Z</time>
      </trkpt>
      <trkpt lat="44.23733" lon="5.85007">
        <ele>524</ele>
        <time>2019-08-02T08:15:13Z</time>
      </trkpt>
      <trkpt lat="44.23739" lon="5.85003">
        <ele>524</ele>
        <time>2019-08-02T08:15:14Z</time>
      </trkpt>
      <trkpt lat="44.23745" lon="5.84998">
        <ele>524</ele>
        <time>2019-08-02T08:15:15Z</time>
      </trkpt>
      <trkpt lat="44.2375" lon="5.84994">
        <ele>524</ele>
        <time>2019-08-02T08:15:16Z</time>
      </trkpt>
      <trkpt lat="44.23756" lon="5.84989">
        <ele>524</ele>
        <time>2019-08-02T08:15:17Z</time>
      </trkpt>
      <trkpt lat="44.23762" lon="5.84984">
        <ele>524</ele>
        <time>2019-08-02T08:15:18Z</time>
      </trkpt>
      <trkpt lat="44.23768" lon="5.8498">
        <ele>524</ele>
        <time>2019-08-02T08:15:19Z</time>
      </trkpt>
      <trkpt lat="44.23774" lon="5.84975">
        <ele>524</ele>
        <time>2019-08-02T08:15:20Z</time>
      </trkpt>
      <trkpt lat="44.2378" lon="5.84971">
        <ele>524</ele>
        <time>2019-08-02T08:15:21Z</time>
      </trkpt>
      <trkpt lat="44.23786" lon="5.84966">
        <ele>524</ele>
        <time>2019-08-02T08:15:22Z</time>
      </trkpt>
      <trkpt lat="44.23792" lon="5.84962">
        <ele>524</ele>
        <time>2019-08-02T08:15:23Z</time>
      </trkpt>
      <trkpt lat="44.23797" lon="5.84957">
        <ele>524</ele>
        <time>2019-08-02T08:15:24Z</time>
      </trkpt>
      <trkpt lat="44.23803" lon="5.84952">
        <ele>524</ele>
        <time>2019-08-02T08:15:25Z</time>
      </trkpt>
      <trkpt lat="44.23809" lon="5.84948">
        <ele>524</ele>
        <time>2019-08-02T08:15:26Z</time>
      </trkpt>
      <trkpt lat="44.23815" lon="5.84943">
        <ele>524</ele>
        <time>2019-08-02T08:15:27Z</time>
      </trkpt>
      <trkpt lat="44.2382" lon="5.84939">
        <ele>524</ele>
        <time>2019-08-02T08:15:28Z</time>
      </trkpt>
      <trkpt lat="44.23826" lon="5.84934">
        <ele>524</ele>
        <time>2019-08-02T08:15:29Z</time>
      </trkpt>
      <trkpt lat="44.23832" lon="5.8493">
        <ele>524</ele>
        <time>2019-08-02T08:15:30Z</time>
      </trkpt>
      <trkpt lat="44.23837" lon="5.84926">
        <ele>524</ele>
        <time>2019-08-02T08:15:31Z</time>
      </trkpt>
      <trkpt lat="44.23843" lon="5.84921">
        <ele>524</ele>
        <time>2019-08-02T08:15:32Z</time>
      </trkpt>
      <trkpt lat="44.23848" lon="5.84917">
        <ele>524</ele>
        <time>2019-08-02T08:15:33Z</time>
      </trkpt>
      <trkpt lat="44.23854" lon="5.84912">
        <ele>524</ele>
        <time>2019-08-02T08:15:34Z</time>
      </trkpt>
      <trkpt lat="44.23859" lon="5.84908">
        <ele>524</ele>
        <time>2019-08-02T08:15:35Z</time>
      </trkpt>
      <trkpt lat="44.23865" lon="5.84904">
        <ele>524</ele>
        <time>2019-08-02T08:15:36Z</time>
      </trkpt>
      <trkpt lat="44.2387" lon="5.84899">
        <ele>524</ele>
        <time>2019-08-02T08:15:37Z</time>
      </trkpt>
      <trkpt lat="44.23876" lon="5.84895">
        <ele>524</ele>
        <time>2019-08-02T08:15:38Z</time>
      </trkpt>
      <trkpt lat="44.23881" lon="5.8489">
        <ele>524</ele>
        <time>2019-08-02T08:15:39Z</time>
      </trkpt>
      <trkpt lat="44.23887" lon="5.84886">
        <ele>524</ele>
        <time>2019-08-02T08:15:40Z</time>
      </trkpt>
      <trkpt lat="44.23893" lon="5.84882">
        <ele>524</ele>
        <time>2019-08-02T08:15:41Z</time>
      </trkpt>
      <trkpt lat="44.23898" lon="5.84877">
        <ele>524</ele>
        <time>2019-08-02T08:15:42Z</time>
      </trkpt>
      <trkpt lat="44.23904" lon="5.84873">
        <ele>524</ele>
        <time>2019-08-02T08:15:43Z</time>
      </trkpt>
      <trkpt lat="44.23909" lon="5.84869">
        <ele>524</ele>
        <time>2019-08-02T08:15:44Z</time>
      </trkpt>
      <trkpt lat="44.23915" lon="5.84864">
        <ele>524</ele>
        <time>2019-08-02T08:15:45Z</time>
      </trkpt>
      <trkpt lat="44.2392" lon="5.8486">
        <ele>524</ele>
        <time>2019-08-02T08:15:46Z</time>
      </trkpt>
      <trkpt lat="44.23926" lon="5.84856">
        <ele>524</ele>
        <time>2019-08-02T08:15:47Z</time>
      </trkpt>
      <trkpt lat="44.23931" lon="5.84851">
        <ele>524</ele>
        <time>2019-08-02T08:15:48Z</time>
      </trkpt>
      <trkpt lat="44.23937" lon="5.84847">
        <ele>524</ele>
        <time>2019-08-02T08:15:49Z</time>
      </trkpt>
      <trkpt lat="44.23942" lon="5.84842">
        <ele>524</ele>
        <time>2019-08-02T08:15:50Z</time>
      </trkpt>
      <trkpt lat="44.23948" lon="5.84838">
        <ele>524</ele>
        <time>2019-08-02T08:15:51Z</time>
      </trkpt>
      <trkpt lat="44.23953" lon="5.84834">
        <ele>524</ele>
        <time>2019-08-02T08:15:52Z</time>
      </trkpt>
      <trkpt lat="44.23959" lon="5.8483">
        <ele>524</ele>
        <time>2019-08-02T08:15:53Z</time>
      </trkpt>
      <trkpt lat="44.23964" lon="5.84826">
        <ele>524</ele>
        <time>2019-08-02T08:15:54Z</time>
      </trkpt>
      <trkpt lat="44.23969" lon="5.84821">
        <ele>524</ele>
        <time>2019-08-02T08:15:55Z</time>
      </trkpt>
      <trkpt lat="44.23975" lon="5.84817">
        <ele>524</ele>
        <time>2019-08-02T08:15:56Z</time>
      </trkpt>
      <trkpt lat="44.2398" lon="5.84812">
        <ele>524</ele>
        <time>2019-08-02T08:15:57Z</time>
      </trkpt>
      <trkpt lat="44.23986" lon="5.84808">
        <ele>524</ele>
        <time>2019-08-02T08:15:58Z</time>
      </trkpt>
      <trkpt lat="44.23991" lon="5.84803">
        <ele>524</ele>
        <time>2019-08-02T08:15:59Z</time>
      </trkpt>
      <trkpt lat="44.23996" lon="5.84799">
        <ele>524</ele>
        <time>2019-08-02T08:16:00Z</time>
      </trkpt>
      <trkpt lat="44.24002" lon="5.84795">
        <ele>524</ele>
        <time>2019-08-02T08:16:01Z</time>
      </trkpt>
      <trkpt lat="44.24007" lon="5.84791">
        <ele>524</ele>
        <time>2019-08-02T08:16:02Z</time>
      </trkpt>
      <trkpt lat="44.24013" lon="5.84786">
        <ele>524</ele>
        <time>2019-08-02T08:16:03Z</time>
      </trkpt>
      <trkpt lat="44.24018" lon="5.84782">
        <ele>524</ele>
        <time>2019-08-02T08:16:04Z</time>
      </trkpt>
      <trkpt lat="44.24023" lon="5.84777">
        <ele>524</ele>
        <time>2019-08-02T08:16:05Z</time>
      </trkpt>
      <trkpt lat="44.24029" lon="5.84773">
        <ele>524</ele>
        <time>2019-08-02T08:16:06Z</time>
      </trkpt>
      <trkpt lat="44.24034" lon="5.84768">
        <ele>524</ele>
        <time>2019-08-02T08:16:07Z</time>
      </trkpt>
      <trkpt lat="44.2404" lon="5.84764">
        <ele>524</ele>
        <time>2019-08-02T08:16:08Z</time>
      </trkpt>
      <trkpt lat="44.24046" lon="5.8476">
        <ele>524</ele>
        <time>2019-08-02T08:16:09Z</time>
      </trkpt>
      <trkpt lat="44.24051" lon="5.84755">
        <ele>524</ele>
        <time>2019-08-02T08:16:10Z</time>
      </trkpt>
      <trkpt lat="44.24057" lon="5.84751">
        <ele>524</ele>
        <time>2019-08-02T08:16:11Z</time>
      </trkpt>
      <trkpt lat="44.24062" lon="5.84747">
        <ele>524</ele>
        <time>2019-08-02T08:16:12Z</time>
      </trkpt>
      <trkpt lat="44.24068" lon="5.84742">
        <ele>524</ele>
        <time>2019-08-02T08:16:13Z</time>
      </trkpt>
      <trkpt lat="44.24073" lon="5.84738">
        <ele>524</ele>
        <time>2019-08-02T08:16:14Z</time>
      </trkpt>
      <trkpt lat="44.24078" lon="5.84733">
        <ele>524</ele>
        <time>2019-08-02T08:16:15Z</time>
      </trkpt>
      <trkpt lat="44.24084" lon="5.84729">
        <ele>524</ele>
        <time>2019-08-02T08:16:16Z</time>
      </trkpt>
      <trkpt lat="44.24089" lon="5.84724">
        <ele>524</ele>
        <time>2019-08-02T08:16:17Z</time>
      </trkpt>
      <trkpt lat="44.24094" lon="5.8472">
        <ele>524</ele>
        <time>2019-08-02T08:16:18Z</time>
      </trkpt>
      <trkpt lat="44.241" lon="5.84716">
        <ele>524</ele>
        <time>2019-08-02T08:16:19Z</time>
      </trkpt>
      <trkpt lat="44.24105" lon="5.84711">
        <ele>524</ele>
        <time>2019-08-02T08:16:20Z</time>
      </trkpt>
      <trkpt lat="44.2411" lon="5.84707">
        <ele>524</ele>
        <time>2019-08-02T08:16:21Z</time>
      </trkpt>
      <trkpt lat="44.24116" lon="5.84702">
        <ele>525</ele>
        <time>2019-08-02T08:16:22Z</time>
      </trkpt>
      <trkpt lat="44.24121" lon="5.84698">
        <ele>525</ele>
        <time>2019-08-02T08:16:23Z</time>
      </trkpt>
      <trkpt lat="44.24127" lon="5.84694">
        <ele>525</ele>
        <time>2019-08-02T08:16:24Z</time>
      </trkpt>
      <trkpt lat="44.24132" lon="5.8469">
        <ele>525</ele>
        <time>2019-08-02T08:16:25Z</time>
      </trkpt>
      <trkpt lat="44.24137" lon="5.84685">
        <ele>525</ele>
        <time>2019-08-02T08:16:26Z</time>
      </trkpt>
      <trkpt lat="44.24143" lon="5.84681">
        <ele>525</ele>
        <time>2019-08-02T08:16:27Z</time>
      </trkpt>
      <trkpt lat="44.24148" lon="5.84676">
        <ele>525</ele>
        <time>2019-08-02T08:16:28Z</time>
      </trkpt>
      <trkpt lat="44.24153" lon="5.84672">
        <ele>526</ele>
        <time>2019-08-02T08:16:29Z</time>
      </trkpt>
      <trkpt lat="44.24159" lon="5.84667">
        <ele>526</ele>
        <time>2019-08-02T08:16:30Z</time>
      </trkpt>
      <trkpt lat="44.24164" lon="5.84663">
        <ele>526</ele>
        <time>2019-08-02T08:16:31Z</time>
      </trkpt>
      <trkpt lat="44.24169" lon="5.84659">
        <ele>526</ele>
        <time>2019-08-02T08:16:32Z</time>
      </trkpt>
      <trkpt lat="44.24174" lon="5.84654">
        <ele>526</ele>
        <time>2019-08-02T08:16:33Z</time>
      </trkpt>
      <trkpt lat="44.2418" lon="5.8465">
        <ele>526</ele>
        <time>2019-08-02T08:16:34Z</time>
      </trkpt>
      <trkpt lat="44.24185" lon="5.84646">
        <ele>526</ele>
        <time>2019-08-02T08:16:35Z</time>
      </trkpt>
      <trkpt lat="44.2419" lon="5.84641">
        <ele>527</ele>
        <time>2019-08-02T08:16:36Z</time>
      </trkpt>
      <trkpt lat="44.24195" lon="5.84637">
        <ele>527</ele>
        <time>2019-08-02T08:16:37Z</time>
      </trkpt>
      <trkpt lat="44.242" lon="5.84633">
        <ele>527</ele>
        <time>2019-08-02T08:16:38Z</time>
      </trkpt>
      <trkpt lat="44.24205" lon="5.84629">
        <ele>527</ele>
        <time>2019-08-02T08:16:39Z</time>
      </trkpt>
      <trkpt lat="44.24211" lon="5.84625">
        <ele>527</ele>
        <time>2019-08-02T08:16:40Z</time>
      </trkpt>
      <trkpt lat="44.24216" lon="5.84621">
        <ele>527</ele>
        <time>2019-08-02T08:16:41Z</time>
      </trkpt>
      <trkpt lat="44.24221" lon="5.84617">
        <ele>527</ele>
        <time>2019-08-02T08:16:42Z</time>
      </trkpt>
      <trkpt lat="44.24226" lon="5.84613">
        <ele>528</ele>
        <time>2019-08-02T08:16:43Z</time>
      </trkpt>
      <trkpt lat="44.24231" lon="5.84609">
        <ele>528</ele>
        <time>2019-08-02T08:16:44Z</time>
      </trkpt>
      <trkpt lat="44.24236" lon="5.84605">
        <ele>528</ele>
        <time>2019-08-02T08:16:45Z</time>
      </trkpt>
      <trkpt lat="44.2424" lon="5.84601">
        <ele>528</ele>
        <time>2019-08-02T08:16:46Z</time>
      </trkpt>
      <trkpt lat="44.24245" lon="5.84597">
        <ele>528</ele>
        <time>2019-08-02T08:16:47Z</time>
      </trkpt>
      <trkpt lat="44.2425" lon="5.84593">
        <ele>528</ele>
        <time>2019-08-02T08:16:48Z</time>
      </trkpt>
      <trkpt lat="44.24255" lon="5.84589">
        <ele>528</ele>
        <time>2019-08-02T08:16:49Z</time>
      </trkpt>
      <trkpt lat="44.2426" lon="5.84585">
        <ele>528</ele>
        <time>2019-08-02T08:16:50Z</time>
      </trkpt>
      <trkpt lat="44.24265" lon="5.84581">
        <ele>529</ele>
        <time>2019-08-02T08:16:51Z</time>
      </trkpt>
      <trkpt lat="44.24269" lon="5.84577">
        <ele>529</ele>
        <time>2019-08-02T08:16:52Z</time>
      </trkpt>
      <trkpt lat="44.24274" lon="5.84574">
        <ele>529</ele>
        <time>2019-08-02T08:16:53Z</time>
      </trkpt>
      <trkpt lat="44.24279" lon="5.8457">
        <ele>529</ele>
        <time>2019-08-02T08:16:54Z</time>
      </trkpt>
      <trkpt lat="44.24284" lon="5.84566">
        <ele>529</ele>
        <time>2019-08-02T08:16:55Z</time>
      </trkpt>
      <trkpt lat="44.24288" lon="5.84562">
        <ele>529</ele>
        <time>2019-08-02T08:16:56Z</time>
      </trkpt>
      <trkpt lat="44.24293" lon="5.84558">
        <ele>530</ele>
        <time>2019-08-02T08:16:57Z</time>
      </trkpt>
      <trkpt lat="44.24297" lon="5.84555">
        <ele>530</ele>
        <time>2019-08-02T08:16:58Z</time>
      </trkpt>
      <trkpt lat="44.24302" lon="5.84552">
        <ele>530</ele>
        <time>2019-08-02T08:16:59Z</time>
      </trkpt>
      <trkpt lat="44.24306" lon="5.84548">
        <ele>530</ele>
        <time>2019-08-02T08:17:00Z</time>
      </trkpt>
      <trkpt lat="44.24311" lon="5.84545">
        <ele>530</ele>
        <time>2019-08-02T08:17:01Z</time>
      </trkpt>
      <trkpt lat="44.24315" lon="5.84541">
        <ele>530</ele>
        <time>2019-08-02T08:17:02Z</time>
      </trkpt>
      <trkpt lat="44.24319" lon="5.84538">
        <ele>531</ele>
        <time>2019-08-02T08:17:03Z</time>
      </trkpt>
      <trkpt lat="44.24324" lon="5.84534">
        <ele>531</ele>
        <time>2019-08-02T08:17:04Z</time>
      </trkpt>
      <trkpt lat="44.24328" lon="5.8453">
        <ele>531</ele>
        <time>2019-08-02T08:17:05Z</time>
      </trkpt>
      <trkpt lat="44.24332" lon="5.84527">
        <ele>531</ele>
        <time>2019-08-02T08:17:06Z</time>
      </trkpt>
      <trkpt lat="44.24336" lon="5.84523">
        <ele>531</ele>
        <time>2019-08-02T08:17:07Z</time>
      </trkpt>
      <trkpt lat="44.2434" lon="5.8452">
        <ele>532</ele>
        <time>2019-08-02T08:17:08Z</time>
      </trkpt>
      <trkpt lat="44.24345" lon="5.84517">
        <ele>532</ele>
        <time>2019-08-02T08:17:09Z</time>
      </trkpt>
      <trkpt lat="44.24349" lon="5.84513">
        <ele>532</ele>
        <time>2019-08-02T08:17:10Z</time>
      </trkpt>
      <trkpt lat="44.24353" lon="5.8451">
        <ele>532</ele>
        <time>2019-08-02T08:17:11Z</time>
      </trkpt>
      <trkpt lat="44.24358" lon="5.84507">
        <ele>532</ele>
        <time>2019-08-02T08:17:12Z</time>
      </trkpt>
      <trkpt lat="44.24362" lon="5.84503">
        <ele>532</ele>
        <time>2019-08-02T08:17:13Z</time>
      </trkpt>
      <trkpt lat="44.24366" lon="5.845">
        <ele>533</ele>
        <time>2019-08-02T08:17:14Z</time>
      </trkpt>
      <trkpt lat="44.24371" lon="5.84496">
        <ele>533</ele>
        <time>2019-08-02T08:17:15Z</time>
      </trkpt>
      <trkpt lat="44.24375" lon="5.84493">
        <ele>533</ele>
        <time>2019-08-02T08:17:16Z</time>
      </trkpt>
      <trkpt lat="44.24379" lon="5.8449">
        <ele>533</ele>
        <time>2019-08-02T08:17:17Z</time>
      </trkpt>
      <trkpt lat="44.24384" lon="5.84486">
        <ele>533</ele>
        <time>2019-08-02T08:17:18Z</time>
      </trkpt>
      <trkpt lat="44.24388" lon="5.84483">
        <ele>533</ele>
        <time>2019-08-02T08:17:19Z</time>
      </trkpt>
      <trkpt lat="44.24392" lon="5.8448">
        <ele>533</ele>
        <time>2019-08-02T08:17:20Z</time>
      </trkpt>
      <trkpt lat="44.24396" lon="5.84477">
        <ele>533</ele>
        <time>2019-08-02T08:17:21Z</time>
      </trkpt>
      <trkpt lat="44.244" lon="5.84473">
        <ele>533</ele>
        <time>2019-08-02T08:17:22Z</time>
      </trkpt>
      <trkpt lat="44.24405" lon="5.8447">
        <ele>534</ele>
        <time>2019-08-02T08:17:23Z</time>
      </trkpt>
      <trkpt lat="44.24409" lon="5.84466">
        <ele>534</ele>
        <time>2019-08-02T08:17:24Z</time>
      </trkpt>
      <trkpt lat="44.24413" lon="5.84463">
        <ele>534</ele>
        <time>2019-08-02T08:17:25Z</time>
      </trkpt>
      <trkpt lat="44.24418" lon="5.8446">
        <ele>534</ele>
        <time>2019-08-02T08:17:26Z</time>
      </trkpt>
      <trkpt lat="44.24422" lon="5.84456">
        <ele>534</ele>
        <time>2019-08-02T08:17:27Z</time>
      </trkpt>
      <trkpt lat="44.24426" lon="5.84453">
        <ele>534</ele>
        <time>2019-08-02T08:17:28Z</time>
      </trkpt>
      <trkpt lat="44.2443" lon="5.8445">
        <ele>534</ele>
        <time>2019-08-02T08:17:29Z</time>
      </trkpt>
      <trkpt lat="44.24435" lon="5.84446">
        <ele>534</ele>
        <time>2019-08-02T08:17:30Z</time>
      </trkpt>
      <trkpt lat="44.24439" lon="5.84443">
        <ele>535</ele>
        <time>2019-08-02T08:17:31Z</time>
      </trkpt>
      <trkpt lat="44.24443" lon="5.8444">
        <ele>535</ele>
        <time>2019-08-02T08:17:32Z</time>
      </trkpt>
      <trkpt lat="44.24448" lon="5.84436">
        <ele>535</ele>
        <time>2019-08-02T08:17:33Z</time>
      </trkpt>
      <trkpt lat="44.24452" lon="5.84433">
        <ele>535</ele>
        <time>2019-08-02T08:17:34Z</time>
      </trkpt>
      <trkpt lat="44.24456" lon="5.84429">
        <ele>535</ele>
        <time>2019-08-02T08:17:35Z</time>
      </trkpt>
      <trkpt lat="44.24461" lon="5.84426">
        <ele>535</ele>
        <time>2019-08-02T08:17:36Z</time>
      </trkpt>
      <trkpt lat="44.24465" lon="5.84422">
        <ele>535</ele>
        <time>2019-08-02T08:17:37Z</time>
      </trkpt>
      <trkpt lat="44.2447" lon="5.84419">
        <ele>535</ele>
        <time>2019-08-02T08:17:38Z</time>
      </trkpt>
      <trkpt lat="44.24474" lon="5.84416">
        <ele>535</ele>
        <time>2019-08-02T08:17:39Z</time>
      </trkpt>
      <trkpt lat="44.24479" lon="5.84412">
        <ele>536</ele>
        <time>2019-08-02T08:17:40Z</time>
      </trkpt>
      <trkpt lat="44.24483" lon="5.84409">
        <ele>536</ele>
        <time>2019-08-02T08:17:41Z</time>
      </trkpt>
      <trkpt lat="44.24487" lon="5.84405">
        <ele>536</ele>
        <time>2019-08-02T08:17:42Z</time>
      </trkpt>
      <trkpt lat="44.24492" lon="5.84402">
        <ele>536</ele>
        <time>2019-08-02T08:17:43Z</time>
      </trkpt>
      <trkpt lat="44.24496" lon="5.84398">
        <ele>536</ele>
        <time>2019-08-02T08:17:44Z</time>
      </trkpt>
      <trkpt lat="44.245" lon="5.84395">
        <ele>536</ele>
        <time>2019-08-02T08:17:45Z</time>
      </trkpt>
      <trkpt lat="44.24505" lon="5.84391">
        <ele>536</ele>
        <time>2019-08-02T08:17:46Z</time>
      </trkpt>
      <trkpt lat="44.24509" lon="5.84388">
        <ele>536</ele>
        <time>2019-08-02T08:17:47Z</time>
      </trkpt>
      <trkpt lat="44.24514" lon="5.84384">
        <ele>537</ele>
        <time>2019-08-02T08:17:48Z</time>
      </trkpt>
      <trkpt lat="44.24518" lon="5.84381">
        <ele>537</ele>
        <time>2019-08-02T08:17:49Z</time>
      </trkpt>
      <trkpt lat="44.24523" lon="5.84377">
        <ele>537</ele>
        <time>2019-08-02T08:17:50Z</time>
      </trkpt>
      <trkpt lat="44.24527" lon="5.84374">
        <ele>537</ele>
        <time>2019-08-02T08:17:51Z</time>
      </trkpt>
      <trkpt lat="44.24532" lon="5.8437">
        <ele>537</ele>
        <time>2019-08-02T08:17:52Z</time>
      </trkpt>
      <trkpt lat="44.24537" lon="5.84366">
        <ele>537</ele>
        <time>2019-08-02T08:17:53Z</time>
      </trkpt>
      <trkpt lat="44.24541" lon="5.84363">
        <ele>537</ele>
        <time>2019-08-02T08:17:54Z</time>
      </trkpt>
      <trkpt lat="44.24546" lon="5.84359">
        <ele>537</ele>
        <time>2019-08-02T08:17:55Z</time>
      </trkpt>
      <trkpt lat="44.24551" lon="5.84355">
        <ele>537</ele>
        <time>2019-08-02T08:17:56Z</time>
      </trkpt>
      <trkpt lat="44.24555" lon="5.84351">
        <ele>537</ele>
        <time>2019-08-02T08:17:57Z</time>
      </trkpt>
      <trkpt lat="44.2456" lon="5.84347">
        <ele>537</ele>
        <time>2019-08-02T08:17:58Z</time>
      </trkpt>
      <trkpt lat="44.24565" lon="5.84344">
        <ele>538</ele>
        <time>2019-08-02T08:17:59Z</time>
      </trkpt>
      <trkpt lat="44.24569" lon="5.8434">
        <ele>538</ele>
        <time>2019-08-02T08:18:00Z</time>
      </trkpt>
      <trkpt lat="44.24574" lon="5.84336">
        <ele>538</ele>
        <time>2019-08-02T08:18:01Z</time>
      </trkpt>
      <trkpt lat="44.24579" lon="5.84333">
        <ele>538</ele>
        <time>2019-08-02T08:18:02Z</time>
      </trkpt>
      <trkpt lat="44.24584" lon="5.84329">
        <ele>538</ele>
        <time>2019-08-02T08:18:03Z</time>
      </trkpt>
      <trkpt lat="44.24589" lon="5.84325">
        <ele>538</ele>
        <time>2019-08-02T08:18:04Z</time>
      </trkpt>
      <trkpt lat="44.24593" lon="5.84321">
        <ele>538</ele>
        <time>2019-08-02T08:18:05Z</time>
      </trkpt>
      <trkpt lat="44.24598" lon="5.84317">
        <ele>538</ele>
        <time>2019-08-02T08:18:06Z</time>
      </trkpt>
      <trkpt lat="44.24603" lon="5.84313">
        <ele>538</ele>
        <time>2019-08-02T08:18:07Z</time>
      </trkpt>
      <trkpt lat="44.24608" lon="5.84309">
        <ele>538</ele>
        <time>2019-08-02T08:18:08Z</time>
      </trkpt>
      <trkpt lat="44.24613" lon="5.84305">
        <ele>538</ele>
        <time>2019-08-02T08:18:09Z</time>
      </trkpt>
      <trkpt lat="44.24618" lon="5.84301">
        <ele>538</ele>
        <time>2019-08-02T08:18:10Z</time>
      </trkpt>
      <trkpt lat="44.24623" lon="5.84297">
        <ele>539</ele>
        <time>2019-08-02T08:18:11Z</time>
      </trkpt>
      <trkpt lat="44.24628" lon="5.84293">
        <ele>539</ele>
        <time>2019-08-02T08:18:12Z</time>
      </trkpt>
      <trkpt lat="44.24633" lon="5.8429">
        <ele>539</ele>
        <time>2019-08-02T08:18:13Z</time>
      </trkpt>
      <trkpt lat="44.24638" lon="5.84285">
        <ele>539</ele>
        <time>2019-08-02T08:18:14Z</time>
      </trkpt>
      <trkpt lat="44.24643" lon="5.84281">
        <ele>539</ele>
        <time>2019-08-02T08:18:15Z</time>
      </trkpt>
      <trkpt lat="44.24648" lon="5.84277">
        <ele>539</ele>
        <time>2019-08-02T08:18:16Z</time>
      </trkpt>
      <trkpt lat="44.24653" lon="5.84273">
        <ele>539</ele>
        <time>2019-08-02T08:18:17Z</time>
      </trkpt>
      <trkpt lat="44.24658" lon="5.84269">
        <ele>539</ele>
        <time>2019-08-02T08:18:18Z</time>
      </trkpt>
      <trkpt lat="44.24663" lon="5.84265">
        <ele>539</ele>
        <time>2019-08-02T08:18:19Z</time>
      </trkpt>
      <trkpt lat="44.24668" lon="5.84261">
        <ele>539</ele>
        <time>2019-08-02T08:18:20Z</time>
      </trkpt>
      <trkpt lat="44.24673" lon="5.84257">
        <ele>539</ele>
        <time>2019-08-02T08:18:21Z</time>
      </trkpt>
      <trkpt lat="44.24678" lon="5.84253">
        <ele>539</ele>
        <time>2019-08-02T08:18:22Z</time>
      </trkpt>
      <trkpt lat="44.24683" lon="5.84248">
        <ele>539</ele>
        <time>2019-08-02T08:18:23Z</time>
      </trkpt>
      <trkpt lat="44.24688" lon="5.84244">
        <ele>539</ele>
        <time>2019-08-02T08:18:24Z</time>
      </trkpt>
      <trkpt lat="44.24693" lon="5.8424">
        <ele>539</ele>
        <time>2019-08-02T08:18:25Z</time>
      </trkpt>
      <trkpt lat="44.24698" lon="5.84236">
        <ele>539</ele>
        <time>2019-08-02T08:18:26Z</time>
      </trkpt>
      <trkpt lat="44.24703" lon="5.84232">
        <ele>539</ele>
        <time>2019-08-02T08:18:27Z</time>
      </trkpt>
      <trkpt lat="44.24709" lon="5.84228">
        <ele>539</ele>
        <time>2019-08-02T08:18:28Z</time>
      </trkpt>
      <trkpt lat="44.24714" lon="5.84224">
        <ele>539</ele>
        <time>2019-08-02T08:18:29Z</time>
      </trkpt>
      <trkpt lat="44.24719" lon="5.84219">
        <ele>539</ele>
        <time>2019-08-02T08:18:30Z</time>
      </trkpt>
      <trkpt lat="44.24724" lon="5.84215">
        <ele>540</ele>
        <time>2019-08-02T08:18:31Z</time>
      </trkpt>
      <trkpt lat="44.24729" lon="5.84211">
        <ele>540</ele>
        <time>2019-08-02T08:18:32Z</time>
      </trkpt>
      <trkpt lat="44.24735" lon="5.84207">
        <ele>540</ele>
        <time>2019-08-02T08:18:33Z</time>
      </trkpt>
      <trkpt lat="44.2474" lon="5.84203">
        <ele>540</ele>
        <time>2019-08-02T08:18:34Z</time>
      </trkpt>
      <trkpt lat="44.24745" lon="5.84198">
        <ele>540</ele>
        <time>2019-08-02T08:18:35Z</time>
      </trkpt>
      <trkpt lat="44.2475" lon="5.84194">
        <ele>540</ele>
        <time>2019-08-02T08:18:36Z</time>
      </trkpt>
      <trkpt lat="44.24755" lon="5.8419">
        <ele>540</ele>
        <time>2019-08-02T08:18:37Z</time>
      </trkpt>
      <trkpt lat="44.24761" lon="5.84186">
        <ele>540</ele>
        <time>2019-08-02T08:18:38Z</time>
      </trkpt>
      <trkpt lat="44.24766" lon="5.84181">
        <ele>540</ele>
        <time>2019-08-02T08:18:39Z</time>
      </trkpt>
      <trkpt lat="44.24771" lon="5.84177">
        <ele>540</ele>
        <time>2019-08-02T08:18:40Z</time>
      </trkpt>
      <trkpt lat="44.24776" lon="5.84173">
        <ele>540</ele>
        <time>2019-08-02T08:18:41Z</time>
      </trkpt>
      <trkpt lat="44.24781" lon="5.84168">
        <ele>540</ele>
        <time>2019-08-02T08:18:42Z</time>
      </trkpt>
      <trkpt lat="44.24787" lon="5.84164">
        <ele>540</ele>
        <time>2019-08-02T08:18:43Z</time>
      </trkpt>
      <trkpt lat="44.24792" lon="5.8416">
        <ele>540</ele>
        <time>2019-08-02T08:18:44Z</time>
      </trkpt>
      <trkpt lat="44.24797" lon="5.84156">
        <ele>540</ele>
        <time>2019-08-02T08:18:45Z</time>
      </trkpt>
      <trkpt lat="44.24802" lon="5.84152">
        <ele>540</ele>
        <time>2019-08-02T08:18:46Z</time>
      </trkpt>
      <trkpt lat="44.24808" lon="5.84147">
        <ele>540</ele>
        <time>2019-08-02T08:18:47Z</time>
      </trkpt>
      <trkpt lat="44.24813" lon="5.84143">
        <ele>540</ele>
        <time>2019-08-02T08:18:48Z</time>
      </trkpt>
      <trkpt lat="44.24818" lon="5.84138">
        <ele>540</ele>
        <time>2019-08-02T08:18:49Z</time>
      </trkpt>
      <trkpt lat="44.24824" lon="5.84134">
        <ele>540</ele>
        <time>2019-08-02T08:18:50Z</time>
      </trkpt>
      <trkpt lat="44.24829" lon="5.84129">
        <ele>540</ele>
        <time>2019-08-02T08:18:51Z</time>
      </trkpt>
      <trkpt lat="44.24835" lon="5.84125">
        <ele>540</ele>
        <time>2019-08-02T08:18:52Z</time>
      </trkpt>
      <trkpt lat="44.24841" lon="5.84121">
        <ele>540</ele>
        <time>2019-08-02T08:18:53Z</time>
      </trkpt>
      <trkpt lat="44.24846" lon="5.84116">
        <ele>540</ele>
        <time>2019-08-02T08:18:54Z</time>
      </trkpt>
      <trkpt lat="44.24852" lon="5.84112">
        <ele>540</ele>
        <time>2019-08-02T08:18:55Z</time>
      </trkpt>
      <trkpt lat="44.24857" lon="5.84107">
        <ele>540</ele>
        <time>2019-08-02T08:18:56Z</time>
      </trkpt>
      <trkpt lat="44.24863" lon="5.84103">
        <ele>540</ele>
        <time>2019-08-02T08:18:57Z</time>
      </trkpt>
      <trkpt lat="44.24869" lon="5.84098">
        <ele>540</ele>
        <time>2019-08-02T08:18:58Z</time>
      </trkpt>
      <trkpt lat="44.24875" lon="5.84093">
        <ele>540</ele>
        <time>2019-08-02T08:18:59Z</time>
      </trkpt>
      <trkpt lat="44.24881" lon="5.84088">
        <ele>540</ele>
        <time>2019-08-02T08:19:00Z</time>
      </trkpt>
      <trkpt lat="44.24886" lon="5.84083">
        <ele>540</ele>
        <time>2019-08-02T08:19:01Z</time>
      </trkpt>
      <trkpt lat="44.24892" lon="5.84079">
        <ele>540</ele>
        <time>2019-08-02T08:19:02Z</time>
      </trkpt>
      <trkpt lat="44.24899" lon="5.84074">
        <ele>540</ele>
        <time>2019-08-02T08:19:03Z</time>
      </trkpt>
      <trkpt lat="44.24905" lon="5.84069">
        <ele>540</ele>
        <time>2019-08-02T08:19:04Z</time>
      </trkpt>
      <trkpt lat="44.24911" lon="5.84064">
        <ele>540</ele>
        <time>2019-08-02T08:19:05Z</time>
      </trkpt>
      <trkpt lat="44.24917" lon="5.84059">
        <ele>540</ele>
        <time>2019-08-02T08:19:06Z</time>
      </trkpt>
      <trkpt lat="44.24923" lon="5.84054">
        <ele>540</ele>
        <time>2019-08-02T08:19:07Z</time>
      </trkpt>
      <trkpt lat="44.24929" lon="5.84048">
        <ele>540</ele>
        <time>2019-08-02T08:19:08Z</time>
      </trkpt>
      <trkpt lat="44.24936" lon="5.84043">
        <ele>540</ele>
        <time>2019-08-02T08:19:09Z</time>
      </trkpt>
      <trkpt lat="44.24942" lon="5.84037">
        <ele>540</ele>
        <time>2019-08-02T08:19:10Z</time>
      </trkpt>
      <trkpt lat="44.24949" lon="5.84031">
        <ele>540</ele>
        <time>2019-08-02T08:19:11Z</time>
      </trkpt>
      <trkpt lat="44.24955" lon="5.84025">
        <ele>540</ele>
        <time>2019-08-02T08:19:12Z</time>
      </trkpt>
      <trkpt lat="44.24961" lon="5.84019">
        <ele>540</ele>
        <time>2019-08-02T08:19:13Z</time>
      </trkpt>
      <trkpt lat="44.24967" lon="5.84012">
        <ele>540</ele>
        <time>2019-08-02T08:19:14Z</time>
      </trkpt>
      <trkpt lat="44.24972" lon="5.84004">
        <ele>540</ele>
        <time>2019-08-02T08:19:15Z</time>
      </trkpt>
      <trkpt lat="44.24977" lon="5.83996">
        <ele>540</ele>
        <time>2019-08-02T08:19:16Z</time>
      </trkpt>
      <trkpt lat="44.24982" lon="5.83988">
        <ele>540</ele>
        <time>2019-08-02T08:19:17Z</time>
      </trkpt>
      <trkpt lat="44.24987" lon="5.83979">
        <ele>540</ele>
        <time>2019-08-02T08:19:18Z</time>
      </trkpt>
      <trkpt lat="44.24991" lon="5.8397">
        <ele>540</ele>
        <time>2019-08-02T08:19:19Z</time>
      </trkpt>
      <trkpt lat="44.24995" lon="5.83961">
        <ele>540</ele>
        <time>2019-08-02T08:19:20Z</time>
      </trkpt>
      <trkpt lat="44.24998" lon="5.83951">
        <ele>540</ele>
        <time>2019-08-02T08:19:21Z</time>
      </trkpt>
      <trkpt lat="44.25002" lon="5.83941">
        <ele>540</ele>
        <time>2019-08-02T08:19:22Z</time>
      </trkpt>
      <trkpt lat="44.25004" lon="5.8393">
        <ele>540</ele>
        <time>2019-08-02T08:19:23Z</time>
      </trkpt>
      <trkpt lat="44.25007" lon="5.8392">
        <ele>540</ele>
        <time>2019-08-02T08:19:24Z</time>
      </trkpt>
      <trkpt lat="44.25009" lon="5.83909">
        <ele>540</ele>
        <time>2019-08-02T08:19:25Z</time>
      </trkpt>
      <trkpt lat="44.25011" lon="5.83898">
        <ele>540</ele>
        <time>2019-08-02T08:19:26Z</time>
      </trkpt>
      <trkpt lat="44.25014" lon="5.83887">
        <ele>540</ele>
        <time>2019-08-02T08:19:27Z</time>
      </trkpt>
      <trkpt lat="44.25016" lon="5.83876">
        <ele>540</ele>
        <time>2019-08-02T08:19:28Z</time>
      </trkpt>
      <trkpt lat="44.25018" lon="5.83865">
        <ele>540</ele>
        <time>2019-08-02T08:19:29Z</time>
      </trkpt>
      <trkpt lat="44.2502" lon="5.83854">
        <ele>540</ele>
        <time>2019-08-02T08:19:30Z</time>
      </trkpt>
      <trkpt lat="44.25023" lon="5.83844">
        <ele>540</ele>
        <time>2019-08-02T08:19:31Z</time>
      </trkpt>
      <trkpt lat="44.25024" lon="5.83833">
        <ele>540</ele>
        <time>2019-08-02T08:19:32Z</time>
      </trkpt>
      <trkpt lat="44.25027" lon="5.83822">
        <ele>540</ele>
        <time>2019-08-02T08:19:33Z</time>
      </trkpt>
      <trkpt lat="44.25029" lon="5.83812">
        <ele>540</ele>
        <time>2019-08-02T08:19:34Z</time>
      </trkpt>
      <trkpt lat="44.25031" lon="5.83801">
        <ele>539</ele>
        <time>2019-08-02T08:19:35Z</time>
      </trkpt>
      <trkpt lat="44.25033" lon="5.83789">
        <ele>539</ele>
        <time>2019-08-02T08:19:36Z</time>
      </trkpt>
      <trkpt lat="44.25035" lon="5.83778">
        <ele>539</ele>
        <time>2019-08-02T08:19:37Z</time>
      </trkpt>
      <trkpt lat="44.25037" lon="5.83767">
        <ele>538</ele>
        <time>2019-08-02T08:19:38Z</time>
      </trkpt>
      <trkpt lat="44.2504" lon="5.83756">
        <ele>538</ele>
        <time>2019-08-02T08:19:39Z</time>
      </trkpt>
      <trkpt lat="44.25042" lon="5.83744">
        <ele>537</ele>
        <time>2019-08-02T08:19:40Z</time>
      </trkpt>
      <trkpt lat="44.25044" lon="5.83733">
        <ele>537</ele>
        <time>2019-08-02T08:19:41Z</time>
      </trkpt>
      <trkpt lat="44.25046" lon="5.83722">
        <ele>536</ele>
        <time>2019-08-02T08:19:42Z</time>
      </trkpt>
      <trkpt lat="44.25048" lon="5.83711">
        <ele>536</ele>
        <time>2019-08-02T08:19:43Z</time>
      </trkpt>
      <trkpt lat="44.2505" lon="5.837">
        <ele>536</ele>
        <time>2019-08-02T08:19:44Z</time>
      </trkpt>
      <trkpt lat="44.25053" lon="5.83689">
        <ele>535</ele>
        <time>2019-08-02T08:19:45Z</time>
      </trkpt>
      <trkpt lat="44.25055" lon="5.83678">
        <ele>535</ele>
        <time>2019-08-02T08:19:46Z</time>
      </trkpt>
      <trkpt lat="44.25057" lon="5.83668">
        <ele>535</ele>
        <time>2019-08-02T08:19:47Z</time>
      </trkpt>
      <trkpt lat="44.25059" lon="5.83657">
        <ele>535</ele>
        <time>2019-08-02T08:19:48Z</time>
      </trkpt>
      <trkpt lat="44.25061" lon="5.83646">
        <ele>534</ele>
        <time>2019-08-02T08:19:49Z</time>
      </trkpt>
      <trkpt lat="44.25063" lon="5.83635">
        <ele>534</ele>
        <time>2019-08-02T08:19:50Z</time>
      </trkpt>
      <trkpt lat="44.25066" lon="5.83624">
        <ele>534</ele>
        <time>2019-08-02T08:19:51Z</time>
      </trkpt>
      <trkpt lat="44.25068" lon="5.83613">
        <ele>534</ele>
        <time>2019-08-02T08:19:52Z</time>
      </trkpt>
      <trkpt lat="44.25069" lon="5.83603">
        <ele>534</ele>
        <time>2019-08-02T08:19:53Z</time>
      </trkpt>
      <trkpt lat="44.25072" lon="5.83592">
        <ele>534</ele>
        <time>2019-08-02T08:19:54Z</time>
      </trkpt>
      <trkpt lat="44.25074" lon="5.83582">
        <ele>534</ele>
        <time>2019-08-02T08:19:55Z</time>
      </trkpt>
      <trkpt lat="44.25076" lon="5.83571">
        <ele>533</ele>
        <time>2019-08-02T08:19:56Z</time>
      </trkpt>
      <trkpt lat="44.25078" lon="5.83561">
        <ele>533</ele>
        <time>2019-08-02T08:19:57Z</time>
      </trkpt>
      <trkpt lat="44.2508" lon="5.83551">
        <ele>533</ele>
        <time>2019-08-02T08:19:58Z</time>
      </trkpt>
      <trkpt lat="44.25082" lon="5.8354">
        <ele>533</ele>
        <time>2019-08-02T08:19:59Z</time>
      </trkpt>
      <trkpt lat="44.25084" lon="5.8353">
        <ele>533</ele>
        <time>2019-08-02T08:20:00Z</time>
      </trkpt>
      <trkpt lat="44.25087" lon="5.8352">
        <ele>533</ele>
        <time>2019-08-02T08:20:01Z</time>
      </trkpt>
      <trkpt lat="44.25089" lon="5.8351">
        <ele>533</ele>
        <time>2019-08-02T08:20:02Z</time>
      </trkpt>
      <trkpt lat="44.25092" lon="5.835">
        <ele>533</ele>
        <time>2019-08-02T08:20:03Z</time>
      </trkpt>
      <trkpt lat="44.25095" lon="5.83491">
        <ele>533</ele>
        <time>2019-08-02T08:20:04Z</time>
      </trkpt>
      <trkpt lat="44.25099" lon="5.83481">
        <ele>533</ele>
        <time>2019-08-02T08:20:05Z</time>
      </trkpt>
      <trkpt lat="44.25103" lon="5.83472">
        <ele>532</ele>
        <time>2019-08-02T08:20:06Z</time>
      </trkpt>
      <trkpt lat="44.25107" lon="5.83462">
        <ele>532</ele>
        <time>2019-08-02T08:20:07Z</time>
      </trkpt>
      <trkpt lat="44.25111" lon="5.83454">
        <ele>532</ele>
        <time>2019-08-02T08:20:08Z</time>
      </trkpt>
      <trkpt lat="44.25116" lon="5.83444">
        <ele>532</ele>
        <time>2019-08-02T08:20:09Z</time>
      </trkpt>
      <trkpt lat="44.2512" lon="5.83436">
        <ele>532</ele>
        <time>2019-08-02T08:20:10Z</time>
      </trkpt>
      <trkpt lat="44.25126" lon="5.83427">
        <ele>532</ele>
        <time>2019-08-02T08:20:11Z</time>
      </trkpt>
      <trkpt lat="44.25131" lon="5.83419">
        <ele>532</ele>
        <time>2019-08-02T08:20:12Z</time>
      </trkpt>
      <trkpt lat="44.25137" lon="5.83411">
        <ele>532</ele>
        <time>2019-08-02T08:20:13Z</time>
      </trkpt>
      <trkpt lat="44.25142" lon="5.83403">
        <ele>532</ele>
        <time>2019-08-02T08:20:14Z</time>
      </trkpt>
      <trkpt lat="44.25148" lon="5.83396">
        <ele>532</ele>
        <time>2019-08-02T08:20:15Z</time>
      </trkpt>
      <trkpt lat="44.25155" lon="5.83389">
        <ele>532</ele>
        <time>2019-08-02T08:20:16Z</time>
      </trkpt>
      <trkpt lat="44.25161" lon="5.83382">
        <ele>532</ele>
        <time>2019-08-02T08:20:17Z</time>
      </trkpt>
      <trkpt lat="44.25168" lon="5.83375">
        <ele>532</ele>
        <time>2019-08-02T08:20:18Z</time>
      </trkpt>
      <trkpt lat="44.25175" lon="5.83369">
        <ele>532</ele>
        <time>2019-08-02T08:20:19Z</time>
      </trkpt>
      <trkpt lat="44.25182" lon="5.83363">
        <ele>532</ele>
        <time>2019-08-02T08:20:20Z</time>
      </trkpt>
      <trkpt lat="44.25189" lon="5.83357">
        <ele>531</ele>
        <time>2019-08-02T08:20:21Z</time>
      </trkpt>
      <trkpt lat="44.25196" lon="5.83351">
        <ele>531</ele>
        <time>2019-08-02T08:20:22Z</time>
      </trkpt>
      <trkpt lat="44.25204" lon="5.83345">
        <ele>531</ele>
        <time>2019-08-02T08:20:23Z</time>
      </trkpt>
      <trkpt lat="44.25211" lon="5.8334">
        <ele>531</ele>
        <time>2019-08-02T08:20:24Z</time>
      </trkpt>
      <trkpt lat="44.25219" lon="5.83334">
        <ele>530</ele>
        <time>2019-08-02T08:20:25Z</time>
      </trkpt>
      <trkpt lat="44.25226" lon="5.83328">
        <ele>530</ele>
        <time>2019-08-02T08:20:26Z</time>
      </trkpt>
      <trkpt lat="44.25234" lon="5.83322">
        <ele>530</ele>
        <time>2019-08-02T08:20:27Z</time>
      </trkpt>
      <trkpt lat="44.25241" lon="5.83316">
        <ele>530</ele>
        <time>2019-08-02T08:20:28Z</time>
      </trkpt>
      <trkpt lat="44.25249" lon="5.8331">
        <ele>530</ele>
        <time>2019-08-02T08:20:29Z</time>
      </trkpt>
      <trkpt lat="44.25257" lon="5.83303">
        <ele>530</ele>
        <time>2019-08-02T08:20:30Z</time>
      </trkpt>
      <trkpt lat="44.25265" lon="5.83296">
        <ele>529</ele>
        <time>2019-08-02T08:20:31Z</time>
      </trkpt>
      <trkpt lat="44.25273" lon="5.83289">
        <ele>529</ele>
        <time>2019-08-02T08:20:32Z</time>
      </trkpt>
      <trkpt lat="44.25281" lon="5.83282">
        <ele>529</ele>
        <time>2019-08-02T08:20:33Z</time>
      </trkpt>
      <trkpt lat="44.25288" lon="5.83275">
        <ele>529</ele>
        <time>2019-08-02T08:20:34Z</time>
      </trkpt>
      <trkpt lat="44.25296" lon="5.83267">
        <ele>528</ele>
        <time>2019-08-02T08:20:35Z</time>
      </trkpt>
      <trkpt lat="44.25304" lon="5.83259">
        <ele>528</ele>
        <time>2019-08-02T08:20:36Z</time>
      </trkpt>
      <trkpt lat="44.25311" lon="5.83252">
        <ele>528</ele>
        <time>2019-08-02T08:20:37Z</time>
      </trkpt>
      <trkpt lat="44.25319" lon="5.83244">
        <ele>528</ele>
        <time>2019-08-02T08:20:38Z</time>
      </trkpt>
      <trkpt lat="44.25327" lon="5.83237">
        <ele>527</ele>
        <time>2019-08-02T08:20:39Z</time>
      </trkpt>
      <trkpt lat="44.25334" lon="5.83229">
        <ele>527</ele>
        <time>2019-08-02T08:20:40Z</time>
      </trkpt>
      <trkpt lat="44.25342" lon="5.83222">
        <ele>527</ele>
        <time>2019-08-02T08:20:41Z</time>
      </trkpt>
      <trkpt lat="44.25349" lon="5.83214">
        <ele>526</ele>
        <time>2019-08-02T08:20:42Z</time>
      </trkpt>
      <trkpt lat="44.25357" lon="5.83207">
        <ele>526</ele>
        <time>2019-08-02T08:20:43Z</time>
      </trkpt>
      <trkpt lat="44.25365" lon="5.83199">
        <ele>526</ele>
        <time>2019-08-02T08:20:44Z</time>
      </trkpt>
      <trkpt lat="44.25372" lon="5.83192">
        <ele>526</ele>
        <time>2019-08-02T08:20:45Z</time>
      </trkpt>
      <trkpt lat="44.25379" lon="5.83184">
        <ele>526</ele>
        <time>2019-08-02T08:20:46Z</time>
      </trkpt>
      <trkpt lat="44.25386" lon="5.83177">
        <ele>525</ele>
        <time>2019-08-02T08:20:47Z</time>
      </trkpt>
      <trkpt lat="44.25393" lon="5.8317">
        <ele>525</ele>
        <time>2019-08-02T08:20:48Z</time>
      </trkpt>
      <trkpt lat="44.25399" lon="5.83162">
        <ele>525</ele>
        <time>2019-08-02T08:20:49Z</time>
      </trkpt>
      <trkpt lat="44.25406" lon="5.83154">
        <ele>525</ele>
        <time>2019-08-02T08:20:50Z</time>
      </trkpt>
      <trkpt lat="44.25412" lon="5.83146">
        <ele>525</ele>
        <time>2019-08-02T08:20:51Z</time>
      </trkpt>
      <trkpt lat="44.25417" lon="5.83138">
        <ele>524</ele>
        <time>2019-08-02T08:20:52Z</time>
      </trkpt>
      <trkpt lat="44.25423" lon="5.8313">
        <ele>524</ele>
        <time>2019-08-02T08:20:53Z</time>
      </trkpt>
      <trkpt lat="44.25429" lon="5.83121">
        <ele>524</ele>
        <time>2019-08-02T08:20:54Z</time>
      </trkpt>
      <trkpt lat="44.25434" lon="5.83113">
        <ele>524</ele>
        <time>2019-08-02T08:20:55Z</time>
      </trkpt>
      <trkpt lat="44.25439" lon="5.83104">
        <ele>523</ele>
        <time>2019-08-02T08:20:56Z</time>
      </trkpt>
      <trkpt lat="44.25444" lon="5.83095">
        <ele>523</ele>
        <time>2019-08-02T08:20:57Z</time>
      </trkpt>
      <trkpt lat="44.25449" lon="5.83086">
        <ele>523</ele>
        <time>2019-08-02T08:20:58Z</time>
      </trkpt>
      <trkpt lat="44.25453" lon="5.83077">
        <ele>522</ele>
        <time>2019-08-02T08:20:59Z</time>
      </trkpt>
      <trkpt lat="44.25457" lon="5.83068">
        <ele>522</ele>
        <time>2019-08-02T08:21:00Z</time>
      </trkpt>
      <trkpt lat="44.25462" lon="5.83059">
        <ele>522</ele>
        <time>2019-08-02T08:21:01Z</time>
      </trkpt>
      <trkpt lat="44.25466" lon="5.83049">
        <ele>521</ele>
        <time>2019-08-02T08:21:02Z</time>
      </trkpt>
      <trkpt lat="44.2547" lon="5.8304">
        <ele>521</ele>
        <time>2019-08-02T08:21:03Z</time>
      </trkpt>
      <trkpt lat="44.25473" lon="5.8303">
        <ele>521</ele>
        <time>2019-08-02T08:21:04Z</time>
      </trkpt>
      <trkpt lat="44.25477" lon="5.83021">
        <ele>520</ele>
        <time>2019-08-02T08:21:05Z</time>
      </trkpt>
      <trkpt lat="44.2548" lon="5.83011">
        <ele>520</ele>
        <time>2019-08-02T08:21:06Z</time>
      </trkpt>
      <trkpt lat="44.25483" lon="5.83001">
        <ele>520</ele>
        <time>2019-08-02T08:21:07Z</time>
      </trkpt>
      <trkpt lat="44.25486" lon="5.82992">
        <ele>520</ele>
        <time>2019-08-02T08:21:08Z</time>
      </trkpt>
      <trkpt lat="44.25489" lon="5.82982">
        <ele>520</ele>
        <time>2019-08-02T08:21:09Z</time>
      </trkpt>
      <trkpt lat="44.25491" lon="5.82972">
        <ele>520</ele>
        <time>2019-08-02T08:21:10Z</time>
      </trkpt>
      <trkpt lat="44.25494" lon="5.82962">
        <ele>520</ele>
        <time>2019-08-02T08:21:11Z</time>
      </trkpt>
      <trkpt lat="44.25496" lon="5.82952">
        <ele>520</ele>
        <time>2019-08-02T08:21:12Z</time>
      </trkpt>
      <trkpt lat="44.25499" lon="5.82943">
        <ele>520</ele>
        <time>2019-08-02T08:21:13Z</time>
      </trkpt>
      <trkpt lat="44.25501" lon="5.82934">
        <ele>520</ele>
        <time>2019-08-02T08:21:14Z</time>
      </trkpt>
      <trkpt lat="44.25503" lon="5.82924">
        <ele>520</ele>
        <time>2019-08-02T08:21:15Z</time>
      </trkpt>
      <trkpt lat="44.25506" lon="5.82915">
        <ele>520</ele>
        <time>2019-08-02T08:21:16Z</time>
      </trkpt>
      <trkpt lat="44.25508" lon="5.82906">
        <ele>520</ele>
        <time>2019-08-02T08:21:17Z</time>
      </trkpt>
      <trkpt lat="44.2551" lon="5.82898">
        <ele>520</ele>
        <time>2019-08-02T08:21:18Z</time>
      </trkpt>
      <trkpt lat="44.25512" lon="5.82889">
        <ele>520</ele>
        <time>2019-08-02T08:21:19Z</time>
      </trkpt>
      <trkpt lat="44.25514" lon="5.8288">
        <ele>520</ele>
        <time>2019-08-02T08:21:20Z</time>
      </trkpt>
      <trkpt lat="44.25516" lon="5.82871">
        <ele>520</ele>
        <time>2019-08-02T08:21:21Z</time>
      </trkpt>
      <trkpt lat="44.25518" lon="5.82863">
        <ele>520</ele>
        <time>2019-08-02T08:21:22Z</time>
      </trkpt>
      <trkpt lat="44.25521" lon="5.82855">
        <ele>520</ele>
        <time>2019-08-02T08:21:23Z</time>
      </trkpt>
      <trkpt lat="44.25523" lon="5.82846">
        <ele>520</ele>
        <time>2019-08-02T08:21:24Z</time>
      </trkpt>
      <trkpt lat="44.25525" lon="5.82838">
        <ele>520</ele>
        <time>2019-08-02T08:21:25Z</time>
      </trkpt>
      <trkpt lat="44.25528" lon="5.8283">
        <ele>520</ele>
        <time>2019-08-02T08:21:26Z</time>
      </trkpt>
      <trkpt lat="44.2553" lon="5.82822">
        <ele>520</ele>
        <time>2019-08-02T08:21:27Z</time>
      </trkpt>
      <trkpt lat="44.25532" lon="5.82813">
        <ele>520</ele>
        <time>2019-08-02T08:21:28Z</time>
      </trkpt>
      <trkpt lat="44.25534" lon="5.82805">
        <ele>520</ele>
        <time>2019-08-02T08:21:29Z</time>
      </trkpt>
      <trkpt lat="44.25537" lon="5.82797">
        <ele>520</ele>
        <time>2019-08-02T08:21:30Z</time>
      </trkpt>
      <trkpt lat="44.25539" lon="5.82789">
        <ele>520</ele>
        <time>2019-08-02T08:21:31Z</time>
      </trkpt>
      <trkpt lat="44.25542" lon="5.82782">
        <ele>520</ele>
        <time>2019-08-02T08:21:32Z</time>
      </trkpt>
      <trkpt lat="44.25545" lon="5.82774">
        <ele>520</ele>
        <time>2019-08-02T08:21:33Z</time>
      </trkpt>
      <trkpt lat="44.25547" lon="5.82767">
        <ele>520</ele>
        <time>2019-08-02T08:21:34Z</time>
      </trkpt>
      <trkpt lat="44.2555" lon="5.82759">
        <ele>520</ele>
        <time>2019-08-02T08:21:35Z</time>
      </trkpt>
      <trkpt lat="44.25553" lon="5.82752">
        <ele>520</ele>
        <time>2019-08-02T08:21:36Z</time>
      </trkpt>
      <trkpt lat="44.25555" lon="5.82745">
        <ele>520</ele>
        <time>2019-08-02T08:21:37Z</time>
      </trkpt>
      <trkpt lat="44.25558" lon="5.82737">
        <ele>520</ele>
        <time>2019-08-02T08:21:38Z</time>
      </trkpt>
      <trkpt lat="44.25561" lon="5.8273">
        <ele>520</ele>
        <time>2019-08-02T08:21:39Z</time>
      </trkpt>
      <trkpt lat="44.25564" lon="5.82724">
        <ele>520</ele>
        <time>2019-08-02T08:21:40Z</time>
      </trkpt>
      <trkpt lat="44.25567" lon="5.82717">
        <ele>520</ele>
        <time>2019-08-02T08:21:41Z</time>
      </trkpt>
      <trkpt lat="44.2557" lon="5.8271">
        <ele>520</ele>
        <time>2019-08-02T08:21:42Z</time>
      </trkpt>
      <trkpt lat="44.25573" lon="5.82703">
        <ele>520</ele>
        <time>2019-08-02T08:21:43Z</time>
      </trkpt>
      <trkpt lat="44.25576" lon="5.82696">
        <ele>520</ele>
        <time>2019-08-02T08:21:44Z</time>
      </trkpt>
      <trkpt lat="44.25579" lon="5.82689">
        <ele>520</ele>
        <time>2019-08-02T08:21:45Z</time>
      </trkpt>
      <trkpt lat="44.25582" lon="5.82683">
        <ele>520</ele>
        <time>2019-08-02T08:21:46Z</time>
      </trkpt>
      <trkpt lat="44.25586" lon="5.82676">
        <ele>520</ele>
        <time>2019-08-02T08:21:47Z</time>
      </trkpt>
      <trkpt lat="44.25589" lon="5.82669">
        <ele>520</ele>
        <time>2019-08-02T08:21:48Z</time>
      </trkpt>
      <trkpt lat="44.25592" lon="5.82662">
        <ele>520</ele>
        <time>2019-08-02T08:21:49Z</time>
      </trkpt>
      <trkpt lat="44.25595" lon="5.82656">
        <ele>520</ele>
        <time>2019-08-02T08:21:50Z</time>
      </trkpt>
      <trkpt lat="44.25599" lon="5.82649">
        <ele>521</ele>
        <time>2019-08-02T08:21:51Z</time>
      </trkpt>
      <trkpt lat="44.25602" lon="5.82643">
        <ele>521</ele>
        <time>2019-08-02T08:21:52Z</time>
      </trkpt>
      <trkpt lat="44.25606" lon="5.82636">
        <ele>521</ele>
        <time>2019-08-02T08:21:53Z</time>
      </trkpt>
      <trkpt lat="44.2561" lon="5.82629">
        <ele>521</ele>
        <time>2019-08-02T08:21:54Z</time>
      </trkpt>
      <trkpt lat="44.25613" lon="5.82623">
        <ele>521</ele>
        <time>2019-08-02T08:21:55Z</time>
      </trkpt>
      <trkpt lat="44.25617" lon="5.82616">
        <ele>521</ele>
        <time>2019-08-02T08:21:56Z</time>
      </trkpt>
      <trkpt lat="44.25621" lon="5.8261">
        <ele>521</ele>
        <time>2019-08-02T08:21:57Z</time>
      </trkpt>
      <trkpt lat="44.25624" lon="5.82604">
        <ele>521</ele>
        <time>2019-08-02T08:21:58Z</time>
      </trkpt>
      <trkpt lat="44.25628" lon="5.82597">
        <ele>521</ele>
        <time>2019-08-02T08:21:59Z</time>
      </trkpt>
      <trkpt lat="44.25631" lon="5.82591">
        <ele>521</ele>
        <time>2019-08-02T08:22:00Z</time>
      </trkpt>
      <trkpt lat="44.25635" lon="5.82586">
        <ele>521</ele>
        <time>2019-08-02T08:22:01Z</time>
      </trkpt>
      <trkpt lat="44.25639" lon="5.8258">
        <ele>521</ele>
        <time>2019-08-02T08:22:02Z</time>
      </trkpt>
      <trkpt lat="44.25642" lon="5.82574">
        <ele>521</ele>
        <time>2019-08-02T08:22:03Z</time>
      </trkpt>
      <trkpt lat="44.25646" lon="5.82568">
        <ele>521</ele>
        <time>2019-08-02T08:22:04Z</time>
      </trkpt>
      <trkpt lat="44.2565" lon="5.82562">
        <ele>521</ele>
        <time>2019-08-02T08:22:05Z</time>
      </trkpt>
      <trkpt lat="44.25653" lon="5.82556">
        <ele>521</ele>
        <time>2019-08-02T08:22:06Z</time>
      </trkpt>
      <trkpt lat="44.25657" lon="5.8255">
        <ele>521</ele>
        <time>2019-08-02T08:22:07Z</time>
      </trkpt>
      <trkpt lat="44.25661" lon="5.82545">
        <ele>521</ele>
        <time>2019-08-02T08:22:08Z</time>
      </trkpt>
      <trkpt lat="44.25665" lon="5.8254">
        <ele>521</ele>
        <time>2019-08-02T08:22:09Z</time>
      </trkpt>
      <trkpt lat="44.25668" lon="5.82534">
        <ele>521</ele>
        <time>2019-08-02T08:22:10Z</time>
      </trkpt>
      <trkpt lat="44.25673" lon="5.82529">
        <ele>521</ele>
        <time>2019-08-02T08:22:11Z</time>
      </trkpt>
      <trkpt lat="44.25677" lon="5.82524">
        <ele>521</ele>
        <time>2019-08-02T08:22:12Z</time>
      </trkpt>
      <trkpt lat="44.25681" lon="5.82519">
        <ele>521</ele>
        <time>2019-08-02T08:22:13Z</time>
      </trkpt>
      <trkpt lat="44.25685" lon="5.82514">
        <ele>521</ele>
        <time>2019-08-02T08:22:14Z</time>
      </trkpt>
      <trkpt lat="44.25689" lon="5.82509">
        <ele>521</ele>
        <time>2019-08-02T08:22:15Z</time>
      </trkpt>
      <trkpt lat="44.25693" lon="5.82505">
        <ele>521</ele>
        <time>2019-08-02T08:22:16Z</time>
      </trkpt>
      <trkpt lat="44.25697" lon="5.825">
        <ele>521</ele>
        <time>2019-08-02T08:22:17Z</time>
      </trkpt>
      <trkpt lat="44.25701" lon="5.82495">
        <ele>521</ele>
        <time>2019-08-02T08:22:18Z</time>
      </trkpt>
      <trkpt lat="44.25705" lon="5.8249">
        <ele>521</ele>
        <time>2019-08-02T08:22:19Z</time>
      </trkpt>
      <trkpt lat="44.2571" lon="5.82485">
        <ele>521</ele>
        <time>2019-08-02T08:22:20Z</time>
      </trkpt>
      <trkpt lat="44.25714" lon="5.82481">
        <ele>521</ele>
        <time>2019-08-02T08:22:21Z</time>
      </trkpt>
      <trkpt lat="44.25719" lon="5.82476">
        <ele>521</ele>
        <time>2019-08-02T08:22:22Z</time>
      </trkpt>
      <trkpt lat="44.25723" lon="5.82472">
        <ele>521</ele>
        <time>2019-08-02T08:22:23Z</time>
      </trkpt>
      <trkpt lat="44.25728" lon="5.82467">
        <ele>522</ele>
        <time>2019-08-02T08:22:24Z</time>
      </trkpt>
      <trkpt lat="44.25732" lon="5.82463">
        <ele>522</ele>
        <time>2019-08-02T08:22:25Z</time>
      </trkpt>
      <trkpt lat="44.25737" lon="5.82458">
        <ele>522</ele>
        <time>2019-08-02T08:22:26Z</time>
      </trkpt>
      <trkpt lat="44.25741" lon="5.82453">
        <ele>522</ele>
        <time>2019-08-02T08:22:27Z</time>
      </trkpt>
      <trkpt lat="44.25745" lon="5.82449">
        <ele>522</ele>
        <time>2019-08-02T08:22:28Z</time>
      </trkpt>
      <trkpt lat="44.2575" lon="5.82444">
        <ele>522</ele>
        <time>2019-08-02T08:22:29Z</time>
      </trkpt>
      <trkpt lat="44.25755" lon="5.8244">
        <ele>522</ele>
        <time>2019-08-02T08:22:30Z</time>
      </trkpt>
      <trkpt lat="44.25759" lon="5.82435">
        <ele>522</ele>
        <time>2019-08-02T08:22:31Z</time>
      </trkpt>
      <trkpt lat="44.25764" lon="5.82431">
        <ele>522</ele>
        <time>2019-08-02T08:22:32Z</time>
      </trkpt>
      <trkpt lat="44.25769" lon="5.82426">
        <ele>522</ele>
        <time>2019-08-02T08:22:33Z</time>
      </trkpt>
      <trkpt lat="44.25773" lon="5.82422">
        <ele>522</ele>
        <time>2019-08-02T08:22:34Z</time>
      </trkpt>
      <trkpt lat="44.25778" lon="5.82417">
        <ele>522</ele>
        <time>2019-08-02T08:22:35Z</time>
      </trkpt>
      <trkpt lat="44.25783" lon="5.82413">
        <ele>522</ele>
        <time>2019-08-02T08:22:36Z</time>
      </trkpt>
      <trkpt lat="44.25788" lon="5.82409">
        <ele>522</ele>
        <time>2019-08-02T08:22:37Z</time>
      </trkpt>
      <trkpt lat="44.25793" lon="5.82405">
        <ele>522</ele>
        <time>2019-08-02T08:22:38Z</time>
      </trkpt>
      <trkpt lat="44.25798" lon="5.82401">
        <ele>523</ele>
        <time>2019-08-02T08:22:39Z</time>
      </trkpt>
      <trkpt lat="44.25803" lon="5.82397">
        <ele>523</ele>
        <time>2019-08-02T08:22:40Z</time>
      </trkpt>
      <trkpt lat="44.25808" lon="5.82393">
        <ele>523</ele>
        <time>2019-08-02T08:22:41Z</time>
      </trkpt>
      <trkpt lat="44.25813" lon="5.8239">
        <ele>523</ele>
        <time>2019-08-02T08:22:42Z</time>
      </trkpt>
      <trkpt lat="44.25819" lon="5.82386">
        <ele>523</ele>
        <time>2019-08-02T08:22:43Z</time>
      </trkpt>
      <trkpt lat="44.25824" lon="5.82383">
        <ele>523</ele>
        <time>2019-08-02T08:22:44Z</time>
      </trkpt>
      <trkpt lat="44.25829" lon="5.82379">
        <ele>523</ele>
        <time>2019-08-02T08:22:45Z</time>
      </trkpt>
      <trkpt lat="44.25835" lon="5.82376">
        <ele>523</ele>
        <time>2019-08-02T08:22:46Z</time>
      </trkpt>
      <trkpt lat="44.2584" lon="5.82374">
        <ele>523</ele>
        <time>2019-08-02T08:22:47Z</time>
      </trkpt>
      <trkpt lat="44.25846" lon="5.82371">
        <ele>523</ele>
        <time>2019-08-02T08:22:48Z</time>
      </trkpt>
      <trkpt lat="44.25852" lon="5.82368">
        <ele>523</ele>
        <time>2019-08-02T08:22:49Z</time>
      </trkpt>
      <trkpt lat="44.25858" lon="5.82366">
        <ele>523</ele>
        <time>2019-08-02T08:22:50Z</time>
      </trkpt>
      <trkpt lat="44.25863" lon="5.82364">
        <ele>523</ele>
        <time>2019-08-02T08:22:51Z</time>
      </trkpt>
      <trkpt lat="44.25869" lon="5.82362">
        <ele>524</ele>
        <time>2019-08-02T08:22:52Z</time>
      </trkpt>
      <trkpt lat="44.25875" lon="5.8236">
        <ele>524</ele>
        <time>2019-08-02T08:22:53Z</time>
      </trkpt>
      <trkpt lat="44.25881" lon="5.82358">
        <ele>524</ele>
        <time>2019-08-02T08:22:54Z</time>
      </trkpt>
      <trkpt lat="44.25887" lon="5.82357">
        <ele>524</ele>
        <time>2019-08-02T08:22:55Z</time>
      </trkpt>
      <trkpt lat="44.25893" lon="5.82355">
        <ele>524</ele>
        <time>2019-08-02T08:22:56Z</time>
      </trkpt>
      <trkpt lat="44.25898" lon="5.82354">
        <ele>524</ele>
        <time>2019-08-02T08:22:57Z</time>
      </trkpt>
      <trkpt lat="44.25904" lon="5.82352">
        <ele>524</ele>
        <time>2019-08-02T08:22:58Z</time>
      </trkpt>
      <trkpt lat="44.25911" lon="5.82351">
        <ele>525</ele>
        <time>2019-08-02T08:22:59Z</time>
      </trkpt>
      <trkpt lat="44.25917" lon="5.8235">
        <ele>525</ele>
        <time>2019-08-02T08:23:00Z</time>
      </trkpt>
      <trkpt lat="44.25923" lon="5.82349">
        <ele>525</ele>
        <time>2019-08-02T08:23:01Z</time>
      </trkpt>
      <trkpt lat="44.25929" lon="5.82348">
        <ele>525</ele>
        <time>2019-08-02T08:23:02Z</time>
      </trkpt>
      <trkpt lat="44.25935" lon="5.82347">
        <ele>525</ele>
        <time>2019-08-02T08:23:03Z</time>
      </trkpt>
      <trkpt lat="44.25941" lon="5.82347">
        <ele>525</ele>
        <time>2019-08-02T08:23:04Z</time>
      </trkpt>
      <trkpt lat="44.25947" lon="5.82346">
        <ele>525</ele>
        <time>2019-08-02T08:23:05Z</time>
      </trkpt>
      <trkpt lat="44.25953" lon="5.82345">
        <ele>526</ele>
        <time>2019-08-02T08:23:06Z</time>
      </trkpt>
      <trkpt lat="44.2596" lon="5.82345">
        <ele>526</ele>
        <time>2019-08-02T08:23:07Z</time>
      </trkpt>
      <trkpt lat="44.25966" lon="5.82345">
        <ele>526</ele>
        <time>2019-08-02T08:23:08Z</time>
      </trkpt>
      <trkpt lat="44.25972" lon="5.82344">
        <ele>526</ele>
        <time>2019-08-02T08:23:09Z</time>
      </trkpt>
      <trkpt lat="44.25979" lon="5.82343">
        <ele>526</ele>
        <time>2019-08-02T08:23:10Z</time>
      </trkpt>
      <trkpt lat="44.25985" lon="5.82343">
        <ele>526</ele>
        <time>2019-08-02T08:23:11Z</time>
      </trkpt>
      <trkpt lat="44.25992" lon="5.82342">
        <ele>526</ele>
        <time>2019-08-02T08:23:12Z</time>
      </trkpt>
      <trkpt lat="44.25999" lon="5.82341">
        <ele>526</ele>
        <time>2019-08-02T08:23:13Z</time>
      </trkpt>
      <trkpt lat="44.26005" lon="5.82341">
        <ele>526</ele>
        <time>2019-08-02T08:23:14Z</time>
      </trkpt>
      <trkpt lat="44.26012" lon="5.8234">
        <ele>526</ele>
        <time>2019-08-02T08:23:15Z</time>
      </trkpt>
      <trkpt lat="44.26019" lon="5.82339">
        <ele>526</ele>
        <time>2019-08-02T08:23:16Z</time>
      </trkpt>
      <trkpt lat="44.26026" lon="5.82339">
        <ele>526</ele>
        <time>2019-08-02T08:23:17Z</time>
      </trkpt>
      <trkpt lat="44.26033" lon="5.82338">
        <ele>527</ele>
        <time>2019-08-02T08:23:18Z</time>
      </trkpt>
      <trkpt lat="44.2604" lon="5.82337">
        <ele>527</ele>
        <time>2019-08-02T08:23:19Z</time>
      </trkpt>
      <trkpt lat="44.26047" lon="5.82336">
        <ele>527</ele>
        <time>2019-08-02T08:23:20Z</time>
      </trkpt>
      <trkpt lat="44.26054" lon="5.82335">
        <ele>527</ele>
        <time>2019-08-02T08:23:21Z</time>
      </trkpt>
      <trkpt lat="44.2606" lon="5.82333">
        <ele>527</ele>
        <time>2019-08-02T08:23:22Z</time>
      </trkpt>
      <trkpt lat="44.26067" lon="5.82332">
        <ele>527</ele>
        <time>2019-08-02T08:23:23Z</time>
      </trkpt>
      <trkpt lat="44.26074" lon="5.8233">
        <ele>527</ele>
        <time>2019-08-02T08:23:24Z</time>
      </trkpt>
      <trkpt lat="44.2608" lon="5.82328">
        <ele>527</ele>
        <time>2019-08-02T08:23:25Z</time>
      </trkpt>
      <trkpt lat="44.26087" lon="5.82325">
        <ele>527</ele>
        <time>2019-08-02T08:23:26Z</time>
      </trkpt>
      <trkpt lat="44.26094" lon="5.82322">
        <ele>527</ele>
        <time>2019-08-02T08:23:27Z</time>
      </trkpt>
      <trkpt lat="44.26101" lon="5.82319">
        <ele>527</ele>
        <time>2019-08-02T08:23:28Z</time>
      </trkpt>
      <trkpt lat="44.26108" lon="5.82316">
        <ele>527</ele>
        <time>2019-08-02T08:23:29Z</time>
      </trkpt>
      <trkpt lat="44.26115" lon="5.82312">
        <ele>527</ele>
        <time>2019-08-02T08:23:30Z</time>
      </trkpt>
      <trkpt lat="44.26122" lon="5.82309">
        <ele>527</ele>
        <time>2019-08-02T08:23:31Z</time>
      </trkpt>
      <trkpt lat="44.26129" lon="5.82305">
        <ele>527</ele>
        <time>2019-08-02T08:23:32Z</time>
      </trkpt>
      <trkpt lat="44.26136" lon="5.82302">
        <ele>527</ele>
        <time>2019-08-02T08:23:33Z</time>
      </trkpt>
      <trkpt lat="44.26143" lon="5.82298">
        <ele>527</ele>
        <time>2019-08-02T08:23:34Z</time>
      </trkpt>
      <trkpt lat="44.2615" lon="5.82295">
        <ele>527</ele>
        <time>2019-08-02T08:23:35Z</time>
      </trkpt>
      <trkpt lat="44.26157" lon="5.82291">
        <ele>527</ele>
        <time>2019-08-02T08:23:36Z</time>
      </trkpt>
      <trkpt lat="44.26164" lon="5.82288">
        <ele>527</ele>
        <time>2019-08-02T08:23:37Z</time>
      </trkpt>
      <trkpt lat="44.2617" lon="5.82285">
        <ele>527</ele>
        <time>2019-08-02T08:23:38Z</time>
      </trkpt>
      <trkpt lat="44.26178" lon="5.82281">
        <ele>527</ele>
        <time>2019-08-02T08:23:39Z</time>
      </trkpt>
      <trkpt lat="44.26184" lon="5.82278">
        <ele>527</ele>
        <time>2019-08-02T08:23:40Z</time>
      </trkpt>
      <trkpt lat="44.26191" lon="5.82274">
        <ele>527</ele>
        <time>2019-08-02T08:23:41Z</time>
      </trkpt>
      <trkpt lat="44.26198" lon="5.82271">
        <ele>527</ele>
        <time>2019-08-02T08:23:42Z</time>
      </trkpt>
      <trkpt lat="44.26205" lon="5.82268">
        <ele>527</ele>
        <time>2019-08-02T08:23:43Z</time>
      </trkpt>
      <trkpt lat="44.26212" lon="5.82264">
        <ele>527</ele>
        <time>2019-08-02T08:23:44Z</time>
      </trkpt>
      <trkpt lat="44.26218" lon="5.82261">
        <ele>527</ele>
        <time>2019-08-02T08:23:45Z</time>
      </trkpt>
      <trkpt lat="44.26225" lon="5.82257">
        <ele>527</ele>
        <time>2019-08-02T08:23:46Z</time>
      </trkpt>
      <trkpt lat="44.26232" lon="5.82253">
        <ele>527</ele>
        <time>2019-08-02T08:23:47Z</time>
      </trkpt>
      <trkpt lat="44.26239" lon="5.8225">
        <ele>527</ele>
        <time>2019-08-02T08:23:48Z</time>
      </trkpt>
      <trkpt lat="44.26246" lon="5.82246">
        <ele>527</ele>
        <time>2019-08-02T08:23:49Z</time>
      </trkpt>
      <trkpt lat="44.26253" lon="5.82242">
        <ele>527</ele>
        <time>2019-08-02T08:23:50Z</time>
      </trkpt>
      <trkpt lat="44.2626" lon="5.82239">
        <ele>527</ele>
        <time>2019-08-02T08:23:51Z</time>
      </trkpt>
      <trkpt lat="44.26267" lon="5.82235">
        <ele>527</ele>
        <time>2019-08-02T08:23:52Z</time>
      </trkpt>
      <trkpt lat="44.26274" lon="5.82231">
        <ele>527</ele>
        <time>2019-08-02T08:23:53Z</time>
      </trkpt>
      <trkpt lat="44.26281" lon="5.82227">
        <ele>527</ele>
        <time>2019-08-02T08:23:54Z</time>
      </trkpt>
      <trkpt lat="44.26288" lon="5.82224">
        <ele>527</ele>
        <time>2019-08-02T08:23:55Z</time>
      </trkpt>
      <trkpt lat="44.26295" lon="5.8222">
        <ele>527</ele>
        <time>2019-08-02T08:23:56Z</time>
      </trkpt>
      <trkpt lat="44.26302" lon="5.82216">
        <ele>527</ele>
        <time>2019-08-02T08:23:57Z</time>
      </trkpt>
      <trkpt lat="44.2631" lon="5.82212">
        <ele>527</ele>
        <time>2019-08-02T08:23:58Z</time>
      </trkpt>
      <trkpt lat="44.26316" lon="5.82208">
        <ele>527</ele>
        <time>2019-08-02T08:23:59Z</time>
      </trkpt>
      <trkpt lat="44.26323" lon="5.82204">
        <ele>527</ele>
        <time>2019-08-02T08:24:00Z</time>
      </trkpt>
      <trkpt lat="44.2633" lon="5.82201">
        <ele>527</ele>
        <time>2019-08-02T08:24:01Z</time>
      </trkpt>
      <trkpt lat="44.26337" lon="5.82197">
        <ele>527</ele>
        <time>2019-08-02T08:24:02Z</time>
      </trkpt>
      <trkpt lat="44.26344" lon="5.82194">
        <ele>527</ele>
        <time>2019-08-02T08:24:03Z</time>
      </trkpt>
      <trkpt lat="44.26352" lon="5.8219">
        <ele>527</ele>
        <time>2019-08-02T08:24:04Z</time>
      </trkpt>
      <trkpt lat="44.26358" lon="5.82187">
        <ele>527</ele>
        <time>2019-08-02T08:24:05Z</time>
      </trkpt>
      <trkpt lat="44.26366" lon="5.82184">
        <ele>527</ele>
        <time>2019-08-02T08:24:06Z</time>
      </trkpt>
      <trkpt lat="44.26373" lon="5.82181">
        <ele>527</ele>
        <time>2019-08-02T08:24:07Z</time>
      </trkpt>
      <trkpt lat="44.2638" lon="5.82178">
        <ele>527</ele>
        <time>2019-08-02T08:24:08Z</time>
      </trkpt>
      <trkpt lat="44.26387" lon="5.82175">
        <ele>527</ele>
        <time>2019-08-02T08:24:09Z</time>
      </trkpt>
      <trkpt lat="44.26394" lon="5.82172">
        <ele>527</ele>
        <time>2019-08-02T08:24:10Z</time>
      </trkpt>
      <trkpt lat="44.26401" lon="5.82169">
        <ele>527</ele>
        <time>2019-08-02T08:24:11Z</time>
      </trkpt>
      <trkpt lat="44.26408" lon="5.82167">
        <ele>527</ele>
        <time>2019-08-02T08:24:12Z</time>
      </trkpt>
      <trkpt lat="44.26415" lon="5.82164">
        <ele>527</ele>
        <time>2019-08-02T08:24:13Z</time>
      </trkpt>
      <trkpt lat="44.26422" lon="5.82162">
        <ele>527</ele>
        <time>2019-08-02T08:24:14Z</time>
      </trkpt>
      <trkpt lat="44.26429" lon="5.8216">
        <ele>527</ele>
        <time>2019-08-02T08:24:15Z</time>
      </trkpt>
      <trkpt lat="44.26436" lon="5.82158">
        <ele>527</ele>
        <time>2019-08-02T08:24:16Z</time>
      </trkpt>
      <trkpt lat="44.26442" lon="5.82156">
        <ele>527</ele>
        <time>2019-08-02T08:24:17Z</time>
      </trkpt>
      <trkpt lat="44.26449" lon="5.82153">
        <ele>527</ele>
        <time>2019-08-02T08:24:18Z</time>
      </trkpt>
      <trkpt lat="44.26456" lon="5.82151">
        <ele>527</ele>
        <time>2019-08-02T08:24:19Z</time>
      </trkpt>
      <trkpt lat="44.26463" lon="5.82148">
        <ele>527</ele>
        <time>2019-08-02T08:24:20Z</time>
      </trkpt>
      <trkpt lat="44.26469" lon="5.82146">
        <ele>527</ele>
        <time>2019-08-02T08:24:21Z</time>
      </trkpt>
      <trkpt lat="44.26476" lon="5.82144">
        <ele>527</ele>
        <time>2019-08-02T08:24:22Z</time>
      </trkpt>
      <trkpt lat="44.26482" lon="5.82141">
        <ele>527</ele>
        <time>2019-08-02T08:24:23Z</time>
      </trkpt>
      <trkpt lat="44.26489" lon="5.82139">
        <ele>527</ele>
        <time>2019-08-02T08:24:24Z</time>
      </trkpt>
      <trkpt lat="44.26496" lon="5.82137">
        <ele>527</ele>
        <time>2019-08-02T08:24:25Z</time>
      </trkpt>
      <trkpt lat="44.26502" lon="5.82134">
        <ele>527</ele>
        <time>2019-08-02T08:24:26Z</time>
      </trkpt>
      <trkpt lat="44.26508" lon="5.82132">
        <ele>527</ele>
        <time>2019-08-02T08:24:27Z</time>
      </trkpt>
      <trkpt lat="44.26515" lon="5.8213">
        <ele>527</ele>
        <time>2019-08-02T08:24:28Z</time>
      </trkpt>
      <trkpt lat="44.26521" lon="5.82128">
        <ele>527</ele>
        <time>2019-08-02T08:24:29Z</time>
      </trkpt>
      <trkpt lat="44.26527" lon="5.82125">
        <ele>527</ele>
        <time>2019-08-02T08:24:30Z</time>
      </trkpt>
      <trkpt lat="44.26533" lon="5.82123">
        <ele>527</ele>
        <time>2019-08-02T08:24:31Z</time>
      </trkpt>
      <trkpt lat="44.26539" lon="5.82121">
        <ele>527</ele>
        <time>2019-08-02T08:24:32Z</time>
      </trkpt>
      <trkpt lat="44.26545" lon="5.82118">
        <ele>527</ele>
        <time>2019-08-02T08:24:33Z</time>
      </trkpt>
      <trkpt lat="44.26551" lon="5.82116">
        <ele>527</ele>
        <time>2019-08-02T08:24:34Z</time>
      </trkpt>
      <trkpt lat="44.26557" lon="5.82114">
        <ele>527</ele>
        <time>2019-08-02T08:24:35Z</time>
      </trkpt>
      <trkpt lat="44.26562" lon="5.82112">
        <ele>527</ele>
        <time>2019-08-02T08:24:36Z</time>
      </trkpt>
      <trkpt lat="44.26568" lon="5.8211">
        <ele>527</ele>
        <time>2019-08-02T08:24:37Z</time>
      </trkpt>
      <trkpt lat="44.26574" lon="5.82108">
        <ele>527</ele>
        <time>2019-08-02T08:24:38Z</time>
      </trkpt>
      <trkpt lat="44.26579" lon="5.82106">
        <ele>527</ele>
        <time>2019-08-02T08:24:39Z</time>
      </trkpt>
      <trkpt lat="44.26584" lon="5.82103">
        <ele>527</ele>
        <time>2019-08-02T08:24:40Z</time>
      </trkpt>
      <trkpt lat="44.2659" lon="5.82101">
        <ele>527</ele>
        <time>2019-08-02T08:24:41Z</time>
      </trkpt>
      <trkpt lat="44.26595" lon="5.82099">
        <ele>527</ele>
        <time>2019-08-02T08:24:42Z</time>
      </trkpt>
      <trkpt lat="44.266" lon="5.82097">
        <ele>527</ele>
        <time>2019-08-02T08:24:43Z</time>
      </trkpt>
      <trkpt lat="44.26605" lon="5.82095">
        <ele>527</ele>
        <time>2019-08-02T08:24:44Z</time>
      </trkpt>
      <trkpt lat="44.2661" lon="5.82093">
        <ele>527</ele>
        <time>2019-08-02T08:24:45Z</time>
      </trkpt>
      <trkpt lat="44.26616" lon="5.82091">
        <ele>527</ele>
        <time>2019-08-02T08:24:46Z</time>
      </trkpt>
      <trkpt lat="44.26621" lon="5.82089">
        <ele>527</ele>
        <time>2019-08-02T08:24:47Z</time>
      </trkpt>
      <trkpt lat="44.26626" lon="5.82087">
        <ele>527</ele>
        <time>2019-08-02T08:24:48Z</time>
      </trkpt>
      <trkpt lat="44.26631" lon="5.82085">
        <ele>527</ele>
        <time>2019-08-02T08:24:49Z</time>
      </trkpt>
      <trkpt lat="44.26636" lon="5.82083">
        <ele>527</ele>
        <time>2019-08-02T08:24:50Z</time>
      </trkpt>
      <trkpt lat="44.26642" lon="5.82081">
        <ele>527</ele>
        <time>2019-08-02T08:24:51Z</time>
      </trkpt>
      <trkpt lat="44.26647" lon="5.82079">
        <ele>527</ele>
        <time>2019-08-02T08:24:52Z</time>
      </trkpt>
      <trkpt lat="44.26652" lon="5.82077">
        <ele>527</ele>
        <time>2019-08-02T08:24:53Z</time>
      </trkpt>
      <trkpt lat="44.26658" lon="5.82075">
        <ele>527</ele>
        <time>2019-08-02T08:24:54Z</time>
      </trkpt>
      <trkpt lat="44.26663" lon="5.82073">
        <ele>527</ele>
        <time>2019-08-02T08:24:55Z</time>
      </trkpt>
      <trkpt lat="44.26669" lon="5.8207">
        <ele>527</ele>
        <time>2019-08-02T08:24:56Z</time>
      </trkpt>
      <trkpt lat="44.26674" lon="5.82068">
        <ele>527</ele>
        <time>2019-08-02T08:24:57Z</time>
      </trkpt>
      <trkpt lat="44.2668" lon="5.82066">
        <ele>527</ele>
        <time>2019-08-02T08:24:58Z</time>
      </trkpt>
      <trkpt lat="44.26685" lon="5.82064">
        <ele>527</ele>
        <time>2019-08-02T08:24:59Z</time>
      </trkpt>
      <trkpt lat="44.26691" lon="5.82062">
        <ele>527</ele>
        <time>2019-08-02T08:25:00Z</time>
      </trkpt>
      <trkpt lat="44.26696" lon="5.8206">
        <ele>527</ele>
        <time>2019-08-02T08:25:01Z</time>
      </trkpt>
      <trkpt lat="44.26702" lon="5.82058">
        <ele>527</ele>
        <time>2019-08-02T08:25:02Z</time>
      </trkpt>
      <trkpt lat="44.26708" lon="5.82055">
        <ele>527</ele>
        <time>2019-08-02T08:25:03Z</time>
      </trkpt>
      <trkpt lat="44.26713" lon="5.82053">
        <ele>527</ele>
        <time>2019-08-02T08:25:04Z</time>
      </trkpt>
      <trkpt lat="44.26719" lon="5.82051">
        <ele>527</ele>
        <time>2019-08-02T08:25:05Z</time>
      </trkpt>
      <trkpt lat="44.26724" lon="5.82049">
        <ele>527</ele>
        <time>2019-08-02T08:25:06Z</time>
      </trkpt>
      <trkpt lat="44.2673" lon="5.82047">
        <ele>527</ele>
        <time>2019-08-02T08:25:07Z</time>
      </trkpt>
      <trkpt lat="44.26736" lon="5.82044">
        <ele>527</ele>
        <time>2019-08-02T08:25:08Z</time>
      </trkpt>
      <trkpt lat="44.26741" lon="5.82042">
        <ele>527</ele>
        <time>2019-08-02T08:25:09Z</time>
      </trkpt>
      <trkpt lat="44.26747" lon="5.8204">
        <ele>527</ele>
        <time>2019-08-02T08:25:10Z</time>
      </trkpt>
      <trkpt lat="44.26752" lon="5.82038">
        <ele>527</ele>
        <time>2019-08-02T08:25:11Z</time>
      </trkpt>
      <trkpt lat="44.26758" lon="5.82035">
        <ele>527</ele>
        <time>2019-08-02T08:25:12Z</time>
      </trkpt>
      <trkpt lat="44.26763" lon="5.82033">
        <ele>527</ele>
        <time>2019-08-02T08:25:13Z</time>
      </trkpt>
      <trkpt lat="44.26768" lon="5.82031">
        <ele>527</ele>
        <time>2019-08-02T08:25:14Z</time>
      </trkpt>
      <trkpt lat="44.26774" lon="5.82028">
        <ele>527</ele>
        <time>2019-08-02T08:25:15Z</time>
      </trkpt>
      <trkpt lat="44.2678" lon="5.82026">
        <ele>527</ele>
        <time>2019-08-02T08:25:16Z</time>
      </trkpt>
      <trkpt lat="44.26785" lon="5.82024">
        <ele>527</ele>
        <time>2019-08-02T08:25:17Z</time>
      </trkpt>
      <trkpt lat="44.26791" lon="5.82022">
        <ele>527</ele>
        <time>2019-08-02T08:25:18Z</time>
      </trkpt>
      <trkpt lat="44.26796" lon="5.8202">
        <ele>528</ele>
        <time>2019-08-02T08:25:19Z</time>
      </trkpt>
      <trkpt lat="44.26802" lon="5.82018">
        <ele>528</ele>
        <time>2019-08-02T08:25:20Z</time>
      </trkpt>
      <trkpt lat="44.26807" lon="5.82016">
        <ele>528</ele>
        <time>2019-08-02T08:25:21Z</time>
      </trkpt>
      <trkpt lat="44.26813" lon="5.82014">
        <ele>528</ele>
        <time>2019-08-02T08:25:22Z</time>
      </trkpt>
      <trkpt lat="44.26819" lon="5.82011">
        <ele>528</ele>
        <time>2019-08-02T08:25:23Z</time>
      </trkpt>
      <trkpt lat="44.26825" lon="5.82009">
        <ele>528</ele>
        <time>2019-08-02T08:25:24Z</time>
      </trkpt>
      <trkpt lat="44.2683" lon="5.82007">
        <ele>528</ele>
        <time>2019-08-02T08:25:25Z</time>
      </trkpt>
      <trkpt lat="44.26836" lon="5.82005">
        <ele>528</ele>
        <time>2019-08-02T08:25:26Z</time>
      </trkpt>
      <trkpt lat="44.26841" lon="5.82003">
        <ele>528</ele>
        <time>2019-08-02T08:25:27Z</time>
      </trkpt>
      <trkpt lat="44.26847" lon="5.82001">
        <ele>528</ele>
        <time>2019-08-02T08:25:28Z</time>
      </trkpt>
      <trkpt lat="44.26853" lon="5.81999">
        <ele>528</ele>
        <time>2019-08-02T08:25:29Z</time>
      </trkpt>
      <trkpt lat="44.26858" lon="5.81997">
        <ele>528</ele>
        <time>2019-08-02T08:25:30Z</time>
      </trkpt>
      <trkpt lat="44.26864" lon="5.81994">
        <ele>528</ele>
        <time>2019-08-02T08:25:31Z</time>
      </trkpt>
      <trkpt lat="44.26869" lon="5.81992">
        <ele>528</ele>
        <time>2019-08-02T08:25:32Z</time>
      </trkpt>
      <trkpt lat="44.26875" lon="5.8199">
        <ele>529</ele>
        <time>2019-08-02T08:25:33Z</time>
      </trkpt>
      <trkpt lat="44.2688" lon="5.81988">
        <ele>529</ele>
        <time>2019-08-02T08:25:34Z</time>
      </trkpt>
      <trkpt lat="44.26886" lon="5.81986">
        <ele>529</ele>
        <time>2019-08-02T08:25:35Z</time>
      </trkpt>
      <trkpt lat="44.26892" lon="5.81984">
        <ele>529</ele>
        <time>2019-08-02T08:25:36Z</time>
      </trkpt>
      <trkpt lat="44.26897" lon="5.81981">
        <ele>529</ele>
        <time>2019-08-02T08:25:37Z</time>
      </trkpt>
      <trkpt lat="44.26903" lon="5.81979">
        <ele>529</ele>
        <time>2019-08-02T08:25:38Z</time>
      </trkpt>
      <trkpt lat="44.26909" lon="5.81977">
        <ele>529</ele>
        <time>2019-08-02T08:25:39Z</time>
      </trkpt>
      <trkpt lat="44.26914" lon="5.81975">
        <ele>529</ele>
        <time>2019-08-02T08:25:40Z</time>
      </trkpt>
      <trkpt lat="44.2692" lon="5.81972">
        <ele>529</ele>
        <time>2019-08-02T08:25:41Z</time>
      </trkpt>
      <trkpt lat="44.26926" lon="5.8197">
        <ele>530</ele>
        <time>2019-08-02T08:25:42Z</time>
      </trkpt>
      <trkpt lat="44.26931" lon="5.81968">
        <ele>530</ele>
        <time>2019-08-02T08:25:43Z</time>
      </trkpt>
      <trkpt lat="44.26937" lon="5.81966">
        <ele>530</ele>
        <time>2019-08-02T08:25:44Z</time>
      </trkpt>
      <trkpt lat="44.26942" lon="5.81963">
        <ele>530</ele>
        <time>2019-08-02T08:25:45Z</time>
      </trkpt>
      <trkpt lat="44.26948" lon="5.81961">
        <ele>530</ele>
        <time>2019-08-02T08:25:46Z</time>
      </trkpt>
      <trkpt lat="44.26954" lon="5.81959">
        <ele>530</ele>
        <time>2019-08-02T08:25:47Z</time>
      </trkpt>
      <trkpt lat="44.26959" lon="5.81957">
        <ele>530</ele>
        <time>2019-08-02T08:25:48Z</time>
      </trkpt>
      <trkpt lat="44.26965" lon="5.81955">
        <ele>530</ele>
        <time>2019-08-02T08:25:49Z</time>
      </trkpt>
      <trkpt lat="44.26971" lon="5.81953">
        <ele>530</ele>
        <time>2019-08-02T08:25:50Z</time>
      </trkpt>
      <trkpt lat="44.26976" lon="5.81951">
        <ele>530</ele>
        <time>2019-08-02T08:25:51Z</time>
      </trkpt>
      <trkpt lat="44.26982" lon="5.81948">
        <ele>530</ele>
        <time>2019-08-02T08:25:52Z</time>
      </trkpt>
      <trkpt lat="44.26987" lon="5.81946">
        <ele>530</ele>
        <time>2019-08-02T08:25:53Z</time>
      </trkpt>
      <trkpt lat="44.26993" lon="5.81945">
        <ele>531</ele>
        <time>2019-08-02T08:25:54Z</time>
      </trkpt>
      <trkpt lat="44.26999" lon="5.81942">
        <ele>531</ele>
        <time>2019-08-02T08:25:55Z</time>
      </trkpt>
      <trkpt lat="44.27005" lon="5.8194">
        <ele>531</ele>
        <time>2019-08-02T08:25:56Z</time>
      </trkpt>
      <trkpt lat="44.2701" lon="5.81938">
        <ele>531</ele>
        <time>2019-08-02T08:25:57Z</time>
      </trkpt>
      <trkpt lat="44.27016" lon="5.81936">
        <ele>531</ele>
        <time>2019-08-02T08:25:58Z</time>
      </trkpt>
      <trkpt lat="44.27022" lon="5.81933">
        <ele>531</ele>
        <time>2019-08-02T08:25:59Z</time>
      </trkpt>
      <trkpt lat="44.27027" lon="5.81931">
        <ele>531</ele>
        <time>2019-08-02T08:26:00Z</time>
      </trkpt>
      <trkpt lat="44.27033" lon="5.81929">
        <ele>531</ele>
        <time>2019-08-02T08:26:01Z</time>
      </trkpt>
      <trkpt lat="44.27039" lon="5.81927">
        <ele>531</ele>
        <time>2019-08-02T08:26:02Z</time>
      </trkpt>
      <trkpt lat="44.27045" lon="5.81924">
        <ele>531</ele>
        <time>2019-08-02T08:26:03Z</time>
      </trkpt>
      <trkpt lat="44.2705" lon="5.81922">
        <ele>531</ele>
        <time>2019-08-02T08:26:04Z</time>
      </trkpt>
      <trkpt lat="44.27056" lon="5.8192">
        <ele>531</ele>
        <time>2019-08-02T08:26:05Z</time>
      </trkpt>
      <trkpt lat="44.27062" lon="5.81918">
        <ele>531</ele>
        <time>2019-08-02T08:26:06Z</time>
      </trkpt>
      <trkpt lat="44.27068" lon="5.81916">
        <ele>531</ele>
        <time>2019-08-02T08:26:07Z</time>
      </trkpt>
      <trkpt lat="44.27074" lon="5.81913">
        <ele>531</ele>
        <time>2019-08-02T08:26:08Z</time>
      </trkpt>
      <trkpt lat="44.27079" lon="5.81911">
        <ele>531</ele>
        <time>2019-08-02T08:26:09Z</time>
      </trkpt>
      <trkpt lat="44.27085" lon="5.81908">
        <ele>532</ele>
        <time>2019-08-02T08:26:10Z</time>
      </trkpt>
      <trkpt lat="44.27092" lon="5.81906">
        <ele>532</ele>
        <time>2019-08-02T08:26:11Z</time>
      </trkpt>
      <trkpt lat="44.27097" lon="5.81904">
        <ele>532</ele>
        <time>2019-08-02T08:26:12Z</time>
      </trkpt>
      <trkpt lat="44.27103" lon="5.81902">
        <ele>532</ele>
        <time>2019-08-02T08:26:13Z</time>
      </trkpt>
      <trkpt lat="44.27109" lon="5.81899">
        <ele>532</ele>
        <time>2019-08-02T08:26:14Z</time>
      </trkpt>
      <trkpt lat="44.27115" lon="5.81897">
        <ele>532</ele>
        <time>2019-08-02T08:26:15Z</time>
      </trkpt>
      <trkpt lat="44.27121" lon="5.81894">
        <ele>532</ele>
        <time>2019-08-02T08:26:16Z</time>
      </trkpt>
      <trkpt lat="44.27127" lon="5.81892">
        <ele>532</ele>
        <time>2019-08-02T08:26:17Z</time>
      </trkpt>
      <trkpt lat="44.27133" lon="5.8189">
        <ele>532</ele>
        <time>2019-08-02T08:26:18Z</time>
      </trkpt>
      <trkpt lat="44.27139" lon="5.81887">
        <ele>532</ele>
        <time>2019-08-02T08:26:19Z</time>
      </trkpt>
      <trkpt lat="44.27145" lon="5.81885">
        <ele>533</ele>
        <time>2019-08-02T08:26:20Z</time>
      </trkpt>
      <trkpt lat="44.27151" lon="5.81883">
        <ele>533</ele>
        <time>2019-08-02T08:26:21Z</time>
      </trkpt>
      <trkpt lat="44.27158" lon="5.81881">
        <ele>533</ele>
        <time>2019-08-02T08:26:22Z</time>
      </trkpt>
      <trkpt lat="44.27163" lon="5.81878">
        <ele>533</ele>
        <time>2019-08-02T08:26:23Z</time>
      </trkpt>
      <trkpt lat="44.2717" lon="5.81876">
        <ele>533</ele>
        <time>2019-08-02T08:26:24Z</time>
      </trkpt>
      <trkpt lat="44.27176" lon="5.81874">
        <ele>533</ele>
        <time>2019-08-02T08:26:25Z</time>
      </trkpt>
      <trkpt lat="44.27182" lon="5.81871">
        <ele>533</ele>
        <time>2019-08-02T08:26:26Z</time>
      </trkpt>
      <trkpt lat="44.27188" lon="5.81869">
        <ele>534</ele>
        <time>2019-08-02T08:26:27Z</time>
      </trkpt>
      <trkpt lat="44.27194" lon="5.81866">
        <ele>534</ele>
        <time>2019-08-02T08:26:28Z</time>
      </trkpt>
      <trkpt lat="44.272" lon="5.81864">
        <ele>534</ele>
        <time>2019-08-02T08:26:29Z</time>
      </trkpt>
      <trkpt lat="44.27207" lon="5.81861">
        <ele>534</ele>
        <time>2019-08-02T08:26:30Z</time>
      </trkpt>
      <trkpt lat="44.27213" lon="5.81859">
        <ele>534</ele>
        <time>2019-08-02T08:26:31Z</time>
      </trkpt>
      <trkpt lat="44.27219" lon="5.81856">
        <ele>534</ele>
        <time>2019-08-02T08:26:32Z</time>
      </trkpt>
      <trkpt lat="44.27225" lon="5.81854">
        <ele>534</ele>
        <time>2019-08-02T08:26:33Z</time>
      </trkpt>
      <trkpt lat="44.27232" lon="5.81851">
        <ele>534</ele>
        <time>2019-08-02T08:26:34Z</time>
      </trkpt>
      <trkpt lat="44.27238" lon="5.81849">
        <ele>534</ele>
        <time>2019-08-02T08:26:35Z</time>
      </trkpt>
      <trkpt lat="44.27244" lon="5.81847">
        <ele>534</ele>
        <time>2019-08-02T08:26:36Z</time>
      </trkpt>
      <trkpt lat="44.2725" lon="5.81844">
        <ele>534</ele>
        <time>2019-08-02T08:26:37Z</time>
      </trkpt>
      <trkpt lat="44.27257" lon="5.81842">
        <ele>535</ele>
        <time>2019-08-02T08:26:38Z</time>
      </trkpt>
      <trkpt lat="44.27263" lon="5.81839">
        <ele>535</ele>
        <time>2019-08-02T08:26:39Z</time>
      </trkpt>
      <trkpt lat="44.27269" lon="5.81837">
        <ele>535</ele>
        <time>2019-08-02T08:26:40Z</time>
      </trkpt>
      <trkpt lat="44.27275" lon="5.81834">
        <ele>535</ele>
        <time>2019-08-02T08:26:41Z</time>
      </trkpt>
      <trkpt lat="44.27282" lon="5.81832">
        <ele>535</ele>
        <time>2019-08-02T08:26:42Z</time>
      </trkpt>
      <trkpt lat="44.27288" lon="5.8183">
        <ele>535</ele>
        <time>2019-08-02T08:26:43Z</time>
      </trkpt>
      <trkpt lat="44.27294" lon="5.81827">
        <ele>535</ele>
        <time>2019-08-02T08:26:44Z</time>
      </trkpt>
      <trkpt lat="44.27301" lon="5.81825">
        <ele>535</ele>
        <time>2019-08-02T08:26:45Z</time>
      </trkpt>
      <trkpt lat="44.27307" lon="5.81822">
        <ele>535</ele>
        <time>2019-08-02T08:26:46Z</time>
      </trkpt>
      <trkpt lat="44.27313" lon="5.8182">
        <ele>535</ele>
        <time>2019-08-02T08:26:47Z</time>
      </trkpt>
      <trkpt lat="44.27319" lon="5.81817">
        <ele>535</ele>
        <time>2019-08-02T08:26:48Z</time>
      </trkpt>
      <trkpt lat="44.27325" lon="5.81815">
        <ele>535</ele>
        <time>2019-08-02T08:26:49Z</time>
      </trkpt>
      <trkpt lat="44.27331" lon="5.81812">
        <ele>535</ele>
        <time>2019-08-02T08:26:50Z</time>
      </trkpt>
      <trkpt lat="44.27337" lon="5.8181">
        <ele>536</ele>
        <time>2019-08-02T08:26:51Z</time>
      </trkpt>
      <trkpt lat="44.27343" lon="5.81807">
        <ele>536</ele>
        <time>2019-08-02T08:26:52Z</time>
      </trkpt>
      <trkpt lat="44.27349" lon="5.81805">
        <ele>536</ele>
        <time>2019-08-02T08:26:53Z</time>
      </trkpt>
      <trkpt lat="44.27355" lon="5.81803">
        <ele>536</ele>
        <time>2019-08-02T08:26:54Z</time>
      </trkpt>
      <trkpt lat="44.27362" lon="5.818">
        <ele>536</ele>
        <time>2019-08-02T08:26:55Z</time>
      </trkpt>
      <trkpt lat="44.27367" lon="5.81798">
        <ele>536</ele>
        <time>2019-08-02T08:26:56Z</time>
      </trkpt>
      <trkpt lat="44.27374" lon="5.81796">
        <ele>536</ele>
        <time>2019-08-02T08:26:57Z</time>
      </trkpt>
      <trkpt lat="44.2738" lon="5.81793">
        <ele>536</ele>
        <time>2019-08-02T08:26:58Z</time>
      </trkpt>
      <trkpt lat="44.27385" lon="5.81791">
        <ele>536</ele>
        <time>2019-08-02T08:26:59Z</time>
      </trkpt>
      <trkpt lat="44.27391" lon="5.81788">
        <ele>536</ele>
        <time>2019-08-02T08:27:00Z</time>
      </trkpt>
      <trkpt lat="44.27398" lon="5.81786">
        <ele>536</ele>
        <time>2019-08-02T08:27:01Z</time>
      </trkpt>
      <trkpt lat="44.27404" lon="5.81783">
        <ele>536</ele>
        <time>2019-08-02T08:27:02Z</time>
      </trkpt>
      <trkpt lat="44.27409" lon="5.81781">
        <ele>536</ele>
        <time>2019-08-02T08:27:03Z</time>
      </trkpt>
      <trkpt lat="44.27415" lon="5.81779">
        <ele>537</ele>
        <time>2019-08-02T08:27:04Z</time>
      </trkpt>
      <trkpt lat="44.27421" lon="5.81777">
        <ele>537</ele>
        <time>2019-08-02T08:27:05Z</time>
      </trkpt>
      <trkpt lat="44.27427" lon="5.81775">
        <ele>537</ele>
        <time>2019-08-02T08:27:06Z</time>
      </trkpt>
      <trkpt lat="44.27433" lon="5.81772">
        <ele>537</ele>
        <time>2019-08-02T08:27:07Z</time>
      </trkpt>
      <trkpt lat="44.27438" lon="5.8177">
        <ele>537</ele>
        <time>2019-08-02T08:27:08Z</time>
      </trkpt>
      <trkpt lat="44.27444" lon="5.81768">
        <ele>537</ele>
        <time>2019-08-02T08:27:09Z</time>
      </trkpt>
      <trkpt lat="44.2745" lon="5.81766">
        <ele>537</ele>
        <time>2019-08-02T08:27:10Z</time>
      </trkpt>
      <trkpt lat="44.27456" lon="5.81763">
        <ele>537</ele>
        <time>2019-08-02T08:27:11Z</time>
      </trkpt>
      <trkpt lat="44.27461" lon="5.81761">
        <ele>537</ele>
        <time>2019-08-02T08:27:12Z</time>
      </trkpt>
      <trkpt lat="44.27467" lon="5.81759">
        <ele>537</ele>
        <time>2019-08-02T08:27:13Z</time>
      </trkpt>
      <trkpt lat="44.27473" lon="5.81756">
        <ele>538</ele>
        <time>2019-08-02T08:27:14Z</time>
      </trkpt>
      <trkpt lat="44.27478" lon="5.81754">
        <ele>538</ele>
        <time>2019-08-02T08:27:15Z</time>
      </trkpt>
      <trkpt lat="44.27484" lon="5.81752">
        <ele>538</ele>
        <time>2019-08-02T08:27:16Z</time>
      </trkpt>
      <trkpt lat="44.2749" lon="5.81749">
        <ele>538</ele>
        <time>2019-08-02T08:27:17Z</time>
      </trkpt>
      <trkpt lat="44.27495" lon="5.81747">
        <ele>538</ele>
        <time>2019-08-02T08:27:18Z</time>
      </trkpt>
      <trkpt lat="44.27501" lon="5.81745">
        <ele>538</ele>
        <time>2019-08-02T08:27:19Z</time>
      </trkpt>
      <trkpt lat="44.27507" lon="5.81743">
        <ele>538</ele>
        <time>2019-08-02T08:27:20Z</time>
      </trkpt>
      <trkpt lat="44.27512" lon="5.81741">
        <ele>538</ele>
        <time>2019-08-02T08:27:21Z</time>
      </trkpt>
      <trkpt lat="44.27518" lon="5.81738">
        <ele>539</ele>
        <time>2019-08-02T08:27:22Z</time>
      </trkpt>
      <trkpt lat="44.27523" lon="5.81736">
        <ele>539</ele>
        <time>2019-08-02T08:27:23Z</time>
      </trkpt>
      <trkpt lat="44.27529" lon="5.81734">
        <ele>539</ele>
        <time>2019-08-02T08:27:24Z</time>
      </trkpt>
      <trkpt lat="44.27535" lon="5.81732">
        <ele>539</ele>
        <time>2019-08-02T08:27:25Z</time>
      </trkpt>
      <trkpt lat="44.2754" lon="5.81729">
        <ele>539</ele>
        <time>2019-08-02T08:27:26Z</time>
      </trkpt>
      <trkpt lat="44.27546" lon="5.81727">
        <ele>539</ele>
        <time>2019-08-02T08:27:27Z</time>
      </trkpt>
      <trkpt lat="44.27552" lon="5.81725">
        <ele>539</ele>
        <time>2019-08-02T08:27:28Z</time>
      </trkpt>
      <trkpt lat="44.27557" lon="5.81723">
        <ele>539</ele>
        <time>2019-08-02T08:27:29Z</time>
      </trkpt>
      <trkpt lat="44.27563" lon="5.8172">
        <ele>540</ele>
        <time>2019-08-02T08:27:30Z</time>
      </trkpt>
      <trkpt lat="44.27568" lon="5.81718">
        <ele>540</ele>
        <time>2019-08-02T08:27:31Z</time>
      </trkpt>
      <trkpt lat="44.27574" lon="5.81716">
        <ele>540</ele>
        <time>2019-08-02T08:27:32Z</time>
      </trkpt>
      <trkpt lat="44.27579" lon="5.81714">
        <ele>540</ele>
        <time>2019-08-02T08:27:33Z</time>
      </trkpt>
      <trkpt lat="44.27585" lon="5.81711">
        <ele>540</ele>
        <time>2019-08-02T08:27:34Z</time>
      </trkpt>
      <trkpt lat="44.27591" lon="5.81709">
        <ele>540</ele>
        <time>2019-08-02T08:27:35Z</time>
      </trkpt>
      <trkpt lat="44.27597" lon="5.81707">
        <ele>540</ele>
        <time>2019-08-02T08:27:36Z</time>
      </trkpt>
      <trkpt lat="44.27602" lon="5.81705">
        <ele>540</ele>
        <time>2019-08-02T08:27:37Z</time>
      </trkpt>
      <trkpt lat="44.27608" lon="5.81703">
        <ele>541</ele>
        <time>2019-08-02T08:27:38Z</time>
      </trkpt>
      <trkpt lat="44.27613" lon="5.817">
        <ele>541</ele>
        <time>2019-08-02T08:27:39Z</time>
      </trkpt>
      <trkpt lat="44.27619" lon="5.81698">
        <ele>541</ele>
        <time>2019-08-02T08:27:40Z</time>
      </trkpt>
      <trkpt lat="44.27625" lon="5.81696">
        <ele>541</ele>
        <time>2019-08-02T08:27:41Z</time>
      </trkpt>
      <trkpt lat="44.27631" lon="5.81694">
        <ele>541</ele>
        <time>2019-08-02T08:27:42Z</time>
      </trkpt>
      <trkpt lat="44.27636" lon="5.81691">
        <ele>541</ele>
        <time>2019-08-02T08:27:43Z</time>
      </trkpt>
      <trkpt lat="44.27642" lon="5.81689">
        <ele>541</ele>
        <time>2019-08-02T08:27:44Z</time>
      </trkpt>
      <trkpt lat="44.27648" lon="5.81687">
        <ele>541</ele>
        <time>2019-08-02T08:27:45Z</time>
      </trkpt>
      <trkpt lat="44.27654" lon="5.81686">
        <ele>541</ele>
        <time>2019-08-02T08:27:46Z</time>
      </trkpt>
      <trkpt lat="44.2766" lon="5.81684">
        <ele>541</ele>
        <time>2019-08-02T08:27:47Z</time>
      </trkpt>
      <trkpt lat="44.27665" lon="5.81683">
        <ele>541</ele>
        <time>2019-08-02T08:27:48Z</time>
      </trkpt>
      <trkpt lat="44.27671" lon="5.81682">
        <ele>541</ele>
        <time>2019-08-02T08:27:49Z</time>
      </trkpt>
      <trkpt lat="44.27677" lon="5.81682">
        <ele>541</ele>
        <time>2019-08-02T08:27:50Z</time>
      </trkpt>
      <trkpt lat="44.27683" lon="5.81682">
        <ele>541</ele>
        <time>2019-08-02T08:27:51Z</time>
      </trkpt>
      <trkpt lat="44.27689" lon="5.81683">
        <ele>541</ele>
        <time>2019-08-02T08:27:52Z</time>
      </trkpt>
      <trkpt lat="44.27694" lon="5.81684">
        <ele>541</ele>
        <time>2019-08-02T08:27:53Z</time>
      </trkpt>
      <trkpt lat="44.277" lon="5.81685">
        <ele>541</ele>
        <time>2019-08-02T08:27:54Z</time>
      </trkpt>
      <trkpt lat="44.27705" lon="5.81687">
        <ele>542</ele>
        <time>2019-08-02T08:27:55Z</time>
      </trkpt>
      <trkpt lat="44.2771" lon="5.81688">
        <ele>542</ele>
        <time>2019-08-02T08:27:56Z</time>
      </trkpt>
      <trkpt lat="44.27716" lon="5.8169">
        <ele>542</ele>
        <time>2019-08-02T08:27:57Z</time>
      </trkpt>
      <trkpt lat="44.27721" lon="5.81693">
        <ele>542</ele>
        <time>2019-08-02T08:27:58Z</time>
      </trkpt>
      <trkpt lat="44.27726" lon="5.81696">
        <ele>542</ele>
        <time>2019-08-02T08:27:59Z</time>
      </trkpt>
      <trkpt lat="44.27731" lon="5.81699">
        <ele>542</ele>
        <time>2019-08-02T08:28:00Z</time>
      </trkpt>
      <trkpt lat="44.27736" lon="5.81702">
        <ele>542</ele>
        <time>2019-08-02T08:28:01Z</time>
      </trkpt>
      <trkpt lat="44.27741" lon="5.81705">
        <ele>542</ele>
        <time>2019-08-02T08:28:02Z</time>
      </trkpt>
      <trkpt lat="44.27746" lon="5.81709">
        <ele>542</ele>
        <time>2019-08-02T08:28:03Z</time>
      </trkpt>
      <trkpt lat="44.27751" lon="5.81712">
        <ele>543</ele>
        <time>2019-08-02T08:28:04Z</time>
      </trkpt>
      <trkpt lat="44.27756" lon="5.81715">
        <ele>543</ele>
        <time>2019-08-02T08:28:05Z</time>
      </trkpt>
      <trkpt lat="44.27761" lon="5.81718">
        <ele>543</ele>
        <time>2019-08-02T08:28:06Z</time>
      </trkpt>
      <trkpt lat="44.27766" lon="5.81722">
        <ele>543</ele>
        <time>2019-08-02T08:28:07Z</time>
      </trkpt>
      <trkpt lat="44.27771" lon="5.81725">
        <ele>543</ele>
        <time>2019-08-02T08:28:08Z</time>
      </trkpt>
      <trkpt lat="44.27776" lon="5.81729">
        <ele>543</ele>
        <time>2019-08-02T08:28:09Z</time>
      </trkpt>
      <trkpt lat="44.27781" lon="5.81732">
        <ele>543</ele>
        <time>2019-08-02T08:28:10Z</time>
      </trkpt>
      <trkpt lat="44.27786" lon="5.81736">
        <ele>543</ele>
        <time>2019-08-02T08:28:11Z</time>
      </trkpt>
      <trkpt lat="44.27791" lon="5.81739">
        <ele>543</ele>
        <time>2019-08-02T08:28:12Z</time>
      </trkpt>
      <trkpt lat="44.27797" lon="5.81743">
        <ele>544</ele>
        <time>2019-08-02T08:28:13Z</time>
      </trkpt>
      <trkpt lat="44.27802" lon="5.81746">
        <ele>544</ele>
        <time>2019-08-02T08:28:14Z</time>
      </trkpt>
      <trkpt lat="44.27807" lon="5.81749">
        <ele>544</ele>
        <time>2019-08-02T08:28:15Z</time>
      </trkpt>
      <trkpt lat="44.27812" lon="5.81753">
        <ele>544</ele>
        <time>2019-08-02T08:28:16Z</time>
      </trkpt>
      <trkpt lat="44.27817" lon="5.81756">
        <ele>544</ele>
        <time>2019-08-02T08:28:17Z</time>
      </trkpt>
      <trkpt lat="44.27822" lon="5.8176">
        <ele>544</ele>
        <time>2019-08-02T08:28:18Z</time>
      </trkpt>
      <trkpt lat="44.27827" lon="5.81763">
        <ele>544</ele>
        <time>2019-08-02T08:28:19Z</time>
      </trkpt>
      <trkpt lat="44.27831" lon="5.81766">
        <ele>544</ele>
        <time>2019-08-02T08:28:20Z</time>
      </trkpt>
      <trkpt lat="44.27836" lon="5.81769">
        <ele>544</ele>
        <time>2019-08-02T08:28:21Z</time>
      </trkpt>
      <trkpt lat="44.27841" lon="5.81772">
        <ele>544</ele>
        <time>2019-08-02T08:28:22Z</time>
      </trkpt>
      <trkpt lat="44.27845" lon="5.81775">
        <ele>544</ele>
        <time>2019-08-02T08:28:23Z</time>
      </trkpt>
      <trkpt lat="44.2785" lon="5.81779">
        <ele>545</ele>
        <time>2019-08-02T08:28:24Z</time>
      </trkpt>
      <trkpt lat="44.27856" lon="5.81782">
        <ele>545</ele>
        <time>2019-08-02T08:28:25Z</time>
      </trkpt>
      <trkpt lat="44.27861" lon="5.81785">
        <ele>545</ele>
        <time>2019-08-02T08:28:26Z</time>
      </trkpt>
      <trkpt lat="44.27866" lon="5.81788">
        <ele>545</ele>
        <time>2019-08-02T08:28:27Z</time>
      </trkpt>
      <trkpt lat="44.27871" lon="5.81791">
        <ele>545</ele>
        <time>2019-08-02T08:28:28Z</time>
      </trkpt>
      <trkpt lat="44.27876" lon="5.81795">
        <ele>545</ele>
        <time>2019-08-02T08:28:29Z</time>
      </trkpt>
      <trkpt lat="44.2788" lon="5.81798">
        <ele>545</ele>
        <time>2019-08-02T08:28:30Z</time>
      </trkpt>
      <trkpt lat="44.27885" lon="5.81801">
        <ele>545</ele>
        <time>2019-08-02T08:28:31Z</time>
      </trkpt>
      <trkpt lat="44.2789" lon="5.81805">
        <ele>546</ele>
        <time>2019-08-02T08:28:32Z</time>
      </trkpt>
      <trkpt lat="44.27896" lon="5.81808">
        <ele>546</ele>
        <time>2019-08-02T08:28:33Z</time>
      </trkpt>
      <trkpt lat="44.27901" lon="5.81812">
        <ele>546</ele>
        <time>2019-08-02T08:28:34Z</time>
      </trkpt>
      <trkpt lat="44.27906" lon="5.81815">
        <ele>546</ele>
        <time>2019-08-02T08:28:35Z</time>
      </trkpt>
      <trkpt lat="44.27911" lon="5.81818">
        <ele>546</ele>
        <time>2019-08-02T08:28:36Z</time>
      </trkpt>
      <trkpt lat="44.27916" lon="5.81822">
        <ele>546</ele>
        <time>2019-08-02T08:28:37Z</time>
      </trkpt>
      <trkpt lat="44.27922" lon="5.81825">
        <ele>546</ele>
        <time>2019-08-02T08:28:38Z</time>
      </trkpt>
      <trkpt lat="44.27927" lon="5.81829">
        <ele>547</ele>
        <time>2019-08-02T08:28:39Z</time>
      </trkpt>
      <trkpt lat="44.27933" lon="5.81832">
        <ele>547</ele>
        <time>2019-08-02T08:28:40Z</time>
      </trkpt>
      <trkpt lat="44.27938" lon="5.81836">
        <ele>547</ele>
        <time>2019-08-02T08:28:41Z</time>
      </trkpt>
      <trkpt lat="44.27944" lon="5.81839">
        <ele>547</ele>
        <time>2019-08-02T08:28:42Z</time>
      </trkpt>
      <trkpt lat="44.2795" lon="5.81843">
        <ele>547</ele>
        <time>2019-08-02T08:28:43Z</time>
      </trkpt>
      <trkpt lat="44.27955" lon="5.81846">
        <ele>547</ele>
        <time>2019-08-02T08:28:44Z</time>
      </trkpt>
      <trkpt lat="44.27961" lon="5.81849">
        <ele>547</ele>
        <time>2019-08-02T08:28:45Z</time>
      </trkpt>
      <trkpt lat="44.27966" lon="5.81853">
        <ele>547</ele>
        <time>2019-08-02T08:28:46Z</time>
      </trkpt>
      <trkpt lat="44.27971" lon="5.81856">
        <ele>547</ele>
        <time>2019-08-02T08:28:47Z</time>
      </trkpt>
      <trkpt lat="44.27977" lon="5.81859">
        <ele>547</ele>
        <time>2019-08-02T08:28:48Z</time>
      </trkpt>
      <trkpt lat="44.27982" lon="5.81863">
        <ele>547</ele>
        <time>2019-08-02T08:28:49Z</time>
      </trkpt>
      <trkpt lat="44.27988" lon="5.81866">
        <ele>547</ele>
        <time>2019-08-02T08:28:50Z</time>
      </trkpt>
      <trkpt lat="44.27993" lon="5.8187">
        <ele>547</ele>
        <time>2019-08-02T08:28:51Z</time>
      </trkpt>
      <trkpt lat="44.27999" lon="5.81874">
        <ele>547</ele>
        <time>2019-08-02T08:28:52Z</time>
      </trkpt>
      <trkpt lat="44.28005" lon="5.81877">
        <ele>547</ele>
        <time>2019-08-02T08:28:53Z</time>
      </trkpt>
      <trkpt lat="44.28011" lon="5.81881">
        <ele>547</ele>
        <time>2019-08-02T08:28:54Z</time>
      </trkpt>
      <trkpt lat="44.28016" lon="5.81885">
        <ele>547</ele>
        <time>2019-08-02T08:28:55Z</time>
      </trkpt>
      <trkpt lat="44.28022" lon="5.81889">
        <ele>547</ele>
        <time>2019-08-02T08:28:56Z</time>
      </trkpt>
      <trkpt lat="44.28028" lon="5.81892">
        <ele>547</ele>
        <time>2019-08-02T08:28:57Z</time>
      </trkpt>
      <trkpt lat="44.28034" lon="5.81896">
        <ele>547</ele>
        <time>2019-08-02T08:28:58Z</time>
      </trkpt>
      <trkpt lat="44.2804" lon="5.81899">
        <ele>547</ele>
        <time>2019-08-02T08:28:59Z</time>
      </trkpt>
      <trkpt lat="44.28045" lon="5.81903">
        <ele>547</ele>
        <time>2019-08-02T08:29:00Z</time>
      </trkpt>
      <trkpt lat="44.28051" lon="5.81906">
        <ele>547</ele>
        <time>2019-08-02T08:29:01Z</time>
      </trkpt>
      <trkpt lat="44.28056" lon="5.8191">
        <ele>547</ele>
        <time>2019-08-02T08:29:02Z</time>
      </trkpt>
      <trkpt lat="44.28062" lon="5.81914">
        <ele>547</ele>
        <time>2019-08-02T08:29:03Z</time>
      </trkpt>
      <trkpt lat="44.28068" lon="5.81918">
        <ele>547</ele>
        <time>2019-08-02T08:29:04Z</time>
      </trkpt>
      <trkpt lat="44.28074" lon="5.81921">
        <ele>547</ele>
        <time>2019-08-02T08:29:05Z</time>
      </trkpt>
      <trkpt lat="44.2808" lon="5.81925">
        <ele>547</ele>
        <time>2019-08-02T08:29:06Z</time>
      </trkpt>
      <trkpt lat="44.28085" lon="5.81929">
        <ele>547</ele>
        <time>2019-08-02T08:29:07Z</time>
      </trkpt>
      <trkpt lat="44.28091" lon="5.81932">
        <ele>547</ele>
        <time>2019-08-02T08:29:08Z</time>
      </trkpt>
      <trkpt lat="44.28097" lon="5.81936">
        <ele>547</ele>
        <time>2019-08-02T08:29:09Z</time>
      </trkpt>
      <trkpt lat="44.28102" lon="5.81939">
        <ele>547</ele>
        <time>2019-08-02T08:29:10Z</time>
      </trkpt>
      <trkpt lat="44.28108" lon="5.81943">
        <ele>547</ele>
        <time>2019-08-02T08:29:11Z</time>
      </trkpt>
      <trkpt lat="44.28114" lon="5.81947">
        <ele>547</ele>
        <time>2019-08-02T08:29:12Z</time>
      </trkpt>
      <trkpt lat="44.28119" lon="5.8195">
        <ele>547</ele>
        <time>2019-08-02T08:29:13Z</time>
      </trkpt>
      <trkpt lat="44.28125" lon="5.81954">
        <ele>547</ele>
        <time>2019-08-02T08:29:14Z</time>
      </trkpt>
      <trkpt lat="44.2813" lon="5.81957">
        <ele>547</ele>
        <time>2019-08-02T08:29:15Z</time>
      </trkpt>
      <trkpt lat="44.28136" lon="5.81961">
        <ele>547</ele>
        <time>2019-08-02T08:29:16Z</time>
      </trkpt>
      <trkpt lat="44.28141" lon="5.81964">
        <ele>547</ele>
        <time>2019-08-02T08:29:17Z</time>
      </trkpt>
      <trkpt lat="44.28147" lon="5.81967">
        <ele>547</ele>
        <time>2019-08-02T08:29:18Z</time>
      </trkpt>
      <trkpt lat="44.28152" lon="5.81971">
        <ele>547</ele>
        <time>2019-08-02T08:29:19Z</time>
      </trkpt>
      <trkpt lat="44.28158" lon="5.81974">
        <ele>547</ele>
        <time>2019-08-02T08:29:20Z</time>
      </trkpt>
      <trkpt lat="44.28164" lon="5.81978">
        <ele>547</ele>
        <time>2019-08-02T08:29:21Z</time>
      </trkpt>
      <trkpt lat="44.2817" lon="5.81982">
        <ele>547</ele>
        <time>2019-08-02T08:29:22Z</time>
      </trkpt>
      <trkpt lat="44.28176" lon="5.81986">
        <ele>547</ele>
        <time>2019-08-02T08:29:23Z</time>
      </trkpt>
      <trkpt lat="44.28182" lon="5.81989">
        <ele>547</ele>
        <time>2019-08-02T08:29:24Z</time>
      </trkpt>
      <trkpt lat="44.28187" lon="5.81993">
        <ele>547</ele>
        <time>2019-08-02T08:29:25Z</time>
      </trkpt>
      <trkpt lat="44.28193" lon="5.81996">
        <ele>547</ele>
        <time>2019-08-02T08:29:26Z</time>
      </trkpt>
      <trkpt lat="44.28199" lon="5.82">
        <ele>547</ele>
        <time>2019-08-02T08:29:27Z</time>
      </trkpt>
      <trkpt lat="44.28204" lon="5.82003">
        <ele>547</ele>
        <time>2019-08-02T08:29:28Z</time>
      </trkpt>
      <trkpt lat="44.2821" lon="5.82007">
        <ele>548</ele>
        <time>2019-08-02T08:29:29Z</time>
      </trkpt>
      <trkpt lat="44.28215" lon="5.8201">
        <ele>548</ele>
        <time>2019-08-02T08:29:30Z</time>
      </trkpt>
      <trkpt lat="44.28221" lon="5.82013">
        <ele>548</ele>
        <time>2019-08-02T08:29:31Z</time>
      </trkpt>
      <trkpt lat="44.28227" lon="5.82016">
        <ele>548</ele>
        <time>2019-08-02T08:29:32Z</time>
      </trkpt>
      <trkpt lat="44.28233" lon="5.82018">
        <ele>548</ele>
        <time>2019-08-02T08:29:33Z</time>
      </trkpt>
      <trkpt lat="44.28239" lon="5.8202">
        <ele>549</ele>
        <time>2019-08-02T08:29:34Z</time>
      </trkpt>
      <trkpt lat="44.28245" lon="5.82022">
        <ele>549</ele>
        <time>2019-08-02T08:29:35Z</time>
      </trkpt>
      <trkpt lat="44.2825" lon="5.82024">
        <ele>549</ele>
        <time>2019-08-02T08:29:36Z</time>
      </trkpt>
      <trkpt lat="44.28256" lon="5.82025">
        <ele>549</ele>
        <time>2019-08-02T08:29:37Z</time>
      </trkpt>
      <trkpt lat="44.28261" lon="5.82025">
        <ele>549</ele>
        <time>2019-08-02T08:29:38Z</time>
      </trkpt>
      <trkpt lat="44.28267" lon="5.82026">
        <ele>549</ele>
        <time>2019-08-02T08:29:39Z</time>
      </trkpt>
      <trkpt lat="44.28272" lon="5.82026">
        <ele>549</ele>
        <time>2019-08-02T08:29:40Z</time>
      </trkpt>
      <trkpt lat="44.28278" lon="5.82026">
        <ele>550</ele>
        <time>2019-08-02T08:29:41Z</time>
      </trkpt>
      <trkpt lat="44.28283" lon="5.82026">
        <ele>550</ele>
        <time>2019-08-02T08:29:42Z</time>
      </trkpt>
      <trkpt lat="44.28289" lon="5.82026">
        <ele>550</ele>
        <time>2019-08-02T08:29:43Z</time>
      </trkpt>
      <trkpt lat="44.28295" lon="5.82026">
        <ele>550</ele>
        <time>2019-08-02T08:29:44Z</time>
      </trkpt>
      <trkpt lat="44.28301" lon="5.82026">
        <ele>550</ele>
        <time>2019-08-02T08:29:45Z</time>
      </trkpt>
      <trkpt lat="44.28307" lon="5.82026">
        <ele>551</ele>
        <time>2019-08-02T08:29:46Z</time>
      </trkpt>
      <trkpt lat="44.28313" lon="5.82026">
        <ele>551</ele>
        <time>2019-08-02T08:29:47Z</time>
      </trkpt>
      <trkpt lat="44.28318" lon="5.82026">
        <ele>551</ele>
        <time>2019-08-02T08:29:48Z</time>
      </trkpt>
      <trkpt lat="44.28325" lon="5.82026">
        <ele>551</ele>
        <time>2019-08-02T08:29:49Z</time>
      </trkpt>
      <trkpt lat="44.28331" lon="5.82027">
        <ele>551</ele>
        <time>2019-08-02T08:29:50Z</time>
      </trkpt>
      <trkpt lat="44.28337" lon="5.82027">
        <ele>551</ele>
        <time>2019-08-02T08:29:51Z</time>
      </trkpt>
      <trkpt lat="44.28343" lon="5.82026">
        <ele>551</ele>
        <time>2019-08-02T08:29:52Z</time>
      </trkpt>
      <trkpt lat="44.28349" lon="5.82026">
        <ele>551</ele>
        <time>2019-08-02T08:29:53Z</time>
      </trkpt>
      <trkpt lat="44.28355" lon="5.82026">
        <ele>551</ele>
        <time>2019-08-02T08:29:54Z</time>
      </trkpt>
      <trkpt lat="44.28362" lon="5.82026">
        <ele>551</ele>
        <time>2019-08-02T08:29:55Z</time>
      </trkpt>
      <trkpt lat="44.28368" lon="5.82026">
        <ele>551</ele>
        <time>2019-08-02T08:29:56Z</time>
      </trkpt>
      <trkpt lat="44.28374" lon="5.82026">
        <ele>551</ele>
        <time>2019-08-02T08:29:57Z</time>
      </trkpt>
      <trkpt lat="44.28381" lon="5.82027">
        <ele>551</ele>
        <time>2019-08-02T08:29:58Z</time>
      </trkpt>
      <trkpt lat="44.28387" lon="5.82027">
        <ele>551</ele>
        <time>2019-08-02T08:29:59Z</time>
      </trkpt>
      <trkpt lat="44.28393" lon="5.82028">
        <ele>551</ele>
        <time>2019-08-02T08:30:00Z</time>
      </trkpt>
      <trkpt lat="44.284" lon="5.82029">
        <ele>551</ele>
        <time>2019-08-02T08:30:01Z</time>
      </trkpt>
      <trkpt lat="44.28406" lon="5.8203">
        <ele>551</ele>
        <time>2019-08-02T08:30:02Z</time>
      </trkpt>
      <trkpt lat="44.28412" lon="5.82031">
        <ele>551</ele>
        <time>2019-08-02T08:30:03Z</time>
      </trkpt>
      <trkpt lat="44.28418" lon="5.82032">
        <ele>551</ele>
        <time>2019-08-02T08:30:04Z</time>
      </trkpt>
      <trkpt lat="44.28424" lon="5.82034">
        <ele>551</ele>
        <time>2019-08-02T08:30:05Z</time>
      </trkpt>
      <trkpt lat="44.28431" lon="5.82036">
        <ele>551</ele>
        <time>2019-08-02T08:30:06Z</time>
      </trkpt>
      <trkpt lat="44.28437" lon="5.82038">
        <ele>551</ele>
        <time>2019-08-02T08:30:07Z</time>
      </trkpt>
      <trkpt lat="44.28442" lon="5.8204">
        <ele>551</ele>
        <time>2019-08-02T08:30:08Z</time>
      </trkpt>
      <trkpt lat="44.28448" lon="5.82042">
        <ele>551</ele>
        <time>2019-08-02T08:30:09Z</time>
      </trkpt>
      <trkpt lat="44.28454" lon="5.82044">
        <ele>551</ele>
        <time>2019-08-02T08:30:10Z</time>
      </trkpt>
      <trkpt lat="44.28459" lon="5.82047">
        <ele>551</ele>
        <time>2019-08-02T08:30:11Z</time>
      </trkpt>
      <trkpt lat="44.28465" lon="5.82049">
        <ele>551</ele>
        <time>2019-08-02T08:30:12Z</time>
      </trkpt>
      <trkpt lat="44.2847" lon="5.82052">
        <ele>551</ele>
        <time>2019-08-02T08:30:13Z</time>
      </trkpt>
      <trkpt lat="44.28476" lon="5.82054">
        <ele>551</ele>
        <time>2019-08-02T08:30:14Z</time>
      </trkpt>
      <trkpt lat="44.28481" lon="5.82057">
        <ele>552</ele>
        <time>2019-08-02T08:30:15Z</time>
      </trkpt>
      <trkpt lat="44.28487" lon="5.8206">
        <ele>552</ele>
        <time>2019-08-02T08:30:16Z</time>
      </trkpt>
      <trkpt lat="44.28492" lon="5.82063">
        <ele>552</ele>
        <time>2019-08-02T08:30:17Z</time>
      </trkpt>
      <trkpt lat="44.28498" lon="5.82065">
        <ele>553</ele>
        <time>2019-08-02T08:30:18Z</time>
      </trkpt>
      <trkpt lat="44.28503" lon="5.82068">
        <ele>553</ele>
        <time>2019-08-02T08:30:19Z</time>
      </trkpt>
      <trkpt lat="44.28508" lon="5.82071">
        <ele>553</ele>
        <time>2019-08-02T08:30:20Z</time>
      </trkpt>
      <trkpt lat="44.28514" lon="5.82074">
        <ele>553</ele>
        <time>2019-08-02T08:30:21Z</time>
      </trkpt>
      <trkpt lat="44.28519" lon="5.82077">
        <ele>553</ele>
        <time>2019-08-02T08:30:22Z</time>
      </trkpt>
      <trkpt lat="44.28524" lon="5.82079">
        <ele>553</ele>
        <time>2019-08-02T08:30:23Z</time>
      </trkpt>
      <trkpt lat="44.28529" lon="5.82082">
        <ele>553</ele>
        <time>2019-08-02T08:30:24Z</time>
      </trkpt>
      <trkpt lat="44.28534" lon="5.82084">
        <ele>554</ele>
        <time>2019-08-02T08:30:25Z</time>
      </trkpt>
      <trkpt lat="44.2854" lon="5.82087">
        <ele>554</ele>
        <time>2019-08-02T08:30:26Z</time>
      </trkpt>
      <trkpt lat="44.28545" lon="5.8209">
        <ele>554</ele>
        <time>2019-08-02T08:30:27Z</time>
      </trkpt>
      <trkpt lat="44.2855" lon="5.82092">
        <ele>555</ele>
        <time>2019-08-02T08:30:28Z</time>
      </trkpt>
      <trkpt lat="44.28555" lon="5.82095">
        <ele>555</ele>
        <time>2019-08-02T08:30:29Z</time>
      </trkpt>
      <trkpt lat="44.28559" lon="5.82097">
        <ele>555</ele>
        <time>2019-08-02T08:30:30Z</time>
      </trkpt>
      <trkpt lat="44.28564" lon="5.821">
        <ele>556</ele>
        <time>2019-08-02T08:30:31Z</time>
      </trkpt>
      <trkpt lat="44.28569" lon="5.82102">
        <ele>556</ele>
        <time>2019-08-02T08:30:32Z</time>
      </trkpt>
      <trkpt lat="44.28574" lon="5.82105">
        <ele>556</ele>
        <time>2019-08-02T08:30:33Z</time>
      </trkpt>
      <trkpt lat="44.28579" lon="5.82107">
        <ele>557</ele>
        <time>2019-08-02T08:30:34Z</time>
      </trkpt>
      <trkpt lat="44.28584" lon="5.82109">
        <ele>557</ele>
        <time>2019-08-02T08:30:35Z</time>
      </trkpt>
      <trkpt lat="44.28588" lon="5.82112">
        <ele>557</ele>
        <time>2019-08-02T08:30:36Z</time>
      </trkpt>
      <trkpt lat="44.28593" lon="5.82114">
        <ele>558</ele>
        <time>2019-08-02T08:30:37Z</time>
      </trkpt>
      <trkpt lat="44.28598" lon="5.82116">
        <ele>558</ele>
        <time>2019-08-02T08:30:38Z</time>
      </trkpt>
      <trkpt lat="44.28602" lon="5.82117">
        <ele>559</ele>
        <time>2019-08-02T08:30:39Z</time>
      </trkpt>
      <trkpt lat="44.28607" lon="5.82119">
        <ele>559</ele>
        <time>2019-08-02T08:30:40Z</time>
      </trkpt>
      <trkpt lat="44.28611" lon="5.82121">
        <ele>559</ele>
        <time>2019-08-02T08:30:41Z</time>
      </trkpt>
      <trkpt lat="44.28616" lon="5.82122">
        <ele>560</ele>
        <time>2019-08-02T08:30:42Z</time>
      </trkpt>
      <trkpt lat="44.2862" lon="5.82124">
        <ele>560</ele>
        <time>2019-08-02T08:30:43Z</time>
      </trkpt>
      <trkpt lat="44.28624" lon="5.82125">
        <ele>560</ele>
        <time>2019-08-02T08:30:44Z</time>
      </trkpt>
      <trkpt lat="44.28629" lon="5.82126">
        <ele>561</ele>
        <time>2019-08-02T08:30:45Z</time>
      </trkpt>
      <trkpt lat="44.28633" lon="5.82127">
        <ele>561</ele>
        <time>2019-08-02T08:30:46Z</time>
      </trkpt>
      <trkpt lat="44.28637" lon="5.82129">
        <ele>561</ele>
        <time>2019-08-02T08:30:47Z</time>
      </trkpt>
      <trkpt lat="44.28641" lon="5.8213">
        <ele>561</ele>
        <time>2019-08-02T08:30:48Z</time>
      </trkpt>
      <trkpt lat="44.28645" lon="5.82131">
        <ele>562</ele>
        <time>2019-08-02T08:30:49Z</time>
      </trkpt>
      <trkpt lat="44.2865" lon="5.82132">
        <ele>562</ele>
        <time>2019-08-02T08:30:50Z</time>
      </trkpt>
      <trkpt lat="44.28654" lon="5.82133">
        <ele>562</ele>
        <time>2019-08-02T08:30:51Z</time>
      </trkpt>
      <trkpt lat="44.28659" lon="5.82134">
        <ele>563</ele>
        <time>2019-08-02T08:30:52Z</time>
      </trkpt>
      <trkpt lat="44.28663" lon="5.82136">
        <ele>563</ele>
        <time>2019-08-02T08:30:53Z</time>
      </trkpt>
      <trkpt lat="44.28667" lon="5.82137">
        <ele>563</ele>
        <time>2019-08-02T08:30:54Z</time>
      </trkpt>
      <trkpt lat="44.28672" lon="5.82139">
        <ele>564</ele>
        <time>2019-08-02T08:30:55Z</time>
      </trkpt>
      <trkpt lat="44.28676" lon="5.8214">
        <ele>564</ele>
        <time>2019-08-02T08:30:56Z</time>
      </trkpt>
      <trkpt lat="44.28681" lon="5.82142">
        <ele>564</ele>
        <time>2019-08-02T08:30:57Z</time>
      </trkpt>
      <trkpt lat="44.28685" lon="5.82143">
        <ele>564</ele>
        <time>2019-08-02T08:30:58Z</time>
      </trkpt>
      <trkpt lat="44.2869" lon="5.82145">
        <ele>565</ele>
        <time>2019-08-02T08:30:59Z</time>
      </trkpt>
      <trkpt lat="44.28694" lon="5.82146">
        <ele>565</ele>
        <time>2019-08-02T08:31:00Z</time>
      </trkpt>
      <trkpt lat="44.28699" lon="5.82148">
        <ele>565</ele>
        <time>2019-08-02T08:31:01Z</time>
      </trkpt>
      <trkpt lat="44.28703" lon="5.82149">
        <ele>565</ele>
        <time>2019-08-02T08:31:02Z</time>
      </trkpt>
      <trkpt lat="44.28708" lon="5.82151">
        <ele>565</ele>
        <time>2019-08-02T08:31:03Z</time>
      </trkpt>
      <trkpt lat="44.28713" lon="5.82153">
        <ele>565</ele>
        <time>2019-08-02T08:31:04Z</time>
      </trkpt>
      <trkpt lat="44.28718" lon="5.82155">
        <ele>565</ele>
        <time>2019-08-02T08:31:05Z</time>
      </trkpt>
      <trkpt lat="44.28723" lon="5.82157">
        <ele>565</ele>
        <time>2019-08-02T08:31:06Z</time>
      </trkpt>
      <trkpt lat="44.28728" lon="5.82159">
        <ele>565</ele>
        <time>2019-08-02T08:31:07Z</time>
      </trkpt>
      <trkpt lat="44.28734" lon="5.82162">
        <ele>565</ele>
        <time>2019-08-02T08:31:08Z</time>
      </trkpt>
      <trkpt lat="44.28739" lon="5.82164">
        <ele>565</ele>
        <time>2019-08-02T08:31:09Z</time>
      </trkpt>
      <trkpt lat="44.28744" lon="5.82166">
        <ele>565</ele>
        <time>2019-08-02T08:31:10Z</time>
      </trkpt>
      <trkpt lat="44.28749" lon="5.82169">
        <ele>565</ele>
        <time>2019-08-02T08:31:11Z</time>
      </trkpt>
      <trkpt lat="44.28754" lon="5.82172">
        <ele>565</ele>
        <time>2019-08-02T08:31:12Z</time>
      </trkpt>
      <trkpt lat="44.28759" lon="5.82175">
        <ele>565</ele>
        <time>2019-08-02T08:31:13Z</time>
      </trkpt>
      <trkpt lat="44.28764" lon="5.82178">
        <ele>566</ele>
        <time>2019-08-02T08:31:14Z</time>
      </trkpt>
      <trkpt lat="44.28769" lon="5.82181">
        <ele>566</ele>
        <time>2019-08-02T08:31:15Z</time>
      </trkpt>
      <trkpt lat="44.28774" lon="5.82184">
        <ele>566</ele>
        <time>2019-08-02T08:31:16Z</time>
      </trkpt>
      <trkpt lat="44.28779" lon="5.82187">
        <ele>567</ele>
        <time>2019-08-02T08:31:17Z</time>
      </trkpt>
      <trkpt lat="44.28784" lon="5.8219">
        <ele>567</ele>
        <time>2019-08-02T08:31:18Z</time>
      </trkpt>
      <trkpt lat="44.28788" lon="5.82193">
        <ele>567</ele>
        <time>2019-08-02T08:31:19Z</time>
      </trkpt>
      <trkpt lat="44.28793" lon="5.82197">
        <ele>568</ele>
        <time>2019-08-02T08:31:20Z</time>
      </trkpt>
      <trkpt lat="44.28798" lon="5.822">
        <ele>568</ele>
        <time>2019-08-02T08:31:21Z</time>
      </trkpt>
      <trkpt lat="44.28803" lon="5.82203">
        <ele>568</ele>
        <time>2019-08-02T08:31:22Z</time>
      </trkpt>
      <trkpt lat="44.28807" lon="5.82207">
        <ele>569</ele>
        <time>2019-08-02T08:31:23Z</time>
      </trkpt>
      <trkpt lat="44.28812" lon="5.82211">
        <ele>569</ele>
        <time>2019-08-02T08:31:24Z</time>
      </trkpt>
      <trkpt lat="44.28817" lon="5.82215">
        <ele>569</ele>
        <time>2019-08-02T08:31:25Z</time>
      </trkpt>
      <trkpt lat="44.28822" lon="5.82219">
        <ele>569</ele>
        <time>2019-08-02T08:31:26Z</time>
      </trkpt>
      <trkpt lat="44.28827" lon="5.82223">
        <ele>569</ele>
        <time>2019-08-02T08:31:27Z</time>
      </trkpt>
      <trkpt lat="44.28832" lon="5.82227">
        <ele>569</ele>
        <time>2019-08-02T08:31:28Z</time>
      </trkpt>
      <trkpt lat="44.28837" lon="5.82232">
        <ele>569</ele>
        <time>2019-08-02T08:31:29Z</time>
      </trkpt>
      <trkpt lat="44.28842" lon="5.82236">
        <ele>569</ele>
        <time>2019-08-02T08:31:30Z</time>
      </trkpt>
      <trkpt lat="44.28846" lon="5.8224">
        <ele>569</ele>
        <time>2019-08-02T08:31:31Z</time>
      </trkpt>
      <trkpt lat="44.28851" lon="5.82245">
        <ele>569</ele>
        <time>2019-08-02T08:31:32Z</time>
      </trkpt>
      <trkpt lat="44.28856" lon="5.82249">
        <ele>569</ele>
        <time>2019-08-02T08:31:33Z</time>
      </trkpt>
      <trkpt lat="44.28861" lon="5.82254">
        <ele>569</ele>
        <time>2019-08-02T08:31:34Z</time>
      </trkpt>
      <trkpt lat="44.28865" lon="5.82259">
        <ele>569</ele>
        <time>2019-08-02T08:31:35Z</time>
      </trkpt>
      <trkpt lat="44.2887" lon="5.82263">
        <ele>569</ele>
        <time>2019-08-02T08:31:36Z</time>
      </trkpt>
      <trkpt lat="44.28875" lon="5.82267">
        <ele>569</ele>
        <time>2019-08-02T08:31:37Z</time>
      </trkpt>
      <trkpt lat="44.2888" lon="5.82271">
        <ele>569</ele>
        <time>2019-08-02T08:31:38Z</time>
      </trkpt>
      <trkpt lat="44.28886" lon="5.82275">
        <ele>569</ele>
        <time>2019-08-02T08:31:39Z</time>
      </trkpt>
      <trkpt lat="44.28891" lon="5.82279">
        <ele>569</ele>
        <time>2019-08-02T08:31:40Z</time>
      </trkpt>
      <trkpt lat="44.28897" lon="5.82282">
        <ele>569</ele>
        <time>2019-08-02T08:31:41Z</time>
      </trkpt>
      <trkpt lat="44.28902" lon="5.82285">
        <ele>569</ele>
        <time>2019-08-02T08:31:42Z</time>
      </trkpt>
      <trkpt lat="44.28909" lon="5.82288">
        <ele>569</ele>
        <time>2019-08-02T08:31:43Z</time>
      </trkpt>
      <trkpt lat="44.28915" lon="5.8229">
        <ele>569</ele>
        <time>2019-08-02T08:31:44Z</time>
      </trkpt>
      <trkpt lat="44.28921" lon="5.82291">
        <ele>569</ele>
        <time>2019-08-02T08:31:45Z</time>
      </trkpt>
      <trkpt lat="44.28928" lon="5.82292">
        <ele>569</ele>
        <time>2019-08-02T08:31:46Z</time>
      </trkpt>
      <trkpt lat="44.28935" lon="5.82292">
        <ele>569</ele>
        <time>2019-08-02T08:31:47Z</time>
      </trkpt>
      <trkpt lat="44.28942" lon="5.82292">
        <ele>569</ele>
        <time>2019-08-02T08:31:48Z</time>
      </trkpt>
      <trkpt lat="44.28949" lon="5.82292">
        <ele>569</ele>
        <time>2019-08-02T08:31:49Z</time>
      </trkpt>
      <trkpt lat="44.28957" lon="5.82292">
        <ele>569</ele>
        <time>2019-08-02T08:31:50Z</time>
      </trkpt>
      <trkpt lat="44.28964" lon="5.82291">
        <ele>569</ele>
        <time>2019-08-02T08:31:51Z</time>
      </trkpt>
      <trkpt lat="44.28972" lon="5.8229">
        <ele>569</ele>
        <time>2019-08-02T08:31:52Z</time>
      </trkpt>
      <trkpt lat="44.28981" lon="5.82289">
        <ele>569</ele>
        <time>2019-08-02T08:31:53Z</time>
      </trkpt>
      <trkpt lat="44.28989" lon="5.82289">
        <ele>569</ele>
        <time>2019-08-02T08:31:54Z</time>
      </trkpt>
      <trkpt lat="44.28997" lon="5.82289">
        <ele>569</ele>
        <time>2019-08-02T08:31:55Z</time>
      </trkpt>
      <trkpt lat="44.29005" lon="5.82288">
        <ele>569</ele>
        <time>2019-08-02T08:31:56Z</time>
      </trkpt>
      <trkpt lat="44.29014" lon="5.82287">
        <ele>569</ele>
        <time>2019-08-02T08:31:57Z</time>
      </trkpt>
      <trkpt lat="44.29023" lon="5.82287">
        <ele>569</ele>
        <time>2019-08-02T08:31:58Z</time>
      </trkpt>
      <trkpt lat="44.29031" lon="5.82286">
        <ele>569</ele>
        <time>2019-08-02T08:31:59Z</time>
      </trkpt>
      <trkpt lat="44.2904" lon="5.82285">
        <ele>569</ele>
        <time>2019-08-02T08:32:00Z</time>
      </trkpt>
      <trkpt lat="44.29049" lon="5.82284">
        <ele>569</ele>
        <time>2019-08-02T08:32:01Z</time>
      </trkpt>
      <trkpt lat="44.29058" lon="5.82283">
        <ele>569</ele>
        <time>2019-08-02T08:32:02Z</time>
      </trkpt>
      <trkpt lat="44.29067" lon="5.82283">
        <ele>569</ele>
        <time>2019-08-02T08:32:03Z</time>
      </trkpt>
      <trkpt lat="44.29076" lon="5.82282">
        <ele>569</ele>
        <time>2019-08-02T08:32:04Z</time>
      </trkpt>
      <trkpt lat="44.29085" lon="5.82281">
        <ele>569</ele>
        <time>2019-08-02T08:32:05Z</time>
      </trkpt>
      <trkpt lat="44.29094" lon="5.8228">
        <ele>569</ele>
        <time>2019-08-02T08:32:06Z</time>
      </trkpt>
      <trkpt lat="44.29102" lon="5.82279">
        <ele>568</ele>
        <time>2019-08-02T08:32:07Z</time>
      </trkpt>
      <trkpt lat="44.29111" lon="5.82278">
        <ele>568</ele>
        <time>2019-08-02T08:32:08Z</time>
      </trkpt>
      <trkpt lat="44.2912" lon="5.82277">
        <ele>568</ele>
        <time>2019-08-02T08:32:09Z</time>
      </trkpt>
      <trkpt lat="44.29129" lon="5.82276">
        <ele>568</ele>
        <time>2019-08-02T08:32:10Z</time>
      </trkpt>
      <trkpt lat="44.29137" lon="5.82275">
        <ele>568</ele>
        <time>2019-08-02T08:32:11Z</time>
      </trkpt>
      <trkpt lat="44.29146" lon="5.82274">
        <ele>567</ele>
        <time>2019-08-02T08:32:12Z</time>
      </trkpt>
      <trkpt lat="44.29154" lon="5.82273">
        <ele>567</ele>
        <time>2019-08-02T08:32:13Z</time>
      </trkpt>
      <trkpt lat="44.29162" lon="5.82272">
        <ele>567</ele>
        <time>2019-08-02T08:32:14Z</time>
      </trkpt>
      <trkpt lat="44.29171" lon="5.82271">
        <ele>567</ele>
        <time>2019-08-02T08:32:15Z</time>
      </trkpt>
      <trkpt lat="44.29179" lon="5.8227">
        <ele>567</ele>
        <time>2019-08-02T08:32:16Z</time>
      </trkpt>
      <trkpt lat="44.29187" lon="5.82269">
        <ele>567</ele>
        <time>2019-08-02T08:32:17Z</time>
      </trkpt>
      <trkpt lat="44.29195" lon="5.82268">
        <ele>567</ele>
        <time>2019-08-02T08:32:18Z</time>
      </trkpt>
      <trkpt lat="44.29203" lon="5.82268">
        <ele>567</ele>
        <time>2019-08-02T08:32:19Z</time>
      </trkpt>
      <trkpt lat="44.29211" lon="5.82267">
        <ele>567</ele>
        <time>2019-08-02T08:32:20Z</time>
      </trkpt>
      <trkpt lat="44.29219" lon="5.82265">
        <ele>567</ele>
        <time>2019-08-02T08:32:21Z</time>
      </trkpt>
      <trkpt lat="44.29227" lon="5.82264">
        <ele>567</ele>
        <time>2019-08-02T08:32:22Z</time>
      </trkpt>
      <trkpt lat="44.29235" lon="5.82263">
        <ele>566</ele>
        <time>2019-08-02T08:32:23Z</time>
      </trkpt>
      <trkpt lat="44.29243" lon="5.82262">
        <ele>566</ele>
        <time>2019-08-02T08:32:24Z</time>
      </trkpt>
      <trkpt lat="44.29251" lon="5.8226">
        <ele>566</ele>
        <time>2019-08-02T08:32:25Z</time>
      </trkpt>
      <trkpt lat="44.29258" lon="5.82258">
        <ele>566</ele>
        <time>2019-08-02T08:32:26Z</time>
      </trkpt>
      <trkpt lat="44.29266" lon="5.82256">
        <ele>566</ele>
        <time>2019-08-02T08:32:27Z</time>
      </trkpt>
      <trkpt lat="44.29274" lon="5.82253">
        <ele>566</ele>
        <time>2019-08-02T08:32:28Z</time>
      </trkpt>
      <trkpt lat="44.29281" lon="5.82249">
        <ele>566</ele>
        <time>2019-08-02T08:32:29Z</time>
      </trkpt>
      <trkpt lat="44.29288" lon="5.82246">
        <ele>566</ele>
        <time>2019-08-02T08:32:30Z</time>
      </trkpt>
      <trkpt lat="44.29296" lon="5.82243">
        <ele>566</ele>
        <time>2019-08-02T08:32:31Z</time>
      </trkpt>
      <trkpt lat="44.29303" lon="5.8224">
        <ele>566</ele>
        <time>2019-08-02T08:32:32Z</time>
      </trkpt>
      <trkpt lat="44.29311" lon="5.82236">
        <ele>566</ele>
        <time>2019-08-02T08:32:33Z</time>
      </trkpt>
      <trkpt lat="44.29318" lon="5.82233">
        <ele>566</ele>
        <time>2019-08-02T08:32:34Z</time>
      </trkpt>
      <trkpt lat="44.29326" lon="5.8223">
        <ele>566</ele>
        <time>2019-08-02T08:32:35Z</time>
      </trkpt>
      <trkpt lat="44.29333" lon="5.82226">
        <ele>566</ele>
        <time>2019-08-02T08:32:36Z</time>
      </trkpt>
      <trkpt lat="44.2934" lon="5.82223">
        <ele>566</ele>
        <time>2019-08-02T08:32:37Z</time>
      </trkpt>
      <trkpt lat="44.29348" lon="5.82219">
        <ele>566</ele>
        <time>2019-08-02T08:32:38Z</time>
      </trkpt>
      <trkpt lat="44.29355" lon="5.82215">
        <ele>566</ele>
        <time>2019-08-02T08:32:39Z</time>
      </trkpt>
      <trkpt lat="44.29362" lon="5.82211">
        <ele>566</ele>
        <time>2019-08-02T08:32:40Z</time>
      </trkpt>
      <trkpt lat="44.2937" lon="5.82206">
        <ele>566</ele>
        <time>2019-08-02T08:32:41Z</time>
      </trkpt>
      <trkpt lat="44.29377" lon="5.822">
        <ele>566</ele>
        <time>2019-08-02T08:32:42Z</time>
      </trkpt>
      <trkpt lat="44.29383" lon="5.82194">
        <ele>566</ele>
        <time>2019-08-02T08:32:43Z</time>
      </trkpt>
      <trkpt lat="44.2939" lon="5.82187">
        <ele>566</ele>
        <time>2019-08-02T08:32:44Z</time>
      </trkpt>
      <trkpt lat="44.29396" lon="5.8218">
        <ele>566</ele>
        <time>2019-08-02T08:32:45Z</time>
      </trkpt>
      <trkpt lat="44.29403" lon="5.82172">
        <ele>566</ele>
        <time>2019-08-02T08:32:46Z</time>
      </trkpt>
      <trkpt lat="44.2941" lon="5.82164">
        <ele>566</ele>
        <time>2019-08-02T08:32:47Z</time>
      </trkpt>
      <trkpt lat="44.29417" lon="5.82156">
        <ele>566</ele>
        <time>2019-08-02T08:32:48Z</time>
      </trkpt>
      <trkpt lat="44.29424" lon="5.82148">
        <ele>566</ele>
        <time>2019-08-02T08:32:49Z</time>
      </trkpt>
      <trkpt lat="44.2943" lon="5.8214">
        <ele>566</ele>
        <time>2019-08-02T08:32:50Z</time>
      </trkpt>
      <trkpt lat="44.29438" lon="5.82132">
        <ele>566</ele>
        <time>2019-08-02T08:32:51Z</time>
      </trkpt>
      <trkpt lat="44.29445" lon="5.82125">
        <ele>566</ele>
        <time>2019-08-02T08:32:52Z</time>
      </trkpt>
      <trkpt lat="44.29452" lon="5.82119">
        <ele>566</ele>
        <time>2019-08-02T08:32:53Z</time>
      </trkpt>
      <trkpt lat="44.29459" lon="5.82113">
        <ele>566</ele>
        <time>2019-08-02T08:32:54Z</time>
      </trkpt>
      <trkpt lat="44.29467" lon="5.82108">
        <ele>566</ele>
        <time>2019-08-02T08:32:55Z</time>
      </trkpt>
      <trkpt lat="44.29476" lon="5.82105">
        <ele>566</ele>
        <time>2019-08-02T08:32:56Z</time>
      </trkpt>
      <trkpt lat="44.29484" lon="5.82102">
        <ele>566</ele>
        <time>2019-08-02T08:32:57Z</time>
      </trkpt>
      <trkpt lat="44.29492" lon="5.82101">
        <ele>566</ele>
        <time>2019-08-02T08:32:58Z</time>
      </trkpt>
      <trkpt lat="44.29501" lon="5.821">
        <ele>566</ele>
        <time>2019-08-02T08:32:59Z</time>
      </trkpt>
      <trkpt lat="44.29509" lon="5.821">
        <ele>566</ele>
        <time>2019-08-02T08:33:00Z</time>
      </trkpt>
      <trkpt lat="44.29517" lon="5.82101">
        <ele>566</ele>
        <time>2019-08-02T08:33:01Z</time>
      </trkpt>
      <trkpt lat="44.29525" lon="5.82102">
        <ele>566</ele>
        <time>2019-08-02T08:33:02Z</time>
      </trkpt>
      <trkpt lat="44.29533" lon="5.82103">
        <ele>566</ele>
        <time>2019-08-02T08:33:03Z</time>
      </trkpt>
      <trkpt lat="44.29541" lon="5.82105">
        <ele>566</ele>
        <time>2019-08-02T08:33:04Z</time>
      </trkpt>
      <trkpt lat="44.2955" lon="5.82106">
        <ele>566</ele>
        <time>2019-08-02T08:33:05Z</time>
      </trkpt>
      <trkpt lat="44.29558" lon="5.82108">
        <ele>566</ele>
        <time>2019-08-02T08:33:06Z</time>
      </trkpt>
      <trkpt lat="44.29567" lon="5.82111">
        <ele>566</ele>
        <time>2019-08-02T08:33:07Z</time>
      </trkpt>
      <trkpt lat="44.29575" lon="5.82114">
        <ele>566</ele>
        <time>2019-08-02T08:33:08Z</time>
      </trkpt>
      <trkpt lat="44.29584" lon="5.82117">
        <ele>566</ele>
        <time>2019-08-02T08:33:09Z</time>
      </trkpt>
      <trkpt lat="44.29592" lon="5.82121">
        <ele>566</ele>
        <time>2019-08-02T08:33:10Z</time>
      </trkpt>
      <trkpt lat="44.296" lon="5.82125">
        <ele>566</ele>
        <time>2019-08-02T08:33:11Z</time>
      </trkpt>
      <trkpt lat="44.29608" lon="5.8213">
        <ele>566</ele>
        <time>2019-08-02T08:33:12Z</time>
      </trkpt>
      <trkpt lat="44.29617" lon="5.82135">
        <ele>566</ele>
        <time>2019-08-02T08:33:13Z</time>
      </trkpt>
      <trkpt lat="44.29625" lon="5.82141">
        <ele>566</ele>
        <time>2019-08-02T08:33:14Z</time>
      </trkpt>
      <trkpt lat="44.29633" lon="5.82147">
        <ele>566</ele>
        <time>2019-08-02T08:33:15Z</time>
      </trkpt>
      <trkpt lat="44.29641" lon="5.82154">
        <ele>566</ele>
        <time>2019-08-02T08:33:16Z</time>
      </trkpt>
      <trkpt lat="44.29648" lon="5.82161">
        <ele>566</ele>
        <time>2019-08-02T08:33:17Z</time>
      </trkpt>
      <trkpt lat="44.29656" lon="5.82168">
        <ele>566</ele>
        <time>2019-08-02T08:33:18Z</time>
      </trkpt>
      <trkpt lat="44.29663" lon="5.82175">
        <ele>565</ele>
        <time>2019-08-02T08:33:19Z</time>
      </trkpt>
      <trkpt lat="44.2967" lon="5.82183">
        <ele>565</ele>
        <time>2019-08-02T08:33:20Z</time>
      </trkpt>
      <trkpt lat="44.29677" lon="5.8219">
        <ele>565</ele>
        <time>2019-08-02T08:33:21Z</time>
      </trkpt>
      <trkpt lat="44.29684" lon="5.82197">
        <ele>564</ele>
        <time>2019-08-02T08:33:22Z</time>
      </trkpt>
      <trkpt lat="44.29691" lon="5.82204">
        <ele>564</ele>
        <time>2019-08-02T08:33:23Z</time>
      </trkpt>
      <trkpt lat="44.29697" lon="5.8221">
        <ele>564</ele>
        <time>2019-08-02T08:33:24Z</time>
      </trkpt>
      <trkpt lat="44.29704" lon="5.82216">
        <ele>564</ele>
        <time>2019-08-02T08:33:25Z</time>
      </trkpt>
      <trkpt lat="44.29711" lon="5.82222">
        <ele>564</ele>
        <time>2019-08-02T08:33:26Z</time>
      </trkpt>
      <trkpt lat="44.29718" lon="5.82227">
        <ele>564</ele>
        <time>2019-08-02T08:33:27Z</time>
      </trkpt>
      <trkpt lat="44.29725" lon="5.82231">
        <ele>564</ele>
        <time>2019-08-02T08:33:28Z</time>
      </trkpt>
      <trkpt lat="44.29733" lon="5.82235">
        <ele>564</ele>
        <time>2019-08-02T08:33:29Z</time>
      </trkpt>
      <trkpt lat="44.2974" lon="5.82239">
        <ele>564</ele>
        <time>2019-08-02T08:33:30Z</time>
      </trkpt>
      <trkpt lat="44.29748" lon="5.82242">
        <ele>564</ele>
        <time>2019-08-02T08:33:31Z</time>
      </trkpt>
      <trkpt lat="44.29755" lon="5.82245">
        <ele>564</ele>
        <time>2019-08-02T08:33:32Z</time>
      </trkpt>
      <trkpt lat="44.29763" lon="5.82247">
        <ele>564</ele>
        <time>2019-08-02T08:33:33Z</time>
      </trkpt>
      <trkpt lat="44.29771" lon="5.82249">
        <ele>564</ele>
        <time>2019-08-02T08:33:34Z</time>
      </trkpt>
      <trkpt lat="44.29779" lon="5.82251">
        <ele>564</ele>
        <time>2019-08-02T08:33:35Z</time>
      </trkpt>
      <trkpt lat="44.29787" lon="5.82253">
        <ele>564</ele>
        <time>2019-08-02T08:33:36Z</time>
      </trkpt>
      <trkpt lat="44.29795" lon="5.82254">
        <ele>564</ele>
        <time>2019-08-02T08:33:37Z</time>
      </trkpt>
      <trkpt lat="44.29803" lon="5.82256">
        <ele>564</ele>
        <time>2019-08-02T08:33:38Z</time>
      </trkpt>
      <trkpt lat="44.29811" lon="5.82257">
        <ele>564</ele>
        <time>2019-08-02T08:33:39Z</time>
      </trkpt>
      <trkpt lat="44.2982" lon="5.82259">
        <ele>564</ele>
        <time>2019-08-02T08:33:40Z</time>
      </trkpt>
      <trkpt lat="44.29828" lon="5.8226">
        <ele>564</ele>
        <time>2019-08-02T08:33:41Z</time>
      </trkpt>
      <trkpt lat="44.29836" lon="5.82262">
        <ele>564</ele>
        <time>2019-08-02T08:33:42Z</time>
      </trkpt>
      <trkpt lat="44.29845" lon="5.82264">
        <ele>564</ele>
        <time>2019-08-02T08:33:43Z</time>
      </trkpt>
      <trkpt lat="44.29853" lon="5.82267">
        <ele>564</ele>
        <time>2019-08-02T08:33:44Z</time>
      </trkpt>
      <trkpt lat="44.29861" lon="5.8227">
        <ele>564</ele>
        <time>2019-08-02T08:33:45Z</time>
      </trkpt>
      <trkpt lat="44.29869" lon="5.82273">
        <ele>564</ele>
        <time>2019-08-02T08:33:46Z</time>
      </trkpt>
      <trkpt lat="44.29876" lon="5.82277">
        <ele>564</ele>
        <time>2019-08-02T08:33:47Z</time>
      </trkpt>
      <trkpt lat="44.29884" lon="5.82281">
        <ele>564</ele>
        <time>2019-08-02T08:33:48Z</time>
      </trkpt>
      <trkpt lat="44.29892" lon="5.82286">
        <ele>564</ele>
        <time>2019-08-02T08:33:49Z</time>
      </trkpt>
      <trkpt lat="44.29899" lon="5.8229">
        <ele>564</ele>
        <time>2019-08-02T08:33:50Z</time>
      </trkpt>
      <trkpt lat="44.29906" lon="5.82294">
        <ele>564</ele>
        <time>2019-08-02T08:33:51Z</time>
      </trkpt>
      <trkpt lat="44.29914" lon="5.82298">
        <ele>564</ele>
        <time>2019-08-02T08:33:52Z</time>
      </trkpt>
      <trkpt lat="44.29921" lon="5.82302">
        <ele>564</ele>
        <time>2019-08-02T08:33:53Z</time>
      </trkpt>
      <trkpt lat="44.29928" lon="5.82306">
        <ele>564</ele>
        <time>2019-08-02T08:33:54Z</time>
      </trkpt>
      <trkpt lat="44.29936" lon="5.8231">
        <ele>564</ele>
        <time>2019-08-02T08:33:55Z</time>
      </trkpt>
      <trkpt lat="44.29943" lon="5.82313">
        <ele>564</ele>
        <time>2019-08-02T08:33:56Z</time>
      </trkpt>
      <trkpt lat="44.2995" lon="5.82317">
        <ele>564</ele>
        <time>2019-08-02T08:33:57Z</time>
      </trkpt>
      <trkpt lat="44.29958" lon="5.8232">
        <ele>564</ele>
        <time>2019-08-02T08:33:58Z</time>
      </trkpt>
      <trkpt lat="44.29965" lon="5.82323">
        <ele>564</ele>
        <time>2019-08-02T08:33:59Z</time>
      </trkpt>
      <trkpt lat="44.29972" lon="5.82325">
        <ele>564</ele>
        <time>2019-08-02T08:34:00Z</time>
      </trkpt>
      <trkpt lat="44.2998" lon="5.82328">
        <ele>564</ele>
        <time>2019-08-02T08:34:01Z</time>
      </trkpt>
      <trkpt lat="44.29987" lon="5.82331">
        <ele>564</ele>
        <time>2019-08-02T08:34:02Z</time>
      </trkpt>
      <trkpt lat="44.29995" lon="5.82333">
        <ele>564</ele>
        <time>2019-08-02T08:34:03Z</time>
      </trkpt>
      <trkpt lat="44.30002" lon="5.82336">
        <ele>564</ele>
        <time>2019-08-02T08:34:04Z</time>
      </trkpt>
      <trkpt lat="44.3001" lon="5.82338">
        <ele>564</ele>
        <time>2019-08-02T08:34:05Z</time>
      </trkpt>
      <trkpt lat="44.30017" lon="5.82339">
        <ele>564</ele>
        <time>2019-08-02T08:34:06Z</time>
      </trkpt>
      <trkpt lat="44.30024" lon="5.82341">
        <ele>564</ele>
        <time>2019-08-02T08:34:07Z</time>
      </trkpt>
      <trkpt lat="44.30032" lon="5.82342">
        <ele>564</ele>
        <time>2019-08-02T08:34:08Z</time>
      </trkpt>
      <trkpt lat="44.30039" lon="5.82344">
        <ele>564</ele>
        <time>2019-08-02T08:34:09Z</time>
      </trkpt>
      <trkpt lat="44.30046" lon="5.82345">
        <ele>564</ele>
        <time>2019-08-02T08:34:10Z</time>
      </trkpt>
      <trkpt lat="44.30054" lon="5.82346">
        <ele>564</ele>
        <time>2019-08-02T08:34:11Z</time>
      </trkpt>
      <trkpt lat="44.30061" lon="5.82348">
        <ele>564</ele>
        <time>2019-08-02T08:34:12Z</time>
      </trkpt>
      <trkpt lat="44.30069" lon="5.82348">
        <ele>564</ele>
        <time>2019-08-02T08:34:13Z</time>
      </trkpt>
      <trkpt lat="44.30077" lon="5.82349">
        <ele>564</ele>
        <time>2019-08-02T08:34:14Z</time>
      </trkpt>
      <trkpt lat="44.30084" lon="5.8235">
        <ele>564</ele>
        <time>2019-08-02T08:34:15Z</time>
      </trkpt>
      <trkpt lat="44.30091" lon="5.8235">
        <ele>564</ele>
        <time>2019-08-02T08:34:16Z</time>
      </trkpt>
      <trkpt lat="44.30099" lon="5.8235">
        <ele>564</ele>
        <time>2019-08-02T08:34:17Z</time>
      </trkpt>
      <trkpt lat="44.30107" lon="5.8235">
        <ele>564</ele>
        <time>2019-08-02T08:34:18Z</time>
      </trkpt>
      <trkpt lat="44.30114" lon="5.8235">
        <ele>564</ele>
        <time>2019-08-02T08:34:19Z</time>
      </trkpt>
      <trkpt lat="44.30122" lon="5.82351">
        <ele>564</ele>
        <time>2019-08-02T08:34:20Z</time>
      </trkpt>
      <trkpt lat="44.3013" lon="5.82351">
        <ele>564</ele>
        <time>2019-08-02T08:34:21Z</time>
      </trkpt>
      <trkpt lat="44.30138" lon="5.82351">
        <ele>564</ele>
        <time>2019-08-02T08:34:22Z</time>
      </trkpt>
      <trkpt lat="44.30146" lon="5.82352">
        <ele>564</ele>
        <time>2019-08-02T08:34:23Z</time>
      </trkpt>
      <trkpt lat="44.30153" lon="5.82352">
        <ele>564</ele>
        <time>2019-08-02T08:34:24Z</time>
      </trkpt>
      <trkpt lat="44.30161" lon="5.82353">
        <ele>564</ele>
        <time>2019-08-02T08:34:25Z</time>
      </trkpt>
      <trkpt lat="44.30168" lon="5.82353">
        <ele>564</ele>
        <time>2019-08-02T08:34:26Z</time>
      </trkpt>
      <trkpt lat="44.30176" lon="5.82354">
        <ele>564</ele>
        <time>2019-08-02T08:34:27Z</time>
      </trkpt>
      <trkpt lat="44.30183" lon="5.82355">
        <ele>564</ele>
        <time>2019-08-02T08:34:28Z</time>
      </trkpt>
      <trkpt lat="44.30191" lon="5.82355">
        <ele>564</ele>
        <time>2019-08-02T08:34:29Z</time>
      </trkpt>
      <trkpt lat="44.30198" lon="5.82355">
        <ele>564</ele>
        <time>2019-08-02T08:34:30Z</time>
      </trkpt>
      <trkpt lat="44.30206" lon="5.82356">
        <ele>564</ele>
        <time>2019-08-02T08:34:31Z</time>
      </trkpt>
      <trkpt lat="44.30213" lon="5.82356">
        <ele>564</ele>
        <time>2019-08-02T08:34:32Z</time>
      </trkpt>
      <trkpt lat="44.3022" lon="5.82356">
        <ele>564</ele>
        <time>2019-08-02T08:34:33Z</time>
      </trkpt>
      <trkpt lat="44.30228" lon="5.82356">
        <ele>564</ele>
        <time>2019-08-02T08:34:34Z</time>
      </trkpt>
      <trkpt lat="44.30235" lon="5.82355">
        <ele>564</ele>
        <time>2019-08-02T08:34:35Z</time>
      </trkpt>
      <trkpt lat="44.30242" lon="5.82355">
        <ele>564</ele>
        <time>2019-08-02T08:34:36Z</time>
      </trkpt>
      <trkpt lat="44.30249" lon="5.82354">
        <ele>564</ele>
        <time>2019-08-02T08:34:37Z</time>
      </trkpt>
      <trkpt lat="44.30256" lon="5.82353">
        <ele>564</ele>
        <time>2019-08-02T08:34:38Z</time>
      </trkpt>
      <trkpt lat="44.30263" lon="5.82352">
        <ele>564</ele>
        <time>2019-08-02T08:34:39Z</time>
      </trkpt>
      <trkpt lat="44.3027" lon="5.82351">
        <ele>564</ele>
        <time>2019-08-02T08:34:40Z</time>
      </trkpt>
      <trkpt lat="44.30278" lon="5.82349">
        <ele>564</ele>
        <time>2019-08-02T08:34:41Z</time>
      </trkpt>
      <trkpt lat="44.30285" lon="5.82348">
        <ele>564</ele>
        <time>2019-08-02T08:34:42Z</time>
      </trkpt>
      <trkpt lat="44.30292" lon="5.82347">
        <ele>564</ele>
        <time>2019-08-02T08:34:43Z</time>
      </trkpt>
      <trkpt lat="44.30299" lon="5.82345">
        <ele>564</ele>
        <time>2019-08-02T08:34:44Z</time>
      </trkpt>
      <trkpt lat="44.30306" lon="5.82344">
        <ele>564</ele>
        <time>2019-08-02T08:34:45Z</time>
      </trkpt>
      <trkpt lat="44.30313" lon="5.82342">
        <ele>564</ele>
        <time>2019-08-02T08:34:46Z</time>
      </trkpt>
      <trkpt lat="44.30321" lon="5.82341">
        <ele>564</ele>
        <time>2019-08-02T08:34:47Z</time>
      </trkpt>
      <trkpt lat="44.30328" lon="5.82339">
        <ele>564</ele>
        <time>2019-08-02T08:34:48Z</time>
      </trkpt>
      <trkpt lat="44.30335" lon="5.82338">
        <ele>564</ele>
        <time>2019-08-02T08:34:49Z</time>
      </trkpt>
      <trkpt lat="44.30343" lon="5.82336">
        <ele>564</ele>
        <time>2019-08-02T08:34:50Z</time>
      </trkpt>
      <trkpt lat="44.3035" lon="5.82335">
        <ele>564</ele>
        <time>2019-08-02T08:34:51Z</time>
      </trkpt>
      <trkpt lat="44.30357" lon="5.82333">
        <ele>564</ele>
        <time>2019-08-02T08:34:52Z</time>
      </trkpt>
      <trkpt lat="44.30365" lon="5.82332">
        <ele>564</ele>
        <time>2019-08-02T08:34:53Z</time>
      </trkpt>
      <trkpt lat="44.30372" lon="5.8233">
        <ele>564</ele>
        <time>2019-08-02T08:34:54Z</time>
      </trkpt>
      <trkpt lat="44.3038" lon="5.82329">
        <ele>564</ele>
        <time>2019-08-02T08:34:55Z</time>
      </trkpt>
      <trkpt lat="44.30387" lon="5.82328">
        <ele>564</ele>
        <time>2019-08-02T08:34:56Z</time>
      </trkpt>
      <trkpt lat="44.30394" lon="5.82327">
        <ele>564</ele>
        <time>2019-08-02T08:34:57Z</time>
      </trkpt>
      <trkpt lat="44.30402" lon="5.82326">
        <ele>564</ele>
        <time>2019-08-02T08:34:58Z</time>
      </trkpt>
      <trkpt lat="44.30409" lon="5.82326">
        <ele>564</ele>
        <time>2019-08-02T08:34:59Z</time>
      </trkpt>
      <trkpt lat="44.30416" lon="5.82325">
        <ele>564</ele>
        <time>2019-08-02T08:35:00Z</time>
      </trkpt>
      <trkpt lat="44.30424" lon="5.82325">
        <ele>564</ele>
        <time>2019-08-02T08:35:01Z</time>
      </trkpt>
      <trkpt lat="44.30431" lon="5.82324">
        <ele>564</ele>
        <time>2019-08-02T08:35:02Z</time>
      </trkpt>
      <trkpt lat="44.30439" lon="5.82324">
        <ele>564</ele>
        <time>2019-08-02T08:35:03Z</time>
      </trkpt>
      <trkpt lat="44.30446" lon="5.82324">
        <ele>564</ele>
        <time>2019-08-02T08:35:04Z</time>
      </trkpt>
      <trkpt lat="44.30453" lon="5.82324">
        <ele>564</ele>
        <time>2019-08-02T08:35:05Z</time>
      </trkpt>
      <trkpt lat="44.30461" lon="5.82324">
        <ele>564</ele>
        <time>2019-08-02T08:35:06Z</time>
      </trkpt>
      <trkpt lat="44.30468" lon="5.82324">
        <ele>564</ele>
        <time>2019-08-02T08:35:07Z</time>
      </trkpt>
      <trkpt lat="44.30476" lon="5.82324">
        <ele>564</ele>
        <time>2019-08-02T08:35:08Z</time>
      </trkpt>
      <trkpt lat="44.30483" lon="5.82323">
        <ele>564</ele>
        <time>2019-08-02T08:35:09Z</time>
      </trkpt>
      <trkpt lat="44.3049" lon="5.82323">
        <ele>564</ele>
        <time>2019-08-02T08:35:10Z</time>
      </trkpt>
      <trkpt lat="44.30497" lon="5.82323">
        <ele>564</ele>
        <time>2019-08-02T08:35:11Z</time>
      </trkpt>
      <trkpt lat="44.30504" lon="5.82322">
        <ele>564</ele>
        <time>2019-08-02T08:35:12Z</time>
      </trkpt>
      <trkpt lat="44.30511" lon="5.82322">
        <ele>564</ele>
        <time>2019-08-02T08:35:13Z</time>
      </trkpt>
      <trkpt lat="44.30518" lon="5.82321">
        <ele>564</ele>
        <time>2019-08-02T08:35:14Z</time>
      </trkpt>
      <trkpt lat="44.30525" lon="5.8232">
        <ele>564</ele>
        <time>2019-08-02T08:35:15Z</time>
      </trkpt>
      <trkpt lat="44.30532" lon="5.82319">
        <ele>564</ele>
        <time>2019-08-02T08:35:16Z</time>
      </trkpt>
      <trkpt lat="44.30539" lon="5.82319">
        <ele>564</ele>
        <time>2019-08-02T08:35:17Z</time>
      </trkpt>
      <trkpt lat="44.30546" lon="5.82318">
        <ele>564</ele>
        <time>2019-08-02T08:35:18Z</time>
      </trkpt>
      <trkpt lat="44.30552" lon="5.82317">
        <ele>564</ele>
        <time>2019-08-02T08:35:19Z</time>
      </trkpt>
      <trkpt lat="44.30559" lon="5.82316">
        <ele>564</ele>
        <time>2019-08-02T08:35:20Z</time>
      </trkpt>
      <trkpt lat="44.30566" lon="5.82315">
        <ele>564</ele>
        <time>2019-08-02T08:35:21Z</time>
      </trkpt>
      <trkpt lat="44.30573" lon="5.82314">
        <ele>564</ele>
        <time>2019-08-02T08:35:22Z</time>
      </trkpt>
      <trkpt lat="44.3058" lon="5.82313">
        <ele>564</ele>
        <time>2019-08-02T08:35:23Z</time>
      </trkpt>
      <trkpt lat="44.30587" lon="5.82312">
        <ele>564</ele>
        <time>2019-08-02T08:35:24Z</time>
      </trkpt>
      <trkpt lat="44.30593" lon="5.82311">
        <ele>564</ele>
        <time>2019-08-02T08:35:25Z</time>
      </trkpt>
      <trkpt lat="44.306" lon="5.8231">
        <ele>564</ele>
        <time>2019-08-02T08:35:26Z</time>
      </trkpt>
      <trkpt lat="44.30607" lon="5.82308">
        <ele>564</ele>
        <time>2019-08-02T08:35:27Z</time>
      </trkpt>
      <trkpt lat="44.30614" lon="5.82307">
        <ele>564</ele>
        <time>2019-08-02T08:35:28Z</time>
      </trkpt>
      <trkpt lat="44.30621" lon="5.82305">
        <ele>564</ele>
        <time>2019-08-02T08:35:29Z</time>
      </trkpt>
      <trkpt lat="44.30627" lon="5.82302">
        <ele>564</ele>
        <time>2019-08-02T08:35:30Z</time>
      </trkpt>
      <trkpt lat="44.30634" lon="5.823">
        <ele>564</ele>
        <time>2019-08-02T08:35:31Z</time>
      </trkpt>
      <trkpt lat="44.3064" lon="5.82296">
        <ele>564</ele>
        <time>2019-08-02T08:35:32Z</time>
      </trkpt>
      <trkpt lat="44.30646" lon="5.82292">
        <ele>564</ele>
        <time>2019-08-02T08:35:33Z</time>
      </trkpt>
      <trkpt lat="44.30653" lon="5.82288">
        <ele>564</ele>
        <time>2019-08-02T08:35:34Z</time>
      </trkpt>
      <trkpt lat="44.30658" lon="5.82284">
        <ele>564</ele>
        <time>2019-08-02T08:35:35Z</time>
      </trkpt>
      <trkpt lat="44.30664" lon="5.82279">
        <ele>564</ele>
        <time>2019-08-02T08:35:36Z</time>
      </trkpt>
      <trkpt lat="44.3067" lon="5.82274">
        <ele>564</ele>
        <time>2019-08-02T08:35:37Z</time>
      </trkpt>
      <trkpt lat="44.30675" lon="5.82269">
        <ele>564</ele>
        <time>2019-08-02T08:35:38Z</time>
      </trkpt>
      <trkpt lat="44.3068" lon="5.82263">
        <ele>564</ele>
        <time>2019-08-02T08:35:39Z</time>
      </trkpt>
      <trkpt lat="44.30685" lon="5.82257">
        <ele>564</ele>
        <time>2019-08-02T08:35:40Z</time>
      </trkpt>
      <trkpt lat="44.3069" lon="5.8225">
        <ele>564</ele>
        <time>2019-08-02T08:35:41Z</time>
      </trkpt>
      <trkpt lat="44.30695" lon="5.82244">
        <ele>564</ele>
        <time>2019-08-02T08:35:42Z</time>
      </trkpt>
      <trkpt lat="44.307" lon="5.82237">
        <ele>564</ele>
        <time>2019-08-02T08:35:43Z</time>
      </trkpt>
      <trkpt lat="44.30704" lon="5.82229">
        <ele>564</ele>
        <time>2019-08-02T08:35:44Z</time>
      </trkpt>
      <trkpt lat="44.30709" lon="5.82222">
        <ele>564</ele>
        <time>2019-08-02T08:35:45Z</time>
      </trkpt>
      <trkpt lat="44.30713" lon="5.82214">
        <ele>564</ele>
        <time>2019-08-02T08:35:46Z</time>
      </trkpt>
      <trkpt lat="44.30717" lon="5.82205">
        <ele>564</ele>
        <time>2019-08-02T08:35:47Z</time>
      </trkpt>
      <trkpt lat="44.3072" lon="5.82197">
        <ele>564</ele>
        <time>2019-08-02T08:35:48Z</time>
      </trkpt>
      <trkpt lat="44.30724" lon="5.82188">
        <ele>564</ele>
        <time>2019-08-02T08:35:49Z</time>
      </trkpt>
      <trkpt lat="44.30727" lon="5.82178">
        <ele>564</ele>
        <time>2019-08-02T08:35:50Z</time>
      </trkpt>
      <trkpt lat="44.3073" lon="5.82169">
        <ele>563</ele>
        <time>2019-08-02T08:35:51Z</time>
      </trkpt>
      <trkpt lat="44.30733" lon="5.8216">
        <ele>563</ele>
        <time>2019-08-02T08:35:52Z</time>
      </trkpt>
      <trkpt lat="44.30737" lon="5.8215">
        <ele>563</ele>
        <time>2019-08-02T08:35:53Z</time>
      </trkpt>
      <trkpt lat="44.3074" lon="5.8214">
        <ele>562</ele>
        <time>2019-08-02T08:35:54Z</time>
      </trkpt>
      <trkpt lat="44.30744" lon="5.8213">
        <ele>562</ele>
        <time>2019-08-02T08:35:55Z</time>
      </trkpt>
      <trkpt lat="44.30748" lon="5.8212">
        <ele>562</ele>
        <time>2019-08-02T08:35:56Z</time>
      </trkpt>
      <trkpt lat="44.30752" lon="5.8211">
        <ele>561</ele>
        <time>2019-08-02T08:35:57Z</time>
      </trkpt>
      <trkpt lat="44.30757" lon="5.82101">
        <ele>561</ele>
        <time>2019-08-02T08:35:58Z</time>
      </trkpt>
      <trkpt lat="44.30762" lon="5.82093">
        <ele>561</ele>
        <time>2019-08-02T08:35:59Z</time>
      </trkpt>
      <trkpt lat="44.30769" lon="5.82087">
        <ele>561</ele>
        <time>2019-08-02T08:36:00Z</time>
      </trkpt>
      <trkpt lat="44.30775" lon="5.82082">
        <ele>561</ele>
        <time>2019-08-02T08:36:01Z</time>
      </trkpt>
      <trkpt lat="44.30783" lon="5.82078">
        <ele>561</ele>
        <time>2019-08-02T08:36:02Z</time>
      </trkpt>
      <trkpt lat="44.3079" lon="5.82076">
        <ele>561</ele>
        <time>2019-08-02T08:36:03Z</time>
      </trkpt>
      <trkpt lat="44.30798" lon="5.82074">
        <ele>561</ele>
        <time>2019-08-02T08:36:04Z</time>
      </trkpt>
      <trkpt lat="44.30806" lon="5.82072">
        <ele>561</ele>
        <time>2019-08-02T08:36:05Z</time>
      </trkpt>
      <trkpt lat="44.30814" lon="5.82071">
        <ele>561</ele>
        <time>2019-08-02T08:36:06Z</time>
      </trkpt>
      <trkpt lat="44.30821" lon="5.82069">
        <ele>561</ele>
        <time>2019-08-02T08:36:07Z</time>
      </trkpt>
      <trkpt lat="44.30829" lon="5.82067">
        <ele>561</ele>
        <time>2019-08-02T08:36:08Z</time>
      </trkpt>
      <trkpt lat="44.30836" lon="5.82065">
        <ele>561</ele>
        <time>2019-08-02T08:36:09Z</time>
      </trkpt>
      <trkpt lat="44.30844" lon="5.82063">
        <ele>561</ele>
        <time>2019-08-02T08:36:10Z</time>
      </trkpt>
      <trkpt lat="44.30852" lon="5.82061">
        <ele>561</ele>
        <time>2019-08-02T08:36:11Z</time>
      </trkpt>
      <trkpt lat="44.3086" lon="5.82058">
        <ele>561</ele>
        <time>2019-08-02T08:36:12Z</time>
      </trkpt>
      <trkpt lat="44.30868" lon="5.82056">
        <ele>560</ele>
        <time>2019-08-02T08:36:13Z</time>
      </trkpt>
      <trkpt lat="44.30876" lon="5.82053">
        <ele>560</ele>
        <time>2019-08-02T08:36:14Z</time>
      </trkpt>
      <trkpt lat="44.30884" lon="5.8205">
        <ele>560</ele>
        <time>2019-08-02T08:36:15Z</time>
      </trkpt>
      <trkpt lat="44.30892" lon="5.82047">
        <ele>560</ele>
        <time>2019-08-02T08:36:16Z</time>
      </trkpt>
      <trkpt lat="44.30901" lon="5.82044">
        <ele>560</ele>
        <time>2019-08-02T08:36:17Z</time>
      </trkpt>
      <trkpt lat="44.30909" lon="5.82042">
        <ele>560</ele>
        <time>2019-08-02T08:36:18Z</time>
      </trkpt>
      <trkpt lat="44.30918" lon="5.82041">
        <ele>559</ele>
        <time>2019-08-02T08:36:19Z</time>
      </trkpt>
      <trkpt lat="44.30927" lon="5.82041">
        <ele>559</ele>
        <time>2019-08-02T08:36:20Z</time>
      </trkpt>
      <trkpt lat="44.30936" lon="5.82041">
        <ele>559</ele>
        <time>2019-08-02T08:36:21Z</time>
      </trkpt>
      <trkpt lat="44.30944" lon="5.82043">
        <ele>559</ele>
        <time>2019-08-02T08:36:22Z</time>
      </trkpt>
      <trkpt lat="44.30953" lon="5.82047">
        <ele>559</ele>
        <time>2019-08-02T08:36:23Z</time>
      </trkpt>
      <trkpt lat="44.30961" lon="5.8205">
        <ele>559</ele>
        <time>2019-08-02T08:36:24Z</time>
      </trkpt>
      <trkpt lat="44.30969" lon="5.82055">
        <ele>559</ele>
        <time>2019-08-02T08:36:25Z</time>
      </trkpt>
      <trkpt lat="44.30977" lon="5.82061">
        <ele>559</ele>
        <time>2019-08-02T08:36:26Z</time>
      </trkpt>
      <trkpt lat="44.30984" lon="5.82066">
        <ele>559</ele>
        <time>2019-08-02T08:36:27Z</time>
      </trkpt>
      <trkpt lat="44.30991" lon="5.82072">
        <ele>559</ele>
        <time>2019-08-02T08:36:28Z</time>
      </trkpt>
      <trkpt lat="44.30998" lon="5.82078">
        <ele>559</ele>
        <time>2019-08-02T08:36:29Z</time>
      </trkpt>
      <trkpt lat="44.31004" lon="5.82085">
        <ele>559</ele>
        <time>2019-08-02T08:36:30Z</time>
      </trkpt>
      <trkpt lat="44.3101" lon="5.82092">
        <ele>559</ele>
        <time>2019-08-02T08:36:31Z</time>
      </trkpt>
      <trkpt lat="44.31016" lon="5.821">
        <ele>559</ele>
        <time>2019-08-02T08:36:32Z</time>
      </trkpt>
      <trkpt lat="44.31022" lon="5.82107">
        <ele>559</ele>
        <time>2019-08-02T08:36:33Z</time>
      </trkpt>
      <trkpt lat="44.31028" lon="5.82115">
        <ele>559</ele>
        <time>2019-08-02T08:36:34Z</time>
      </trkpt>
      <trkpt lat="44.31033" lon="5.82123">
        <ele>559</ele>
        <time>2019-08-02T08:36:35Z</time>
      </trkpt>
      <trkpt lat="44.31039" lon="5.8213">
        <ele>559</ele>
        <time>2019-08-02T08:36:36Z</time>
      </trkpt>
      <trkpt lat="44.31044" lon="5.82137">
        <ele>559</ele>
        <time>2019-08-02T08:36:37Z</time>
      </trkpt>
      <trkpt lat="44.3105" lon="5.82144">
        <ele>559</ele>
        <time>2019-08-02T08:36:38Z</time>
      </trkpt>
      <trkpt lat="44.31055" lon="5.82151">
        <ele>559</ele>
        <time>2019-08-02T08:36:39Z</time>
      </trkpt>
      <trkpt lat="44.3106" lon="5.82158">
        <ele>559</ele>
        <time>2019-08-02T08:36:40Z</time>
      </trkpt>
      <trkpt lat="44.31065" lon="5.82164">
        <ele>559</ele>
        <time>2019-08-02T08:36:41Z</time>
      </trkpt>
      <trkpt lat="44.3107" lon="5.8217">
        <ele>559</ele>
        <time>2019-08-02T08:36:42Z</time>
      </trkpt>
      <trkpt lat="44.31075" lon="5.82177">
        <ele>559</ele>
        <time>2019-08-02T08:36:43Z</time>
      </trkpt>
      <trkpt lat="44.31081" lon="5.82184">
        <ele>559</ele>
        <time>2019-08-02T08:36:44Z</time>
      </trkpt>
      <trkpt lat="44.31086" lon="5.82191">
        <ele>559</ele>
        <time>2019-08-02T08:36:45Z</time>
      </trkpt>
      <trkpt lat="44.31091" lon="5.82197">
        <ele>559</ele>
        <time>2019-08-02T08:36:46Z</time>
      </trkpt>
      <trkpt lat="44.31095" lon="5.82204">
        <ele>559</ele>
        <time>2019-08-02T08:36:47Z</time>
      </trkpt>
      <trkpt lat="44.311" lon="5.82212">
        <ele>559</ele>
        <time>2019-08-02T08:36:48Z</time>
      </trkpt>
      <trkpt lat="44.31105" lon="5.8222">
        <ele>559</ele>
        <time>2019-08-02T08:36:49Z</time>
      </trkpt>
      <trkpt lat="44.3111" lon="5.82227">
        <ele>559</ele>
        <time>2019-08-02T08:36:50Z</time>
      </trkpt>
      <trkpt lat="44.31115" lon="5.82233">
        <ele>559</ele>
        <time>2019-08-02T08:36:51Z</time>
      </trkpt>
      <trkpt lat="44.31121" lon="5.82239">
        <ele>559</ele>
        <time>2019-08-02T08:36:52Z</time>
      </trkpt>
      <trkpt lat="44.31126" lon="5.82246">
        <ele>559</ele>
        <time>2019-08-02T08:36:53Z</time>
      </trkpt>
      <trkpt lat="44.31131" lon="5.82252">
        <ele>559</ele>
        <time>2019-08-02T08:36:54Z</time>
      </trkpt>
      <trkpt lat="44.31136" lon="5.82258">
        <ele>559</ele>
        <time>2019-08-02T08:36:55Z</time>
      </trkpt>
      <trkpt lat="44.3114" lon="5.82264">
        <ele>559</ele>
        <time>2019-08-02T08:36:56Z</time>
      </trkpt>
      <trkpt lat="44.31145" lon="5.82269">
        <ele>559</ele>
        <time>2019-08-02T08:36:57Z</time>
      </trkpt>
      <trkpt lat="44.31149" lon="5.82274">
        <ele>559</ele>
        <time>2019-08-02T08:36:58Z</time>
      </trkpt>
      <trkpt lat="44.31152" lon="5.8228">
        <ele>559</ele>
        <time>2019-08-02T08:36:59Z</time>
      </trkpt>
      <trkpt lat="44.31154" lon="5.82286">
        <ele>559</ele>
        <time>2019-08-02T08:37:00Z</time>
      </trkpt>
      <trkpt lat="44.31154" lon="5.82293">
        <ele>559</ele>
        <time>2019-08-02T08:37:01Z</time>
      </trkpt>
      <trkpt lat="44.31152" lon="5.82299">
        <ele>559</ele>
        <time>2019-08-02T08:37:02Z</time>
      </trkpt>
      <trkpt lat="44.31148" lon="5.82305">
        <ele>559</ele>
        <time>2019-08-02T08:37:03Z</time>
      </trkpt>
      <trkpt lat="44.31144" lon="5.8231">
        <ele>559</ele>
        <time>2019-08-02T08:37:04Z</time>
      </trkpt>
      <trkpt lat="44.31139" lon="5.82316">
        <ele>559</ele>
        <time>2019-08-02T08:37:05Z</time>
      </trkpt>
      <trkpt lat="44.31135" lon="5.82323">
        <ele>559</ele>
        <time>2019-08-02T08:37:06Z</time>
      </trkpt>
      <trkpt lat="44.31131" lon="5.8233">
        <ele>559</ele>
        <time>2019-08-02T08:37:07Z</time>
      </trkpt>
      <trkpt lat="44.31126" lon="5.82336">
        <ele>559</ele>
        <time>2019-08-02T08:37:08Z</time>
      </trkpt>
      <trkpt lat="44.31121" lon="5.82343">
        <ele>559</ele>
        <time>2019-08-02T08:37:09Z</time>
      </trkpt>
      <trkpt lat="44.31117" lon="5.82349">
        <ele>559</ele>
        <time>2019-08-02T08:37:10Z</time>
      </trkpt>
      <trkpt lat="44.31112" lon="5.82357">
        <ele>559</ele>
        <time>2019-08-02T08:37:11Z</time>
      </trkpt>
      <trkpt lat="44.31109" lon="5.82365">
        <ele>559</ele>
        <time>2019-08-02T08:37:12Z</time>
      </trkpt>
      <trkpt lat="44.31107" lon="5.82374">
        <ele>559</ele>
        <time>2019-08-02T08:37:13Z</time>
      </trkpt>
      <trkpt lat="44.31107" lon="5.82384">
        <ele>559</ele>
        <time>2019-08-02T08:37:14Z</time>
      </trkpt>
      <trkpt lat="44.31107" lon="5.82394">
        <ele>559</ele>
        <time>2019-08-02T08:37:15Z</time>
      </trkpt>
      <trkpt lat="44.31106" lon="5.82403">
        <ele>559</ele>
        <time>2019-08-02T08:37:16Z</time>
      </trkpt>
      <trkpt lat="44.31105" lon="5.82412">
        <ele>559</ele>
        <time>2019-08-02T08:37:17Z</time>
      </trkpt>
      <trkpt lat="44.31101" lon="5.82421">
        <ele>559</ele>
        <time>2019-08-02T08:37:18Z</time>
      </trkpt>
      <trkpt lat="44.31098" lon="5.82429">
        <ele>559</ele>
        <time>2019-08-02T08:37:19Z</time>
      </trkpt>
      <trkpt lat="44.31094" lon="5.82436">
        <ele>559</ele>
        <time>2019-08-02T08:37:20Z</time>
      </trkpt>
      <trkpt lat="44.31091" lon="5.82444">
        <ele>559</ele>
        <time>2019-08-02T08:37:21Z</time>
      </trkpt>
      <trkpt lat="44.31088" lon="5.82452">
        <ele>559</ele>
        <time>2019-08-02T08:37:22Z</time>
      </trkpt>
      <trkpt lat="44.31085" lon="5.8246">
        <ele>559</ele>
        <time>2019-08-02T08:37:23Z</time>
      </trkpt>
      <trkpt lat="44.31082" lon="5.82469">
        <ele>559</ele>
        <time>2019-08-02T08:37:24Z</time>
      </trkpt>
      <trkpt lat="44.31079" lon="5.82478">
        <ele>559</ele>
        <time>2019-08-02T08:37:25Z</time>
      </trkpt>
      <trkpt lat="44.31076" lon="5.82488">
        <ele>559</ele>
        <time>2019-08-02T08:37:26Z</time>
      </trkpt>
      <trkpt lat="44.31075" lon="5.82499">
        <ele>559</ele>
        <time>2019-08-02T08:37:27Z</time>
      </trkpt>
      <trkpt lat="44.31076" lon="5.82509">
        <ele>559</ele>
        <time>2019-08-02T08:37:28Z</time>
      </trkpt>
      <trkpt lat="44.31078" lon="5.82518">
        <ele>559</ele>
        <time>2019-08-02T08:37:29Z</time>
      </trkpt>
      <trkpt lat="44.31083" lon="5.82527">
        <ele>559</ele>
        <time>2019-08-02T08:37:30Z</time>
      </trkpt>
      <trkpt lat="44.31089" lon="5.82533">
        <ele>559</ele>
        <time>2019-08-02T08:37:31Z</time>
      </trkpt>
      <trkpt lat="44.31095" lon="5.82538">
        <ele>559</ele>
        <time>2019-08-02T08:37:32Z</time>
      </trkpt>
      <trkpt lat="44.31102" lon="5.82543">
        <ele>559</ele>
        <time>2019-08-02T08:37:33Z</time>
      </trkpt>
      <trkpt lat="44.31109" lon="5.82547">
        <ele>559</ele>
        <time>2019-08-02T08:37:34Z</time>
      </trkpt>
      <trkpt lat="44.31116" lon="5.82551">
        <ele>559</ele>
        <time>2019-08-02T08:37:35Z</time>
      </trkpt>
      <trkpt lat="44.31123" lon="5.82554">
        <ele>559</ele>
        <time>2019-08-02T08:37:36Z</time>
      </trkpt>
      <trkpt lat="44.3113" lon="5.82557">
        <ele>559</ele>
        <time>2019-08-02T08:37:37Z</time>
      </trkpt>
      <trkpt lat="44.31138" lon="5.82561">
        <ele>559</ele>
        <time>2019-08-02T08:37:38Z</time>
      </trkpt>
      <trkpt lat="44.31145" lon="5.82565">
        <ele>559</ele>
        <time>2019-08-02T08:37:39Z</time>
      </trkpt>
      <trkpt lat="44.31152" lon="5.82569">
        <ele>559</ele>
        <time>2019-08-02T08:37:40Z</time>
      </trkpt>
      <trkpt lat="44.31159" lon="5.82572">
        <ele>559</ele>
        <time>2019-08-02T08:37:41Z</time>
      </trkpt>
      <trkpt lat="44.31166" lon="5.82576">
        <ele>559</ele>
        <time>2019-08-02T08:37:42Z</time>
      </trkpt>
      <trkpt lat="44.31173" lon="5.8258">
        <ele>559</ele>
        <time>2019-08-02T08:37:43Z</time>
      </trkpt>
      <trkpt lat="44.31179" lon="5.82583">
        <ele>559</ele>
        <time>2019-08-02T08:37:44Z</time>
      </trkpt>
      <trkpt lat="44.31186" lon="5.82586">
        <ele>559</ele>
        <time>2019-08-02T08:37:45Z</time>
      </trkpt>
      <trkpt lat="44.31192" lon="5.82589">
        <ele>559</ele>
        <time>2019-08-02T08:37:46Z</time>
      </trkpt>
      <trkpt lat="44.31199" lon="5.82593">
        <ele>559</ele>
        <time>2019-08-02T08:37:47Z</time>
      </trkpt>
      <trkpt lat="44.31206" lon="5.82596">
        <ele>559</ele>
        <time>2019-08-02T08:37:48Z</time>
      </trkpt>
      <trkpt lat="44.31212" lon="5.82599">
        <ele>559</ele>
        <time>2019-08-02T08:37:49Z</time>
      </trkpt>
      <trkpt lat="44.31218" lon="5.82602">
        <ele>559</ele>
        <time>2019-08-02T08:37:50Z</time>
      </trkpt>
      <trkpt lat="44.31224" lon="5.82605">
        <ele>559</ele>
        <time>2019-08-02T08:37:51Z</time>
      </trkpt>
      <trkpt lat="44.3123" lon="5.82608">
        <ele>559</ele>
        <time>2019-08-02T08:37:52Z</time>
      </trkpt>
      <trkpt lat="44.31235" lon="5.82611">
        <ele>559</ele>
        <time>2019-08-02T08:37:53Z</time>
      </trkpt>
      <trkpt lat="44.31241" lon="5.82614">
        <ele>559</ele>
        <time>2019-08-02T08:37:54Z</time>
      </trkpt>
      <trkpt lat="44.31247" lon="5.82617">
        <ele>559</ele>
        <time>2019-08-02T08:37:55Z</time>
      </trkpt>
      <trkpt lat="44.31252" lon="5.82619">
        <ele>559</ele>
        <time>2019-08-02T08:37:56Z</time>
      </trkpt>
      <trkpt lat="44.31258" lon="5.82622">
        <ele>559</ele>
        <time>2019-08-02T08:37:57Z</time>
      </trkpt>
      <trkpt lat="44.31263" lon="5.82625">
        <ele>560</ele>
        <time>2019-08-02T08:37:58Z</time>
      </trkpt>
      <trkpt lat="44.31268" lon="5.82628">
        <ele>560</ele>
        <time>2019-08-02T08:37:59Z</time>
      </trkpt>
      <trkpt lat="44.31273" lon="5.82631">
        <ele>561</ele>
        <time>2019-08-02T08:38:00Z</time>
      </trkpt>
      <trkpt lat="44.31278" lon="5.82634">
        <ele>561</ele>
        <time>2019-08-02T08:38:01Z</time>
      </trkpt>
      <trkpt lat="44.31283" lon="5.82637">
        <ele>561</ele>
        <time>2019-08-02T08:38:02Z</time>
      </trkpt>
      <trkpt lat="44.31287" lon="5.8264">
        <ele>561</ele>
        <time>2019-08-02T08:38:03Z</time>
      </trkpt>
      <trkpt lat="44.31292" lon="5.82644">
        <ele>561</ele>
        <time>2019-08-02T08:38:04Z</time>
      </trkpt>
      <trkpt lat="44.31297" lon="5.82647">
        <ele>561</ele>
        <time>2019-08-02T08:38:05Z</time>
      </trkpt>
      <trkpt lat="44.31301" lon="5.8265">
        <ele>561</ele>
        <time>2019-08-02T08:38:06Z</time>
      </trkpt>
      <trkpt lat="44.31305" lon="5.82653">
        <ele>562</ele>
        <time>2019-08-02T08:38:07Z</time>
      </trkpt>
      <trkpt lat="44.31309" lon="5.82656">
        <ele>562</ele>
        <time>2019-08-02T08:38:08Z</time>
      </trkpt>
      <trkpt lat="44.31313" lon="5.82659">
        <ele>562</ele>
        <time>2019-08-02T08:38:09Z</time>
      </trkpt>
      <trkpt lat="44.31316" lon="5.82662">
        <ele>563</ele>
        <time>2019-08-02T08:38:10Z</time>
      </trkpt>
      <trkpt lat="44.3132" lon="5.82664">
        <ele>563</ele>
        <time>2019-08-02T08:38:11Z</time>
      </trkpt>
      <trkpt lat="44.31324" lon="5.82667">
        <ele>564</ele>
        <time>2019-08-02T08:38:12Z</time>
      </trkpt>
      <trkpt lat="44.31327" lon="5.82669">
        <ele>564</ele>
        <time>2019-08-02T08:38:13Z</time>
      </trkpt>
      <trkpt lat="44.31331" lon="5.82672">
        <ele>565</ele>
        <time>2019-08-02T08:38:14Z</time>
      </trkpt>
      <trkpt lat="44.31335" lon="5.82673">
        <ele>565</ele>
        <time>2019-08-02T08:38:15Z</time>
      </trkpt>
      <trkpt lat="44.31339" lon="5.82675">
        <ele>565</ele>
        <time>2019-08-02T08:38:16Z</time>
      </trkpt>
      <trkpt lat="44.31342" lon="5.82677">
        <ele>565</ele>
        <time>2019-08-02T08:38:17Z</time>
      </trkpt>
      <trkpt lat="44.31347" lon="5.82678">
        <ele>565</ele>
        <time>2019-08-02T08:38:18Z</time>
      </trkpt>
      <trkpt lat="44.31351" lon="5.82681">
        <ele>565</ele>
        <time>2019-08-02T08:38:19Z</time>
      </trkpt>
      <trkpt lat="44.31354" lon="5.82684">
        <ele>565</ele>
        <time>2019-08-02T08:38:20Z</time>
      </trkpt>
      <trkpt lat="44.31357" lon="5.82689">
        <ele>565</ele>
        <time>2019-08-02T08:38:21Z</time>
      </trkpt>
      <trkpt lat="44.3136" lon="5.82694">
        <ele>565</ele>
        <time>2019-08-02T08:38:22Z</time>
      </trkpt>
      <trkpt lat="44.31363" lon="5.82699">
        <ele>565</ele>
        <time>2019-08-02T08:38:23Z</time>
      </trkpt>
      <trkpt lat="44.31366" lon="5.82703">
        <ele>565</ele>
        <time>2019-08-02T08:38:24Z</time>
      </trkpt>
      <trkpt lat="44.31369" lon="5.82708">
        <ele>565</ele>
        <time>2019-08-02T08:38:25Z</time>
      </trkpt>
      <trkpt lat="44.31372" lon="5.82713">
        <ele>565</ele>
        <time>2019-08-02T08:38:26Z</time>
      </trkpt>
      <trkpt lat="44.31374" lon="5.8272">
        <ele>565</ele>
        <time>2019-08-02T08:38:27Z</time>
      </trkpt>
      <trkpt lat="44.31376" lon="5.82726">
        <ele>565</ele>
        <time>2019-08-02T08:38:28Z</time>
      </trkpt>
      <trkpt lat="44.31377" lon="5.82733">
        <ele>565</ele>
        <time>2019-08-02T08:38:29Z</time>
      </trkpt>
      <trkpt lat="44.31378" lon="5.8274">
        <ele>565</ele>
        <time>2019-08-02T08:38:30Z</time>
      </trkpt>
      <trkpt lat="44.31379" lon="5.82747">
        <ele>565</ele>
        <time>2019-08-02T08:38:31Z</time>
      </trkpt>
      <trkpt lat="44.31379" lon="5.82755">
        <ele>565</ele>
        <time>2019-08-02T08:38:32Z</time>
      </trkpt>
      <trkpt lat="44.31379" lon="5.82762">
        <ele>566</ele>
        <time>2019-08-02T08:38:33Z</time>
      </trkpt>
      <trkpt lat="44.31379" lon="5.8277">
        <ele>566</ele>
        <time>2019-08-02T08:38:34Z</time>
      </trkpt>
      <trkpt lat="44.31378" lon="5.82777">
        <ele>566</ele>
        <time>2019-08-02T08:38:35Z</time>
      </trkpt>
      <trkpt lat="44.31378" lon="5.82785">
        <ele>567</ele>
        <time>2019-08-02T08:38:36Z</time>
      </trkpt>
      <trkpt lat="44.31378" lon="5.82793">
        <ele>567</ele>
        <time>2019-08-02T08:38:37Z</time>
      </trkpt>
      <trkpt lat="44.31377" lon="5.828">
        <ele>567</ele>
        <time>2019-08-02T08:38:38Z</time>
      </trkpt>
      <trkpt lat="44.31377" lon="5.82808">
        <ele>568</ele>
        <time>2019-08-02T08:38:39Z</time>
      </trkpt>
      <trkpt lat="44.31376" lon="5.82816">
        <ele>568</ele>
        <time>2019-08-02T08:38:40Z</time>
      </trkpt>
      <trkpt lat="44.31376" lon="5.82824">
        <ele>568</ele>
        <time>2019-08-02T08:38:41Z</time>
      </trkpt>
      <trkpt lat="44.31375" lon="5.82832">
        <ele>568</ele>
        <time>2019-08-02T08:38:42Z</time>
      </trkpt>
      <trkpt lat="44.31374" lon="5.8284">
        <ele>569</ele>
        <time>2019-08-02T08:38:43Z</time>
      </trkpt>
      <trkpt lat="44.31374" lon="5.82848">
        <ele>569</ele>
        <time>2019-08-02T08:38:44Z</time>
      </trkpt>
      <trkpt lat="44.31373" lon="5.82856">
        <ele>569</ele>
        <time>2019-08-02T08:38:45Z</time>
      </trkpt>
      <trkpt lat="44.31372" lon="5.82864">
        <ele>569</ele>
        <time>2019-08-02T08:38:46Z</time>
      </trkpt>
      <trkpt lat="44.31371" lon="5.82872">
        <ele>570</ele>
        <time>2019-08-02T08:38:47Z</time>
      </trkpt>
      <trkpt lat="44.3137" lon="5.8288">
        <ele>570</ele>
        <time>2019-08-02T08:38:48Z</time>
      </trkpt>
      <trkpt lat="44.3137" lon="5.82888">
        <ele>570</ele>
        <time>2019-08-02T08:38:49Z</time>
      </trkpt>
      <trkpt lat="44.31369" lon="5.82896">
        <ele>570</ele>
        <time>2019-08-02T08:38:50Z</time>
      </trkpt>
      <trkpt lat="44.31368" lon="5.82904">
        <ele>570</ele>
        <time>2019-08-02T08:38:51Z</time>
      </trkpt>
      <trkpt lat="44.31367" lon="5.82912">
        <ele>570</ele>
        <time>2019-08-02T08:38:52Z</time>
      </trkpt>
      <trkpt lat="44.31366" lon="5.8292">
        <ele>570</ele>
        <time>2019-08-02T08:38:53Z</time>
      </trkpt>
      <trkpt lat="44.31365" lon="5.82927">
        <ele>570</ele>
        <time>2019-08-02T08:38:54Z</time>
      </trkpt>
      <trkpt lat="44.31364" lon="5.82935">
        <ele>571</ele>
        <time>2019-08-02T08:38:55Z</time>
      </trkpt>
      <trkpt lat="44.31362" lon="5.82943">
        <ele>571</ele>
        <time>2019-08-02T08:38:56Z</time>
      </trkpt>
      <trkpt lat="44.31361" lon="5.8295">
        <ele>571</ele>
        <time>2019-08-02T08:38:57Z</time>
      </trkpt>
      <trkpt lat="44.31361" lon="5.82958">
        <ele>571</ele>
        <time>2019-08-02T08:38:58Z</time>
      </trkpt>
      <trkpt lat="44.3136" lon="5.82966">
        <ele>571</ele>
        <time>2019-08-02T08:38:59Z</time>
      </trkpt>
      <trkpt lat="44.31359" lon="5.82974">
        <ele>571</ele>
        <time>2019-08-02T08:39:00Z</time>
      </trkpt>
      <trkpt lat="44.31358" lon="5.82981">
        <ele>571</ele>
        <time>2019-08-02T08:39:01Z</time>
      </trkpt>
      <trkpt lat="44.31357" lon="5.82989">
        <ele>571</ele>
        <time>2019-08-02T08:39:02Z</time>
      </trkpt>
      <trkpt lat="44.31356" lon="5.82996">
        <ele>571</ele>
        <time>2019-08-02T08:39:03Z</time>
      </trkpt>
      <trkpt lat="44.31355" lon="5.83004">
        <ele>571</ele>
        <time>2019-08-02T08:39:04Z</time>
      </trkpt>
      <trkpt lat="44.31354" lon="5.83011">
        <ele>572</ele>
        <time>2019-08-02T08:39:05Z</time>
      </trkpt>
      <trkpt lat="44.31353" lon="5.83018">
        <ele>572</ele>
        <time>2019-08-02T08:39:06Z</time>
      </trkpt>
      <trkpt lat="44.31352" lon="5.83026">
        <ele>572</ele>
        <time>2019-08-02T08:39:07Z</time>
      </trkpt>
      <trkpt lat="44.3135" lon="5.83034">
        <ele>572</ele>
        <time>2019-08-02T08:39:08Z</time>
      </trkpt>
      <trkpt lat="44.31349" lon="5.83042">
        <ele>572</ele>
        <time>2019-08-02T08:39:09Z</time>
      </trkpt>
      <trkpt lat="44.31348" lon="5.8305">
        <ele>572</ele>
        <time>2019-08-02T08:39:10Z</time>
      </trkpt>
      <trkpt lat="44.31347" lon="5.83058">
        <ele>572</ele>
        <time>2019-08-02T08:39:11Z</time>
      </trkpt>
      <trkpt lat="44.31345" lon="5.83067">
        <ele>572</ele>
        <time>2019-08-02T08:39:12Z</time>
      </trkpt>
      <trkpt lat="44.31345" lon="5.83075">
        <ele>572</ele>
        <time>2019-08-02T08:39:13Z</time>
      </trkpt>
      <trkpt lat="44.31344" lon="5.83082">
        <ele>572</ele>
        <time>2019-08-02T08:39:14Z</time>
      </trkpt>
      <trkpt lat="44.31343" lon="5.8309">
        <ele>572</ele>
        <time>2019-08-02T08:39:15Z</time>
      </trkpt>
      <trkpt lat="44.31344" lon="5.83097">
        <ele>572</ele>
        <time>2019-08-02T08:39:16Z</time>
      </trkpt>
      <trkpt lat="44.31345" lon="5.83102">
        <ele>572</ele>
        <time>2019-08-02T08:39:17Z</time>
      </trkpt>
      <trkpt lat="44.31349" lon="5.83106">
        <ele>572</ele>
        <time>2019-08-02T08:39:18Z</time>
      </trkpt>
      <trkpt lat="44.31353" lon="5.83105">
        <ele>572</ele>
        <time>2019-08-02T08:39:19Z</time>
      </trkpt>
      <trkpt lat="44.31356" lon="5.83101">
        <ele>572</ele>
        <time>2019-08-02T08:39:20Z</time>
      </trkpt>
      <trkpt lat="44.31358" lon="5.83095">
        <ele>572</ele>
        <time>2019-08-02T08:39:21Z</time>
      </trkpt>
      <trkpt lat="44.31361" lon="5.83088">
        <ele>572</ele>
        <time>2019-08-02T08:39:22Z</time>
      </trkpt>
      <trkpt lat="44.31364" lon="5.83082">
        <ele>572</ele>
        <time>2019-08-02T08:39:23Z</time>
      </trkpt>
      <trkpt lat="44.31367" lon="5.83076">
        <ele>572</ele>
        <time>2019-08-02T08:39:24Z</time>
      </trkpt>
      <trkpt lat="44.31369" lon="5.8307">
        <ele>572</ele>
        <time>2019-08-02T08:39:25Z</time>
      </trkpt>
      <trkpt lat="44.31372" lon="5.83063">
        <ele>572</ele>
        <time>2019-08-02T08:39:26Z</time>
      </trkpt>
      <trkpt lat="44.31375" lon="5.83057">
        <ele>572</ele>
        <time>2019-08-02T08:39:27Z</time>
      </trkpt>
      <trkpt lat="44.31378" lon="5.8305">
        <ele>572</ele>
        <time>2019-08-02T08:39:28Z</time>
      </trkpt>
      <trkpt lat="44.31382" lon="5.83044">
        <ele>572</ele>
        <time>2019-08-02T08:39:29Z</time>
      </trkpt>
      <trkpt lat="44.31386" lon="5.83038">
        <ele>572</ele>
        <time>2019-08-02T08:39:30Z</time>
      </trkpt>
      <trkpt lat="44.3139" lon="5.83031">
        <ele>571</ele>
        <time>2019-08-02T08:39:31Z</time>
      </trkpt>
      <trkpt lat="44.31395" lon="5.83025">
        <ele>571</ele>
        <time>2019-08-02T08:39:32Z</time>
      </trkpt>
      <trkpt lat="44.314" lon="5.83018">
        <ele>571</ele>
        <time>2019-08-02T08:39:33Z</time>
      </trkpt>
      <trkpt lat="44.31404" lon="5.83011">
        <ele>570</ele>
        <time>2019-08-02T08:39:34Z</time>
      </trkpt>
      <trkpt lat="44.31409" lon="5.83005">
        <ele>570</ele>
        <time>2019-08-02T08:39:35Z</time>
      </trkpt>
      <trkpt lat="44.31414" lon="5.82998">
        <ele>570</ele>
        <time>2019-08-02T08:39:36Z</time>
      </trkpt>
      <trkpt lat="44.31419" lon="5.82991">
        <ele>570</ele>
        <time>2019-08-02T08:39:37Z</time>
      </trkpt>
      <trkpt lat="44.31423" lon="5.82984">
        <ele>570</ele>
        <time>2019-08-02T08:39:38Z</time>
      </trkpt>
      <trkpt lat="44.31428" lon="5.82978">
        <ele>570</ele>
        <time>2019-08-02T08:39:39Z</time>
      </trkpt>
      <trkpt lat="44.31433" lon="5.82971">
        <ele>570</ele>
        <time>2019-08-02T08:39:40Z</time>
      </trkpt>
      <trkpt lat="44.31438" lon="5.82965">
        <ele>570</ele>
        <time>2019-08-02T08:39:41Z</time>
      </trkpt>
      <trkpt lat="44.31442" lon="5.82959">
        <ele>570</ele>
        <time>2019-08-02T08:39:42Z</time>
      </trkpt>
      <trkpt lat="44.31446" lon="5.82952">
        <ele>570</ele>
        <time>2019-08-02T08:39:43Z</time>
      </trkpt>
      <trkpt lat="44.31451" lon="5.82946">
        <ele>570</ele>
        <time>2019-08-02T08:39:44Z</time>
      </trkpt>
      <trkpt lat="44.31455" lon="5.82939">
        <ele>570</ele>
        <time>2019-08-02T08:39:45Z</time>
      </trkpt>
      <trkpt lat="44.31459" lon="5.82932">
        <ele>570</ele>
        <time>2019-08-02T08:39:46Z</time>
      </trkpt>
      <trkpt lat="44.31463" lon="5.82925">
        <ele>570</ele>
        <time>2019-08-02T08:39:47Z</time>
      </trkpt>
      <trkpt lat="44.31468" lon="5.82919">
        <ele>570</ele>
        <time>2019-08-02T08:39:48Z</time>
      </trkpt>
      <trkpt lat="44.31472" lon="5.82913">
        <ele>570</ele>
        <time>2019-08-02T08:39:49Z</time>
      </trkpt>
      <trkpt lat="44.31476" lon="5.82907">
        <ele>570</ele>
        <time>2019-08-02T08:39:50Z</time>
      </trkpt>
      <trkpt lat="44.3148" lon="5.829">
        <ele>570</ele>
        <time>2019-08-02T08:39:51Z</time>
      </trkpt>
      <trkpt lat="44.31484" lon="5.82894">
        <ele>570</ele>
        <time>2019-08-02T08:39:52Z</time>
      </trkpt>
      <trkpt lat="44.31488" lon="5.82887">
        <ele>570</ele>
        <time>2019-08-02T08:39:53Z</time>
      </trkpt>
      <trkpt lat="44.31492" lon="5.82881">
        <ele>570</ele>
        <time>2019-08-02T08:39:54Z</time>
      </trkpt>
      <trkpt lat="44.31496" lon="5.82875">
        <ele>570</ele>
        <time>2019-08-02T08:39:55Z</time>
      </trkpt>
      <trkpt lat="44.31502" lon="5.82872">
        <ele>570</ele>
        <time>2019-08-02T08:39:56Z</time>
      </trkpt>
      <trkpt lat="44.31507" lon="5.82871">
        <ele>570</ele>
        <time>2019-08-02T08:39:57Z</time>
      </trkpt>
      <trkpt lat="44.31513" lon="5.82873">
        <ele>570</ele>
        <time>2019-08-02T08:39:58Z</time>
      </trkpt>
      <trkpt lat="44.31517" lon="5.82877">
        <ele>570</ele>
        <time>2019-08-02T08:39:59Z</time>
      </trkpt>
      <trkpt lat="44.31522" lon="5.82882">
        <ele>570</ele>
        <time>2019-08-02T08:40:00Z</time>
      </trkpt>
      <trkpt lat="44.31527" lon="5.82886">
        <ele>570</ele>
        <time>2019-08-02T08:40:01Z</time>
      </trkpt>
      <trkpt lat="44.31531" lon="5.8289">
        <ele>570</ele>
        <time>2019-08-02T08:40:02Z</time>
      </trkpt>
      <trkpt lat="44.31535" lon="5.82894">
        <ele>570</ele>
        <time>2019-08-02T08:40:03Z</time>
      </trkpt>
      <trkpt lat="44.31539" lon="5.82899">
        <ele>570</ele>
        <time>2019-08-02T08:40:04Z</time>
      </trkpt>
      <trkpt lat="44.31543" lon="5.82903">
        <ele>570</ele>
        <time>2019-08-02T08:40:05Z</time>
      </trkpt>
      <trkpt lat="44.31548" lon="5.82907">
        <ele>570</ele>
        <time>2019-08-02T08:40:06Z</time>
      </trkpt>
      <trkpt lat="44.31553" lon="5.82911">
        <ele>570</ele>
        <time>2019-08-02T08:40:07Z</time>
      </trkpt>
      <trkpt lat="44.31557" lon="5.82915">
        <ele>570</ele>
        <time>2019-08-02T08:40:08Z</time>
      </trkpt>
      <trkpt lat="44.31562" lon="5.82918">
        <ele>570</ele>
        <time>2019-08-02T08:40:09Z</time>
      </trkpt>
      <trkpt lat="44.31566" lon="5.82921">
        <ele>570</ele>
        <time>2019-08-02T08:40:10Z</time>
      </trkpt>
      <trkpt lat="44.3157" lon="5.82923">
        <ele>570</ele>
        <time>2019-08-02T08:40:11Z</time>
      </trkpt>
      <trkpt lat="44.31575" lon="5.82926">
        <ele>570</ele>
        <time>2019-08-02T08:40:12Z</time>
      </trkpt>
      <trkpt lat="44.31579" lon="5.82929">
        <ele>570</ele>
        <time>2019-08-02T08:40:13Z</time>
      </trkpt>
      <trkpt lat="44.31583" lon="5.82932">
        <ele>570</ele>
        <time>2019-08-02T08:40:14Z</time>
      </trkpt>
      <trkpt lat="44.31587" lon="5.82935">
        <ele>570</ele>
        <time>2019-08-02T08:40:15Z</time>
      </trkpt>
      <trkpt lat="44.3159" lon="5.82937">
        <ele>570</ele>
        <time>2019-08-02T08:40:16Z</time>
      </trkpt>
      <trkpt lat="44.31593" lon="5.82939">
        <ele>570</ele>
        <time>2019-08-02T08:40:17Z</time>
      </trkpt>
      <trkpt lat="44.31596" lon="5.82941">
        <ele>570</ele>
        <time>2019-08-02T08:40:18Z</time>
      </trkpt>
      <trkpt lat="44.31598" lon="5.82943">
        <ele>570</ele>
        <time>2019-08-02T08:40:19Z</time>
      </trkpt>
      <trkpt lat="44.316" lon="5.82945">
        <ele>570</ele>
        <time>2019-08-02T08:40:20Z</time>
      </trkpt>
      <trkpt lat="44.31601" lon="5.82945">
        <ele>570</ele>
        <time>2019-08-02T08:40:21Z</time>
      </trkpt>
      <trkpt lat="44.31603" lon="5.82946">
        <ele>570</ele>
        <time>2019-08-02T08:40:23Z</time>
      </trkpt>
      <trkpt lat="44.31604" lon="5.82949">
        <ele>570</ele>
        <time>2019-08-02T08:40:25Z</time>
      </trkpt>
      <trkpt lat="44.31604" lon="5.82952">
        <ele>570</ele>
        <time>2019-08-02T08:40:26Z</time>
      </trkpt>
      <trkpt lat="44.31604" lon="5.82954">
        <ele>570</ele>
        <time>2019-08-02T08:40:27Z</time>
      </trkpt>
      <trkpt lat="44.31604" lon="5.82957">
        <ele>570</ele>
        <time>2019-08-02T08:40:28Z</time>
      </trkpt>
      <trkpt lat="44.31605" lon="5.8296">
        <ele>570</ele>
        <time>2019-08-02T08:40:29Z</time>
      </trkpt>
      <trkpt lat="44.31605" lon="5.82962">
        <ele>570</ele>
        <time>2019-08-02T08:40:30Z</time>
      </trkpt>
      <trkpt lat="44.31606" lon="5.82964">
        <ele>570</ele>
        <time>2019-08-02T08:40:31Z</time>
      </trkpt>
      <trkpt lat="44.31605" lon="5.82967">
        <ele>570</ele>
        <time>2019-08-02T08:40:32Z</time>
      </trkpt>
      <trkpt lat="44.31604" lon="5.82969">
        <ele>570</ele>
        <time>2019-08-02T08:40:33Z</time>
      </trkpt>
      <trkpt lat="44.31602" lon="5.82971">
        <ele>570</ele>
        <time>2019-08-02T08:40:35Z</time>
      </trkpt>
      <trkpt lat="44.31602" lon="5.82971">
        <ele>574</ele>
        <time>2019-08-02T08:40:41Z</time>
      </trkpt>
    </trkseg>
  </trk>
</gpx>